<?xml version="1.0" encoding="UTF-8" standalone="no" ?>
<gpx xmlns="http://www.topografix.com/GPX/1/1" xmlns:xsi="http://www.w3.org/2001/XMLSchema-instance" xsi:schemaLocation="http://www.topografix.com/GPX/1/1 http://www.topografix.com/GPX/1/1/gpx.xsd" version="1.1" creator="VisuGPX - https://www.visugpx.com">
  <metadata>
    <name>Sens-Soucy-St Clément</name>
    <desc><![CDATA[Parcours mi-roulant, mi-engagé, dans la foret de Soucy]]></desc>
  </metadata>
  <trk>
    <name><![CDATA[29/09/2013 9:28]]></name>
    <desc><![CDATA[]]></desc>
    <trkseg>
      <trkpt lat="48.20467" lon="3.27369">
        <ele>67</ele>
        <time>2013-09-29T07:31:27.722Z</time>
      </trkpt>
      <trkpt lat="48.20467" lon="3.27369">
        <ele>67</ele>
        <time>2013-09-29T07:31:30.000Z</time>
      </trkpt>
      <trkpt lat="48.20475" lon="3.27363">
        <ele>67</ele>
        <time>2013-09-29T07:31:31.000Z</time>
      </trkpt>
      <trkpt lat="48.20475" lon="3.27363">
        <ele>67</ele>
        <time>2013-09-29T07:31:33.000Z</time>
      </trkpt>
      <trkpt lat="48.20465" lon="3.2735">
        <ele>67</ele>
        <time>2013-09-29T07:31:34.000Z</time>
      </trkpt>
      <trkpt lat="48.20465" lon="3.2735">
        <ele>67</ele>
        <time>2013-09-29T07:31:35.000Z</time>
      </trkpt>
      <trkpt lat="48.2046" lon="3.27339">
        <ele>67</ele>
        <time>2013-09-29T07:31:36.000Z</time>
      </trkpt>
      <trkpt lat="48.2046" lon="3.27339">
        <ele>67</ele>
        <time>2013-09-29T07:31:37.000Z</time>
      </trkpt>
      <trkpt lat="48.20455" lon="3.27309">
        <ele>66</ele>
        <time>2013-09-29T07:31:38.000Z</time>
      </trkpt>
      <trkpt lat="48.20452" lon="3.2729">
        <ele>66</ele>
        <time>2013-09-29T07:31:39.000Z</time>
      </trkpt>
      <trkpt lat="48.20451" lon="3.27275">
        <ele>66</ele>
        <time>2013-09-29T07:31:40.000Z</time>
      </trkpt>
      <trkpt lat="48.2045" lon="3.2726">
        <ele>66</ele>
        <time>2013-09-29T07:31:41.000Z</time>
      </trkpt>
      <trkpt lat="48.20449" lon="3.27247">
        <ele>66</ele>
        <time>2013-09-29T07:31:42.000Z</time>
      </trkpt>
      <trkpt lat="48.20449" lon="3.27236">
        <ele>66</ele>
        <time>2013-09-29T07:31:43.000Z</time>
      </trkpt>
      <trkpt lat="48.20448" lon="3.27223">
        <ele>66</ele>
        <time>2013-09-29T07:31:44.000Z</time>
      </trkpt>
      <trkpt lat="48.2045" lon="3.2721">
        <ele>66</ele>
        <time>2013-09-29T07:31:45.000Z</time>
      </trkpt>
      <trkpt lat="48.20452" lon="3.27199">
        <ele>65</ele>
        <time>2013-09-29T07:31:46.000Z</time>
      </trkpt>
      <trkpt lat="48.20455" lon="3.27187">
        <ele>65</ele>
        <time>2013-09-29T07:31:47.000Z</time>
      </trkpt>
      <trkpt lat="48.2046" lon="3.27176">
        <ele>65</ele>
        <time>2013-09-29T07:31:48.000Z</time>
      </trkpt>
      <trkpt lat="48.20466" lon="3.27167">
        <ele>65</ele>
        <time>2013-09-29T07:31:49.000Z</time>
      </trkpt>
      <trkpt lat="48.20472" lon="3.27159">
        <ele>65</ele>
        <time>2013-09-29T07:31:50.000Z</time>
      </trkpt>
      <trkpt lat="48.20479" lon="3.27152">
        <ele>65</ele>
        <time>2013-09-29T07:31:51.000Z</time>
      </trkpt>
      <trkpt lat="48.20485" lon="3.27146">
        <ele>65</ele>
        <time>2013-09-29T07:31:52.000Z</time>
      </trkpt>
      <trkpt lat="48.20491" lon="3.27142">
        <ele>65</ele>
        <time>2013-09-29T07:31:53.000Z</time>
      </trkpt>
      <trkpt lat="48.20497" lon="3.27139">
        <ele>65</ele>
        <time>2013-09-29T07:31:54.000Z</time>
      </trkpt>
      <trkpt lat="48.20504" lon="3.27135">
        <ele>65</ele>
        <time>2013-09-29T07:31:55.000Z</time>
      </trkpt>
      <trkpt lat="48.2051" lon="3.27133">
        <ele>65</ele>
        <time>2013-09-29T07:31:56.000Z</time>
      </trkpt>
      <trkpt lat="48.20516" lon="3.27129">
        <ele>65</ele>
        <time>2013-09-29T07:31:57.000Z</time>
      </trkpt>
      <trkpt lat="48.20522" lon="3.27127">
        <ele>65</ele>
        <time>2013-09-29T07:31:58.000Z</time>
      </trkpt>
      <trkpt lat="48.20528" lon="3.27124">
        <ele>66</ele>
        <time>2013-09-29T07:31:59.000Z</time>
      </trkpt>
      <trkpt lat="48.20534" lon="3.27122">
        <ele>66</ele>
        <time>2013-09-29T07:32:00.000Z</time>
      </trkpt>
      <trkpt lat="48.2054" lon="3.2712">
        <ele>66</ele>
        <time>2013-09-29T07:32:01.000Z</time>
      </trkpt>
      <trkpt lat="48.20545" lon="3.2712">
        <ele>66</ele>
        <time>2013-09-29T07:32:02.000Z</time>
      </trkpt>
      <trkpt lat="48.20552" lon="3.27118">
        <ele>66</ele>
        <time>2013-09-29T07:32:03.000Z</time>
      </trkpt>
      <trkpt lat="48.20557" lon="3.27116">
        <ele>66</ele>
        <time>2013-09-29T07:32:04.000Z</time>
      </trkpt>
      <trkpt lat="48.20564" lon="3.27116">
        <ele>66</ele>
        <time>2013-09-29T07:32:05.000Z</time>
      </trkpt>
      <trkpt lat="48.20569" lon="3.27114">
        <ele>66</ele>
        <time>2013-09-29T07:32:06.000Z</time>
      </trkpt>
      <trkpt lat="48.20575" lon="3.27111">
        <ele>66</ele>
        <time>2013-09-29T07:32:07.000Z</time>
      </trkpt>
      <trkpt lat="48.20581" lon="3.27111">
        <ele>66</ele>
        <time>2013-09-29T07:32:08.000Z</time>
      </trkpt>
      <trkpt lat="48.20587" lon="3.27109">
        <ele>66</ele>
        <time>2013-09-29T07:32:09.000Z</time>
      </trkpt>
      <trkpt lat="48.20593" lon="3.27107">
        <ele>66</ele>
        <time>2013-09-29T07:32:10.000Z</time>
      </trkpt>
      <trkpt lat="48.20599" lon="3.27105">
        <ele>66</ele>
        <time>2013-09-29T07:32:11.000Z</time>
      </trkpt>
      <trkpt lat="48.20604" lon="3.27103">
        <ele>66</ele>
        <time>2013-09-29T07:32:12.000Z</time>
      </trkpt>
      <trkpt lat="48.2061" lon="3.27101">
        <ele>66</ele>
        <time>2013-09-29T07:32:13.000Z</time>
      </trkpt>
      <trkpt lat="48.20616" lon="3.27099">
        <ele>66</ele>
        <time>2013-09-29T07:32:14.000Z</time>
      </trkpt>
      <trkpt lat="48.20622" lon="3.27096">
        <ele>66</ele>
        <time>2013-09-29T07:32:15.000Z</time>
      </trkpt>
      <trkpt lat="48.20627" lon="3.27096">
        <ele>66</ele>
        <time>2013-09-29T07:32:16.000Z</time>
      </trkpt>
      <trkpt lat="48.20632" lon="3.27094">
        <ele>66</ele>
        <time>2013-09-29T07:32:17.000Z</time>
      </trkpt>
      <trkpt lat="48.20638" lon="3.27092">
        <ele>66</ele>
        <time>2013-09-29T07:32:18.000Z</time>
      </trkpt>
      <trkpt lat="48.20642" lon="3.2709">
        <ele>66</ele>
        <time>2013-09-29T07:32:19.000Z</time>
      </trkpt>
      <trkpt lat="48.20647" lon="3.27088">
        <ele>66</ele>
        <time>2013-09-29T07:32:20.000Z</time>
      </trkpt>
      <trkpt lat="48.20651" lon="3.27088">
        <ele>66</ele>
        <time>2013-09-29T07:32:21.000Z</time>
      </trkpt>
      <trkpt lat="48.20654" lon="3.27088">
        <ele>66</ele>
        <time>2013-09-29T07:32:22.000Z</time>
      </trkpt>
      <trkpt lat="48.20657" lon="3.27088">
        <ele>66</ele>
        <time>2013-09-29T07:32:23.000Z</time>
      </trkpt>
      <trkpt lat="48.20659" lon="3.2709">
        <ele>66</ele>
        <time>2013-09-29T07:32:24.000Z</time>
      </trkpt>
      <trkpt lat="48.20659" lon="3.2709">
        <ele>66</ele>
        <time>2013-09-29T07:33:21.000Z</time>
      </trkpt>
      <trkpt lat="48.20658" lon="3.27081">
        <ele>66</ele>
        <time>2013-09-29T07:33:22.000Z</time>
      </trkpt>
      <trkpt lat="48.20658" lon="3.27081">
        <ele>66</ele>
        <time>2013-09-29T07:33:24.000Z</time>
      </trkpt>
      <trkpt lat="48.20653" lon="3.27066">
        <ele>66</ele>
        <time>2013-09-29T07:33:25.000Z</time>
      </trkpt>
      <trkpt lat="48.20653" lon="3.27066">
        <ele>66</ele>
        <time>2013-09-29T07:33:26.000Z</time>
      </trkpt>
      <trkpt lat="48.20647" lon="3.27066">
        <ele>66</ele>
        <time>2013-09-29T07:33:27.000Z</time>
      </trkpt>
      <trkpt lat="48.20644" lon="3.27066">
        <ele>66</ele>
        <time>2013-09-29T07:33:28.000Z</time>
      </trkpt>
      <trkpt lat="48.20642" lon="3.27069">
        <ele>67</ele>
        <time>2013-09-29T07:33:29.000Z</time>
      </trkpt>
      <trkpt lat="48.20639" lon="3.27071">
        <ele>67</ele>
        <time>2013-09-29T07:33:30.000Z</time>
      </trkpt>
      <trkpt lat="48.20636" lon="3.27071">
        <ele>67</ele>
        <time>2013-09-29T07:33:31.000Z</time>
      </trkpt>
      <trkpt lat="48.20632" lon="3.27073">
        <ele>67</ele>
        <time>2013-09-29T07:33:32.000Z</time>
      </trkpt>
      <trkpt lat="48.20629" lon="3.27073">
        <ele>67</ele>
        <time>2013-09-29T07:33:33.000Z</time>
      </trkpt>
      <trkpt lat="48.20624" lon="3.27075">
        <ele>67</ele>
        <time>2013-09-29T07:33:34.000Z</time>
      </trkpt>
      <trkpt lat="48.20619" lon="3.27077">
        <ele>67</ele>
        <time>2013-09-29T07:33:35.000Z</time>
      </trkpt>
      <trkpt lat="48.20614" lon="3.27079">
        <ele>67</ele>
        <time>2013-09-29T07:33:36.000Z</time>
      </trkpt>
      <trkpt lat="48.20609" lon="3.27081">
        <ele>67</ele>
        <time>2013-09-29T07:33:37.000Z</time>
      </trkpt>
      <trkpt lat="48.20603" lon="3.27084">
        <ele>66</ele>
        <time>2013-09-29T07:33:38.000Z</time>
      </trkpt>
      <trkpt lat="48.20598" lon="3.27086">
        <ele>66</ele>
        <time>2013-09-29T07:33:39.000Z</time>
      </trkpt>
      <trkpt lat="48.20592" lon="3.27088">
        <ele>67</ele>
        <time>2013-09-29T07:33:40.000Z</time>
      </trkpt>
      <trkpt lat="48.20586" lon="3.27088">
        <ele>67</ele>
        <time>2013-09-29T07:33:41.000Z</time>
      </trkpt>
      <trkpt lat="48.20581" lon="3.2709">
        <ele>67</ele>
        <time>2013-09-29T07:33:42.000Z</time>
      </trkpt>
      <trkpt lat="48.20574" lon="3.27092">
        <ele>66</ele>
        <time>2013-09-29T07:33:43.000Z</time>
      </trkpt>
      <trkpt lat="48.20569" lon="3.27094">
        <ele>66</ele>
        <time>2013-09-29T07:33:44.000Z</time>
      </trkpt>
      <trkpt lat="48.20564" lon="3.27096">
        <ele>66</ele>
        <time>2013-09-29T07:33:45.000Z</time>
      </trkpt>
      <trkpt lat="48.20558" lon="3.27099">
        <ele>66</ele>
        <time>2013-09-29T07:33:46.000Z</time>
      </trkpt>
      <trkpt lat="48.20553" lon="3.27101">
        <ele>66</ele>
        <time>2013-09-29T07:33:47.000Z</time>
      </trkpt>
      <trkpt lat="48.20548" lon="3.27103">
        <ele>66</ele>
        <time>2013-09-29T07:33:48.000Z</time>
      </trkpt>
      <trkpt lat="48.20542" lon="3.27107">
        <ele>66</ele>
        <time>2013-09-29T07:33:49.000Z</time>
      </trkpt>
      <trkpt lat="48.20537" lon="3.27109">
        <ele>66</ele>
        <time>2013-09-29T07:33:50.000Z</time>
      </trkpt>
      <trkpt lat="48.20531" lon="3.27114">
        <ele>66</ele>
        <time>2013-09-29T07:33:51.000Z</time>
      </trkpt>
      <trkpt lat="48.20526" lon="3.27118">
        <ele>66</ele>
        <time>2013-09-29T07:33:52.000Z</time>
      </trkpt>
      <trkpt lat="48.20521" lon="3.2712">
        <ele>66</ele>
        <time>2013-09-29T07:33:53.000Z</time>
      </trkpt>
      <trkpt lat="48.20515" lon="3.27122">
        <ele>66</ele>
        <time>2013-09-29T07:33:54.000Z</time>
      </trkpt>
      <trkpt lat="48.2051" lon="3.27127">
        <ele>65</ele>
        <time>2013-09-29T07:33:55.000Z</time>
      </trkpt>
      <trkpt lat="48.20505" lon="3.27129">
        <ele>65</ele>
        <time>2013-09-29T07:33:56.000Z</time>
      </trkpt>
      <trkpt lat="48.20499" lon="3.27133">
        <ele>65</ele>
        <time>2013-09-29T07:33:57.000Z</time>
      </trkpt>
      <trkpt lat="48.20494" lon="3.27135">
        <ele>65</ele>
        <time>2013-09-29T07:33:58.000Z</time>
      </trkpt>
      <trkpt lat="48.20489" lon="3.27137">
        <ele>65</ele>
        <time>2013-09-29T07:33:59.000Z</time>
      </trkpt>
      <trkpt lat="48.20483" lon="3.27139">
        <ele>65</ele>
        <time>2013-09-29T07:34:00.000Z</time>
      </trkpt>
      <trkpt lat="48.20479" lon="3.27144">
        <ele>65</ele>
        <time>2013-09-29T07:34:01.000Z</time>
      </trkpt>
      <trkpt lat="48.20474" lon="3.27146">
        <ele>65</ele>
        <time>2013-09-29T07:34:02.000Z</time>
      </trkpt>
      <trkpt lat="48.20468" lon="3.27148">
        <ele>65</ele>
        <time>2013-09-29T07:34:03.000Z</time>
      </trkpt>
      <trkpt lat="48.20463" lon="3.27152">
        <ele>65</ele>
        <time>2013-09-29T07:34:04.000Z</time>
      </trkpt>
      <trkpt lat="48.20457" lon="3.27154">
        <ele>65</ele>
        <time>2013-09-29T07:34:05.000Z</time>
      </trkpt>
      <trkpt lat="48.20452" lon="3.27157">
        <ele>65</ele>
        <time>2013-09-29T07:34:06.000Z</time>
      </trkpt>
      <trkpt lat="48.20448" lon="3.27159">
        <ele>65</ele>
        <time>2013-09-29T07:34:07.000Z</time>
      </trkpt>
      <trkpt lat="48.20442" lon="3.27163">
        <ele>65</ele>
        <time>2013-09-29T07:34:08.000Z</time>
      </trkpt>
      <trkpt lat="48.20438" lon="3.27165">
        <ele>65</ele>
        <time>2013-09-29T07:34:09.000Z</time>
      </trkpt>
      <trkpt lat="48.20433" lon="3.27169">
        <ele>65</ele>
        <time>2013-09-29T07:34:10.000Z</time>
      </trkpt>
      <trkpt lat="48.2043" lon="3.27174">
        <ele>65</ele>
        <time>2013-09-29T07:34:11.000Z</time>
      </trkpt>
      <trkpt lat="48.20428" lon="3.2718">
        <ele>65</ele>
        <time>2013-09-29T07:34:12.000Z</time>
      </trkpt>
      <trkpt lat="48.20427" lon="3.27187">
        <ele>65</ele>
        <time>2013-09-29T07:34:13.000Z</time>
      </trkpt>
      <trkpt lat="48.20428" lon="3.27195">
        <ele>65</ele>
        <time>2013-09-29T07:34:14.000Z</time>
      </trkpt>
      <trkpt lat="48.20428" lon="3.27202">
        <ele>65</ele>
        <time>2013-09-29T07:34:15.000Z</time>
      </trkpt>
      <trkpt lat="48.2043" lon="3.2721">
        <ele>66</ele>
        <time>2013-09-29T07:34:16.000Z</time>
      </trkpt>
      <trkpt lat="48.20431" lon="3.27219">
        <ele>66</ele>
        <time>2013-09-29T07:34:17.000Z</time>
      </trkpt>
      <trkpt lat="48.20432" lon="3.27227">
        <ele>66</ele>
        <time>2013-09-29T07:34:18.000Z</time>
      </trkpt>
      <trkpt lat="48.20433" lon="3.27236">
        <ele>66</ele>
        <time>2013-09-29T07:34:19.000Z</time>
      </trkpt>
      <trkpt lat="48.20435" lon="3.27245">
        <ele>66</ele>
        <time>2013-09-29T07:34:20.000Z</time>
      </trkpt>
      <trkpt lat="48.20436" lon="3.27253">
        <ele>66</ele>
        <time>2013-09-29T07:34:21.000Z</time>
      </trkpt>
      <trkpt lat="48.20437" lon="3.2726">
        <ele>66</ele>
        <time>2013-09-29T07:34:22.000Z</time>
      </trkpt>
      <trkpt lat="48.20438" lon="3.27268">
        <ele>66</ele>
        <time>2013-09-29T07:34:23.000Z</time>
      </trkpt>
      <trkpt lat="48.2044" lon="3.27277">
        <ele>66</ele>
        <time>2013-09-29T07:34:24.000Z</time>
      </trkpt>
      <trkpt lat="48.20441" lon="3.27283">
        <ele>66</ele>
        <time>2013-09-29T07:34:25.000Z</time>
      </trkpt>
      <trkpt lat="48.20442" lon="3.27292">
        <ele>66</ele>
        <time>2013-09-29T07:34:26.000Z</time>
      </trkpt>
      <trkpt lat="48.20444" lon="3.27298">
        <ele>66</ele>
        <time>2013-09-29T07:34:27.000Z</time>
      </trkpt>
      <trkpt lat="48.20445" lon="3.27305">
        <ele>66</ele>
        <time>2013-09-29T07:34:28.000Z</time>
      </trkpt>
      <trkpt lat="48.20447" lon="3.27311">
        <ele>66</ele>
        <time>2013-09-29T07:34:29.000Z</time>
      </trkpt>
      <trkpt lat="48.20448" lon="3.2732">
        <ele>66</ele>
        <time>2013-09-29T07:34:30.000Z</time>
      </trkpt>
      <trkpt lat="48.20449" lon="3.27326">
        <ele>66</ele>
        <time>2013-09-29T07:34:31.000Z</time>
      </trkpt>
      <trkpt lat="48.20449" lon="3.27332">
        <ele>66</ele>
        <time>2013-09-29T07:34:32.000Z</time>
      </trkpt>
      <trkpt lat="48.2045" lon="3.27339">
        <ele>67</ele>
        <time>2013-09-29T07:34:33.000Z</time>
      </trkpt>
      <trkpt lat="48.20451" lon="3.27345">
        <ele>67</ele>
        <time>2013-09-29T07:34:34.000Z</time>
      </trkpt>
      <trkpt lat="48.20452" lon="3.27354">
        <ele>67</ele>
        <time>2013-09-29T07:34:35.000Z</time>
      </trkpt>
      <trkpt lat="48.20453" lon="3.2736">
        <ele>67</ele>
        <time>2013-09-29T07:34:36.000Z</time>
      </trkpt>
      <trkpt lat="48.20454" lon="3.27367">
        <ele>67</ele>
        <time>2013-09-29T07:34:37.000Z</time>
      </trkpt>
      <trkpt lat="48.20455" lon="3.27375">
        <ele>67</ele>
        <time>2013-09-29T07:34:38.000Z</time>
      </trkpt>
      <trkpt lat="48.20456" lon="3.27382">
        <ele>67</ele>
        <time>2013-09-29T07:34:39.000Z</time>
      </trkpt>
      <trkpt lat="48.20459" lon="3.27388">
        <ele>67</ele>
        <time>2013-09-29T07:34:40.000Z</time>
      </trkpt>
      <trkpt lat="48.2046" lon="3.27397">
        <ele>67</ele>
        <time>2013-09-29T07:34:41.000Z</time>
      </trkpt>
      <trkpt lat="48.20461" lon="3.27403">
        <ele>67</ele>
        <time>2013-09-29T07:34:42.000Z</time>
      </trkpt>
      <trkpt lat="48.20462" lon="3.27412">
        <ele>67</ele>
        <time>2013-09-29T07:34:43.000Z</time>
      </trkpt>
      <trkpt lat="48.20463" lon="3.2742">
        <ele>67</ele>
        <time>2013-09-29T07:34:44.000Z</time>
      </trkpt>
      <trkpt lat="48.20464" lon="3.27427">
        <ele>67</ele>
        <time>2013-09-29T07:34:45.000Z</time>
      </trkpt>
      <trkpt lat="48.20465" lon="3.27435">
        <ele>67</ele>
        <time>2013-09-29T07:34:46.000Z</time>
      </trkpt>
      <trkpt lat="48.20466" lon="3.27442">
        <ele>67</ele>
        <time>2013-09-29T07:34:47.000Z</time>
      </trkpt>
      <trkpt lat="48.20467" lon="3.27451">
        <ele>67</ele>
        <time>2013-09-29T07:34:48.000Z</time>
      </trkpt>
      <trkpt lat="48.20468" lon="3.27457">
        <ele>67</ele>
        <time>2013-09-29T07:34:49.000Z</time>
      </trkpt>
      <trkpt lat="48.20469" lon="3.27463">
        <ele>67</ele>
        <time>2013-09-29T07:34:50.000Z</time>
      </trkpt>
      <trkpt lat="48.2047" lon="3.27472">
        <ele>66</ele>
        <time>2013-09-29T07:34:51.000Z</time>
      </trkpt>
      <trkpt lat="48.20472" lon="3.27478">
        <ele>66</ele>
        <time>2013-09-29T07:34:52.000Z</time>
      </trkpt>
      <trkpt lat="48.20474" lon="3.27487">
        <ele>66</ele>
        <time>2013-09-29T07:34:53.000Z</time>
      </trkpt>
      <trkpt lat="48.20475" lon="3.27496">
        <ele>66</ele>
        <time>2013-09-29T07:34:54.000Z</time>
      </trkpt>
      <trkpt lat="48.20477" lon="3.27502">
        <ele>66</ele>
        <time>2013-09-29T07:34:55.000Z</time>
      </trkpt>
      <trkpt lat="48.20478" lon="3.27511">
        <ele>66</ele>
        <time>2013-09-29T07:34:56.000Z</time>
      </trkpt>
      <trkpt lat="48.20479" lon="3.27519">
        <ele>66</ele>
        <time>2013-09-29T07:34:57.000Z</time>
      </trkpt>
      <trkpt lat="48.2048" lon="3.27526">
        <ele>66</ele>
        <time>2013-09-29T07:34:58.000Z</time>
      </trkpt>
      <trkpt lat="48.20482" lon="3.27534">
        <ele>66</ele>
        <time>2013-09-29T07:34:59.000Z</time>
      </trkpt>
      <trkpt lat="48.20483" lon="3.27543">
        <ele>66</ele>
        <time>2013-09-29T07:35:00.000Z</time>
      </trkpt>
      <trkpt lat="48.20485" lon="3.27551">
        <ele>66</ele>
        <time>2013-09-29T07:35:01.000Z</time>
      </trkpt>
      <trkpt lat="48.20486" lon="3.2756">
        <ele>65</ele>
        <time>2013-09-29T07:35:02.000Z</time>
      </trkpt>
      <trkpt lat="48.20487" lon="3.27571">
        <ele>65</ele>
        <time>2013-09-29T07:35:03.000Z</time>
      </trkpt>
      <trkpt lat="48.2049" lon="3.27579">
        <ele>65</ele>
        <time>2013-09-29T07:35:04.000Z</time>
      </trkpt>
      <trkpt lat="48.20492" lon="3.27588">
        <ele>65</ele>
        <time>2013-09-29T07:35:05.000Z</time>
      </trkpt>
      <trkpt lat="48.20493" lon="3.27599">
        <ele>65</ele>
        <time>2013-09-29T07:35:06.000Z</time>
      </trkpt>
      <trkpt lat="48.20495" lon="3.27607">
        <ele>65</ele>
        <time>2013-09-29T07:35:07.000Z</time>
      </trkpt>
      <trkpt lat="48.20496" lon="3.27618">
        <ele>65</ele>
        <time>2013-09-29T07:35:08.000Z</time>
      </trkpt>
      <trkpt lat="48.20498" lon="3.27629">
        <ele>65</ele>
        <time>2013-09-29T07:35:09.000Z</time>
      </trkpt>
      <trkpt lat="48.205" lon="3.27639">
        <ele>65</ele>
        <time>2013-09-29T07:35:10.000Z</time>
      </trkpt>
      <trkpt lat="48.20501" lon="3.2765">
        <ele>65</ele>
        <time>2013-09-29T07:35:11.000Z</time>
      </trkpt>
      <trkpt lat="48.20504" lon="3.27661">
        <ele>64</ele>
        <time>2013-09-29T07:35:12.000Z</time>
      </trkpt>
      <trkpt lat="48.20506" lon="3.27674">
        <ele>64</ele>
        <time>2013-09-29T07:35:13.000Z</time>
      </trkpt>
      <trkpt lat="48.20508" lon="3.27684">
        <ele>65</ele>
        <time>2013-09-29T07:35:14.000Z</time>
      </trkpt>
      <trkpt lat="48.2051" lon="3.27695">
        <ele>65</ele>
        <time>2013-09-29T07:35:15.000Z</time>
      </trkpt>
      <trkpt lat="48.20512" lon="3.27704">
        <ele>65</ele>
        <time>2013-09-29T07:35:16.000Z</time>
      </trkpt>
      <trkpt lat="48.20514" lon="3.27714">
        <ele>65</ele>
        <time>2013-09-29T07:35:17.000Z</time>
      </trkpt>
      <trkpt lat="48.20516" lon="3.27723">
        <ele>65</ele>
        <time>2013-09-29T07:35:18.000Z</time>
      </trkpt>
      <trkpt lat="48.20518" lon="3.27734">
        <ele>65</ele>
        <time>2013-09-29T07:35:19.000Z</time>
      </trkpt>
      <trkpt lat="48.20518" lon="3.27742">
        <ele>65</ele>
        <time>2013-09-29T07:35:20.000Z</time>
      </trkpt>
      <trkpt lat="48.20518" lon="3.27749">
        <ele>65</ele>
        <time>2013-09-29T07:35:21.000Z</time>
      </trkpt>
      <trkpt lat="48.20518" lon="3.27755">
        <ele>64</ele>
        <time>2013-09-29T07:35:22.000Z</time>
      </trkpt>
      <trkpt lat="48.20516" lon="3.27762">
        <ele>64</ele>
        <time>2013-09-29T07:35:23.000Z</time>
      </trkpt>
      <trkpt lat="48.20515" lon="3.27766">
        <ele>64</ele>
        <time>2013-09-29T07:35:24.000Z</time>
      </trkpt>
      <trkpt lat="48.20513" lon="3.2777">
        <ele>64</ele>
        <time>2013-09-29T07:35:25.000Z</time>
      </trkpt>
      <trkpt lat="48.20512" lon="3.27777">
        <ele>64</ele>
        <time>2013-09-29T07:35:26.000Z</time>
      </trkpt>
      <trkpt lat="48.20511" lon="3.27783">
        <ele>65</ele>
        <time>2013-09-29T07:35:27.000Z</time>
      </trkpt>
      <trkpt lat="48.2051" lon="3.2779">
        <ele>65</ele>
        <time>2013-09-29T07:35:28.000Z</time>
      </trkpt>
      <trkpt lat="48.2051" lon="3.27794">
        <ele>65</ele>
        <time>2013-09-29T07:35:29.000Z</time>
      </trkpt>
      <trkpt lat="48.20511" lon="3.278">
        <ele>64</ele>
        <time>2013-09-29T07:35:30.000Z</time>
      </trkpt>
      <trkpt lat="48.20512" lon="3.27807">
        <ele>64</ele>
        <time>2013-09-29T07:35:31.000Z</time>
      </trkpt>
      <trkpt lat="48.20514" lon="3.27811">
        <ele>64</ele>
        <time>2013-09-29T07:35:32.000Z</time>
      </trkpt>
      <trkpt lat="48.20519" lon="3.27815">
        <ele>64</ele>
        <time>2013-09-29T07:35:33.000Z</time>
      </trkpt>
      <trkpt lat="48.20524" lon="3.27817">
        <ele>65</ele>
        <time>2013-09-29T07:35:34.000Z</time>
      </trkpt>
      <trkpt lat="48.20529" lon="3.27815">
        <ele>65</ele>
        <time>2013-09-29T07:35:35.000Z</time>
      </trkpt>
      <trkpt lat="48.20534" lon="3.27813">
        <ele>65</ele>
        <time>2013-09-29T07:35:36.000Z</time>
      </trkpt>
      <trkpt lat="48.20538" lon="3.27811">
        <ele>65</ele>
        <time>2013-09-29T07:35:37.000Z</time>
      </trkpt>
      <trkpt lat="48.20541" lon="3.27809">
        <ele>65</ele>
        <time>2013-09-29T07:35:38.000Z</time>
      </trkpt>
      <trkpt lat="48.20544" lon="3.27805">
        <ele>65</ele>
        <time>2013-09-29T07:35:39.000Z</time>
      </trkpt>
      <trkpt lat="48.20547" lon="3.278">
        <ele>65</ele>
        <time>2013-09-29T07:35:40.000Z</time>
      </trkpt>
      <trkpt lat="48.2055" lon="3.27796">
        <ele>65</ele>
        <time>2013-09-29T07:35:41.000Z</time>
      </trkpt>
      <trkpt lat="48.20554" lon="3.27794">
        <ele>65</ele>
        <time>2013-09-29T07:35:42.000Z</time>
      </trkpt>
      <trkpt lat="48.20557" lon="3.27792">
        <ele>65</ele>
        <time>2013-09-29T07:35:43.000Z</time>
      </trkpt>
      <trkpt lat="48.20562" lon="3.2779">
        <ele>65</ele>
        <time>2013-09-29T07:35:44.000Z</time>
      </trkpt>
      <trkpt lat="48.20566" lon="3.27785">
        <ele>65</ele>
        <time>2013-09-29T07:35:45.000Z</time>
      </trkpt>
      <trkpt lat="48.20569" lon="3.27783">
        <ele>65</ele>
        <time>2013-09-29T07:35:46.000Z</time>
      </trkpt>
      <trkpt lat="48.20573" lon="3.27781">
        <ele>65</ele>
        <time>2013-09-29T07:35:47.000Z</time>
      </trkpt>
      <trkpt lat="48.20577" lon="3.27781">
        <ele>65</ele>
        <time>2013-09-29T07:35:48.000Z</time>
      </trkpt>
      <trkpt lat="48.20581" lon="3.27781">
        <ele>65</ele>
        <time>2013-09-29T07:35:49.000Z</time>
      </trkpt>
      <trkpt lat="48.20585" lon="3.27781">
        <ele>65</ele>
        <time>2013-09-29T07:35:50.000Z</time>
      </trkpt>
      <trkpt lat="48.20589" lon="3.27781">
        <ele>65</ele>
        <time>2013-09-29T07:35:51.000Z</time>
      </trkpt>
      <trkpt lat="48.20594" lon="3.27781">
        <ele>65</ele>
        <time>2013-09-29T07:35:52.000Z</time>
      </trkpt>
      <trkpt lat="48.20598" lon="3.27781">
        <ele>65</ele>
        <time>2013-09-29T07:35:53.000Z</time>
      </trkpt>
      <trkpt lat="48.20602" lon="3.27781">
        <ele>65</ele>
        <time>2013-09-29T07:35:54.000Z</time>
      </trkpt>
      <trkpt lat="48.20607" lon="3.27781">
        <ele>65</ele>
        <time>2013-09-29T07:35:55.000Z</time>
      </trkpt>
      <trkpt lat="48.20611" lon="3.27781">
        <ele>65</ele>
        <time>2013-09-29T07:35:56.000Z</time>
      </trkpt>
      <trkpt lat="48.20615" lon="3.27781">
        <ele>65</ele>
        <time>2013-09-29T07:35:57.000Z</time>
      </trkpt>
      <trkpt lat="48.20621" lon="3.27781">
        <ele>65</ele>
        <time>2013-09-29T07:35:58.000Z</time>
      </trkpt>
      <trkpt lat="48.20626" lon="3.27781">
        <ele>65</ele>
        <time>2013-09-29T07:35:59.000Z</time>
      </trkpt>
      <trkpt lat="48.20631" lon="3.27781">
        <ele>65</ele>
        <time>2013-09-29T07:36:00.000Z</time>
      </trkpt>
      <trkpt lat="48.20636" lon="3.27779">
        <ele>65</ele>
        <time>2013-09-29T07:36:01.000Z</time>
      </trkpt>
      <trkpt lat="48.20641" lon="3.27779">
        <ele>65</ele>
        <time>2013-09-29T07:36:02.000Z</time>
      </trkpt>
      <trkpt lat="48.20646" lon="3.27779">
        <ele>65</ele>
        <time>2013-09-29T07:36:03.000Z</time>
      </trkpt>
      <trkpt lat="48.20651" lon="3.27775">
        <ele>65</ele>
        <time>2013-09-29T07:36:04.000Z</time>
      </trkpt>
      <trkpt lat="48.20656" lon="3.27772">
        <ele>65</ele>
        <time>2013-09-29T07:36:05.000Z</time>
      </trkpt>
      <trkpt lat="48.20661" lon="3.27768">
        <ele>66</ele>
        <time>2013-09-29T07:36:06.000Z</time>
      </trkpt>
      <trkpt lat="48.20667" lon="3.27768">
        <ele>66</ele>
        <time>2013-09-29T07:36:07.000Z</time>
      </trkpt>
      <trkpt lat="48.20672" lon="3.27768">
        <ele>65</ele>
        <time>2013-09-29T07:36:08.000Z</time>
      </trkpt>
      <trkpt lat="48.20678" lon="3.27768">
        <ele>65</ele>
        <time>2013-09-29T07:36:09.000Z</time>
      </trkpt>
      <trkpt lat="48.20684" lon="3.27768">
        <ele>65</ele>
        <time>2013-09-29T07:36:10.000Z</time>
      </trkpt>
      <trkpt lat="48.20689" lon="3.27768">
        <ele>64</ele>
        <time>2013-09-29T07:36:11.000Z</time>
      </trkpt>
      <trkpt lat="48.20696" lon="3.27768">
        <ele>64</ele>
        <time>2013-09-29T07:36:12.000Z</time>
      </trkpt>
      <trkpt lat="48.20701" lon="3.27768">
        <ele>64</ele>
        <time>2013-09-29T07:36:13.000Z</time>
      </trkpt>
      <trkpt lat="48.20706" lon="3.27768">
        <ele>64</ele>
        <time>2013-09-29T07:36:14.000Z</time>
      </trkpt>
      <trkpt lat="48.20713" lon="3.27766">
        <ele>64</ele>
        <time>2013-09-29T07:36:15.000Z</time>
      </trkpt>
      <trkpt lat="48.2072" lon="3.27766">
        <ele>63</ele>
        <time>2013-09-29T07:36:16.000Z</time>
      </trkpt>
      <trkpt lat="48.20728" lon="3.27764">
        <ele>63</ele>
        <time>2013-09-29T07:36:17.000Z</time>
      </trkpt>
      <trkpt lat="48.20735" lon="3.27762">
        <ele>63</ele>
        <time>2013-09-29T07:36:18.000Z</time>
      </trkpt>
      <trkpt lat="48.20743" lon="3.2776">
        <ele>63</ele>
        <time>2013-09-29T07:36:19.000Z</time>
      </trkpt>
      <trkpt lat="48.20749" lon="3.2776">
        <ele>63</ele>
        <time>2013-09-29T07:36:20.000Z</time>
      </trkpt>
      <trkpt lat="48.20756" lon="3.27757">
        <ele>63</ele>
        <time>2013-09-29T07:36:21.000Z</time>
      </trkpt>
      <trkpt lat="48.20763" lon="3.27755">
        <ele>63</ele>
        <time>2013-09-29T07:36:22.000Z</time>
      </trkpt>
      <trkpt lat="48.2077" lon="3.27753">
        <ele>63</ele>
        <time>2013-09-29T07:36:23.000Z</time>
      </trkpt>
      <trkpt lat="48.20775" lon="3.27753">
        <ele>64</ele>
        <time>2013-09-29T07:36:24.000Z</time>
      </trkpt>
      <trkpt lat="48.20781" lon="3.27751">
        <ele>64</ele>
        <time>2013-09-29T07:36:25.000Z</time>
      </trkpt>
      <trkpt lat="48.20788" lon="3.27749">
        <ele>64</ele>
        <time>2013-09-29T07:36:26.000Z</time>
      </trkpt>
      <trkpt lat="48.20793" lon="3.27747">
        <ele>64</ele>
        <time>2013-09-29T07:36:27.000Z</time>
      </trkpt>
      <trkpt lat="48.208" lon="3.27744">
        <ele>64</ele>
        <time>2013-09-29T07:36:28.000Z</time>
      </trkpt>
      <trkpt lat="48.20805" lon="3.27742">
        <ele>64</ele>
        <time>2013-09-29T07:36:29.000Z</time>
      </trkpt>
      <trkpt lat="48.2081" lon="3.27742">
        <ele>65</ele>
        <time>2013-09-29T07:36:30.000Z</time>
      </trkpt>
      <trkpt lat="48.20815" lon="3.27742">
        <ele>65</ele>
        <time>2013-09-29T07:36:31.000Z</time>
      </trkpt>
      <trkpt lat="48.20819" lon="3.27747">
        <ele>65</ele>
        <time>2013-09-29T07:36:32.000Z</time>
      </trkpt>
      <trkpt lat="48.20823" lon="3.27749">
        <ele>65</ele>
        <time>2013-09-29T07:36:33.000Z</time>
      </trkpt>
      <trkpt lat="48.20827" lon="3.27753">
        <ele>66</ele>
        <time>2013-09-29T07:36:34.000Z</time>
      </trkpt>
      <trkpt lat="48.2083" lon="3.27755">
        <ele>66</ele>
        <time>2013-09-29T07:36:35.000Z</time>
      </trkpt>
      <trkpt lat="48.20833" lon="3.27757">
        <ele>66</ele>
        <time>2013-09-29T07:36:36.000Z</time>
      </trkpt>
      <trkpt lat="48.20836" lon="3.2776">
        <ele>66</ele>
        <time>2013-09-29T07:36:37.000Z</time>
      </trkpt>
      <trkpt lat="48.20838" lon="3.27764">
        <ele>66</ele>
        <time>2013-09-29T07:36:38.000Z</time>
      </trkpt>
      <trkpt lat="48.2084" lon="3.27768">
        <ele>66</ele>
        <time>2013-09-29T07:36:39.000Z</time>
      </trkpt>
      <trkpt lat="48.20843" lon="3.27772">
        <ele>66</ele>
        <time>2013-09-29T07:36:40.000Z</time>
      </trkpt>
      <trkpt lat="48.20844" lon="3.27781">
        <ele>66</ele>
        <time>2013-09-29T07:36:41.000Z</time>
      </trkpt>
      <trkpt lat="48.20846" lon="3.27787">
        <ele>66</ele>
        <time>2013-09-29T07:36:42.000Z</time>
      </trkpt>
      <trkpt lat="48.20847" lon="3.27794">
        <ele>66</ele>
        <time>2013-09-29T07:36:43.000Z</time>
      </trkpt>
      <trkpt lat="48.20848" lon="3.27802">
        <ele>66</ele>
        <time>2013-09-29T07:36:44.000Z</time>
      </trkpt>
      <trkpt lat="48.20849" lon="3.27809">
        <ele>66</ele>
        <time>2013-09-29T07:36:45.000Z</time>
      </trkpt>
      <trkpt lat="48.20851" lon="3.27817">
        <ele>66</ele>
        <time>2013-09-29T07:36:46.000Z</time>
      </trkpt>
      <trkpt lat="48.20852" lon="3.27826">
        <ele>66</ele>
        <time>2013-09-29T07:36:47.000Z</time>
      </trkpt>
      <trkpt lat="48.20853" lon="3.27835">
        <ele>66</ele>
        <time>2013-09-29T07:36:48.000Z</time>
      </trkpt>
      <trkpt lat="48.20854" lon="3.27843">
        <ele>66</ele>
        <time>2013-09-29T07:36:49.000Z</time>
      </trkpt>
      <trkpt lat="48.20855" lon="3.27852">
        <ele>66</ele>
        <time>2013-09-29T07:36:50.000Z</time>
      </trkpt>
      <trkpt lat="48.20858" lon="3.2786">
        <ele>66</ele>
        <time>2013-09-29T07:36:51.000Z</time>
      </trkpt>
      <trkpt lat="48.20859" lon="3.27869">
        <ele>66</ele>
        <time>2013-09-29T07:36:52.000Z</time>
      </trkpt>
      <trkpt lat="48.20861" lon="3.27878">
        <ele>65</ele>
        <time>2013-09-29T07:36:53.000Z</time>
      </trkpt>
      <trkpt lat="48.20862" lon="3.27886">
        <ele>65</ele>
        <time>2013-09-29T07:36:54.000Z</time>
      </trkpt>
      <trkpt lat="48.20863" lon="3.27895">
        <ele>65</ele>
        <time>2013-09-29T07:36:55.000Z</time>
      </trkpt>
      <trkpt lat="48.20865" lon="3.27905">
        <ele>65</ele>
        <time>2013-09-29T07:36:56.000Z</time>
      </trkpt>
      <trkpt lat="48.20866" lon="3.27914">
        <ele>65</ele>
        <time>2013-09-29T07:36:57.000Z</time>
      </trkpt>
      <trkpt lat="48.20867" lon="3.27923">
        <ele>65</ele>
        <time>2013-09-29T07:36:58.000Z</time>
      </trkpt>
      <trkpt lat="48.20869" lon="3.27931">
        <ele>65</ele>
        <time>2013-09-29T07:36:59.000Z</time>
      </trkpt>
      <trkpt lat="48.20871" lon="3.2794">
        <ele>65</ele>
        <time>2013-09-29T07:37:00.000Z</time>
      </trkpt>
      <trkpt lat="48.20872" lon="3.27948">
        <ele>65</ele>
        <time>2013-09-29T07:37:01.000Z</time>
      </trkpt>
      <trkpt lat="48.20873" lon="3.27957">
        <ele>65</ele>
        <time>2013-09-29T07:37:02.000Z</time>
      </trkpt>
      <trkpt lat="48.20875" lon="3.27965">
        <ele>65</ele>
        <time>2013-09-29T07:37:03.000Z</time>
      </trkpt>
      <trkpt lat="48.20876" lon="3.27974">
        <ele>65</ele>
        <time>2013-09-29T07:37:04.000Z</time>
      </trkpt>
      <trkpt lat="48.20877" lon="3.27983">
        <ele>65</ele>
        <time>2013-09-29T07:37:05.000Z</time>
      </trkpt>
      <trkpt lat="48.20878" lon="3.27991">
        <ele>65</ele>
        <time>2013-09-29T07:37:06.000Z</time>
      </trkpt>
      <trkpt lat="48.2088" lon="3.28">
        <ele>65</ele>
        <time>2013-09-29T07:37:07.000Z</time>
      </trkpt>
      <trkpt lat="48.20881" lon="3.28008">
        <ele>66</ele>
        <time>2013-09-29T07:37:08.000Z</time>
      </trkpt>
      <trkpt lat="48.20882" lon="3.28017">
        <ele>66</ele>
        <time>2013-09-29T07:37:09.000Z</time>
      </trkpt>
      <trkpt lat="48.20883" lon="3.28026">
        <ele>66</ele>
        <time>2013-09-29T07:37:10.000Z</time>
      </trkpt>
      <trkpt lat="48.20886" lon="3.28032">
        <ele>66</ele>
        <time>2013-09-29T07:37:11.000Z</time>
      </trkpt>
      <trkpt lat="48.20887" lon="3.28041">
        <ele>66</ele>
        <time>2013-09-29T07:37:12.000Z</time>
      </trkpt>
      <trkpt lat="48.20888" lon="3.28049">
        <ele>66</ele>
        <time>2013-09-29T07:37:13.000Z</time>
      </trkpt>
      <trkpt lat="48.20889" lon="3.28058">
        <ele>66</ele>
        <time>2013-09-29T07:37:14.000Z</time>
      </trkpt>
      <trkpt lat="48.20891" lon="3.28064">
        <ele>66</ele>
        <time>2013-09-29T07:37:15.000Z</time>
      </trkpt>
      <trkpt lat="48.20892" lon="3.28073">
        <ele>66</ele>
        <time>2013-09-29T07:37:16.000Z</time>
      </trkpt>
      <trkpt lat="48.20894" lon="3.28081">
        <ele>66</ele>
        <time>2013-09-29T07:37:17.000Z</time>
      </trkpt>
      <trkpt lat="48.20895" lon="3.2809">
        <ele>67</ele>
        <time>2013-09-29T07:37:18.000Z</time>
      </trkpt>
      <trkpt lat="48.20897" lon="3.28096">
        <ele>67</ele>
        <time>2013-09-29T07:37:19.000Z</time>
      </trkpt>
      <trkpt lat="48.20898" lon="3.28105">
        <ele>67</ele>
        <time>2013-09-29T07:37:20.000Z</time>
      </trkpt>
      <trkpt lat="48.20901" lon="3.28114">
        <ele>67</ele>
        <time>2013-09-29T07:37:21.000Z</time>
      </trkpt>
      <trkpt lat="48.20903" lon="3.2812">
        <ele>67</ele>
        <time>2013-09-29T07:37:22.000Z</time>
      </trkpt>
      <trkpt lat="48.20904" lon="3.28129">
        <ele>67</ele>
        <time>2013-09-29T07:37:23.000Z</time>
      </trkpt>
      <trkpt lat="48.20906" lon="3.28137">
        <ele>67</ele>
        <time>2013-09-29T07:37:24.000Z</time>
      </trkpt>
      <trkpt lat="48.20907" lon="3.28146">
        <ele>67</ele>
        <time>2013-09-29T07:37:25.000Z</time>
      </trkpt>
      <trkpt lat="48.20909" lon="3.28154">
        <ele>67</ele>
        <time>2013-09-29T07:37:26.000Z</time>
      </trkpt>
      <trkpt lat="48.2091" lon="3.28161">
        <ele>67</ele>
        <time>2013-09-29T07:37:27.000Z</time>
      </trkpt>
      <trkpt lat="48.20912" lon="3.28169">
        <ele>67</ele>
        <time>2013-09-29T07:37:28.000Z</time>
      </trkpt>
      <trkpt lat="48.20913" lon="3.28178">
        <ele>67</ele>
        <time>2013-09-29T07:37:29.000Z</time>
      </trkpt>
      <trkpt lat="48.20916" lon="3.28184">
        <ele>67</ele>
        <time>2013-09-29T07:37:30.000Z</time>
      </trkpt>
      <trkpt lat="48.20917" lon="3.28193">
        <ele>68</ele>
        <time>2013-09-29T07:37:31.000Z</time>
      </trkpt>
      <trkpt lat="48.20918" lon="3.28199">
        <ele>66</ele>
        <time>2013-09-29T07:37:32.000Z</time>
      </trkpt>
      <trkpt lat="48.20919" lon="3.28208">
        <ele>66</ele>
        <time>2013-09-29T07:37:33.000Z</time>
      </trkpt>
      <trkpt lat="48.2092" lon="3.28217">
        <ele>66</ele>
        <time>2013-09-29T07:37:34.000Z</time>
      </trkpt>
      <trkpt lat="48.20921" lon="3.28225">
        <ele>66</ele>
        <time>2013-09-29T07:37:35.000Z</time>
      </trkpt>
      <trkpt lat="48.20921" lon="3.28234">
        <ele>66</ele>
        <time>2013-09-29T07:37:36.000Z</time>
      </trkpt>
      <trkpt lat="48.20922" lon="3.28242">
        <ele>66</ele>
        <time>2013-09-29T07:37:37.000Z</time>
      </trkpt>
      <trkpt lat="48.20922" lon="3.28251">
        <ele>66</ele>
        <time>2013-09-29T07:37:38.000Z</time>
      </trkpt>
      <trkpt lat="48.20922" lon="3.28262">
        <ele>66</ele>
        <time>2013-09-29T07:37:39.000Z</time>
      </trkpt>
      <trkpt lat="48.20922" lon="3.2827">
        <ele>65</ele>
        <time>2013-09-29T07:37:40.000Z</time>
      </trkpt>
      <trkpt lat="48.20922" lon="3.28279">
        <ele>65</ele>
        <time>2013-09-29T07:37:41.000Z</time>
      </trkpt>
      <trkpt lat="48.20922" lon="3.28287">
        <ele>65</ele>
        <time>2013-09-29T07:37:42.000Z</time>
      </trkpt>
      <trkpt lat="48.20922" lon="3.28296">
        <ele>65</ele>
        <time>2013-09-29T07:37:43.000Z</time>
      </trkpt>
      <trkpt lat="48.20923" lon="3.28305">
        <ele>65</ele>
        <time>2013-09-29T07:37:44.000Z</time>
      </trkpt>
      <trkpt lat="48.20922" lon="3.28313">
        <ele>65</ele>
        <time>2013-09-29T07:37:45.000Z</time>
      </trkpt>
      <trkpt lat="48.20922" lon="3.28322">
        <ele>66</ele>
        <time>2013-09-29T07:37:46.000Z</time>
      </trkpt>
      <trkpt lat="48.20922" lon="3.2833">
        <ele>66</ele>
        <time>2013-09-29T07:37:47.000Z</time>
      </trkpt>
      <trkpt lat="48.20921" lon="3.28339">
        <ele>66</ele>
        <time>2013-09-29T07:37:48.000Z</time>
      </trkpt>
      <trkpt lat="48.2092" lon="3.28347">
        <ele>66</ele>
        <time>2013-09-29T07:37:49.000Z</time>
      </trkpt>
      <trkpt lat="48.20919" lon="3.28356">
        <ele>66</ele>
        <time>2013-09-29T07:37:50.000Z</time>
      </trkpt>
      <trkpt lat="48.20918" lon="3.28362">
        <ele>66</ele>
        <time>2013-09-29T07:37:51.000Z</time>
      </trkpt>
      <trkpt lat="48.20918" lon="3.28371">
        <ele>66</ele>
        <time>2013-09-29T07:37:52.000Z</time>
      </trkpt>
      <trkpt lat="48.20917" lon="3.2838">
        <ele>67</ele>
        <time>2013-09-29T07:37:53.000Z</time>
      </trkpt>
      <trkpt lat="48.20916" lon="3.28388">
        <ele>67</ele>
        <time>2013-09-29T07:37:54.000Z</time>
      </trkpt>
      <trkpt lat="48.20915" lon="3.28397">
        <ele>67</ele>
        <time>2013-09-29T07:37:55.000Z</time>
      </trkpt>
      <trkpt lat="48.20913" lon="3.28405">
        <ele>67</ele>
        <time>2013-09-29T07:37:56.000Z</time>
      </trkpt>
      <trkpt lat="48.20912" lon="3.28414">
        <ele>67</ele>
        <time>2013-09-29T07:37:57.000Z</time>
      </trkpt>
      <trkpt lat="48.20911" lon="3.28423">
        <ele>67</ele>
        <time>2013-09-29T07:37:58.000Z</time>
      </trkpt>
      <trkpt lat="48.20911" lon="3.28429">
        <ele>67</ele>
        <time>2013-09-29T07:37:59.000Z</time>
      </trkpt>
      <trkpt lat="48.2091" lon="3.28438">
        <ele>67</ele>
        <time>2013-09-29T07:38:00.000Z</time>
      </trkpt>
      <trkpt lat="48.2091" lon="3.28446">
        <ele>67</ele>
        <time>2013-09-29T07:38:01.000Z</time>
      </trkpt>
      <trkpt lat="48.20909" lon="3.28455">
        <ele>66</ele>
        <time>2013-09-29T07:38:02.000Z</time>
      </trkpt>
      <trkpt lat="48.20908" lon="3.28463">
        <ele>66</ele>
        <time>2013-09-29T07:38:03.000Z</time>
      </trkpt>
      <trkpt lat="48.20907" lon="3.28472">
        <ele>66</ele>
        <time>2013-09-29T07:38:04.000Z</time>
      </trkpt>
      <trkpt lat="48.20906" lon="3.2848">
        <ele>66</ele>
        <time>2013-09-29T07:38:05.000Z</time>
      </trkpt>
      <trkpt lat="48.20905" lon="3.28489">
        <ele>66</ele>
        <time>2013-09-29T07:38:06.000Z</time>
      </trkpt>
      <trkpt lat="48.20904" lon="3.28498">
        <ele>66</ele>
        <time>2013-09-29T07:38:07.000Z</time>
      </trkpt>
      <trkpt lat="48.20903" lon="3.28504">
        <ele>66</ele>
        <time>2013-09-29T07:38:08.000Z</time>
      </trkpt>
      <trkpt lat="48.20902" lon="3.28513">
        <ele>66</ele>
        <time>2013-09-29T07:38:09.000Z</time>
      </trkpt>
      <trkpt lat="48.20901" lon="3.28519">
        <ele>66</ele>
        <time>2013-09-29T07:38:10.000Z</time>
      </trkpt>
      <trkpt lat="48.20899" lon="3.28526">
        <ele>67</ele>
        <time>2013-09-29T07:38:11.000Z</time>
      </trkpt>
      <trkpt lat="48.20898" lon="3.2853">
        <ele>67</ele>
        <time>2013-09-29T07:38:12.000Z</time>
      </trkpt>
      <trkpt lat="48.20896" lon="3.28534">
        <ele>67</ele>
        <time>2013-09-29T07:38:13.000Z</time>
      </trkpt>
      <trkpt lat="48.20895" lon="3.28538">
        <ele>67</ele>
        <time>2013-09-29T07:38:14.000Z</time>
      </trkpt>
      <trkpt lat="48.20894" lon="3.28543">
        <ele>67</ele>
        <time>2013-09-29T07:38:15.000Z</time>
      </trkpt>
      <trkpt lat="48.20893" lon="3.28545">
        <ele>67</ele>
        <time>2013-09-29T07:38:16.000Z</time>
      </trkpt>
      <trkpt lat="48.20892" lon="3.28549">
        <ele>67</ele>
        <time>2013-09-29T07:38:17.000Z</time>
      </trkpt>
      <trkpt lat="48.20891" lon="3.28556">
        <ele>67</ele>
        <time>2013-09-29T07:38:19.000Z</time>
      </trkpt>
      <trkpt lat="48.2089" lon="3.2856">
        <ele>67</ele>
        <time>2013-09-29T07:38:20.000Z</time>
      </trkpt>
      <trkpt lat="48.2089" lon="3.28564">
        <ele>67</ele>
        <time>2013-09-29T07:38:21.000Z</time>
      </trkpt>
      <trkpt lat="48.20889" lon="3.28568">
        <ele>67</ele>
        <time>2013-09-29T07:38:22.000Z</time>
      </trkpt>
      <trkpt lat="48.20888" lon="3.28573">
        <ele>67</ele>
        <time>2013-09-29T07:38:23.000Z</time>
      </trkpt>
      <trkpt lat="48.20888" lon="3.28577">
        <ele>67</ele>
        <time>2013-09-29T07:38:24.000Z</time>
      </trkpt>
      <trkpt lat="48.20887" lon="3.28583">
        <ele>68</ele>
        <time>2013-09-29T07:38:25.000Z</time>
      </trkpt>
      <trkpt lat="48.20886" lon="3.28588">
        <ele>68</ele>
        <time>2013-09-29T07:38:26.000Z</time>
      </trkpt>
      <trkpt lat="48.20884" lon="3.28594">
        <ele>68</ele>
        <time>2013-09-29T07:38:27.000Z</time>
      </trkpt>
      <trkpt lat="48.20883" lon="3.28598">
        <ele>68</ele>
        <time>2013-09-29T07:38:28.000Z</time>
      </trkpt>
      <trkpt lat="48.20883" lon="3.28605">
        <ele>68</ele>
        <time>2013-09-29T07:38:29.000Z</time>
      </trkpt>
      <trkpt lat="48.20882" lon="3.28609">
        <ele>68</ele>
        <time>2013-09-29T07:38:30.000Z</time>
      </trkpt>
      <trkpt lat="48.20881" lon="3.28616">
        <ele>68</ele>
        <time>2013-09-29T07:38:31.000Z</time>
      </trkpt>
      <trkpt lat="48.2088" lon="3.28622">
        <ele>68</ele>
        <time>2013-09-29T07:38:32.000Z</time>
      </trkpt>
      <trkpt lat="48.20879" lon="3.28626">
        <ele>68</ele>
        <time>2013-09-29T07:38:33.000Z</time>
      </trkpt>
      <trkpt lat="48.20878" lon="3.28633">
        <ele>68</ele>
        <time>2013-09-29T07:38:34.000Z</time>
      </trkpt>
      <trkpt lat="48.20877" lon="3.28639">
        <ele>68</ele>
        <time>2013-09-29T07:38:35.000Z</time>
      </trkpt>
      <trkpt lat="48.20876" lon="3.28646">
        <ele>68</ele>
        <time>2013-09-29T07:38:36.000Z</time>
      </trkpt>
      <trkpt lat="48.20875" lon="3.28652">
        <ele>68</ele>
        <time>2013-09-29T07:38:37.000Z</time>
      </trkpt>
      <trkpt lat="48.20874" lon="3.28659">
        <ele>68</ele>
        <time>2013-09-29T07:38:38.000Z</time>
      </trkpt>
      <trkpt lat="48.20874" lon="3.28665">
        <ele>68</ele>
        <time>2013-09-29T07:38:39.000Z</time>
      </trkpt>
      <trkpt lat="48.20875" lon="3.28671">
        <ele>68</ele>
        <time>2013-09-29T07:38:40.000Z</time>
      </trkpt>
      <trkpt lat="48.20876" lon="3.28678">
        <ele>68</ele>
        <time>2013-09-29T07:38:41.000Z</time>
      </trkpt>
      <trkpt lat="48.20878" lon="3.28684">
        <ele>68</ele>
        <time>2013-09-29T07:38:42.000Z</time>
      </trkpt>
      <trkpt lat="48.2088" lon="3.28691">
        <ele>68</ele>
        <time>2013-09-29T07:38:43.000Z</time>
      </trkpt>
      <trkpt lat="48.20882" lon="3.28697">
        <ele>68</ele>
        <time>2013-09-29T07:38:44.000Z</time>
      </trkpt>
      <trkpt lat="48.20884" lon="3.28706">
        <ele>68</ele>
        <time>2013-09-29T07:38:45.000Z</time>
      </trkpt>
      <trkpt lat="48.20888" lon="3.28712">
        <ele>68</ele>
        <time>2013-09-29T07:38:46.000Z</time>
      </trkpt>
      <trkpt lat="48.2089" lon="3.28719">
        <ele>68</ele>
        <time>2013-09-29T07:38:47.000Z</time>
      </trkpt>
      <trkpt lat="48.20892" lon="3.28725">
        <ele>68</ele>
        <time>2013-09-29T07:38:48.000Z</time>
      </trkpt>
      <trkpt lat="48.20895" lon="3.28732">
        <ele>68</ele>
        <time>2013-09-29T07:38:49.000Z</time>
      </trkpt>
      <trkpt lat="48.20897" lon="3.2874">
        <ele>68</ele>
        <time>2013-09-29T07:38:50.000Z</time>
      </trkpt>
      <trkpt lat="48.20899" lon="3.28747">
        <ele>68</ele>
        <time>2013-09-29T07:38:51.000Z</time>
      </trkpt>
      <trkpt lat="48.20902" lon="3.28753">
        <ele>68</ele>
        <time>2013-09-29T07:38:52.000Z</time>
      </trkpt>
      <trkpt lat="48.20903" lon="3.28759">
        <ele>68</ele>
        <time>2013-09-29T07:38:53.000Z</time>
      </trkpt>
      <trkpt lat="48.20903" lon="3.28766">
        <ele>68</ele>
        <time>2013-09-29T07:38:54.000Z</time>
      </trkpt>
      <trkpt lat="48.20903" lon="3.28772">
        <ele>68</ele>
        <time>2013-09-29T07:38:55.000Z</time>
      </trkpt>
      <trkpt lat="48.20902" lon="3.28779">
        <ele>68</ele>
        <time>2013-09-29T07:38:56.000Z</time>
      </trkpt>
      <trkpt lat="48.20901" lon="3.28785">
        <ele>68</ele>
        <time>2013-09-29T07:38:57.000Z</time>
      </trkpt>
      <trkpt lat="48.20897" lon="3.28789">
        <ele>68</ele>
        <time>2013-09-29T07:38:58.000Z</time>
      </trkpt>
      <trkpt lat="48.20894" lon="3.28794">
        <ele>68</ele>
        <time>2013-09-29T07:38:59.000Z</time>
      </trkpt>
      <trkpt lat="48.20891" lon="3.288">
        <ele>68</ele>
        <time>2013-09-29T07:39:00.000Z</time>
      </trkpt>
      <trkpt lat="48.20887" lon="3.28804">
        <ele>68</ele>
        <time>2013-09-29T07:39:01.000Z</time>
      </trkpt>
      <trkpt lat="48.20882" lon="3.28811">
        <ele>68</ele>
        <time>2013-09-29T07:39:02.000Z</time>
      </trkpt>
      <trkpt lat="48.20878" lon="3.28815">
        <ele>68</ele>
        <time>2013-09-29T07:39:03.000Z</time>
      </trkpt>
      <trkpt lat="48.20874" lon="3.28817">
        <ele>68</ele>
        <time>2013-09-29T07:39:04.000Z</time>
      </trkpt>
      <trkpt lat="48.20871" lon="3.28822">
        <ele>68</ele>
        <time>2013-09-29T07:39:05.000Z</time>
      </trkpt>
      <trkpt lat="48.20867" lon="3.28826">
        <ele>68</ele>
        <time>2013-09-29T07:39:06.000Z</time>
      </trkpt>
      <trkpt lat="48.20863" lon="3.2883">
        <ele>68</ele>
        <time>2013-09-29T07:39:07.000Z</time>
      </trkpt>
      <trkpt lat="48.2086" lon="3.28835">
        <ele>69</ele>
        <time>2013-09-29T07:39:08.000Z</time>
      </trkpt>
      <trkpt lat="48.20855" lon="3.28839">
        <ele>69</ele>
        <time>2013-09-29T07:39:09.000Z</time>
      </trkpt>
      <trkpt lat="48.20851" lon="3.28845">
        <ele>69</ele>
        <time>2013-09-29T07:39:10.000Z</time>
      </trkpt>
      <trkpt lat="48.20848" lon="3.2885">
        <ele>69</ele>
        <time>2013-09-29T07:39:11.000Z</time>
      </trkpt>
      <trkpt lat="48.20844" lon="3.28856">
        <ele>69</ele>
        <time>2013-09-29T07:39:12.000Z</time>
      </trkpt>
      <trkpt lat="48.20839" lon="3.28862">
        <ele>69</ele>
        <time>2013-09-29T07:39:13.000Z</time>
      </trkpt>
      <trkpt lat="48.20835" lon="3.28867">
        <ele>69</ele>
        <time>2013-09-29T07:39:14.000Z</time>
      </trkpt>
      <trkpt lat="48.20831" lon="3.28873">
        <ele>69</ele>
        <time>2013-09-29T07:39:15.000Z</time>
      </trkpt>
      <trkpt lat="48.20827" lon="3.2888">
        <ele>69</ele>
        <time>2013-09-29T07:39:16.000Z</time>
      </trkpt>
      <trkpt lat="48.20822" lon="3.28884">
        <ele>69</ele>
        <time>2013-09-29T07:39:17.000Z</time>
      </trkpt>
      <trkpt lat="48.20818" lon="3.28888">
        <ele>69</ele>
        <time>2013-09-29T07:39:18.000Z</time>
      </trkpt>
      <trkpt lat="48.20814" lon="3.28895">
        <ele>69</ele>
        <time>2013-09-29T07:39:19.000Z</time>
      </trkpt>
      <trkpt lat="48.20808" lon="3.28899">
        <ele>69</ele>
        <time>2013-09-29T07:39:20.000Z</time>
      </trkpt>
      <trkpt lat="48.20804" lon="3.28903">
        <ele>69</ele>
        <time>2013-09-29T07:39:21.000Z</time>
      </trkpt>
      <trkpt lat="48.208" lon="3.28907">
        <ele>69</ele>
        <time>2013-09-29T07:39:22.000Z</time>
      </trkpt>
      <trkpt lat="48.20794" lon="3.28912">
        <ele>69</ele>
        <time>2013-09-29T07:39:23.000Z</time>
      </trkpt>
      <trkpt lat="48.20789" lon="3.28916">
        <ele>69</ele>
        <time>2013-09-29T07:39:24.000Z</time>
      </trkpt>
      <trkpt lat="48.20784" lon="3.2892">
        <ele>70</ele>
        <time>2013-09-29T07:39:25.000Z</time>
      </trkpt>
      <trkpt lat="48.20778" lon="3.28923">
        <ele>70</ele>
        <time>2013-09-29T07:39:26.000Z</time>
      </trkpt>
      <trkpt lat="48.20772" lon="3.28927">
        <ele>70</ele>
        <time>2013-09-29T07:39:27.000Z</time>
      </trkpt>
      <trkpt lat="48.20766" lon="3.28931">
        <ele>70</ele>
        <time>2013-09-29T07:39:28.000Z</time>
      </trkpt>
      <trkpt lat="48.20761" lon="3.28935">
        <ele>70</ele>
        <time>2013-09-29T07:39:29.000Z</time>
      </trkpt>
      <trkpt lat="48.20756" lon="3.2894">
        <ele>70</ele>
        <time>2013-09-29T07:39:30.000Z</time>
      </trkpt>
      <trkpt lat="48.20749" lon="3.28944">
        <ele>69</ele>
        <time>2013-09-29T07:39:31.000Z</time>
      </trkpt>
      <trkpt lat="48.20744" lon="3.28948">
        <ele>69</ele>
        <time>2013-09-29T07:39:32.000Z</time>
      </trkpt>
      <trkpt lat="48.20739" lon="3.28953">
        <ele>69</ele>
        <time>2013-09-29T07:39:33.000Z</time>
      </trkpt>
      <trkpt lat="48.20733" lon="3.28959">
        <ele>69</ele>
        <time>2013-09-29T07:39:34.000Z</time>
      </trkpt>
      <trkpt lat="48.20728" lon="3.28963">
        <ele>69</ele>
        <time>2013-09-29T07:39:35.000Z</time>
      </trkpt>
      <trkpt lat="48.20724" lon="3.2897">
        <ele>69</ele>
        <time>2013-09-29T07:39:36.000Z</time>
      </trkpt>
      <trkpt lat="48.20718" lon="3.28976">
        <ele>69</ele>
        <time>2013-09-29T07:39:37.000Z</time>
      </trkpt>
      <trkpt lat="48.20714" lon="3.28985">
        <ele>69</ele>
        <time>2013-09-29T07:39:38.000Z</time>
      </trkpt>
      <trkpt lat="48.2071" lon="3.28991">
        <ele>69</ele>
        <time>2013-09-29T07:39:39.000Z</time>
      </trkpt>
      <trkpt lat="48.20705" lon="3.28998">
        <ele>69</ele>
        <time>2013-09-29T07:39:40.000Z</time>
      </trkpt>
      <trkpt lat="48.207" lon="3.29004">
        <ele>69</ele>
        <time>2013-09-29T07:39:41.000Z</time>
      </trkpt>
      <trkpt lat="48.20696" lon="3.2901">
        <ele>69</ele>
        <time>2013-09-29T07:39:42.000Z</time>
      </trkpt>
      <trkpt lat="48.20691" lon="3.29017">
        <ele>69</ele>
        <time>2013-09-29T07:39:43.000Z</time>
      </trkpt>
      <trkpt lat="48.20686" lon="3.29023">
        <ele>69</ele>
        <time>2013-09-29T07:39:44.000Z</time>
      </trkpt>
      <trkpt lat="48.20682" lon="3.2903">
        <ele>69</ele>
        <time>2013-09-29T07:39:45.000Z</time>
      </trkpt>
      <trkpt lat="48.20677" lon="3.29036">
        <ele>69</ele>
        <time>2013-09-29T07:39:46.000Z</time>
      </trkpt>
      <trkpt lat="48.20672" lon="3.29041">
        <ele>69</ele>
        <time>2013-09-29T07:39:47.000Z</time>
      </trkpt>
      <trkpt lat="48.20668" lon="3.29047">
        <ele>69</ele>
        <time>2013-09-29T07:39:48.000Z</time>
      </trkpt>
      <trkpt lat="48.20663" lon="3.29051">
        <ele>68</ele>
        <time>2013-09-29T07:39:49.000Z</time>
      </trkpt>
      <trkpt lat="48.20659" lon="3.29058">
        <ele>68</ele>
        <time>2013-09-29T07:39:50.000Z</time>
      </trkpt>
      <trkpt lat="48.20655" lon="3.29062">
        <ele>68</ele>
        <time>2013-09-29T07:39:51.000Z</time>
      </trkpt>
      <trkpt lat="48.20651" lon="3.29068">
        <ele>68</ele>
        <time>2013-09-29T07:39:52.000Z</time>
      </trkpt>
      <trkpt lat="48.20647" lon="3.29073">
        <ele>68</ele>
        <time>2013-09-29T07:39:53.000Z</time>
      </trkpt>
      <trkpt lat="48.20643" lon="3.29079">
        <ele>68</ele>
        <time>2013-09-29T07:39:54.000Z</time>
      </trkpt>
      <trkpt lat="48.20639" lon="3.29086">
        <ele>68</ele>
        <time>2013-09-29T07:39:55.000Z</time>
      </trkpt>
      <trkpt lat="48.20636" lon="3.29092">
        <ele>68</ele>
        <time>2013-09-29T07:39:56.000Z</time>
      </trkpt>
      <trkpt lat="48.20631" lon="3.29096">
        <ele>69</ele>
        <time>2013-09-29T07:39:57.000Z</time>
      </trkpt>
      <trkpt lat="48.20629" lon="3.29101">
        <ele>69</ele>
        <time>2013-09-29T07:39:58.000Z</time>
      </trkpt>
      <trkpt lat="48.20626" lon="3.29105">
        <ele>69</ele>
        <time>2013-09-29T07:39:59.000Z</time>
      </trkpt>
      <trkpt lat="48.20623" lon="3.29109">
        <ele>69</ele>
        <time>2013-09-29T07:40:01.000Z</time>
      </trkpt>
      <trkpt lat="48.20621" lon="3.29113">
        <ele>69</ele>
        <time>2013-09-29T07:40:02.000Z</time>
      </trkpt>
      <trkpt lat="48.20618" lon="3.29116">
        <ele>69</ele>
        <time>2013-09-29T07:40:03.000Z</time>
      </trkpt>
      <trkpt lat="48.20616" lon="3.29118">
        <ele>69</ele>
        <time>2013-09-29T07:40:04.000Z</time>
      </trkpt>
      <trkpt lat="48.20615" lon="3.29122">
        <ele>69</ele>
        <time>2013-09-29T07:40:05.000Z</time>
      </trkpt>
      <trkpt lat="48.20613" lon="3.29124">
        <ele>69</ele>
        <time>2013-09-29T07:40:06.000Z</time>
      </trkpt>
      <trkpt lat="48.2061" lon="3.29129">
        <ele>69</ele>
        <time>2013-09-29T07:40:07.000Z</time>
      </trkpt>
      <trkpt lat="48.20608" lon="3.29131">
        <ele>69</ele>
        <time>2013-09-29T07:40:08.000Z</time>
      </trkpt>
      <trkpt lat="48.20604" lon="3.29135">
        <ele>69</ele>
        <time>2013-09-29T07:40:09.000Z</time>
      </trkpt>
      <trkpt lat="48.20602" lon="3.29139">
        <ele>69</ele>
        <time>2013-09-29T07:40:10.000Z</time>
      </trkpt>
      <trkpt lat="48.20599" lon="3.29144">
        <ele>69</ele>
        <time>2013-09-29T07:40:11.000Z</time>
      </trkpt>
      <trkpt lat="48.20596" lon="3.29148">
        <ele>69</ele>
        <time>2013-09-29T07:40:12.000Z</time>
      </trkpt>
      <trkpt lat="48.20593" lon="3.29152">
        <ele>69</ele>
        <time>2013-09-29T07:40:13.000Z</time>
      </trkpt>
      <trkpt lat="48.20589" lon="3.29156">
        <ele>69</ele>
        <time>2013-09-29T07:40:14.000Z</time>
      </trkpt>
      <trkpt lat="48.20586" lon="3.29163">
        <ele>69</ele>
        <time>2013-09-29T07:40:15.000Z</time>
      </trkpt>
      <trkpt lat="48.20583" lon="3.29167">
        <ele>69</ele>
        <time>2013-09-29T07:40:16.000Z</time>
      </trkpt>
      <trkpt lat="48.2058" lon="3.29171">
        <ele>69</ele>
        <time>2013-09-29T07:40:17.000Z</time>
      </trkpt>
      <trkpt lat="48.20577" lon="3.29178">
        <ele>70</ele>
        <time>2013-09-29T07:40:18.000Z</time>
      </trkpt>
      <trkpt lat="48.20572" lon="3.29182">
        <ele>70</ele>
        <time>2013-09-29T07:40:19.000Z</time>
      </trkpt>
      <trkpt lat="48.20569" lon="3.29186">
        <ele>70</ele>
        <time>2013-09-29T07:40:20.000Z</time>
      </trkpt>
      <trkpt lat="48.20566" lon="3.29193">
        <ele>71</ele>
        <time>2013-09-29T07:40:21.000Z</time>
      </trkpt>
      <trkpt lat="48.20563" lon="3.29197">
        <ele>71</ele>
        <time>2013-09-29T07:40:22.000Z</time>
      </trkpt>
      <trkpt lat="48.20559" lon="3.29201">
        <ele>71</ele>
        <time>2013-09-29T07:40:23.000Z</time>
      </trkpt>
      <trkpt lat="48.20556" lon="3.29208">
        <ele>71</ele>
        <time>2013-09-29T07:40:24.000Z</time>
      </trkpt>
      <trkpt lat="48.20553" lon="3.29214">
        <ele>71</ele>
        <time>2013-09-29T07:40:25.000Z</time>
      </trkpt>
      <trkpt lat="48.2055" lon="3.29219">
        <ele>71</ele>
        <time>2013-09-29T07:40:26.000Z</time>
      </trkpt>
      <trkpt lat="48.20547" lon="3.29225">
        <ele>71</ele>
        <time>2013-09-29T07:40:27.000Z</time>
      </trkpt>
      <trkpt lat="48.20543" lon="3.29232">
        <ele>71</ele>
        <time>2013-09-29T07:40:28.000Z</time>
      </trkpt>
      <trkpt lat="48.2054" lon="3.29236">
        <ele>71</ele>
        <time>2013-09-29T07:40:29.000Z</time>
      </trkpt>
      <trkpt lat="48.20538" lon="3.29242">
        <ele>71</ele>
        <time>2013-09-29T07:40:30.000Z</time>
      </trkpt>
      <trkpt lat="48.20535" lon="3.29249">
        <ele>71</ele>
        <time>2013-09-29T07:40:31.000Z</time>
      </trkpt>
      <trkpt lat="48.20531" lon="3.29253">
        <ele>72</ele>
        <time>2013-09-29T07:40:32.000Z</time>
      </trkpt>
      <trkpt lat="48.20528" lon="3.29259">
        <ele>72</ele>
        <time>2013-09-29T07:40:33.000Z</time>
      </trkpt>
      <trkpt lat="48.20525" lon="3.29266">
        <ele>72</ele>
        <time>2013-09-29T07:40:34.000Z</time>
      </trkpt>
      <trkpt lat="48.20522" lon="3.2927">
        <ele>72</ele>
        <time>2013-09-29T07:40:35.000Z</time>
      </trkpt>
      <trkpt lat="48.20519" lon="3.29277">
        <ele>72</ele>
        <time>2013-09-29T07:40:36.000Z</time>
      </trkpt>
      <trkpt lat="48.20515" lon="3.29281">
        <ele>72</ele>
        <time>2013-09-29T07:40:37.000Z</time>
      </trkpt>
      <trkpt lat="48.20511" lon="3.29287">
        <ele>72</ele>
        <time>2013-09-29T07:40:38.000Z</time>
      </trkpt>
      <trkpt lat="48.20508" lon="3.29292">
        <ele>72</ele>
        <time>2013-09-29T07:40:39.000Z</time>
      </trkpt>
      <trkpt lat="48.20505" lon="3.29298">
        <ele>72</ele>
        <time>2013-09-29T07:40:40.000Z</time>
      </trkpt>
      <trkpt lat="48.20501" lon="3.29302">
        <ele>72</ele>
        <time>2013-09-29T07:40:41.000Z</time>
      </trkpt>
      <trkpt lat="48.20497" lon="3.29309">
        <ele>73</ele>
        <time>2013-09-29T07:40:42.000Z</time>
      </trkpt>
      <trkpt lat="48.20494" lon="3.29315">
        <ele>73</ele>
        <time>2013-09-29T07:40:43.000Z</time>
      </trkpt>
      <trkpt lat="48.20491" lon="3.29319">
        <ele>73</ele>
        <time>2013-09-29T07:40:44.000Z</time>
      </trkpt>
      <trkpt lat="48.20487" lon="3.29326">
        <ele>73</ele>
        <time>2013-09-29T07:40:45.000Z</time>
      </trkpt>
      <trkpt lat="48.20484" lon="3.29332">
        <ele>73</ele>
        <time>2013-09-29T07:40:46.000Z</time>
      </trkpt>
      <trkpt lat="48.20481" lon="3.29337">
        <ele>74</ele>
        <time>2013-09-29T07:40:47.000Z</time>
      </trkpt>
      <trkpt lat="48.20478" lon="3.29343">
        <ele>74</ele>
        <time>2013-09-29T07:40:48.000Z</time>
      </trkpt>
      <trkpt lat="48.20475" lon="3.29347">
        <ele>74</ele>
        <time>2013-09-29T07:40:49.000Z</time>
      </trkpt>
      <trkpt lat="48.2047" lon="3.29354">
        <ele>75</ele>
        <time>2013-09-29T07:40:50.000Z</time>
      </trkpt>
      <trkpt lat="48.20467" lon="3.2936">
        <ele>75</ele>
        <time>2013-09-29T07:40:51.000Z</time>
      </trkpt>
      <trkpt lat="48.20464" lon="3.29365">
        <ele>75</ele>
        <time>2013-09-29T07:40:52.000Z</time>
      </trkpt>
      <trkpt lat="48.20461" lon="3.29371">
        <ele>75</ele>
        <time>2013-09-29T07:40:53.000Z</time>
      </trkpt>
      <trkpt lat="48.20457" lon="3.29377">
        <ele>76</ele>
        <time>2013-09-29T07:40:54.000Z</time>
      </trkpt>
      <trkpt lat="48.20454" lon="3.29384">
        <ele>76</ele>
        <time>2013-09-29T07:40:55.000Z</time>
      </trkpt>
      <trkpt lat="48.2045" lon="3.2939">
        <ele>76</ele>
        <time>2013-09-29T07:40:56.000Z</time>
      </trkpt>
      <trkpt lat="48.20447" lon="3.29395">
        <ele>76</ele>
        <time>2013-09-29T07:40:57.000Z</time>
      </trkpt>
      <trkpt lat="48.20444" lon="3.29401">
        <ele>77</ele>
        <time>2013-09-29T07:40:58.000Z</time>
      </trkpt>
      <trkpt lat="48.2044" lon="3.29407">
        <ele>77</ele>
        <time>2013-09-29T07:40:59.000Z</time>
      </trkpt>
      <trkpt lat="48.20435" lon="3.29407">
        <ele>77</ele>
        <time>2013-09-29T07:41:00.000Z</time>
      </trkpt>
      <trkpt lat="48.20431" lon="3.2941">
        <ele>78</ele>
        <time>2013-09-29T07:41:01.000Z</time>
      </trkpt>
      <trkpt lat="48.20426" lon="3.29412">
        <ele>78</ele>
        <time>2013-09-29T07:41:02.000Z</time>
      </trkpt>
      <trkpt lat="48.20422" lon="3.29414">
        <ele>79</ele>
        <time>2013-09-29T07:41:03.000Z</time>
      </trkpt>
      <trkpt lat="48.20418" lon="3.29416">
        <ele>80</ele>
        <time>2013-09-29T07:41:04.000Z</time>
      </trkpt>
      <trkpt lat="48.20415" lon="3.29416">
        <ele>80</ele>
        <time>2013-09-29T07:41:05.000Z</time>
      </trkpt>
      <trkpt lat="48.2041" lon="3.29418">
        <ele>79</ele>
        <time>2013-09-29T07:41:06.000Z</time>
      </trkpt>
      <trkpt lat="48.20406" lon="3.29418">
        <ele>79</ele>
        <time>2013-09-29T07:41:07.000Z</time>
      </trkpt>
      <trkpt lat="48.20403" lon="3.2942">
        <ele>78</ele>
        <time>2013-09-29T07:41:08.000Z</time>
      </trkpt>
      <trkpt lat="48.20398" lon="3.29422">
        <ele>78</ele>
        <time>2013-09-29T07:41:09.000Z</time>
      </trkpt>
      <trkpt lat="48.20395" lon="3.29427">
        <ele>78</ele>
        <time>2013-09-29T07:41:10.000Z</time>
      </trkpt>
      <trkpt lat="48.20392" lon="3.29429">
        <ele>78</ele>
        <time>2013-09-29T07:41:11.000Z</time>
      </trkpt>
      <trkpt lat="48.20389" lon="3.29433">
        <ele>77</ele>
        <time>2013-09-29T07:41:12.000Z</time>
      </trkpt>
      <trkpt lat="48.20387" lon="3.29437">
        <ele>77</ele>
        <time>2013-09-29T07:41:13.000Z</time>
      </trkpt>
      <trkpt lat="48.20385" lon="3.29444">
        <ele>77</ele>
        <time>2013-09-29T07:41:14.000Z</time>
      </trkpt>
      <trkpt lat="48.20382" lon="3.29448">
        <ele>77</ele>
        <time>2013-09-29T07:41:15.000Z</time>
      </trkpt>
      <trkpt lat="48.2038" lon="3.29455">
        <ele>77</ele>
        <time>2013-09-29T07:41:16.000Z</time>
      </trkpt>
      <trkpt lat="48.20379" lon="3.29461">
        <ele>77</ele>
        <time>2013-09-29T07:41:17.000Z</time>
      </trkpt>
      <trkpt lat="48.20377" lon="3.29465">
        <ele>77</ele>
        <time>2013-09-29T07:41:18.000Z</time>
      </trkpt>
      <trkpt lat="48.20375" lon="3.2947">
        <ele>77</ele>
        <time>2013-09-29T07:41:19.000Z</time>
      </trkpt>
      <trkpt lat="48.20374" lon="3.29474">
        <ele>77</ele>
        <time>2013-09-29T07:41:20.000Z</time>
      </trkpt>
      <trkpt lat="48.20374" lon="3.29474">
        <ele>77</ele>
        <time>2013-09-29T07:41:23.000Z</time>
      </trkpt>
      <trkpt lat="48.20373" lon="3.29491">
        <ele>76</ele>
        <time>2013-09-29T07:41:24.000Z</time>
      </trkpt>
      <trkpt lat="48.20373" lon="3.29491">
        <ele>76</ele>
        <time>2013-09-29T07:41:25.000Z</time>
      </trkpt>
      <trkpt lat="48.20369" lon="3.29502">
        <ele>76</ele>
        <time>2013-09-29T07:41:26.000Z</time>
      </trkpt>
      <trkpt lat="48.20367" lon="3.29506">
        <ele>76</ele>
        <time>2013-09-29T07:41:27.000Z</time>
      </trkpt>
      <trkpt lat="48.20365" lon="3.2951">
        <ele>76</ele>
        <time>2013-09-29T07:41:28.000Z</time>
      </trkpt>
      <trkpt lat="48.20363" lon="3.29515">
        <ele>76</ele>
        <time>2013-09-29T07:41:30.000Z</time>
      </trkpt>
      <trkpt lat="48.2036" lon="3.29521">
        <ele>76</ele>
        <time>2013-09-29T07:41:31.000Z</time>
      </trkpt>
      <trkpt lat="48.2036" lon="3.29521">
        <ele>76</ele>
        <time>2013-09-29T07:43:44.000Z</time>
      </trkpt>
      <trkpt lat="48.2036" lon="3.2953">
        <ele>76</ele>
        <time>2013-09-29T07:43:45.000Z</time>
      </trkpt>
      <trkpt lat="48.20362" lon="3.29536">
        <ele>76</ele>
        <time>2013-09-29T07:43:46.000Z</time>
      </trkpt>
      <trkpt lat="48.20362" lon="3.29549">
        <ele>76</ele>
        <time>2013-09-29T07:43:47.000Z</time>
      </trkpt>
      <trkpt lat="48.20364" lon="3.29562">
        <ele>76</ele>
        <time>2013-09-29T07:43:48.000Z</time>
      </trkpt>
      <trkpt lat="48.20366" lon="3.29575">
        <ele>76</ele>
        <time>2013-09-29T07:43:49.000Z</time>
      </trkpt>
      <trkpt lat="48.20367" lon="3.29583">
        <ele>76</ele>
        <time>2013-09-29T07:43:50.000Z</time>
      </trkpt>
      <trkpt lat="48.20368" lon="3.2959">
        <ele>76</ele>
        <time>2013-09-29T07:43:51.000Z</time>
      </trkpt>
      <trkpt lat="48.20369" lon="3.29596">
        <ele>76</ele>
        <time>2013-09-29T07:43:52.000Z</time>
      </trkpt>
      <trkpt lat="48.20372" lon="3.29603">
        <ele>76</ele>
        <time>2013-09-29T07:43:53.000Z</time>
      </trkpt>
      <trkpt lat="48.20374" lon="3.29607">
        <ele>76</ele>
        <time>2013-09-29T07:43:54.000Z</time>
      </trkpt>
      <trkpt lat="48.20377" lon="3.29611">
        <ele>76</ele>
        <time>2013-09-29T07:43:55.000Z</time>
      </trkpt>
      <trkpt lat="48.2038" lon="3.29616">
        <ele>76</ele>
        <time>2013-09-29T07:43:56.000Z</time>
      </trkpt>
      <trkpt lat="48.20383" lon="3.29618">
        <ele>76</ele>
        <time>2013-09-29T07:43:57.000Z</time>
      </trkpt>
      <trkpt lat="48.20387" lon="3.29618">
        <ele>76</ele>
        <time>2013-09-29T07:43:58.000Z</time>
      </trkpt>
      <trkpt lat="48.20392" lon="3.29618">
        <ele>76</ele>
        <time>2013-09-29T07:43:59.000Z</time>
      </trkpt>
      <trkpt lat="48.20395" lon="3.29613">
        <ele>76</ele>
        <time>2013-09-29T07:44:00.000Z</time>
      </trkpt>
      <trkpt lat="48.204" lon="3.29609">
        <ele>76</ele>
        <time>2013-09-29T07:44:01.000Z</time>
      </trkpt>
      <trkpt lat="48.20404" lon="3.29607">
        <ele>76</ele>
        <time>2013-09-29T07:44:02.000Z</time>
      </trkpt>
      <trkpt lat="48.20408" lon="3.29603">
        <ele>76</ele>
        <time>2013-09-29T07:44:03.000Z</time>
      </trkpt>
      <trkpt lat="48.20411" lon="3.29598">
        <ele>75</ele>
        <time>2013-09-29T07:44:04.000Z</time>
      </trkpt>
      <trkpt lat="48.20416" lon="3.29594">
        <ele>75</ele>
        <time>2013-09-29T07:44:05.000Z</time>
      </trkpt>
      <trkpt lat="48.2042" lon="3.29588">
        <ele>75</ele>
        <time>2013-09-29T07:44:06.000Z</time>
      </trkpt>
      <trkpt lat="48.20424" lon="3.29583">
        <ele>75</ele>
        <time>2013-09-29T07:44:07.000Z</time>
      </trkpt>
      <trkpt lat="48.20428" lon="3.29577">
        <ele>75</ele>
        <time>2013-09-29T07:44:08.000Z</time>
      </trkpt>
      <trkpt lat="48.20433" lon="3.29573">
        <ele>75</ele>
        <time>2013-09-29T07:44:09.000Z</time>
      </trkpt>
      <trkpt lat="48.20437" lon="3.29566">
        <ele>75</ele>
        <time>2013-09-29T07:44:10.000Z</time>
      </trkpt>
      <trkpt lat="48.20441" lon="3.29562">
        <ele>75</ele>
        <time>2013-09-29T07:44:11.000Z</time>
      </trkpt>
      <trkpt lat="48.20446" lon="3.29556">
        <ele>75</ele>
        <time>2013-09-29T07:44:12.000Z</time>
      </trkpt>
      <trkpt lat="48.2045" lon="3.29549">
        <ele>75</ele>
        <time>2013-09-29T07:44:13.000Z</time>
      </trkpt>
      <trkpt lat="48.20454" lon="3.29543">
        <ele>75</ele>
        <time>2013-09-29T07:44:14.000Z</time>
      </trkpt>
      <trkpt lat="48.20459" lon="3.29538">
        <ele>75</ele>
        <time>2013-09-29T07:44:15.000Z</time>
      </trkpt>
      <trkpt lat="48.20463" lon="3.29532">
        <ele>75</ele>
        <time>2013-09-29T07:44:16.000Z</time>
      </trkpt>
      <trkpt lat="48.20467" lon="3.29525">
        <ele>75</ele>
        <time>2013-09-29T07:44:17.000Z</time>
      </trkpt>
      <trkpt lat="48.20472" lon="3.29519">
        <ele>75</ele>
        <time>2013-09-29T07:44:18.000Z</time>
      </trkpt>
      <trkpt lat="48.20477" lon="3.29513">
        <ele>75</ele>
        <time>2013-09-29T07:44:19.000Z</time>
      </trkpt>
      <trkpt lat="48.20482" lon="3.29506">
        <ele>75</ele>
        <time>2013-09-29T07:44:20.000Z</time>
      </trkpt>
      <trkpt lat="48.20487" lon="3.295">
        <ele>75</ele>
        <time>2013-09-29T07:44:21.000Z</time>
      </trkpt>
      <trkpt lat="48.20492" lon="3.29493">
        <ele>75</ele>
        <time>2013-09-29T07:44:22.000Z</time>
      </trkpt>
      <trkpt lat="48.20497" lon="3.29485">
        <ele>75</ele>
        <time>2013-09-29T07:44:23.000Z</time>
      </trkpt>
      <trkpt lat="48.20503" lon="3.29478">
        <ele>75</ele>
        <time>2013-09-29T07:44:24.000Z</time>
      </trkpt>
      <trkpt lat="48.20508" lon="3.2947">
        <ele>75</ele>
        <time>2013-09-29T07:44:25.000Z</time>
      </trkpt>
      <trkpt lat="48.20512" lon="3.29463">
        <ele>75</ele>
        <time>2013-09-29T07:44:26.000Z</time>
      </trkpt>
      <trkpt lat="48.20518" lon="3.29457">
        <ele>75</ele>
        <time>2013-09-29T07:44:27.000Z</time>
      </trkpt>
      <trkpt lat="48.20523" lon="3.2945">
        <ele>75</ele>
        <time>2013-09-29T07:44:28.000Z</time>
      </trkpt>
      <trkpt lat="48.20528" lon="3.29442">
        <ele>75</ele>
        <time>2013-09-29T07:44:29.000Z</time>
      </trkpt>
      <trkpt lat="48.20533" lon="3.29435">
        <ele>75</ele>
        <time>2013-09-29T07:44:30.000Z</time>
      </trkpt>
      <trkpt lat="48.20539" lon="3.29431">
        <ele>75</ele>
        <time>2013-09-29T07:44:31.000Z</time>
      </trkpt>
      <trkpt lat="48.20544" lon="3.29425">
        <ele>75</ele>
        <time>2013-09-29T07:44:32.000Z</time>
      </trkpt>
      <trkpt lat="48.2055" lon="3.29418">
        <ele>75</ele>
        <time>2013-09-29T07:44:33.000Z</time>
      </trkpt>
      <trkpt lat="48.20556" lon="3.29414">
        <ele>74</ele>
        <time>2013-09-29T07:44:34.000Z</time>
      </trkpt>
      <trkpt lat="48.20562" lon="3.29407">
        <ele>74</ele>
        <time>2013-09-29T07:44:35.000Z</time>
      </trkpt>
      <trkpt lat="48.20568" lon="3.29403">
        <ele>75</ele>
        <time>2013-09-29T07:44:36.000Z</time>
      </trkpt>
      <trkpt lat="48.20573" lon="3.29399">
        <ele>75</ele>
        <time>2013-09-29T07:44:37.000Z</time>
      </trkpt>
      <trkpt lat="48.2058" lon="3.29395">
        <ele>74</ele>
        <time>2013-09-29T07:44:38.000Z</time>
      </trkpt>
      <trkpt lat="48.20586" lon="3.2939">
        <ele>75</ele>
        <time>2013-09-29T07:44:39.000Z</time>
      </trkpt>
      <trkpt lat="48.20592" lon="3.29386">
        <ele>75</ele>
        <time>2013-09-29T07:44:40.000Z</time>
      </trkpt>
      <trkpt lat="48.20598" lon="3.29382">
        <ele>74</ele>
        <time>2013-09-29T07:44:41.000Z</time>
      </trkpt>
      <trkpt lat="48.20604" lon="3.2938">
        <ele>74</ele>
        <time>2013-09-29T07:44:42.000Z</time>
      </trkpt>
      <trkpt lat="48.20611" lon="3.29375">
        <ele>74</ele>
        <time>2013-09-29T07:44:43.000Z</time>
      </trkpt>
      <trkpt lat="48.20617" lon="3.29371">
        <ele>74</ele>
        <time>2013-09-29T07:44:44.000Z</time>
      </trkpt>
      <trkpt lat="48.20623" lon="3.29369">
        <ele>74</ele>
        <time>2013-09-29T07:44:45.000Z</time>
      </trkpt>
      <trkpt lat="48.20629" lon="3.29365">
        <ele>74</ele>
        <time>2013-09-29T07:44:46.000Z</time>
      </trkpt>
      <trkpt lat="48.20636" lon="3.29362">
        <ele>74</ele>
        <time>2013-09-29T07:44:47.000Z</time>
      </trkpt>
      <trkpt lat="48.20641" lon="3.29358">
        <ele>74</ele>
        <time>2013-09-29T07:44:48.000Z</time>
      </trkpt>
      <trkpt lat="48.20647" lon="3.29356">
        <ele>74</ele>
        <time>2013-09-29T07:44:49.000Z</time>
      </trkpt>
      <trkpt lat="48.20654" lon="3.29352">
        <ele>74</ele>
        <time>2013-09-29T07:44:50.000Z</time>
      </trkpt>
      <trkpt lat="48.20659" lon="3.2935">
        <ele>74</ele>
        <time>2013-09-29T07:44:51.000Z</time>
      </trkpt>
      <trkpt lat="48.20666" lon="3.29347">
        <ele>74</ele>
        <time>2013-09-29T07:44:52.000Z</time>
      </trkpt>
      <trkpt lat="48.20671" lon="3.29343">
        <ele>73</ele>
        <time>2013-09-29T07:44:53.000Z</time>
      </trkpt>
      <trkpt lat="48.20676" lon="3.29341">
        <ele>73</ele>
        <time>2013-09-29T07:44:54.000Z</time>
      </trkpt>
      <trkpt lat="48.20683" lon="3.29339">
        <ele>73</ele>
        <time>2013-09-29T07:44:55.000Z</time>
      </trkpt>
      <trkpt lat="48.20689" lon="3.29334">
        <ele>73</ele>
        <time>2013-09-29T07:44:56.000Z</time>
      </trkpt>
      <trkpt lat="48.20695" lon="3.29332">
        <ele>72</ele>
        <time>2013-09-29T07:44:57.000Z</time>
      </trkpt>
      <trkpt lat="48.20701" lon="3.2933">
        <ele>72</ele>
        <time>2013-09-29T07:44:58.000Z</time>
      </trkpt>
      <trkpt lat="48.20706" lon="3.29326">
        <ele>72</ele>
        <time>2013-09-29T07:44:59.000Z</time>
      </trkpt>
      <trkpt lat="48.20713" lon="3.29324">
        <ele>72</ele>
        <time>2013-09-29T07:45:00.000Z</time>
      </trkpt>
      <trkpt lat="48.20719" lon="3.29319">
        <ele>72</ele>
        <time>2013-09-29T07:45:01.000Z</time>
      </trkpt>
      <trkpt lat="48.20726" lon="3.29317">
        <ele>72</ele>
        <time>2013-09-29T07:45:02.000Z</time>
      </trkpt>
      <trkpt lat="48.20732" lon="3.29313">
        <ele>72</ele>
        <time>2013-09-29T07:45:03.000Z</time>
      </trkpt>
      <trkpt lat="48.20737" lon="3.29311">
        <ele>72</ele>
        <time>2013-09-29T07:45:04.000Z</time>
      </trkpt>
      <trkpt lat="48.20744" lon="3.29309">
        <ele>72</ele>
        <time>2013-09-29T07:45:05.000Z</time>
      </trkpt>
      <trkpt lat="48.2075" lon="3.29307">
        <ele>72</ele>
        <time>2013-09-29T07:45:06.000Z</time>
      </trkpt>
      <trkpt lat="48.20757" lon="3.29307">
        <ele>72</ele>
        <time>2013-09-29T07:45:07.000Z</time>
      </trkpt>
      <trkpt lat="48.20762" lon="3.29309">
        <ele>72</ele>
        <time>2013-09-29T07:45:08.000Z</time>
      </trkpt>
      <trkpt lat="48.20769" lon="3.29313">
        <ele>72</ele>
        <time>2013-09-29T07:45:09.000Z</time>
      </trkpt>
      <trkpt lat="48.20774" lon="3.29317">
        <ele>71</ele>
        <time>2013-09-29T07:45:10.000Z</time>
      </trkpt>
      <trkpt lat="48.20778" lon="3.29319">
        <ele>71</ele>
        <time>2013-09-29T07:45:11.000Z</time>
      </trkpt>
      <trkpt lat="48.20784" lon="3.29324">
        <ele>71</ele>
        <time>2013-09-29T07:45:12.000Z</time>
      </trkpt>
      <trkpt lat="48.20789" lon="3.29328">
        <ele>71</ele>
        <time>2013-09-29T07:45:13.000Z</time>
      </trkpt>
      <trkpt lat="48.20792" lon="3.29334">
        <ele>72</ele>
        <time>2013-09-29T07:45:14.000Z</time>
      </trkpt>
      <trkpt lat="48.20796" lon="3.29339">
        <ele>72</ele>
        <time>2013-09-29T07:45:15.000Z</time>
      </trkpt>
      <trkpt lat="48.208" lon="3.29345">
        <ele>72</ele>
        <time>2013-09-29T07:45:16.000Z</time>
      </trkpt>
      <trkpt lat="48.20804" lon="3.29352">
        <ele>72</ele>
        <time>2013-09-29T07:45:17.000Z</time>
      </trkpt>
      <trkpt lat="48.20807" lon="3.29358">
        <ele>72</ele>
        <time>2013-09-29T07:45:18.000Z</time>
      </trkpt>
      <trkpt lat="48.2081" lon="3.29365">
        <ele>72</ele>
        <time>2013-09-29T07:45:19.000Z</time>
      </trkpt>
      <trkpt lat="48.20814" lon="3.29371">
        <ele>72</ele>
        <time>2013-09-29T07:45:20.000Z</time>
      </trkpt>
      <trkpt lat="48.20817" lon="3.29375">
        <ele>72</ele>
        <time>2013-09-29T07:45:21.000Z</time>
      </trkpt>
      <trkpt lat="48.2082" lon="3.29382">
        <ele>72</ele>
        <time>2013-09-29T07:45:22.000Z</time>
      </trkpt>
      <trkpt lat="48.20823" lon="3.29388">
        <ele>71</ele>
        <time>2013-09-29T07:45:23.000Z</time>
      </trkpt>
      <trkpt lat="48.20827" lon="3.29392">
        <ele>71</ele>
        <time>2013-09-29T07:45:24.000Z</time>
      </trkpt>
      <trkpt lat="48.2083" lon="3.29399">
        <ele>71</ele>
        <time>2013-09-29T07:45:25.000Z</time>
      </trkpt>
      <trkpt lat="48.20833" lon="3.29405">
        <ele>71</ele>
        <time>2013-09-29T07:45:26.000Z</time>
      </trkpt>
      <trkpt lat="48.20836" lon="3.2941">
        <ele>71</ele>
        <time>2013-09-29T07:45:27.000Z</time>
      </trkpt>
      <trkpt lat="48.20839" lon="3.29416">
        <ele>71</ele>
        <time>2013-09-29T07:45:28.000Z</time>
      </trkpt>
      <trkpt lat="48.20843" lon="3.2942">
        <ele>71</ele>
        <time>2013-09-29T07:45:29.000Z</time>
      </trkpt>
      <trkpt lat="48.20846" lon="3.29427">
        <ele>72</ele>
        <time>2013-09-29T07:45:30.000Z</time>
      </trkpt>
      <trkpt lat="48.20849" lon="3.29433">
        <ele>72</ele>
        <time>2013-09-29T07:45:31.000Z</time>
      </trkpt>
      <trkpt lat="48.20852" lon="3.29437">
        <ele>72</ele>
        <time>2013-09-29T07:45:32.000Z</time>
      </trkpt>
      <trkpt lat="48.20855" lon="3.29444">
        <ele>72</ele>
        <time>2013-09-29T07:45:33.000Z</time>
      </trkpt>
      <trkpt lat="48.20858" lon="3.29448">
        <ele>72</ele>
        <time>2013-09-29T07:45:34.000Z</time>
      </trkpt>
      <trkpt lat="48.20861" lon="3.29455">
        <ele>72</ele>
        <time>2013-09-29T07:45:35.000Z</time>
      </trkpt>
      <trkpt lat="48.20864" lon="3.29459">
        <ele>72</ele>
        <time>2013-09-29T07:45:36.000Z</time>
      </trkpt>
      <trkpt lat="48.20867" lon="3.29465">
        <ele>72</ele>
        <time>2013-09-29T07:45:37.000Z</time>
      </trkpt>
      <trkpt lat="48.20871" lon="3.2947">
        <ele>72</ele>
        <time>2013-09-29T07:45:38.000Z</time>
      </trkpt>
      <trkpt lat="48.20874" lon="3.29474">
        <ele>72</ele>
        <time>2013-09-29T07:45:39.000Z</time>
      </trkpt>
      <trkpt lat="48.20876" lon="3.2948">
        <ele>72</ele>
        <time>2013-09-29T07:45:40.000Z</time>
      </trkpt>
      <trkpt lat="48.20879" lon="3.29485">
        <ele>72</ele>
        <time>2013-09-29T07:45:41.000Z</time>
      </trkpt>
      <trkpt lat="48.20882" lon="3.29489">
        <ele>72</ele>
        <time>2013-09-29T07:45:42.000Z</time>
      </trkpt>
      <trkpt lat="48.20886" lon="3.29495">
        <ele>72</ele>
        <time>2013-09-29T07:45:43.000Z</time>
      </trkpt>
      <trkpt lat="48.20889" lon="3.295">
        <ele>72</ele>
        <time>2013-09-29T07:45:44.000Z</time>
      </trkpt>
      <trkpt lat="48.20891" lon="3.29506">
        <ele>73</ele>
        <time>2013-09-29T07:45:45.000Z</time>
      </trkpt>
      <trkpt lat="48.20894" lon="3.2951">
        <ele>73</ele>
        <time>2013-09-29T07:45:46.000Z</time>
      </trkpt>
      <trkpt lat="48.20897" lon="3.29517">
        <ele>73</ele>
        <time>2013-09-29T07:45:47.000Z</time>
      </trkpt>
      <trkpt lat="48.20901" lon="3.29521">
        <ele>73</ele>
        <time>2013-09-29T07:45:48.000Z</time>
      </trkpt>
      <trkpt lat="48.20904" lon="3.29528">
        <ele>73</ele>
        <time>2013-09-29T07:45:49.000Z</time>
      </trkpt>
      <trkpt lat="48.20906" lon="3.29532">
        <ele>73</ele>
        <time>2013-09-29T07:45:50.000Z</time>
      </trkpt>
      <trkpt lat="48.20909" lon="3.29536">
        <ele>73</ele>
        <time>2013-09-29T07:45:51.000Z</time>
      </trkpt>
      <trkpt lat="48.20912" lon="3.29543">
        <ele>73</ele>
        <time>2013-09-29T07:45:52.000Z</time>
      </trkpt>
      <trkpt lat="48.20916" lon="3.29547">
        <ele>74</ele>
        <time>2013-09-29T07:45:53.000Z</time>
      </trkpt>
      <trkpt lat="48.20918" lon="3.29551">
        <ele>73</ele>
        <time>2013-09-29T07:45:54.000Z</time>
      </trkpt>
      <trkpt lat="48.20921" lon="3.29558">
        <ele>73</ele>
        <time>2013-09-29T07:45:55.000Z</time>
      </trkpt>
      <trkpt lat="48.20924" lon="3.29562">
        <ele>73</ele>
        <time>2013-09-29T07:45:56.000Z</time>
      </trkpt>
      <trkpt lat="48.20926" lon="3.29566">
        <ele>73</ele>
        <time>2013-09-29T07:45:57.000Z</time>
      </trkpt>
      <trkpt lat="48.2093" lon="3.29571">
        <ele>73</ele>
        <time>2013-09-29T07:45:58.000Z</time>
      </trkpt>
      <trkpt lat="48.20932" lon="3.29577">
        <ele>73</ele>
        <time>2013-09-29T07:45:59.000Z</time>
      </trkpt>
      <trkpt lat="48.20935" lon="3.29581">
        <ele>73</ele>
        <time>2013-09-29T07:46:00.000Z</time>
      </trkpt>
      <trkpt lat="48.20938" lon="3.29586">
        <ele>74</ele>
        <time>2013-09-29T07:46:01.000Z</time>
      </trkpt>
      <trkpt lat="48.20941" lon="3.2959">
        <ele>74</ele>
        <time>2013-09-29T07:46:02.000Z</time>
      </trkpt>
      <trkpt lat="48.20943" lon="3.29596">
        <ele>74</ele>
        <time>2013-09-29T07:46:03.000Z</time>
      </trkpt>
      <trkpt lat="48.20947" lon="3.29601">
        <ele>74</ele>
        <time>2013-09-29T07:46:04.000Z</time>
      </trkpt>
      <trkpt lat="48.2095" lon="3.29607">
        <ele>74</ele>
        <time>2013-09-29T07:46:05.000Z</time>
      </trkpt>
      <trkpt lat="48.20952" lon="3.29611">
        <ele>74</ele>
        <time>2013-09-29T07:46:06.000Z</time>
      </trkpt>
      <trkpt lat="48.20955" lon="3.29618">
        <ele>74</ele>
        <time>2013-09-29T07:46:07.000Z</time>
      </trkpt>
      <trkpt lat="48.20958" lon="3.29622">
        <ele>73</ele>
        <time>2013-09-29T07:46:08.000Z</time>
      </trkpt>
      <trkpt lat="48.20962" lon="3.29628">
        <ele>73</ele>
        <time>2013-09-29T07:46:09.000Z</time>
      </trkpt>
      <trkpt lat="48.20965" lon="3.29633">
        <ele>73</ele>
        <time>2013-09-29T07:46:10.000Z</time>
      </trkpt>
      <trkpt lat="48.20967" lon="3.29639">
        <ele>73</ele>
        <time>2013-09-29T07:46:11.000Z</time>
      </trkpt>
      <trkpt lat="48.2097" lon="3.29643">
        <ele>73</ele>
        <time>2013-09-29T07:46:12.000Z</time>
      </trkpt>
      <trkpt lat="48.20974" lon="3.2965">
        <ele>73</ele>
        <time>2013-09-29T07:46:13.000Z</time>
      </trkpt>
      <trkpt lat="48.20977" lon="3.29654">
        <ele>73</ele>
        <time>2013-09-29T07:46:14.000Z</time>
      </trkpt>
      <trkpt lat="48.2098" lon="3.29661">
        <ele>73</ele>
        <time>2013-09-29T07:46:15.000Z</time>
      </trkpt>
      <trkpt lat="48.20983" lon="3.29665">
        <ele>73</ele>
        <time>2013-09-29T07:46:16.000Z</time>
      </trkpt>
      <trkpt lat="48.20985" lon="3.29671">
        <ele>73</ele>
        <time>2013-09-29T07:46:17.000Z</time>
      </trkpt>
      <trkpt lat="48.20989" lon="3.29676">
        <ele>73</ele>
        <time>2013-09-29T07:46:18.000Z</time>
      </trkpt>
      <trkpt lat="48.20992" lon="3.29682">
        <ele>73</ele>
        <time>2013-09-29T07:46:19.000Z</time>
      </trkpt>
      <trkpt lat="48.20994" lon="3.29686">
        <ele>73</ele>
        <time>2013-09-29T07:46:20.000Z</time>
      </trkpt>
      <trkpt lat="48.20997" lon="3.29693">
        <ele>73</ele>
        <time>2013-09-29T07:46:21.000Z</time>
      </trkpt>
      <trkpt lat="48.21" lon="3.29699">
        <ele>73</ele>
        <time>2013-09-29T07:46:22.000Z</time>
      </trkpt>
      <trkpt lat="48.21004" lon="3.29704">
        <ele>73</ele>
        <time>2013-09-29T07:46:23.000Z</time>
      </trkpt>
      <trkpt lat="48.21006" lon="3.29708">
        <ele>73</ele>
        <time>2013-09-29T07:46:24.000Z</time>
      </trkpt>
      <trkpt lat="48.21009" lon="3.29714">
        <ele>73</ele>
        <time>2013-09-29T07:46:25.000Z</time>
      </trkpt>
      <trkpt lat="48.21012" lon="3.29719">
        <ele>73</ele>
        <time>2013-09-29T07:46:26.000Z</time>
      </trkpt>
      <trkpt lat="48.21015" lon="3.29725">
        <ele>73</ele>
        <time>2013-09-29T07:46:27.000Z</time>
      </trkpt>
      <trkpt lat="48.21018" lon="3.29729">
        <ele>73</ele>
        <time>2013-09-29T07:46:28.000Z</time>
      </trkpt>
      <trkpt lat="48.21021" lon="3.29736">
        <ele>73</ele>
        <time>2013-09-29T07:46:29.000Z</time>
      </trkpt>
      <trkpt lat="48.21024" lon="3.2974">
        <ele>73</ele>
        <time>2013-09-29T07:46:30.000Z</time>
      </trkpt>
      <trkpt lat="48.21027" lon="3.29744">
        <ele>73</ele>
        <time>2013-09-29T07:46:31.000Z</time>
      </trkpt>
      <trkpt lat="48.2103" lon="3.29751">
        <ele>73</ele>
        <time>2013-09-29T07:46:32.000Z</time>
      </trkpt>
      <trkpt lat="48.21034" lon="3.29755">
        <ele>73</ele>
        <time>2013-09-29T07:46:33.000Z</time>
      </trkpt>
      <trkpt lat="48.21037" lon="3.29759">
        <ele>73</ele>
        <time>2013-09-29T07:46:34.000Z</time>
      </trkpt>
      <trkpt lat="48.2104" lon="3.29764">
        <ele>73</ele>
        <time>2013-09-29T07:46:35.000Z</time>
      </trkpt>
      <trkpt lat="48.21043" lon="3.29768">
        <ele>74</ele>
        <time>2013-09-29T07:46:36.000Z</time>
      </trkpt>
      <trkpt lat="48.21046" lon="3.29774">
        <ele>74</ele>
        <time>2013-09-29T07:46:37.000Z</time>
      </trkpt>
      <trkpt lat="48.2105" lon="3.29779">
        <ele>74</ele>
        <time>2013-09-29T07:46:38.000Z</time>
      </trkpt>
      <trkpt lat="48.21053" lon="3.29783">
        <ele>74</ele>
        <time>2013-09-29T07:46:39.000Z</time>
      </trkpt>
      <trkpt lat="48.21056" lon="3.29787">
        <ele>74</ele>
        <time>2013-09-29T07:46:40.000Z</time>
      </trkpt>
      <trkpt lat="48.2106" lon="3.29792">
        <ele>74</ele>
        <time>2013-09-29T07:46:41.000Z</time>
      </trkpt>
      <trkpt lat="48.21064" lon="3.29796">
        <ele>74</ele>
        <time>2013-09-29T07:46:42.000Z</time>
      </trkpt>
      <trkpt lat="48.21067" lon="3.298">
        <ele>74</ele>
        <time>2013-09-29T07:46:43.000Z</time>
      </trkpt>
      <trkpt lat="48.2107" lon="3.29804">
        <ele>74</ele>
        <time>2013-09-29T07:46:44.000Z</time>
      </trkpt>
      <trkpt lat="48.21074" lon="3.29809">
        <ele>74</ele>
        <time>2013-09-29T07:46:45.000Z</time>
      </trkpt>
      <trkpt lat="48.21078" lon="3.29813">
        <ele>74</ele>
        <time>2013-09-29T07:46:46.000Z</time>
      </trkpt>
      <trkpt lat="48.21081" lon="3.29817">
        <ele>74</ele>
        <time>2013-09-29T07:46:47.000Z</time>
      </trkpt>
      <trkpt lat="48.21085" lon="3.29819">
        <ele>74</ele>
        <time>2013-09-29T07:46:48.000Z</time>
      </trkpt>
      <trkpt lat="48.21088" lon="3.29824">
        <ele>74</ele>
        <time>2013-09-29T07:46:49.000Z</time>
      </trkpt>
      <trkpt lat="48.21093" lon="3.29828">
        <ele>74</ele>
        <time>2013-09-29T07:46:50.000Z</time>
      </trkpt>
      <trkpt lat="48.21096" lon="3.29832">
        <ele>74</ele>
        <time>2013-09-29T07:46:51.000Z</time>
      </trkpt>
      <trkpt lat="48.21099" lon="3.29834">
        <ele>74</ele>
        <time>2013-09-29T07:46:52.000Z</time>
      </trkpt>
      <trkpt lat="48.21103" lon="3.29839">
        <ele>74</ele>
        <time>2013-09-29T07:46:53.000Z</time>
      </trkpt>
      <trkpt lat="48.21107" lon="3.29843">
        <ele>74</ele>
        <time>2013-09-29T07:46:54.000Z</time>
      </trkpt>
      <trkpt lat="48.2111" lon="3.29847">
        <ele>74</ele>
        <time>2013-09-29T07:46:55.000Z</time>
      </trkpt>
      <trkpt lat="48.21114" lon="3.29852">
        <ele>74</ele>
        <time>2013-09-29T07:46:56.000Z</time>
      </trkpt>
      <trkpt lat="48.21117" lon="3.29856">
        <ele>74</ele>
        <time>2013-09-29T07:46:57.000Z</time>
      </trkpt>
      <trkpt lat="48.21121" lon="3.2986">
        <ele>74</ele>
        <time>2013-09-29T07:46:58.000Z</time>
      </trkpt>
      <trkpt lat="48.21125" lon="3.29865">
        <ele>74</ele>
        <time>2013-09-29T07:46:59.000Z</time>
      </trkpt>
      <trkpt lat="48.21128" lon="3.29869">
        <ele>73</ele>
        <time>2013-09-29T07:47:00.000Z</time>
      </trkpt>
      <trkpt lat="48.21131" lon="3.29873">
        <ele>73</ele>
        <time>2013-09-29T07:47:01.000Z</time>
      </trkpt>
      <trkpt lat="48.21136" lon="3.2988">
        <ele>73</ele>
        <time>2013-09-29T07:47:02.000Z</time>
      </trkpt>
      <trkpt lat="48.21139" lon="3.29884">
        <ele>73</ele>
        <time>2013-09-29T07:47:03.000Z</time>
      </trkpt>
      <trkpt lat="48.21143" lon="3.29888">
        <ele>73</ele>
        <time>2013-09-29T07:47:04.000Z</time>
      </trkpt>
      <trkpt lat="48.21146" lon="3.29892">
        <ele>73</ele>
        <time>2013-09-29T07:47:05.000Z</time>
      </trkpt>
      <trkpt lat="48.21149" lon="3.29897">
        <ele>73</ele>
        <time>2013-09-29T07:47:06.000Z</time>
      </trkpt>
      <trkpt lat="48.21154" lon="3.29901">
        <ele>73</ele>
        <time>2013-09-29T07:47:07.000Z</time>
      </trkpt>
      <trkpt lat="48.21157" lon="3.29905">
        <ele>73</ele>
        <time>2013-09-29T07:47:08.000Z</time>
      </trkpt>
      <trkpt lat="48.2116" lon="3.2991">
        <ele>73</ele>
        <time>2013-09-29T07:47:09.000Z</time>
      </trkpt>
      <trkpt lat="48.21164" lon="3.29914">
        <ele>73</ele>
        <time>2013-09-29T07:47:10.000Z</time>
      </trkpt>
      <trkpt lat="48.21168" lon="3.29918">
        <ele>73</ele>
        <time>2013-09-29T07:47:11.000Z</time>
      </trkpt>
      <trkpt lat="48.21171" lon="3.29925">
        <ele>73</ele>
        <time>2013-09-29T07:47:12.000Z</time>
      </trkpt>
      <trkpt lat="48.21175" lon="3.29929">
        <ele>73</ele>
        <time>2013-09-29T07:47:13.000Z</time>
      </trkpt>
      <trkpt lat="48.21178" lon="3.29933">
        <ele>72</ele>
        <time>2013-09-29T07:47:14.000Z</time>
      </trkpt>
      <trkpt lat="48.21182" lon="3.2994">
        <ele>72</ele>
        <time>2013-09-29T07:47:15.000Z</time>
      </trkpt>
      <trkpt lat="48.21186" lon="3.29944">
        <ele>72</ele>
        <time>2013-09-29T07:47:16.000Z</time>
      </trkpt>
      <trkpt lat="48.21189" lon="3.2995">
        <ele>72</ele>
        <time>2013-09-29T07:47:17.000Z</time>
      </trkpt>
      <trkpt lat="48.21193" lon="3.29955">
        <ele>72</ele>
        <time>2013-09-29T07:47:18.000Z</time>
      </trkpt>
      <trkpt lat="48.21197" lon="3.29959">
        <ele>72</ele>
        <time>2013-09-29T07:47:19.000Z</time>
      </trkpt>
      <trkpt lat="48.21201" lon="3.29965">
        <ele>72</ele>
        <time>2013-09-29T07:47:20.000Z</time>
      </trkpt>
      <trkpt lat="48.21205" lon="3.29972">
        <ele>72</ele>
        <time>2013-09-29T07:47:21.000Z</time>
      </trkpt>
      <trkpt lat="48.2121" lon="3.29976">
        <ele>72</ele>
        <time>2013-09-29T07:47:22.000Z</time>
      </trkpt>
      <trkpt lat="48.21214" lon="3.2998">
        <ele>72</ele>
        <time>2013-09-29T07:47:23.000Z</time>
      </trkpt>
      <trkpt lat="48.21217" lon="3.29987">
        <ele>72</ele>
        <time>2013-09-29T07:47:24.000Z</time>
      </trkpt>
      <trkpt lat="48.21221" lon="3.29991">
        <ele>72</ele>
        <time>2013-09-29T07:47:25.000Z</time>
      </trkpt>
      <trkpt lat="48.21226" lon="3.29998">
        <ele>72</ele>
        <time>2013-09-29T07:47:26.000Z</time>
      </trkpt>
      <trkpt lat="48.21229" lon="3.30002">
        <ele>71</ele>
        <time>2013-09-29T07:47:27.000Z</time>
      </trkpt>
      <trkpt lat="48.21233" lon="3.30006">
        <ele>71</ele>
        <time>2013-09-29T07:47:28.000Z</time>
      </trkpt>
      <trkpt lat="48.21237" lon="3.30013">
        <ele>71</ele>
        <time>2013-09-29T07:47:29.000Z</time>
      </trkpt>
      <trkpt lat="48.21241" lon="3.30017">
        <ele>71</ele>
        <time>2013-09-29T07:47:30.000Z</time>
      </trkpt>
      <trkpt lat="48.21245" lon="3.30021">
        <ele>71</ele>
        <time>2013-09-29T07:47:31.000Z</time>
      </trkpt>
      <trkpt lat="48.21248" lon="3.30028">
        <ele>71</ele>
        <time>2013-09-29T07:47:32.000Z</time>
      </trkpt>
      <trkpt lat="48.21251" lon="3.30032">
        <ele>71</ele>
        <time>2013-09-29T07:47:33.000Z</time>
      </trkpt>
      <trkpt lat="48.21256" lon="3.30036">
        <ele>71</ele>
        <time>2013-09-29T07:47:34.000Z</time>
      </trkpt>
      <trkpt lat="48.21259" lon="3.3004">
        <ele>71</ele>
        <time>2013-09-29T07:47:35.000Z</time>
      </trkpt>
      <trkpt lat="48.21262" lon="3.30045">
        <ele>72</ele>
        <time>2013-09-29T07:47:36.000Z</time>
      </trkpt>
      <trkpt lat="48.21265" lon="3.30049">
        <ele>72</ele>
        <time>2013-09-29T07:47:37.000Z</time>
      </trkpt>
      <trkpt lat="48.2127" lon="3.30055">
        <ele>72</ele>
        <time>2013-09-29T07:47:38.000Z</time>
      </trkpt>
      <trkpt lat="48.21273" lon="3.3006">
        <ele>72</ele>
        <time>2013-09-29T07:47:39.000Z</time>
      </trkpt>
      <trkpt lat="48.21277" lon="3.30064">
        <ele>72</ele>
        <time>2013-09-29T07:47:40.000Z</time>
      </trkpt>
      <trkpt lat="48.2128" lon="3.30068">
        <ele>72</ele>
        <time>2013-09-29T07:47:41.000Z</time>
      </trkpt>
      <trkpt lat="48.21285" lon="3.30073">
        <ele>72</ele>
        <time>2013-09-29T07:47:42.000Z</time>
      </trkpt>
      <trkpt lat="48.21289" lon="3.30077">
        <ele>72</ele>
        <time>2013-09-29T07:47:43.000Z</time>
      </trkpt>
      <trkpt lat="48.21292" lon="3.30081">
        <ele>72</ele>
        <time>2013-09-29T07:47:44.000Z</time>
      </trkpt>
      <trkpt lat="48.21296" lon="3.30086">
        <ele>72</ele>
        <time>2013-09-29T07:47:45.000Z</time>
      </trkpt>
      <trkpt lat="48.21301" lon="3.3009">
        <ele>72</ele>
        <time>2013-09-29T07:47:46.000Z</time>
      </trkpt>
      <trkpt lat="48.21304" lon="3.30094">
        <ele>73</ele>
        <time>2013-09-29T07:47:47.000Z</time>
      </trkpt>
      <trkpt lat="48.21308" lon="3.30098">
        <ele>73</ele>
        <time>2013-09-29T07:47:48.000Z</time>
      </trkpt>
      <trkpt lat="48.21313" lon="3.30103">
        <ele>73</ele>
        <time>2013-09-29T07:47:49.000Z</time>
      </trkpt>
      <trkpt lat="48.21316" lon="3.30107">
        <ele>73</ele>
        <time>2013-09-29T07:47:50.000Z</time>
      </trkpt>
      <trkpt lat="48.21318" lon="3.30113">
        <ele>73</ele>
        <time>2013-09-29T07:47:51.000Z</time>
      </trkpt>
      <trkpt lat="48.21319" lon="3.30118">
        <ele>73</ele>
        <time>2013-09-29T07:47:52.000Z</time>
      </trkpt>
      <trkpt lat="48.21318" lon="3.30124">
        <ele>73</ele>
        <time>2013-09-29T07:47:53.000Z</time>
      </trkpt>
      <trkpt lat="48.21315" lon="3.30131">
        <ele>73</ele>
        <time>2013-09-29T07:47:54.000Z</time>
      </trkpt>
      <trkpt lat="48.21313" lon="3.30135">
        <ele>73</ele>
        <time>2013-09-29T07:47:55.000Z</time>
      </trkpt>
      <trkpt lat="48.21309" lon="3.30139">
        <ele>73</ele>
        <time>2013-09-29T07:47:56.000Z</time>
      </trkpt>
      <trkpt lat="48.21306" lon="3.30143">
        <ele>73</ele>
        <time>2013-09-29T07:47:57.000Z</time>
      </trkpt>
      <trkpt lat="48.21304" lon="3.3015">
        <ele>73</ele>
        <time>2013-09-29T07:47:58.000Z</time>
      </trkpt>
      <trkpt lat="48.21302" lon="3.30154">
        <ele>73</ele>
        <time>2013-09-29T07:47:59.000Z</time>
      </trkpt>
      <trkpt lat="48.21299" lon="3.30161">
        <ele>73</ele>
        <time>2013-09-29T07:48:00.000Z</time>
      </trkpt>
      <trkpt lat="48.21296" lon="3.30165">
        <ele>73</ele>
        <time>2013-09-29T07:48:01.000Z</time>
      </trkpt>
      <trkpt lat="48.21293" lon="3.30171">
        <ele>74</ele>
        <time>2013-09-29T07:48:02.000Z</time>
      </trkpt>
      <trkpt lat="48.2129" lon="3.30176">
        <ele>74</ele>
        <time>2013-09-29T07:48:03.000Z</time>
      </trkpt>
      <trkpt lat="48.21287" lon="3.3018">
        <ele>74</ele>
        <time>2013-09-29T07:48:04.000Z</time>
      </trkpt>
      <trkpt lat="48.21284" lon="3.30186">
        <ele>74</ele>
        <time>2013-09-29T07:48:05.000Z</time>
      </trkpt>
      <trkpt lat="48.2128" lon="3.30191">
        <ele>74</ele>
        <time>2013-09-29T07:48:06.000Z</time>
      </trkpt>
      <trkpt lat="48.21277" lon="3.30197">
        <ele>74</ele>
        <time>2013-09-29T07:48:07.000Z</time>
      </trkpt>
      <trkpt lat="48.21274" lon="3.30201">
        <ele>74</ele>
        <time>2013-09-29T07:48:08.000Z</time>
      </trkpt>
      <trkpt lat="48.21271" lon="3.30208">
        <ele>74</ele>
        <time>2013-09-29T07:48:09.000Z</time>
      </trkpt>
      <trkpt lat="48.21269" lon="3.30212">
        <ele>74</ele>
        <time>2013-09-29T07:48:10.000Z</time>
      </trkpt>
      <trkpt lat="48.21265" lon="3.30219">
        <ele>74</ele>
        <time>2013-09-29T07:48:11.000Z</time>
      </trkpt>
      <trkpt lat="48.21262" lon="3.30223">
        <ele>74</ele>
        <time>2013-09-29T07:48:12.000Z</time>
      </trkpt>
      <trkpt lat="48.2126" lon="3.30227">
        <ele>75</ele>
        <time>2013-09-29T07:48:13.000Z</time>
      </trkpt>
      <trkpt lat="48.21257" lon="3.30234">
        <ele>75</ele>
        <time>2013-09-29T07:48:14.000Z</time>
      </trkpt>
      <trkpt lat="48.21255" lon="3.30238">
        <ele>75</ele>
        <time>2013-09-29T07:48:15.000Z</time>
      </trkpt>
      <trkpt lat="48.21251" lon="3.30244">
        <ele>75</ele>
        <time>2013-09-29T07:48:16.000Z</time>
      </trkpt>
      <trkpt lat="48.21248" lon="3.30251">
        <ele>75</ele>
        <time>2013-09-29T07:48:17.000Z</time>
      </trkpt>
      <trkpt lat="48.21246" lon="3.30257">
        <ele>75</ele>
        <time>2013-09-29T07:48:18.000Z</time>
      </trkpt>
      <trkpt lat="48.21244" lon="3.30261">
        <ele>75</ele>
        <time>2013-09-29T07:48:19.000Z</time>
      </trkpt>
      <trkpt lat="48.21242" lon="3.30268">
        <ele>75</ele>
        <time>2013-09-29T07:48:20.000Z</time>
      </trkpt>
      <trkpt lat="48.21239" lon="3.30274">
        <ele>75</ele>
        <time>2013-09-29T07:48:21.000Z</time>
      </trkpt>
      <trkpt lat="48.21236" lon="3.30281">
        <ele>75</ele>
        <time>2013-09-29T07:48:22.000Z</time>
      </trkpt>
      <trkpt lat="48.21234" lon="3.30287">
        <ele>75</ele>
        <time>2013-09-29T07:48:23.000Z</time>
      </trkpt>
      <trkpt lat="48.21232" lon="3.30294">
        <ele>75</ele>
        <time>2013-09-29T07:48:24.000Z</time>
      </trkpt>
      <trkpt lat="48.2123" lon="3.303">
        <ele>75</ele>
        <time>2013-09-29T07:48:25.000Z</time>
      </trkpt>
      <trkpt lat="48.21228" lon="3.30304">
        <ele>75</ele>
        <time>2013-09-29T07:48:26.000Z</time>
      </trkpt>
      <trkpt lat="48.21226" lon="3.30311">
        <ele>75</ele>
        <time>2013-09-29T07:48:27.000Z</time>
      </trkpt>
      <trkpt lat="48.21223" lon="3.30317">
        <ele>75</ele>
        <time>2013-09-29T07:48:28.000Z</time>
      </trkpt>
      <trkpt lat="48.21221" lon="3.30324">
        <ele>75</ele>
        <time>2013-09-29T07:48:29.000Z</time>
      </trkpt>
      <trkpt lat="48.2122" lon="3.30328">
        <ele>75</ele>
        <time>2013-09-29T07:48:30.000Z</time>
      </trkpt>
      <trkpt lat="48.21218" lon="3.30334">
        <ele>76</ele>
        <time>2013-09-29T07:48:31.000Z</time>
      </trkpt>
      <trkpt lat="48.21216" lon="3.30339">
        <ele>76</ele>
        <time>2013-09-29T07:48:32.000Z</time>
      </trkpt>
      <trkpt lat="48.21215" lon="3.30343">
        <ele>76</ele>
        <time>2013-09-29T07:48:33.000Z</time>
      </trkpt>
      <trkpt lat="48.21213" lon="3.30347">
        <ele>76</ele>
        <time>2013-09-29T07:48:34.000Z</time>
      </trkpt>
      <trkpt lat="48.21212" lon="3.30352">
        <ele>76</ele>
        <time>2013-09-29T07:48:35.000Z</time>
      </trkpt>
      <trkpt lat="48.2121" lon="3.30356">
        <ele>76</ele>
        <time>2013-09-29T07:48:36.000Z</time>
      </trkpt>
      <trkpt lat="48.21207" lon="3.3036">
        <ele>76</ele>
        <time>2013-09-29T07:48:37.000Z</time>
      </trkpt>
      <trkpt lat="48.21206" lon="3.30364">
        <ele>76</ele>
        <time>2013-09-29T07:48:38.000Z</time>
      </trkpt>
      <trkpt lat="48.21204" lon="3.30371">
        <ele>76</ele>
        <time>2013-09-29T07:48:39.000Z</time>
      </trkpt>
      <trkpt lat="48.21204" lon="3.30377">
        <ele>76</ele>
        <time>2013-09-29T07:48:40.000Z</time>
      </trkpt>
      <trkpt lat="48.21204" lon="3.30384">
        <ele>76</ele>
        <time>2013-09-29T07:48:41.000Z</time>
      </trkpt>
      <trkpt lat="48.21203" lon="3.3039">
        <ele>76</ele>
        <time>2013-09-29T07:48:42.000Z</time>
      </trkpt>
      <trkpt lat="48.21203" lon="3.30397">
        <ele>76</ele>
        <time>2013-09-29T07:48:43.000Z</time>
      </trkpt>
      <trkpt lat="48.21203" lon="3.30405">
        <ele>76</ele>
        <time>2013-09-29T07:48:44.000Z</time>
      </trkpt>
      <trkpt lat="48.21204" lon="3.30412">
        <ele>76</ele>
        <time>2013-09-29T07:48:45.000Z</time>
      </trkpt>
      <trkpt lat="48.21204" lon="3.30418">
        <ele>76</ele>
        <time>2013-09-29T07:48:46.000Z</time>
      </trkpt>
      <trkpt lat="48.21204" lon="3.30427">
        <ele>76</ele>
        <time>2013-09-29T07:48:47.000Z</time>
      </trkpt>
      <trkpt lat="48.21204" lon="3.30433">
        <ele>76</ele>
        <time>2013-09-29T07:48:48.000Z</time>
      </trkpt>
      <trkpt lat="48.21205" lon="3.3044">
        <ele>76</ele>
        <time>2013-09-29T07:48:49.000Z</time>
      </trkpt>
      <trkpt lat="48.21205" lon="3.30448">
        <ele>76</ele>
        <time>2013-09-29T07:48:50.000Z</time>
      </trkpt>
      <trkpt lat="48.21205" lon="3.30455">
        <ele>76</ele>
        <time>2013-09-29T07:48:51.000Z</time>
      </trkpt>
      <trkpt lat="48.21206" lon="3.30461">
        <ele>76</ele>
        <time>2013-09-29T07:48:52.000Z</time>
      </trkpt>
      <trkpt lat="48.21207" lon="3.3047">
        <ele>76</ele>
        <time>2013-09-29T07:48:53.000Z</time>
      </trkpt>
      <trkpt lat="48.21207" lon="3.30476">
        <ele>76</ele>
        <time>2013-09-29T07:48:54.000Z</time>
      </trkpt>
      <trkpt lat="48.21208" lon="3.30485">
        <ele>76</ele>
        <time>2013-09-29T07:48:55.000Z</time>
      </trkpt>
      <trkpt lat="48.2121" lon="3.30493">
        <ele>76</ele>
        <time>2013-09-29T07:48:56.000Z</time>
      </trkpt>
      <trkpt lat="48.2121" lon="3.305">
        <ele>76</ele>
        <time>2013-09-29T07:48:57.000Z</time>
      </trkpt>
      <trkpt lat="48.21211" lon="3.30508">
        <ele>76</ele>
        <time>2013-09-29T07:48:58.000Z</time>
      </trkpt>
      <trkpt lat="48.21212" lon="3.30515">
        <ele>76</ele>
        <time>2013-09-29T07:48:59.000Z</time>
      </trkpt>
      <trkpt lat="48.21213" lon="3.30523">
        <ele>76</ele>
        <time>2013-09-29T07:49:00.000Z</time>
      </trkpt>
      <trkpt lat="48.21215" lon="3.3053">
        <ele>76</ele>
        <time>2013-09-29T07:49:01.000Z</time>
      </trkpt>
      <trkpt lat="48.21216" lon="3.30538">
        <ele>76</ele>
        <time>2013-09-29T07:49:02.000Z</time>
      </trkpt>
      <trkpt lat="48.21217" lon="3.30545">
        <ele>76</ele>
        <time>2013-09-29T07:49:03.000Z</time>
      </trkpt>
      <trkpt lat="48.21218" lon="3.30551">
        <ele>76</ele>
        <time>2013-09-29T07:49:04.000Z</time>
      </trkpt>
      <trkpt lat="48.2122" lon="3.3056">
        <ele>76</ele>
        <time>2013-09-29T07:49:05.000Z</time>
      </trkpt>
      <trkpt lat="48.21221" lon="3.30566">
        <ele>76</ele>
        <time>2013-09-29T07:49:06.000Z</time>
      </trkpt>
      <trkpt lat="48.21222" lon="3.30573">
        <ele>76</ele>
        <time>2013-09-29T07:49:07.000Z</time>
      </trkpt>
      <trkpt lat="48.21223" lon="3.30581">
        <ele>76</ele>
        <time>2013-09-29T07:49:08.000Z</time>
      </trkpt>
      <trkpt lat="48.21225" lon="3.30588">
        <ele>76</ele>
        <time>2013-09-29T07:49:09.000Z</time>
      </trkpt>
      <trkpt lat="48.21226" lon="3.30594">
        <ele>76</ele>
        <time>2013-09-29T07:49:10.000Z</time>
      </trkpt>
      <trkpt lat="48.21226" lon="3.30601">
        <ele>76</ele>
        <time>2013-09-29T07:49:11.000Z</time>
      </trkpt>
      <trkpt lat="48.21227" lon="3.30607">
        <ele>76</ele>
        <time>2013-09-29T07:49:12.000Z</time>
      </trkpt>
      <trkpt lat="48.21227" lon="3.30613">
        <ele>76</ele>
        <time>2013-09-29T07:49:13.000Z</time>
      </trkpt>
      <trkpt lat="48.21228" lon="3.30622">
        <ele>76</ele>
        <time>2013-09-29T07:49:14.000Z</time>
      </trkpt>
      <trkpt lat="48.21228" lon="3.30628">
        <ele>77</ele>
        <time>2013-09-29T07:49:15.000Z</time>
      </trkpt>
      <trkpt lat="48.21229" lon="3.30635">
        <ele>77</ele>
        <time>2013-09-29T07:49:16.000Z</time>
      </trkpt>
      <trkpt lat="48.21229" lon="3.30641">
        <ele>77</ele>
        <time>2013-09-29T07:49:17.000Z</time>
      </trkpt>
      <trkpt lat="48.2123" lon="3.30648">
        <ele>77</ele>
        <time>2013-09-29T07:49:18.000Z</time>
      </trkpt>
      <trkpt lat="48.2123" lon="3.30656">
        <ele>77</ele>
        <time>2013-09-29T07:49:19.000Z</time>
      </trkpt>
      <trkpt lat="48.21231" lon="3.30663">
        <ele>77</ele>
        <time>2013-09-29T07:49:20.000Z</time>
      </trkpt>
      <trkpt lat="48.21231" lon="3.30669">
        <ele>77</ele>
        <time>2013-09-29T07:49:21.000Z</time>
      </trkpt>
      <trkpt lat="48.21232" lon="3.30678">
        <ele>77</ele>
        <time>2013-09-29T07:49:22.000Z</time>
      </trkpt>
      <trkpt lat="48.21232" lon="3.30684">
        <ele>77</ele>
        <time>2013-09-29T07:49:23.000Z</time>
      </trkpt>
      <trkpt lat="48.21233" lon="3.30693">
        <ele>77</ele>
        <time>2013-09-29T07:49:24.000Z</time>
      </trkpt>
      <trkpt lat="48.21234" lon="3.30699">
        <ele>77</ele>
        <time>2013-09-29T07:49:25.000Z</time>
      </trkpt>
      <trkpt lat="48.21235" lon="3.30708">
        <ele>77</ele>
        <time>2013-09-29T07:49:26.000Z</time>
      </trkpt>
      <trkpt lat="48.21235" lon="3.30714">
        <ele>77</ele>
        <time>2013-09-29T07:49:27.000Z</time>
      </trkpt>
      <trkpt lat="48.21236" lon="3.30723">
        <ele>77</ele>
        <time>2013-09-29T07:49:28.000Z</time>
      </trkpt>
      <trkpt lat="48.21237" lon="3.30729">
        <ele>77</ele>
        <time>2013-09-29T07:49:29.000Z</time>
      </trkpt>
      <trkpt lat="48.21239" lon="3.30738">
        <ele>78</ele>
        <time>2013-09-29T07:49:30.000Z</time>
      </trkpt>
      <trkpt lat="48.21239" lon="3.30746">
        <ele>78</ele>
        <time>2013-09-29T07:49:31.000Z</time>
      </trkpt>
      <trkpt lat="48.2124" lon="3.30753">
        <ele>78</ele>
        <time>2013-09-29T07:49:32.000Z</time>
      </trkpt>
      <trkpt lat="48.21241" lon="3.30761">
        <ele>78</ele>
        <time>2013-09-29T07:49:33.000Z</time>
      </trkpt>
      <trkpt lat="48.21241" lon="3.3077">
        <ele>78</ele>
        <time>2013-09-29T07:49:34.000Z</time>
      </trkpt>
      <trkpt lat="48.21242" lon="3.30779">
        <ele>77</ele>
        <time>2013-09-29T07:49:35.000Z</time>
      </trkpt>
      <trkpt lat="48.21243" lon="3.30787">
        <ele>77</ele>
        <time>2013-09-29T07:49:36.000Z</time>
      </trkpt>
      <trkpt lat="48.21243" lon="3.30796">
        <ele>78</ele>
        <time>2013-09-29T07:49:37.000Z</time>
      </trkpt>
      <trkpt lat="48.21244" lon="3.30804">
        <ele>78</ele>
        <time>2013-09-29T07:49:38.000Z</time>
      </trkpt>
      <trkpt lat="48.21244" lon="3.30813">
        <ele>78</ele>
        <time>2013-09-29T07:49:39.000Z</time>
      </trkpt>
      <trkpt lat="48.21245" lon="3.30819">
        <ele>78</ele>
        <time>2013-09-29T07:49:40.000Z</time>
      </trkpt>
      <trkpt lat="48.21246" lon="3.30828">
        <ele>79</ele>
        <time>2013-09-29T07:49:41.000Z</time>
      </trkpt>
      <trkpt lat="48.21246" lon="3.30837">
        <ele>79</ele>
        <time>2013-09-29T07:49:42.000Z</time>
      </trkpt>
      <trkpt lat="48.21246" lon="3.30845">
        <ele>78</ele>
        <time>2013-09-29T07:49:43.000Z</time>
      </trkpt>
      <trkpt lat="48.21247" lon="3.30854">
        <ele>78</ele>
        <time>2013-09-29T07:49:44.000Z</time>
      </trkpt>
      <trkpt lat="48.21248" lon="3.3086">
        <ele>77</ele>
        <time>2013-09-29T07:49:45.000Z</time>
      </trkpt>
      <trkpt lat="48.21248" lon="3.30869">
        <ele>77</ele>
        <time>2013-09-29T07:49:46.000Z</time>
      </trkpt>
      <trkpt lat="48.21249" lon="3.30877">
        <ele>77</ele>
        <time>2013-09-29T07:49:47.000Z</time>
      </trkpt>
      <trkpt lat="48.2125" lon="3.30886">
        <ele>79</ele>
        <time>2013-09-29T07:49:48.000Z</time>
      </trkpt>
      <trkpt lat="48.21251" lon="3.30892">
        <ele>78</ele>
        <time>2013-09-29T07:49:49.000Z</time>
      </trkpt>
      <trkpt lat="48.21254" lon="3.30901">
        <ele>78</ele>
        <time>2013-09-29T07:49:50.000Z</time>
      </trkpt>
      <trkpt lat="48.21255" lon="3.30909">
        <ele>77</ele>
        <time>2013-09-29T07:49:51.000Z</time>
      </trkpt>
      <trkpt lat="48.21257" lon="3.30918">
        <ele>77</ele>
        <time>2013-09-29T07:49:52.000Z</time>
      </trkpt>
      <trkpt lat="48.21258" lon="3.30925">
        <ele>77</ele>
        <time>2013-09-29T07:49:53.000Z</time>
      </trkpt>
      <trkpt lat="48.21259" lon="3.30933">
        <ele>77</ele>
        <time>2013-09-29T07:49:54.000Z</time>
      </trkpt>
      <trkpt lat="48.2126" lon="3.30942">
        <ele>78</ele>
        <time>2013-09-29T07:49:55.000Z</time>
      </trkpt>
      <trkpt lat="48.21262" lon="3.3095">
        <ele>78</ele>
        <time>2013-09-29T07:49:56.000Z</time>
      </trkpt>
      <trkpt lat="48.21263" lon="3.30959">
        <ele>78</ele>
        <time>2013-09-29T07:49:57.000Z</time>
      </trkpt>
      <trkpt lat="48.21264" lon="3.30967">
        <ele>78</ele>
        <time>2013-09-29T07:49:58.000Z</time>
      </trkpt>
      <trkpt lat="48.21265" lon="3.30976">
        <ele>78</ele>
        <time>2013-09-29T07:49:59.000Z</time>
      </trkpt>
      <trkpt lat="48.21266" lon="3.30985">
        <ele>77</ele>
        <time>2013-09-29T07:50:00.000Z</time>
      </trkpt>
      <trkpt lat="48.21267" lon="3.30993">
        <ele>77</ele>
        <time>2013-09-29T07:50:01.000Z</time>
      </trkpt>
      <trkpt lat="48.21267" lon="3.31002">
        <ele>77</ele>
        <time>2013-09-29T07:50:02.000Z</time>
      </trkpt>
      <trkpt lat="48.21269" lon="3.3101">
        <ele>77</ele>
        <time>2013-09-29T07:50:03.000Z</time>
      </trkpt>
      <trkpt lat="48.2127" lon="3.31021">
        <ele>77</ele>
        <time>2013-09-29T07:50:04.000Z</time>
      </trkpt>
      <trkpt lat="48.21271" lon="3.3103">
        <ele>77</ele>
        <time>2013-09-29T07:50:05.000Z</time>
      </trkpt>
      <trkpt lat="48.21271" lon="3.31038">
        <ele>78</ele>
        <time>2013-09-29T07:50:06.000Z</time>
      </trkpt>
      <trkpt lat="48.21272" lon="3.31047">
        <ele>78</ele>
        <time>2013-09-29T07:50:07.000Z</time>
      </trkpt>
      <trkpt lat="48.21273" lon="3.31055">
        <ele>78</ele>
        <time>2013-09-29T07:50:08.000Z</time>
      </trkpt>
      <trkpt lat="48.21273" lon="3.31064">
        <ele>77</ele>
        <time>2013-09-29T07:50:09.000Z</time>
      </trkpt>
      <trkpt lat="48.21274" lon="3.31073">
        <ele>77</ele>
        <time>2013-09-29T07:50:10.000Z</time>
      </trkpt>
      <trkpt lat="48.21275" lon="3.31081">
        <ele>77</ele>
        <time>2013-09-29T07:50:11.000Z</time>
      </trkpt>
      <trkpt lat="48.21275" lon="3.3109">
        <ele>77</ele>
        <time>2013-09-29T07:50:12.000Z</time>
      </trkpt>
      <trkpt lat="48.21276" lon="3.31098">
        <ele>78</ele>
        <time>2013-09-29T07:50:13.000Z</time>
      </trkpt>
      <trkpt lat="48.21277" lon="3.31107">
        <ele>78</ele>
        <time>2013-09-29T07:50:14.000Z</time>
      </trkpt>
      <trkpt lat="48.21278" lon="3.31118">
        <ele>78</ele>
        <time>2013-09-29T07:50:15.000Z</time>
      </trkpt>
      <trkpt lat="48.21279" lon="3.31126">
        <ele>78</ele>
        <time>2013-09-29T07:50:16.000Z</time>
      </trkpt>
      <trkpt lat="48.2128" lon="3.31135">
        <ele>78</ele>
        <time>2013-09-29T07:50:17.000Z</time>
      </trkpt>
      <trkpt lat="48.21283" lon="3.31143">
        <ele>78</ele>
        <time>2013-09-29T07:50:18.000Z</time>
      </trkpt>
      <trkpt lat="48.21284" lon="3.31152">
        <ele>78</ele>
        <time>2013-09-29T07:50:19.000Z</time>
      </trkpt>
      <trkpt lat="48.21286" lon="3.31161">
        <ele>78</ele>
        <time>2013-09-29T07:50:20.000Z</time>
      </trkpt>
      <trkpt lat="48.21287" lon="3.31169">
        <ele>78</ele>
        <time>2013-09-29T07:50:21.000Z</time>
      </trkpt>
      <trkpt lat="48.21289" lon="3.31178">
        <ele>78</ele>
        <time>2013-09-29T07:50:22.000Z</time>
      </trkpt>
      <trkpt lat="48.21291" lon="3.31186">
        <ele>78</ele>
        <time>2013-09-29T07:50:23.000Z</time>
      </trkpt>
      <trkpt lat="48.21293" lon="3.31195">
        <ele>78</ele>
        <time>2013-09-29T07:50:24.000Z</time>
      </trkpt>
      <trkpt lat="48.21296" lon="3.31201">
        <ele>78</ele>
        <time>2013-09-29T07:50:25.000Z</time>
      </trkpt>
      <trkpt lat="48.213" lon="3.3121">
        <ele>78</ele>
        <time>2013-09-29T07:50:26.000Z</time>
      </trkpt>
      <trkpt lat="48.21303" lon="3.31216">
        <ele>78</ele>
        <time>2013-09-29T07:50:27.000Z</time>
      </trkpt>
      <trkpt lat="48.21306" lon="3.31223">
        <ele>78</ele>
        <time>2013-09-29T07:50:28.000Z</time>
      </trkpt>
      <trkpt lat="48.21309" lon="3.31231">
        <ele>78</ele>
        <time>2013-09-29T07:50:29.000Z</time>
      </trkpt>
      <trkpt lat="48.21313" lon="3.31238">
        <ele>78</ele>
        <time>2013-09-29T07:50:30.000Z</time>
      </trkpt>
      <trkpt lat="48.21316" lon="3.31244">
        <ele>78</ele>
        <time>2013-09-29T07:50:31.000Z</time>
      </trkpt>
      <trkpt lat="48.2132" lon="3.31253">
        <ele>79</ele>
        <time>2013-09-29T07:50:32.000Z</time>
      </trkpt>
      <trkpt lat="48.21323" lon="3.31259">
        <ele>79</ele>
        <time>2013-09-29T07:50:33.000Z</time>
      </trkpt>
      <trkpt lat="48.21326" lon="3.31268">
        <ele>79</ele>
        <time>2013-09-29T07:50:34.000Z</time>
      </trkpt>
      <trkpt lat="48.2133" lon="3.31274">
        <ele>79</ele>
        <time>2013-09-29T07:50:35.000Z</time>
      </trkpt>
      <trkpt lat="48.21333" lon="3.31283">
        <ele>79</ele>
        <time>2013-09-29T07:50:36.000Z</time>
      </trkpt>
      <trkpt lat="48.21335" lon="3.31291">
        <ele>82</ele>
        <time>2013-09-29T07:50:37.000Z</time>
      </trkpt>
      <trkpt lat="48.21338" lon="3.31298">
        <ele>82</ele>
        <time>2013-09-29T07:50:38.000Z</time>
      </trkpt>
      <trkpt lat="48.2134" lon="3.31306">
        <ele>81</ele>
        <time>2013-09-29T07:50:39.000Z</time>
      </trkpt>
      <trkpt lat="48.21343" lon="3.31315">
        <ele>81</ele>
        <time>2013-09-29T07:50:40.000Z</time>
      </trkpt>
      <trkpt lat="48.21345" lon="3.31324">
        <ele>81</ele>
        <time>2013-09-29T07:50:41.000Z</time>
      </trkpt>
      <trkpt lat="48.21346" lon="3.3133">
        <ele>81</ele>
        <time>2013-09-29T07:50:42.000Z</time>
      </trkpt>
      <trkpt lat="48.21348" lon="3.31339">
        <ele>80</ele>
        <time>2013-09-29T07:50:43.000Z</time>
      </trkpt>
      <trkpt lat="48.21349" lon="3.31347">
        <ele>81</ele>
        <time>2013-09-29T07:50:44.000Z</time>
      </trkpt>
      <trkpt lat="48.2135" lon="3.31356">
        <ele>81</ele>
        <time>2013-09-29T07:50:45.000Z</time>
      </trkpt>
      <trkpt lat="48.21351" lon="3.31364">
        <ele>81</ele>
        <time>2013-09-29T07:50:46.000Z</time>
      </trkpt>
      <trkpt lat="48.21353" lon="3.31373">
        <ele>81</ele>
        <time>2013-09-29T07:50:47.000Z</time>
      </trkpt>
      <trkpt lat="48.21354" lon="3.31382">
        <ele>81</ele>
        <time>2013-09-29T07:50:48.000Z</time>
      </trkpt>
      <trkpt lat="48.21357" lon="3.3139">
        <ele>81</ele>
        <time>2013-09-29T07:50:49.000Z</time>
      </trkpt>
      <trkpt lat="48.21358" lon="3.31397">
        <ele>81</ele>
        <time>2013-09-29T07:50:50.000Z</time>
      </trkpt>
      <trkpt lat="48.21359" lon="3.31405">
        <ele>81</ele>
        <time>2013-09-29T07:50:51.000Z</time>
      </trkpt>
      <trkpt lat="48.2136" lon="3.31414">
        <ele>80</ele>
        <time>2013-09-29T07:50:52.000Z</time>
      </trkpt>
      <trkpt lat="48.21361" lon="3.31422">
        <ele>80</ele>
        <time>2013-09-29T07:50:53.000Z</time>
      </trkpt>
      <trkpt lat="48.21362" lon="3.31431">
        <ele>81</ele>
        <time>2013-09-29T07:50:54.000Z</time>
      </trkpt>
      <trkpt lat="48.21363" lon="3.31439">
        <ele>81</ele>
        <time>2013-09-29T07:50:55.000Z</time>
      </trkpt>
      <trkpt lat="48.21364" lon="3.31446">
        <ele>81</ele>
        <time>2013-09-29T07:50:56.000Z</time>
      </trkpt>
      <trkpt lat="48.21365" lon="3.31455">
        <ele>81</ele>
        <time>2013-09-29T07:50:57.000Z</time>
      </trkpt>
      <trkpt lat="48.21365" lon="3.31463">
        <ele>81</ele>
        <time>2013-09-29T07:50:58.000Z</time>
      </trkpt>
      <trkpt lat="48.21365" lon="3.31474">
        <ele>81</ele>
        <time>2013-09-29T07:50:59.000Z</time>
      </trkpt>
      <trkpt lat="48.21365" lon="3.31482">
        <ele>81</ele>
        <time>2013-09-29T07:51:00.000Z</time>
      </trkpt>
      <trkpt lat="48.21365" lon="3.31491">
        <ele>81</ele>
        <time>2013-09-29T07:51:01.000Z</time>
      </trkpt>
      <trkpt lat="48.21365" lon="3.315">
        <ele>81</ele>
        <time>2013-09-29T07:51:02.000Z</time>
      </trkpt>
      <trkpt lat="48.21365" lon="3.31508">
        <ele>82</ele>
        <time>2013-09-29T07:51:03.000Z</time>
      </trkpt>
      <trkpt lat="48.21365" lon="3.31515">
        <ele>82</ele>
        <time>2013-09-29T07:51:04.000Z</time>
      </trkpt>
      <trkpt lat="48.21365" lon="3.31523">
        <ele>83</ele>
        <time>2013-09-29T07:51:05.000Z</time>
      </trkpt>
      <trkpt lat="48.21365" lon="3.31532">
        <ele>83</ele>
        <time>2013-09-29T07:51:06.000Z</time>
      </trkpt>
      <trkpt lat="48.21365" lon="3.3154">
        <ele>83</ele>
        <time>2013-09-29T07:51:07.000Z</time>
      </trkpt>
      <trkpt lat="48.21364" lon="3.31547">
        <ele>83</ele>
        <time>2013-09-29T07:51:08.000Z</time>
      </trkpt>
      <trkpt lat="48.21364" lon="3.31555">
        <ele>83</ele>
        <time>2013-09-29T07:51:09.000Z</time>
      </trkpt>
      <trkpt lat="48.21363" lon="3.31564">
        <ele>83</ele>
        <time>2013-09-29T07:51:10.000Z</time>
      </trkpt>
      <trkpt lat="48.21363" lon="3.31573">
        <ele>83</ele>
        <time>2013-09-29T07:51:11.000Z</time>
      </trkpt>
      <trkpt lat="48.21362" lon="3.31579">
        <ele>83</ele>
        <time>2013-09-29T07:51:12.000Z</time>
      </trkpt>
      <trkpt lat="48.21361" lon="3.31588">
        <ele>84</ele>
        <time>2013-09-29T07:51:13.000Z</time>
      </trkpt>
      <trkpt lat="48.2136" lon="3.31596">
        <ele>84</ele>
        <time>2013-09-29T07:51:14.000Z</time>
      </trkpt>
      <trkpt lat="48.21359" lon="3.31603">
        <ele>84</ele>
        <time>2013-09-29T07:51:15.000Z</time>
      </trkpt>
      <trkpt lat="48.21359" lon="3.31611">
        <ele>84</ele>
        <time>2013-09-29T07:51:16.000Z</time>
      </trkpt>
      <trkpt lat="48.21358" lon="3.3162">
        <ele>84</ele>
        <time>2013-09-29T07:51:17.000Z</time>
      </trkpt>
      <trkpt lat="48.21357" lon="3.31626">
        <ele>84</ele>
        <time>2013-09-29T07:51:18.000Z</time>
      </trkpt>
      <trkpt lat="48.21355" lon="3.31635">
        <ele>84</ele>
        <time>2013-09-29T07:51:19.000Z</time>
      </trkpt>
      <trkpt lat="48.21354" lon="3.31641">
        <ele>84</ele>
        <time>2013-09-29T07:51:20.000Z</time>
      </trkpt>
      <trkpt lat="48.21354" lon="3.3165">
        <ele>84</ele>
        <time>2013-09-29T07:51:21.000Z</time>
      </trkpt>
      <trkpt lat="48.21353" lon="3.31658">
        <ele>84</ele>
        <time>2013-09-29T07:51:22.000Z</time>
      </trkpt>
      <trkpt lat="48.21352" lon="3.31665">
        <ele>84</ele>
        <time>2013-09-29T07:51:23.000Z</time>
      </trkpt>
      <trkpt lat="48.21351" lon="3.31673">
        <ele>85</ele>
        <time>2013-09-29T07:51:24.000Z</time>
      </trkpt>
      <trkpt lat="48.2135" lon="3.31682">
        <ele>86</ele>
        <time>2013-09-29T07:51:25.000Z</time>
      </trkpt>
      <trkpt lat="48.21349" lon="3.31688">
        <ele>86</ele>
        <time>2013-09-29T07:51:26.000Z</time>
      </trkpt>
      <trkpt lat="48.21347" lon="3.31697">
        <ele>86</ele>
        <time>2013-09-29T07:51:27.000Z</time>
      </trkpt>
      <trkpt lat="48.21346" lon="3.31703">
        <ele>86</ele>
        <time>2013-09-29T07:51:28.000Z</time>
      </trkpt>
      <trkpt lat="48.21344" lon="3.31712">
        <ele>86</ele>
        <time>2013-09-29T07:51:29.000Z</time>
      </trkpt>
      <trkpt lat="48.21342" lon="3.31718">
        <ele>86</ele>
        <time>2013-09-29T07:51:30.000Z</time>
      </trkpt>
      <trkpt lat="48.21338" lon="3.31727">
        <ele>86</ele>
        <time>2013-09-29T07:51:31.000Z</time>
      </trkpt>
      <trkpt lat="48.21335" lon="3.31733">
        <ele>86</ele>
        <time>2013-09-29T07:51:32.000Z</time>
      </trkpt>
      <trkpt lat="48.21332" lon="3.3174">
        <ele>83</ele>
        <time>2013-09-29T07:51:33.000Z</time>
      </trkpt>
      <trkpt lat="48.21329" lon="3.31748">
        <ele>83</ele>
        <time>2013-09-29T07:51:34.000Z</time>
      </trkpt>
      <trkpt lat="48.21325" lon="3.31755">
        <ele>84</ele>
        <time>2013-09-29T07:51:35.000Z</time>
      </trkpt>
      <trkpt lat="48.21321" lon="3.31761">
        <ele>83</ele>
        <time>2013-09-29T07:51:36.000Z</time>
      </trkpt>
      <trkpt lat="48.21317" lon="3.31768">
        <ele>83</ele>
        <time>2013-09-29T07:51:37.000Z</time>
      </trkpt>
      <trkpt lat="48.21311" lon="3.31776">
        <ele>83</ele>
        <time>2013-09-29T07:51:38.000Z</time>
      </trkpt>
      <trkpt lat="48.21307" lon="3.31783">
        <ele>83</ele>
        <time>2013-09-29T07:51:39.000Z</time>
      </trkpt>
      <trkpt lat="48.21302" lon="3.31789">
        <ele>83</ele>
        <time>2013-09-29T07:51:40.000Z</time>
      </trkpt>
      <trkpt lat="48.21298" lon="3.31796">
        <ele>83</ele>
        <time>2013-09-29T07:51:41.000Z</time>
      </trkpt>
      <trkpt lat="48.21292" lon="3.31804">
        <ele>83</ele>
        <time>2013-09-29T07:51:42.000Z</time>
      </trkpt>
      <trkpt lat="48.21288" lon="3.31811">
        <ele>83</ele>
        <time>2013-09-29T07:51:43.000Z</time>
      </trkpt>
      <trkpt lat="48.21284" lon="3.31817">
        <ele>83</ele>
        <time>2013-09-29T07:51:44.000Z</time>
      </trkpt>
      <trkpt lat="48.21279" lon="3.31826">
        <ele>82</ele>
        <time>2013-09-29T07:51:45.000Z</time>
      </trkpt>
      <trkpt lat="48.21275" lon="3.31832">
        <ele>82</ele>
        <time>2013-09-29T07:51:46.000Z</time>
      </trkpt>
      <trkpt lat="48.21271" lon="3.31841">
        <ele>83</ele>
        <time>2013-09-29T07:51:47.000Z</time>
      </trkpt>
      <trkpt lat="48.21267" lon="3.31849">
        <ele>83</ele>
        <time>2013-09-29T07:51:48.000Z</time>
      </trkpt>
      <trkpt lat="48.21264" lon="3.31856">
        <ele>83</ele>
        <time>2013-09-29T07:51:49.000Z</time>
      </trkpt>
      <trkpt lat="48.21261" lon="3.31864">
        <ele>84</ele>
        <time>2013-09-29T07:51:50.000Z</time>
      </trkpt>
      <trkpt lat="48.21259" lon="3.31873">
        <ele>84</ele>
        <time>2013-09-29T07:51:51.000Z</time>
      </trkpt>
      <trkpt lat="48.21256" lon="3.31882">
        <ele>84</ele>
        <time>2013-09-29T07:51:52.000Z</time>
      </trkpt>
      <trkpt lat="48.21252" lon="3.3189">
        <ele>84</ele>
        <time>2013-09-29T07:51:53.000Z</time>
      </trkpt>
      <trkpt lat="48.21249" lon="3.31897">
        <ele>82</ele>
        <time>2013-09-29T07:51:54.000Z</time>
      </trkpt>
      <trkpt lat="48.21247" lon="3.31905">
        <ele>82</ele>
        <time>2013-09-29T07:51:55.000Z</time>
      </trkpt>
      <trkpt lat="48.21244" lon="3.31914">
        <ele>82</ele>
        <time>2013-09-29T07:51:56.000Z</time>
      </trkpt>
      <trkpt lat="48.21241" lon="3.3192">
        <ele>82</ele>
        <time>2013-09-29T07:51:57.000Z</time>
      </trkpt>
      <trkpt lat="48.21237" lon="3.31929">
        <ele>82</ele>
        <time>2013-09-29T07:51:58.000Z</time>
      </trkpt>
      <trkpt lat="48.21234" lon="3.31935">
        <ele>82</ele>
        <time>2013-09-29T07:51:59.000Z</time>
      </trkpt>
      <trkpt lat="48.21231" lon="3.31944">
        <ele>83</ele>
        <time>2013-09-29T07:52:00.000Z</time>
      </trkpt>
      <trkpt lat="48.21228" lon="3.3195">
        <ele>83</ele>
        <time>2013-09-29T07:52:01.000Z</time>
      </trkpt>
      <trkpt lat="48.21223" lon="3.31957">
        <ele>83</ele>
        <time>2013-09-29T07:52:02.000Z</time>
      </trkpt>
      <trkpt lat="48.2122" lon="3.31965">
        <ele>83</ele>
        <time>2013-09-29T07:52:03.000Z</time>
      </trkpt>
      <trkpt lat="48.21217" lon="3.31972">
        <ele>83</ele>
        <time>2013-09-29T07:52:04.000Z</time>
      </trkpt>
      <trkpt lat="48.21214" lon="3.31978">
        <ele>83</ele>
        <time>2013-09-29T07:52:05.000Z</time>
      </trkpt>
      <trkpt lat="48.21211" lon="3.31985">
        <ele>83</ele>
        <time>2013-09-29T07:52:06.000Z</time>
      </trkpt>
      <trkpt lat="48.21207" lon="3.31991">
        <ele>83</ele>
        <time>2013-09-29T07:52:07.000Z</time>
      </trkpt>
      <trkpt lat="48.21204" lon="3.32">
        <ele>83</ele>
        <time>2013-09-29T07:52:08.000Z</time>
      </trkpt>
      <trkpt lat="48.21201" lon="3.32006">
        <ele>84</ele>
        <time>2013-09-29T07:52:09.000Z</time>
      </trkpt>
      <trkpt lat="48.21198" lon="3.32012">
        <ele>84</ele>
        <time>2013-09-29T07:52:10.000Z</time>
      </trkpt>
      <trkpt lat="48.21193" lon="3.32019">
        <ele>84</ele>
        <time>2013-09-29T07:52:11.000Z</time>
      </trkpt>
      <trkpt lat="48.21191" lon="3.32025">
        <ele>84</ele>
        <time>2013-09-29T07:52:12.000Z</time>
      </trkpt>
      <trkpt lat="48.21187" lon="3.3203">
        <ele>84</ele>
        <time>2013-09-29T07:52:13.000Z</time>
      </trkpt>
      <trkpt lat="48.21184" lon="3.32036">
        <ele>84</ele>
        <time>2013-09-29T07:52:14.000Z</time>
      </trkpt>
      <trkpt lat="48.21181" lon="3.32042">
        <ele>84</ele>
        <time>2013-09-29T07:52:15.000Z</time>
      </trkpt>
      <trkpt lat="48.21177" lon="3.32049">
        <ele>84</ele>
        <time>2013-09-29T07:52:16.000Z</time>
      </trkpt>
      <trkpt lat="48.21174" lon="3.32055">
        <ele>84</ele>
        <time>2013-09-29T07:52:17.000Z</time>
      </trkpt>
      <trkpt lat="48.21171" lon="3.32062">
        <ele>84</ele>
        <time>2013-09-29T07:52:18.000Z</time>
      </trkpt>
      <trkpt lat="48.21168" lon="3.32068">
        <ele>84</ele>
        <time>2013-09-29T07:52:19.000Z</time>
      </trkpt>
      <trkpt lat="48.21164" lon="3.32075">
        <ele>83</ele>
        <time>2013-09-29T07:52:20.000Z</time>
      </trkpt>
      <trkpt lat="48.21161" lon="3.32081">
        <ele>83</ele>
        <time>2013-09-29T07:52:21.000Z</time>
      </trkpt>
      <trkpt lat="48.21158" lon="3.32088">
        <ele>83</ele>
        <time>2013-09-29T07:52:22.000Z</time>
      </trkpt>
      <trkpt lat="48.21155" lon="3.32094">
        <ele>83</ele>
        <time>2013-09-29T07:52:23.000Z</time>
      </trkpt>
      <trkpt lat="48.21152" lon="3.321">
        <ele>84</ele>
        <time>2013-09-29T07:52:24.000Z</time>
      </trkpt>
      <trkpt lat="48.21149" lon="3.32107">
        <ele>84</ele>
        <time>2013-09-29T07:52:25.000Z</time>
      </trkpt>
      <trkpt lat="48.21146" lon="3.32113">
        <ele>84</ele>
        <time>2013-09-29T07:52:26.000Z</time>
      </trkpt>
      <trkpt lat="48.21143" lon="3.3212">
        <ele>84</ele>
        <time>2013-09-29T07:52:27.000Z</time>
      </trkpt>
      <trkpt lat="48.21141" lon="3.32126">
        <ele>84</ele>
        <time>2013-09-29T07:52:28.000Z</time>
      </trkpt>
      <trkpt lat="48.21138" lon="3.32133">
        <ele>84</ele>
        <time>2013-09-29T07:52:29.000Z</time>
      </trkpt>
      <trkpt lat="48.21136" lon="3.32139">
        <ele>84</ele>
        <time>2013-09-29T07:52:30.000Z</time>
      </trkpt>
      <trkpt lat="48.21132" lon="3.32145">
        <ele>84</ele>
        <time>2013-09-29T07:52:31.000Z</time>
      </trkpt>
      <trkpt lat="48.21129" lon="3.32152">
        <ele>84</ele>
        <time>2013-09-29T07:52:32.000Z</time>
      </trkpt>
      <trkpt lat="48.21127" lon="3.32158">
        <ele>84</ele>
        <time>2013-09-29T07:52:33.000Z</time>
      </trkpt>
      <trkpt lat="48.21124" lon="3.32167">
        <ele>86</ele>
        <time>2013-09-29T07:52:34.000Z</time>
      </trkpt>
      <trkpt lat="48.21121" lon="3.32173">
        <ele>86</ele>
        <time>2013-09-29T07:52:35.000Z</time>
      </trkpt>
      <trkpt lat="48.21118" lon="3.3218">
        <ele>86</ele>
        <time>2013-09-29T07:52:36.000Z</time>
      </trkpt>
      <trkpt lat="48.21115" lon="3.32186">
        <ele>86</ele>
        <time>2013-09-29T07:52:37.000Z</time>
      </trkpt>
      <trkpt lat="48.21113" lon="3.32193">
        <ele>86</ele>
        <time>2013-09-29T07:52:38.000Z</time>
      </trkpt>
      <trkpt lat="48.21111" lon="3.32201">
        <ele>86</ele>
        <time>2013-09-29T07:52:39.000Z</time>
      </trkpt>
      <trkpt lat="48.21109" lon="3.32208">
        <ele>86</ele>
        <time>2013-09-29T07:52:40.000Z</time>
      </trkpt>
      <trkpt lat="48.21105" lon="3.32216">
        <ele>86</ele>
        <time>2013-09-29T07:52:41.000Z</time>
      </trkpt>
      <trkpt lat="48.21104" lon="3.32223">
        <ele>86</ele>
        <time>2013-09-29T07:52:42.000Z</time>
      </trkpt>
      <trkpt lat="48.21102" lon="3.32229">
        <ele>86</ele>
        <time>2013-09-29T07:52:43.000Z</time>
      </trkpt>
      <trkpt lat="48.211" lon="3.32238">
        <ele>86</ele>
        <time>2013-09-29T07:52:44.000Z</time>
      </trkpt>
      <trkpt lat="48.21098" lon="3.32244">
        <ele>86</ele>
        <time>2013-09-29T07:52:45.000Z</time>
      </trkpt>
      <trkpt lat="48.21097" lon="3.32251">
        <ele>87</ele>
        <time>2013-09-29T07:52:46.000Z</time>
      </trkpt>
      <trkpt lat="48.21096" lon="3.32259">
        <ele>87</ele>
        <time>2013-09-29T07:52:47.000Z</time>
      </trkpt>
      <trkpt lat="48.21094" lon="3.32266">
        <ele>88</ele>
        <time>2013-09-29T07:52:48.000Z</time>
      </trkpt>
      <trkpt lat="48.21093" lon="3.32274">
        <ele>88</ele>
        <time>2013-09-29T07:52:49.000Z</time>
      </trkpt>
      <trkpt lat="48.21092" lon="3.32281">
        <ele>88</ele>
        <time>2013-09-29T07:52:50.000Z</time>
      </trkpt>
      <trkpt lat="48.2109" lon="3.32287">
        <ele>89</ele>
        <time>2013-09-29T07:52:51.000Z</time>
      </trkpt>
      <trkpt lat="48.2109" lon="3.32294">
        <ele>89</ele>
        <time>2013-09-29T07:52:52.000Z</time>
      </trkpt>
      <trkpt lat="48.2109" lon="3.323">
        <ele>89</ele>
        <time>2013-09-29T07:52:53.000Z</time>
      </trkpt>
      <trkpt lat="48.21092" lon="3.32306">
        <ele>89</ele>
        <time>2013-09-29T07:52:54.000Z</time>
      </trkpt>
      <trkpt lat="48.21093" lon="3.32313">
        <ele>89</ele>
        <time>2013-09-29T07:52:55.000Z</time>
      </trkpt>
      <trkpt lat="48.21094" lon="3.32319">
        <ele>89</ele>
        <time>2013-09-29T07:52:56.000Z</time>
      </trkpt>
      <trkpt lat="48.21095" lon="3.32326">
        <ele>89</ele>
        <time>2013-09-29T07:52:57.000Z</time>
      </trkpt>
      <trkpt lat="48.21096" lon="3.32332">
        <ele>89</ele>
        <time>2013-09-29T07:52:58.000Z</time>
      </trkpt>
      <trkpt lat="48.21097" lon="3.32339">
        <ele>89</ele>
        <time>2013-09-29T07:52:59.000Z</time>
      </trkpt>
      <trkpt lat="48.21099" lon="3.32345">
        <ele>90</ele>
        <time>2013-09-29T07:53:00.000Z</time>
      </trkpt>
      <trkpt lat="48.211" lon="3.32351">
        <ele>90</ele>
        <time>2013-09-29T07:53:01.000Z</time>
      </trkpt>
      <trkpt lat="48.21102" lon="3.32358">
        <ele>90</ele>
        <time>2013-09-29T07:53:02.000Z</time>
      </trkpt>
      <trkpt lat="48.21103" lon="3.32364">
        <ele>90</ele>
        <time>2013-09-29T07:53:03.000Z</time>
      </trkpt>
      <trkpt lat="48.21105" lon="3.32371">
        <ele>91</ele>
        <time>2013-09-29T07:53:04.000Z</time>
      </trkpt>
      <trkpt lat="48.21108" lon="3.32377">
        <ele>91</ele>
        <time>2013-09-29T07:53:05.000Z</time>
      </trkpt>
      <trkpt lat="48.21109" lon="3.32384">
        <ele>91</ele>
        <time>2013-09-29T07:53:06.000Z</time>
      </trkpt>
      <trkpt lat="48.21111" lon="3.3239">
        <ele>91</ele>
        <time>2013-09-29T07:53:07.000Z</time>
      </trkpt>
      <trkpt lat="48.21112" lon="3.32399">
        <ele>91</ele>
        <time>2013-09-29T07:53:08.000Z</time>
      </trkpt>
      <trkpt lat="48.21114" lon="3.32405">
        <ele>91</ele>
        <time>2013-09-29T07:53:09.000Z</time>
      </trkpt>
      <trkpt lat="48.21115" lon="3.32412">
        <ele>91</ele>
        <time>2013-09-29T07:53:10.000Z</time>
      </trkpt>
      <trkpt lat="48.21117" lon="3.32418">
        <ele>91</ele>
        <time>2013-09-29T07:53:11.000Z</time>
      </trkpt>
      <trkpt lat="48.21118" lon="3.32427">
        <ele>91</ele>
        <time>2013-09-29T07:53:12.000Z</time>
      </trkpt>
      <trkpt lat="48.21121" lon="3.32433">
        <ele>91</ele>
        <time>2013-09-29T07:53:13.000Z</time>
      </trkpt>
      <trkpt lat="48.21122" lon="3.32439">
        <ele>91</ele>
        <time>2013-09-29T07:53:14.000Z</time>
      </trkpt>
      <trkpt lat="48.21123" lon="3.32446">
        <ele>91</ele>
        <time>2013-09-29T07:53:15.000Z</time>
      </trkpt>
      <trkpt lat="48.21125" lon="3.32454">
        <ele>91</ele>
        <time>2013-09-29T07:53:16.000Z</time>
      </trkpt>
      <trkpt lat="48.21126" lon="3.32461">
        <ele>92</ele>
        <time>2013-09-29T07:53:17.000Z</time>
      </trkpt>
      <trkpt lat="48.21127" lon="3.32467">
        <ele>92</ele>
        <time>2013-09-29T07:53:18.000Z</time>
      </trkpt>
      <trkpt lat="48.21129" lon="3.32476">
        <ele>92</ele>
        <time>2013-09-29T07:53:19.000Z</time>
      </trkpt>
      <trkpt lat="48.2113" lon="3.32482">
        <ele>92</ele>
        <time>2013-09-29T07:53:20.000Z</time>
      </trkpt>
      <trkpt lat="48.21131" lon="3.32489">
        <ele>92</ele>
        <time>2013-09-29T07:53:21.000Z</time>
      </trkpt>
      <trkpt lat="48.21132" lon="3.32497">
        <ele>92</ele>
        <time>2013-09-29T07:53:22.000Z</time>
      </trkpt>
      <trkpt lat="48.21133" lon="3.32504">
        <ele>91</ele>
        <time>2013-09-29T07:53:23.000Z</time>
      </trkpt>
      <trkpt lat="48.21133" lon="3.32512">
        <ele>91</ele>
        <time>2013-09-29T07:53:24.000Z</time>
      </trkpt>
      <trkpt lat="48.21134" lon="3.32519">
        <ele>91</ele>
        <time>2013-09-29T07:53:25.000Z</time>
      </trkpt>
      <trkpt lat="48.21134" lon="3.32525">
        <ele>91</ele>
        <time>2013-09-29T07:53:26.000Z</time>
      </trkpt>
      <trkpt lat="48.21134" lon="3.32534">
        <ele>91</ele>
        <time>2013-09-29T07:53:27.000Z</time>
      </trkpt>
      <trkpt lat="48.21134" lon="3.32538">
        <ele>91</ele>
        <time>2013-09-29T07:53:28.000Z</time>
      </trkpt>
      <trkpt lat="48.21134" lon="3.32545">
        <ele>91</ele>
        <time>2013-09-29T07:53:29.000Z</time>
      </trkpt>
      <trkpt lat="48.21134" lon="3.32549">
        <ele>91</ele>
        <time>2013-09-29T07:53:30.000Z</time>
      </trkpt>
      <trkpt lat="48.21134" lon="3.32553">
        <ele>91</ele>
        <time>2013-09-29T07:53:31.000Z</time>
      </trkpt>
      <trkpt lat="48.21134" lon="3.32553">
        <ele>91</ele>
        <time>2013-09-29T07:53:37.000Z</time>
      </trkpt>
      <trkpt lat="48.21138" lon="3.32547">
        <ele>91</ele>
        <time>2013-09-29T07:53:38.000Z</time>
      </trkpt>
      <trkpt lat="48.21138" lon="3.3254">
        <ele>91</ele>
        <time>2013-09-29T07:53:39.000Z</time>
      </trkpt>
      <trkpt lat="48.21138" lon="3.32534">
        <ele>91</ele>
        <time>2013-09-29T07:53:40.000Z</time>
      </trkpt>
      <trkpt lat="48.21138" lon="3.32527">
        <ele>91</ele>
        <time>2013-09-29T07:53:41.000Z</time>
      </trkpt>
      <trkpt lat="48.21138" lon="3.32521">
        <ele>91</ele>
        <time>2013-09-29T07:53:42.000Z</time>
      </trkpt>
      <trkpt lat="48.2114" lon="3.32515">
        <ele>91</ele>
        <time>2013-09-29T07:53:43.000Z</time>
      </trkpt>
      <trkpt lat="48.21142" lon="3.32508">
        <ele>91</ele>
        <time>2013-09-29T07:53:44.000Z</time>
      </trkpt>
      <trkpt lat="48.21144" lon="3.32504">
        <ele>91</ele>
        <time>2013-09-29T07:53:45.000Z</time>
      </trkpt>
      <trkpt lat="48.21147" lon="3.325">
        <ele>92</ele>
        <time>2013-09-29T07:53:46.000Z</time>
      </trkpt>
      <trkpt lat="48.21151" lon="3.32495">
        <ele>92</ele>
        <time>2013-09-29T07:53:47.000Z</time>
      </trkpt>
      <trkpt lat="48.21155" lon="3.32493">
        <ele>92</ele>
        <time>2013-09-29T07:53:48.000Z</time>
      </trkpt>
      <trkpt lat="48.21158" lon="3.32491">
        <ele>92</ele>
        <time>2013-09-29T07:53:49.000Z</time>
      </trkpt>
      <trkpt lat="48.21162" lon="3.32487">
        <ele>92</ele>
        <time>2013-09-29T07:53:50.000Z</time>
      </trkpt>
      <trkpt lat="48.21167" lon="3.32484">
        <ele>92</ele>
        <time>2013-09-29T07:53:51.000Z</time>
      </trkpt>
      <trkpt lat="48.2117" lon="3.32482">
        <ele>93</ele>
        <time>2013-09-29T07:53:52.000Z</time>
      </trkpt>
      <trkpt lat="48.21174" lon="3.3248">
        <ele>93</ele>
        <time>2013-09-29T07:53:53.000Z</time>
      </trkpt>
      <trkpt lat="48.21176" lon="3.32478">
        <ele>93</ele>
        <time>2013-09-29T07:53:54.000Z</time>
      </trkpt>
      <trkpt lat="48.2118" lon="3.32476">
        <ele>94</ele>
        <time>2013-09-29T07:53:55.000Z</time>
      </trkpt>
      <trkpt lat="48.21183" lon="3.32474">
        <ele>94</ele>
        <time>2013-09-29T07:53:56.000Z</time>
      </trkpt>
      <trkpt lat="48.21185" lon="3.32469">
        <ele>94</ele>
        <time>2013-09-29T07:53:57.000Z</time>
      </trkpt>
      <trkpt lat="48.21188" lon="3.32467">
        <ele>94</ele>
        <time>2013-09-29T07:53:58.000Z</time>
      </trkpt>
      <trkpt lat="48.2119" lon="3.32465">
        <ele>94</ele>
        <time>2013-09-29T07:53:59.000Z</time>
      </trkpt>
      <trkpt lat="48.21192" lon="3.32465">
        <ele>94</ele>
        <time>2013-09-29T07:54:00.000Z</time>
      </trkpt>
      <trkpt lat="48.21196" lon="3.32463">
        <ele>94</ele>
        <time>2013-09-29T07:54:01.000Z</time>
      </trkpt>
      <trkpt lat="48.21198" lon="3.32461">
        <ele>94</ele>
        <time>2013-09-29T07:54:02.000Z</time>
      </trkpt>
      <trkpt lat="48.212" lon="3.32461">
        <ele>94</ele>
        <time>2013-09-29T07:54:03.000Z</time>
      </trkpt>
      <trkpt lat="48.21203" lon="3.32459">
        <ele>94</ele>
        <time>2013-09-29T07:54:04.000Z</time>
      </trkpt>
      <trkpt lat="48.21205" lon="3.32457">
        <ele>94</ele>
        <time>2013-09-29T07:54:05.000Z</time>
      </trkpt>
      <trkpt lat="48.21208" lon="3.32457">
        <ele>94</ele>
        <time>2013-09-29T07:54:06.000Z</time>
      </trkpt>
      <trkpt lat="48.21212" lon="3.32454">
        <ele>94</ele>
        <time>2013-09-29T07:54:07.000Z</time>
      </trkpt>
      <trkpt lat="48.21214" lon="3.32452">
        <ele>94</ele>
        <time>2013-09-29T07:54:08.000Z</time>
      </trkpt>
      <trkpt lat="48.21217" lon="3.32452">
        <ele>94</ele>
        <time>2013-09-29T07:54:09.000Z</time>
      </trkpt>
      <trkpt lat="48.2122" lon="3.3245">
        <ele>95</ele>
        <time>2013-09-29T07:54:10.000Z</time>
      </trkpt>
      <trkpt lat="48.21222" lon="3.3245">
        <ele>95</ele>
        <time>2013-09-29T07:54:11.000Z</time>
      </trkpt>
      <trkpt lat="48.21226" lon="3.32448">
        <ele>95</ele>
        <time>2013-09-29T07:54:12.000Z</time>
      </trkpt>
      <trkpt lat="48.21228" lon="3.32448">
        <ele>95</ele>
        <time>2013-09-29T07:54:13.000Z</time>
      </trkpt>
      <trkpt lat="48.21231" lon="3.32448">
        <ele>95</ele>
        <time>2013-09-29T07:54:14.000Z</time>
      </trkpt>
      <trkpt lat="48.21234" lon="3.32446">
        <ele>95</ele>
        <time>2013-09-29T07:54:15.000Z</time>
      </trkpt>
      <trkpt lat="48.21236" lon="3.32446">
        <ele>95</ele>
        <time>2013-09-29T07:54:16.000Z</time>
      </trkpt>
      <trkpt lat="48.2124" lon="3.32446">
        <ele>95</ele>
        <time>2013-09-29T07:54:17.000Z</time>
      </trkpt>
      <trkpt lat="48.21243" lon="3.32446">
        <ele>95</ele>
        <time>2013-09-29T07:54:18.000Z</time>
      </trkpt>
      <trkpt lat="48.21245" lon="3.32444">
        <ele>95</ele>
        <time>2013-09-29T07:54:19.000Z</time>
      </trkpt>
      <trkpt lat="48.21248" lon="3.32444">
        <ele>95</ele>
        <time>2013-09-29T07:54:20.000Z</time>
      </trkpt>
      <trkpt lat="48.21251" lon="3.32444">
        <ele>97</ele>
        <time>2013-09-29T07:54:21.000Z</time>
      </trkpt>
      <trkpt lat="48.21254" lon="3.32444">
        <ele>97</ele>
        <time>2013-09-29T07:54:22.000Z</time>
      </trkpt>
      <trkpt lat="48.21257" lon="3.32444">
        <ele>97</ele>
        <time>2013-09-29T07:54:23.000Z</time>
      </trkpt>
      <trkpt lat="48.21261" lon="3.32444">
        <ele>97</ele>
        <time>2013-09-29T07:54:25.000Z</time>
      </trkpt>
      <trkpt lat="48.21263" lon="3.32442">
        <ele>98</ele>
        <time>2013-09-29T07:54:26.000Z</time>
      </trkpt>
      <trkpt lat="48.21265" lon="3.32442">
        <ele>98</ele>
        <time>2013-09-29T07:54:27.000Z</time>
      </trkpt>
      <trkpt lat="48.21269" lon="3.32442">
        <ele>98</ele>
        <time>2013-09-29T07:54:28.000Z</time>
      </trkpt>
      <trkpt lat="48.21271" lon="3.32442">
        <ele>98</ele>
        <time>2013-09-29T07:54:29.000Z</time>
      </trkpt>
      <trkpt lat="48.21273" lon="3.32439">
        <ele>98</ele>
        <time>2013-09-29T07:54:30.000Z</time>
      </trkpt>
      <trkpt lat="48.21277" lon="3.32439">
        <ele>98</ele>
        <time>2013-09-29T07:54:32.000Z</time>
      </trkpt>
      <trkpt lat="48.21279" lon="3.32439">
        <ele>98</ele>
        <time>2013-09-29T07:54:33.000Z</time>
      </trkpt>
      <trkpt lat="48.21281" lon="3.32437">
        <ele>98</ele>
        <time>2013-09-29T07:54:34.000Z</time>
      </trkpt>
      <trkpt lat="48.21285" lon="3.32437">
        <ele>98</ele>
        <time>2013-09-29T07:54:35.000Z</time>
      </trkpt>
      <trkpt lat="48.21287" lon="3.32437">
        <ele>98</ele>
        <time>2013-09-29T07:54:36.000Z</time>
      </trkpt>
      <trkpt lat="48.21289" lon="3.32435">
        <ele>98</ele>
        <time>2013-09-29T07:54:37.000Z</time>
      </trkpt>
      <trkpt lat="48.21293" lon="3.32435">
        <ele>99</ele>
        <time>2013-09-29T07:54:39.000Z</time>
      </trkpt>
      <trkpt lat="48.21295" lon="3.32435">
        <ele>99</ele>
        <time>2013-09-29T07:54:40.000Z</time>
      </trkpt>
      <trkpt lat="48.21298" lon="3.32433">
        <ele>99</ele>
        <time>2013-09-29T07:54:41.000Z</time>
      </trkpt>
      <trkpt lat="48.213" lon="3.32433">
        <ele>99</ele>
        <time>2013-09-29T07:54:42.000Z</time>
      </trkpt>
      <trkpt lat="48.21302" lon="3.32433">
        <ele>99</ele>
        <time>2013-09-29T07:54:43.000Z</time>
      </trkpt>
      <trkpt lat="48.21304" lon="3.32431">
        <ele>99</ele>
        <time>2013-09-29T07:54:44.000Z</time>
      </trkpt>
      <trkpt lat="48.21307" lon="3.32431">
        <ele>99</ele>
        <time>2013-09-29T07:54:45.000Z</time>
      </trkpt>
      <trkpt lat="48.21309" lon="3.32431">
        <ele>99</ele>
        <time>2013-09-29T07:54:46.000Z</time>
      </trkpt>
      <trkpt lat="48.21311" lon="3.32429">
        <ele>99</ele>
        <time>2013-09-29T07:54:47.000Z</time>
      </trkpt>
      <trkpt lat="48.21314" lon="3.32429">
        <ele>99</ele>
        <time>2013-09-29T07:54:48.000Z</time>
      </trkpt>
      <trkpt lat="48.21316" lon="3.32427">
        <ele>100</ele>
        <time>2013-09-29T07:54:49.000Z</time>
      </trkpt>
      <trkpt lat="48.21319" lon="3.32427">
        <ele>100</ele>
        <time>2013-09-29T07:54:50.000Z</time>
      </trkpt>
      <trkpt lat="48.21321" lon="3.32427">
        <ele>100</ele>
        <time>2013-09-29T07:54:51.000Z</time>
      </trkpt>
      <trkpt lat="48.21323" lon="3.32424">
        <ele>100</ele>
        <time>2013-09-29T07:54:52.000Z</time>
      </trkpt>
      <trkpt lat="48.21326" lon="3.32424">
        <ele>100</ele>
        <time>2013-09-29T07:54:53.000Z</time>
      </trkpt>
      <trkpt lat="48.21329" lon="3.32424">
        <ele>100</ele>
        <time>2013-09-29T07:54:54.000Z</time>
      </trkpt>
      <trkpt lat="48.21331" lon="3.32422">
        <ele>100</ele>
        <time>2013-09-29T07:54:55.000Z</time>
      </trkpt>
      <trkpt lat="48.21333" lon="3.32422">
        <ele>101</ele>
        <time>2013-09-29T07:54:56.000Z</time>
      </trkpt>
      <trkpt lat="48.21336" lon="3.3242">
        <ele>101</ele>
        <time>2013-09-29T07:54:57.000Z</time>
      </trkpt>
      <trkpt lat="48.21338" lon="3.3242">
        <ele>102</ele>
        <time>2013-09-29T07:54:58.000Z</time>
      </trkpt>
      <trkpt lat="48.21342" lon="3.32418">
        <ele>102</ele>
        <time>2013-09-29T07:54:59.000Z</time>
      </trkpt>
      <trkpt lat="48.21344" lon="3.32418">
        <ele>102</ele>
        <time>2013-09-29T07:55:00.000Z</time>
      </trkpt>
      <trkpt lat="48.21347" lon="3.32416">
        <ele>101</ele>
        <time>2013-09-29T07:55:01.000Z</time>
      </trkpt>
      <trkpt lat="48.21349" lon="3.32416">
        <ele>101</ele>
        <time>2013-09-29T07:55:02.000Z</time>
      </trkpt>
      <trkpt lat="48.21352" lon="3.32416">
        <ele>102</ele>
        <time>2013-09-29T07:55:03.000Z</time>
      </trkpt>
      <trkpt lat="48.21355" lon="3.32414">
        <ele>102</ele>
        <time>2013-09-29T07:55:04.000Z</time>
      </trkpt>
      <trkpt lat="48.21359" lon="3.32412">
        <ele>102</ele>
        <time>2013-09-29T07:55:05.000Z</time>
      </trkpt>
      <trkpt lat="48.21361" lon="3.32412">
        <ele>102</ele>
        <time>2013-09-29T07:55:06.000Z</time>
      </trkpt>
      <trkpt lat="48.21364" lon="3.32409">
        <ele>102</ele>
        <time>2013-09-29T07:55:07.000Z</time>
      </trkpt>
      <trkpt lat="48.21367" lon="3.32409">
        <ele>102</ele>
        <time>2013-09-29T07:55:08.000Z</time>
      </trkpt>
      <trkpt lat="48.2137" lon="3.32407">
        <ele>102</ele>
        <time>2013-09-29T07:55:09.000Z</time>
      </trkpt>
      <trkpt lat="48.21373" lon="3.32407">
        <ele>102</ele>
        <time>2013-09-29T07:55:10.000Z</time>
      </trkpt>
      <trkpt lat="48.21376" lon="3.32405">
        <ele>102</ele>
        <time>2013-09-29T07:55:11.000Z</time>
      </trkpt>
      <trkpt lat="48.21379" lon="3.32405">
        <ele>102</ele>
        <time>2013-09-29T07:55:12.000Z</time>
      </trkpt>
      <trkpt lat="48.21382" lon="3.32403">
        <ele>102</ele>
        <time>2013-09-29T07:55:13.000Z</time>
      </trkpt>
      <trkpt lat="48.21384" lon="3.32403">
        <ele>102</ele>
        <time>2013-09-29T07:55:14.000Z</time>
      </trkpt>
      <trkpt lat="48.21388" lon="3.32401">
        <ele>102</ele>
        <time>2013-09-29T07:55:15.000Z</time>
      </trkpt>
      <trkpt lat="48.21391" lon="3.32399">
        <ele>103</ele>
        <time>2013-09-29T07:55:16.000Z</time>
      </trkpt>
      <trkpt lat="48.21394" lon="3.32399">
        <ele>103</ele>
        <time>2013-09-29T07:55:17.000Z</time>
      </trkpt>
      <trkpt lat="48.21397" lon="3.32397">
        <ele>103</ele>
        <time>2013-09-29T07:55:18.000Z</time>
      </trkpt>
      <trkpt lat="48.21401" lon="3.32394">
        <ele>103</ele>
        <time>2013-09-29T07:55:19.000Z</time>
      </trkpt>
      <trkpt lat="48.21404" lon="3.32394">
        <ele>103</ele>
        <time>2013-09-29T07:55:20.000Z</time>
      </trkpt>
      <trkpt lat="48.21407" lon="3.32392">
        <ele>103</ele>
        <time>2013-09-29T07:55:21.000Z</time>
      </trkpt>
      <trkpt lat="48.2141" lon="3.32392">
        <ele>103</ele>
        <time>2013-09-29T07:55:22.000Z</time>
      </trkpt>
      <trkpt lat="48.21413" lon="3.3239">
        <ele>103</ele>
        <time>2013-09-29T07:55:23.000Z</time>
      </trkpt>
      <trkpt lat="48.21417" lon="3.32388">
        <ele>103</ele>
        <time>2013-09-29T07:55:24.000Z</time>
      </trkpt>
      <trkpt lat="48.21421" lon="3.32386">
        <ele>103</ele>
        <time>2013-09-29T07:55:25.000Z</time>
      </trkpt>
      <trkpt lat="48.21424" lon="3.32384">
        <ele>103</ele>
        <time>2013-09-29T07:55:26.000Z</time>
      </trkpt>
      <trkpt lat="48.21427" lon="3.32384">
        <ele>103</ele>
        <time>2013-09-29T07:55:27.000Z</time>
      </trkpt>
      <trkpt lat="48.21431" lon="3.32381">
        <ele>103</ele>
        <time>2013-09-29T07:55:28.000Z</time>
      </trkpt>
      <trkpt lat="48.21434" lon="3.32379">
        <ele>103</ele>
        <time>2013-09-29T07:55:29.000Z</time>
      </trkpt>
      <trkpt lat="48.21437" lon="3.32377">
        <ele>103</ele>
        <time>2013-09-29T07:55:30.000Z</time>
      </trkpt>
      <trkpt lat="48.21441" lon="3.32375">
        <ele>103</ele>
        <time>2013-09-29T07:55:31.000Z</time>
      </trkpt>
      <trkpt lat="48.21445" lon="3.32373">
        <ele>103</ele>
        <time>2013-09-29T07:55:32.000Z</time>
      </trkpt>
      <trkpt lat="48.21449" lon="3.32371">
        <ele>103</ele>
        <time>2013-09-29T07:55:33.000Z</time>
      </trkpt>
      <trkpt lat="48.21452" lon="3.32369">
        <ele>103</ele>
        <time>2013-09-29T07:55:34.000Z</time>
      </trkpt>
      <trkpt lat="48.21456" lon="3.32366">
        <ele>103</ele>
        <time>2013-09-29T07:55:35.000Z</time>
      </trkpt>
      <trkpt lat="48.2146" lon="3.32364">
        <ele>103</ele>
        <time>2013-09-29T07:55:36.000Z</time>
      </trkpt>
      <trkpt lat="48.21464" lon="3.3236">
        <ele>103</ele>
        <time>2013-09-29T07:55:37.000Z</time>
      </trkpt>
      <trkpt lat="48.21467" lon="3.32358">
        <ele>103</ele>
        <time>2013-09-29T07:55:38.000Z</time>
      </trkpt>
      <trkpt lat="48.21471" lon="3.32356">
        <ele>102</ele>
        <time>2013-09-29T07:55:39.000Z</time>
      </trkpt>
      <trkpt lat="48.21476" lon="3.32354">
        <ele>102</ele>
        <time>2013-09-29T07:55:40.000Z</time>
      </trkpt>
      <trkpt lat="48.21479" lon="3.32354">
        <ele>102</ele>
        <time>2013-09-29T07:55:41.000Z</time>
      </trkpt>
      <trkpt lat="48.21483" lon="3.32351">
        <ele>102</ele>
        <time>2013-09-29T07:55:42.000Z</time>
      </trkpt>
      <trkpt lat="48.21487" lon="3.32349">
        <ele>102</ele>
        <time>2013-09-29T07:55:43.000Z</time>
      </trkpt>
      <trkpt lat="48.21492" lon="3.32347">
        <ele>102</ele>
        <time>2013-09-29T07:55:44.000Z</time>
      </trkpt>
      <trkpt lat="48.21496" lon="3.32345">
        <ele>102</ele>
        <time>2013-09-29T07:55:45.000Z</time>
      </trkpt>
      <trkpt lat="48.21499" lon="3.32343">
        <ele>102</ele>
        <time>2013-09-29T07:55:46.000Z</time>
      </trkpt>
      <trkpt lat="48.21504" lon="3.32339">
        <ele>102</ele>
        <time>2013-09-29T07:55:47.000Z</time>
      </trkpt>
      <trkpt lat="48.21508" lon="3.32336">
        <ele>102</ele>
        <time>2013-09-29T07:55:48.000Z</time>
      </trkpt>
      <trkpt lat="48.21512" lon="3.32334">
        <ele>102</ele>
        <time>2013-09-29T07:55:49.000Z</time>
      </trkpt>
      <trkpt lat="48.21517" lon="3.32332">
        <ele>101</ele>
        <time>2013-09-29T07:55:50.000Z</time>
      </trkpt>
      <trkpt lat="48.21522" lon="3.3233">
        <ele>101</ele>
        <time>2013-09-29T07:55:51.000Z</time>
      </trkpt>
      <trkpt lat="48.21527" lon="3.32326">
        <ele>101</ele>
        <time>2013-09-29T07:55:52.000Z</time>
      </trkpt>
      <trkpt lat="48.21531" lon="3.32324">
        <ele>101</ele>
        <time>2013-09-29T07:55:53.000Z</time>
      </trkpt>
      <trkpt lat="48.21536" lon="3.32321">
        <ele>101</ele>
        <time>2013-09-29T07:55:54.000Z</time>
      </trkpt>
      <trkpt lat="48.21541" lon="3.32319">
        <ele>101</ele>
        <time>2013-09-29T07:55:55.000Z</time>
      </trkpt>
      <trkpt lat="48.21545" lon="3.32317">
        <ele>101</ele>
        <time>2013-09-29T07:55:56.000Z</time>
      </trkpt>
      <trkpt lat="48.2155" lon="3.32315">
        <ele>102</ele>
        <time>2013-09-29T07:55:57.000Z</time>
      </trkpt>
      <trkpt lat="48.21555" lon="3.32313">
        <ele>102</ele>
        <time>2013-09-29T07:55:58.000Z</time>
      </trkpt>
      <trkpt lat="48.21559" lon="3.32313">
        <ele>102</ele>
        <time>2013-09-29T07:55:59.000Z</time>
      </trkpt>
      <trkpt lat="48.21565" lon="3.32313">
        <ele>102</ele>
        <time>2013-09-29T07:56:00.000Z</time>
      </trkpt>
      <trkpt lat="48.21569" lon="3.32311">
        <ele>102</ele>
        <time>2013-09-29T07:56:01.000Z</time>
      </trkpt>
      <trkpt lat="48.21574" lon="3.32313">
        <ele>102</ele>
        <time>2013-09-29T07:56:02.000Z</time>
      </trkpt>
      <trkpt lat="48.2158" lon="3.32313">
        <ele>102</ele>
        <time>2013-09-29T07:56:03.000Z</time>
      </trkpt>
      <trkpt lat="48.21584" lon="3.32313">
        <ele>103</ele>
        <time>2013-09-29T07:56:04.000Z</time>
      </trkpt>
      <trkpt lat="48.21589" lon="3.32315">
        <ele>103</ele>
        <time>2013-09-29T07:56:05.000Z</time>
      </trkpt>
      <trkpt lat="48.21595" lon="3.32315">
        <ele>103</ele>
        <time>2013-09-29T07:56:06.000Z</time>
      </trkpt>
      <trkpt lat="48.21599" lon="3.32317">
        <ele>103</ele>
        <time>2013-09-29T07:56:07.000Z</time>
      </trkpt>
      <trkpt lat="48.21604" lon="3.32317">
        <ele>103</ele>
        <time>2013-09-29T07:56:08.000Z</time>
      </trkpt>
      <trkpt lat="48.21609" lon="3.32319">
        <ele>103</ele>
        <time>2013-09-29T07:56:09.000Z</time>
      </trkpt>
      <trkpt lat="48.21613" lon="3.32321">
        <ele>103</ele>
        <time>2013-09-29T07:56:10.000Z</time>
      </trkpt>
      <trkpt lat="48.21618" lon="3.32324">
        <ele>103</ele>
        <time>2013-09-29T07:56:11.000Z</time>
      </trkpt>
      <trkpt lat="48.21623" lon="3.32326">
        <ele>103</ele>
        <time>2013-09-29T07:56:12.000Z</time>
      </trkpt>
      <trkpt lat="48.21628" lon="3.32328">
        <ele>103</ele>
        <time>2013-09-29T07:56:13.000Z</time>
      </trkpt>
      <trkpt lat="48.21632" lon="3.3233">
        <ele>103</ele>
        <time>2013-09-29T07:56:14.000Z</time>
      </trkpt>
      <trkpt lat="48.21637" lon="3.32332">
        <ele>103</ele>
        <time>2013-09-29T07:56:15.000Z</time>
      </trkpt>
      <trkpt lat="48.21641" lon="3.32334">
        <ele>104</ele>
        <time>2013-09-29T07:56:16.000Z</time>
      </trkpt>
      <trkpt lat="48.21646" lon="3.32336">
        <ele>104</ele>
        <time>2013-09-29T07:56:17.000Z</time>
      </trkpt>
      <trkpt lat="48.21651" lon="3.32339">
        <ele>104</ele>
        <time>2013-09-29T07:56:18.000Z</time>
      </trkpt>
      <trkpt lat="48.21655" lon="3.32341">
        <ele>104</ele>
        <time>2013-09-29T07:56:19.000Z</time>
      </trkpt>
      <trkpt lat="48.21659" lon="3.32341">
        <ele>104</ele>
        <time>2013-09-29T07:56:20.000Z</time>
      </trkpt>
      <trkpt lat="48.21662" lon="3.32343">
        <ele>104</ele>
        <time>2013-09-29T07:56:21.000Z</time>
      </trkpt>
      <trkpt lat="48.21667" lon="3.32345">
        <ele>104</ele>
        <time>2013-09-29T07:56:22.000Z</time>
      </trkpt>
      <trkpt lat="48.2167" lon="3.32347">
        <ele>105</ele>
        <time>2013-09-29T07:56:23.000Z</time>
      </trkpt>
      <trkpt lat="48.21673" lon="3.32351">
        <ele>105</ele>
        <time>2013-09-29T07:56:24.000Z</time>
      </trkpt>
      <trkpt lat="48.21676" lon="3.32356">
        <ele>105</ele>
        <time>2013-09-29T07:56:25.000Z</time>
      </trkpt>
      <trkpt lat="48.21678" lon="3.3236">
        <ele>105</ele>
        <time>2013-09-29T07:56:26.000Z</time>
      </trkpt>
      <trkpt lat="48.21681" lon="3.32364">
        <ele>105</ele>
        <time>2013-09-29T07:56:27.000Z</time>
      </trkpt>
      <trkpt lat="48.21682" lon="3.32371">
        <ele>105</ele>
        <time>2013-09-29T07:56:28.000Z</time>
      </trkpt>
      <trkpt lat="48.21684" lon="3.32375">
        <ele>105</ele>
        <time>2013-09-29T07:56:29.000Z</time>
      </trkpt>
      <trkpt lat="48.21684" lon="3.32381">
        <ele>105</ele>
        <time>2013-09-29T07:56:30.000Z</time>
      </trkpt>
      <trkpt lat="48.21685" lon="3.32388">
        <ele>105</ele>
        <time>2013-09-29T07:56:31.000Z</time>
      </trkpt>
      <trkpt lat="48.21685" lon="3.32394">
        <ele>105</ele>
        <time>2013-09-29T07:56:32.000Z</time>
      </trkpt>
      <trkpt lat="48.21686" lon="3.32399">
        <ele>105</ele>
        <time>2013-09-29T07:56:33.000Z</time>
      </trkpt>
      <trkpt lat="48.21686" lon="3.32405">
        <ele>106</ele>
        <time>2013-09-29T07:56:34.000Z</time>
      </trkpt>
      <trkpt lat="48.21687" lon="3.32412">
        <ele>106</ele>
        <time>2013-09-29T07:56:35.000Z</time>
      </trkpt>
      <trkpt lat="48.21688" lon="3.32416">
        <ele>106</ele>
        <time>2013-09-29T07:56:36.000Z</time>
      </trkpt>
      <trkpt lat="48.21688" lon="3.32422">
        <ele>107</ele>
        <time>2013-09-29T07:56:37.000Z</time>
      </trkpt>
      <trkpt lat="48.21689" lon="3.32429">
        <ele>107</ele>
        <time>2013-09-29T07:56:38.000Z</time>
      </trkpt>
      <trkpt lat="48.2169" lon="3.32433">
        <ele>107</ele>
        <time>2013-09-29T07:56:39.000Z</time>
      </trkpt>
      <trkpt lat="48.2169" lon="3.32439">
        <ele>107</ele>
        <time>2013-09-29T07:56:40.000Z</time>
      </trkpt>
      <trkpt lat="48.21691" lon="3.32444">
        <ele>107</ele>
        <time>2013-09-29T07:56:41.000Z</time>
      </trkpt>
      <trkpt lat="48.21692" lon="3.3245">
        <ele>107</ele>
        <time>2013-09-29T07:56:42.000Z</time>
      </trkpt>
      <trkpt lat="48.21693" lon="3.32454">
        <ele>107</ele>
        <time>2013-09-29T07:56:43.000Z</time>
      </trkpt>
      <trkpt lat="48.21694" lon="3.32461">
        <ele>107</ele>
        <time>2013-09-29T07:56:44.000Z</time>
      </trkpt>
      <trkpt lat="48.21696" lon="3.32465">
        <ele>107</ele>
        <time>2013-09-29T07:56:45.000Z</time>
      </trkpt>
      <trkpt lat="48.21697" lon="3.32472">
        <ele>107</ele>
        <time>2013-09-29T07:56:46.000Z</time>
      </trkpt>
      <trkpt lat="48.21698" lon="3.32476">
        <ele>107</ele>
        <time>2013-09-29T07:56:47.000Z</time>
      </trkpt>
      <trkpt lat="48.21699" lon="3.32482">
        <ele>107</ele>
        <time>2013-09-29T07:56:48.000Z</time>
      </trkpt>
      <trkpt lat="48.217" lon="3.32489">
        <ele>107</ele>
        <time>2013-09-29T07:56:49.000Z</time>
      </trkpt>
      <trkpt lat="48.21701" lon="3.32493">
        <ele>107</ele>
        <time>2013-09-29T07:56:50.000Z</time>
      </trkpt>
      <trkpt lat="48.21702" lon="3.325">
        <ele>107</ele>
        <time>2013-09-29T07:56:51.000Z</time>
      </trkpt>
      <trkpt lat="48.21704" lon="3.32504">
        <ele>109</ele>
        <time>2013-09-29T07:56:52.000Z</time>
      </trkpt>
      <trkpt lat="48.21705" lon="3.3251">
        <ele>109</ele>
        <time>2013-09-29T07:56:53.000Z</time>
      </trkpt>
      <trkpt lat="48.21706" lon="3.32517">
        <ele>109</ele>
        <time>2013-09-29T07:56:54.000Z</time>
      </trkpt>
      <trkpt lat="48.21708" lon="3.32521">
        <ele>109</ele>
        <time>2013-09-29T07:56:55.000Z</time>
      </trkpt>
      <trkpt lat="48.2171" lon="3.32525">
        <ele>109</ele>
        <time>2013-09-29T07:56:56.000Z</time>
      </trkpt>
      <trkpt lat="48.21712" lon="3.32532">
        <ele>109</ele>
        <time>2013-09-29T07:56:57.000Z</time>
      </trkpt>
      <trkpt lat="48.21713" lon="3.32536">
        <ele>109</ele>
        <time>2013-09-29T07:56:58.000Z</time>
      </trkpt>
      <trkpt lat="48.21714" lon="3.3254">
        <ele>109</ele>
        <time>2013-09-29T07:56:59.000Z</time>
      </trkpt>
      <trkpt lat="48.21715" lon="3.32547">
        <ele>109</ele>
        <time>2013-09-29T07:57:00.000Z</time>
      </trkpt>
      <trkpt lat="48.21717" lon="3.32551">
        <ele>109</ele>
        <time>2013-09-29T07:57:01.000Z</time>
      </trkpt>
      <trkpt lat="48.21718" lon="3.32555">
        <ele>110</ele>
        <time>2013-09-29T07:57:02.000Z</time>
      </trkpt>
      <trkpt lat="48.21719" lon="3.32562">
        <ele>110</ele>
        <time>2013-09-29T07:57:03.000Z</time>
      </trkpt>
      <trkpt lat="48.2172" lon="3.32566">
        <ele>110</ele>
        <time>2013-09-29T07:57:04.000Z</time>
      </trkpt>
      <trkpt lat="48.21721" lon="3.3257">
        <ele>110</ele>
        <time>2013-09-29T07:57:05.000Z</time>
      </trkpt>
      <trkpt lat="48.21723" lon="3.32577">
        <ele>110</ele>
        <time>2013-09-29T07:57:06.000Z</time>
      </trkpt>
      <trkpt lat="48.21725" lon="3.32581">
        <ele>110</ele>
        <time>2013-09-29T07:57:07.000Z</time>
      </trkpt>
      <trkpt lat="48.21726" lon="3.32585">
        <ele>111</ele>
        <time>2013-09-29T07:57:08.000Z</time>
      </trkpt>
      <trkpt lat="48.21727" lon="3.32592">
        <ele>112</ele>
        <time>2013-09-29T07:57:09.000Z</time>
      </trkpt>
      <trkpt lat="48.21729" lon="3.32596">
        <ele>112</ele>
        <time>2013-09-29T07:57:10.000Z</time>
      </trkpt>
      <trkpt lat="48.2173" lon="3.326">
        <ele>112</ele>
        <time>2013-09-29T07:57:11.000Z</time>
      </trkpt>
      <trkpt lat="48.21731" lon="3.32607">
        <ele>112</ele>
        <time>2013-09-29T07:57:12.000Z</time>
      </trkpt>
      <trkpt lat="48.21732" lon="3.32611">
        <ele>112</ele>
        <time>2013-09-29T07:57:13.000Z</time>
      </trkpt>
      <trkpt lat="48.21734" lon="3.32615">
        <ele>112</ele>
        <time>2013-09-29T07:57:14.000Z</time>
      </trkpt>
      <trkpt lat="48.21735" lon="3.32622">
        <ele>112</ele>
        <time>2013-09-29T07:57:15.000Z</time>
      </trkpt>
      <trkpt lat="48.21736" lon="3.32626">
        <ele>112</ele>
        <time>2013-09-29T07:57:16.000Z</time>
      </trkpt>
      <trkpt lat="48.21737" lon="3.3263">
        <ele>112</ele>
        <time>2013-09-29T07:57:17.000Z</time>
      </trkpt>
      <trkpt lat="48.21738" lon="3.32635">
        <ele>112</ele>
        <time>2013-09-29T07:57:18.000Z</time>
      </trkpt>
      <trkpt lat="48.21741" lon="3.32641">
        <ele>112</ele>
        <time>2013-09-29T07:57:19.000Z</time>
      </trkpt>
      <trkpt lat="48.21742" lon="3.32645">
        <ele>112</ele>
        <time>2013-09-29T07:57:20.000Z</time>
      </trkpt>
      <trkpt lat="48.21743" lon="3.3265">
        <ele>112</ele>
        <time>2013-09-29T07:57:21.000Z</time>
      </trkpt>
      <trkpt lat="48.21745" lon="3.32654">
        <ele>113</ele>
        <time>2013-09-29T07:57:22.000Z</time>
      </trkpt>
      <trkpt lat="48.21746" lon="3.32658">
        <ele>113</ele>
        <time>2013-09-29T07:57:23.000Z</time>
      </trkpt>
      <trkpt lat="48.21747" lon="3.32663">
        <ele>113</ele>
        <time>2013-09-29T07:57:24.000Z</time>
      </trkpt>
      <trkpt lat="48.21749" lon="3.32667">
        <ele>113</ele>
        <time>2013-09-29T07:57:25.000Z</time>
      </trkpt>
      <trkpt lat="48.2175" lon="3.32671">
        <ele>113</ele>
        <time>2013-09-29T07:57:26.000Z</time>
      </trkpt>
      <trkpt lat="48.21751" lon="3.32675">
        <ele>113</ele>
        <time>2013-09-29T07:57:27.000Z</time>
      </trkpt>
      <trkpt lat="48.21752" lon="3.3268">
        <ele>114</ele>
        <time>2013-09-29T07:57:28.000Z</time>
      </trkpt>
      <trkpt lat="48.21755" lon="3.32684">
        <ele>114</ele>
        <time>2013-09-29T07:57:29.000Z</time>
      </trkpt>
      <trkpt lat="48.21756" lon="3.32688">
        <ele>114</ele>
        <time>2013-09-29T07:57:30.000Z</time>
      </trkpt>
      <trkpt lat="48.21757" lon="3.32695">
        <ele>114</ele>
        <time>2013-09-29T07:57:31.000Z</time>
      </trkpt>
      <trkpt lat="48.21758" lon="3.32699">
        <ele>114</ele>
        <time>2013-09-29T07:57:32.000Z</time>
      </trkpt>
      <trkpt lat="48.21759" lon="3.32703">
        <ele>114</ele>
        <time>2013-09-29T07:57:33.000Z</time>
      </trkpt>
      <trkpt lat="48.2176" lon="3.32708">
        <ele>114</ele>
        <time>2013-09-29T07:57:34.000Z</time>
      </trkpt>
      <trkpt lat="48.21761" lon="3.32712">
        <ele>114</ele>
        <time>2013-09-29T07:57:35.000Z</time>
      </trkpt>
      <trkpt lat="48.21762" lon="3.32716">
        <ele>115</ele>
        <time>2013-09-29T07:57:36.000Z</time>
      </trkpt>
      <trkpt lat="48.21763" lon="3.32721">
        <ele>115</ele>
        <time>2013-09-29T07:57:37.000Z</time>
      </trkpt>
      <trkpt lat="48.21764" lon="3.32725">
        <ele>115</ele>
        <time>2013-09-29T07:57:38.000Z</time>
      </trkpt>
      <trkpt lat="48.21765" lon="3.32729">
        <ele>115</ele>
        <time>2013-09-29T07:57:39.000Z</time>
      </trkpt>
      <trkpt lat="48.21766" lon="3.32733">
        <ele>115</ele>
        <time>2013-09-29T07:57:40.000Z</time>
      </trkpt>
      <trkpt lat="48.21767" lon="3.32738">
        <ele>115</ele>
        <time>2013-09-29T07:57:41.000Z</time>
      </trkpt>
      <trkpt lat="48.21767" lon="3.32742">
        <ele>115</ele>
        <time>2013-09-29T07:57:42.000Z</time>
      </trkpt>
      <trkpt lat="48.21767" lon="3.32746">
        <ele>115</ele>
        <time>2013-09-29T07:57:43.000Z</time>
      </trkpt>
      <trkpt lat="48.21769" lon="3.32751">
        <ele>117</ele>
        <time>2013-09-29T07:57:44.000Z</time>
      </trkpt>
      <trkpt lat="48.2177" lon="3.32755">
        <ele>117</ele>
        <time>2013-09-29T07:57:45.000Z</time>
      </trkpt>
      <trkpt lat="48.21771" lon="3.32759">
        <ele>117</ele>
        <time>2013-09-29T07:57:46.000Z</time>
      </trkpt>
      <trkpt lat="48.21772" lon="3.32763">
        <ele>117</ele>
        <time>2013-09-29T07:57:47.000Z</time>
      </trkpt>
      <trkpt lat="48.21773" lon="3.32768">
        <ele>117</ele>
        <time>2013-09-29T07:57:48.000Z</time>
      </trkpt>
      <trkpt lat="48.21774" lon="3.32772">
        <ele>117</ele>
        <time>2013-09-29T07:57:49.000Z</time>
      </trkpt>
      <trkpt lat="48.21775" lon="3.32776">
        <ele>117</ele>
        <time>2013-09-29T07:57:50.000Z</time>
      </trkpt>
      <trkpt lat="48.21776" lon="3.32781">
        <ele>117</ele>
        <time>2013-09-29T07:57:51.000Z</time>
      </trkpt>
      <trkpt lat="48.21776" lon="3.32785">
        <ele>117</ele>
        <time>2013-09-29T07:57:52.000Z</time>
      </trkpt>
      <trkpt lat="48.21777" lon="3.32789">
        <ele>117</ele>
        <time>2013-09-29T07:57:53.000Z</time>
      </trkpt>
      <trkpt lat="48.21778" lon="3.32793">
        <ele>118</ele>
        <time>2013-09-29T07:57:54.000Z</time>
      </trkpt>
      <trkpt lat="48.21779" lon="3.32798">
        <ele>118</ele>
        <time>2013-09-29T07:57:55.000Z</time>
      </trkpt>
      <trkpt lat="48.2178" lon="3.32802">
        <ele>118</ele>
        <time>2013-09-29T07:57:56.000Z</time>
      </trkpt>
      <trkpt lat="48.21781" lon="3.32806">
        <ele>118</ele>
        <time>2013-09-29T07:57:57.000Z</time>
      </trkpt>
      <trkpt lat="48.21782" lon="3.32811">
        <ele>118</ele>
        <time>2013-09-29T07:57:58.000Z</time>
      </trkpt>
      <trkpt lat="48.21785" lon="3.32815">
        <ele>118</ele>
        <time>2013-09-29T07:57:59.000Z</time>
      </trkpt>
      <trkpt lat="48.21786" lon="3.32819">
        <ele>118</ele>
        <time>2013-09-29T07:58:00.000Z</time>
      </trkpt>
      <trkpt lat="48.21787" lon="3.32824">
        <ele>118</ele>
        <time>2013-09-29T07:58:01.000Z</time>
      </trkpt>
      <trkpt lat="48.21789" lon="3.3283">
        <ele>118</ele>
        <time>2013-09-29T07:58:02.000Z</time>
      </trkpt>
      <trkpt lat="48.2179" lon="3.32834">
        <ele>120</ele>
        <time>2013-09-29T07:58:03.000Z</time>
      </trkpt>
      <trkpt lat="48.21791" lon="3.32839">
        <ele>120</ele>
        <time>2013-09-29T07:58:04.000Z</time>
      </trkpt>
      <trkpt lat="48.21793" lon="3.32843">
        <ele>120</ele>
        <time>2013-09-29T07:58:05.000Z</time>
      </trkpt>
      <trkpt lat="48.21794" lon="3.32847">
        <ele>120</ele>
        <time>2013-09-29T07:58:06.000Z</time>
      </trkpt>
      <trkpt lat="48.21795" lon="3.32851">
        <ele>120</ele>
        <time>2013-09-29T07:58:07.000Z</time>
      </trkpt>
      <trkpt lat="48.21797" lon="3.32856">
        <ele>120</ele>
        <time>2013-09-29T07:58:08.000Z</time>
      </trkpt>
      <trkpt lat="48.21799" lon="3.3286">
        <ele>120</ele>
        <time>2013-09-29T07:58:09.000Z</time>
      </trkpt>
      <trkpt lat="48.218" lon="3.32864">
        <ele>120</ele>
        <time>2013-09-29T07:58:10.000Z</time>
      </trkpt>
      <trkpt lat="48.21802" lon="3.32866">
        <ele>120</ele>
        <time>2013-09-29T07:58:11.000Z</time>
      </trkpt>
      <trkpt lat="48.21804" lon="3.32871">
        <ele>120</ele>
        <time>2013-09-29T07:58:12.000Z</time>
      </trkpt>
      <trkpt lat="48.21805" lon="3.32873">
        <ele>121</ele>
        <time>2013-09-29T07:58:13.000Z</time>
      </trkpt>
      <trkpt lat="48.21807" lon="3.32877">
        <ele>121</ele>
        <time>2013-09-29T07:58:14.000Z</time>
      </trkpt>
      <trkpt lat="48.21809" lon="3.32881">
        <ele>121</ele>
        <time>2013-09-29T07:58:15.000Z</time>
      </trkpt>
      <trkpt lat="48.21811" lon="3.32884">
        <ele>121</ele>
        <time>2013-09-29T07:58:16.000Z</time>
      </trkpt>
      <trkpt lat="48.21813" lon="3.32888">
        <ele>121</ele>
        <time>2013-09-29T07:58:17.000Z</time>
      </trkpt>
      <trkpt lat="48.21815" lon="3.3289">
        <ele>121</ele>
        <time>2013-09-29T07:58:18.000Z</time>
      </trkpt>
      <trkpt lat="48.21817" lon="3.32894">
        <ele>121</ele>
        <time>2013-09-29T07:58:19.000Z</time>
      </trkpt>
      <trkpt lat="48.21819" lon="3.32896">
        <ele>121</ele>
        <time>2013-09-29T07:58:20.000Z</time>
      </trkpt>
      <trkpt lat="48.21821" lon="3.32899">
        <ele>121</ele>
        <time>2013-09-29T07:58:21.000Z</time>
      </trkpt>
      <trkpt lat="48.21823" lon="3.32903">
        <ele>122</ele>
        <time>2013-09-29T07:58:22.000Z</time>
      </trkpt>
      <trkpt lat="48.21825" lon="3.32905">
        <ele>122</ele>
        <time>2013-09-29T07:58:23.000Z</time>
      </trkpt>
      <trkpt lat="48.21828" lon="3.32909">
        <ele>122</ele>
        <time>2013-09-29T07:58:24.000Z</time>
      </trkpt>
      <trkpt lat="48.2183" lon="3.32911">
        <ele>122</ele>
        <time>2013-09-29T07:58:25.000Z</time>
      </trkpt>
      <trkpt lat="48.21831" lon="3.32916">
        <ele>123</ele>
        <time>2013-09-29T07:58:26.000Z</time>
      </trkpt>
      <trkpt lat="48.21833" lon="3.32918">
        <ele>123</ele>
        <time>2013-09-29T07:58:27.000Z</time>
      </trkpt>
      <trkpt lat="48.21835" lon="3.32922">
        <ele>124</ele>
        <time>2013-09-29T07:58:28.000Z</time>
      </trkpt>
      <trkpt lat="48.21837" lon="3.32924">
        <ele>124</ele>
        <time>2013-09-29T07:58:29.000Z</time>
      </trkpt>
      <trkpt lat="48.21839" lon="3.32927">
        <ele>124</ele>
        <time>2013-09-29T07:58:30.000Z</time>
      </trkpt>
      <trkpt lat="48.21841" lon="3.32931">
        <ele>124</ele>
        <time>2013-09-29T07:58:31.000Z</time>
      </trkpt>
      <trkpt lat="48.21844" lon="3.32933">
        <ele>125</ele>
        <time>2013-09-29T07:58:32.000Z</time>
      </trkpt>
      <trkpt lat="48.21846" lon="3.32937">
        <ele>125</ele>
        <time>2013-09-29T07:58:33.000Z</time>
      </trkpt>
      <trkpt lat="48.21848" lon="3.32942">
        <ele>125</ele>
        <time>2013-09-29T07:58:34.000Z</time>
      </trkpt>
      <trkpt lat="48.21849" lon="3.32944">
        <ele>125</ele>
        <time>2013-09-29T07:58:35.000Z</time>
      </trkpt>
      <trkpt lat="48.21851" lon="3.32948">
        <ele>125</ele>
        <time>2013-09-29T07:58:36.000Z</time>
      </trkpt>
      <trkpt lat="48.21853" lon="3.3295">
        <ele>125</ele>
        <time>2013-09-29T07:58:37.000Z</time>
      </trkpt>
      <trkpt lat="48.21855" lon="3.32954">
        <ele>125</ele>
        <time>2013-09-29T07:58:38.000Z</time>
      </trkpt>
      <trkpt lat="48.21856" lon="3.32957">
        <ele>126</ele>
        <time>2013-09-29T07:58:39.000Z</time>
      </trkpt>
      <trkpt lat="48.21859" lon="3.32961">
        <ele>126</ele>
        <time>2013-09-29T07:58:40.000Z</time>
      </trkpt>
      <trkpt lat="48.21861" lon="3.32963">
        <ele>126</ele>
        <time>2013-09-29T07:58:41.000Z</time>
      </trkpt>
      <trkpt lat="48.21862" lon="3.32967">
        <ele>126</ele>
        <time>2013-09-29T07:58:42.000Z</time>
      </trkpt>
      <trkpt lat="48.21864" lon="3.32969">
        <ele>126</ele>
        <time>2013-09-29T07:58:43.000Z</time>
      </trkpt>
      <trkpt lat="48.21866" lon="3.32974">
        <ele>126</ele>
        <time>2013-09-29T07:58:44.000Z</time>
      </trkpt>
      <trkpt lat="48.21868" lon="3.32976">
        <ele>126</ele>
        <time>2013-09-29T07:58:45.000Z</time>
      </trkpt>
      <trkpt lat="48.21869" lon="3.3298">
        <ele>126</ele>
        <time>2013-09-29T07:58:46.000Z</time>
      </trkpt>
      <trkpt lat="48.21872" lon="3.32982">
        <ele>126</ele>
        <time>2013-09-29T07:58:47.000Z</time>
      </trkpt>
      <trkpt lat="48.21873" lon="3.32987">
        <ele>126</ele>
        <time>2013-09-29T07:58:48.000Z</time>
      </trkpt>
      <trkpt lat="48.21875" lon="3.32989">
        <ele>126</ele>
        <time>2013-09-29T07:58:49.000Z</time>
      </trkpt>
      <trkpt lat="48.21877" lon="3.32993">
        <ele>126</ele>
        <time>2013-09-29T07:58:50.000Z</time>
      </trkpt>
      <trkpt lat="48.21878" lon="3.32995">
        <ele>126</ele>
        <time>2013-09-29T07:58:51.000Z</time>
      </trkpt>
      <trkpt lat="48.2188" lon="3.32999">
        <ele>126</ele>
        <time>2013-09-29T07:58:52.000Z</time>
      </trkpt>
      <trkpt lat="48.21881" lon="3.33002">
        <ele>128</ele>
        <time>2013-09-29T07:58:53.000Z</time>
      </trkpt>
      <trkpt lat="48.21883" lon="3.33006">
        <ele>128</ele>
        <time>2013-09-29T07:58:54.000Z</time>
      </trkpt>
      <trkpt lat="48.21884" lon="3.3301">
        <ele>128</ele>
        <time>2013-09-29T07:58:55.000Z</time>
      </trkpt>
      <trkpt lat="48.21887" lon="3.33012">
        <ele>128</ele>
        <time>2013-09-29T07:58:56.000Z</time>
      </trkpt>
      <trkpt lat="48.21889" lon="3.33017">
        <ele>128</ele>
        <time>2013-09-29T07:58:57.000Z</time>
      </trkpt>
      <trkpt lat="48.2189" lon="3.33019">
        <ele>128</ele>
        <time>2013-09-29T07:58:58.000Z</time>
      </trkpt>
      <trkpt lat="48.21892" lon="3.33023">
        <ele>128</ele>
        <time>2013-09-29T07:58:59.000Z</time>
      </trkpt>
      <trkpt lat="48.21894" lon="3.33025">
        <ele>128</ele>
        <time>2013-09-29T07:59:00.000Z</time>
      </trkpt>
      <trkpt lat="48.21895" lon="3.3303">
        <ele>128</ele>
        <time>2013-09-29T07:59:01.000Z</time>
      </trkpt>
      <trkpt lat="48.21897" lon="3.33032">
        <ele>128</ele>
        <time>2013-09-29T07:59:02.000Z</time>
      </trkpt>
      <trkpt lat="48.21898" lon="3.33036">
        <ele>129</ele>
        <time>2013-09-29T07:59:03.000Z</time>
      </trkpt>
      <trkpt lat="48.219" lon="3.33038">
        <ele>129</ele>
        <time>2013-09-29T07:59:04.000Z</time>
      </trkpt>
      <trkpt lat="48.21903" lon="3.33042">
        <ele>129</ele>
        <time>2013-09-29T07:59:05.000Z</time>
      </trkpt>
      <trkpt lat="48.21904" lon="3.33045">
        <ele>129</ele>
        <time>2013-09-29T07:59:06.000Z</time>
      </trkpt>
      <trkpt lat="48.21906" lon="3.33049">
        <ele>129</ele>
        <time>2013-09-29T07:59:07.000Z</time>
      </trkpt>
      <trkpt lat="48.21907" lon="3.33053">
        <ele>129</ele>
        <time>2013-09-29T07:59:08.000Z</time>
      </trkpt>
      <trkpt lat="48.21909" lon="3.33055">
        <ele>129</ele>
        <time>2013-09-29T07:59:09.000Z</time>
      </trkpt>
      <trkpt lat="48.2191" lon="3.3306">
        <ele>129</ele>
        <time>2013-09-29T07:59:10.000Z</time>
      </trkpt>
      <trkpt lat="48.21911" lon="3.33062">
        <ele>129</ele>
        <time>2013-09-29T07:59:11.000Z</time>
      </trkpt>
      <trkpt lat="48.21913" lon="3.33066">
        <ele>129</ele>
        <time>2013-09-29T07:59:12.000Z</time>
      </trkpt>
      <trkpt lat="48.21914" lon="3.33068">
        <ele>129</ele>
        <time>2013-09-29T07:59:13.000Z</time>
      </trkpt>
      <trkpt lat="48.21917" lon="3.33072">
        <ele>129</ele>
        <time>2013-09-29T07:59:14.000Z</time>
      </trkpt>
      <trkpt lat="48.2192" lon="3.33077">
        <ele>130</ele>
        <time>2013-09-29T07:59:16.000Z</time>
      </trkpt>
      <trkpt lat="48.21922" lon="3.33081">
        <ele>130</ele>
        <time>2013-09-29T07:59:17.000Z</time>
      </trkpt>
      <trkpt lat="48.21924" lon="3.33083">
        <ele>130</ele>
        <time>2013-09-29T07:59:18.000Z</time>
      </trkpt>
      <trkpt lat="48.21926" lon="3.33087">
        <ele>130</ele>
        <time>2013-09-29T07:59:19.000Z</time>
      </trkpt>
      <trkpt lat="48.21928" lon="3.3309">
        <ele>131</ele>
        <time>2013-09-29T07:59:20.000Z</time>
      </trkpt>
      <trkpt lat="48.21931" lon="3.33094">
        <ele>131</ele>
        <time>2013-09-29T07:59:21.000Z</time>
      </trkpt>
      <trkpt lat="48.21933" lon="3.33096">
        <ele>131</ele>
        <time>2013-09-29T07:59:22.000Z</time>
      </trkpt>
      <trkpt lat="48.21934" lon="3.331">
        <ele>131</ele>
        <time>2013-09-29T07:59:23.000Z</time>
      </trkpt>
      <trkpt lat="48.21936" lon="3.33102">
        <ele>131</ele>
        <time>2013-09-29T07:59:24.000Z</time>
      </trkpt>
      <trkpt lat="48.21937" lon="3.33107">
        <ele>131</ele>
        <time>2013-09-29T07:59:25.000Z</time>
      </trkpt>
      <trkpt lat="48.21939" lon="3.33111">
        <ele>131</ele>
        <time>2013-09-29T07:59:26.000Z</time>
      </trkpt>
      <trkpt lat="48.2194" lon="3.33113">
        <ele>131</ele>
        <time>2013-09-29T07:59:27.000Z</time>
      </trkpt>
      <trkpt lat="48.21942" lon="3.33115">
        <ele>131</ele>
        <time>2013-09-29T07:59:28.000Z</time>
      </trkpt>
      <trkpt lat="48.21943" lon="3.3312">
        <ele>131</ele>
        <time>2013-09-29T07:59:29.000Z</time>
      </trkpt>
      <trkpt lat="48.21946" lon="3.33122">
        <ele>131</ele>
        <time>2013-09-29T07:59:30.000Z</time>
      </trkpt>
      <trkpt lat="48.21948" lon="3.33126">
        <ele>132</ele>
        <time>2013-09-29T07:59:31.000Z</time>
      </trkpt>
      <trkpt lat="48.21949" lon="3.33128">
        <ele>132</ele>
        <time>2013-09-29T07:59:32.000Z</time>
      </trkpt>
      <trkpt lat="48.21951" lon="3.33133">
        <ele>132</ele>
        <time>2013-09-29T07:59:33.000Z</time>
      </trkpt>
      <trkpt lat="48.21952" lon="3.33137">
        <ele>132</ele>
        <time>2013-09-29T07:59:34.000Z</time>
      </trkpt>
      <trkpt lat="48.21953" lon="3.33139">
        <ele>132</ele>
        <time>2013-09-29T07:59:35.000Z</time>
      </trkpt>
      <trkpt lat="48.21955" lon="3.33143">
        <ele>132</ele>
        <time>2013-09-29T07:59:36.000Z</time>
      </trkpt>
      <trkpt lat="48.21956" lon="3.33145">
        <ele>132</ele>
        <time>2013-09-29T07:59:37.000Z</time>
      </trkpt>
      <trkpt lat="48.21958" lon="3.3315">
        <ele>132</ele>
        <time>2013-09-29T07:59:38.000Z</time>
      </trkpt>
      <trkpt lat="48.21961" lon="3.33154">
        <ele>132</ele>
        <time>2013-09-29T07:59:39.000Z</time>
      </trkpt>
      <trkpt lat="48.21962" lon="3.33156">
        <ele>132</ele>
        <time>2013-09-29T07:59:40.000Z</time>
      </trkpt>
      <trkpt lat="48.21964" lon="3.3316">
        <ele>132</ele>
        <time>2013-09-29T07:59:41.000Z</time>
      </trkpt>
      <trkpt lat="48.21966" lon="3.33163">
        <ele>132</ele>
        <time>2013-09-29T07:59:42.000Z</time>
      </trkpt>
      <trkpt lat="48.21967" lon="3.33167">
        <ele>133</ele>
        <time>2013-09-29T07:59:43.000Z</time>
      </trkpt>
      <trkpt lat="48.21969" lon="3.33171">
        <ele>133</ele>
        <time>2013-09-29T07:59:44.000Z</time>
      </trkpt>
      <trkpt lat="48.2197" lon="3.33173">
        <ele>133</ele>
        <time>2013-09-29T07:59:45.000Z</time>
      </trkpt>
      <trkpt lat="48.21972" lon="3.33178">
        <ele>133</ele>
        <time>2013-09-29T07:59:46.000Z</time>
      </trkpt>
      <trkpt lat="48.21975" lon="3.33182">
        <ele>134</ele>
        <time>2013-09-29T07:59:47.000Z</time>
      </trkpt>
      <trkpt lat="48.21976" lon="3.33186">
        <ele>134</ele>
        <time>2013-09-29T07:59:48.000Z</time>
      </trkpt>
      <trkpt lat="48.21977" lon="3.3319">
        <ele>134</ele>
        <time>2013-09-29T07:59:49.000Z</time>
      </trkpt>
      <trkpt lat="48.21979" lon="3.33195">
        <ele>134</ele>
        <time>2013-09-29T07:59:50.000Z</time>
      </trkpt>
      <trkpt lat="48.2198" lon="3.33197">
        <ele>134</ele>
        <time>2013-09-29T07:59:51.000Z</time>
      </trkpt>
      <trkpt lat="48.21982" lon="3.33201">
        <ele>134</ele>
        <time>2013-09-29T07:59:52.000Z</time>
      </trkpt>
      <trkpt lat="48.21984" lon="3.33205">
        <ele>134</ele>
        <time>2013-09-29T07:59:53.000Z</time>
      </trkpt>
      <trkpt lat="48.21985" lon="3.3321">
        <ele>134</ele>
        <time>2013-09-29T07:59:54.000Z</time>
      </trkpt>
      <trkpt lat="48.21987" lon="3.33214">
        <ele>134</ele>
        <time>2013-09-29T07:59:55.000Z</time>
      </trkpt>
      <trkpt lat="48.21988" lon="3.33218">
        <ele>134</ele>
        <time>2013-09-29T07:59:56.000Z</time>
      </trkpt>
      <trkpt lat="48.21991" lon="3.33223">
        <ele>134</ele>
        <time>2013-09-29T07:59:57.000Z</time>
      </trkpt>
      <trkpt lat="48.21992" lon="3.33227">
        <ele>134</ele>
        <time>2013-09-29T07:59:58.000Z</time>
      </trkpt>
      <trkpt lat="48.21994" lon="3.33231">
        <ele>134</ele>
        <time>2013-09-29T07:59:59.000Z</time>
      </trkpt>
      <trkpt lat="48.21995" lon="3.33236">
        <ele>134</ele>
        <time>2013-09-29T08:00:00.000Z</time>
      </trkpt>
      <trkpt lat="48.21997" lon="3.33238">
        <ele>134</ele>
        <time>2013-09-29T08:00:01.000Z</time>
      </trkpt>
      <trkpt lat="48.21998" lon="3.33242">
        <ele>135</ele>
        <time>2013-09-29T08:00:02.000Z</time>
      </trkpt>
      <trkpt lat="48.21999" lon="3.33246">
        <ele>135</ele>
        <time>2013-09-29T08:00:03.000Z</time>
      </trkpt>
      <trkpt lat="48.22001" lon="3.33251">
        <ele>135</ele>
        <time>2013-09-29T08:00:04.000Z</time>
      </trkpt>
      <trkpt lat="48.22001" lon="3.33255">
        <ele>135</ele>
        <time>2013-09-29T08:00:05.000Z</time>
      </trkpt>
      <trkpt lat="48.22002" lon="3.33259">
        <ele>135</ele>
        <time>2013-09-29T08:00:06.000Z</time>
      </trkpt>
      <trkpt lat="48.22003" lon="3.33263">
        <ele>135</ele>
        <time>2013-09-29T08:00:07.000Z</time>
      </trkpt>
      <trkpt lat="48.22005" lon="3.33268">
        <ele>135</ele>
        <time>2013-09-29T08:00:08.000Z</time>
      </trkpt>
      <trkpt lat="48.22005" lon="3.33272">
        <ele>135</ele>
        <time>2013-09-29T08:00:09.000Z</time>
      </trkpt>
      <trkpt lat="48.22006" lon="3.33276">
        <ele>135</ele>
        <time>2013-09-29T08:00:10.000Z</time>
      </trkpt>
      <trkpt lat="48.22007" lon="3.33281">
        <ele>135</ele>
        <time>2013-09-29T08:00:11.000Z</time>
      </trkpt>
      <trkpt lat="48.22008" lon="3.33285">
        <ele>135</ele>
        <time>2013-09-29T08:00:12.000Z</time>
      </trkpt>
      <trkpt lat="48.22009" lon="3.33287">
        <ele>135</ele>
        <time>2013-09-29T08:00:13.000Z</time>
      </trkpt>
      <trkpt lat="48.2201" lon="3.33291">
        <ele>135</ele>
        <time>2013-09-29T08:00:14.000Z</time>
      </trkpt>
      <trkpt lat="48.22011" lon="3.33296">
        <ele>135</ele>
        <time>2013-09-29T08:00:15.000Z</time>
      </trkpt>
      <trkpt lat="48.22013" lon="3.333">
        <ele>135</ele>
        <time>2013-09-29T08:00:16.000Z</time>
      </trkpt>
      <trkpt lat="48.22014" lon="3.33304">
        <ele>135</ele>
        <time>2013-09-29T08:00:17.000Z</time>
      </trkpt>
      <trkpt lat="48.22015" lon="3.33308">
        <ele>135</ele>
        <time>2013-09-29T08:00:18.000Z</time>
      </trkpt>
      <trkpt lat="48.22016" lon="3.33313">
        <ele>135</ele>
        <time>2013-09-29T08:00:19.000Z</time>
      </trkpt>
      <trkpt lat="48.22019" lon="3.33315">
        <ele>135</ele>
        <time>2013-09-29T08:00:20.000Z</time>
      </trkpt>
      <trkpt lat="48.2202" lon="3.33319">
        <ele>135</ele>
        <time>2013-09-29T08:00:21.000Z</time>
      </trkpt>
      <trkpt lat="48.22021" lon="3.33323">
        <ele>135</ele>
        <time>2013-09-29T08:00:22.000Z</time>
      </trkpt>
      <trkpt lat="48.22023" lon="3.33326">
        <ele>135</ele>
        <time>2013-09-29T08:00:23.000Z</time>
      </trkpt>
      <trkpt lat="48.22024" lon="3.3333">
        <ele>135</ele>
        <time>2013-09-29T08:00:24.000Z</time>
      </trkpt>
      <trkpt lat="48.22025" lon="3.33334">
        <ele>136</ele>
        <time>2013-09-29T08:00:25.000Z</time>
      </trkpt>
      <trkpt lat="48.22026" lon="3.33338">
        <ele>136</ele>
        <time>2013-09-29T08:00:26.000Z</time>
      </trkpt>
      <trkpt lat="48.22027" lon="3.33341">
        <ele>136</ele>
        <time>2013-09-29T08:00:27.000Z</time>
      </trkpt>
      <trkpt lat="48.22028" lon="3.33345">
        <ele>136</ele>
        <time>2013-09-29T08:00:28.000Z</time>
      </trkpt>
      <trkpt lat="48.2203" lon="3.33349">
        <ele>136</ele>
        <time>2013-09-29T08:00:29.000Z</time>
      </trkpt>
      <trkpt lat="48.22031" lon="3.33354">
        <ele>136</ele>
        <time>2013-09-29T08:00:30.000Z</time>
      </trkpt>
      <trkpt lat="48.22032" lon="3.33358">
        <ele>136</ele>
        <time>2013-09-29T08:00:31.000Z</time>
      </trkpt>
      <trkpt lat="48.22034" lon="3.3336">
        <ele>136</ele>
        <time>2013-09-29T08:00:32.000Z</time>
      </trkpt>
      <trkpt lat="48.22035" lon="3.33364">
        <ele>136</ele>
        <time>2013-09-29T08:00:33.000Z</time>
      </trkpt>
      <trkpt lat="48.22036" lon="3.33369">
        <ele>136</ele>
        <time>2013-09-29T08:00:34.000Z</time>
      </trkpt>
      <trkpt lat="48.22037" lon="3.33373">
        <ele>136</ele>
        <time>2013-09-29T08:00:35.000Z</time>
      </trkpt>
      <trkpt lat="48.22039" lon="3.33375">
        <ele>136</ele>
        <time>2013-09-29T08:00:36.000Z</time>
      </trkpt>
      <trkpt lat="48.2204" lon="3.33379">
        <ele>136</ele>
        <time>2013-09-29T08:00:37.000Z</time>
      </trkpt>
      <trkpt lat="48.22041" lon="3.33384">
        <ele>136</ele>
        <time>2013-09-29T08:00:38.000Z</time>
      </trkpt>
      <trkpt lat="48.22042" lon="3.33386">
        <ele>136</ele>
        <time>2013-09-29T08:00:39.000Z</time>
      </trkpt>
      <trkpt lat="48.22044" lon="3.3339">
        <ele>136</ele>
        <time>2013-09-29T08:00:40.000Z</time>
      </trkpt>
      <trkpt lat="48.22045" lon="3.33394">
        <ele>137</ele>
        <time>2013-09-29T08:00:41.000Z</time>
      </trkpt>
      <trkpt lat="48.22046" lon="3.33396">
        <ele>137</ele>
        <time>2013-09-29T08:00:42.000Z</time>
      </trkpt>
      <trkpt lat="48.22047" lon="3.33401">
        <ele>137</ele>
        <time>2013-09-29T08:00:43.000Z</time>
      </trkpt>
      <trkpt lat="48.2205" lon="3.33405">
        <ele>137</ele>
        <time>2013-09-29T08:00:44.000Z</time>
      </trkpt>
      <trkpt lat="48.22051" lon="3.33407">
        <ele>137</ele>
        <time>2013-09-29T08:00:45.000Z</time>
      </trkpt>
      <trkpt lat="48.22053" lon="3.33411">
        <ele>137</ele>
        <time>2013-09-29T08:00:46.000Z</time>
      </trkpt>
      <trkpt lat="48.22054" lon="3.33416">
        <ele>137</ele>
        <time>2013-09-29T08:00:47.000Z</time>
      </trkpt>
      <trkpt lat="48.22056" lon="3.33418">
        <ele>138</ele>
        <time>2013-09-29T08:00:48.000Z</time>
      </trkpt>
      <trkpt lat="48.22057" lon="3.33422">
        <ele>138</ele>
        <time>2013-09-29T08:00:49.000Z</time>
      </trkpt>
      <trkpt lat="48.22059" lon="3.33424">
        <ele>138</ele>
        <time>2013-09-29T08:00:50.000Z</time>
      </trkpt>
      <trkpt lat="48.22061" lon="3.33429">
        <ele>138</ele>
        <time>2013-09-29T08:00:51.000Z</time>
      </trkpt>
      <trkpt lat="48.22062" lon="3.33433">
        <ele>138</ele>
        <time>2013-09-29T08:00:52.000Z</time>
      </trkpt>
      <trkpt lat="48.22065" lon="3.33437">
        <ele>138</ele>
        <time>2013-09-29T08:00:53.000Z</time>
      </trkpt>
      <trkpt lat="48.22066" lon="3.33439">
        <ele>138</ele>
        <time>2013-09-29T08:00:54.000Z</time>
      </trkpt>
      <trkpt lat="48.22068" lon="3.33444">
        <ele>138</ele>
        <time>2013-09-29T08:00:55.000Z</time>
      </trkpt>
      <trkpt lat="48.22069" lon="3.33448">
        <ele>138</ele>
        <time>2013-09-29T08:00:56.000Z</time>
      </trkpt>
      <trkpt lat="48.22071" lon="3.33452">
        <ele>138</ele>
        <time>2013-09-29T08:00:57.000Z</time>
      </trkpt>
      <trkpt lat="48.22073" lon="3.33454">
        <ele>138</ele>
        <time>2013-09-29T08:00:58.000Z</time>
      </trkpt>
      <trkpt lat="48.22074" lon="3.33459">
        <ele>139</ele>
        <time>2013-09-29T08:00:59.000Z</time>
      </trkpt>
      <trkpt lat="48.22076" lon="3.33463">
        <ele>139</ele>
        <time>2013-09-29T08:01:00.000Z</time>
      </trkpt>
      <trkpt lat="48.22079" lon="3.33465">
        <ele>139</ele>
        <time>2013-09-29T08:01:01.000Z</time>
      </trkpt>
      <trkpt lat="48.2208" lon="3.33469">
        <ele>139</ele>
        <time>2013-09-29T08:01:02.000Z</time>
      </trkpt>
      <trkpt lat="48.22082" lon="3.33474">
        <ele>139</ele>
        <time>2013-09-29T08:01:03.000Z</time>
      </trkpt>
      <trkpt lat="48.22083" lon="3.33476">
        <ele>139</ele>
        <time>2013-09-29T08:01:04.000Z</time>
      </trkpt>
      <trkpt lat="48.22085" lon="3.3348">
        <ele>140</ele>
        <time>2013-09-29T08:01:05.000Z</time>
      </trkpt>
      <trkpt lat="48.22087" lon="3.33484">
        <ele>140</ele>
        <time>2013-09-29T08:01:06.000Z</time>
      </trkpt>
      <trkpt lat="48.22088" lon="3.33487">
        <ele>140</ele>
        <time>2013-09-29T08:01:07.000Z</time>
      </trkpt>
      <trkpt lat="48.22089" lon="3.33491">
        <ele>140</ele>
        <time>2013-09-29T08:01:08.000Z</time>
      </trkpt>
      <trkpt lat="48.22091" lon="3.33495">
        <ele>141</ele>
        <time>2013-09-29T08:01:09.000Z</time>
      </trkpt>
      <trkpt lat="48.22093" lon="3.33497">
        <ele>141</ele>
        <time>2013-09-29T08:01:10.000Z</time>
      </trkpt>
      <trkpt lat="48.22095" lon="3.33502">
        <ele>142</ele>
        <time>2013-09-29T08:01:11.000Z</time>
      </trkpt>
      <trkpt lat="48.22096" lon="3.33506">
        <ele>142</ele>
        <time>2013-09-29T08:01:12.000Z</time>
      </trkpt>
      <trkpt lat="48.22097" lon="3.3351">
        <ele>142</ele>
        <time>2013-09-29T08:01:13.000Z</time>
      </trkpt>
      <trkpt lat="48.22099" lon="3.33512">
        <ele>143</ele>
        <time>2013-09-29T08:01:14.000Z</time>
      </trkpt>
      <trkpt lat="48.221" lon="3.33517">
        <ele>143</ele>
        <time>2013-09-29T08:01:15.000Z</time>
      </trkpt>
      <trkpt lat="48.22101" lon="3.33521">
        <ele>143</ele>
        <time>2013-09-29T08:01:16.000Z</time>
      </trkpt>
      <trkpt lat="48.22102" lon="3.33525">
        <ele>143</ele>
        <time>2013-09-29T08:01:17.000Z</time>
      </trkpt>
      <trkpt lat="48.22104" lon="3.33527">
        <ele>143</ele>
        <time>2013-09-29T08:01:18.000Z</time>
      </trkpt>
      <trkpt lat="48.22105" lon="3.33532">
        <ele>143</ele>
        <time>2013-09-29T08:01:19.000Z</time>
      </trkpt>
      <trkpt lat="48.22106" lon="3.33536">
        <ele>144</ele>
        <time>2013-09-29T08:01:20.000Z</time>
      </trkpt>
      <trkpt lat="48.22109" lon="3.33538">
        <ele>144</ele>
        <time>2013-09-29T08:01:21.000Z</time>
      </trkpt>
      <trkpt lat="48.2211" lon="3.33542">
        <ele>144</ele>
        <time>2013-09-29T08:01:22.000Z</time>
      </trkpt>
      <trkpt lat="48.22111" lon="3.33547">
        <ele>144</ele>
        <time>2013-09-29T08:01:23.000Z</time>
      </trkpt>
      <trkpt lat="48.22113" lon="3.33549">
        <ele>144</ele>
        <time>2013-09-29T08:01:24.000Z</time>
      </trkpt>
      <trkpt lat="48.22114" lon="3.33553">
        <ele>144</ele>
        <time>2013-09-29T08:01:25.000Z</time>
      </trkpt>
      <trkpt lat="48.22115" lon="3.33557">
        <ele>144</ele>
        <time>2013-09-29T08:01:26.000Z</time>
      </trkpt>
      <trkpt lat="48.22116" lon="3.3356">
        <ele>145</ele>
        <time>2013-09-29T08:01:27.000Z</time>
      </trkpt>
      <trkpt lat="48.22117" lon="3.33564">
        <ele>145</ele>
        <time>2013-09-29T08:01:28.000Z</time>
      </trkpt>
      <trkpt lat="48.22119" lon="3.33568">
        <ele>145</ele>
        <time>2013-09-29T08:01:29.000Z</time>
      </trkpt>
      <trkpt lat="48.2212" lon="3.3357">
        <ele>145</ele>
        <time>2013-09-29T08:01:30.000Z</time>
      </trkpt>
      <trkpt lat="48.22122" lon="3.33575">
        <ele>145</ele>
        <time>2013-09-29T08:01:31.000Z</time>
      </trkpt>
      <trkpt lat="48.22124" lon="3.33579">
        <ele>145</ele>
        <time>2013-09-29T08:01:32.000Z</time>
      </trkpt>
      <trkpt lat="48.22125" lon="3.33581">
        <ele>145</ele>
        <time>2013-09-29T08:01:33.000Z</time>
      </trkpt>
      <trkpt lat="48.22126" lon="3.33585">
        <ele>148</ele>
        <time>2013-09-29T08:01:34.000Z</time>
      </trkpt>
      <trkpt lat="48.22128" lon="3.33587">
        <ele>148</ele>
        <time>2013-09-29T08:01:35.000Z</time>
      </trkpt>
      <trkpt lat="48.22129" lon="3.33592">
        <ele>148</ele>
        <time>2013-09-29T08:01:36.000Z</time>
      </trkpt>
      <trkpt lat="48.2213" lon="3.33596">
        <ele>148</ele>
        <time>2013-09-29T08:01:37.000Z</time>
      </trkpt>
      <trkpt lat="48.22132" lon="3.33598">
        <ele>149</ele>
        <time>2013-09-29T08:01:38.000Z</time>
      </trkpt>
      <trkpt lat="48.22133" lon="3.33602">
        <ele>149</ele>
        <time>2013-09-29T08:01:39.000Z</time>
      </trkpt>
      <trkpt lat="48.22134" lon="3.33605">
        <ele>149</ele>
        <time>2013-09-29T08:01:40.000Z</time>
      </trkpt>
      <trkpt lat="48.22135" lon="3.33609">
        <ele>149</ele>
        <time>2013-09-29T08:01:41.000Z</time>
      </trkpt>
      <trkpt lat="48.22137" lon="3.33611">
        <ele>149</ele>
        <time>2013-09-29T08:01:42.000Z</time>
      </trkpt>
      <trkpt lat="48.22138" lon="3.33615">
        <ele>149</ele>
        <time>2013-09-29T08:01:43.000Z</time>
      </trkpt>
      <trkpt lat="48.22139" lon="3.33617">
        <ele>149</ele>
        <time>2013-09-29T08:01:44.000Z</time>
      </trkpt>
      <trkpt lat="48.2214" lon="3.33622">
        <ele>149</ele>
        <time>2013-09-29T08:01:45.000Z</time>
      </trkpt>
      <trkpt lat="48.22142" lon="3.33626">
        <ele>149</ele>
        <time>2013-09-29T08:01:47.000Z</time>
      </trkpt>
      <trkpt lat="48.22143" lon="3.3363">
        <ele>149</ele>
        <time>2013-09-29T08:01:48.000Z</time>
      </trkpt>
      <trkpt lat="48.22144" lon="3.33637">
        <ele>150</ele>
        <time>2013-09-29T08:01:50.000Z</time>
      </trkpt>
      <trkpt lat="48.22145" lon="3.33639">
        <ele>150</ele>
        <time>2013-09-29T08:01:51.000Z</time>
      </trkpt>
      <trkpt lat="48.22146" lon="3.33643">
        <ele>150</ele>
        <time>2013-09-29T08:01:53.000Z</time>
      </trkpt>
      <trkpt lat="48.22147" lon="3.33647">
        <ele>150</ele>
        <time>2013-09-29T08:01:54.000Z</time>
      </trkpt>
      <trkpt lat="48.22148" lon="3.33652">
        <ele>150</ele>
        <time>2013-09-29T08:01:56.000Z</time>
      </trkpt>
      <trkpt lat="48.22149" lon="3.33654">
        <ele>150</ele>
        <time>2013-09-29T08:01:57.000Z</time>
      </trkpt>
      <trkpt lat="48.2215" lon="3.3366">
        <ele>151</ele>
        <time>2013-09-29T08:01:59.000Z</time>
      </trkpt>
      <trkpt lat="48.22152" lon="3.33663">
        <ele>151</ele>
        <time>2013-09-29T08:02:00.000Z</time>
      </trkpt>
      <trkpt lat="48.22153" lon="3.33665">
        <ele>151</ele>
        <time>2013-09-29T08:02:01.000Z</time>
      </trkpt>
      <trkpt lat="48.22154" lon="3.33669">
        <ele>153</ele>
        <time>2013-09-29T08:02:02.000Z</time>
      </trkpt>
      <trkpt lat="48.22156" lon="3.33673">
        <ele>153</ele>
        <time>2013-09-29T08:02:04.000Z</time>
      </trkpt>
      <trkpt lat="48.22156" lon="3.33675">
        <ele>153</ele>
        <time>2013-09-29T08:02:05.000Z</time>
      </trkpt>
      <trkpt lat="48.22157" lon="3.33678">
        <ele>153</ele>
        <time>2013-09-29T08:02:06.000Z</time>
      </trkpt>
      <trkpt lat="48.22158" lon="3.33682">
        <ele>153</ele>
        <time>2013-09-29T08:02:07.000Z</time>
      </trkpt>
      <trkpt lat="48.2216" lon="3.33686">
        <ele>153</ele>
        <time>2013-09-29T08:02:09.000Z</time>
      </trkpt>
      <trkpt lat="48.22161" lon="3.33688">
        <ele>153</ele>
        <time>2013-09-29T08:02:10.000Z</time>
      </trkpt>
      <trkpt lat="48.22162" lon="3.33695">
        <ele>154</ele>
        <time>2013-09-29T08:02:12.000Z</time>
      </trkpt>
      <trkpt lat="48.22162" lon="3.33697">
        <ele>154</ele>
        <time>2013-09-29T08:02:13.000Z</time>
      </trkpt>
      <trkpt lat="48.22163" lon="3.33701">
        <ele>154</ele>
        <time>2013-09-29T08:02:14.000Z</time>
      </trkpt>
      <trkpt lat="48.22164" lon="3.33703">
        <ele>154</ele>
        <time>2013-09-29T08:02:15.000Z</time>
      </trkpt>
      <trkpt lat="48.22167" lon="3.33708">
        <ele>154</ele>
        <time>2013-09-29T08:02:17.000Z</time>
      </trkpt>
      <trkpt lat="48.22167" lon="3.33712">
        <ele>154</ele>
        <time>2013-09-29T08:02:18.000Z</time>
      </trkpt>
      <trkpt lat="48.22169" lon="3.33716">
        <ele>156</ele>
        <time>2013-09-29T08:02:20.000Z</time>
      </trkpt>
      <trkpt lat="48.2217" lon="3.33718">
        <ele>156</ele>
        <time>2013-09-29T08:02:21.000Z</time>
      </trkpt>
      <trkpt lat="48.22171" lon="3.33723">
        <ele>156</ele>
        <time>2013-09-29T08:02:23.000Z</time>
      </trkpt>
      <trkpt lat="48.22172" lon="3.33725">
        <ele>156</ele>
        <time>2013-09-29T08:02:24.000Z</time>
      </trkpt>
      <trkpt lat="48.22173" lon="3.33729">
        <ele>156</ele>
        <time>2013-09-29T08:02:26.000Z</time>
      </trkpt>
      <trkpt lat="48.22174" lon="3.33731">
        <ele>157</ele>
        <time>2013-09-29T08:02:27.000Z</time>
      </trkpt>
      <trkpt lat="48.22176" lon="3.33735">
        <ele>157</ele>
        <time>2013-09-29T08:02:29.000Z</time>
      </trkpt>
      <trkpt lat="48.22176" lon="3.33738">
        <ele>157</ele>
        <time>2013-09-29T08:02:30.000Z</time>
      </trkpt>
      <trkpt lat="48.22178" lon="3.33742">
        <ele>157</ele>
        <time>2013-09-29T08:02:32.000Z</time>
      </trkpt>
      <trkpt lat="48.22179" lon="3.33744">
        <ele>157</ele>
        <time>2013-09-29T08:02:33.000Z</time>
      </trkpt>
      <trkpt lat="48.22181" lon="3.3375">
        <ele>160</ele>
        <time>2013-09-29T08:02:36.000Z</time>
      </trkpt>
      <trkpt lat="48.22182" lon="3.33753">
        <ele>160</ele>
        <time>2013-09-29T08:02:37.000Z</time>
      </trkpt>
      <trkpt lat="48.22183" lon="3.33757">
        <ele>160</ele>
        <time>2013-09-29T08:02:39.000Z</time>
      </trkpt>
      <trkpt lat="48.22184" lon="3.33759">
        <ele>160</ele>
        <time>2013-09-29T08:02:40.000Z</time>
      </trkpt>
      <trkpt lat="48.22185" lon="3.33763">
        <ele>161</ele>
        <time>2013-09-29T08:02:43.000Z</time>
      </trkpt>
      <trkpt lat="48.22186" lon="3.33766">
        <ele>161</ele>
        <time>2013-09-29T08:02:44.000Z</time>
      </trkpt>
      <trkpt lat="48.22187" lon="3.3377">
        <ele>161</ele>
        <time>2013-09-29T08:02:46.000Z</time>
      </trkpt>
      <trkpt lat="48.22188" lon="3.33772">
        <ele>161</ele>
        <time>2013-09-29T08:02:47.000Z</time>
      </trkpt>
      <trkpt lat="48.22189" lon="3.33778">
        <ele>162</ele>
        <time>2013-09-29T08:02:50.000Z</time>
      </trkpt>
      <trkpt lat="48.2219" lon="3.33781">
        <ele>162</ele>
        <time>2013-09-29T08:02:51.000Z</time>
      </trkpt>
      <trkpt lat="48.22191" lon="3.33785">
        <ele>162</ele>
        <time>2013-09-29T08:02:53.000Z</time>
      </trkpt>
      <trkpt lat="48.22192" lon="3.33787">
        <ele>162</ele>
        <time>2013-09-29T08:02:54.000Z</time>
      </trkpt>
      <trkpt lat="48.22193" lon="3.33791">
        <ele>162</ele>
        <time>2013-09-29T08:02:56.000Z</time>
      </trkpt>
      <trkpt lat="48.22194" lon="3.33793">
        <ele>162</ele>
        <time>2013-09-29T08:02:57.000Z</time>
      </trkpt>
      <trkpt lat="48.22197" lon="3.33798">
        <ele>163</ele>
        <time>2013-09-29T08:03:00.000Z</time>
      </trkpt>
      <trkpt lat="48.22197" lon="3.338">
        <ele>163</ele>
        <time>2013-09-29T08:03:01.000Z</time>
      </trkpt>
      <trkpt lat="48.22199" lon="3.33804">
        <ele>163</ele>
        <time>2013-09-29T08:03:03.000Z</time>
      </trkpt>
      <trkpt lat="48.22199" lon="3.33806">
        <ele>163</ele>
        <time>2013-09-29T08:03:04.000Z</time>
      </trkpt>
      <trkpt lat="48.22201" lon="3.33811">
        <ele>163</ele>
        <time>2013-09-29T08:03:07.000Z</time>
      </trkpt>
      <trkpt lat="48.22202" lon="3.33813">
        <ele>163</ele>
        <time>2013-09-29T08:03:08.000Z</time>
      </trkpt>
      <trkpt lat="48.22203" lon="3.33817">
        <ele>163</ele>
        <time>2013-09-29T08:03:10.000Z</time>
      </trkpt>
      <trkpt lat="48.22204" lon="3.33819">
        <ele>163</ele>
        <time>2013-09-29T08:03:11.000Z</time>
      </trkpt>
      <trkpt lat="48.22206" lon="3.33823">
        <ele>164</ele>
        <time>2013-09-29T08:03:14.000Z</time>
      </trkpt>
      <trkpt lat="48.22207" lon="3.33826">
        <ele>164</ele>
        <time>2013-09-29T08:03:15.000Z</time>
      </trkpt>
      <trkpt lat="48.22208" lon="3.3383">
        <ele>164</ele>
        <time>2013-09-29T08:03:17.000Z</time>
      </trkpt>
      <trkpt lat="48.22209" lon="3.33832">
        <ele>164</ele>
        <time>2013-09-29T08:03:18.000Z</time>
      </trkpt>
      <trkpt lat="48.22212" lon="3.33836">
        <ele>168</ele>
        <time>2013-09-29T08:03:21.000Z</time>
      </trkpt>
      <trkpt lat="48.22213" lon="3.33838">
        <ele>168</ele>
        <time>2013-09-29T08:03:22.000Z</time>
      </trkpt>
      <trkpt lat="48.22216" lon="3.33843">
        <ele>168</ele>
        <time>2013-09-29T08:03:25.000Z</time>
      </trkpt>
      <trkpt lat="48.22217" lon="3.33845">
        <ele>168</ele>
        <time>2013-09-29T08:03:26.000Z</time>
      </trkpt>
      <trkpt lat="48.22219" lon="3.33849">
        <ele>169</ele>
        <time>2013-09-29T08:03:29.000Z</time>
      </trkpt>
      <trkpt lat="48.2222" lon="3.33851">
        <ele>169</ele>
        <time>2013-09-29T08:03:30.000Z</time>
      </trkpt>
      <trkpt lat="48.22223" lon="3.33856">
        <ele>169</ele>
        <time>2013-09-29T08:03:33.000Z</time>
      </trkpt>
      <trkpt lat="48.22224" lon="3.33858">
        <ele>169</ele>
        <time>2013-09-29T08:03:34.000Z</time>
      </trkpt>
      <trkpt lat="48.22227" lon="3.33862">
        <ele>169</ele>
        <time>2013-09-29T08:03:37.000Z</time>
      </trkpt>
      <trkpt lat="48.22228" lon="3.33864">
        <ele>169</ele>
        <time>2013-09-29T08:03:38.000Z</time>
      </trkpt>
      <trkpt lat="48.2223" lon="3.33869">
        <ele>169</ele>
        <time>2013-09-29T08:03:40.000Z</time>
      </trkpt>
      <trkpt lat="48.22231" lon="3.33871">
        <ele>170</ele>
        <time>2013-09-29T08:03:41.000Z</time>
      </trkpt>
      <trkpt lat="48.22233" lon="3.33875">
        <ele>170</ele>
        <time>2013-09-29T08:03:44.000Z</time>
      </trkpt>
      <trkpt lat="48.22234" lon="3.33877">
        <ele>170</ele>
        <time>2013-09-29T08:03:45.000Z</time>
      </trkpt>
      <trkpt lat="48.22237" lon="3.33881">
        <ele>170</ele>
        <time>2013-09-29T08:03:48.000Z</time>
      </trkpt>
      <trkpt lat="48.22238" lon="3.33884">
        <ele>170</ele>
        <time>2013-09-29T08:03:49.000Z</time>
      </trkpt>
      <trkpt lat="48.2224" lon="3.33888">
        <ele>171</ele>
        <time>2013-09-29T08:03:51.000Z</time>
      </trkpt>
      <trkpt lat="48.22241" lon="3.3389">
        <ele>171</ele>
        <time>2013-09-29T08:03:52.000Z</time>
      </trkpt>
      <trkpt lat="48.22244" lon="3.33894">
        <ele>171</ele>
        <time>2013-09-29T08:03:55.000Z</time>
      </trkpt>
      <trkpt lat="48.22245" lon="3.33896">
        <ele>171</ele>
        <time>2013-09-29T08:03:56.000Z</time>
      </trkpt>
      <trkpt lat="48.22248" lon="3.33901">
        <ele>172</ele>
        <time>2013-09-29T08:03:59.000Z</time>
      </trkpt>
      <trkpt lat="48.22249" lon="3.33903">
        <ele>172</ele>
        <time>2013-09-29T08:04:00.000Z</time>
      </trkpt>
      <trkpt lat="48.22251" lon="3.33907">
        <ele>174</ele>
        <time>2013-09-29T08:04:02.000Z</time>
      </trkpt>
      <trkpt lat="48.22252" lon="3.33909">
        <ele>174</ele>
        <time>2013-09-29T08:04:03.000Z</time>
      </trkpt>
      <trkpt lat="48.22255" lon="3.33914">
        <ele>174</ele>
        <time>2013-09-29T08:04:05.000Z</time>
      </trkpt>
      <trkpt lat="48.22256" lon="3.33916">
        <ele>174</ele>
        <time>2013-09-29T08:04:06.000Z</time>
      </trkpt>
      <trkpt lat="48.22259" lon="3.3392">
        <ele>176</ele>
        <time>2013-09-29T08:04:09.000Z</time>
      </trkpt>
      <trkpt lat="48.2226" lon="3.33922">
        <ele>177</ele>
        <time>2013-09-29T08:04:10.000Z</time>
      </trkpt>
      <trkpt lat="48.22263" lon="3.33926">
        <ele>177</ele>
        <time>2013-09-29T08:04:13.000Z</time>
      </trkpt>
      <trkpt lat="48.22264" lon="3.33929">
        <ele>178</ele>
        <time>2013-09-29T08:04:14.000Z</time>
      </trkpt>
      <trkpt lat="48.22266" lon="3.33933">
        <ele>178</ele>
        <time>2013-09-29T08:04:16.000Z</time>
      </trkpt>
      <trkpt lat="48.22267" lon="3.33935">
        <ele>179</ele>
        <time>2013-09-29T08:04:17.000Z</time>
      </trkpt>
      <trkpt lat="48.22271" lon="3.33939">
        <ele>179</ele>
        <time>2013-09-29T08:04:20.000Z</time>
      </trkpt>
      <trkpt lat="48.22271" lon="3.33941">
        <ele>179</ele>
        <time>2013-09-29T08:04:21.000Z</time>
      </trkpt>
      <trkpt lat="48.22273" lon="3.33946">
        <ele>180</ele>
        <time>2013-09-29T08:04:23.000Z</time>
      </trkpt>
      <trkpt lat="48.22274" lon="3.33948">
        <ele>180</ele>
        <time>2013-09-29T08:04:24.000Z</time>
      </trkpt>
      <trkpt lat="48.22276" lon="3.33952">
        <ele>180</ele>
        <time>2013-09-29T08:04:27.000Z</time>
      </trkpt>
      <trkpt lat="48.22277" lon="3.33954">
        <ele>180</ele>
        <time>2013-09-29T08:04:28.000Z</time>
      </trkpt>
      <trkpt lat="48.22279" lon="3.33959">
        <ele>181</ele>
        <time>2013-09-29T08:04:30.000Z</time>
      </trkpt>
      <trkpt lat="48.2228" lon="3.33961">
        <ele>181</ele>
        <time>2013-09-29T08:04:31.000Z</time>
      </trkpt>
      <trkpt lat="48.22281" lon="3.33965">
        <ele>181</ele>
        <time>2013-09-29T08:04:33.000Z</time>
      </trkpt>
      <trkpt lat="48.22282" lon="3.33967">
        <ele>181</ele>
        <time>2013-09-29T08:04:34.000Z</time>
      </trkpt>
      <trkpt lat="48.22285" lon="3.33972">
        <ele>182</ele>
        <time>2013-09-29T08:04:37.000Z</time>
      </trkpt>
      <trkpt lat="48.22286" lon="3.33974">
        <ele>182</ele>
        <time>2013-09-29T08:04:38.000Z</time>
      </trkpt>
      <trkpt lat="48.22288" lon="3.33978">
        <ele>182</ele>
        <time>2013-09-29T08:04:40.000Z</time>
      </trkpt>
      <trkpt lat="48.22288" lon="3.3398">
        <ele>182</ele>
        <time>2013-09-29T08:04:41.000Z</time>
      </trkpt>
      <trkpt lat="48.2229" lon="3.33984">
        <ele>182</ele>
        <time>2013-09-29T08:04:43.000Z</time>
      </trkpt>
      <trkpt lat="48.2229" lon="3.33987">
        <ele>182</ele>
        <time>2013-09-29T08:04:44.000Z</time>
      </trkpt>
      <trkpt lat="48.22291" lon="3.33991">
        <ele>183</ele>
        <time>2013-09-29T08:04:46.000Z</time>
      </trkpt>
      <trkpt lat="48.22292" lon="3.33993">
        <ele>183</ele>
        <time>2013-09-29T08:04:47.000Z</time>
      </trkpt>
      <trkpt lat="48.22292" lon="3.33997">
        <ele>183</ele>
        <time>2013-09-29T08:04:49.000Z</time>
      </trkpt>
      <trkpt lat="48.22293" lon="3.34002">
        <ele>187</ele>
        <time>2013-09-29T08:04:50.000Z</time>
      </trkpt>
      <trkpt lat="48.22294" lon="3.34006">
        <ele>187</ele>
        <time>2013-09-29T08:04:53.000Z</time>
      </trkpt>
      <trkpt lat="48.22295" lon="3.34008">
        <ele>187</ele>
        <time>2013-09-29T08:04:54.000Z</time>
      </trkpt>
      <trkpt lat="48.22296" lon="3.34012">
        <ele>187</ele>
        <time>2013-09-29T08:04:56.000Z</time>
      </trkpt>
      <trkpt lat="48.22297" lon="3.34014">
        <ele>188</ele>
        <time>2013-09-29T08:04:57.000Z</time>
      </trkpt>
      <trkpt lat="48.22299" lon="3.34019">
        <ele>188</ele>
        <time>2013-09-29T08:04:59.000Z</time>
      </trkpt>
      <trkpt lat="48.223" lon="3.34021">
        <ele>188</ele>
        <time>2013-09-29T08:05:00.000Z</time>
      </trkpt>
      <trkpt lat="48.22301" lon="3.34027">
        <ele>188</ele>
        <time>2013-09-29T08:05:03.000Z</time>
      </trkpt>
      <trkpt lat="48.22302" lon="3.34029">
        <ele>188</ele>
        <time>2013-09-29T08:05:04.000Z</time>
      </trkpt>
      <trkpt lat="48.22303" lon="3.34034">
        <ele>188</ele>
        <time>2013-09-29T08:05:06.000Z</time>
      </trkpt>
      <trkpt lat="48.22304" lon="3.34036">
        <ele>188</ele>
        <time>2013-09-29T08:05:07.000Z</time>
      </trkpt>
      <trkpt lat="48.22304" lon="3.3404">
        <ele>188</ele>
        <time>2013-09-29T08:05:08.000Z</time>
      </trkpt>
      <trkpt lat="48.22305" lon="3.34042">
        <ele>189</ele>
        <time>2013-09-29T08:05:09.000Z</time>
      </trkpt>
      <trkpt lat="48.22306" lon="3.34047">
        <ele>189</ele>
        <time>2013-09-29T08:05:11.000Z</time>
      </trkpt>
      <trkpt lat="48.22307" lon="3.34049">
        <ele>189</ele>
        <time>2013-09-29T08:05:12.000Z</time>
      </trkpt>
      <trkpt lat="48.22308" lon="3.34055">
        <ele>189</ele>
        <time>2013-09-29T08:05:15.000Z</time>
      </trkpt>
      <trkpt lat="48.22309" lon="3.34057">
        <ele>189</ele>
        <time>2013-09-29T08:05:16.000Z</time>
      </trkpt>
      <trkpt lat="48.2231" lon="3.34062">
        <ele>190</ele>
        <time>2013-09-29T08:05:18.000Z</time>
      </trkpt>
      <trkpt lat="48.22311" lon="3.34064">
        <ele>190</ele>
        <time>2013-09-29T08:05:19.000Z</time>
      </trkpt>
      <trkpt lat="48.22312" lon="3.34068">
        <ele>190</ele>
        <time>2013-09-29T08:05:21.000Z</time>
      </trkpt>
      <trkpt lat="48.22314" lon="3.3407">
        <ele>190</ele>
        <time>2013-09-29T08:05:22.000Z</time>
      </trkpt>
      <trkpt lat="48.22315" lon="3.34074">
        <ele>191</ele>
        <time>2013-09-29T08:05:24.000Z</time>
      </trkpt>
      <trkpt lat="48.22316" lon="3.34077">
        <ele>191</ele>
        <time>2013-09-29T08:05:25.000Z</time>
      </trkpt>
      <trkpt lat="48.22317" lon="3.34081">
        <ele>191</ele>
        <time>2013-09-29T08:05:27.000Z</time>
      </trkpt>
      <trkpt lat="48.22318" lon="3.34083">
        <ele>191</ele>
        <time>2013-09-29T08:05:28.000Z</time>
      </trkpt>
      <trkpt lat="48.22319" lon="3.3409">
        <ele>193</ele>
        <time>2013-09-29T08:05:31.000Z</time>
      </trkpt>
      <trkpt lat="48.2232" lon="3.34092">
        <ele>193</ele>
        <time>2013-09-29T08:05:32.000Z</time>
      </trkpt>
      <trkpt lat="48.22321" lon="3.34096">
        <ele>193</ele>
        <time>2013-09-29T08:05:34.000Z</time>
      </trkpt>
      <trkpt lat="48.22322" lon="3.34098">
        <ele>193</ele>
        <time>2013-09-29T08:05:35.000Z</time>
      </trkpt>
      <trkpt lat="48.22323" lon="3.34105">
        <ele>193</ele>
        <time>2013-09-29T08:05:38.000Z</time>
      </trkpt>
      <trkpt lat="48.22324" lon="3.34107">
        <ele>193</ele>
        <time>2013-09-29T08:05:39.000Z</time>
      </trkpt>
      <trkpt lat="48.22325" lon="3.34111">
        <ele>193</ele>
        <time>2013-09-29T08:05:41.000Z</time>
      </trkpt>
      <trkpt lat="48.22326" lon="3.34113">
        <ele>193</ele>
        <time>2013-09-29T08:05:42.000Z</time>
      </trkpt>
      <trkpt lat="48.22327" lon="3.34117">
        <ele>193</ele>
        <time>2013-09-29T08:05:44.000Z</time>
      </trkpt>
      <trkpt lat="48.22329" lon="3.3412">
        <ele>193</ele>
        <time>2013-09-29T08:05:45.000Z</time>
      </trkpt>
      <trkpt lat="48.2233" lon="3.34124">
        <ele>193</ele>
        <time>2013-09-29T08:05:47.000Z</time>
      </trkpt>
      <trkpt lat="48.22331" lon="3.34126">
        <ele>193</ele>
        <time>2013-09-29T08:05:48.000Z</time>
      </trkpt>
      <trkpt lat="48.22332" lon="3.3413">
        <ele>194</ele>
        <time>2013-09-29T08:05:50.000Z</time>
      </trkpt>
      <trkpt lat="48.22333" lon="3.34132">
        <ele>194</ele>
        <time>2013-09-29T08:05:51.000Z</time>
      </trkpt>
      <trkpt lat="48.22333" lon="3.34139">
        <ele>194</ele>
        <time>2013-09-29T08:05:54.000Z</time>
      </trkpt>
      <trkpt lat="48.22333" lon="3.34143">
        <ele>194</ele>
        <time>2013-09-29T08:05:55.000Z</time>
      </trkpt>
      <trkpt lat="48.22333" lon="3.3415">
        <ele>195</ele>
        <time>2013-09-29T08:05:58.000Z</time>
      </trkpt>
      <trkpt lat="48.22333" lon="3.34154">
        <ele>195</ele>
        <time>2013-09-29T08:05:59.000Z</time>
      </trkpt>
      <trkpt lat="48.22334" lon="3.34158">
        <ele>196</ele>
        <time>2013-09-29T08:06:01.000Z</time>
      </trkpt>
      <trkpt lat="48.22334" lon="3.3416">
        <ele>197</ele>
        <time>2013-09-29T08:06:02.000Z</time>
      </trkpt>
      <trkpt lat="48.22335" lon="3.34167">
        <ele>197</ele>
        <time>2013-09-29T08:06:05.000Z</time>
      </trkpt>
      <trkpt lat="48.22335" lon="3.34169">
        <ele>197</ele>
        <time>2013-09-29T08:06:06.000Z</time>
      </trkpt>
      <trkpt lat="48.22336" lon="3.34173">
        <ele>197</ele>
        <time>2013-09-29T08:06:08.000Z</time>
      </trkpt>
      <trkpt lat="48.22336" lon="3.34177">
        <ele>197</ele>
        <time>2013-09-29T08:06:09.000Z</time>
      </trkpt>
      <trkpt lat="48.22337" lon="3.34182">
        <ele>198</ele>
        <time>2013-09-29T08:06:11.000Z</time>
      </trkpt>
      <trkpt lat="48.22337" lon="3.34184">
        <ele>198</ele>
        <time>2013-09-29T08:06:12.000Z</time>
      </trkpt>
      <trkpt lat="48.22338" lon="3.3419">
        <ele>198</ele>
        <time>2013-09-29T08:06:15.000Z</time>
      </trkpt>
      <trkpt lat="48.22339" lon="3.34193">
        <ele>198</ele>
        <time>2013-09-29T08:06:16.000Z</time>
      </trkpt>
      <trkpt lat="48.22339" lon="3.34199">
        <ele>198</ele>
        <time>2013-09-29T08:06:18.000Z</time>
      </trkpt>
      <trkpt lat="48.2234" lon="3.34201">
        <ele>198</ele>
        <time>2013-09-29T08:06:19.000Z</time>
      </trkpt>
      <trkpt lat="48.2234" lon="3.34208">
        <ele>198</ele>
        <time>2013-09-29T08:06:21.000Z</time>
      </trkpt>
      <trkpt lat="48.22341" lon="3.3421">
        <ele>198</ele>
        <time>2013-09-29T08:06:22.000Z</time>
      </trkpt>
      <trkpt lat="48.22341" lon="3.34214">
        <ele>198</ele>
        <time>2013-09-29T08:06:24.000Z</time>
      </trkpt>
      <trkpt lat="48.22343" lon="3.34218">
        <ele>198</ele>
        <time>2013-09-29T08:06:25.000Z</time>
      </trkpt>
      <trkpt lat="48.22344" lon="3.34223">
        <ele>198</ele>
        <time>2013-09-29T08:06:27.000Z</time>
      </trkpt>
      <trkpt lat="48.22345" lon="3.34227">
        <ele>198</ele>
        <time>2013-09-29T08:06:28.000Z</time>
      </trkpt>
      <trkpt lat="48.22346" lon="3.34233">
        <ele>198</ele>
        <time>2013-09-29T08:06:31.000Z</time>
      </trkpt>
      <trkpt lat="48.22347" lon="3.34238">
        <ele>198</ele>
        <time>2013-09-29T08:06:32.000Z</time>
      </trkpt>
      <trkpt lat="48.22348" lon="3.34242">
        <ele>198</ele>
        <time>2013-09-29T08:06:34.000Z</time>
      </trkpt>
      <trkpt lat="48.22349" lon="3.34244">
        <ele>198</ele>
        <time>2013-09-29T08:06:35.000Z</time>
      </trkpt>
      <trkpt lat="48.2235" lon="3.34248">
        <ele>198</ele>
        <time>2013-09-29T08:06:36.000Z</time>
      </trkpt>
      <trkpt lat="48.22351" lon="3.3425">
        <ele>199</ele>
        <time>2013-09-29T08:06:37.000Z</time>
      </trkpt>
      <trkpt lat="48.22353" lon="3.34255">
        <ele>200</ele>
        <time>2013-09-29T08:06:39.000Z</time>
      </trkpt>
      <trkpt lat="48.22354" lon="3.34259">
        <ele>200</ele>
        <time>2013-09-29T08:06:40.000Z</time>
      </trkpt>
      <trkpt lat="48.22358" lon="3.34263">
        <ele>200</ele>
        <time>2013-09-29T08:06:42.000Z</time>
      </trkpt>
      <trkpt lat="48.22359" lon="3.34265">
        <ele>200</ele>
        <time>2013-09-29T08:06:43.000Z</time>
      </trkpt>
      <trkpt lat="48.22362" lon="3.3427">
        <ele>200</ele>
        <time>2013-09-29T08:06:45.000Z</time>
      </trkpt>
      <trkpt lat="48.22363" lon="3.34272">
        <ele>200</ele>
        <time>2013-09-29T08:06:46.000Z</time>
      </trkpt>
      <trkpt lat="48.22364" lon="3.34276">
        <ele>200</ele>
        <time>2013-09-29T08:06:47.000Z</time>
      </trkpt>
      <trkpt lat="48.22365" lon="3.34278">
        <ele>200</ele>
        <time>2013-09-29T08:06:48.000Z</time>
      </trkpt>
      <trkpt lat="48.22367" lon="3.34283">
        <ele>200</ele>
        <time>2013-09-29T08:06:50.000Z</time>
      </trkpt>
      <trkpt lat="48.22369" lon="3.34287">
        <ele>201</ele>
        <time>2013-09-29T08:06:51.000Z</time>
      </trkpt>
      <trkpt lat="48.22371" lon="3.34291">
        <ele>201</ele>
        <time>2013-09-29T08:06:53.000Z</time>
      </trkpt>
      <trkpt lat="48.22374" lon="3.34293">
        <ele>201</ele>
        <time>2013-09-29T08:06:54.000Z</time>
      </trkpt>
      <trkpt lat="48.22377" lon="3.34298">
        <ele>201</ele>
        <time>2013-09-29T08:06:56.000Z</time>
      </trkpt>
      <trkpt lat="48.2238" lon="3.34302">
        <ele>201</ele>
        <time>2013-09-29T08:06:57.000Z</time>
      </trkpt>
      <trkpt lat="48.22382" lon="3.34304">
        <ele>201</ele>
        <time>2013-09-29T08:06:58.000Z</time>
      </trkpt>
      <trkpt lat="48.22384" lon="3.34306">
        <ele>201</ele>
        <time>2013-09-29T08:06:59.000Z</time>
      </trkpt>
      <trkpt lat="48.22387" lon="3.34311">
        <ele>201</ele>
        <time>2013-09-29T08:07:00.000Z</time>
      </trkpt>
      <trkpt lat="48.22389" lon="3.34313">
        <ele>201</ele>
        <time>2013-09-29T08:07:01.000Z</time>
      </trkpt>
      <trkpt lat="48.22391" lon="3.34317">
        <ele>202</ele>
        <time>2013-09-29T08:07:02.000Z</time>
      </trkpt>
      <trkpt lat="48.22394" lon="3.34321">
        <ele>202</ele>
        <time>2013-09-29T08:07:03.000Z</time>
      </trkpt>
      <trkpt lat="48.22396" lon="3.34326">
        <ele>202</ele>
        <time>2013-09-29T08:07:04.000Z</time>
      </trkpt>
      <trkpt lat="48.22399" lon="3.3433">
        <ele>202</ele>
        <time>2013-09-29T08:07:05.000Z</time>
      </trkpt>
      <trkpt lat="48.22402" lon="3.34334">
        <ele>203</ele>
        <time>2013-09-29T08:07:06.000Z</time>
      </trkpt>
      <trkpt lat="48.22405" lon="3.34338">
        <ele>203</ele>
        <time>2013-09-29T08:07:07.000Z</time>
      </trkpt>
      <trkpt lat="48.22407" lon="3.34343">
        <ele>203</ele>
        <time>2013-09-29T08:07:08.000Z</time>
      </trkpt>
      <trkpt lat="48.2241" lon="3.34347">
        <ele>203</ele>
        <time>2013-09-29T08:07:09.000Z</time>
      </trkpt>
      <trkpt lat="48.22412" lon="3.34351">
        <ele>203</ele>
        <time>2013-09-29T08:07:10.000Z</time>
      </trkpt>
      <trkpt lat="48.22415" lon="3.34356">
        <ele>203</ele>
        <time>2013-09-29T08:07:11.000Z</time>
      </trkpt>
      <trkpt lat="48.22418" lon="3.3436">
        <ele>204</ele>
        <time>2013-09-29T08:07:12.000Z</time>
      </trkpt>
      <trkpt lat="48.2242" lon="3.34362">
        <ele>204</ele>
        <time>2013-09-29T08:07:13.000Z</time>
      </trkpt>
      <trkpt lat="48.22423" lon="3.34366">
        <ele>204</ele>
        <time>2013-09-29T08:07:14.000Z</time>
      </trkpt>
      <trkpt lat="48.22425" lon="3.34368">
        <ele>203</ele>
        <time>2013-09-29T08:07:15.000Z</time>
      </trkpt>
      <trkpt lat="48.22427" lon="3.34373">
        <ele>203</ele>
        <time>2013-09-29T08:07:16.000Z</time>
      </trkpt>
      <trkpt lat="48.22429" lon="3.34377">
        <ele>203</ele>
        <time>2013-09-29T08:07:17.000Z</time>
      </trkpt>
      <trkpt lat="48.22432" lon="3.34381">
        <ele>203</ele>
        <time>2013-09-29T08:07:18.000Z</time>
      </trkpt>
      <trkpt lat="48.22434" lon="3.34386">
        <ele>204</ele>
        <time>2013-09-29T08:07:19.000Z</time>
      </trkpt>
      <trkpt lat="48.22436" lon="3.3439">
        <ele>204</ele>
        <time>2013-09-29T08:07:20.000Z</time>
      </trkpt>
      <trkpt lat="48.22438" lon="3.34394">
        <ele>204</ele>
        <time>2013-09-29T08:07:21.000Z</time>
      </trkpt>
      <trkpt lat="48.2244" lon="3.34399">
        <ele>204</ele>
        <time>2013-09-29T08:07:22.000Z</time>
      </trkpt>
      <trkpt lat="48.22441" lon="3.34403">
        <ele>204</ele>
        <time>2013-09-29T08:07:23.000Z</time>
      </trkpt>
      <trkpt lat="48.22443" lon="3.34407">
        <ele>204</ele>
        <time>2013-09-29T08:07:24.000Z</time>
      </trkpt>
      <trkpt lat="48.22444" lon="3.34409">
        <ele>204</ele>
        <time>2013-09-29T08:07:25.000Z</time>
      </trkpt>
      <trkpt lat="48.22446" lon="3.34416">
        <ele>204</ele>
        <time>2013-09-29T08:07:28.000Z</time>
      </trkpt>
      <trkpt lat="48.22447" lon="3.34418">
        <ele>205</ele>
        <time>2013-09-29T08:07:29.000Z</time>
      </trkpt>
      <trkpt lat="48.22449" lon="3.3442">
        <ele>205</ele>
        <time>2013-09-29T08:07:30.000Z</time>
      </trkpt>
      <trkpt lat="48.2245" lon="3.34424">
        <ele>205</ele>
        <time>2013-09-29T08:07:31.000Z</time>
      </trkpt>
      <trkpt lat="48.22452" lon="3.34426">
        <ele>205</ele>
        <time>2013-09-29T08:07:32.000Z</time>
      </trkpt>
      <trkpt lat="48.22453" lon="3.34431">
        <ele>205</ele>
        <time>2013-09-29T08:07:33.000Z</time>
      </trkpt>
      <trkpt lat="48.22455" lon="3.34435">
        <ele>205</ele>
        <time>2013-09-29T08:07:34.000Z</time>
      </trkpt>
      <trkpt lat="48.22457" lon="3.34437">
        <ele>205</ele>
        <time>2013-09-29T08:07:35.000Z</time>
      </trkpt>
      <trkpt lat="48.22459" lon="3.34441">
        <ele>205</ele>
        <time>2013-09-29T08:07:36.000Z</time>
      </trkpt>
      <trkpt lat="48.22463" lon="3.34446">
        <ele>205</ele>
        <time>2013-09-29T08:07:37.000Z</time>
      </trkpt>
      <trkpt lat="48.22465" lon="3.3445">
        <ele>205</ele>
        <time>2013-09-29T08:07:38.000Z</time>
      </trkpt>
      <trkpt lat="48.22468" lon="3.34454">
        <ele>205</ele>
        <time>2013-09-29T08:07:39.000Z</time>
      </trkpt>
      <trkpt lat="48.2247" lon="3.34456">
        <ele>205</ele>
        <time>2013-09-29T08:07:40.000Z</time>
      </trkpt>
      <trkpt lat="48.22472" lon="3.34461">
        <ele>205</ele>
        <time>2013-09-29T08:07:41.000Z</time>
      </trkpt>
      <trkpt lat="48.22476" lon="3.34465">
        <ele>205</ele>
        <time>2013-09-29T08:07:42.000Z</time>
      </trkpt>
      <trkpt lat="48.22478" lon="3.34467">
        <ele>205</ele>
        <time>2013-09-29T08:07:43.000Z</time>
      </trkpt>
      <trkpt lat="48.2248" lon="3.34471">
        <ele>205</ele>
        <time>2013-09-29T08:07:44.000Z</time>
      </trkpt>
      <trkpt lat="48.22483" lon="3.34474">
        <ele>205</ele>
        <time>2013-09-29T08:07:45.000Z</time>
      </trkpt>
      <trkpt lat="48.22485" lon="3.34476">
        <ele>206</ele>
        <time>2013-09-29T08:07:46.000Z</time>
      </trkpt>
      <trkpt lat="48.22488" lon="3.3448">
        <ele>206</ele>
        <time>2013-09-29T08:07:47.000Z</time>
      </trkpt>
      <trkpt lat="48.22491" lon="3.34482">
        <ele>206</ele>
        <time>2013-09-29T08:07:48.000Z</time>
      </trkpt>
      <trkpt lat="48.22493" lon="3.34486">
        <ele>206</ele>
        <time>2013-09-29T08:07:49.000Z</time>
      </trkpt>
      <trkpt lat="48.22495" lon="3.34489">
        <ele>206</ele>
        <time>2013-09-29T08:07:50.000Z</time>
      </trkpt>
      <trkpt lat="48.22497" lon="3.34493">
        <ele>206</ele>
        <time>2013-09-29T08:07:51.000Z</time>
      </trkpt>
      <trkpt lat="48.22499" lon="3.34495">
        <ele>207</ele>
        <time>2013-09-29T08:07:52.000Z</time>
      </trkpt>
      <trkpt lat="48.22501" lon="3.34497">
        <ele>207</ele>
        <time>2013-09-29T08:07:53.000Z</time>
      </trkpt>
      <trkpt lat="48.22503" lon="3.34502">
        <ele>207</ele>
        <time>2013-09-29T08:07:54.000Z</time>
      </trkpt>
      <trkpt lat="48.22506" lon="3.34504">
        <ele>207</ele>
        <time>2013-09-29T08:07:55.000Z</time>
      </trkpt>
      <trkpt lat="48.22508" lon="3.34508">
        <ele>207</ele>
        <time>2013-09-29T08:07:56.000Z</time>
      </trkpt>
      <trkpt lat="48.2251" lon="3.3451">
        <ele>207</ele>
        <time>2013-09-29T08:07:57.000Z</time>
      </trkpt>
      <trkpt lat="48.22512" lon="3.34512">
        <ele>207</ele>
        <time>2013-09-29T08:07:58.000Z</time>
      </trkpt>
      <trkpt lat="48.22514" lon="3.34514">
        <ele>207</ele>
        <time>2013-09-29T08:07:59.000Z</time>
      </trkpt>
      <trkpt lat="48.22515" lon="3.34519">
        <ele>207</ele>
        <time>2013-09-29T08:08:00.000Z</time>
      </trkpt>
      <trkpt lat="48.22517" lon="3.34521">
        <ele>207</ele>
        <time>2013-09-29T08:08:01.000Z</time>
      </trkpt>
      <trkpt lat="48.2252" lon="3.34523">
        <ele>207</ele>
        <time>2013-09-29T08:08:02.000Z</time>
      </trkpt>
      <trkpt lat="48.22522" lon="3.34527">
        <ele>207</ele>
        <time>2013-09-29T08:08:03.000Z</time>
      </trkpt>
      <trkpt lat="48.22524" lon="3.34529">
        <ele>207</ele>
        <time>2013-09-29T08:08:04.000Z</time>
      </trkpt>
      <trkpt lat="48.22526" lon="3.34532">
        <ele>207</ele>
        <time>2013-09-29T08:08:05.000Z</time>
      </trkpt>
      <trkpt lat="48.22528" lon="3.34536">
        <ele>207</ele>
        <time>2013-09-29T08:08:06.000Z</time>
      </trkpt>
      <trkpt lat="48.2253" lon="3.34538">
        <ele>207</ele>
        <time>2013-09-29T08:08:07.000Z</time>
      </trkpt>
      <trkpt lat="48.22532" lon="3.3454">
        <ele>207</ele>
        <time>2013-09-29T08:08:08.000Z</time>
      </trkpt>
      <trkpt lat="48.22535" lon="3.34544">
        <ele>208</ele>
        <time>2013-09-29T08:08:09.000Z</time>
      </trkpt>
      <trkpt lat="48.22537" lon="3.34549">
        <ele>208</ele>
        <time>2013-09-29T08:08:10.000Z</time>
      </trkpt>
      <trkpt lat="48.22539" lon="3.34551">
        <ele>208</ele>
        <time>2013-09-29T08:08:11.000Z</time>
      </trkpt>
      <trkpt lat="48.22541" lon="3.34555">
        <ele>208</ele>
        <time>2013-09-29T08:08:12.000Z</time>
      </trkpt>
      <trkpt lat="48.22543" lon="3.34557">
        <ele>208</ele>
        <time>2013-09-29T08:08:13.000Z</time>
      </trkpt>
      <trkpt lat="48.22545" lon="3.34562">
        <ele>208</ele>
        <time>2013-09-29T08:08:14.000Z</time>
      </trkpt>
      <trkpt lat="48.22546" lon="3.34566">
        <ele>208</ele>
        <time>2013-09-29T08:08:15.000Z</time>
      </trkpt>
      <trkpt lat="48.22549" lon="3.34568">
        <ele>208</ele>
        <time>2013-09-29T08:08:16.000Z</time>
      </trkpt>
      <trkpt lat="48.22551" lon="3.34572">
        <ele>208</ele>
        <time>2013-09-29T08:08:17.000Z</time>
      </trkpt>
      <trkpt lat="48.22553" lon="3.34577">
        <ele>208</ele>
        <time>2013-09-29T08:08:18.000Z</time>
      </trkpt>
      <trkpt lat="48.22555" lon="3.34579">
        <ele>208</ele>
        <time>2013-09-29T08:08:19.000Z</time>
      </trkpt>
      <trkpt lat="48.22556" lon="3.34583">
        <ele>208</ele>
        <time>2013-09-29T08:08:20.000Z</time>
      </trkpt>
      <trkpt lat="48.22558" lon="3.34585">
        <ele>209</ele>
        <time>2013-09-29T08:08:21.000Z</time>
      </trkpt>
      <trkpt lat="48.2256" lon="3.34592">
        <ele>209</ele>
        <time>2013-09-29T08:08:22.000Z</time>
      </trkpt>
      <trkpt lat="48.22561" lon="3.34602">
        <ele>209</ele>
        <time>2013-09-29T08:08:23.000Z</time>
      </trkpt>
      <trkpt lat="48.22562" lon="3.34609">
        <ele>209</ele>
        <time>2013-09-29T08:08:24.000Z</time>
      </trkpt>
      <trkpt lat="48.22565" lon="3.34617">
        <ele>209</ele>
        <time>2013-09-29T08:08:25.000Z</time>
      </trkpt>
      <trkpt lat="48.22566" lon="3.34626">
        <ele>209</ele>
        <time>2013-09-29T08:08:26.000Z</time>
      </trkpt>
      <trkpt lat="48.22568" lon="3.34632">
        <ele>209</ele>
        <time>2013-09-29T08:08:27.000Z</time>
      </trkpt>
      <trkpt lat="48.22569" lon="3.34641">
        <ele>209</ele>
        <time>2013-09-29T08:08:28.000Z</time>
      </trkpt>
      <trkpt lat="48.22571" lon="3.34647">
        <ele>210</ele>
        <time>2013-09-29T08:08:29.000Z</time>
      </trkpt>
      <trkpt lat="48.22572" lon="3.34654">
        <ele>210</ele>
        <time>2013-09-29T08:08:30.000Z</time>
      </trkpt>
      <trkpt lat="48.22574" lon="3.3466">
        <ele>210</ele>
        <time>2013-09-29T08:08:31.000Z</time>
      </trkpt>
      <trkpt lat="48.22576" lon="3.34667">
        <ele>210</ele>
        <time>2013-09-29T08:08:32.000Z</time>
      </trkpt>
      <trkpt lat="48.22579" lon="3.34673">
        <ele>210</ele>
        <time>2013-09-29T08:08:33.000Z</time>
      </trkpt>
      <trkpt lat="48.22581" lon="3.3468">
        <ele>210</ele>
        <time>2013-09-29T08:08:34.000Z</time>
      </trkpt>
      <trkpt lat="48.22583" lon="3.34684">
        <ele>210</ele>
        <time>2013-09-29T08:08:35.000Z</time>
      </trkpt>
      <trkpt lat="48.22585" lon="3.3469">
        <ele>209</ele>
        <time>2013-09-29T08:08:36.000Z</time>
      </trkpt>
      <trkpt lat="48.22587" lon="3.34695">
        <ele>208</ele>
        <time>2013-09-29T08:08:37.000Z</time>
      </trkpt>
      <trkpt lat="48.22589" lon="3.34699">
        <ele>208</ele>
        <time>2013-09-29T08:08:38.000Z</time>
      </trkpt>
      <trkpt lat="48.22591" lon="3.34705">
        <ele>208</ele>
        <time>2013-09-29T08:08:39.000Z</time>
      </trkpt>
      <trkpt lat="48.22594" lon="3.3471">
        <ele>208</ele>
        <time>2013-09-29T08:08:40.000Z</time>
      </trkpt>
      <trkpt lat="48.22597" lon="3.34714">
        <ele>208</ele>
        <time>2013-09-29T08:08:41.000Z</time>
      </trkpt>
      <trkpt lat="48.22599" lon="3.34718">
        <ele>208</ele>
        <time>2013-09-29T08:08:42.000Z</time>
      </trkpt>
      <trkpt lat="48.22601" lon="3.34725">
        <ele>208</ele>
        <time>2013-09-29T08:08:43.000Z</time>
      </trkpt>
      <trkpt lat="48.22603" lon="3.34729">
        <ele>208</ele>
        <time>2013-09-29T08:08:44.000Z</time>
      </trkpt>
      <trkpt lat="48.22605" lon="3.34733">
        <ele>208</ele>
        <time>2013-09-29T08:08:45.000Z</time>
      </trkpt>
      <trkpt lat="48.22608" lon="3.34738">
        <ele>208</ele>
        <time>2013-09-29T08:08:46.000Z</time>
      </trkpt>
      <trkpt lat="48.2261" lon="3.34742">
        <ele>208</ele>
        <time>2013-09-29T08:08:47.000Z</time>
      </trkpt>
      <trkpt lat="48.22612" lon="3.34746">
        <ele>208</ele>
        <time>2013-09-29T08:08:48.000Z</time>
      </trkpt>
      <trkpt lat="48.22614" lon="3.34753">
        <ele>207</ele>
        <time>2013-09-29T08:08:49.000Z</time>
      </trkpt>
      <trkpt lat="48.22615" lon="3.34757">
        <ele>207</ele>
        <time>2013-09-29T08:08:50.000Z</time>
      </trkpt>
      <trkpt lat="48.22617" lon="3.34761">
        <ele>207</ele>
        <time>2013-09-29T08:08:51.000Z</time>
      </trkpt>
      <trkpt lat="48.22619" lon="3.34765">
        <ele>207</ele>
        <time>2013-09-29T08:08:52.000Z</time>
      </trkpt>
      <trkpt lat="48.22621" lon="3.34772">
        <ele>207</ele>
        <time>2013-09-29T08:08:53.000Z</time>
      </trkpt>
      <trkpt lat="48.22623" lon="3.34776">
        <ele>207</ele>
        <time>2013-09-29T08:08:54.000Z</time>
      </trkpt>
      <trkpt lat="48.22625" lon="3.3478">
        <ele>207</ele>
        <time>2013-09-29T08:08:55.000Z</time>
      </trkpt>
      <trkpt lat="48.22627" lon="3.34785">
        <ele>207</ele>
        <time>2013-09-29T08:08:56.000Z</time>
      </trkpt>
      <trkpt lat="48.22629" lon="3.34789">
        <ele>207</ele>
        <time>2013-09-29T08:08:57.000Z</time>
      </trkpt>
      <trkpt lat="48.2263" lon="3.34793">
        <ele>207</ele>
        <time>2013-09-29T08:08:58.000Z</time>
      </trkpt>
      <trkpt lat="48.22632" lon="3.34798">
        <ele>208</ele>
        <time>2013-09-29T08:08:59.000Z</time>
      </trkpt>
      <trkpt lat="48.22634" lon="3.34802">
        <ele>208</ele>
        <time>2013-09-29T08:09:00.000Z</time>
      </trkpt>
      <trkpt lat="48.22636" lon="3.34806">
        <ele>208</ele>
        <time>2013-09-29T08:09:01.000Z</time>
      </trkpt>
      <trkpt lat="48.22639" lon="3.3481">
        <ele>208</ele>
        <time>2013-09-29T08:09:02.000Z</time>
      </trkpt>
      <trkpt lat="48.22641" lon="3.34815">
        <ele>208</ele>
        <time>2013-09-29T08:09:03.000Z</time>
      </trkpt>
      <trkpt lat="48.22643" lon="3.34819">
        <ele>208</ele>
        <time>2013-09-29T08:09:04.000Z</time>
      </trkpt>
      <trkpt lat="48.22645" lon="3.34823">
        <ele>208</ele>
        <time>2013-09-29T08:09:05.000Z</time>
      </trkpt>
      <trkpt lat="48.22647" lon="3.3483">
        <ele>208</ele>
        <time>2013-09-29T08:09:06.000Z</time>
      </trkpt>
      <trkpt lat="48.2265" lon="3.34834">
        <ele>208</ele>
        <time>2013-09-29T08:09:07.000Z</time>
      </trkpt>
      <trkpt lat="48.22653" lon="3.34838">
        <ele>208</ele>
        <time>2013-09-29T08:09:08.000Z</time>
      </trkpt>
      <trkpt lat="48.22655" lon="3.34845">
        <ele>208</ele>
        <time>2013-09-29T08:09:09.000Z</time>
      </trkpt>
      <trkpt lat="48.22658" lon="3.34849">
        <ele>208</ele>
        <time>2013-09-29T08:09:10.000Z</time>
      </trkpt>
      <trkpt lat="48.2266" lon="3.34853">
        <ele>208</ele>
        <time>2013-09-29T08:09:11.000Z</time>
      </trkpt>
      <trkpt lat="48.22662" lon="3.3486">
        <ele>208</ele>
        <time>2013-09-29T08:09:12.000Z</time>
      </trkpt>
      <trkpt lat="48.22664" lon="3.34864">
        <ele>208</ele>
        <time>2013-09-29T08:09:13.000Z</time>
      </trkpt>
      <trkpt lat="48.22667" lon="3.34871">
        <ele>208</ele>
        <time>2013-09-29T08:09:14.000Z</time>
      </trkpt>
      <trkpt lat="48.2267" lon="3.34875">
        <ele>206</ele>
        <time>2013-09-29T08:09:15.000Z</time>
      </trkpt>
      <trkpt lat="48.22672" lon="3.34881">
        <ele>206</ele>
        <time>2013-09-29T08:09:16.000Z</time>
      </trkpt>
      <trkpt lat="48.22674" lon="3.34886">
        <ele>206</ele>
        <time>2013-09-29T08:09:17.000Z</time>
      </trkpt>
      <trkpt lat="48.22676" lon="3.34892">
        <ele>207</ele>
        <time>2013-09-29T08:09:18.000Z</time>
      </trkpt>
      <trkpt lat="48.22678" lon="3.34896">
        <ele>207</ele>
        <time>2013-09-29T08:09:19.000Z</time>
      </trkpt>
      <trkpt lat="48.2268" lon="3.34903">
        <ele>207</ele>
        <time>2013-09-29T08:09:20.000Z</time>
      </trkpt>
      <trkpt lat="48.22682" lon="3.34907">
        <ele>207</ele>
        <time>2013-09-29T08:09:21.000Z</time>
      </trkpt>
      <trkpt lat="48.22684" lon="3.34911">
        <ele>207</ele>
        <time>2013-09-29T08:09:22.000Z</time>
      </trkpt>
      <trkpt lat="48.22686" lon="3.34918">
        <ele>208</ele>
        <time>2013-09-29T08:09:23.000Z</time>
      </trkpt>
      <trkpt lat="48.22687" lon="3.34922">
        <ele>208</ele>
        <time>2013-09-29T08:09:24.000Z</time>
      </trkpt>
      <trkpt lat="48.22689" lon="3.34929">
        <ele>208</ele>
        <time>2013-09-29T08:09:25.000Z</time>
      </trkpt>
      <trkpt lat="48.2269" lon="3.34933">
        <ele>208</ele>
        <time>2013-09-29T08:09:26.000Z</time>
      </trkpt>
      <trkpt lat="48.22692" lon="3.34939">
        <ele>208</ele>
        <time>2013-09-29T08:09:27.000Z</time>
      </trkpt>
      <trkpt lat="48.22693" lon="3.34944">
        <ele>208</ele>
        <time>2013-09-29T08:09:28.000Z</time>
      </trkpt>
      <trkpt lat="48.22695" lon="3.3495">
        <ele>208</ele>
        <time>2013-09-29T08:09:29.000Z</time>
      </trkpt>
      <trkpt lat="48.22697" lon="3.34954">
        <ele>208</ele>
        <time>2013-09-29T08:09:30.000Z</time>
      </trkpt>
      <trkpt lat="48.22698" lon="3.34961">
        <ele>208</ele>
        <time>2013-09-29T08:09:31.000Z</time>
      </trkpt>
      <trkpt lat="48.227" lon="3.34965">
        <ele>208</ele>
        <time>2013-09-29T08:09:32.000Z</time>
      </trkpt>
      <trkpt lat="48.22701" lon="3.34971">
        <ele>208</ele>
        <time>2013-09-29T08:09:33.000Z</time>
      </trkpt>
      <trkpt lat="48.22702" lon="3.34976">
        <ele>208</ele>
        <time>2013-09-29T08:09:34.000Z</time>
      </trkpt>
      <trkpt lat="48.22704" lon="3.34982">
        <ele>208</ele>
        <time>2013-09-29T08:09:35.000Z</time>
      </trkpt>
      <trkpt lat="48.22705" lon="3.34986">
        <ele>208</ele>
        <time>2013-09-29T08:09:36.000Z</time>
      </trkpt>
      <trkpt lat="48.22706" lon="3.34993">
        <ele>208</ele>
        <time>2013-09-29T08:09:37.000Z</time>
      </trkpt>
      <trkpt lat="48.22707" lon="3.34997">
        <ele>208</ele>
        <time>2013-09-29T08:09:38.000Z</time>
      </trkpt>
      <trkpt lat="48.22708" lon="3.35004">
        <ele>210</ele>
        <time>2013-09-29T08:09:39.000Z</time>
      </trkpt>
      <trkpt lat="48.22709" lon="3.35008">
        <ele>209</ele>
        <time>2013-09-29T08:09:40.000Z</time>
      </trkpt>
      <trkpt lat="48.22711" lon="3.35014">
        <ele>209</ele>
        <time>2013-09-29T08:09:41.000Z</time>
      </trkpt>
      <trkpt lat="48.22713" lon="3.35019">
        <ele>209</ele>
        <time>2013-09-29T08:09:42.000Z</time>
      </trkpt>
      <trkpt lat="48.22714" lon="3.35023">
        <ele>209</ele>
        <time>2013-09-29T08:09:43.000Z</time>
      </trkpt>
      <trkpt lat="48.22715" lon="3.35029">
        <ele>209</ele>
        <time>2013-09-29T08:09:44.000Z</time>
      </trkpt>
      <trkpt lat="48.22716" lon="3.35034">
        <ele>209</ele>
        <time>2013-09-29T08:09:45.000Z</time>
      </trkpt>
      <trkpt lat="48.22716" lon="3.3504">
        <ele>209</ele>
        <time>2013-09-29T08:09:46.000Z</time>
      </trkpt>
      <trkpt lat="48.22717" lon="3.35044">
        <ele>209</ele>
        <time>2013-09-29T08:09:47.000Z</time>
      </trkpt>
      <trkpt lat="48.22718" lon="3.35049">
        <ele>209</ele>
        <time>2013-09-29T08:09:48.000Z</time>
      </trkpt>
      <trkpt lat="48.22719" lon="3.35055">
        <ele>209</ele>
        <time>2013-09-29T08:09:49.000Z</time>
      </trkpt>
      <trkpt lat="48.2272" lon="3.35059">
        <ele>209</ele>
        <time>2013-09-29T08:09:50.000Z</time>
      </trkpt>
      <trkpt lat="48.2272" lon="3.35066">
        <ele>209</ele>
        <time>2013-09-29T08:09:51.000Z</time>
      </trkpt>
      <trkpt lat="48.22721" lon="3.3507">
        <ele>209</ele>
        <time>2013-09-29T08:09:52.000Z</time>
      </trkpt>
      <trkpt lat="48.22722" lon="3.35074">
        <ele>209</ele>
        <time>2013-09-29T08:09:53.000Z</time>
      </trkpt>
      <trkpt lat="48.22723" lon="3.35081">
        <ele>209</ele>
        <time>2013-09-29T08:09:54.000Z</time>
      </trkpt>
      <trkpt lat="48.22723" lon="3.35085">
        <ele>209</ele>
        <time>2013-09-29T08:09:55.000Z</time>
      </trkpt>
      <trkpt lat="48.22724" lon="3.35092">
        <ele>209</ele>
        <time>2013-09-29T08:09:56.000Z</time>
      </trkpt>
      <trkpt lat="48.22724" lon="3.35096">
        <ele>209</ele>
        <time>2013-09-29T08:09:57.000Z</time>
      </trkpt>
      <trkpt lat="48.22726" lon="3.35102">
        <ele>209</ele>
        <time>2013-09-29T08:09:58.000Z</time>
      </trkpt>
      <trkpt lat="48.22727" lon="3.35109">
        <ele>209</ele>
        <time>2013-09-29T08:09:59.000Z</time>
      </trkpt>
      <trkpt lat="48.22727" lon="3.35113">
        <ele>209</ele>
        <time>2013-09-29T08:10:00.000Z</time>
      </trkpt>
      <trkpt lat="48.22728" lon="3.35119">
        <ele>208</ele>
        <time>2013-09-29T08:10:01.000Z</time>
      </trkpt>
      <trkpt lat="48.22728" lon="3.35124">
        <ele>208</ele>
        <time>2013-09-29T08:10:02.000Z</time>
      </trkpt>
      <trkpt lat="48.22728" lon="3.3513">
        <ele>208</ele>
        <time>2013-09-29T08:10:03.000Z</time>
      </trkpt>
      <trkpt lat="48.22728" lon="3.35135">
        <ele>208</ele>
        <time>2013-09-29T08:10:04.000Z</time>
      </trkpt>
      <trkpt lat="48.22728" lon="3.35141">
        <ele>208</ele>
        <time>2013-09-29T08:10:05.000Z</time>
      </trkpt>
      <trkpt lat="48.22729" lon="3.35145">
        <ele>208</ele>
        <time>2013-09-29T08:10:06.000Z</time>
      </trkpt>
      <trkpt lat="48.22729" lon="3.35152">
        <ele>208</ele>
        <time>2013-09-29T08:10:07.000Z</time>
      </trkpt>
      <trkpt lat="48.2273" lon="3.35154">
        <ele>208</ele>
        <time>2013-09-29T08:10:08.000Z</time>
      </trkpt>
      <trkpt lat="48.22732" lon="3.35158">
        <ele>208</ele>
        <time>2013-09-29T08:10:09.000Z</time>
      </trkpt>
      <trkpt lat="48.22735" lon="3.35158">
        <ele>208</ele>
        <time>2013-09-29T08:10:10.000Z</time>
      </trkpt>
      <trkpt lat="48.22738" lon="3.3516">
        <ele>208</ele>
        <time>2013-09-29T08:10:11.000Z</time>
      </trkpt>
      <trkpt lat="48.22742" lon="3.35158">
        <ele>208</ele>
        <time>2013-09-29T08:10:12.000Z</time>
      </trkpt>
      <trkpt lat="48.22746" lon="3.35158">
        <ele>207</ele>
        <time>2013-09-29T08:10:13.000Z</time>
      </trkpt>
      <trkpt lat="48.22751" lon="3.35156">
        <ele>207</ele>
        <time>2013-09-29T08:10:14.000Z</time>
      </trkpt>
      <trkpt lat="48.22756" lon="3.35154">
        <ele>207</ele>
        <time>2013-09-29T08:10:15.000Z</time>
      </trkpt>
      <trkpt lat="48.22761" lon="3.35152">
        <ele>207</ele>
        <time>2013-09-29T08:10:16.000Z</time>
      </trkpt>
      <trkpt lat="48.22765" lon="3.35147">
        <ele>207</ele>
        <time>2013-09-29T08:10:17.000Z</time>
      </trkpt>
      <trkpt lat="48.2277" lon="3.35145">
        <ele>207</ele>
        <time>2013-09-29T08:10:18.000Z</time>
      </trkpt>
      <trkpt lat="48.22775" lon="3.35143">
        <ele>207</ele>
        <time>2013-09-29T08:10:19.000Z</time>
      </trkpt>
      <trkpt lat="48.22779" lon="3.35139">
        <ele>207</ele>
        <time>2013-09-29T08:10:20.000Z</time>
      </trkpt>
      <trkpt lat="48.22783" lon="3.35137">
        <ele>207</ele>
        <time>2013-09-29T08:10:21.000Z</time>
      </trkpt>
      <trkpt lat="48.22788" lon="3.35135">
        <ele>207</ele>
        <time>2013-09-29T08:10:22.000Z</time>
      </trkpt>
      <trkpt lat="48.22792" lon="3.35132">
        <ele>207</ele>
        <time>2013-09-29T08:10:23.000Z</time>
      </trkpt>
      <trkpt lat="48.22797" lon="3.35128">
        <ele>207</ele>
        <time>2013-09-29T08:10:24.000Z</time>
      </trkpt>
      <trkpt lat="48.22802" lon="3.35126">
        <ele>207</ele>
        <time>2013-09-29T08:10:25.000Z</time>
      </trkpt>
      <trkpt lat="48.22807" lon="3.35122">
        <ele>207</ele>
        <time>2013-09-29T08:10:26.000Z</time>
      </trkpt>
      <trkpt lat="48.22811" lon="3.35119">
        <ele>207</ele>
        <time>2013-09-29T08:10:27.000Z</time>
      </trkpt>
      <trkpt lat="48.22817" lon="3.35115">
        <ele>207</ele>
        <time>2013-09-29T08:10:28.000Z</time>
      </trkpt>
      <trkpt lat="48.22821" lon="3.35113">
        <ele>207</ele>
        <time>2013-09-29T08:10:29.000Z</time>
      </trkpt>
      <trkpt lat="48.22826" lon="3.35109">
        <ele>207</ele>
        <time>2013-09-29T08:10:30.000Z</time>
      </trkpt>
      <trkpt lat="48.22832" lon="3.35104">
        <ele>207</ele>
        <time>2013-09-29T08:10:31.000Z</time>
      </trkpt>
      <trkpt lat="48.22836" lon="3.35102">
        <ele>206</ele>
        <time>2013-09-29T08:10:32.000Z</time>
      </trkpt>
      <trkpt lat="48.22841" lon="3.35098">
        <ele>206</ele>
        <time>2013-09-29T08:10:33.000Z</time>
      </trkpt>
      <trkpt lat="48.22847" lon="3.35094">
        <ele>206</ele>
        <time>2013-09-29T08:10:34.000Z</time>
      </trkpt>
      <trkpt lat="48.22852" lon="3.35089">
        <ele>205</ele>
        <time>2013-09-29T08:10:35.000Z</time>
      </trkpt>
      <trkpt lat="48.22857" lon="3.35085">
        <ele>205</ele>
        <time>2013-09-29T08:10:36.000Z</time>
      </trkpt>
      <trkpt lat="48.22863" lon="3.35083">
        <ele>205</ele>
        <time>2013-09-29T08:10:37.000Z</time>
      </trkpt>
      <trkpt lat="48.22868" lon="3.35079">
        <ele>205</ele>
        <time>2013-09-29T08:10:38.000Z</time>
      </trkpt>
      <trkpt lat="48.22874" lon="3.35074">
        <ele>205</ele>
        <time>2013-09-29T08:10:39.000Z</time>
      </trkpt>
      <trkpt lat="48.22878" lon="3.3507">
        <ele>205</ele>
        <time>2013-09-29T08:10:40.000Z</time>
      </trkpt>
      <trkpt lat="48.22883" lon="3.35066">
        <ele>205</ele>
        <time>2013-09-29T08:10:41.000Z</time>
      </trkpt>
      <trkpt lat="48.22889" lon="3.35062">
        <ele>205</ele>
        <time>2013-09-29T08:10:42.000Z</time>
      </trkpt>
      <trkpt lat="48.22894" lon="3.35057">
        <ele>205</ele>
        <time>2013-09-29T08:10:43.000Z</time>
      </trkpt>
      <trkpt lat="48.22899" lon="3.35053">
        <ele>205</ele>
        <time>2013-09-29T08:10:44.000Z</time>
      </trkpt>
      <trkpt lat="48.22905" lon="3.35049">
        <ele>205</ele>
        <time>2013-09-29T08:10:45.000Z</time>
      </trkpt>
      <trkpt lat="48.22909" lon="3.35044">
        <ele>205</ele>
        <time>2013-09-29T08:10:46.000Z</time>
      </trkpt>
      <trkpt lat="48.22914" lon="3.3504">
        <ele>205</ele>
        <time>2013-09-29T08:10:47.000Z</time>
      </trkpt>
      <trkpt lat="48.22919" lon="3.35034">
        <ele>204</ele>
        <time>2013-09-29T08:10:48.000Z</time>
      </trkpt>
      <trkpt lat="48.22923" lon="3.35029">
        <ele>204</ele>
        <time>2013-09-29T08:10:49.000Z</time>
      </trkpt>
      <trkpt lat="48.22928" lon="3.35025">
        <ele>204</ele>
        <time>2013-09-29T08:10:50.000Z</time>
      </trkpt>
      <trkpt lat="48.22934" lon="3.35021">
        <ele>204</ele>
        <time>2013-09-29T08:10:51.000Z</time>
      </trkpt>
      <trkpt lat="48.22938" lon="3.35016">
        <ele>204</ele>
        <time>2013-09-29T08:10:52.000Z</time>
      </trkpt>
      <trkpt lat="48.22943" lon="3.3501">
        <ele>204</ele>
        <time>2013-09-29T08:10:53.000Z</time>
      </trkpt>
      <trkpt lat="48.22949" lon="3.35006">
        <ele>204</ele>
        <time>2013-09-29T08:10:54.000Z</time>
      </trkpt>
      <trkpt lat="48.22953" lon="3.35001">
        <ele>204</ele>
        <time>2013-09-29T08:10:55.000Z</time>
      </trkpt>
      <trkpt lat="48.22958" lon="3.34997">
        <ele>205</ele>
        <time>2013-09-29T08:10:56.000Z</time>
      </trkpt>
      <trkpt lat="48.22964" lon="3.34993">
        <ele>205</ele>
        <time>2013-09-29T08:10:57.000Z</time>
      </trkpt>
      <trkpt lat="48.22969" lon="3.34989">
        <ele>205</ele>
        <time>2013-09-29T08:10:58.000Z</time>
      </trkpt>
      <trkpt lat="48.22973" lon="3.34984">
        <ele>205</ele>
        <time>2013-09-29T08:10:59.000Z</time>
      </trkpt>
      <trkpt lat="48.22979" lon="3.3498">
        <ele>205</ele>
        <time>2013-09-29T08:11:00.000Z</time>
      </trkpt>
      <trkpt lat="48.22984" lon="3.34976">
        <ele>205</ele>
        <time>2013-09-29T08:11:01.000Z</time>
      </trkpt>
      <trkpt lat="48.22989" lon="3.34971">
        <ele>205</ele>
        <time>2013-09-29T08:11:02.000Z</time>
      </trkpt>
      <trkpt lat="48.22995" lon="3.34969">
        <ele>205</ele>
        <time>2013-09-29T08:11:03.000Z</time>
      </trkpt>
      <trkpt lat="48.23" lon="3.34965">
        <ele>204</ele>
        <time>2013-09-29T08:11:04.000Z</time>
      </trkpt>
      <trkpt lat="48.23004" lon="3.34961">
        <ele>204</ele>
        <time>2013-09-29T08:11:05.000Z</time>
      </trkpt>
      <trkpt lat="48.2301" lon="3.34956">
        <ele>204</ele>
        <time>2013-09-29T08:11:06.000Z</time>
      </trkpt>
      <trkpt lat="48.23015" lon="3.34952">
        <ele>204</ele>
        <time>2013-09-29T08:11:07.000Z</time>
      </trkpt>
      <trkpt lat="48.23021" lon="3.34948">
        <ele>204</ele>
        <time>2013-09-29T08:11:08.000Z</time>
      </trkpt>
      <trkpt lat="48.23026" lon="3.34944">
        <ele>204</ele>
        <time>2013-09-29T08:11:09.000Z</time>
      </trkpt>
      <trkpt lat="48.23031" lon="3.34939">
        <ele>204</ele>
        <time>2013-09-29T08:11:10.000Z</time>
      </trkpt>
      <trkpt lat="48.23036" lon="3.34935">
        <ele>204</ele>
        <time>2013-09-29T08:11:11.000Z</time>
      </trkpt>
      <trkpt lat="48.23041" lon="3.34931">
        <ele>203</ele>
        <time>2013-09-29T08:11:12.000Z</time>
      </trkpt>
      <trkpt lat="48.23047" lon="3.34926">
        <ele>203</ele>
        <time>2013-09-29T08:11:13.000Z</time>
      </trkpt>
      <trkpt lat="48.23053" lon="3.34922">
        <ele>203</ele>
        <time>2013-09-29T08:11:14.000Z</time>
      </trkpt>
      <trkpt lat="48.23058" lon="3.34916">
        <ele>203</ele>
        <time>2013-09-29T08:11:15.000Z</time>
      </trkpt>
      <trkpt lat="48.23063" lon="3.34911">
        <ele>202</ele>
        <time>2013-09-29T08:11:16.000Z</time>
      </trkpt>
      <trkpt lat="48.2307" lon="3.34905">
        <ele>202</ele>
        <time>2013-09-29T08:11:17.000Z</time>
      </trkpt>
      <trkpt lat="48.23075" lon="3.34901">
        <ele>202</ele>
        <time>2013-09-29T08:11:18.000Z</time>
      </trkpt>
      <trkpt lat="48.23081" lon="3.34894">
        <ele>202</ele>
        <time>2013-09-29T08:11:19.000Z</time>
      </trkpt>
      <trkpt lat="48.23086" lon="3.3489">
        <ele>200</ele>
        <time>2013-09-29T08:11:20.000Z</time>
      </trkpt>
      <trkpt lat="48.23091" lon="3.34883">
        <ele>200</ele>
        <time>2013-09-29T08:11:21.000Z</time>
      </trkpt>
      <trkpt lat="48.23097" lon="3.34877">
        <ele>200</ele>
        <time>2013-09-29T08:11:22.000Z</time>
      </trkpt>
      <trkpt lat="48.23103" lon="3.34873">
        <ele>200</ele>
        <time>2013-09-29T08:11:23.000Z</time>
      </trkpt>
      <trkpt lat="48.23109" lon="3.34866">
        <ele>200</ele>
        <time>2013-09-29T08:11:24.000Z</time>
      </trkpt>
      <trkpt lat="48.23114" lon="3.34862">
        <ele>200</ele>
        <time>2013-09-29T08:11:25.000Z</time>
      </trkpt>
      <trkpt lat="48.2312" lon="3.34858">
        <ele>200</ele>
        <time>2013-09-29T08:11:26.000Z</time>
      </trkpt>
      <trkpt lat="48.23126" lon="3.34853">
        <ele>200</ele>
        <time>2013-09-29T08:11:27.000Z</time>
      </trkpt>
      <trkpt lat="48.23131" lon="3.34847">
        <ele>200</ele>
        <time>2013-09-29T08:11:28.000Z</time>
      </trkpt>
      <trkpt lat="48.23138" lon="3.34843">
        <ele>200</ele>
        <time>2013-09-29T08:11:29.000Z</time>
      </trkpt>
      <trkpt lat="48.23143" lon="3.34838">
        <ele>199</ele>
        <time>2013-09-29T08:11:30.000Z</time>
      </trkpt>
      <trkpt lat="48.23149" lon="3.34834">
        <ele>199</ele>
        <time>2013-09-29T08:11:31.000Z</time>
      </trkpt>
      <trkpt lat="48.23155" lon="3.3483">
        <ele>199</ele>
        <time>2013-09-29T08:11:32.000Z</time>
      </trkpt>
      <trkpt lat="48.23161" lon="3.34826">
        <ele>199</ele>
        <time>2013-09-29T08:11:33.000Z</time>
      </trkpt>
      <trkpt lat="48.23166" lon="3.34821">
        <ele>199</ele>
        <time>2013-09-29T08:11:34.000Z</time>
      </trkpt>
      <trkpt lat="48.23173" lon="3.34817">
        <ele>198</ele>
        <time>2013-09-29T08:11:35.000Z</time>
      </trkpt>
      <trkpt lat="48.23178" lon="3.34813">
        <ele>198</ele>
        <time>2013-09-29T08:11:36.000Z</time>
      </trkpt>
      <trkpt lat="48.23185" lon="3.34808">
        <ele>197</ele>
        <time>2013-09-29T08:11:37.000Z</time>
      </trkpt>
      <trkpt lat="48.2319" lon="3.34804">
        <ele>197</ele>
        <time>2013-09-29T08:11:38.000Z</time>
      </trkpt>
      <trkpt lat="48.23195" lon="3.348">
        <ele>197</ele>
        <time>2013-09-29T08:11:39.000Z</time>
      </trkpt>
      <trkpt lat="48.23202" lon="3.34795">
        <ele>197</ele>
        <time>2013-09-29T08:11:40.000Z</time>
      </trkpt>
      <trkpt lat="48.23207" lon="3.34791">
        <ele>197</ele>
        <time>2013-09-29T08:11:41.000Z</time>
      </trkpt>
      <trkpt lat="48.23214" lon="3.34787">
        <ele>197</ele>
        <time>2013-09-29T08:11:42.000Z</time>
      </trkpt>
      <trkpt lat="48.23219" lon="3.34783">
        <ele>196</ele>
        <time>2013-09-29T08:11:43.000Z</time>
      </trkpt>
      <trkpt lat="48.23225" lon="3.34778">
        <ele>196</ele>
        <time>2013-09-29T08:11:44.000Z</time>
      </trkpt>
      <trkpt lat="48.23232" lon="3.34776">
        <ele>196</ele>
        <time>2013-09-29T08:11:45.000Z</time>
      </trkpt>
      <trkpt lat="48.23238" lon="3.34772">
        <ele>196</ele>
        <time>2013-09-29T08:11:46.000Z</time>
      </trkpt>
      <trkpt lat="48.23244" lon="3.3477">
        <ele>196</ele>
        <time>2013-09-29T08:11:47.000Z</time>
      </trkpt>
      <trkpt lat="48.23251" lon="3.34768">
        <ele>195</ele>
        <time>2013-09-29T08:11:48.000Z</time>
      </trkpt>
      <trkpt lat="48.23258" lon="3.34763">
        <ele>195</ele>
        <time>2013-09-29T08:11:49.000Z</time>
      </trkpt>
      <trkpt lat="48.23264" lon="3.34757">
        <ele>195</ele>
        <time>2013-09-29T08:11:50.000Z</time>
      </trkpt>
      <trkpt lat="48.23271" lon="3.3475">
        <ele>195</ele>
        <time>2013-09-29T08:11:51.000Z</time>
      </trkpt>
      <trkpt lat="48.23276" lon="3.34742">
        <ele>194</ele>
        <time>2013-09-29T08:11:52.000Z</time>
      </trkpt>
      <trkpt lat="48.23281" lon="3.34731">
        <ele>193</ele>
        <time>2013-09-29T08:11:53.000Z</time>
      </trkpt>
      <trkpt lat="48.23285" lon="3.3472">
        <ele>193</ele>
        <time>2013-09-29T08:11:54.000Z</time>
      </trkpt>
      <trkpt lat="48.23289" lon="3.34712">
        <ele>193</ele>
        <time>2013-09-29T08:11:55.000Z</time>
      </trkpt>
      <trkpt lat="48.23294" lon="3.34701">
        <ele>193</ele>
        <time>2013-09-29T08:11:56.000Z</time>
      </trkpt>
      <trkpt lat="48.23298" lon="3.3469">
        <ele>193</ele>
        <time>2013-09-29T08:11:57.000Z</time>
      </trkpt>
      <trkpt lat="48.23303" lon="3.34682">
        <ele>193</ele>
        <time>2013-09-29T08:11:58.000Z</time>
      </trkpt>
      <trkpt lat="48.23308" lon="3.34673">
        <ele>193</ele>
        <time>2013-09-29T08:11:59.000Z</time>
      </trkpt>
      <trkpt lat="48.23312" lon="3.34665">
        <ele>192</ele>
        <time>2013-09-29T08:12:00.000Z</time>
      </trkpt>
      <trkpt lat="48.23318" lon="3.34656">
        <ele>192</ele>
        <time>2013-09-29T08:12:01.000Z</time>
      </trkpt>
      <trkpt lat="48.23322" lon="3.34647">
        <ele>192</ele>
        <time>2013-09-29T08:12:02.000Z</time>
      </trkpt>
      <trkpt lat="48.23326" lon="3.34639">
        <ele>191</ele>
        <time>2013-09-29T08:12:03.000Z</time>
      </trkpt>
      <trkpt lat="48.23332" lon="3.34632">
        <ele>191</ele>
        <time>2013-09-29T08:12:04.000Z</time>
      </trkpt>
      <trkpt lat="48.23336" lon="3.34626">
        <ele>193</ele>
        <time>2013-09-29T08:12:05.000Z</time>
      </trkpt>
      <trkpt lat="48.2334" lon="3.3462">
        <ele>192</ele>
        <time>2013-09-29T08:12:06.000Z</time>
      </trkpt>
      <trkpt lat="48.23345" lon="3.34613">
        <ele>192</ele>
        <time>2013-09-29T08:12:07.000Z</time>
      </trkpt>
      <trkpt lat="48.23348" lon="3.34607">
        <ele>192</ele>
        <time>2013-09-29T08:12:08.000Z</time>
      </trkpt>
      <trkpt lat="48.23352" lon="3.346">
        <ele>192</ele>
        <time>2013-09-29T08:12:09.000Z</time>
      </trkpt>
      <trkpt lat="48.23356" lon="3.34594">
        <ele>192</ele>
        <time>2013-09-29T08:12:10.000Z</time>
      </trkpt>
      <trkpt lat="48.2336" lon="3.34587">
        <ele>192</ele>
        <time>2013-09-29T08:12:11.000Z</time>
      </trkpt>
      <trkpt lat="48.23364" lon="3.34581">
        <ele>190</ele>
        <time>2013-09-29T08:12:12.000Z</time>
      </trkpt>
      <trkpt lat="48.23368" lon="3.34572">
        <ele>190</ele>
        <time>2013-09-29T08:12:13.000Z</time>
      </trkpt>
      <trkpt lat="48.23372" lon="3.34566">
        <ele>189</ele>
        <time>2013-09-29T08:12:14.000Z</time>
      </trkpt>
      <trkpt lat="48.23377" lon="3.34559">
        <ele>189</ele>
        <time>2013-09-29T08:12:15.000Z</time>
      </trkpt>
      <trkpt lat="48.23381" lon="3.34551">
        <ele>189</ele>
        <time>2013-09-29T08:12:16.000Z</time>
      </trkpt>
      <trkpt lat="48.23386" lon="3.34544">
        <ele>189</ele>
        <time>2013-09-29T08:12:17.000Z</time>
      </trkpt>
      <trkpt lat="48.23391" lon="3.34536">
        <ele>189</ele>
        <time>2013-09-29T08:12:18.000Z</time>
      </trkpt>
      <trkpt lat="48.23395" lon="3.34527">
        <ele>189</ele>
        <time>2013-09-29T08:12:19.000Z</time>
      </trkpt>
      <trkpt lat="48.23399" lon="3.34521">
        <ele>189</ele>
        <time>2013-09-29T08:12:20.000Z</time>
      </trkpt>
      <trkpt lat="48.23404" lon="3.34512">
        <ele>189</ele>
        <time>2013-09-29T08:12:21.000Z</time>
      </trkpt>
      <trkpt lat="48.23408" lon="3.34504">
        <ele>190</ele>
        <time>2013-09-29T08:12:22.000Z</time>
      </trkpt>
      <trkpt lat="48.23412" lon="3.34497">
        <ele>189</ele>
        <time>2013-09-29T08:12:23.000Z</time>
      </trkpt>
      <trkpt lat="48.23415" lon="3.34489">
        <ele>188</ele>
        <time>2013-09-29T08:12:24.000Z</time>
      </trkpt>
      <trkpt lat="48.2342" lon="3.3448">
        <ele>189</ele>
        <time>2013-09-29T08:12:25.000Z</time>
      </trkpt>
      <trkpt lat="48.23423" lon="3.34469">
        <ele>189</ele>
        <time>2013-09-29T08:12:26.000Z</time>
      </trkpt>
      <trkpt lat="48.23426" lon="3.34459">
        <ele>189</ele>
        <time>2013-09-29T08:12:27.000Z</time>
      </trkpt>
      <trkpt lat="48.23428" lon="3.34448">
        <ele>188</ele>
        <time>2013-09-29T08:12:28.000Z</time>
      </trkpt>
      <trkpt lat="48.2343" lon="3.34437">
        <ele>188</ele>
        <time>2013-09-29T08:12:29.000Z</time>
      </trkpt>
      <trkpt lat="48.23433" lon="3.34426">
        <ele>187</ele>
        <time>2013-09-29T08:12:30.000Z</time>
      </trkpt>
      <trkpt lat="48.23434" lon="3.34416">
        <ele>186</ele>
        <time>2013-09-29T08:12:31.000Z</time>
      </trkpt>
      <trkpt lat="48.23436" lon="3.34403">
        <ele>186</ele>
        <time>2013-09-29T08:12:32.000Z</time>
      </trkpt>
      <trkpt lat="48.23437" lon="3.34392">
        <ele>186</ele>
        <time>2013-09-29T08:12:33.000Z</time>
      </trkpt>
      <trkpt lat="48.23439" lon="3.34381">
        <ele>186</ele>
        <time>2013-09-29T08:12:34.000Z</time>
      </trkpt>
      <trkpt lat="48.2344" lon="3.34368">
        <ele>186</ele>
        <time>2013-09-29T08:12:35.000Z</time>
      </trkpt>
      <trkpt lat="48.23442" lon="3.34358">
        <ele>186</ele>
        <time>2013-09-29T08:12:36.000Z</time>
      </trkpt>
      <trkpt lat="48.23444" lon="3.34347">
        <ele>186</ele>
        <time>2013-09-29T08:12:37.000Z</time>
      </trkpt>
      <trkpt lat="48.23447" lon="3.34334">
        <ele>185</ele>
        <time>2013-09-29T08:12:38.000Z</time>
      </trkpt>
      <trkpt lat="48.23449" lon="3.34323">
        <ele>184</ele>
        <time>2013-09-29T08:12:39.000Z</time>
      </trkpt>
      <trkpt lat="48.2345" lon="3.34313">
        <ele>183</ele>
        <time>2013-09-29T08:12:40.000Z</time>
      </trkpt>
      <trkpt lat="48.23453" lon="3.34302">
        <ele>183</ele>
        <time>2013-09-29T08:12:41.000Z</time>
      </trkpt>
      <trkpt lat="48.23456" lon="3.34291">
        <ele>183</ele>
        <time>2013-09-29T08:12:42.000Z</time>
      </trkpt>
      <trkpt lat="48.23459" lon="3.3428">
        <ele>183</ele>
        <time>2013-09-29T08:12:43.000Z</time>
      </trkpt>
      <trkpt lat="48.23462" lon="3.34272">
        <ele>183</ele>
        <time>2013-09-29T08:12:44.000Z</time>
      </trkpt>
      <trkpt lat="48.23465" lon="3.34261">
        <ele>184</ele>
        <time>2013-09-29T08:12:45.000Z</time>
      </trkpt>
      <trkpt lat="48.23469" lon="3.34253">
        <ele>184</ele>
        <time>2013-09-29T08:12:46.000Z</time>
      </trkpt>
      <trkpt lat="48.23472" lon="3.34244">
        <ele>182</ele>
        <time>2013-09-29T08:12:47.000Z</time>
      </trkpt>
      <trkpt lat="48.23475" lon="3.34235">
        <ele>182</ele>
        <time>2013-09-29T08:12:48.000Z</time>
      </trkpt>
      <trkpt lat="48.23479" lon="3.34227">
        <ele>182</ele>
        <time>2013-09-29T08:12:49.000Z</time>
      </trkpt>
      <trkpt lat="48.23482" lon="3.34218">
        <ele>182</ele>
        <time>2013-09-29T08:12:50.000Z</time>
      </trkpt>
      <trkpt lat="48.23485" lon="3.3421">
        <ele>182</ele>
        <time>2013-09-29T08:12:51.000Z</time>
      </trkpt>
      <trkpt lat="48.23487" lon="3.34201">
        <ele>182</ele>
        <time>2013-09-29T08:12:52.000Z</time>
      </trkpt>
      <trkpt lat="48.23491" lon="3.34193">
        <ele>182</ele>
        <time>2013-09-29T08:12:53.000Z</time>
      </trkpt>
      <trkpt lat="48.23493" lon="3.34186">
        <ele>183</ele>
        <time>2013-09-29T08:12:54.000Z</time>
      </trkpt>
      <trkpt lat="48.23495" lon="3.34177">
        <ele>184</ele>
        <time>2013-09-29T08:12:55.000Z</time>
      </trkpt>
      <trkpt lat="48.23498" lon="3.34171">
        <ele>185</ele>
        <time>2013-09-29T08:12:56.000Z</time>
      </trkpt>
      <trkpt lat="48.23499" lon="3.34165">
        <ele>185</ele>
        <time>2013-09-29T08:12:57.000Z</time>
      </trkpt>
      <trkpt lat="48.23502" lon="3.3416">
        <ele>187</ele>
        <time>2013-09-29T08:12:58.000Z</time>
      </trkpt>
      <trkpt lat="48.23506" lon="3.34158">
        <ele>187</ele>
        <time>2013-09-29T08:12:59.000Z</time>
      </trkpt>
      <trkpt lat="48.2351" lon="3.34154">
        <ele>188</ele>
        <time>2013-09-29T08:13:00.000Z</time>
      </trkpt>
      <trkpt lat="48.23513" lon="3.3415">
        <ele>188</ele>
        <time>2013-09-29T08:13:01.000Z</time>
      </trkpt>
      <trkpt lat="48.23516" lon="3.34145">
        <ele>188</ele>
        <time>2013-09-29T08:13:02.000Z</time>
      </trkpt>
      <trkpt lat="48.23518" lon="3.34141">
        <ele>189</ele>
        <time>2013-09-29T08:13:03.000Z</time>
      </trkpt>
      <trkpt lat="48.23522" lon="3.34139">
        <ele>189</ele>
        <time>2013-09-29T08:13:04.000Z</time>
      </trkpt>
      <trkpt lat="48.23525" lon="3.34135">
        <ele>189</ele>
        <time>2013-09-29T08:13:05.000Z</time>
      </trkpt>
      <trkpt lat="48.23528" lon="3.3413">
        <ele>189</ele>
        <time>2013-09-29T08:13:06.000Z</time>
      </trkpt>
      <trkpt lat="48.2353" lon="3.34128">
        <ele>189</ele>
        <time>2013-09-29T08:13:07.000Z</time>
      </trkpt>
      <trkpt lat="48.23533" lon="3.34124">
        <ele>189</ele>
        <time>2013-09-29T08:13:08.000Z</time>
      </trkpt>
      <trkpt lat="48.23537" lon="3.3412">
        <ele>189</ele>
        <time>2013-09-29T08:13:09.000Z</time>
      </trkpt>
      <trkpt lat="48.23539" lon="3.34115">
        <ele>190</ele>
        <time>2013-09-29T08:13:10.000Z</time>
      </trkpt>
      <trkpt lat="48.23541" lon="3.34113">
        <ele>190</ele>
        <time>2013-09-29T08:13:11.000Z</time>
      </trkpt>
      <trkpt lat="48.23543" lon="3.34109">
        <ele>190</ele>
        <time>2013-09-29T08:13:12.000Z</time>
      </trkpt>
      <trkpt lat="48.23545" lon="3.34105">
        <ele>190</ele>
        <time>2013-09-29T08:13:13.000Z</time>
      </trkpt>
      <trkpt lat="48.23548" lon="3.34102">
        <ele>190</ele>
        <time>2013-09-29T08:13:14.000Z</time>
      </trkpt>
      <trkpt lat="48.23551" lon="3.34098">
        <ele>190</ele>
        <time>2013-09-29T08:13:15.000Z</time>
      </trkpt>
      <trkpt lat="48.23553" lon="3.34094">
        <ele>190</ele>
        <time>2013-09-29T08:13:16.000Z</time>
      </trkpt>
      <trkpt lat="48.23555" lon="3.3409">
        <ele>191</ele>
        <time>2013-09-29T08:13:17.000Z</time>
      </trkpt>
      <trkpt lat="48.23558" lon="3.34087">
        <ele>191</ele>
        <time>2013-09-29T08:13:18.000Z</time>
      </trkpt>
      <trkpt lat="48.2356" lon="3.34083">
        <ele>190</ele>
        <time>2013-09-29T08:13:19.000Z</time>
      </trkpt>
      <trkpt lat="48.23562" lon="3.34079">
        <ele>190</ele>
        <time>2013-09-29T08:13:20.000Z</time>
      </trkpt>
      <trkpt lat="48.23566" lon="3.34074">
        <ele>191</ele>
        <time>2013-09-29T08:13:21.000Z</time>
      </trkpt>
      <trkpt lat="48.23568" lon="3.34072">
        <ele>191</ele>
        <time>2013-09-29T08:13:22.000Z</time>
      </trkpt>
      <trkpt lat="48.23571" lon="3.34068">
        <ele>191</ele>
        <time>2013-09-29T08:13:23.000Z</time>
      </trkpt>
      <trkpt lat="48.23573" lon="3.34064">
        <ele>191</ele>
        <time>2013-09-29T08:13:24.000Z</time>
      </trkpt>
      <trkpt lat="48.23575" lon="3.34062">
        <ele>191</ele>
        <time>2013-09-29T08:13:25.000Z</time>
      </trkpt>
      <trkpt lat="48.23578" lon="3.34057">
        <ele>190</ele>
        <time>2013-09-29T08:13:26.000Z</time>
      </trkpt>
      <trkpt lat="48.23581" lon="3.34053">
        <ele>190</ele>
        <time>2013-09-29T08:13:27.000Z</time>
      </trkpt>
      <trkpt lat="48.23583" lon="3.34051">
        <ele>190</ele>
        <time>2013-09-29T08:13:28.000Z</time>
      </trkpt>
      <trkpt lat="48.23586" lon="3.34049">
        <ele>193</ele>
        <time>2013-09-29T08:13:29.000Z</time>
      </trkpt>
      <trkpt lat="48.23588" lon="3.34044">
        <ele>193</ele>
        <time>2013-09-29T08:13:30.000Z</time>
      </trkpt>
      <trkpt lat="48.2359" lon="3.34042">
        <ele>193</ele>
        <time>2013-09-29T08:13:31.000Z</time>
      </trkpt>
      <trkpt lat="48.23592" lon="3.3404">
        <ele>193</ele>
        <time>2013-09-29T08:13:32.000Z</time>
      </trkpt>
      <trkpt lat="48.23595" lon="3.34036">
        <ele>193</ele>
        <time>2013-09-29T08:13:33.000Z</time>
      </trkpt>
      <trkpt lat="48.23598" lon="3.34034">
        <ele>193</ele>
        <time>2013-09-29T08:13:34.000Z</time>
      </trkpt>
      <trkpt lat="48.236" lon="3.34032">
        <ele>193</ele>
        <time>2013-09-29T08:13:35.000Z</time>
      </trkpt>
      <trkpt lat="48.23602" lon="3.34029">
        <ele>193</ele>
        <time>2013-09-29T08:13:36.000Z</time>
      </trkpt>
      <trkpt lat="48.23604" lon="3.34027">
        <ele>193</ele>
        <time>2013-09-29T08:13:37.000Z</time>
      </trkpt>
      <trkpt lat="48.23606" lon="3.34023">
        <ele>193</ele>
        <time>2013-09-29T08:13:38.000Z</time>
      </trkpt>
      <trkpt lat="48.23609" lon="3.34021">
        <ele>193</ele>
        <time>2013-09-29T08:13:39.000Z</time>
      </trkpt>
      <trkpt lat="48.23612" lon="3.34019">
        <ele>193</ele>
        <time>2013-09-29T08:13:40.000Z</time>
      </trkpt>
      <trkpt lat="48.23614" lon="3.34014">
        <ele>193</ele>
        <time>2013-09-29T08:13:41.000Z</time>
      </trkpt>
      <trkpt lat="48.23616" lon="3.34012">
        <ele>193</ele>
        <time>2013-09-29T08:13:42.000Z</time>
      </trkpt>
      <trkpt lat="48.23618" lon="3.3401">
        <ele>193</ele>
        <time>2013-09-29T08:13:43.000Z</time>
      </trkpt>
      <trkpt lat="48.2362" lon="3.34006">
        <ele>192</ele>
        <time>2013-09-29T08:13:44.000Z</time>
      </trkpt>
      <trkpt lat="48.23622" lon="3.34004">
        <ele>192</ele>
        <time>2013-09-29T08:13:45.000Z</time>
      </trkpt>
      <trkpt lat="48.23625" lon="3.33999">
        <ele>192</ele>
        <time>2013-09-29T08:13:46.000Z</time>
      </trkpt>
      <trkpt lat="48.23627" lon="3.33997">
        <ele>192</ele>
        <time>2013-09-29T08:13:47.000Z</time>
      </trkpt>
      <trkpt lat="48.23629" lon="3.33993">
        <ele>192</ele>
        <time>2013-09-29T08:13:48.000Z</time>
      </trkpt>
      <trkpt lat="48.23631" lon="3.33991">
        <ele>192</ele>
        <time>2013-09-29T08:13:49.000Z</time>
      </trkpt>
      <trkpt lat="48.23633" lon="3.33987">
        <ele>192</ele>
        <time>2013-09-29T08:13:50.000Z</time>
      </trkpt>
      <trkpt lat="48.23635" lon="3.33982">
        <ele>192</ele>
        <time>2013-09-29T08:13:51.000Z</time>
      </trkpt>
      <trkpt lat="48.23637" lon="3.3398">
        <ele>192</ele>
        <time>2013-09-29T08:13:52.000Z</time>
      </trkpt>
      <trkpt lat="48.2364" lon="3.33976">
        <ele>192</ele>
        <time>2013-09-29T08:13:53.000Z</time>
      </trkpt>
      <trkpt lat="48.23641" lon="3.33972">
        <ele>192</ele>
        <time>2013-09-29T08:13:54.000Z</time>
      </trkpt>
      <trkpt lat="48.23643" lon="3.33967">
        <ele>192</ele>
        <time>2013-09-29T08:13:55.000Z</time>
      </trkpt>
      <trkpt lat="48.23644" lon="3.33963">
        <ele>192</ele>
        <time>2013-09-29T08:13:56.000Z</time>
      </trkpt>
      <trkpt lat="48.23646" lon="3.33959">
        <ele>192</ele>
        <time>2013-09-29T08:13:57.000Z</time>
      </trkpt>
      <trkpt lat="48.23648" lon="3.33954">
        <ele>192</ele>
        <time>2013-09-29T08:13:58.000Z</time>
      </trkpt>
      <trkpt lat="48.23649" lon="3.3395">
        <ele>192</ele>
        <time>2013-09-29T08:13:59.000Z</time>
      </trkpt>
      <trkpt lat="48.23651" lon="3.33946">
        <ele>192</ele>
        <time>2013-09-29T08:14:00.000Z</time>
      </trkpt>
      <trkpt lat="48.23653" lon="3.33941">
        <ele>192</ele>
        <time>2013-09-29T08:14:01.000Z</time>
      </trkpt>
      <trkpt lat="48.23655" lon="3.33937">
        <ele>192</ele>
        <time>2013-09-29T08:14:02.000Z</time>
      </trkpt>
      <trkpt lat="48.23656" lon="3.33931">
        <ele>192</ele>
        <time>2013-09-29T08:14:03.000Z</time>
      </trkpt>
      <trkpt lat="48.23658" lon="3.33926">
        <ele>192</ele>
        <time>2013-09-29T08:14:04.000Z</time>
      </trkpt>
      <trkpt lat="48.2366" lon="3.33922">
        <ele>192</ele>
        <time>2013-09-29T08:14:05.000Z</time>
      </trkpt>
      <trkpt lat="48.23661" lon="3.33916">
        <ele>192</ele>
        <time>2013-09-29T08:14:06.000Z</time>
      </trkpt>
      <trkpt lat="48.23663" lon="3.33911">
        <ele>192</ele>
        <time>2013-09-29T08:14:07.000Z</time>
      </trkpt>
      <trkpt lat="48.23664" lon="3.33907">
        <ele>191</ele>
        <time>2013-09-29T08:14:08.000Z</time>
      </trkpt>
      <trkpt lat="48.23666" lon="3.33901">
        <ele>191</ele>
        <time>2013-09-29T08:14:09.000Z</time>
      </trkpt>
      <trkpt lat="48.23668" lon="3.33896">
        <ele>190</ele>
        <time>2013-09-29T08:14:10.000Z</time>
      </trkpt>
      <trkpt lat="48.2367" lon="3.33892">
        <ele>189</ele>
        <time>2013-09-29T08:14:11.000Z</time>
      </trkpt>
      <trkpt lat="48.23671" lon="3.3389">
        <ele>189</ele>
        <time>2013-09-29T08:14:12.000Z</time>
      </trkpt>
      <trkpt lat="48.23673" lon="3.33886">
        <ele>189</ele>
        <time>2013-09-29T08:14:13.000Z</time>
      </trkpt>
      <trkpt lat="48.23674" lon="3.33881">
        <ele>189</ele>
        <time>2013-09-29T08:14:14.000Z</time>
      </trkpt>
      <trkpt lat="48.23676" lon="3.33877">
        <ele>189</ele>
        <time>2013-09-29T08:14:15.000Z</time>
      </trkpt>
      <trkpt lat="48.23679" lon="3.33875">
        <ele>189</ele>
        <time>2013-09-29T08:14:16.000Z</time>
      </trkpt>
      <trkpt lat="48.23684" lon="3.33873">
        <ele>188</ele>
        <time>2013-09-29T08:14:17.000Z</time>
      </trkpt>
      <trkpt lat="48.23687" lon="3.33875">
        <ele>188</ele>
        <time>2013-09-29T08:14:18.000Z</time>
      </trkpt>
      <trkpt lat="48.23691" lon="3.33875">
        <ele>188</ele>
        <time>2013-09-29T08:14:19.000Z</time>
      </trkpt>
      <trkpt lat="48.23695" lon="3.33877">
        <ele>188</ele>
        <time>2013-09-29T08:14:20.000Z</time>
      </trkpt>
      <trkpt lat="48.23699" lon="3.33879">
        <ele>188</ele>
        <time>2013-09-29T08:14:21.000Z</time>
      </trkpt>
      <trkpt lat="48.23703" lon="3.33879">
        <ele>188</ele>
        <time>2013-09-29T08:14:22.000Z</time>
      </trkpt>
      <trkpt lat="48.23706" lon="3.33881">
        <ele>188</ele>
        <time>2013-09-29T08:14:23.000Z</time>
      </trkpt>
      <trkpt lat="48.23709" lon="3.33884">
        <ele>188</ele>
        <time>2013-09-29T08:14:24.000Z</time>
      </trkpt>
      <trkpt lat="48.23713" lon="3.33884">
        <ele>188</ele>
        <time>2013-09-29T08:14:25.000Z</time>
      </trkpt>
      <trkpt lat="48.23716" lon="3.33886">
        <ele>188</ele>
        <time>2013-09-29T08:14:26.000Z</time>
      </trkpt>
      <trkpt lat="48.23719" lon="3.33886">
        <ele>187</ele>
        <time>2013-09-29T08:14:27.000Z</time>
      </trkpt>
      <trkpt lat="48.23722" lon="3.33888">
        <ele>187</ele>
        <time>2013-09-29T08:14:28.000Z</time>
      </trkpt>
      <trkpt lat="48.23725" lon="3.33888">
        <ele>187</ele>
        <time>2013-09-29T08:14:29.000Z</time>
      </trkpt>
      <trkpt lat="48.2373" lon="3.3389">
        <ele>187</ele>
        <time>2013-09-29T08:14:30.000Z</time>
      </trkpt>
      <trkpt lat="48.23733" lon="3.33892">
        <ele>187</ele>
        <time>2013-09-29T08:14:31.000Z</time>
      </trkpt>
      <trkpt lat="48.23737" lon="3.33892">
        <ele>187</ele>
        <time>2013-09-29T08:14:32.000Z</time>
      </trkpt>
      <trkpt lat="48.23742" lon="3.33894">
        <ele>187</ele>
        <time>2013-09-29T08:14:33.000Z</time>
      </trkpt>
      <trkpt lat="48.23746" lon="3.33896">
        <ele>186</ele>
        <time>2013-09-29T08:14:34.000Z</time>
      </trkpt>
      <trkpt lat="48.2375" lon="3.33899">
        <ele>184</ele>
        <time>2013-09-29T08:14:35.000Z</time>
      </trkpt>
      <trkpt lat="48.23753" lon="3.33901">
        <ele>184</ele>
        <time>2013-09-29T08:14:36.000Z</time>
      </trkpt>
      <trkpt lat="48.23758" lon="3.33901">
        <ele>184</ele>
        <time>2013-09-29T08:14:37.000Z</time>
      </trkpt>
      <trkpt lat="48.23763" lon="3.33903">
        <ele>183</ele>
        <time>2013-09-29T08:14:38.000Z</time>
      </trkpt>
      <trkpt lat="48.23767" lon="3.33905">
        <ele>183</ele>
        <time>2013-09-29T08:14:39.000Z</time>
      </trkpt>
      <trkpt lat="48.23772" lon="3.33907">
        <ele>183</ele>
        <time>2013-09-29T08:14:40.000Z</time>
      </trkpt>
      <trkpt lat="48.23777" lon="3.33909">
        <ele>183</ele>
        <time>2013-09-29T08:14:41.000Z</time>
      </trkpt>
      <trkpt lat="48.23782" lon="3.33911">
        <ele>183</ele>
        <time>2013-09-29T08:14:42.000Z</time>
      </trkpt>
      <trkpt lat="48.23788" lon="3.33914">
        <ele>182</ele>
        <time>2013-09-29T08:14:43.000Z</time>
      </trkpt>
      <trkpt lat="48.23793" lon="3.33916">
        <ele>182</ele>
        <time>2013-09-29T08:14:44.000Z</time>
      </trkpt>
      <trkpt lat="48.23798" lon="3.3392">
        <ele>182</ele>
        <time>2013-09-29T08:14:45.000Z</time>
      </trkpt>
      <trkpt lat="48.23804" lon="3.33922">
        <ele>182</ele>
        <time>2013-09-29T08:14:46.000Z</time>
      </trkpt>
      <trkpt lat="48.23809" lon="3.33926">
        <ele>182</ele>
        <time>2013-09-29T08:14:47.000Z</time>
      </trkpt>
      <trkpt lat="48.23816" lon="3.33929">
        <ele>182</ele>
        <time>2013-09-29T08:14:48.000Z</time>
      </trkpt>
      <trkpt lat="48.23821" lon="3.33933">
        <ele>181</ele>
        <time>2013-09-29T08:14:49.000Z</time>
      </trkpt>
      <trkpt lat="48.23827" lon="3.33937">
        <ele>181</ele>
        <time>2013-09-29T08:14:50.000Z</time>
      </trkpt>
      <trkpt lat="48.23834" lon="3.33941">
        <ele>178</ele>
        <time>2013-09-29T08:14:51.000Z</time>
      </trkpt>
      <trkpt lat="48.23841" lon="3.33946">
        <ele>177</ele>
        <time>2013-09-29T08:14:52.000Z</time>
      </trkpt>
      <trkpt lat="48.23848" lon="3.33948">
        <ele>177</ele>
        <time>2013-09-29T08:14:53.000Z</time>
      </trkpt>
      <trkpt lat="48.23855" lon="3.33952">
        <ele>177</ele>
        <time>2013-09-29T08:14:54.000Z</time>
      </trkpt>
      <trkpt lat="48.23863" lon="3.33954">
        <ele>177</ele>
        <time>2013-09-29T08:14:55.000Z</time>
      </trkpt>
      <trkpt lat="48.2387" lon="3.33959">
        <ele>176</ele>
        <time>2013-09-29T08:14:56.000Z</time>
      </trkpt>
      <trkpt lat="48.23878" lon="3.33961">
        <ele>176</ele>
        <time>2013-09-29T08:14:57.000Z</time>
      </trkpt>
      <trkpt lat="48.23884" lon="3.33965">
        <ele>176</ele>
        <time>2013-09-29T08:14:58.000Z</time>
      </trkpt>
      <trkpt lat="48.23892" lon="3.33969">
        <ele>175</ele>
        <time>2013-09-29T08:14:59.000Z</time>
      </trkpt>
      <trkpt lat="48.23899" lon="3.33972">
        <ele>175</ele>
        <time>2013-09-29T08:15:00.000Z</time>
      </trkpt>
      <trkpt lat="48.23906" lon="3.33974">
        <ele>175</ele>
        <time>2013-09-29T08:15:01.000Z</time>
      </trkpt>
      <trkpt lat="48.23913" lon="3.33976">
        <ele>175</ele>
        <time>2013-09-29T08:15:02.000Z</time>
      </trkpt>
      <trkpt lat="48.23921" lon="3.33978">
        <ele>170</ele>
        <time>2013-09-29T08:15:03.000Z</time>
      </trkpt>
      <trkpt lat="48.23928" lon="3.33978">
        <ele>170</ele>
        <time>2013-09-29T08:15:04.000Z</time>
      </trkpt>
      <trkpt lat="48.23933" lon="3.3398">
        <ele>170</ele>
        <time>2013-09-29T08:15:05.000Z</time>
      </trkpt>
      <trkpt lat="48.23938" lon="3.3398">
        <ele>169</ele>
        <time>2013-09-29T08:15:06.000Z</time>
      </trkpt>
      <trkpt lat="48.23943" lon="3.3398">
        <ele>169</ele>
        <time>2013-09-29T08:15:07.000Z</time>
      </trkpt>
      <trkpt lat="48.23949" lon="3.3398">
        <ele>168</ele>
        <time>2013-09-29T08:15:08.000Z</time>
      </trkpt>
      <trkpt lat="48.23954" lon="3.3398">
        <ele>168</ele>
        <time>2013-09-29T08:15:09.000Z</time>
      </trkpt>
      <trkpt lat="48.2396" lon="3.33982">
        <ele>168</ele>
        <time>2013-09-29T08:15:10.000Z</time>
      </trkpt>
      <trkpt lat="48.23966" lon="3.3398">
        <ele>167</ele>
        <time>2013-09-29T08:15:11.000Z</time>
      </trkpt>
      <trkpt lat="48.23972" lon="3.3398">
        <ele>167</ele>
        <time>2013-09-29T08:15:12.000Z</time>
      </trkpt>
      <trkpt lat="48.23979" lon="3.3398">
        <ele>166</ele>
        <time>2013-09-29T08:15:13.000Z</time>
      </trkpt>
      <trkpt lat="48.23985" lon="3.33978">
        <ele>166</ele>
        <time>2013-09-29T08:15:14.000Z</time>
      </trkpt>
      <trkpt lat="48.23992" lon="3.33978">
        <ele>166</ele>
        <time>2013-09-29T08:15:15.000Z</time>
      </trkpt>
      <trkpt lat="48.23998" lon="3.33976">
        <ele>166</ele>
        <time>2013-09-29T08:15:16.000Z</time>
      </trkpt>
      <trkpt lat="48.24003" lon="3.33976">
        <ele>161</ele>
        <time>2013-09-29T08:15:17.000Z</time>
      </trkpt>
      <trkpt lat="48.2401" lon="3.33976">
        <ele>161</ele>
        <time>2013-09-29T08:15:18.000Z</time>
      </trkpt>
      <trkpt lat="48.24015" lon="3.33974">
        <ele>161</ele>
        <time>2013-09-29T08:15:19.000Z</time>
      </trkpt>
      <trkpt lat="48.24022" lon="3.33974">
        <ele>161</ele>
        <time>2013-09-29T08:15:20.000Z</time>
      </trkpt>
      <trkpt lat="48.24027" lon="3.33974">
        <ele>160</ele>
        <time>2013-09-29T08:15:21.000Z</time>
      </trkpt>
      <trkpt lat="48.24032" lon="3.33974">
        <ele>160</ele>
        <time>2013-09-29T08:15:22.000Z</time>
      </trkpt>
      <trkpt lat="48.24038" lon="3.33974">
        <ele>160</ele>
        <time>2013-09-29T08:15:23.000Z</time>
      </trkpt>
      <trkpt lat="48.24044" lon="3.33974">
        <ele>160</ele>
        <time>2013-09-29T08:15:24.000Z</time>
      </trkpt>
      <trkpt lat="48.24049" lon="3.33976">
        <ele>160</ele>
        <time>2013-09-29T08:15:25.000Z</time>
      </trkpt>
      <trkpt lat="48.24055" lon="3.33976">
        <ele>159</ele>
        <time>2013-09-29T08:15:26.000Z</time>
      </trkpt>
      <trkpt lat="48.2406" lon="3.33976">
        <ele>159</ele>
        <time>2013-09-29T08:15:27.000Z</time>
      </trkpt>
      <trkpt lat="48.24066" lon="3.33978">
        <ele>159</ele>
        <time>2013-09-29T08:15:28.000Z</time>
      </trkpt>
      <trkpt lat="48.24071" lon="3.33978">
        <ele>159</ele>
        <time>2013-09-29T08:15:29.000Z</time>
      </trkpt>
      <trkpt lat="48.24076" lon="3.33978">
        <ele>159</ele>
        <time>2013-09-29T08:15:30.000Z</time>
      </trkpt>
      <trkpt lat="48.24082" lon="3.3398">
        <ele>159</ele>
        <time>2013-09-29T08:15:31.000Z</time>
      </trkpt>
      <trkpt lat="48.24086" lon="3.3398">
        <ele>156</ele>
        <time>2013-09-29T08:15:32.000Z</time>
      </trkpt>
      <trkpt lat="48.24091" lon="3.3398">
        <ele>156</ele>
        <time>2013-09-29T08:15:33.000Z</time>
      </trkpt>
      <trkpt lat="48.24097" lon="3.33982">
        <ele>156</ele>
        <time>2013-09-29T08:15:34.000Z</time>
      </trkpt>
      <trkpt lat="48.24101" lon="3.33982">
        <ele>155</ele>
        <time>2013-09-29T08:15:35.000Z</time>
      </trkpt>
      <trkpt lat="48.24106" lon="3.33982">
        <ele>155</ele>
        <time>2013-09-29T08:15:36.000Z</time>
      </trkpt>
      <trkpt lat="48.24111" lon="3.33984">
        <ele>155</ele>
        <time>2013-09-29T08:15:37.000Z</time>
      </trkpt>
      <trkpt lat="48.24116" lon="3.33984">
        <ele>154</ele>
        <time>2013-09-29T08:15:38.000Z</time>
      </trkpt>
      <trkpt lat="48.2412" lon="3.33987">
        <ele>154</ele>
        <time>2013-09-29T08:15:39.000Z</time>
      </trkpt>
      <trkpt lat="48.24126" lon="3.33987">
        <ele>154</ele>
        <time>2013-09-29T08:15:40.000Z</time>
      </trkpt>
      <trkpt lat="48.2413" lon="3.33989">
        <ele>154</ele>
        <time>2013-09-29T08:15:41.000Z</time>
      </trkpt>
      <trkpt lat="48.24135" lon="3.33989">
        <ele>153</ele>
        <time>2013-09-29T08:15:42.000Z</time>
      </trkpt>
      <trkpt lat="48.24141" lon="3.33991">
        <ele>153</ele>
        <time>2013-09-29T08:15:43.000Z</time>
      </trkpt>
      <trkpt lat="48.24145" lon="3.33993">
        <ele>153</ele>
        <time>2013-09-29T08:15:44.000Z</time>
      </trkpt>
      <trkpt lat="48.2415" lon="3.33995">
        <ele>153</ele>
        <time>2013-09-29T08:15:45.000Z</time>
      </trkpt>
      <trkpt lat="48.24156" lon="3.33997">
        <ele>153</ele>
        <time>2013-09-29T08:15:46.000Z</time>
      </trkpt>
      <trkpt lat="48.2416" lon="3.33999">
        <ele>152</ele>
        <time>2013-09-29T08:15:47.000Z</time>
      </trkpt>
      <trkpt lat="48.24165" lon="3.34002">
        <ele>152</ele>
        <time>2013-09-29T08:15:48.000Z</time>
      </trkpt>
      <trkpt lat="48.24171" lon="3.34004">
        <ele>151</ele>
        <time>2013-09-29T08:15:49.000Z</time>
      </trkpt>
      <trkpt lat="48.24175" lon="3.34006">
        <ele>151</ele>
        <time>2013-09-29T08:15:50.000Z</time>
      </trkpt>
      <trkpt lat="48.2418" lon="3.34008">
        <ele>150</ele>
        <time>2013-09-29T08:15:51.000Z</time>
      </trkpt>
      <trkpt lat="48.24186" lon="3.3401">
        <ele>150</ele>
        <time>2013-09-29T08:15:52.000Z</time>
      </trkpt>
      <trkpt lat="48.24191" lon="3.34014">
        <ele>150</ele>
        <time>2013-09-29T08:15:53.000Z</time>
      </trkpt>
      <trkpt lat="48.24198" lon="3.34017">
        <ele>149</ele>
        <time>2013-09-29T08:15:54.000Z</time>
      </trkpt>
      <trkpt lat="48.24203" lon="3.34023">
        <ele>149</ele>
        <time>2013-09-29T08:15:55.000Z</time>
      </trkpt>
      <trkpt lat="48.24208" lon="3.34027">
        <ele>149</ele>
        <time>2013-09-29T08:15:56.000Z</time>
      </trkpt>
      <trkpt lat="48.24215" lon="3.34034">
        <ele>148</ele>
        <time>2013-09-29T08:15:57.000Z</time>
      </trkpt>
      <trkpt lat="48.24221" lon="3.34038">
        <ele>148</ele>
        <time>2013-09-29T08:15:58.000Z</time>
      </trkpt>
      <trkpt lat="48.24228" lon="3.34042">
        <ele>148</ele>
        <time>2013-09-29T08:15:59.000Z</time>
      </trkpt>
      <trkpt lat="48.24233" lon="3.34047">
        <ele>148</ele>
        <time>2013-09-29T08:16:00.000Z</time>
      </trkpt>
      <trkpt lat="48.24239" lon="3.34051">
        <ele>148</ele>
        <time>2013-09-29T08:16:01.000Z</time>
      </trkpt>
      <trkpt lat="48.24247" lon="3.34053">
        <ele>147</ele>
        <time>2013-09-29T08:16:02.000Z</time>
      </trkpt>
      <trkpt lat="48.24251" lon="3.34055">
        <ele>143</ele>
        <time>2013-09-29T08:16:03.000Z</time>
      </trkpt>
      <trkpt lat="48.24257" lon="3.34057">
        <ele>143</ele>
        <time>2013-09-29T08:16:04.000Z</time>
      </trkpt>
      <trkpt lat="48.24263" lon="3.34059">
        <ele>143</ele>
        <time>2013-09-29T08:16:05.000Z</time>
      </trkpt>
      <trkpt lat="48.24269" lon="3.34059">
        <ele>143</ele>
        <time>2013-09-29T08:16:06.000Z</time>
      </trkpt>
      <trkpt lat="48.24277" lon="3.34059">
        <ele>142</ele>
        <time>2013-09-29T08:16:07.000Z</time>
      </trkpt>
      <trkpt lat="48.24286" lon="3.34062">
        <ele>142</ele>
        <time>2013-09-29T08:16:08.000Z</time>
      </trkpt>
      <trkpt lat="48.24292" lon="3.34062">
        <ele>141</ele>
        <time>2013-09-29T08:16:09.000Z</time>
      </trkpt>
      <trkpt lat="48.24299" lon="3.34059">
        <ele>141</ele>
        <time>2013-09-29T08:16:10.000Z</time>
      </trkpt>
      <trkpt lat="48.24305" lon="3.34059">
        <ele>141</ele>
        <time>2013-09-29T08:16:11.000Z</time>
      </trkpt>
      <trkpt lat="48.24312" lon="3.34057">
        <ele>140</ele>
        <time>2013-09-29T08:16:12.000Z</time>
      </trkpt>
      <trkpt lat="48.24319" lon="3.34055">
        <ele>140</ele>
        <time>2013-09-29T08:16:13.000Z</time>
      </trkpt>
      <trkpt lat="48.24325" lon="3.34053">
        <ele>140</ele>
        <time>2013-09-29T08:16:14.000Z</time>
      </trkpt>
      <trkpt lat="48.24332" lon="3.34051">
        <ele>140</ele>
        <time>2013-09-29T08:16:15.000Z</time>
      </trkpt>
      <trkpt lat="48.24338" lon="3.34047">
        <ele>136</ele>
        <time>2013-09-29T08:16:16.000Z</time>
      </trkpt>
      <trkpt lat="48.24345" lon="3.34042">
        <ele>136</ele>
        <time>2013-09-29T08:16:17.000Z</time>
      </trkpt>
      <trkpt lat="48.2435" lon="3.34038">
        <ele>136</ele>
        <time>2013-09-29T08:16:18.000Z</time>
      </trkpt>
      <trkpt lat="48.24354" lon="3.34034">
        <ele>136</ele>
        <time>2013-09-29T08:16:19.000Z</time>
      </trkpt>
      <trkpt lat="48.24358" lon="3.34027">
        <ele>136</ele>
        <time>2013-09-29T08:16:20.000Z</time>
      </trkpt>
      <trkpt lat="48.24364" lon="3.34023">
        <ele>136</ele>
        <time>2013-09-29T08:16:21.000Z</time>
      </trkpt>
      <trkpt lat="48.24368" lon="3.34017">
        <ele>135</ele>
        <time>2013-09-29T08:16:22.000Z</time>
      </trkpt>
      <trkpt lat="48.24372" lon="3.3401">
        <ele>135</ele>
        <time>2013-09-29T08:16:23.000Z</time>
      </trkpt>
      <trkpt lat="48.24376" lon="3.34006">
        <ele>135</ele>
        <time>2013-09-29T08:16:24.000Z</time>
      </trkpt>
      <trkpt lat="48.2438" lon="3.33999">
        <ele>137</ele>
        <time>2013-09-29T08:16:25.000Z</time>
      </trkpt>
      <trkpt lat="48.24383" lon="3.33995">
        <ele>137</ele>
        <time>2013-09-29T08:16:26.000Z</time>
      </trkpt>
      <trkpt lat="48.24386" lon="3.33989">
        <ele>137</ele>
        <time>2013-09-29T08:16:27.000Z</time>
      </trkpt>
      <trkpt lat="48.2439" lon="3.33984">
        <ele>137</ele>
        <time>2013-09-29T08:16:28.000Z</time>
      </trkpt>
      <trkpt lat="48.24393" lon="3.33978">
        <ele>137</ele>
        <time>2013-09-29T08:16:29.000Z</time>
      </trkpt>
      <trkpt lat="48.24395" lon="3.33972">
        <ele>137</ele>
        <time>2013-09-29T08:16:30.000Z</time>
      </trkpt>
      <trkpt lat="48.24398" lon="3.33967">
        <ele>137</ele>
        <time>2013-09-29T08:16:31.000Z</time>
      </trkpt>
      <trkpt lat="48.244" lon="3.33961">
        <ele>137</ele>
        <time>2013-09-29T08:16:32.000Z</time>
      </trkpt>
      <trkpt lat="48.24402" lon="3.33956">
        <ele>137</ele>
        <time>2013-09-29T08:16:33.000Z</time>
      </trkpt>
      <trkpt lat="48.24406" lon="3.3395">
        <ele>137</ele>
        <time>2013-09-29T08:16:34.000Z</time>
      </trkpt>
      <trkpt lat="48.24408" lon="3.33946">
        <ele>137</ele>
        <time>2013-09-29T08:16:35.000Z</time>
      </trkpt>
      <trkpt lat="48.2441" lon="3.33939">
        <ele>138</ele>
        <time>2013-09-29T08:16:36.000Z</time>
      </trkpt>
      <trkpt lat="48.24412" lon="3.33935">
        <ele>137</ele>
        <time>2013-09-29T08:16:37.000Z</time>
      </trkpt>
      <trkpt lat="48.24414" lon="3.33929">
        <ele>137</ele>
        <time>2013-09-29T08:16:38.000Z</time>
      </trkpt>
      <trkpt lat="48.24415" lon="3.33924">
        <ele>137</ele>
        <time>2013-09-29T08:16:39.000Z</time>
      </trkpt>
      <trkpt lat="48.24417" lon="3.33918">
        <ele>136</ele>
        <time>2013-09-29T08:16:40.000Z</time>
      </trkpt>
      <trkpt lat="48.2442" lon="3.33911">
        <ele>135</ele>
        <time>2013-09-29T08:16:41.000Z</time>
      </trkpt>
      <trkpt lat="48.24422" lon="3.33905">
        <ele>133</ele>
        <time>2013-09-29T08:16:42.000Z</time>
      </trkpt>
      <trkpt lat="48.24424" lon="3.33901">
        <ele>132</ele>
        <time>2013-09-29T08:16:43.000Z</time>
      </trkpt>
      <trkpt lat="48.24426" lon="3.33896">
        <ele>131</ele>
        <time>2013-09-29T08:16:44.000Z</time>
      </trkpt>
      <trkpt lat="48.24428" lon="3.3389">
        <ele>131</ele>
        <time>2013-09-29T08:16:45.000Z</time>
      </trkpt>
      <trkpt lat="48.2443" lon="3.33886">
        <ele>130</ele>
        <time>2013-09-29T08:16:46.000Z</time>
      </trkpt>
      <trkpt lat="48.24432" lon="3.33879">
        <ele>130</ele>
        <time>2013-09-29T08:16:47.000Z</time>
      </trkpt>
      <trkpt lat="48.24435" lon="3.33875">
        <ele>129</ele>
        <time>2013-09-29T08:16:48.000Z</time>
      </trkpt>
      <trkpt lat="48.24437" lon="3.33871">
        <ele>129</ele>
        <time>2013-09-29T08:16:49.000Z</time>
      </trkpt>
      <trkpt lat="48.24439" lon="3.33866">
        <ele>129</ele>
        <time>2013-09-29T08:16:50.000Z</time>
      </trkpt>
      <trkpt lat="48.24441" lon="3.33862">
        <ele>129</ele>
        <time>2013-09-29T08:16:51.000Z</time>
      </trkpt>
      <trkpt lat="48.24443" lon="3.33858">
        <ele>129</ele>
        <time>2013-09-29T08:16:52.000Z</time>
      </trkpt>
      <trkpt lat="48.24445" lon="3.33856">
        <ele>128</ele>
        <time>2013-09-29T08:16:53.000Z</time>
      </trkpt>
      <trkpt lat="48.24448" lon="3.33851">
        <ele>128</ele>
        <time>2013-09-29T08:16:54.000Z</time>
      </trkpt>
      <trkpt lat="48.24449" lon="3.33847">
        <ele>128</ele>
        <time>2013-09-29T08:16:55.000Z</time>
      </trkpt>
      <trkpt lat="48.24451" lon="3.33843">
        <ele>128</ele>
        <time>2013-09-29T08:16:56.000Z</time>
      </trkpt>
      <trkpt lat="48.24453" lon="3.33838">
        <ele>128</ele>
        <time>2013-09-29T08:16:57.000Z</time>
      </trkpt>
      <trkpt lat="48.24455" lon="3.33836">
        <ele>127</ele>
        <time>2013-09-29T08:16:58.000Z</time>
      </trkpt>
      <trkpt lat="48.24457" lon="3.33832">
        <ele>125</ele>
        <time>2013-09-29T08:16:59.000Z</time>
      </trkpt>
      <trkpt lat="48.24458" lon="3.33828">
        <ele>125</ele>
        <time>2013-09-29T08:17:00.000Z</time>
      </trkpt>
      <trkpt lat="48.2446" lon="3.33823">
        <ele>124</ele>
        <time>2013-09-29T08:17:01.000Z</time>
      </trkpt>
      <trkpt lat="48.2446" lon="3.33823">
        <ele>124</ele>
        <time>2013-09-29T08:17:04.000Z</time>
      </trkpt>
      <trkpt lat="48.24466" lon="3.33808">
        <ele>124</ele>
        <time>2013-09-29T08:17:05.000Z</time>
      </trkpt>
      <trkpt lat="48.24466" lon="3.33808">
        <ele>124</ele>
        <time>2013-09-29T08:17:08.000Z</time>
      </trkpt>
      <trkpt lat="48.24472" lon="3.33796">
        <ele>123</ele>
        <time>2013-09-29T08:17:09.000Z</time>
      </trkpt>
      <trkpt lat="48.24472" lon="3.33796">
        <ele>123</ele>
        <time>2013-09-29T08:17:12.000Z</time>
      </trkpt>
      <trkpt lat="48.24481" lon="3.33785">
        <ele>122</ele>
        <time>2013-09-29T08:17:13.000Z</time>
      </trkpt>
      <trkpt lat="48.24486" lon="3.33783">
        <ele>121</ele>
        <time>2013-09-29T08:17:14.000Z</time>
      </trkpt>
      <trkpt lat="48.24492" lon="3.33783">
        <ele>121</ele>
        <time>2013-09-29T08:17:15.000Z</time>
      </trkpt>
      <trkpt lat="48.24499" lon="3.33783">
        <ele>120</ele>
        <time>2013-09-29T08:17:16.000Z</time>
      </trkpt>
      <trkpt lat="48.24507" lon="3.33783">
        <ele>112</ele>
        <time>2013-09-29T08:17:17.000Z</time>
      </trkpt>
      <trkpt lat="48.24515" lon="3.33783">
        <ele>111</ele>
        <time>2013-09-29T08:17:18.000Z</time>
      </trkpt>
      <trkpt lat="48.24524" lon="3.33783">
        <ele>111</ele>
        <time>2013-09-29T08:17:19.000Z</time>
      </trkpt>
      <trkpt lat="48.24532" lon="3.33783">
        <ele>111</ele>
        <time>2013-09-29T08:17:20.000Z</time>
      </trkpt>
      <trkpt lat="48.24541" lon="3.33783">
        <ele>110</ele>
        <time>2013-09-29T08:17:21.000Z</time>
      </trkpt>
      <trkpt lat="48.24549" lon="3.33783">
        <ele>109</ele>
        <time>2013-09-29T08:17:22.000Z</time>
      </trkpt>
      <trkpt lat="48.24558" lon="3.33783">
        <ele>109</ele>
        <time>2013-09-29T08:17:23.000Z</time>
      </trkpt>
      <trkpt lat="48.24567" lon="3.33783">
        <ele>108</ele>
        <time>2013-09-29T08:17:24.000Z</time>
      </trkpt>
      <trkpt lat="48.24575" lon="3.33783">
        <ele>108</ele>
        <time>2013-09-29T08:17:25.000Z</time>
      </trkpt>
      <trkpt lat="48.24585" lon="3.33783">
        <ele>102</ele>
        <time>2013-09-29T08:17:26.000Z</time>
      </trkpt>
      <trkpt lat="48.24593" lon="3.33781">
        <ele>102</ele>
        <time>2013-09-29T08:17:27.000Z</time>
      </trkpt>
      <trkpt lat="48.24603" lon="3.33781">
        <ele>102</ele>
        <time>2013-09-29T08:17:28.000Z</time>
      </trkpt>
      <trkpt lat="48.24613" lon="3.33781">
        <ele>102</ele>
        <time>2013-09-29T08:17:29.000Z</time>
      </trkpt>
      <trkpt lat="48.24621" lon="3.33781">
        <ele>101</ele>
        <time>2013-09-29T08:17:30.000Z</time>
      </trkpt>
      <trkpt lat="48.24631" lon="3.33781">
        <ele>101</ele>
        <time>2013-09-29T08:17:31.000Z</time>
      </trkpt>
      <trkpt lat="48.2464" lon="3.33781">
        <ele>100</ele>
        <time>2013-09-29T08:17:32.000Z</time>
      </trkpt>
      <trkpt lat="48.24648" lon="3.33778">
        <ele>100</ele>
        <time>2013-09-29T08:17:33.000Z</time>
      </trkpt>
      <trkpt lat="48.2465" lon="3.33755">
        <ele>99</ele>
        <time>2013-09-29T08:17:34.000Z</time>
      </trkpt>
      <trkpt lat="48.24654" lon="3.3374">
        <ele>99</ele>
        <time>2013-09-29T08:17:35.000Z</time>
      </trkpt>
      <trkpt lat="48.2466" lon="3.33731">
        <ele>99</ele>
        <time>2013-09-29T08:17:36.000Z</time>
      </trkpt>
      <trkpt lat="48.24666" lon="3.33725">
        <ele>99</ele>
        <time>2013-09-29T08:17:37.000Z</time>
      </trkpt>
      <trkpt lat="48.24674" lon="3.33723">
        <ele>96</ele>
        <time>2013-09-29T08:17:38.000Z</time>
      </trkpt>
      <trkpt lat="48.24682" lon="3.3372">
        <ele>96</ele>
        <time>2013-09-29T08:17:39.000Z</time>
      </trkpt>
      <trkpt lat="48.2469" lon="3.3372">
        <ele>96</ele>
        <time>2013-09-29T08:17:40.000Z</time>
      </trkpt>
      <trkpt lat="48.24699" lon="3.33718">
        <ele>95</ele>
        <time>2013-09-29T08:17:41.000Z</time>
      </trkpt>
      <trkpt lat="48.24707" lon="3.33718">
        <ele>95</ele>
        <time>2013-09-29T08:17:42.000Z</time>
      </trkpt>
      <trkpt lat="48.24716" lon="3.33718">
        <ele>95</ele>
        <time>2013-09-29T08:17:43.000Z</time>
      </trkpt>
      <trkpt lat="48.24724" lon="3.3372">
        <ele>95</ele>
        <time>2013-09-29T08:17:44.000Z</time>
      </trkpt>
      <trkpt lat="48.24733" lon="3.3372">
        <ele>95</ele>
        <time>2013-09-29T08:17:45.000Z</time>
      </trkpt>
      <trkpt lat="48.24741" lon="3.33723">
        <ele>95</ele>
        <time>2013-09-29T08:17:46.000Z</time>
      </trkpt>
      <trkpt lat="48.2475" lon="3.33725">
        <ele>93</ele>
        <time>2013-09-29T08:17:47.000Z</time>
      </trkpt>
      <trkpt lat="48.24759" lon="3.33727">
        <ele>93</ele>
        <time>2013-09-29T08:17:48.000Z</time>
      </trkpt>
      <trkpt lat="48.24766" lon="3.33731">
        <ele>93</ele>
        <time>2013-09-29T08:17:49.000Z</time>
      </trkpt>
      <trkpt lat="48.24774" lon="3.33733">
        <ele>93</ele>
        <time>2013-09-29T08:17:50.000Z</time>
      </trkpt>
      <trkpt lat="48.24781" lon="3.33735">
        <ele>93</ele>
        <time>2013-09-29T08:17:51.000Z</time>
      </trkpt>
      <trkpt lat="48.24789" lon="3.33738">
        <ele>93</ele>
        <time>2013-09-29T08:17:52.000Z</time>
      </trkpt>
      <trkpt lat="48.24796" lon="3.3374">
        <ele>93</ele>
        <time>2013-09-29T08:17:53.000Z</time>
      </trkpt>
      <trkpt lat="48.24803" lon="3.33742">
        <ele>93</ele>
        <time>2013-09-29T08:17:54.000Z</time>
      </trkpt>
      <trkpt lat="48.2481" lon="3.33742">
        <ele>93</ele>
        <time>2013-09-29T08:17:55.000Z</time>
      </trkpt>
      <trkpt lat="48.24818" lon="3.33744">
        <ele>93</ele>
        <time>2013-09-29T08:17:56.000Z</time>
      </trkpt>
      <trkpt lat="48.24824" lon="3.33744">
        <ele>93</ele>
        <time>2013-09-29T08:17:57.000Z</time>
      </trkpt>
      <trkpt lat="48.24831" lon="3.33744">
        <ele>93</ele>
        <time>2013-09-29T08:17:58.000Z</time>
      </trkpt>
      <trkpt lat="48.24837" lon="3.33744">
        <ele>93</ele>
        <time>2013-09-29T08:17:59.000Z</time>
      </trkpt>
      <trkpt lat="48.24843" lon="3.33742">
        <ele>93</ele>
        <time>2013-09-29T08:18:00.000Z</time>
      </trkpt>
      <trkpt lat="48.24849" lon="3.3374">
        <ele>93</ele>
        <time>2013-09-29T08:18:01.000Z</time>
      </trkpt>
      <trkpt lat="48.24855" lon="3.33738">
        <ele>93</ele>
        <time>2013-09-29T08:18:02.000Z</time>
      </trkpt>
      <trkpt lat="48.24861" lon="3.33733">
        <ele>93</ele>
        <time>2013-09-29T08:18:03.000Z</time>
      </trkpt>
      <trkpt lat="48.24866" lon="3.33731">
        <ele>93</ele>
        <time>2013-09-29T08:18:04.000Z</time>
      </trkpt>
      <trkpt lat="48.24871" lon="3.33727">
        <ele>93</ele>
        <time>2013-09-29T08:18:05.000Z</time>
      </trkpt>
      <trkpt lat="48.24877" lon="3.33725">
        <ele>93</ele>
        <time>2013-09-29T08:18:06.000Z</time>
      </trkpt>
      <trkpt lat="48.24882" lon="3.3372">
        <ele>93</ele>
        <time>2013-09-29T08:18:07.000Z</time>
      </trkpt>
      <trkpt lat="48.24887" lon="3.33718">
        <ele>93</ele>
        <time>2013-09-29T08:18:08.000Z</time>
      </trkpt>
      <trkpt lat="48.24893" lon="3.33716">
        <ele>93</ele>
        <time>2013-09-29T08:18:09.000Z</time>
      </trkpt>
      <trkpt lat="48.24898" lon="3.33714">
        <ele>93</ele>
        <time>2013-09-29T08:18:10.000Z</time>
      </trkpt>
      <trkpt lat="48.24903" lon="3.33714">
        <ele>93</ele>
        <time>2013-09-29T08:18:11.000Z</time>
      </trkpt>
      <trkpt lat="48.24909" lon="3.33712">
        <ele>94</ele>
        <time>2013-09-29T08:18:12.000Z</time>
      </trkpt>
      <trkpt lat="48.24914" lon="3.33712">
        <ele>94</ele>
        <time>2013-09-29T08:18:13.000Z</time>
      </trkpt>
      <trkpt lat="48.24919" lon="3.33712">
        <ele>95</ele>
        <time>2013-09-29T08:18:14.000Z</time>
      </trkpt>
      <trkpt lat="48.24924" lon="3.33712">
        <ele>95</ele>
        <time>2013-09-29T08:18:15.000Z</time>
      </trkpt>
      <trkpt lat="48.24929" lon="3.3371">
        <ele>95</ele>
        <time>2013-09-29T08:18:16.000Z</time>
      </trkpt>
      <trkpt lat="48.24935" lon="3.3371">
        <ele>95</ele>
        <time>2013-09-29T08:18:17.000Z</time>
      </trkpt>
      <trkpt lat="48.2494" lon="3.3371">
        <ele>95</ele>
        <time>2013-09-29T08:18:18.000Z</time>
      </trkpt>
      <trkpt lat="48.24944" lon="3.3371">
        <ele>95</ele>
        <time>2013-09-29T08:18:19.000Z</time>
      </trkpt>
      <trkpt lat="48.24949" lon="3.3371">
        <ele>96</ele>
        <time>2013-09-29T08:18:20.000Z</time>
      </trkpt>
      <trkpt lat="48.24953" lon="3.3371">
        <ele>96</ele>
        <time>2013-09-29T08:18:21.000Z</time>
      </trkpt>
      <trkpt lat="48.24957" lon="3.3371">
        <ele>96</ele>
        <time>2013-09-29T08:18:22.000Z</time>
      </trkpt>
      <trkpt lat="48.2496" lon="3.3371">
        <ele>96</ele>
        <time>2013-09-29T08:18:23.000Z</time>
      </trkpt>
      <trkpt lat="48.24964" lon="3.3371">
        <ele>96</ele>
        <time>2013-09-29T08:18:24.000Z</time>
      </trkpt>
      <trkpt lat="48.24967" lon="3.3371">
        <ele>96</ele>
        <time>2013-09-29T08:18:25.000Z</time>
      </trkpt>
      <trkpt lat="48.2497" lon="3.3371">
        <ele>96</ele>
        <time>2013-09-29T08:18:26.000Z</time>
      </trkpt>
      <trkpt lat="48.24972" lon="3.3371">
        <ele>96</ele>
        <time>2013-09-29T08:18:29.000Z</time>
      </trkpt>
      <trkpt lat="48.24976" lon="3.33714">
        <ele>96</ele>
        <time>2013-09-29T08:18:30.000Z</time>
      </trkpt>
      <trkpt lat="48.24976" lon="3.33714">
        <ele>96</ele>
        <time>2013-09-29T08:18:32.000Z</time>
      </trkpt>
      <trkpt lat="48.24981" lon="3.33718">
        <ele>96</ele>
        <time>2013-09-29T08:18:33.000Z</time>
      </trkpt>
      <trkpt lat="48.24981" lon="3.33718">
        <ele>96</ele>
        <time>2013-09-29T08:18:38.000Z</time>
      </trkpt>
      <trkpt lat="48.24982" lon="3.33708">
        <ele>96</ele>
        <time>2013-09-29T08:18:39.000Z</time>
      </trkpt>
      <trkpt lat="48.24983" lon="3.33703">
        <ele>96</ele>
        <time>2013-09-29T08:18:40.000Z</time>
      </trkpt>
      <trkpt lat="48.24982" lon="3.33697">
        <ele>96</ele>
        <time>2013-09-29T08:18:41.000Z</time>
      </trkpt>
      <trkpt lat="48.24982" lon="3.33693">
        <ele>96</ele>
        <time>2013-09-29T08:18:42.000Z</time>
      </trkpt>
      <trkpt lat="48.24981" lon="3.33686">
        <ele>96</ele>
        <time>2013-09-29T08:18:43.000Z</time>
      </trkpt>
      <trkpt lat="48.2498" lon="3.3368">
        <ele>96</ele>
        <time>2013-09-29T08:18:44.000Z</time>
      </trkpt>
      <trkpt lat="48.24979" lon="3.33675">
        <ele>96</ele>
        <time>2013-09-29T08:18:45.000Z</time>
      </trkpt>
      <trkpt lat="48.24978" lon="3.33669">
        <ele>96</ele>
        <time>2013-09-29T08:18:46.000Z</time>
      </trkpt>
      <trkpt lat="48.24976" lon="3.33663">
        <ele>96</ele>
        <time>2013-09-29T08:18:47.000Z</time>
      </trkpt>
      <trkpt lat="48.24975" lon="3.33658">
        <ele>96</ele>
        <time>2013-09-29T08:18:48.000Z</time>
      </trkpt>
      <trkpt lat="48.24974" lon="3.33652">
        <ele>96</ele>
        <time>2013-09-29T08:18:49.000Z</time>
      </trkpt>
      <trkpt lat="48.24974" lon="3.33645">
        <ele>95</ele>
        <time>2013-09-29T08:18:50.000Z</time>
      </trkpt>
      <trkpt lat="48.24973" lon="3.33639">
        <ele>95</ele>
        <time>2013-09-29T08:18:51.000Z</time>
      </trkpt>
      <trkpt lat="48.24972" lon="3.33632">
        <ele>95</ele>
        <time>2013-09-29T08:18:52.000Z</time>
      </trkpt>
      <trkpt lat="48.24971" lon="3.33626">
        <ele>95</ele>
        <time>2013-09-29T08:18:53.000Z</time>
      </trkpt>
      <trkpt lat="48.2497" lon="3.3362">
        <ele>95</ele>
        <time>2013-09-29T08:18:54.000Z</time>
      </trkpt>
      <trkpt lat="48.24969" lon="3.33611">
        <ele>95</ele>
        <time>2013-09-29T08:18:55.000Z</time>
      </trkpt>
      <trkpt lat="48.24968" lon="3.33605">
        <ele>95</ele>
        <time>2013-09-29T08:18:56.000Z</time>
      </trkpt>
      <trkpt lat="48.24967" lon="3.33596">
        <ele>95</ele>
        <time>2013-09-29T08:18:57.000Z</time>
      </trkpt>
      <trkpt lat="48.24966" lon="3.3359">
        <ele>95</ele>
        <time>2013-09-29T08:18:58.000Z</time>
      </trkpt>
      <trkpt lat="48.24965" lon="3.33583">
        <ele>95</ele>
        <time>2013-09-29T08:18:59.000Z</time>
      </trkpt>
      <trkpt lat="48.24964" lon="3.33575">
        <ele>95</ele>
        <time>2013-09-29T08:19:00.000Z</time>
      </trkpt>
      <trkpt lat="48.24962" lon="3.33568">
        <ele>95</ele>
        <time>2013-09-29T08:19:01.000Z</time>
      </trkpt>
      <trkpt lat="48.24961" lon="3.3356">
        <ele>95</ele>
        <time>2013-09-29T08:19:02.000Z</time>
      </trkpt>
      <trkpt lat="48.24961" lon="3.33551">
        <ele>95</ele>
        <time>2013-09-29T08:19:03.000Z</time>
      </trkpt>
      <trkpt lat="48.2496" lon="3.33544">
        <ele>95</ele>
        <time>2013-09-29T08:19:04.000Z</time>
      </trkpt>
      <trkpt lat="48.24959" lon="3.33538">
        <ele>95</ele>
        <time>2013-09-29T08:19:05.000Z</time>
      </trkpt>
      <trkpt lat="48.24958" lon="3.33529">
        <ele>94</ele>
        <time>2013-09-29T08:19:06.000Z</time>
      </trkpt>
      <trkpt lat="48.24957" lon="3.33523">
        <ele>94</ele>
        <time>2013-09-29T08:19:07.000Z</time>
      </trkpt>
      <trkpt lat="48.24956" lon="3.33514">
        <ele>94</ele>
        <time>2013-09-29T08:19:08.000Z</time>
      </trkpt>
      <trkpt lat="48.24955" lon="3.33508">
        <ele>94</ele>
        <time>2013-09-29T08:19:09.000Z</time>
      </trkpt>
      <trkpt lat="48.24954" lon="3.33499">
        <ele>94</ele>
        <time>2013-09-29T08:19:10.000Z</time>
      </trkpt>
      <trkpt lat="48.24953" lon="3.33493">
        <ele>94</ele>
        <time>2013-09-29T08:19:11.000Z</time>
      </trkpt>
      <trkpt lat="48.24953" lon="3.33484">
        <ele>94</ele>
        <time>2013-09-29T08:19:12.000Z</time>
      </trkpt>
      <trkpt lat="48.24952" lon="3.33478">
        <ele>94</ele>
        <time>2013-09-29T08:19:13.000Z</time>
      </trkpt>
      <trkpt lat="48.24951" lon="3.33469">
        <ele>94</ele>
        <time>2013-09-29T08:19:14.000Z</time>
      </trkpt>
      <trkpt lat="48.24951" lon="3.33463">
        <ele>94</ele>
        <time>2013-09-29T08:19:15.000Z</time>
      </trkpt>
      <trkpt lat="48.2495" lon="3.33454">
        <ele>94</ele>
        <time>2013-09-29T08:19:16.000Z</time>
      </trkpt>
      <trkpt lat="48.2495" lon="3.33448">
        <ele>94</ele>
        <time>2013-09-29T08:19:17.000Z</time>
      </trkpt>
      <trkpt lat="48.24949" lon="3.33439">
        <ele>94</ele>
        <time>2013-09-29T08:19:18.000Z</time>
      </trkpt>
      <trkpt lat="48.24947" lon="3.33433">
        <ele>94</ele>
        <time>2013-09-29T08:19:19.000Z</time>
      </trkpt>
      <trkpt lat="48.24947" lon="3.33424">
        <ele>94</ele>
        <time>2013-09-29T08:19:20.000Z</time>
      </trkpt>
      <trkpt lat="48.24947" lon="3.33416">
        <ele>94</ele>
        <time>2013-09-29T08:19:21.000Z</time>
      </trkpt>
      <trkpt lat="48.24947" lon="3.33409">
        <ele>94</ele>
        <time>2013-09-29T08:19:22.000Z</time>
      </trkpt>
      <trkpt lat="48.24947" lon="3.33401">
        <ele>94</ele>
        <time>2013-09-29T08:19:23.000Z</time>
      </trkpt>
      <trkpt lat="48.24947" lon="3.33394">
        <ele>94</ele>
        <time>2013-09-29T08:19:24.000Z</time>
      </trkpt>
      <trkpt lat="48.24947" lon="3.33386">
        <ele>94</ele>
        <time>2013-09-29T08:19:25.000Z</time>
      </trkpt>
      <trkpt lat="48.24947" lon="3.33379">
        <ele>94</ele>
        <time>2013-09-29T08:19:26.000Z</time>
      </trkpt>
      <trkpt lat="48.24947" lon="3.33371">
        <ele>94</ele>
        <time>2013-09-29T08:19:27.000Z</time>
      </trkpt>
      <trkpt lat="48.24947" lon="3.33362">
        <ele>94</ele>
        <time>2013-09-29T08:19:28.000Z</time>
      </trkpt>
      <trkpt lat="48.24949" lon="3.33356">
        <ele>94</ele>
        <time>2013-09-29T08:19:29.000Z</time>
      </trkpt>
      <trkpt lat="48.24949" lon="3.33347">
        <ele>94</ele>
        <time>2013-09-29T08:19:30.000Z</time>
      </trkpt>
      <trkpt lat="48.24949" lon="3.33338">
        <ele>94</ele>
        <time>2013-09-29T08:19:31.000Z</time>
      </trkpt>
      <trkpt lat="48.2495" lon="3.33332">
        <ele>94</ele>
        <time>2013-09-29T08:19:32.000Z</time>
      </trkpt>
      <trkpt lat="48.2495" lon="3.33323">
        <ele>95</ele>
        <time>2013-09-29T08:19:33.000Z</time>
      </trkpt>
      <trkpt lat="48.24951" lon="3.33315">
        <ele>95</ele>
        <time>2013-09-29T08:19:34.000Z</time>
      </trkpt>
      <trkpt lat="48.24952" lon="3.33306">
        <ele>95</ele>
        <time>2013-09-29T08:19:35.000Z</time>
      </trkpt>
      <trkpt lat="48.24952" lon="3.33298">
        <ele>95</ele>
        <time>2013-09-29T08:19:36.000Z</time>
      </trkpt>
      <trkpt lat="48.24953" lon="3.33289">
        <ele>95</ele>
        <time>2013-09-29T08:19:37.000Z</time>
      </trkpt>
      <trkpt lat="48.24954" lon="3.33281">
        <ele>95</ele>
        <time>2013-09-29T08:19:38.000Z</time>
      </trkpt>
      <trkpt lat="48.24954" lon="3.33272">
        <ele>95</ele>
        <time>2013-09-29T08:19:39.000Z</time>
      </trkpt>
      <trkpt lat="48.24955" lon="3.33263">
        <ele>95</ele>
        <time>2013-09-29T08:19:40.000Z</time>
      </trkpt>
      <trkpt lat="48.24955" lon="3.33255">
        <ele>95</ele>
        <time>2013-09-29T08:19:41.000Z</time>
      </trkpt>
      <trkpt lat="48.24956" lon="3.33246">
        <ele>96</ele>
        <time>2013-09-29T08:19:42.000Z</time>
      </trkpt>
      <trkpt lat="48.24956" lon="3.33238">
        <ele>96</ele>
        <time>2013-09-29T08:19:43.000Z</time>
      </trkpt>
      <trkpt lat="48.24956" lon="3.33229">
        <ele>96</ele>
        <time>2013-09-29T08:19:44.000Z</time>
      </trkpt>
      <trkpt lat="48.24957" lon="3.33218">
        <ele>96</ele>
        <time>2013-09-29T08:19:45.000Z</time>
      </trkpt>
      <trkpt lat="48.24957" lon="3.3321">
        <ele>96</ele>
        <time>2013-09-29T08:19:46.000Z</time>
      </trkpt>
      <trkpt lat="48.24957" lon="3.33201">
        <ele>96</ele>
        <time>2013-09-29T08:19:47.000Z</time>
      </trkpt>
      <trkpt lat="48.24958" lon="3.33193">
        <ele>96</ele>
        <time>2013-09-29T08:19:48.000Z</time>
      </trkpt>
      <trkpt lat="48.24958" lon="3.33184">
        <ele>96</ele>
        <time>2013-09-29T08:19:49.000Z</time>
      </trkpt>
      <trkpt lat="48.24959" lon="3.33178">
        <ele>96</ele>
        <time>2013-09-29T08:19:50.000Z</time>
      </trkpt>
      <trkpt lat="48.24959" lon="3.33169">
        <ele>96</ele>
        <time>2013-09-29T08:19:51.000Z</time>
      </trkpt>
      <trkpt lat="48.2496" lon="3.3316">
        <ele>96</ele>
        <time>2013-09-29T08:19:52.000Z</time>
      </trkpt>
      <trkpt lat="48.2496" lon="3.33154">
        <ele>96</ele>
        <time>2013-09-29T08:19:53.000Z</time>
      </trkpt>
      <trkpt lat="48.24961" lon="3.33145">
        <ele>96</ele>
        <time>2013-09-29T08:19:54.000Z</time>
      </trkpt>
      <trkpt lat="48.24961" lon="3.33137">
        <ele>96</ele>
        <time>2013-09-29T08:19:55.000Z</time>
      </trkpt>
      <trkpt lat="48.24962" lon="3.33128">
        <ele>96</ele>
        <time>2013-09-29T08:19:56.000Z</time>
      </trkpt>
      <trkpt lat="48.24962" lon="3.33122">
        <ele>96</ele>
        <time>2013-09-29T08:19:57.000Z</time>
      </trkpt>
      <trkpt lat="48.24962" lon="3.33113">
        <ele>96</ele>
        <time>2013-09-29T08:19:58.000Z</time>
      </trkpt>
      <trkpt lat="48.24962" lon="3.33105">
        <ele>96</ele>
        <time>2013-09-29T08:19:59.000Z</time>
      </trkpt>
      <trkpt lat="48.24962" lon="3.33096">
        <ele>96</ele>
        <time>2013-09-29T08:20:00.000Z</time>
      </trkpt>
      <trkpt lat="48.24962" lon="3.33087">
        <ele>96</ele>
        <time>2013-09-29T08:20:01.000Z</time>
      </trkpt>
      <trkpt lat="48.24961" lon="3.33079">
        <ele>96</ele>
        <time>2013-09-29T08:20:02.000Z</time>
      </trkpt>
      <trkpt lat="48.24961" lon="3.3307">
        <ele>96</ele>
        <time>2013-09-29T08:20:03.000Z</time>
      </trkpt>
      <trkpt lat="48.24961" lon="3.33062">
        <ele>96</ele>
        <time>2013-09-29T08:20:04.000Z</time>
      </trkpt>
      <trkpt lat="48.2496" lon="3.33053">
        <ele>96</ele>
        <time>2013-09-29T08:20:05.000Z</time>
      </trkpt>
      <trkpt lat="48.24959" lon="3.33045">
        <ele>96</ele>
        <time>2013-09-29T08:20:06.000Z</time>
      </trkpt>
      <trkpt lat="48.24959" lon="3.33036">
        <ele>96</ele>
        <time>2013-09-29T08:20:07.000Z</time>
      </trkpt>
      <trkpt lat="48.24958" lon="3.33027">
        <ele>96</ele>
        <time>2013-09-29T08:20:08.000Z</time>
      </trkpt>
      <trkpt lat="48.24958" lon="3.33021">
        <ele>96</ele>
        <time>2013-09-29T08:20:09.000Z</time>
      </trkpt>
      <trkpt lat="48.24957" lon="3.33012">
        <ele>96</ele>
        <time>2013-09-29T08:20:10.000Z</time>
      </trkpt>
      <trkpt lat="48.24957" lon="3.33004">
        <ele>96</ele>
        <time>2013-09-29T08:20:11.000Z</time>
      </trkpt>
      <trkpt lat="48.24956" lon="3.32995">
        <ele>95</ele>
        <time>2013-09-29T08:20:12.000Z</time>
      </trkpt>
      <trkpt lat="48.24956" lon="3.32987">
        <ele>95</ele>
        <time>2013-09-29T08:20:13.000Z</time>
      </trkpt>
      <trkpt lat="48.24956" lon="3.3298">
        <ele>95</ele>
        <time>2013-09-29T08:20:14.000Z</time>
      </trkpt>
      <trkpt lat="48.24955" lon="3.32972">
        <ele>95</ele>
        <time>2013-09-29T08:20:15.000Z</time>
      </trkpt>
      <trkpt lat="48.24955" lon="3.32963">
        <ele>95</ele>
        <time>2013-09-29T08:20:16.000Z</time>
      </trkpt>
      <trkpt lat="48.24955" lon="3.32954">
        <ele>95</ele>
        <time>2013-09-29T08:20:17.000Z</time>
      </trkpt>
      <trkpt lat="48.24954" lon="3.32948">
        <ele>95</ele>
        <time>2013-09-29T08:20:18.000Z</time>
      </trkpt>
      <trkpt lat="48.24954" lon="3.32939">
        <ele>95</ele>
        <time>2013-09-29T08:20:19.000Z</time>
      </trkpt>
      <trkpt lat="48.24954" lon="3.32931">
        <ele>95</ele>
        <time>2013-09-29T08:20:20.000Z</time>
      </trkpt>
      <trkpt lat="48.24954" lon="3.32922">
        <ele>95</ele>
        <time>2013-09-29T08:20:21.000Z</time>
      </trkpt>
      <trkpt lat="48.24954" lon="3.32916">
        <ele>94</ele>
        <time>2013-09-29T08:20:22.000Z</time>
      </trkpt>
      <trkpt lat="48.24954" lon="3.32907">
        <ele>94</ele>
        <time>2013-09-29T08:20:23.000Z</time>
      </trkpt>
      <trkpt lat="48.24954" lon="3.32899">
        <ele>94</ele>
        <time>2013-09-29T08:20:24.000Z</time>
      </trkpt>
      <trkpt lat="48.24954" lon="3.3289">
        <ele>94</ele>
        <time>2013-09-29T08:20:25.000Z</time>
      </trkpt>
      <trkpt lat="48.24955" lon="3.32884">
        <ele>94</ele>
        <time>2013-09-29T08:20:26.000Z</time>
      </trkpt>
      <trkpt lat="48.24955" lon="3.32875">
        <ele>94</ele>
        <time>2013-09-29T08:20:27.000Z</time>
      </trkpt>
      <trkpt lat="48.24955" lon="3.32866">
        <ele>94</ele>
        <time>2013-09-29T08:20:28.000Z</time>
      </trkpt>
      <trkpt lat="48.24955" lon="3.3286">
        <ele>94</ele>
        <time>2013-09-29T08:20:29.000Z</time>
      </trkpt>
      <trkpt lat="48.24956" lon="3.32851">
        <ele>94</ele>
        <time>2013-09-29T08:20:30.000Z</time>
      </trkpt>
      <trkpt lat="48.24956" lon="3.32845">
        <ele>94</ele>
        <time>2013-09-29T08:20:31.000Z</time>
      </trkpt>
      <trkpt lat="48.24957" lon="3.32839">
        <ele>94</ele>
        <time>2013-09-29T08:20:32.000Z</time>
      </trkpt>
      <trkpt lat="48.24958" lon="3.3283">
        <ele>93</ele>
        <time>2013-09-29T08:20:33.000Z</time>
      </trkpt>
      <trkpt lat="48.24958" lon="3.32824">
        <ele>93</ele>
        <time>2013-09-29T08:20:34.000Z</time>
      </trkpt>
      <trkpt lat="48.24959" lon="3.32817">
        <ele>93</ele>
        <time>2013-09-29T08:20:35.000Z</time>
      </trkpt>
      <trkpt lat="48.2496" lon="3.32811">
        <ele>93</ele>
        <time>2013-09-29T08:20:36.000Z</time>
      </trkpt>
      <trkpt lat="48.2496" lon="3.32804">
        <ele>93</ele>
        <time>2013-09-29T08:20:37.000Z</time>
      </trkpt>
      <trkpt lat="48.24961" lon="3.328">
        <ele>93</ele>
        <time>2013-09-29T08:20:45.000Z</time>
      </trkpt>
      <trkpt lat="48.24967" lon="3.32785">
        <ele>93</ele>
        <time>2013-09-29T08:20:46.000Z</time>
      </trkpt>
      <trkpt lat="48.24969" lon="3.32785">
        <ele>93</ele>
        <time>2013-09-29T08:20:47.000Z</time>
      </trkpt>
      <trkpt lat="48.24972" lon="3.32783">
        <ele>93</ele>
        <time>2013-09-29T08:20:48.000Z</time>
      </trkpt>
      <trkpt lat="48.24978" lon="3.32781">
        <ele>93</ele>
        <time>2013-09-29T08:20:50.000Z</time>
      </trkpt>
      <trkpt lat="48.24981" lon="3.32781">
        <ele>93</ele>
        <time>2013-09-29T08:20:51.000Z</time>
      </trkpt>
      <trkpt lat="48.24984" lon="3.32778">
        <ele>93</ele>
        <time>2013-09-29T08:20:52.000Z</time>
      </trkpt>
      <trkpt lat="48.24987" lon="3.32776">
        <ele>93</ele>
        <time>2013-09-29T08:20:53.000Z</time>
      </trkpt>
      <trkpt lat="48.2499" lon="3.32776">
        <ele>94</ele>
        <time>2013-09-29T08:20:54.000Z</time>
      </trkpt>
      <trkpt lat="48.24994" lon="3.32774">
        <ele>94</ele>
        <time>2013-09-29T08:20:55.000Z</time>
      </trkpt>
      <trkpt lat="48.24997" lon="3.32774">
        <ele>94</ele>
        <time>2013-09-29T08:20:56.000Z</time>
      </trkpt>
      <trkpt lat="48.25" lon="3.32772">
        <ele>95</ele>
        <time>2013-09-29T08:20:57.000Z</time>
      </trkpt>
      <trkpt lat="48.25003" lon="3.3277">
        <ele>95</ele>
        <time>2013-09-29T08:20:58.000Z</time>
      </trkpt>
      <trkpt lat="48.25008" lon="3.3277">
        <ele>95</ele>
        <time>2013-09-29T08:20:59.000Z</time>
      </trkpt>
      <trkpt lat="48.25011" lon="3.32768">
        <ele>95</ele>
        <time>2013-09-29T08:21:00.000Z</time>
      </trkpt>
      <trkpt lat="48.25015" lon="3.32768">
        <ele>95</ele>
        <time>2013-09-29T08:21:01.000Z</time>
      </trkpt>
      <trkpt lat="48.25019" lon="3.32766">
        <ele>95</ele>
        <time>2013-09-29T08:21:02.000Z</time>
      </trkpt>
      <trkpt lat="48.25024" lon="3.32763">
        <ele>96</ele>
        <time>2013-09-29T08:21:03.000Z</time>
      </trkpt>
      <trkpt lat="48.25028" lon="3.32761">
        <ele>96</ele>
        <time>2013-09-29T08:21:04.000Z</time>
      </trkpt>
      <trkpt lat="48.25032" lon="3.32761">
        <ele>96</ele>
        <time>2013-09-29T08:21:05.000Z</time>
      </trkpt>
      <trkpt lat="48.25035" lon="3.32761">
        <ele>96</ele>
        <time>2013-09-29T08:21:06.000Z</time>
      </trkpt>
      <trkpt lat="48.2504" lon="3.32759">
        <ele>96</ele>
        <time>2013-09-29T08:21:07.000Z</time>
      </trkpt>
      <trkpt lat="48.25043" lon="3.32759">
        <ele>96</ele>
        <time>2013-09-29T08:21:08.000Z</time>
      </trkpt>
      <trkpt lat="48.25046" lon="3.32757">
        <ele>96</ele>
        <time>2013-09-29T08:21:09.000Z</time>
      </trkpt>
      <trkpt lat="48.25049" lon="3.32755">
        <ele>96</ele>
        <time>2013-09-29T08:21:10.000Z</time>
      </trkpt>
      <trkpt lat="48.25053" lon="3.32753">
        <ele>96</ele>
        <time>2013-09-29T08:21:11.000Z</time>
      </trkpt>
      <trkpt lat="48.25056" lon="3.32748">
        <ele>94</ele>
        <time>2013-09-29T08:21:12.000Z</time>
      </trkpt>
      <trkpt lat="48.25059" lon="3.32746">
        <ele>94</ele>
        <time>2013-09-29T08:21:13.000Z</time>
      </trkpt>
      <trkpt lat="48.25063" lon="3.32744">
        <ele>94</ele>
        <time>2013-09-29T08:21:14.000Z</time>
      </trkpt>
      <trkpt lat="48.25068" lon="3.32742">
        <ele>94</ele>
        <time>2013-09-29T08:21:15.000Z</time>
      </trkpt>
      <trkpt lat="48.25072" lon="3.3274">
        <ele>94</ele>
        <time>2013-09-29T08:21:16.000Z</time>
      </trkpt>
      <trkpt lat="48.25076" lon="3.32736">
        <ele>94</ele>
        <time>2013-09-29T08:21:17.000Z</time>
      </trkpt>
      <trkpt lat="48.25079" lon="3.32733">
        <ele>94</ele>
        <time>2013-09-29T08:21:18.000Z</time>
      </trkpt>
      <trkpt lat="48.25084" lon="3.32729">
        <ele>95</ele>
        <time>2013-09-29T08:21:19.000Z</time>
      </trkpt>
      <trkpt lat="48.25087" lon="3.32725">
        <ele>95</ele>
        <time>2013-09-29T08:21:20.000Z</time>
      </trkpt>
      <trkpt lat="48.2509" lon="3.32718">
        <ele>94</ele>
        <time>2013-09-29T08:21:21.000Z</time>
      </trkpt>
      <trkpt lat="48.25093" lon="3.32714">
        <ele>94</ele>
        <time>2013-09-29T08:21:22.000Z</time>
      </trkpt>
      <trkpt lat="48.25097" lon="3.3271">
        <ele>94</ele>
        <time>2013-09-29T08:21:23.000Z</time>
      </trkpt>
      <trkpt lat="48.25099" lon="3.32705">
        <ele>94</ele>
        <time>2013-09-29T08:21:24.000Z</time>
      </trkpt>
      <trkpt lat="48.25101" lon="3.32701">
        <ele>94</ele>
        <time>2013-09-29T08:21:25.000Z</time>
      </trkpt>
      <trkpt lat="48.25103" lon="3.32699">
        <ele>94</ele>
        <time>2013-09-29T08:21:26.000Z</time>
      </trkpt>
      <trkpt lat="48.25105" lon="3.32697">
        <ele>94</ele>
        <time>2013-09-29T08:21:27.000Z</time>
      </trkpt>
      <trkpt lat="48.25106" lon="3.32695">
        <ele>94</ele>
        <time>2013-09-29T08:21:32.000Z</time>
      </trkpt>
      <trkpt lat="48.25115" lon="3.32684">
        <ele>94</ele>
        <time>2013-09-29T08:21:33.000Z</time>
      </trkpt>
      <trkpt lat="48.25115" lon="3.32684">
        <ele>94</ele>
        <time>2013-09-29T08:21:34.000Z</time>
      </trkpt>
      <trkpt lat="48.25118" lon="3.32678">
        <ele>94</ele>
        <time>2013-09-29T08:21:35.000Z</time>
      </trkpt>
      <trkpt lat="48.25118" lon="3.32671">
        <ele>94</ele>
        <time>2013-09-29T08:21:36.000Z</time>
      </trkpt>
      <trkpt lat="48.25119" lon="3.32667">
        <ele>94</ele>
        <time>2013-09-29T08:21:37.000Z</time>
      </trkpt>
      <trkpt lat="48.2512" lon="3.3266">
        <ele>94</ele>
        <time>2013-09-29T08:21:38.000Z</time>
      </trkpt>
      <trkpt lat="48.25122" lon="3.32654">
        <ele>94</ele>
        <time>2013-09-29T08:21:39.000Z</time>
      </trkpt>
      <trkpt lat="48.25123" lon="3.32648">
        <ele>94</ele>
        <time>2013-09-29T08:21:40.000Z</time>
      </trkpt>
      <trkpt lat="48.25125" lon="3.32639">
        <ele>94</ele>
        <time>2013-09-29T08:21:41.000Z</time>
      </trkpt>
      <trkpt lat="48.25126" lon="3.32633">
        <ele>94</ele>
        <time>2013-09-29T08:21:42.000Z</time>
      </trkpt>
      <trkpt lat="48.25128" lon="3.32626">
        <ele>94</ele>
        <time>2013-09-29T08:21:43.000Z</time>
      </trkpt>
      <trkpt lat="48.2513" lon="3.3262">
        <ele>94</ele>
        <time>2013-09-29T08:21:44.000Z</time>
      </trkpt>
      <trkpt lat="48.25132" lon="3.32613">
        <ele>94</ele>
        <time>2013-09-29T08:21:45.000Z</time>
      </trkpt>
      <trkpt lat="48.25133" lon="3.32605">
        <ele>94</ele>
        <time>2013-09-29T08:21:46.000Z</time>
      </trkpt>
      <trkpt lat="48.25135" lon="3.32598">
        <ele>94</ele>
        <time>2013-09-29T08:21:47.000Z</time>
      </trkpt>
      <trkpt lat="48.25137" lon="3.32592">
        <ele>94</ele>
        <time>2013-09-29T08:21:48.000Z</time>
      </trkpt>
      <trkpt lat="48.25138" lon="3.32585">
        <ele>94</ele>
        <time>2013-09-29T08:21:49.000Z</time>
      </trkpt>
      <trkpt lat="48.2514" lon="3.32579">
        <ele>95</ele>
        <time>2013-09-29T08:21:50.000Z</time>
      </trkpt>
      <trkpt lat="48.25142" lon="3.32572">
        <ele>95</ele>
        <time>2013-09-29T08:21:51.000Z</time>
      </trkpt>
      <trkpt lat="48.25143" lon="3.32566">
        <ele>95</ele>
        <time>2013-09-29T08:21:52.000Z</time>
      </trkpt>
      <trkpt lat="48.25144" lon="3.3256">
        <ele>95</ele>
        <time>2013-09-29T08:21:53.000Z</time>
      </trkpt>
      <trkpt lat="48.25145" lon="3.32553">
        <ele>95</ele>
        <time>2013-09-29T08:21:54.000Z</time>
      </trkpt>
      <trkpt lat="48.25145" lon="3.32547">
        <ele>95</ele>
        <time>2013-09-29T08:21:55.000Z</time>
      </trkpt>
      <trkpt lat="48.25146" lon="3.3254">
        <ele>95</ele>
        <time>2013-09-29T08:21:56.000Z</time>
      </trkpt>
      <trkpt lat="48.25146" lon="3.32534">
        <ele>95</ele>
        <time>2013-09-29T08:21:57.000Z</time>
      </trkpt>
      <trkpt lat="48.25146" lon="3.32525">
        <ele>96</ele>
        <time>2013-09-29T08:21:58.000Z</time>
      </trkpt>
      <trkpt lat="48.25145" lon="3.32517">
        <ele>96</ele>
        <time>2013-09-29T08:21:59.000Z</time>
      </trkpt>
      <trkpt lat="48.25144" lon="3.32508">
        <ele>96</ele>
        <time>2013-09-29T08:22:00.000Z</time>
      </trkpt>
      <trkpt lat="48.25143" lon="3.32497">
        <ele>97</ele>
        <time>2013-09-29T08:22:01.000Z</time>
      </trkpt>
      <trkpt lat="48.25142" lon="3.32489">
        <ele>97</ele>
        <time>2013-09-29T08:22:02.000Z</time>
      </trkpt>
      <trkpt lat="48.25141" lon="3.32478">
        <ele>98</ele>
        <time>2013-09-29T08:22:03.000Z</time>
      </trkpt>
      <trkpt lat="48.25141" lon="3.32469">
        <ele>98</ele>
        <time>2013-09-29T08:22:04.000Z</time>
      </trkpt>
      <trkpt lat="48.25141" lon="3.32461">
        <ele>98</ele>
        <time>2013-09-29T08:22:05.000Z</time>
      </trkpt>
      <trkpt lat="48.25141" lon="3.32452">
        <ele>98</ele>
        <time>2013-09-29T08:22:06.000Z</time>
      </trkpt>
      <trkpt lat="48.25142" lon="3.32446">
        <ele>98</ele>
        <time>2013-09-29T08:22:07.000Z</time>
      </trkpt>
      <trkpt lat="48.25143" lon="3.32437">
        <ele>98</ele>
        <time>2013-09-29T08:22:08.000Z</time>
      </trkpt>
      <trkpt lat="48.25144" lon="3.32429">
        <ele>99</ele>
        <time>2013-09-29T08:22:09.000Z</time>
      </trkpt>
      <trkpt lat="48.25146" lon="3.32422">
        <ele>99</ele>
        <time>2013-09-29T08:22:10.000Z</time>
      </trkpt>
      <trkpt lat="48.25147" lon="3.32414">
        <ele>100</ele>
        <time>2013-09-29T08:22:11.000Z</time>
      </trkpt>
      <trkpt lat="48.25149" lon="3.32407">
        <ele>100</ele>
        <time>2013-09-29T08:22:12.000Z</time>
      </trkpt>
      <trkpt lat="48.25153" lon="3.32405">
        <ele>100</ele>
        <time>2013-09-29T08:22:13.000Z</time>
      </trkpt>
      <trkpt lat="48.25157" lon="3.32403">
        <ele>100</ele>
        <time>2013-09-29T08:22:14.000Z</time>
      </trkpt>
      <trkpt lat="48.25161" lon="3.32401">
        <ele>100</ele>
        <time>2013-09-29T08:22:15.000Z</time>
      </trkpt>
      <trkpt lat="48.25165" lon="3.32399">
        <ele>100</ele>
        <time>2013-09-29T08:22:16.000Z</time>
      </trkpt>
      <trkpt lat="48.2517" lon="3.32397">
        <ele>101</ele>
        <time>2013-09-29T08:22:17.000Z</time>
      </trkpt>
      <trkpt lat="48.25173" lon="3.32394">
        <ele>101</ele>
        <time>2013-09-29T08:22:18.000Z</time>
      </trkpt>
      <trkpt lat="48.25177" lon="3.32392">
        <ele>101</ele>
        <time>2013-09-29T08:22:19.000Z</time>
      </trkpt>
      <trkpt lat="48.2518" lon="3.3239">
        <ele>101</ele>
        <time>2013-09-29T08:22:20.000Z</time>
      </trkpt>
      <trkpt lat="48.25184" lon="3.32388">
        <ele>101</ele>
        <time>2013-09-29T08:22:21.000Z</time>
      </trkpt>
      <trkpt lat="48.25187" lon="3.32386">
        <ele>101</ele>
        <time>2013-09-29T08:22:22.000Z</time>
      </trkpt>
      <trkpt lat="48.2519" lon="3.32384">
        <ele>101</ele>
        <time>2013-09-29T08:22:23.000Z</time>
      </trkpt>
      <trkpt lat="48.25193" lon="3.32381">
        <ele>101</ele>
        <time>2013-09-29T08:22:24.000Z</time>
      </trkpt>
      <trkpt lat="48.25196" lon="3.32377">
        <ele>101</ele>
        <time>2013-09-29T08:22:25.000Z</time>
      </trkpt>
      <trkpt lat="48.252" lon="3.32375">
        <ele>101</ele>
        <time>2013-09-29T08:22:26.000Z</time>
      </trkpt>
      <trkpt lat="48.25202" lon="3.32371">
        <ele>101</ele>
        <time>2013-09-29T08:22:27.000Z</time>
      </trkpt>
      <trkpt lat="48.25205" lon="3.32369">
        <ele>101</ele>
        <time>2013-09-29T08:22:28.000Z</time>
      </trkpt>
      <trkpt lat="48.25208" lon="3.32366">
        <ele>101</ele>
        <time>2013-09-29T08:22:29.000Z</time>
      </trkpt>
      <trkpt lat="48.2521" lon="3.32362">
        <ele>101</ele>
        <time>2013-09-29T08:22:30.000Z</time>
      </trkpt>
      <trkpt lat="48.25214" lon="3.3236">
        <ele>101</ele>
        <time>2013-09-29T08:22:31.000Z</time>
      </trkpt>
      <trkpt lat="48.25216" lon="3.32356">
        <ele>101</ele>
        <time>2013-09-29T08:22:32.000Z</time>
      </trkpt>
      <trkpt lat="48.25219" lon="3.32351">
        <ele>101</ele>
        <time>2013-09-29T08:22:33.000Z</time>
      </trkpt>
      <trkpt lat="48.25222" lon="3.32349">
        <ele>101</ele>
        <time>2013-09-29T08:22:34.000Z</time>
      </trkpt>
      <trkpt lat="48.25224" lon="3.32345">
        <ele>101</ele>
        <time>2013-09-29T08:22:35.000Z</time>
      </trkpt>
      <trkpt lat="48.25227" lon="3.32341">
        <ele>101</ele>
        <time>2013-09-29T08:22:36.000Z</time>
      </trkpt>
      <trkpt lat="48.2523" lon="3.32336">
        <ele>101</ele>
        <time>2013-09-29T08:22:37.000Z</time>
      </trkpt>
      <trkpt lat="48.25233" lon="3.32332">
        <ele>102</ele>
        <time>2013-09-29T08:22:38.000Z</time>
      </trkpt>
      <trkpt lat="48.25236" lon="3.32328">
        <ele>102</ele>
        <time>2013-09-29T08:22:39.000Z</time>
      </trkpt>
      <trkpt lat="48.25238" lon="3.32324">
        <ele>102</ele>
        <time>2013-09-29T08:22:40.000Z</time>
      </trkpt>
      <trkpt lat="48.25241" lon="3.32319">
        <ele>103</ele>
        <time>2013-09-29T08:22:41.000Z</time>
      </trkpt>
      <trkpt lat="48.25244" lon="3.32315">
        <ele>103</ele>
        <time>2013-09-29T08:22:42.000Z</time>
      </trkpt>
      <trkpt lat="48.25247" lon="3.32311">
        <ele>103</ele>
        <time>2013-09-29T08:22:43.000Z</time>
      </trkpt>
      <trkpt lat="48.25249" lon="3.32306">
        <ele>103</ele>
        <time>2013-09-29T08:22:44.000Z</time>
      </trkpt>
      <trkpt lat="48.25252" lon="3.32304">
        <ele>104</ele>
        <time>2013-09-29T08:22:45.000Z</time>
      </trkpt>
      <trkpt lat="48.25254" lon="3.323">
        <ele>104</ele>
        <time>2013-09-29T08:22:46.000Z</time>
      </trkpt>
      <trkpt lat="48.25258" lon="3.32296">
        <ele>104</ele>
        <time>2013-09-29T08:22:47.000Z</time>
      </trkpt>
      <trkpt lat="48.25261" lon="3.32291">
        <ele>105</ele>
        <time>2013-09-29T08:22:48.000Z</time>
      </trkpt>
      <trkpt lat="48.25263" lon="3.32287">
        <ele>105</ele>
        <time>2013-09-29T08:22:49.000Z</time>
      </trkpt>
      <trkpt lat="48.25265" lon="3.32283">
        <ele>105</ele>
        <time>2013-09-29T08:22:50.000Z</time>
      </trkpt>
      <trkpt lat="48.25268" lon="3.32278">
        <ele>105</ele>
        <time>2013-09-29T08:22:51.000Z</time>
      </trkpt>
      <trkpt lat="48.2527" lon="3.32276">
        <ele>105</ele>
        <time>2013-09-29T08:22:52.000Z</time>
      </trkpt>
      <trkpt lat="48.25273" lon="3.32272">
        <ele>106</ele>
        <time>2013-09-29T08:22:53.000Z</time>
      </trkpt>
      <trkpt lat="48.25275" lon="3.32268">
        <ele>106</ele>
        <time>2013-09-29T08:22:54.000Z</time>
      </trkpt>
      <trkpt lat="48.25278" lon="3.32266">
        <ele>106</ele>
        <time>2013-09-29T08:22:55.000Z</time>
      </trkpt>
      <trkpt lat="48.2528" lon="3.32261">
        <ele>106</ele>
        <time>2013-09-29T08:22:56.000Z</time>
      </trkpt>
      <trkpt lat="48.25282" lon="3.32259">
        <ele>106</ele>
        <time>2013-09-29T08:22:57.000Z</time>
      </trkpt>
      <trkpt lat="48.25284" lon="3.32255">
        <ele>106</ele>
        <time>2013-09-29T08:22:58.000Z</time>
      </trkpt>
      <trkpt lat="48.25287" lon="3.32253">
        <ele>106</ele>
        <time>2013-09-29T08:22:59.000Z</time>
      </trkpt>
      <trkpt lat="48.25289" lon="3.32251">
        <ele>106</ele>
        <time>2013-09-29T08:23:00.000Z</time>
      </trkpt>
      <trkpt lat="48.25292" lon="3.32248">
        <ele>109</ele>
        <time>2013-09-29T08:23:01.000Z</time>
      </trkpt>
      <trkpt lat="48.25294" lon="3.32244">
        <ele>109</ele>
        <time>2013-09-29T08:23:02.000Z</time>
      </trkpt>
      <trkpt lat="48.25296" lon="3.32242">
        <ele>109</ele>
        <time>2013-09-29T08:23:03.000Z</time>
      </trkpt>
      <trkpt lat="48.25299" lon="3.3224">
        <ele>109</ele>
        <time>2013-09-29T08:23:04.000Z</time>
      </trkpt>
      <trkpt lat="48.25302" lon="3.32236">
        <ele>109</ele>
        <time>2013-09-29T08:23:05.000Z</time>
      </trkpt>
      <trkpt lat="48.25305" lon="3.32231">
        <ele>109</ele>
        <time>2013-09-29T08:23:07.000Z</time>
      </trkpt>
      <trkpt lat="48.25306" lon="3.32229">
        <ele>109</ele>
        <time>2013-09-29T08:23:08.000Z</time>
      </trkpt>
      <trkpt lat="48.25307" lon="3.32225">
        <ele>109</ele>
        <time>2013-09-29T08:23:09.000Z</time>
      </trkpt>
      <trkpt lat="48.25309" lon="3.32223">
        <ele>109</ele>
        <time>2013-09-29T08:23:10.000Z</time>
      </trkpt>
      <trkpt lat="48.2531" lon="3.32218">
        <ele>109</ele>
        <time>2013-09-29T08:23:11.000Z</time>
      </trkpt>
      <trkpt lat="48.25311" lon="3.32216">
        <ele>109</ele>
        <time>2013-09-29T08:23:12.000Z</time>
      </trkpt>
      <trkpt lat="48.25313" lon="3.32212">
        <ele>109</ele>
        <time>2013-09-29T08:23:13.000Z</time>
      </trkpt>
      <trkpt lat="48.25314" lon="3.3221">
        <ele>109</ele>
        <time>2013-09-29T08:23:14.000Z</time>
      </trkpt>
      <trkpt lat="48.25317" lon="3.32208">
        <ele>110</ele>
        <time>2013-09-29T08:23:15.000Z</time>
      </trkpt>
      <trkpt lat="48.25319" lon="3.32203">
        <ele>110</ele>
        <time>2013-09-29T08:23:16.000Z</time>
      </trkpt>
      <trkpt lat="48.2532" lon="3.32201">
        <ele>110</ele>
        <time>2013-09-29T08:23:17.000Z</time>
      </trkpt>
      <trkpt lat="48.25322" lon="3.32197">
        <ele>110</ele>
        <time>2013-09-29T08:23:18.000Z</time>
      </trkpt>
      <trkpt lat="48.25324" lon="3.32195">
        <ele>110</ele>
        <time>2013-09-29T08:23:19.000Z</time>
      </trkpt>
      <trkpt lat="48.25325" lon="3.32191">
        <ele>110</ele>
        <time>2013-09-29T08:23:20.000Z</time>
      </trkpt>
      <trkpt lat="48.25327" lon="3.32188">
        <ele>110</ele>
        <time>2013-09-29T08:23:21.000Z</time>
      </trkpt>
      <trkpt lat="48.25329" lon="3.32186">
        <ele>110</ele>
        <time>2013-09-29T08:23:22.000Z</time>
      </trkpt>
      <trkpt lat="48.2533" lon="3.32182">
        <ele>110</ele>
        <time>2013-09-29T08:23:23.000Z</time>
      </trkpt>
      <trkpt lat="48.25333" lon="3.3218">
        <ele>110</ele>
        <time>2013-09-29T08:23:24.000Z</time>
      </trkpt>
      <trkpt lat="48.25334" lon="3.32178">
        <ele>111</ele>
        <time>2013-09-29T08:23:25.000Z</time>
      </trkpt>
      <trkpt lat="48.25336" lon="3.32173">
        <ele>111</ele>
        <time>2013-09-29T08:23:26.000Z</time>
      </trkpt>
      <trkpt lat="48.25338" lon="3.32171">
        <ele>111</ele>
        <time>2013-09-29T08:23:27.000Z</time>
      </trkpt>
      <trkpt lat="48.25339" lon="3.32167">
        <ele>111</ele>
        <time>2013-09-29T08:23:28.000Z</time>
      </trkpt>
      <trkpt lat="48.25342" lon="3.32163">
        <ele>112</ele>
        <time>2013-09-29T08:23:30.000Z</time>
      </trkpt>
      <trkpt lat="48.25344" lon="3.32158">
        <ele>113</ele>
        <time>2013-09-29T08:23:31.000Z</time>
      </trkpt>
      <trkpt lat="48.25347" lon="3.32154">
        <ele>113</ele>
        <time>2013-09-29T08:23:33.000Z</time>
      </trkpt>
      <trkpt lat="48.25349" lon="3.3215">
        <ele>114</ele>
        <time>2013-09-29T08:23:34.000Z</time>
      </trkpt>
      <trkpt lat="48.25351" lon="3.32145">
        <ele>114</ele>
        <time>2013-09-29T08:23:36.000Z</time>
      </trkpt>
      <trkpt lat="48.25352" lon="3.32141">
        <ele>114</ele>
        <time>2013-09-29T08:23:37.000Z</time>
      </trkpt>
      <trkpt lat="48.25354" lon="3.32139">
        <ele>115</ele>
        <time>2013-09-29T08:23:38.000Z</time>
      </trkpt>
      <trkpt lat="48.25355" lon="3.32135">
        <ele>115</ele>
        <time>2013-09-29T08:23:39.000Z</time>
      </trkpt>
      <trkpt lat="48.25358" lon="3.3213">
        <ele>115</ele>
        <time>2013-09-29T08:23:41.000Z</time>
      </trkpt>
      <trkpt lat="48.25359" lon="3.32126">
        <ele>115</ele>
        <time>2013-09-29T08:23:42.000Z</time>
      </trkpt>
      <trkpt lat="48.25361" lon="3.32124">
        <ele>115</ele>
        <time>2013-09-29T08:23:43.000Z</time>
      </trkpt>
      <trkpt lat="48.25362" lon="3.3212">
        <ele>116</ele>
        <time>2013-09-29T08:23:44.000Z</time>
      </trkpt>
      <trkpt lat="48.25364" lon="3.32115">
        <ele>116</ele>
        <time>2013-09-29T08:23:45.000Z</time>
      </trkpt>
      <trkpt lat="48.25365" lon="3.32113">
        <ele>116</ele>
        <time>2013-09-29T08:23:46.000Z</time>
      </trkpt>
      <trkpt lat="48.25366" lon="3.32109">
        <ele>116</ele>
        <time>2013-09-29T08:23:47.000Z</time>
      </trkpt>
      <trkpt lat="48.25368" lon="3.32107">
        <ele>116</ele>
        <time>2013-09-29T08:23:48.000Z</time>
      </trkpt>
      <trkpt lat="48.25369" lon="3.32103">
        <ele>116</ele>
        <time>2013-09-29T08:23:49.000Z</time>
      </trkpt>
      <trkpt lat="48.2537" lon="3.321">
        <ele>116</ele>
        <time>2013-09-29T08:23:50.000Z</time>
      </trkpt>
      <trkpt lat="48.25372" lon="3.32096">
        <ele>117</ele>
        <time>2013-09-29T08:23:51.000Z</time>
      </trkpt>
      <trkpt lat="48.25373" lon="3.32094">
        <ele>117</ele>
        <time>2013-09-29T08:23:52.000Z</time>
      </trkpt>
      <trkpt lat="48.25376" lon="3.3209">
        <ele>117</ele>
        <time>2013-09-29T08:23:53.000Z</time>
      </trkpt>
      <trkpt lat="48.25378" lon="3.32088">
        <ele>117</ele>
        <time>2013-09-29T08:23:54.000Z</time>
      </trkpt>
      <trkpt lat="48.25381" lon="3.32083">
        <ele>121</ele>
        <time>2013-09-29T08:23:56.000Z</time>
      </trkpt>
      <trkpt lat="48.25382" lon="3.32079">
        <ele>121</ele>
        <time>2013-09-29T08:23:57.000Z</time>
      </trkpt>
      <trkpt lat="48.25385" lon="3.32075">
        <ele>121</ele>
        <time>2013-09-29T08:23:59.000Z</time>
      </trkpt>
      <trkpt lat="48.25387" lon="3.32072">
        <ele>121</ele>
        <time>2013-09-29T08:24:00.000Z</time>
      </trkpt>
      <trkpt lat="48.2539" lon="3.3207">
        <ele>121</ele>
        <time>2013-09-29T08:24:01.000Z</time>
      </trkpt>
      <trkpt lat="48.25392" lon="3.32068">
        <ele>121</ele>
        <time>2013-09-29T08:24:02.000Z</time>
      </trkpt>
      <trkpt lat="48.25395" lon="3.32064">
        <ele>121</ele>
        <time>2013-09-29T08:24:04.000Z</time>
      </trkpt>
      <trkpt lat="48.25397" lon="3.32062">
        <ele>121</ele>
        <time>2013-09-29T08:24:05.000Z</time>
      </trkpt>
      <trkpt lat="48.25399" lon="3.3206">
        <ele>121</ele>
        <time>2013-09-29T08:24:06.000Z</time>
      </trkpt>
      <trkpt lat="48.25401" lon="3.32055">
        <ele>122</ele>
        <time>2013-09-29T08:24:07.000Z</time>
      </trkpt>
      <trkpt lat="48.25403" lon="3.32053">
        <ele>122</ele>
        <time>2013-09-29T08:24:08.000Z</time>
      </trkpt>
      <trkpt lat="48.25406" lon="3.32051">
        <ele>122</ele>
        <time>2013-09-29T08:24:09.000Z</time>
      </trkpt>
      <trkpt lat="48.25409" lon="3.32049">
        <ele>122</ele>
        <time>2013-09-29T08:24:10.000Z</time>
      </trkpt>
      <trkpt lat="48.25411" lon="3.32047">
        <ele>122</ele>
        <time>2013-09-29T08:24:11.000Z</time>
      </trkpt>
      <trkpt lat="48.25413" lon="3.32045">
        <ele>122</ele>
        <time>2013-09-29T08:24:12.000Z</time>
      </trkpt>
      <trkpt lat="48.25416" lon="3.3204">
        <ele>123</ele>
        <time>2013-09-29T08:24:13.000Z</time>
      </trkpt>
      <trkpt lat="48.25418" lon="3.32038">
        <ele>122</ele>
        <time>2013-09-29T08:24:14.000Z</time>
      </trkpt>
      <trkpt lat="48.25421" lon="3.32038">
        <ele>122</ele>
        <time>2013-09-29T08:24:15.000Z</time>
      </trkpt>
      <trkpt lat="48.25423" lon="3.32036">
        <ele>123</ele>
        <time>2013-09-29T08:24:16.000Z</time>
      </trkpt>
      <trkpt lat="48.25426" lon="3.32034">
        <ele>123</ele>
        <time>2013-09-29T08:24:17.000Z</time>
      </trkpt>
      <trkpt lat="48.25429" lon="3.3203">
        <ele>123</ele>
        <time>2013-09-29T08:24:19.000Z</time>
      </trkpt>
      <trkpt lat="48.25431" lon="3.32027">
        <ele>123</ele>
        <time>2013-09-29T08:24:20.000Z</time>
      </trkpt>
      <trkpt lat="48.25433" lon="3.32025">
        <ele>123</ele>
        <time>2013-09-29T08:24:21.000Z</time>
      </trkpt>
      <trkpt lat="48.25437" lon="3.32023">
        <ele>123</ele>
        <time>2013-09-29T08:24:22.000Z</time>
      </trkpt>
      <trkpt lat="48.25439" lon="3.32021">
        <ele>123</ele>
        <time>2013-09-29T08:24:23.000Z</time>
      </trkpt>
      <trkpt lat="48.25441" lon="3.32019">
        <ele>123</ele>
        <time>2013-09-29T08:24:24.000Z</time>
      </trkpt>
      <trkpt lat="48.25443" lon="3.32017">
        <ele>123</ele>
        <time>2013-09-29T08:24:25.000Z</time>
      </trkpt>
      <trkpt lat="48.25445" lon="3.32015">
        <ele>123</ele>
        <time>2013-09-29T08:24:26.000Z</time>
      </trkpt>
      <trkpt lat="48.25447" lon="3.32012">
        <ele>123</ele>
        <time>2013-09-29T08:24:27.000Z</time>
      </trkpt>
      <trkpt lat="48.2545" lon="3.3201">
        <ele>123</ele>
        <time>2013-09-29T08:24:28.000Z</time>
      </trkpt>
      <trkpt lat="48.25452" lon="3.32008">
        <ele>123</ele>
        <time>2013-09-29T08:24:29.000Z</time>
      </trkpt>
      <trkpt lat="48.25454" lon="3.32006">
        <ele>123</ele>
        <time>2013-09-29T08:24:30.000Z</time>
      </trkpt>
      <trkpt lat="48.25456" lon="3.32004">
        <ele>123</ele>
        <time>2013-09-29T08:24:31.000Z</time>
      </trkpt>
      <trkpt lat="48.25458" lon="3.32002">
        <ele>123</ele>
        <time>2013-09-29T08:24:32.000Z</time>
      </trkpt>
      <trkpt lat="48.2546" lon="3.32">
        <ele>127</ele>
        <time>2013-09-29T08:24:33.000Z</time>
      </trkpt>
      <trkpt lat="48.25462" lon="3.31995">
        <ele>127</ele>
        <time>2013-09-29T08:24:34.000Z</time>
      </trkpt>
      <trkpt lat="48.25465" lon="3.31993">
        <ele>127</ele>
        <time>2013-09-29T08:24:35.000Z</time>
      </trkpt>
      <trkpt lat="48.25468" lon="3.31991">
        <ele>127</ele>
        <time>2013-09-29T08:24:36.000Z</time>
      </trkpt>
      <trkpt lat="48.2547" lon="3.31989">
        <ele>127</ele>
        <time>2013-09-29T08:24:37.000Z</time>
      </trkpt>
      <trkpt lat="48.25472" lon="3.31987">
        <ele>127</ele>
        <time>2013-09-29T08:24:38.000Z</time>
      </trkpt>
      <trkpt lat="48.25474" lon="3.31985">
        <ele>127</ele>
        <time>2013-09-29T08:24:39.000Z</time>
      </trkpt>
      <trkpt lat="48.25476" lon="3.31982">
        <ele>127</ele>
        <time>2013-09-29T08:24:40.000Z</time>
      </trkpt>
      <trkpt lat="48.25479" lon="3.3198">
        <ele>127</ele>
        <time>2013-09-29T08:24:41.000Z</time>
      </trkpt>
      <trkpt lat="48.25481" lon="3.31978">
        <ele>127</ele>
        <time>2013-09-29T08:24:42.000Z</time>
      </trkpt>
      <trkpt lat="48.25483" lon="3.31976">
        <ele>127</ele>
        <time>2013-09-29T08:24:43.000Z</time>
      </trkpt>
      <trkpt lat="48.25485" lon="3.31974">
        <ele>127</ele>
        <time>2013-09-29T08:24:44.000Z</time>
      </trkpt>
      <trkpt lat="48.25488" lon="3.31969">
        <ele>127</ele>
        <time>2013-09-29T08:24:46.000Z</time>
      </trkpt>
      <trkpt lat="48.2549" lon="3.31967">
        <ele>127</ele>
        <time>2013-09-29T08:24:47.000Z</time>
      </trkpt>
      <trkpt lat="48.25493" lon="3.31965">
        <ele>128</ele>
        <time>2013-09-29T08:24:48.000Z</time>
      </trkpt>
      <trkpt lat="48.25495" lon="3.31963">
        <ele>128</ele>
        <time>2013-09-29T08:24:49.000Z</time>
      </trkpt>
      <trkpt lat="48.25497" lon="3.31961">
        <ele>128</ele>
        <time>2013-09-29T08:24:50.000Z</time>
      </trkpt>
      <trkpt lat="48.25499" lon="3.31959">
        <ele>128</ele>
        <time>2013-09-29T08:24:51.000Z</time>
      </trkpt>
      <trkpt lat="48.25501" lon="3.31957">
        <ele>128</ele>
        <time>2013-09-29T08:24:52.000Z</time>
      </trkpt>
      <trkpt lat="48.25503" lon="3.31954">
        <ele>129</ele>
        <time>2013-09-29T08:24:53.000Z</time>
      </trkpt>
      <trkpt lat="48.25506" lon="3.3195">
        <ele>129</ele>
        <time>2013-09-29T08:24:55.000Z</time>
      </trkpt>
      <trkpt lat="48.25509" lon="3.31948">
        <ele>129</ele>
        <time>2013-09-29T08:24:56.000Z</time>
      </trkpt>
      <trkpt lat="48.25511" lon="3.31946">
        <ele>129</ele>
        <time>2013-09-29T08:24:57.000Z</time>
      </trkpt>
      <trkpt lat="48.25513" lon="3.31944">
        <ele>129</ele>
        <time>2013-09-29T08:24:58.000Z</time>
      </trkpt>
      <trkpt lat="48.25515" lon="3.31942">
        <ele>129</ele>
        <time>2013-09-29T08:24:59.000Z</time>
      </trkpt>
      <trkpt lat="48.25517" lon="3.31939">
        <ele>129</ele>
        <time>2013-09-29T08:25:00.000Z</time>
      </trkpt>
      <trkpt lat="48.25519" lon="3.31937">
        <ele>129</ele>
        <time>2013-09-29T08:25:01.000Z</time>
      </trkpt>
      <trkpt lat="48.25521" lon="3.31935">
        <ele>129</ele>
        <time>2013-09-29T08:25:02.000Z</time>
      </trkpt>
      <trkpt lat="48.25524" lon="3.31933">
        <ele>130</ele>
        <time>2013-09-29T08:25:03.000Z</time>
      </trkpt>
      <trkpt lat="48.25526" lon="3.31929">
        <ele>130</ele>
        <time>2013-09-29T08:25:04.000Z</time>
      </trkpt>
      <trkpt lat="48.25528" lon="3.31927">
        <ele>130</ele>
        <time>2013-09-29T08:25:05.000Z</time>
      </trkpt>
      <trkpt lat="48.2553" lon="3.31924">
        <ele>130</ele>
        <time>2013-09-29T08:25:06.000Z</time>
      </trkpt>
      <trkpt lat="48.25532" lon="3.31922">
        <ele>130</ele>
        <time>2013-09-29T08:25:07.000Z</time>
      </trkpt>
      <trkpt lat="48.25534" lon="3.3192">
        <ele>130</ele>
        <time>2013-09-29T08:25:08.000Z</time>
      </trkpt>
      <trkpt lat="48.25536" lon="3.31918">
        <ele>130</ele>
        <time>2013-09-29T08:25:09.000Z</time>
      </trkpt>
      <trkpt lat="48.25539" lon="3.31916">
        <ele>133</ele>
        <time>2013-09-29T08:25:10.000Z</time>
      </trkpt>
      <trkpt lat="48.25541" lon="3.31914">
        <ele>133</ele>
        <time>2013-09-29T08:25:11.000Z</time>
      </trkpt>
      <trkpt lat="48.25543" lon="3.31912">
        <ele>133</ele>
        <time>2013-09-29T08:25:12.000Z</time>
      </trkpt>
      <trkpt lat="48.25545" lon="3.31909">
        <ele>134</ele>
        <time>2013-09-29T08:25:13.000Z</time>
      </trkpt>
      <trkpt lat="48.25547" lon="3.31907">
        <ele>134</ele>
        <time>2013-09-29T08:25:14.000Z</time>
      </trkpt>
      <trkpt lat="48.25549" lon="3.31905">
        <ele>134</ele>
        <time>2013-09-29T08:25:15.000Z</time>
      </trkpt>
      <trkpt lat="48.25552" lon="3.31903">
        <ele>134</ele>
        <time>2013-09-29T08:25:16.000Z</time>
      </trkpt>
      <trkpt lat="48.25554" lon="3.31901">
        <ele>134</ele>
        <time>2013-09-29T08:25:17.000Z</time>
      </trkpt>
      <trkpt lat="48.25556" lon="3.31899">
        <ele>134</ele>
        <time>2013-09-29T08:25:18.000Z</time>
      </trkpt>
      <trkpt lat="48.25558" lon="3.31897">
        <ele>134</ele>
        <time>2013-09-29T08:25:19.000Z</time>
      </trkpt>
      <trkpt lat="48.2556" lon="3.31894">
        <ele>134</ele>
        <time>2013-09-29T08:25:20.000Z</time>
      </trkpt>
      <trkpt lat="48.25562" lon="3.31892">
        <ele>134</ele>
        <time>2013-09-29T08:25:21.000Z</time>
      </trkpt>
      <trkpt lat="48.25564" lon="3.3189">
        <ele>134</ele>
        <time>2013-09-29T08:25:22.000Z</time>
      </trkpt>
      <trkpt lat="48.25567" lon="3.31888">
        <ele>134</ele>
        <time>2013-09-29T08:25:23.000Z</time>
      </trkpt>
      <trkpt lat="48.25569" lon="3.31886">
        <ele>134</ele>
        <time>2013-09-29T08:25:24.000Z</time>
      </trkpt>
      <trkpt lat="48.25571" lon="3.31884">
        <ele>134</ele>
        <time>2013-09-29T08:25:25.000Z</time>
      </trkpt>
      <trkpt lat="48.25573" lon="3.31882">
        <ele>134</ele>
        <time>2013-09-29T08:25:26.000Z</time>
      </trkpt>
      <trkpt lat="48.25575" lon="3.31879">
        <ele>134</ele>
        <time>2013-09-29T08:25:27.000Z</time>
      </trkpt>
      <trkpt lat="48.25577" lon="3.31877">
        <ele>134</ele>
        <time>2013-09-29T08:25:28.000Z</time>
      </trkpt>
      <trkpt lat="48.25579" lon="3.31875">
        <ele>135</ele>
        <time>2013-09-29T08:25:29.000Z</time>
      </trkpt>
      <trkpt lat="48.25582" lon="3.31873">
        <ele>135</ele>
        <time>2013-09-29T08:25:30.000Z</time>
      </trkpt>
      <trkpt lat="48.25584" lon="3.31871">
        <ele>136</ele>
        <time>2013-09-29T08:25:31.000Z</time>
      </trkpt>
      <trkpt lat="48.25586" lon="3.31869">
        <ele>136</ele>
        <time>2013-09-29T08:25:32.000Z</time>
      </trkpt>
      <trkpt lat="48.25588" lon="3.31869">
        <ele>136</ele>
        <time>2013-09-29T08:25:33.000Z</time>
      </trkpt>
      <trkpt lat="48.2559" lon="3.31867">
        <ele>136</ele>
        <time>2013-09-29T08:25:34.000Z</time>
      </trkpt>
      <trkpt lat="48.25592" lon="3.31864">
        <ele>136</ele>
        <time>2013-09-29T08:25:35.000Z</time>
      </trkpt>
      <trkpt lat="48.25594" lon="3.31862">
        <ele>136</ele>
        <time>2013-09-29T08:25:36.000Z</time>
      </trkpt>
      <trkpt lat="48.25597" lon="3.31862">
        <ele>136</ele>
        <time>2013-09-29T08:25:37.000Z</time>
      </trkpt>
      <trkpt lat="48.25599" lon="3.3186">
        <ele>136</ele>
        <time>2013-09-29T08:25:38.000Z</time>
      </trkpt>
      <trkpt lat="48.25601" lon="3.31858">
        <ele>136</ele>
        <time>2013-09-29T08:25:39.000Z</time>
      </trkpt>
      <trkpt lat="48.25603" lon="3.31858">
        <ele>136</ele>
        <time>2013-09-29T08:25:40.000Z</time>
      </trkpt>
      <trkpt lat="48.25605" lon="3.31856">
        <ele>136</ele>
        <time>2013-09-29T08:25:41.000Z</time>
      </trkpt>
      <trkpt lat="48.25607" lon="3.31854">
        <ele>136</ele>
        <time>2013-09-29T08:25:42.000Z</time>
      </trkpt>
      <trkpt lat="48.25611" lon="3.31854">
        <ele>136</ele>
        <time>2013-09-29T08:25:43.000Z</time>
      </trkpt>
      <trkpt lat="48.25613" lon="3.31851">
        <ele>136</ele>
        <time>2013-09-29T08:25:44.000Z</time>
      </trkpt>
      <trkpt lat="48.25615" lon="3.31851">
        <ele>136</ele>
        <time>2013-09-29T08:25:45.000Z</time>
      </trkpt>
      <trkpt lat="48.25617" lon="3.31849">
        <ele>136</ele>
        <time>2013-09-29T08:25:46.000Z</time>
      </trkpt>
      <trkpt lat="48.2562" lon="3.31847">
        <ele>136</ele>
        <time>2013-09-29T08:25:47.000Z</time>
      </trkpt>
      <trkpt lat="48.25622" lon="3.31847">
        <ele>136</ele>
        <time>2013-09-29T08:25:48.000Z</time>
      </trkpt>
      <trkpt lat="48.25624" lon="3.31845">
        <ele>136</ele>
        <time>2013-09-29T08:25:49.000Z</time>
      </trkpt>
      <trkpt lat="48.25628" lon="3.31845">
        <ele>137</ele>
        <time>2013-09-29T08:25:50.000Z</time>
      </trkpt>
      <trkpt lat="48.2563" lon="3.31843">
        <ele>137</ele>
        <time>2013-09-29T08:25:51.000Z</time>
      </trkpt>
      <trkpt lat="48.25633" lon="3.31843">
        <ele>137</ele>
        <time>2013-09-29T08:25:52.000Z</time>
      </trkpt>
      <trkpt lat="48.25635" lon="3.31841">
        <ele>137</ele>
        <time>2013-09-29T08:25:53.000Z</time>
      </trkpt>
      <trkpt lat="48.25638" lon="3.31841">
        <ele>137</ele>
        <time>2013-09-29T08:25:54.000Z</time>
      </trkpt>
      <trkpt lat="48.25641" lon="3.31839">
        <ele>137</ele>
        <time>2013-09-29T08:25:55.000Z</time>
      </trkpt>
      <trkpt lat="48.25643" lon="3.31839">
        <ele>137</ele>
        <time>2013-09-29T08:25:56.000Z</time>
      </trkpt>
      <trkpt lat="48.25646" lon="3.31839">
        <ele>137</ele>
        <time>2013-09-29T08:25:57.000Z</time>
      </trkpt>
      <trkpt lat="48.25649" lon="3.31836">
        <ele>137</ele>
        <time>2013-09-29T08:25:58.000Z</time>
      </trkpt>
      <trkpt lat="48.25651" lon="3.31836">
        <ele>137</ele>
        <time>2013-09-29T08:25:59.000Z</time>
      </trkpt>
      <trkpt lat="48.25655" lon="3.31834">
        <ele>137</ele>
        <time>2013-09-29T08:26:00.000Z</time>
      </trkpt>
      <trkpt lat="48.25657" lon="3.31834">
        <ele>137</ele>
        <time>2013-09-29T08:26:01.000Z</time>
      </trkpt>
      <trkpt lat="48.2566" lon="3.31832">
        <ele>138</ele>
        <time>2013-09-29T08:26:02.000Z</time>
      </trkpt>
      <trkpt lat="48.25662" lon="3.31832">
        <ele>138</ele>
        <time>2013-09-29T08:26:03.000Z</time>
      </trkpt>
      <trkpt lat="48.25665" lon="3.3183">
        <ele>138</ele>
        <time>2013-09-29T08:26:04.000Z</time>
      </trkpt>
      <trkpt lat="48.25667" lon="3.3183">
        <ele>138</ele>
        <time>2013-09-29T08:26:05.000Z</time>
      </trkpt>
      <trkpt lat="48.25671" lon="3.3183">
        <ele>139</ele>
        <time>2013-09-29T08:26:06.000Z</time>
      </trkpt>
      <trkpt lat="48.25674" lon="3.31828">
        <ele>139</ele>
        <time>2013-09-29T08:26:07.000Z</time>
      </trkpt>
      <trkpt lat="48.25676" lon="3.31828">
        <ele>139</ele>
        <time>2013-09-29T08:26:08.000Z</time>
      </trkpt>
      <trkpt lat="48.25679" lon="3.31826">
        <ele>139</ele>
        <time>2013-09-29T08:26:09.000Z</time>
      </trkpt>
      <trkpt lat="48.25681" lon="3.31826">
        <ele>139</ele>
        <time>2013-09-29T08:26:10.000Z</time>
      </trkpt>
      <trkpt lat="48.25685" lon="3.31826">
        <ele>140</ele>
        <time>2013-09-29T08:26:11.000Z</time>
      </trkpt>
      <trkpt lat="48.25688" lon="3.31824">
        <ele>140</ele>
        <time>2013-09-29T08:26:12.000Z</time>
      </trkpt>
      <trkpt lat="48.2569" lon="3.31824">
        <ele>140</ele>
        <time>2013-09-29T08:26:13.000Z</time>
      </trkpt>
      <trkpt lat="48.25693" lon="3.31821">
        <ele>140</ele>
        <time>2013-09-29T08:26:14.000Z</time>
      </trkpt>
      <trkpt lat="48.25695" lon="3.31821">
        <ele>140</ele>
        <time>2013-09-29T08:26:15.000Z</time>
      </trkpt>
      <trkpt lat="48.25698" lon="3.31821">
        <ele>140</ele>
        <time>2013-09-29T08:26:16.000Z</time>
      </trkpt>
      <trkpt lat="48.25701" lon="3.31819">
        <ele>140</ele>
        <time>2013-09-29T08:26:17.000Z</time>
      </trkpt>
      <trkpt lat="48.25704" lon="3.31819">
        <ele>141</ele>
        <time>2013-09-29T08:26:18.000Z</time>
      </trkpt>
      <trkpt lat="48.25707" lon="3.31817">
        <ele>141</ele>
        <time>2013-09-29T08:26:19.000Z</time>
      </trkpt>
      <trkpt lat="48.25709" lon="3.31817">
        <ele>141</ele>
        <time>2013-09-29T08:26:20.000Z</time>
      </trkpt>
      <trkpt lat="48.25712" lon="3.31815">
        <ele>141</ele>
        <time>2013-09-29T08:26:21.000Z</time>
      </trkpt>
      <trkpt lat="48.25715" lon="3.31815">
        <ele>141</ele>
        <time>2013-09-29T08:26:22.000Z</time>
      </trkpt>
      <trkpt lat="48.25718" lon="3.31815">
        <ele>141</ele>
        <time>2013-09-29T08:26:23.000Z</time>
      </trkpt>
      <trkpt lat="48.2572" lon="3.31813">
        <ele>141</ele>
        <time>2013-09-29T08:26:24.000Z</time>
      </trkpt>
      <trkpt lat="48.25723" lon="3.31813">
        <ele>141</ele>
        <time>2013-09-29T08:26:25.000Z</time>
      </trkpt>
      <trkpt lat="48.25725" lon="3.31811">
        <ele>142</ele>
        <time>2013-09-29T08:26:26.000Z</time>
      </trkpt>
      <trkpt lat="48.25727" lon="3.31811">
        <ele>142</ele>
        <time>2013-09-29T08:26:27.000Z</time>
      </trkpt>
      <trkpt lat="48.25731" lon="3.31811">
        <ele>142</ele>
        <time>2013-09-29T08:26:28.000Z</time>
      </trkpt>
      <trkpt lat="48.25733" lon="3.31809">
        <ele>142</ele>
        <time>2013-09-29T08:26:29.000Z</time>
      </trkpt>
      <trkpt lat="48.25736" lon="3.31809">
        <ele>142</ele>
        <time>2013-09-29T08:26:30.000Z</time>
      </trkpt>
      <trkpt lat="48.25738" lon="3.31806">
        <ele>142</ele>
        <time>2013-09-29T08:26:31.000Z</time>
      </trkpt>
      <trkpt lat="48.2574" lon="3.31806">
        <ele>142</ele>
        <time>2013-09-29T08:26:32.000Z</time>
      </trkpt>
      <trkpt lat="48.25742" lon="3.31804">
        <ele>142</ele>
        <time>2013-09-29T08:26:33.000Z</time>
      </trkpt>
      <trkpt lat="48.25746" lon="3.31804">
        <ele>142</ele>
        <time>2013-09-29T08:26:34.000Z</time>
      </trkpt>
      <trkpt lat="48.25748" lon="3.31802">
        <ele>142</ele>
        <time>2013-09-29T08:26:35.000Z</time>
      </trkpt>
      <trkpt lat="48.2575" lon="3.31802">
        <ele>142</ele>
        <time>2013-09-29T08:26:36.000Z</time>
      </trkpt>
      <trkpt lat="48.25752" lon="3.318">
        <ele>146</ele>
        <time>2013-09-29T08:26:37.000Z</time>
      </trkpt>
      <trkpt lat="48.25754" lon="3.318">
        <ele>146</ele>
        <time>2013-09-29T08:26:38.000Z</time>
      </trkpt>
      <trkpt lat="48.25758" lon="3.31798">
        <ele>146</ele>
        <time>2013-09-29T08:26:39.000Z</time>
      </trkpt>
      <trkpt lat="48.2576" lon="3.31798">
        <ele>146</ele>
        <time>2013-09-29T08:26:40.000Z</time>
      </trkpt>
      <trkpt lat="48.25762" lon="3.31796">
        <ele>146</ele>
        <time>2013-09-29T08:26:41.000Z</time>
      </trkpt>
      <trkpt lat="48.25764" lon="3.31796">
        <ele>146</ele>
        <time>2013-09-29T08:26:42.000Z</time>
      </trkpt>
      <trkpt lat="48.25766" lon="3.31794">
        <ele>146</ele>
        <time>2013-09-29T08:26:43.000Z</time>
      </trkpt>
      <trkpt lat="48.25769" lon="3.31794">
        <ele>146</ele>
        <time>2013-09-29T08:26:44.000Z</time>
      </trkpt>
      <trkpt lat="48.25771" lon="3.31791">
        <ele>146</ele>
        <time>2013-09-29T08:26:45.000Z</time>
      </trkpt>
      <trkpt lat="48.25774" lon="3.31791">
        <ele>146</ele>
        <time>2013-09-29T08:26:46.000Z</time>
      </trkpt>
      <trkpt lat="48.25776" lon="3.31789">
        <ele>146</ele>
        <time>2013-09-29T08:26:47.000Z</time>
      </trkpt>
      <trkpt lat="48.25778" lon="3.31787">
        <ele>146</ele>
        <time>2013-09-29T08:26:48.000Z</time>
      </trkpt>
      <trkpt lat="48.25781" lon="3.31787">
        <ele>146</ele>
        <time>2013-09-29T08:26:49.000Z</time>
      </trkpt>
      <trkpt lat="48.25783" lon="3.31785">
        <ele>146</ele>
        <time>2013-09-29T08:26:50.000Z</time>
      </trkpt>
      <trkpt lat="48.25785" lon="3.31785">
        <ele>147</ele>
        <time>2013-09-29T08:26:51.000Z</time>
      </trkpt>
      <trkpt lat="48.25788" lon="3.31783">
        <ele>147</ele>
        <time>2013-09-29T08:26:52.000Z</time>
      </trkpt>
      <trkpt lat="48.2579" lon="3.31783">
        <ele>147</ele>
        <time>2013-09-29T08:26:53.000Z</time>
      </trkpt>
      <trkpt lat="48.25792" lon="3.31781">
        <ele>147</ele>
        <time>2013-09-29T08:26:54.000Z</time>
      </trkpt>
      <trkpt lat="48.25795" lon="3.31781">
        <ele>147</ele>
        <time>2013-09-29T08:26:55.000Z</time>
      </trkpt>
      <trkpt lat="48.25797" lon="3.31779">
        <ele>147</ele>
        <time>2013-09-29T08:26:56.000Z</time>
      </trkpt>
      <trkpt lat="48.25799" lon="3.31779">
        <ele>147</ele>
        <time>2013-09-29T08:26:57.000Z</time>
      </trkpt>
      <trkpt lat="48.25801" lon="3.31776">
        <ele>147</ele>
        <time>2013-09-29T08:26:58.000Z</time>
      </trkpt>
      <trkpt lat="48.25804" lon="3.31774">
        <ele>147</ele>
        <time>2013-09-29T08:26:59.000Z</time>
      </trkpt>
      <trkpt lat="48.25807" lon="3.31774">
        <ele>147</ele>
        <time>2013-09-29T08:27:00.000Z</time>
      </trkpt>
      <trkpt lat="48.25809" lon="3.31772">
        <ele>148</ele>
        <time>2013-09-29T08:27:01.000Z</time>
      </trkpt>
      <trkpt lat="48.25811" lon="3.31772">
        <ele>148</ele>
        <time>2013-09-29T08:27:02.000Z</time>
      </trkpt>
      <trkpt lat="48.25813" lon="3.3177">
        <ele>148</ele>
        <time>2013-09-29T08:27:03.000Z</time>
      </trkpt>
      <trkpt lat="48.25817" lon="3.31768">
        <ele>148</ele>
        <time>2013-09-29T08:27:04.000Z</time>
      </trkpt>
      <trkpt lat="48.25819" lon="3.31768">
        <ele>148</ele>
        <time>2013-09-29T08:27:05.000Z</time>
      </trkpt>
      <trkpt lat="48.25821" lon="3.31766">
        <ele>148</ele>
        <time>2013-09-29T08:27:06.000Z</time>
      </trkpt>
      <trkpt lat="48.25824" lon="3.31766">
        <ele>148</ele>
        <time>2013-09-29T08:27:07.000Z</time>
      </trkpt>
      <trkpt lat="48.25826" lon="3.31764">
        <ele>149</ele>
        <time>2013-09-29T08:27:08.000Z</time>
      </trkpt>
      <trkpt lat="48.25828" lon="3.31764">
        <ele>149</ele>
        <time>2013-09-29T08:27:09.000Z</time>
      </trkpt>
      <trkpt lat="48.2583" lon="3.31761">
        <ele>149</ele>
        <time>2013-09-29T08:27:10.000Z</time>
      </trkpt>
      <trkpt lat="48.25834" lon="3.31761">
        <ele>150</ele>
        <time>2013-09-29T08:27:11.000Z</time>
      </trkpt>
      <trkpt lat="48.25836" lon="3.31759">
        <ele>150</ele>
        <time>2013-09-29T08:27:12.000Z</time>
      </trkpt>
      <trkpt lat="48.25838" lon="3.31757">
        <ele>150</ele>
        <time>2013-09-29T08:27:13.000Z</time>
      </trkpt>
      <trkpt lat="48.2584" lon="3.31757">
        <ele>150</ele>
        <time>2013-09-29T08:27:14.000Z</time>
      </trkpt>
      <trkpt lat="48.25843" lon="3.31755">
        <ele>150</ele>
        <time>2013-09-29T08:27:15.000Z</time>
      </trkpt>
      <trkpt lat="48.25845" lon="3.31755">
        <ele>150</ele>
        <time>2013-09-29T08:27:16.000Z</time>
      </trkpt>
      <trkpt lat="48.25848" lon="3.31755">
        <ele>150</ele>
        <time>2013-09-29T08:27:17.000Z</time>
      </trkpt>
      <trkpt lat="48.25851" lon="3.31753">
        <ele>150</ele>
        <time>2013-09-29T08:27:18.000Z</time>
      </trkpt>
      <trkpt lat="48.25853" lon="3.31753">
        <ele>150</ele>
        <time>2013-09-29T08:27:19.000Z</time>
      </trkpt>
      <trkpt lat="48.25855" lon="3.31751">
        <ele>150</ele>
        <time>2013-09-29T08:27:20.000Z</time>
      </trkpt>
      <trkpt lat="48.25857" lon="3.31751">
        <ele>150</ele>
        <time>2013-09-29T08:27:21.000Z</time>
      </trkpt>
      <trkpt lat="48.25861" lon="3.31748">
        <ele>151</ele>
        <time>2013-09-29T08:27:22.000Z</time>
      </trkpt>
      <trkpt lat="48.25863" lon="3.31748">
        <ele>151</ele>
        <time>2013-09-29T08:27:23.000Z</time>
      </trkpt>
      <trkpt lat="48.25866" lon="3.31746">
        <ele>151</ele>
        <time>2013-09-29T08:27:24.000Z</time>
      </trkpt>
      <trkpt lat="48.25868" lon="3.31746">
        <ele>151</ele>
        <time>2013-09-29T08:27:25.000Z</time>
      </trkpt>
      <trkpt lat="48.2587" lon="3.31744">
        <ele>151</ele>
        <time>2013-09-29T08:27:26.000Z</time>
      </trkpt>
      <trkpt lat="48.25873" lon="3.31744">
        <ele>151</ele>
        <time>2013-09-29T08:27:27.000Z</time>
      </trkpt>
      <trkpt lat="48.25876" lon="3.31742">
        <ele>151</ele>
        <time>2013-09-29T08:27:28.000Z</time>
      </trkpt>
      <trkpt lat="48.25879" lon="3.3174">
        <ele>151</ele>
        <time>2013-09-29T08:27:29.000Z</time>
      </trkpt>
      <trkpt lat="48.25881" lon="3.3174">
        <ele>151</ele>
        <time>2013-09-29T08:27:30.000Z</time>
      </trkpt>
      <trkpt lat="48.25884" lon="3.31738">
        <ele>151</ele>
        <time>2013-09-29T08:27:31.000Z</time>
      </trkpt>
      <trkpt lat="48.25887" lon="3.31738">
        <ele>151</ele>
        <time>2013-09-29T08:27:32.000Z</time>
      </trkpt>
      <trkpt lat="48.25891" lon="3.31736">
        <ele>151</ele>
        <time>2013-09-29T08:27:33.000Z</time>
      </trkpt>
      <trkpt lat="48.25893" lon="3.31736">
        <ele>151</ele>
        <time>2013-09-29T08:27:34.000Z</time>
      </trkpt>
      <trkpt lat="48.25896" lon="3.31733">
        <ele>151</ele>
        <time>2013-09-29T08:27:35.000Z</time>
      </trkpt>
      <trkpt lat="48.25899" lon="3.31733">
        <ele>151</ele>
        <time>2013-09-29T08:27:36.000Z</time>
      </trkpt>
      <trkpt lat="48.25902" lon="3.31731">
        <ele>151</ele>
        <time>2013-09-29T08:27:37.000Z</time>
      </trkpt>
      <trkpt lat="48.25906" lon="3.31731">
        <ele>151</ele>
        <time>2013-09-29T08:27:38.000Z</time>
      </trkpt>
      <trkpt lat="48.25909" lon="3.31729">
        <ele>151</ele>
        <time>2013-09-29T08:27:39.000Z</time>
      </trkpt>
      <trkpt lat="48.25912" lon="3.31727">
        <ele>151</ele>
        <time>2013-09-29T08:27:40.000Z</time>
      </trkpt>
      <trkpt lat="48.25915" lon="3.31725">
        <ele>151</ele>
        <time>2013-09-29T08:27:41.000Z</time>
      </trkpt>
      <trkpt lat="48.25918" lon="3.31725">
        <ele>152</ele>
        <time>2013-09-29T08:27:42.000Z</time>
      </trkpt>
      <trkpt lat="48.25922" lon="3.31723">
        <ele>152</ele>
        <time>2013-09-29T08:27:43.000Z</time>
      </trkpt>
      <trkpt lat="48.25925" lon="3.31721">
        <ele>152</ele>
        <time>2013-09-29T08:27:44.000Z</time>
      </trkpt>
      <trkpt lat="48.25928" lon="3.31718">
        <ele>152</ele>
        <time>2013-09-29T08:27:45.000Z</time>
      </trkpt>
      <trkpt lat="48.25931" lon="3.31714">
        <ele>152</ele>
        <time>2013-09-29T08:27:46.000Z</time>
      </trkpt>
      <trkpt lat="48.25935" lon="3.31712">
        <ele>152</ele>
        <time>2013-09-29T08:27:47.000Z</time>
      </trkpt>
      <trkpt lat="48.25938" lon="3.31708">
        <ele>152</ele>
        <time>2013-09-29T08:27:48.000Z</time>
      </trkpt>
      <trkpt lat="48.2594" lon="3.31706">
        <ele>152</ele>
        <time>2013-09-29T08:27:49.000Z</time>
      </trkpt>
      <trkpt lat="48.25943" lon="3.31701">
        <ele>152</ele>
        <time>2013-09-29T08:27:50.000Z</time>
      </trkpt>
      <trkpt lat="48.25945" lon="3.31697">
        <ele>152</ele>
        <time>2013-09-29T08:27:51.000Z</time>
      </trkpt>
      <trkpt lat="48.25948" lon="3.31693">
        <ele>152</ele>
        <time>2013-09-29T08:27:52.000Z</time>
      </trkpt>
      <trkpt lat="48.25951" lon="3.31688">
        <ele>152</ele>
        <time>2013-09-29T08:27:53.000Z</time>
      </trkpt>
      <trkpt lat="48.25954" lon="3.31686">
        <ele>152</ele>
        <time>2013-09-29T08:27:54.000Z</time>
      </trkpt>
      <trkpt lat="48.25956" lon="3.31682">
        <ele>152</ele>
        <time>2013-09-29T08:27:55.000Z</time>
      </trkpt>
      <trkpt lat="48.25959" lon="3.31678">
        <ele>152</ele>
        <time>2013-09-29T08:27:56.000Z</time>
      </trkpt>
      <trkpt lat="48.25961" lon="3.31673">
        <ele>152</ele>
        <time>2013-09-29T08:27:57.000Z</time>
      </trkpt>
      <trkpt lat="48.25963" lon="3.31669">
        <ele>152</ele>
        <time>2013-09-29T08:27:58.000Z</time>
      </trkpt>
      <trkpt lat="48.25966" lon="3.31663">
        <ele>153</ele>
        <time>2013-09-29T08:27:59.000Z</time>
      </trkpt>
      <trkpt lat="48.25968" lon="3.31658">
        <ele>153</ele>
        <time>2013-09-29T08:28:00.000Z</time>
      </trkpt>
      <trkpt lat="48.2597" lon="3.31654">
        <ele>153</ele>
        <time>2013-09-29T08:28:01.000Z</time>
      </trkpt>
      <trkpt lat="48.25972" lon="3.31648">
        <ele>153</ele>
        <time>2013-09-29T08:28:02.000Z</time>
      </trkpt>
      <trkpt lat="48.25973" lon="3.31643">
        <ele>153</ele>
        <time>2013-09-29T08:28:03.000Z</time>
      </trkpt>
      <trkpt lat="48.25975" lon="3.31637">
        <ele>153</ele>
        <time>2013-09-29T08:28:04.000Z</time>
      </trkpt>
      <trkpt lat="48.25976" lon="3.31628">
        <ele>152</ele>
        <time>2013-09-29T08:28:05.000Z</time>
      </trkpt>
      <trkpt lat="48.25979" lon="3.3162">
        <ele>152</ele>
        <time>2013-09-29T08:28:06.000Z</time>
      </trkpt>
      <trkpt lat="48.25982" lon="3.31609">
        <ele>152</ele>
        <time>2013-09-29T08:28:07.000Z</time>
      </trkpt>
      <trkpt lat="48.25985" lon="3.316">
        <ele>152</ele>
        <time>2013-09-29T08:28:08.000Z</time>
      </trkpt>
      <trkpt lat="48.25987" lon="3.3159">
        <ele>152</ele>
        <time>2013-09-29T08:28:09.000Z</time>
      </trkpt>
      <trkpt lat="48.2599" lon="3.31581">
        <ele>151</ele>
        <time>2013-09-29T08:28:10.000Z</time>
      </trkpt>
      <trkpt lat="48.25994" lon="3.31573">
        <ele>150</ele>
        <time>2013-09-29T08:28:11.000Z</time>
      </trkpt>
      <trkpt lat="48.25997" lon="3.31564">
        <ele>150</ele>
        <time>2013-09-29T08:28:12.000Z</time>
      </trkpt>
      <trkpt lat="48.26001" lon="3.31558">
        <ele>148</ele>
        <time>2013-09-29T08:28:13.000Z</time>
      </trkpt>
      <trkpt lat="48.26006" lon="3.31549">
        <ele>148</ele>
        <time>2013-09-29T08:28:14.000Z</time>
      </trkpt>
      <trkpt lat="48.26011" lon="3.31542">
        <ele>148</ele>
        <time>2013-09-29T08:28:15.000Z</time>
      </trkpt>
      <trkpt lat="48.26016" lon="3.31534">
        <ele>147</ele>
        <time>2013-09-29T08:28:16.000Z</time>
      </trkpt>
      <trkpt lat="48.26021" lon="3.31527">
        <ele>147</ele>
        <time>2013-09-29T08:28:17.000Z</time>
      </trkpt>
      <trkpt lat="48.26027" lon="3.31521">
        <ele>147</ele>
        <time>2013-09-29T08:28:18.000Z</time>
      </trkpt>
      <trkpt lat="48.26031" lon="3.31512">
        <ele>147</ele>
        <time>2013-09-29T08:28:19.000Z</time>
      </trkpt>
      <trkpt lat="48.2604" lon="3.31512">
        <ele>146</ele>
        <time>2013-09-29T08:28:20.000Z</time>
      </trkpt>
      <trkpt lat="48.26048" lon="3.3151">
        <ele>146</ele>
        <time>2013-09-29T08:28:21.000Z</time>
      </trkpt>
      <trkpt lat="48.26057" lon="3.31512">
        <ele>146</ele>
        <time>2013-09-29T08:28:22.000Z</time>
      </trkpt>
      <trkpt lat="48.26064" lon="3.31512">
        <ele>146</ele>
        <time>2013-09-29T08:28:23.000Z</time>
      </trkpt>
      <trkpt lat="48.26072" lon="3.3151">
        <ele>145</ele>
        <time>2013-09-29T08:28:24.000Z</time>
      </trkpt>
      <trkpt lat="48.26079" lon="3.31508">
        <ele>145</ele>
        <time>2013-09-29T08:28:25.000Z</time>
      </trkpt>
      <trkpt lat="48.26087" lon="3.3151">
        <ele>144</ele>
        <time>2013-09-29T08:28:26.000Z</time>
      </trkpt>
      <trkpt lat="48.26094" lon="3.3151">
        <ele>144</ele>
        <time>2013-09-29T08:28:27.000Z</time>
      </trkpt>
      <trkpt lat="48.26102" lon="3.3151">
        <ele>144</ele>
        <time>2013-09-29T08:28:28.000Z</time>
      </trkpt>
      <trkpt lat="48.26109" lon="3.31512">
        <ele>144</ele>
        <time>2013-09-29T08:28:29.000Z</time>
      </trkpt>
      <trkpt lat="48.26116" lon="3.31515">
        <ele>144</ele>
        <time>2013-09-29T08:28:30.000Z</time>
      </trkpt>
      <trkpt lat="48.26122" lon="3.31515">
        <ele>144</ele>
        <time>2013-09-29T08:28:31.000Z</time>
      </trkpt>
      <trkpt lat="48.26129" lon="3.31517">
        <ele>144</ele>
        <time>2013-09-29T08:28:32.000Z</time>
      </trkpt>
      <trkpt lat="48.26135" lon="3.31519">
        <ele>144</ele>
        <time>2013-09-29T08:28:33.000Z</time>
      </trkpt>
      <trkpt lat="48.26141" lon="3.31521">
        <ele>144</ele>
        <time>2013-09-29T08:28:34.000Z</time>
      </trkpt>
      <trkpt lat="48.26146" lon="3.31521">
        <ele>144</ele>
        <time>2013-09-29T08:28:35.000Z</time>
      </trkpt>
      <trkpt lat="48.26152" lon="3.31523">
        <ele>144</ele>
        <time>2013-09-29T08:28:36.000Z</time>
      </trkpt>
      <trkpt lat="48.26158" lon="3.31525">
        <ele>144</ele>
        <time>2013-09-29T08:28:37.000Z</time>
      </trkpt>
      <trkpt lat="48.26163" lon="3.31527">
        <ele>144</ele>
        <time>2013-09-29T08:28:38.000Z</time>
      </trkpt>
      <trkpt lat="48.26168" lon="3.3153">
        <ele>145</ele>
        <time>2013-09-29T08:28:39.000Z</time>
      </trkpt>
      <trkpt lat="48.26173" lon="3.3153">
        <ele>145</ele>
        <time>2013-09-29T08:28:40.000Z</time>
      </trkpt>
      <trkpt lat="48.26178" lon="3.31532">
        <ele>145</ele>
        <time>2013-09-29T08:28:41.000Z</time>
      </trkpt>
      <trkpt lat="48.26182" lon="3.31534">
        <ele>146</ele>
        <time>2013-09-29T08:28:42.000Z</time>
      </trkpt>
      <trkpt lat="48.26187" lon="3.31536">
        <ele>146</ele>
        <time>2013-09-29T08:28:43.000Z</time>
      </trkpt>
      <trkpt lat="48.26191" lon="3.31538">
        <ele>146</ele>
        <time>2013-09-29T08:28:44.000Z</time>
      </trkpt>
      <trkpt lat="48.26195" lon="3.31538">
        <ele>146</ele>
        <time>2013-09-29T08:28:45.000Z</time>
      </trkpt>
      <trkpt lat="48.262" lon="3.3154">
        <ele>146</ele>
        <time>2013-09-29T08:28:46.000Z</time>
      </trkpt>
      <trkpt lat="48.26204" lon="3.3154">
        <ele>147</ele>
        <time>2013-09-29T08:28:47.000Z</time>
      </trkpt>
      <trkpt lat="48.26208" lon="3.31542">
        <ele>147</ele>
        <time>2013-09-29T08:28:48.000Z</time>
      </trkpt>
      <trkpt lat="48.26212" lon="3.31545">
        <ele>147</ele>
        <time>2013-09-29T08:28:49.000Z</time>
      </trkpt>
      <trkpt lat="48.26216" lon="3.31545">
        <ele>147</ele>
        <time>2013-09-29T08:28:50.000Z</time>
      </trkpt>
      <trkpt lat="48.2622" lon="3.31547">
        <ele>147</ele>
        <time>2013-09-29T08:28:51.000Z</time>
      </trkpt>
      <trkpt lat="48.26223" lon="3.31549">
        <ele>148</ele>
        <time>2013-09-29T08:28:52.000Z</time>
      </trkpt>
      <trkpt lat="48.26227" lon="3.31549">
        <ele>148</ele>
        <time>2013-09-29T08:28:53.000Z</time>
      </trkpt>
      <trkpt lat="48.26231" lon="3.31551">
        <ele>148</ele>
        <time>2013-09-29T08:28:54.000Z</time>
      </trkpt>
      <trkpt lat="48.26235" lon="3.31551">
        <ele>148</ele>
        <time>2013-09-29T08:28:55.000Z</time>
      </trkpt>
      <trkpt lat="48.26238" lon="3.31553">
        <ele>148</ele>
        <time>2013-09-29T08:28:56.000Z</time>
      </trkpt>
      <trkpt lat="48.26241" lon="3.31553">
        <ele>149</ele>
        <time>2013-09-29T08:28:57.000Z</time>
      </trkpt>
      <trkpt lat="48.26245" lon="3.31555">
        <ele>149</ele>
        <time>2013-09-29T08:28:58.000Z</time>
      </trkpt>
      <trkpt lat="48.26249" lon="3.31555">
        <ele>149</ele>
        <time>2013-09-29T08:28:59.000Z</time>
      </trkpt>
      <trkpt lat="48.26252" lon="3.31558">
        <ele>153</ele>
        <time>2013-09-29T08:29:00.000Z</time>
      </trkpt>
      <trkpt lat="48.26255" lon="3.31558">
        <ele>153</ele>
        <time>2013-09-29T08:29:01.000Z</time>
      </trkpt>
      <trkpt lat="48.26259" lon="3.31558">
        <ele>153</ele>
        <time>2013-09-29T08:29:02.000Z</time>
      </trkpt>
      <trkpt lat="48.26262" lon="3.3156">
        <ele>153</ele>
        <time>2013-09-29T08:29:03.000Z</time>
      </trkpt>
      <trkpt lat="48.26265" lon="3.3156">
        <ele>153</ele>
        <time>2013-09-29T08:29:04.000Z</time>
      </trkpt>
      <trkpt lat="48.26268" lon="3.3156">
        <ele>154</ele>
        <time>2013-09-29T08:29:05.000Z</time>
      </trkpt>
      <trkpt lat="48.26271" lon="3.3156">
        <ele>154</ele>
        <time>2013-09-29T08:29:06.000Z</time>
      </trkpt>
      <trkpt lat="48.26275" lon="3.3156">
        <ele>154</ele>
        <time>2013-09-29T08:29:07.000Z</time>
      </trkpt>
      <trkpt lat="48.26277" lon="3.3156">
        <ele>154</ele>
        <time>2013-09-29T08:29:08.000Z</time>
      </trkpt>
      <trkpt lat="48.2628" lon="3.3156">
        <ele>154</ele>
        <time>2013-09-29T08:29:09.000Z</time>
      </trkpt>
      <trkpt lat="48.26283" lon="3.3156">
        <ele>154</ele>
        <time>2013-09-29T08:29:10.000Z</time>
      </trkpt>
      <trkpt lat="48.26286" lon="3.31558">
        <ele>154</ele>
        <time>2013-09-29T08:29:11.000Z</time>
      </trkpt>
      <trkpt lat="48.2629" lon="3.31558">
        <ele>154</ele>
        <time>2013-09-29T08:29:12.000Z</time>
      </trkpt>
      <trkpt lat="48.26292" lon="3.31555">
        <ele>154</ele>
        <time>2013-09-29T08:29:13.000Z</time>
      </trkpt>
      <trkpt lat="48.26295" lon="3.31553">
        <ele>155</ele>
        <time>2013-09-29T08:29:14.000Z</time>
      </trkpt>
      <trkpt lat="48.26298" lon="3.31553">
        <ele>155</ele>
        <time>2013-09-29T08:29:15.000Z</time>
      </trkpt>
      <trkpt lat="48.263" lon="3.31551">
        <ele>155</ele>
        <time>2013-09-29T08:29:16.000Z</time>
      </trkpt>
      <trkpt lat="48.26303" lon="3.31549">
        <ele>155</ele>
        <time>2013-09-29T08:29:17.000Z</time>
      </trkpt>
      <trkpt lat="48.26306" lon="3.31545">
        <ele>155</ele>
        <time>2013-09-29T08:29:18.000Z</time>
      </trkpt>
      <trkpt lat="48.26308" lon="3.31542">
        <ele>155</ele>
        <time>2013-09-29T08:29:19.000Z</time>
      </trkpt>
      <trkpt lat="48.26311" lon="3.3154">
        <ele>155</ele>
        <time>2013-09-29T08:29:20.000Z</time>
      </trkpt>
      <trkpt lat="48.26313" lon="3.31536">
        <ele>155</ele>
        <time>2013-09-29T08:29:21.000Z</time>
      </trkpt>
      <trkpt lat="48.26315" lon="3.31534">
        <ele>155</ele>
        <time>2013-09-29T08:29:22.000Z</time>
      </trkpt>
      <trkpt lat="48.26319" lon="3.3153">
        <ele>155</ele>
        <time>2013-09-29T08:29:23.000Z</time>
      </trkpt>
      <trkpt lat="48.26321" lon="3.31525">
        <ele>155</ele>
        <time>2013-09-29T08:29:24.000Z</time>
      </trkpt>
      <trkpt lat="48.26323" lon="3.31523">
        <ele>155</ele>
        <time>2013-09-29T08:29:25.000Z</time>
      </trkpt>
      <trkpt lat="48.26325" lon="3.31519">
        <ele>155</ele>
        <time>2013-09-29T08:29:26.000Z</time>
      </trkpt>
      <trkpt lat="48.26328" lon="3.31515">
        <ele>155</ele>
        <time>2013-09-29T08:29:27.000Z</time>
      </trkpt>
      <trkpt lat="48.2633" lon="3.3151">
        <ele>155</ele>
        <time>2013-09-29T08:29:28.000Z</time>
      </trkpt>
      <trkpt lat="48.26333" lon="3.31506">
        <ele>155</ele>
        <time>2013-09-29T08:29:29.000Z</time>
      </trkpt>
      <trkpt lat="48.26335" lon="3.31502">
        <ele>156</ele>
        <time>2013-09-29T08:29:30.000Z</time>
      </trkpt>
      <trkpt lat="48.26337" lon="3.31497">
        <ele>155</ele>
        <time>2013-09-29T08:29:31.000Z</time>
      </trkpt>
      <trkpt lat="48.2634" lon="3.31493">
        <ele>156</ele>
        <time>2013-09-29T08:29:32.000Z</time>
      </trkpt>
      <trkpt lat="48.26342" lon="3.31489">
        <ele>156</ele>
        <time>2013-09-29T08:29:33.000Z</time>
      </trkpt>
      <trkpt lat="48.26345" lon="3.31485">
        <ele>156</ele>
        <time>2013-09-29T08:29:34.000Z</time>
      </trkpt>
      <trkpt lat="48.26349" lon="3.31478">
        <ele>156</ele>
        <time>2013-09-29T08:29:35.000Z</time>
      </trkpt>
      <trkpt lat="48.26352" lon="3.31474">
        <ele>157</ele>
        <time>2013-09-29T08:29:36.000Z</time>
      </trkpt>
      <trkpt lat="48.26355" lon="3.31472">
        <ele>157</ele>
        <time>2013-09-29T08:29:37.000Z</time>
      </trkpt>
      <trkpt lat="48.26359" lon="3.31467">
        <ele>157</ele>
        <time>2013-09-29T08:29:38.000Z</time>
      </trkpt>
      <trkpt lat="48.26363" lon="3.31463">
        <ele>157</ele>
        <time>2013-09-29T08:29:39.000Z</time>
      </trkpt>
      <trkpt lat="48.26366" lon="3.31461">
        <ele>157</ele>
        <time>2013-09-29T08:29:40.000Z</time>
      </trkpt>
      <trkpt lat="48.2637" lon="3.31457">
        <ele>157</ele>
        <time>2013-09-29T08:29:41.000Z</time>
      </trkpt>
      <trkpt lat="48.26374" lon="3.31455">
        <ele>157</ele>
        <time>2013-09-29T08:29:42.000Z</time>
      </trkpt>
      <trkpt lat="48.26378" lon="3.31452">
        <ele>157</ele>
        <time>2013-09-29T08:29:43.000Z</time>
      </trkpt>
      <trkpt lat="48.26381" lon="3.3145">
        <ele>157</ele>
        <time>2013-09-29T08:29:44.000Z</time>
      </trkpt>
      <trkpt lat="48.26385" lon="3.31448">
        <ele>157</ele>
        <time>2013-09-29T08:29:45.000Z</time>
      </trkpt>
      <trkpt lat="48.26388" lon="3.31446">
        <ele>157</ele>
        <time>2013-09-29T08:29:46.000Z</time>
      </trkpt>
      <trkpt lat="48.26393" lon="3.31444">
        <ele>158</ele>
        <time>2013-09-29T08:29:47.000Z</time>
      </trkpt>
      <trkpt lat="48.26396" lon="3.31444">
        <ele>158</ele>
        <time>2013-09-29T08:29:48.000Z</time>
      </trkpt>
      <trkpt lat="48.264" lon="3.31444">
        <ele>158</ele>
        <time>2013-09-29T08:29:49.000Z</time>
      </trkpt>
      <trkpt lat="48.26404" lon="3.31444">
        <ele>158</ele>
        <time>2013-09-29T08:29:50.000Z</time>
      </trkpt>
      <trkpt lat="48.26408" lon="3.31444">
        <ele>158</ele>
        <time>2013-09-29T08:29:51.000Z</time>
      </trkpt>
      <trkpt lat="48.26412" lon="3.31446">
        <ele>158</ele>
        <time>2013-09-29T08:29:52.000Z</time>
      </trkpt>
      <trkpt lat="48.26415" lon="3.31446">
        <ele>158</ele>
        <time>2013-09-29T08:29:53.000Z</time>
      </trkpt>
      <trkpt lat="48.26419" lon="3.31446">
        <ele>161</ele>
        <time>2013-09-29T08:29:54.000Z</time>
      </trkpt>
      <trkpt lat="48.26423" lon="3.31446">
        <ele>161</ele>
        <time>2013-09-29T08:29:55.000Z</time>
      </trkpt>
      <trkpt lat="48.26427" lon="3.31446">
        <ele>161</ele>
        <time>2013-09-29T08:29:56.000Z</time>
      </trkpt>
      <trkpt lat="48.2643" lon="3.31446">
        <ele>161</ele>
        <time>2013-09-29T08:29:57.000Z</time>
      </trkpt>
      <trkpt lat="48.26433" lon="3.31446">
        <ele>161</ele>
        <time>2013-09-29T08:29:58.000Z</time>
      </trkpt>
      <trkpt lat="48.26437" lon="3.31446">
        <ele>161</ele>
        <time>2013-09-29T08:29:59.000Z</time>
      </trkpt>
      <trkpt lat="48.26439" lon="3.31444">
        <ele>161</ele>
        <time>2013-09-29T08:30:00.000Z</time>
      </trkpt>
      <trkpt lat="48.26441" lon="3.31446">
        <ele>161</ele>
        <time>2013-09-29T08:30:03.000Z</time>
      </trkpt>
      <trkpt lat="48.26446" lon="3.31446">
        <ele>162</ele>
        <time>2013-09-29T08:30:04.000Z</time>
      </trkpt>
      <trkpt lat="48.26446" lon="3.31446">
        <ele>162</ele>
        <time>2013-09-29T08:30:15.000Z</time>
      </trkpt>
      <trkpt lat="48.26453" lon="3.31455">
        <ele>162</ele>
        <time>2013-09-29T08:30:16.000Z</time>
      </trkpt>
      <trkpt lat="48.26453" lon="3.31455">
        <ele>162</ele>
        <time>2013-09-29T08:30:25.000Z</time>
      </trkpt>
      <trkpt lat="48.26453" lon="3.3147">
        <ele>163</ele>
        <time>2013-09-29T08:30:26.000Z</time>
      </trkpt>
      <trkpt lat="48.26453" lon="3.3147">
        <ele>163</ele>
        <time>2013-09-29T08:30:31.000Z</time>
      </trkpt>
      <trkpt lat="48.26457" lon="3.31482">
        <ele>163</ele>
        <time>2013-09-29T08:30:32.000Z</time>
      </trkpt>
      <trkpt lat="48.26457" lon="3.31482">
        <ele>163</ele>
        <time>2013-09-29T08:30:37.000Z</time>
      </trkpt>
      <trkpt lat="48.26463" lon="3.31495">
        <ele>164</ele>
        <time>2013-09-29T08:30:38.000Z</time>
      </trkpt>
      <trkpt lat="48.26463" lon="3.31495">
        <ele>164</ele>
        <time>2013-09-29T08:30:44.000Z</time>
      </trkpt>
      <trkpt lat="48.26471" lon="3.31506">
        <ele>170</ele>
        <time>2013-09-29T08:30:45.000Z</time>
      </trkpt>
      <trkpt lat="48.26471" lon="3.31506">
        <ele>170</ele>
        <time>2013-09-29T08:30:52.000Z</time>
      </trkpt>
      <trkpt lat="48.26477" lon="3.31517">
        <ele>170</ele>
        <time>2013-09-29T08:30:53.000Z</time>
      </trkpt>
      <trkpt lat="48.26477" lon="3.31517">
        <ele>170</ele>
        <time>2013-09-29T08:30:58.000Z</time>
      </trkpt>
      <trkpt lat="48.26484" lon="3.31525">
        <ele>170</ele>
        <time>2013-09-29T08:30:59.000Z</time>
      </trkpt>
      <trkpt lat="48.26484" lon="3.31525">
        <ele>170</ele>
        <time>2013-09-29T08:31:05.000Z</time>
      </trkpt>
      <trkpt lat="48.26492" lon="3.31534">
        <ele>171</ele>
        <time>2013-09-29T08:31:06.000Z</time>
      </trkpt>
      <trkpt lat="48.26492" lon="3.31534">
        <ele>171</ele>
        <time>2013-09-29T08:31:12.000Z</time>
      </trkpt>
      <trkpt lat="48.265" lon="3.31542">
        <ele>172</ele>
        <time>2013-09-29T08:31:13.000Z</time>
      </trkpt>
      <trkpt lat="48.265" lon="3.31542">
        <ele>172</ele>
        <time>2013-09-29T08:31:19.000Z</time>
      </trkpt>
      <trkpt lat="48.26507" lon="3.31551">
        <ele>170</ele>
        <time>2013-09-29T08:31:20.000Z</time>
      </trkpt>
      <trkpt lat="48.26507" lon="3.31551">
        <ele>170</ele>
        <time>2013-09-29T08:31:25.000Z</time>
      </trkpt>
      <trkpt lat="48.26514" lon="3.31562">
        <ele>171</ele>
        <time>2013-09-29T08:31:26.000Z</time>
      </trkpt>
      <trkpt lat="48.26514" lon="3.31562">
        <ele>171</ele>
        <time>2013-09-29T08:31:31.000Z</time>
      </trkpt>
      <trkpt lat="48.2652" lon="3.31573">
        <ele>172</ele>
        <time>2013-09-29T08:31:32.000Z</time>
      </trkpt>
      <trkpt lat="48.2652" lon="3.31573">
        <ele>172</ele>
        <time>2013-09-29T08:31:37.000Z</time>
      </trkpt>
      <trkpt lat="48.26528" lon="3.31581">
        <ele>171</ele>
        <time>2013-09-29T08:31:38.000Z</time>
      </trkpt>
      <trkpt lat="48.26528" lon="3.31581">
        <ele>171</ele>
        <time>2013-09-29T08:31:43.000Z</time>
      </trkpt>
      <trkpt lat="48.26536" lon="3.31588">
        <ele>178</ele>
        <time>2013-09-29T08:31:44.000Z</time>
      </trkpt>
      <trkpt lat="48.26536" lon="3.31588">
        <ele>178</ele>
        <time>2013-09-29T08:31:49.000Z</time>
      </trkpt>
      <trkpt lat="48.26545" lon="3.31596">
        <ele>177</ele>
        <time>2013-09-29T08:31:50.000Z</time>
      </trkpt>
      <trkpt lat="48.26545" lon="3.31596">
        <ele>177</ele>
        <time>2013-09-29T08:31:56.000Z</time>
      </trkpt>
      <trkpt lat="48.26554" lon="3.31603">
        <ele>177</ele>
        <time>2013-09-29T08:31:57.000Z</time>
      </trkpt>
      <trkpt lat="48.26554" lon="3.31603">
        <ele>177</ele>
        <time>2013-09-29T08:32:03.000Z</time>
      </trkpt>
      <trkpt lat="48.26563" lon="3.31609">
        <ele>177</ele>
        <time>2013-09-29T08:32:04.000Z</time>
      </trkpt>
      <trkpt lat="48.26563" lon="3.31609">
        <ele>177</ele>
        <time>2013-09-29T08:32:09.000Z</time>
      </trkpt>
      <trkpt lat="48.26572" lon="3.31615">
        <ele>177</ele>
        <time>2013-09-29T08:32:10.000Z</time>
      </trkpt>
      <trkpt lat="48.26572" lon="3.31615">
        <ele>177</ele>
        <time>2013-09-29T08:32:15.000Z</time>
      </trkpt>
      <trkpt lat="48.26579" lon="3.31624">
        <ele>178</ele>
        <time>2013-09-29T08:32:16.000Z</time>
      </trkpt>
      <trkpt lat="48.26579" lon="3.31624">
        <ele>178</ele>
        <time>2013-09-29T08:32:20.000Z</time>
      </trkpt>
      <trkpt lat="48.26587" lon="3.31633">
        <ele>177</ele>
        <time>2013-09-29T08:32:21.000Z</time>
      </trkpt>
      <trkpt lat="48.26587" lon="3.31633">
        <ele>177</ele>
        <time>2013-09-29T08:32:26.000Z</time>
      </trkpt>
      <trkpt lat="48.26594" lon="3.31643">
        <ele>178</ele>
        <time>2013-09-29T08:32:27.000Z</time>
      </trkpt>
      <trkpt lat="48.26594" lon="3.31643">
        <ele>178</ele>
        <time>2013-09-29T08:32:33.000Z</time>
      </trkpt>
      <trkpt lat="48.26602" lon="3.31652">
        <ele>179</ele>
        <time>2013-09-29T08:32:34.000Z</time>
      </trkpt>
      <trkpt lat="48.26602" lon="3.31652">
        <ele>179</ele>
        <time>2013-09-29T08:32:41.000Z</time>
      </trkpt>
      <trkpt lat="48.26608" lon="3.31661">
        <ele>179</ele>
        <time>2013-09-29T08:32:42.000Z</time>
      </trkpt>
      <trkpt lat="48.26608" lon="3.31661">
        <ele>179</ele>
        <time>2013-09-29T08:32:49.000Z</time>
      </trkpt>
      <trkpt lat="48.26615" lon="3.31673">
        <ele>187</ele>
        <time>2013-09-29T08:32:50.000Z</time>
      </trkpt>
      <trkpt lat="48.26615" lon="3.31673">
        <ele>187</ele>
        <time>2013-09-29T08:32:56.000Z</time>
      </trkpt>
      <trkpt lat="48.26622" lon="3.31684">
        <ele>187</ele>
        <time>2013-09-29T08:32:57.000Z</time>
      </trkpt>
      <trkpt lat="48.26624" lon="3.31688">
        <ele>188</ele>
        <time>2013-09-29T08:33:00.000Z</time>
      </trkpt>
      <trkpt lat="48.26625" lon="3.31691">
        <ele>188</ele>
        <time>2013-09-29T08:33:01.000Z</time>
      </trkpt>
      <trkpt lat="48.26628" lon="3.31695">
        <ele>188</ele>
        <time>2013-09-29T08:33:04.000Z</time>
      </trkpt>
      <trkpt lat="48.26629" lon="3.31697">
        <ele>188</ele>
        <time>2013-09-29T08:33:05.000Z</time>
      </trkpt>
      <trkpt lat="48.26631" lon="3.31701">
        <ele>188</ele>
        <time>2013-09-29T08:33:08.000Z</time>
      </trkpt>
      <trkpt lat="48.26632" lon="3.31703">
        <ele>189</ele>
        <time>2013-09-29T08:33:09.000Z</time>
      </trkpt>
      <trkpt lat="48.26633" lon="3.31708">
        <ele>189</ele>
        <time>2013-09-29T08:33:11.000Z</time>
      </trkpt>
      <trkpt lat="48.26634" lon="3.3171">
        <ele>189</ele>
        <time>2013-09-29T08:33:12.000Z</time>
      </trkpt>
      <trkpt lat="48.26636" lon="3.31714">
        <ele>189</ele>
        <time>2013-09-29T08:33:15.000Z</time>
      </trkpt>
      <trkpt lat="48.26637" lon="3.31716">
        <ele>189</ele>
        <time>2013-09-29T08:33:16.000Z</time>
      </trkpt>
      <trkpt lat="48.26639" lon="3.31721">
        <ele>190</ele>
        <time>2013-09-29T08:33:18.000Z</time>
      </trkpt>
      <trkpt lat="48.2664" lon="3.31723">
        <ele>190</ele>
        <time>2013-09-29T08:33:19.000Z</time>
      </trkpt>
      <trkpt lat="48.26644" lon="3.31727">
        <ele>190</ele>
        <time>2013-09-29T08:33:22.000Z</time>
      </trkpt>
      <trkpt lat="48.26645" lon="3.31729">
        <ele>191</ele>
        <time>2013-09-29T08:33:23.000Z</time>
      </trkpt>
      <trkpt lat="48.26647" lon="3.31733">
        <ele>191</ele>
        <time>2013-09-29T08:33:25.000Z</time>
      </trkpt>
      <trkpt lat="48.26648" lon="3.31736">
        <ele>191</ele>
        <time>2013-09-29T08:33:26.000Z</time>
      </trkpt>
      <trkpt lat="48.26649" lon="3.31742">
        <ele>192</ele>
        <time>2013-09-29T08:33:31.000Z</time>
      </trkpt>
      <trkpt lat="48.26649" lon="3.31744">
        <ele>192</ele>
        <time>2013-09-29T08:33:32.000Z</time>
      </trkpt>
      <trkpt lat="48.26651" lon="3.31748">
        <ele>192</ele>
        <time>2013-09-29T08:33:35.000Z</time>
      </trkpt>
      <trkpt lat="48.26651" lon="3.31751">
        <ele>196</ele>
        <time>2013-09-29T08:33:36.000Z</time>
      </trkpt>
      <trkpt lat="48.26652" lon="3.31755">
        <ele>196</ele>
        <time>2013-09-29T08:33:38.000Z</time>
      </trkpt>
      <trkpt lat="48.26653" lon="3.31757">
        <ele>196</ele>
        <time>2013-09-29T08:33:39.000Z</time>
      </trkpt>
      <trkpt lat="48.26654" lon="3.31764">
        <ele>196</ele>
        <time>2013-09-29T08:33:41.000Z</time>
      </trkpt>
      <trkpt lat="48.26656" lon="3.31766">
        <ele>196</ele>
        <time>2013-09-29T08:33:42.000Z</time>
      </trkpt>
      <trkpt lat="48.26657" lon="3.31772">
        <ele>196</ele>
        <time>2013-09-29T08:33:44.000Z</time>
      </trkpt>
      <trkpt lat="48.26658" lon="3.31776">
        <ele>197</ele>
        <time>2013-09-29T08:33:45.000Z</time>
      </trkpt>
      <trkpt lat="48.2666" lon="3.31781">
        <ele>197</ele>
        <time>2013-09-29T08:33:47.000Z</time>
      </trkpt>
      <trkpt lat="48.26661" lon="3.31783">
        <ele>197</ele>
        <time>2013-09-29T08:33:48.000Z</time>
      </trkpt>
      <trkpt lat="48.26662" lon="3.31787">
        <ele>197</ele>
        <time>2013-09-29T08:33:49.000Z</time>
      </trkpt>
      <trkpt lat="48.26663" lon="3.31789">
        <ele>197</ele>
        <time>2013-09-29T08:33:50.000Z</time>
      </trkpt>
      <trkpt lat="48.26665" lon="3.31794">
        <ele>197</ele>
        <time>2013-09-29T08:33:52.000Z</time>
      </trkpt>
      <trkpt lat="48.26666" lon="3.31796">
        <ele>198</ele>
        <time>2013-09-29T08:33:53.000Z</time>
      </trkpt>
      <trkpt lat="48.26667" lon="3.318">
        <ele>201</ele>
        <time>2013-09-29T08:33:54.000Z</time>
      </trkpt>
      <trkpt lat="48.26668" lon="3.31802">
        <ele>201</ele>
        <time>2013-09-29T08:33:55.000Z</time>
      </trkpt>
      <trkpt lat="48.26671" lon="3.31806">
        <ele>201</ele>
        <time>2013-09-29T08:33:57.000Z</time>
      </trkpt>
      <trkpt lat="48.26672" lon="3.31809">
        <ele>201</ele>
        <time>2013-09-29T08:33:58.000Z</time>
      </trkpt>
      <trkpt lat="48.26674" lon="3.31813">
        <ele>201</ele>
        <time>2013-09-29T08:34:00.000Z</time>
      </trkpt>
      <trkpt lat="48.26675" lon="3.31815">
        <ele>201</ele>
        <time>2013-09-29T08:34:01.000Z</time>
      </trkpt>
      <trkpt lat="48.26678" lon="3.31819">
        <ele>201</ele>
        <time>2013-09-29T08:34:03.000Z</time>
      </trkpt>
      <trkpt lat="48.26679" lon="3.31821">
        <ele>201</ele>
        <time>2013-09-29T08:34:04.000Z</time>
      </trkpt>
      <trkpt lat="48.26682" lon="3.31826">
        <ele>201</ele>
        <time>2013-09-29T08:34:07.000Z</time>
      </trkpt>
      <trkpt lat="48.26683" lon="3.31828">
        <ele>201</ele>
        <time>2013-09-29T08:34:08.000Z</time>
      </trkpt>
      <trkpt lat="48.26686" lon="3.31832">
        <ele>202</ele>
        <time>2013-09-29T08:34:10.000Z</time>
      </trkpt>
      <trkpt lat="48.26688" lon="3.31834">
        <ele>204</ele>
        <time>2013-09-29T08:34:11.000Z</time>
      </trkpt>
      <trkpt lat="48.2669" lon="3.31839">
        <ele>204</ele>
        <time>2013-09-29T08:34:13.000Z</time>
      </trkpt>
      <trkpt lat="48.26692" lon="3.31839">
        <ele>204</ele>
        <time>2013-09-29T08:34:14.000Z</time>
      </trkpt>
      <trkpt lat="48.26694" lon="3.31843">
        <ele>205</ele>
        <time>2013-09-29T08:34:16.000Z</time>
      </trkpt>
      <trkpt lat="48.26696" lon="3.31845">
        <ele>205</ele>
        <time>2013-09-29T08:34:17.000Z</time>
      </trkpt>
      <trkpt lat="48.26699" lon="3.31847">
        <ele>205</ele>
        <time>2013-09-29T08:34:19.000Z</time>
      </trkpt>
      <trkpt lat="48.26702" lon="3.31849">
        <ele>205</ele>
        <time>2013-09-29T08:34:20.000Z</time>
      </trkpt>
      <trkpt lat="48.26705" lon="3.31851">
        <ele>206</ele>
        <time>2013-09-29T08:34:22.000Z</time>
      </trkpt>
      <trkpt lat="48.26706" lon="3.31854">
        <ele>206</ele>
        <time>2013-09-29T08:34:23.000Z</time>
      </trkpt>
      <trkpt lat="48.26709" lon="3.31856">
        <ele>206</ele>
        <time>2013-09-29T08:34:25.000Z</time>
      </trkpt>
      <trkpt lat="48.2671" lon="3.31858">
        <ele>206</ele>
        <time>2013-09-29T08:34:26.000Z</time>
      </trkpt>
      <trkpt lat="48.26713" lon="3.3186">
        <ele>206</ele>
        <time>2013-09-29T08:34:28.000Z</time>
      </trkpt>
      <trkpt lat="48.26715" lon="3.31862">
        <ele>206</ele>
        <time>2013-09-29T08:34:29.000Z</time>
      </trkpt>
      <trkpt lat="48.26718" lon="3.31864">
        <ele>206</ele>
        <time>2013-09-29T08:34:32.000Z</time>
      </trkpt>
      <trkpt lat="48.26719" lon="3.31867">
        <ele>206</ele>
        <time>2013-09-29T08:34:33.000Z</time>
      </trkpt>
      <trkpt lat="48.26722" lon="3.31871">
        <ele>207</ele>
        <time>2013-09-29T08:34:36.000Z</time>
      </trkpt>
      <trkpt lat="48.26723" lon="3.31871">
        <ele>207</ele>
        <time>2013-09-29T08:34:37.000Z</time>
      </trkpt>
      <trkpt lat="48.26726" lon="3.31875">
        <ele>207</ele>
        <time>2013-09-29T08:34:40.000Z</time>
      </trkpt>
      <trkpt lat="48.26727" lon="3.31875">
        <ele>207</ele>
        <time>2013-09-29T08:34:41.000Z</time>
      </trkpt>
      <trkpt lat="48.2673" lon="3.31879">
        <ele>207</ele>
        <time>2013-09-29T08:34:44.000Z</time>
      </trkpt>
      <trkpt lat="48.26731" lon="3.31882">
        <ele>207</ele>
        <time>2013-09-29T08:34:45.000Z</time>
      </trkpt>
      <trkpt lat="48.26734" lon="3.31886">
        <ele>207</ele>
        <time>2013-09-29T08:34:49.000Z</time>
      </trkpt>
      <trkpt lat="48.26735" lon="3.31888">
        <ele>207</ele>
        <time>2013-09-29T08:34:50.000Z</time>
      </trkpt>
      <trkpt lat="48.26737" lon="3.31892">
        <ele>208</ele>
        <time>2013-09-29T08:34:53.000Z</time>
      </trkpt>
      <trkpt lat="48.26738" lon="3.31894">
        <ele>208</ele>
        <time>2013-09-29T08:34:54.000Z</time>
      </trkpt>
      <trkpt lat="48.26741" lon="3.31899">
        <ele>208</ele>
        <time>2013-09-29T08:34:57.000Z</time>
      </trkpt>
      <trkpt lat="48.26742" lon="3.31901">
        <ele>208</ele>
        <time>2013-09-29T08:34:58.000Z</time>
      </trkpt>
      <trkpt lat="48.26746" lon="3.31905">
        <ele>209</ele>
        <time>2013-09-29T08:35:02.000Z</time>
      </trkpt>
      <trkpt lat="48.26747" lon="3.31907">
        <ele>209</ele>
        <time>2013-09-29T08:35:03.000Z</time>
      </trkpt>
      <trkpt lat="48.26749" lon="3.31912">
        <ele>209</ele>
        <time>2013-09-29T08:35:06.000Z</time>
      </trkpt>
      <trkpt lat="48.2675" lon="3.31914">
        <ele>210</ele>
        <time>2013-09-29T08:35:07.000Z</time>
      </trkpt>
      <trkpt lat="48.26753" lon="3.31918">
        <ele>210</ele>
        <time>2013-09-29T08:35:10.000Z</time>
      </trkpt>
      <trkpt lat="48.26754" lon="3.3192">
        <ele>210</ele>
        <time>2013-09-29T08:35:11.000Z</time>
      </trkpt>
      <trkpt lat="48.26756" lon="3.31924">
        <ele>210</ele>
        <time>2013-09-29T08:35:14.000Z</time>
      </trkpt>
      <trkpt lat="48.26757" lon="3.31927">
        <ele>210</ele>
        <time>2013-09-29T08:35:15.000Z</time>
      </trkpt>
      <trkpt lat="48.26759" lon="3.31931">
        <ele>211</ele>
        <time>2013-09-29T08:35:17.000Z</time>
      </trkpt>
      <trkpt lat="48.2676" lon="3.31935">
        <ele>211</ele>
        <time>2013-09-29T08:35:18.000Z</time>
      </trkpt>
      <trkpt lat="48.26761" lon="3.31939">
        <ele>211</ele>
        <time>2013-09-29T08:35:20.000Z</time>
      </trkpt>
      <trkpt lat="48.26761" lon="3.31944">
        <ele>211</ele>
        <time>2013-09-29T08:35:21.000Z</time>
      </trkpt>
      <trkpt lat="48.26762" lon="3.3195">
        <ele>211</ele>
        <time>2013-09-29T08:35:23.000Z</time>
      </trkpt>
      <trkpt lat="48.26763" lon="3.31952">
        <ele>211</ele>
        <time>2013-09-29T08:35:24.000Z</time>
      </trkpt>
      <trkpt lat="48.26764" lon="3.31959">
        <ele>211</ele>
        <time>2013-09-29T08:35:26.000Z</time>
      </trkpt>
      <trkpt lat="48.26764" lon="3.31961">
        <ele>211</ele>
        <time>2013-09-29T08:35:27.000Z</time>
      </trkpt>
      <trkpt lat="48.26763" lon="3.31965">
        <ele>211</ele>
        <time>2013-09-29T08:35:29.000Z</time>
      </trkpt>
      <trkpt lat="48.26763" lon="3.31969">
        <ele>211</ele>
        <time>2013-09-29T08:35:30.000Z</time>
      </trkpt>
      <trkpt lat="48.26763" lon="3.31976">
        <ele>211</ele>
        <time>2013-09-29T08:35:32.000Z</time>
      </trkpt>
      <trkpt lat="48.26764" lon="3.31978">
        <ele>211</ele>
        <time>2013-09-29T08:35:33.000Z</time>
      </trkpt>
      <trkpt lat="48.26764" lon="3.31985">
        <ele>211</ele>
        <time>2013-09-29T08:35:35.000Z</time>
      </trkpt>
      <trkpt lat="48.26765" lon="3.31989">
        <ele>211</ele>
        <time>2013-09-29T08:35:36.000Z</time>
      </trkpt>
      <trkpt lat="48.26766" lon="3.31995">
        <ele>211</ele>
        <time>2013-09-29T08:35:38.000Z</time>
      </trkpt>
      <trkpt lat="48.26766" lon="3.32">
        <ele>211</ele>
        <time>2013-09-29T08:35:39.000Z</time>
      </trkpt>
      <trkpt lat="48.26767" lon="3.32006">
        <ele>211</ele>
        <time>2013-09-29T08:35:41.000Z</time>
      </trkpt>
      <trkpt lat="48.26768" lon="3.32008">
        <ele>211</ele>
        <time>2013-09-29T08:35:42.000Z</time>
      </trkpt>
      <trkpt lat="48.26769" lon="3.32015">
        <ele>211</ele>
        <time>2013-09-29T08:35:44.000Z</time>
      </trkpt>
      <trkpt lat="48.2677" lon="3.32019">
        <ele>211</ele>
        <time>2013-09-29T08:35:45.000Z</time>
      </trkpt>
      <trkpt lat="48.26771" lon="3.32025">
        <ele>211</ele>
        <time>2013-09-29T08:35:47.000Z</time>
      </trkpt>
      <trkpt lat="48.26771" lon="3.32027">
        <ele>211</ele>
        <time>2013-09-29T08:35:48.000Z</time>
      </trkpt>
      <trkpt lat="48.26772" lon="3.32034">
        <ele>211</ele>
        <time>2013-09-29T08:35:50.000Z</time>
      </trkpt>
      <trkpt lat="48.26772" lon="3.32038">
        <ele>211</ele>
        <time>2013-09-29T08:35:51.000Z</time>
      </trkpt>
      <trkpt lat="48.26774" lon="3.32042">
        <ele>211</ele>
        <time>2013-09-29T08:35:52.000Z</time>
      </trkpt>
      <trkpt lat="48.26774" lon="3.32047">
        <ele>211</ele>
        <time>2013-09-29T08:35:53.000Z</time>
      </trkpt>
      <trkpt lat="48.26775" lon="3.32051">
        <ele>211</ele>
        <time>2013-09-29T08:35:54.000Z</time>
      </trkpt>
      <trkpt lat="48.26775" lon="3.32055">
        <ele>211</ele>
        <time>2013-09-29T08:35:55.000Z</time>
      </trkpt>
      <trkpt lat="48.26776" lon="3.3206">
        <ele>211</ele>
        <time>2013-09-29T08:35:56.000Z</time>
      </trkpt>
      <trkpt lat="48.26776" lon="3.32064">
        <ele>211</ele>
        <time>2013-09-29T08:35:57.000Z</time>
      </trkpt>
      <trkpt lat="48.26776" lon="3.3207">
        <ele>211</ele>
        <time>2013-09-29T08:35:58.000Z</time>
      </trkpt>
      <trkpt lat="48.26776" lon="3.32077">
        <ele>211</ele>
        <time>2013-09-29T08:35:59.000Z</time>
      </trkpt>
      <trkpt lat="48.26776" lon="3.32081">
        <ele>211</ele>
        <time>2013-09-29T08:36:00.000Z</time>
      </trkpt>
      <trkpt lat="48.26776" lon="3.32088">
        <ele>210</ele>
        <time>2013-09-29T08:36:01.000Z</time>
      </trkpt>
      <trkpt lat="48.26776" lon="3.32094">
        <ele>210</ele>
        <time>2013-09-29T08:36:02.000Z</time>
      </trkpt>
      <trkpt lat="48.26776" lon="3.32098">
        <ele>210</ele>
        <time>2013-09-29T08:36:03.000Z</time>
      </trkpt>
      <trkpt lat="48.26776" lon="3.32105">
        <ele>210</ele>
        <time>2013-09-29T08:36:04.000Z</time>
      </trkpt>
      <trkpt lat="48.26776" lon="3.32109">
        <ele>210</ele>
        <time>2013-09-29T08:36:05.000Z</time>
      </trkpt>
      <trkpt lat="48.26776" lon="3.32115">
        <ele>210</ele>
        <time>2013-09-29T08:36:06.000Z</time>
      </trkpt>
      <trkpt lat="48.26776" lon="3.3212">
        <ele>210</ele>
        <time>2013-09-29T08:36:07.000Z</time>
      </trkpt>
      <trkpt lat="48.26777" lon="3.32126">
        <ele>210</ele>
        <time>2013-09-29T08:36:08.000Z</time>
      </trkpt>
      <trkpt lat="48.26777" lon="3.3213">
        <ele>210</ele>
        <time>2013-09-29T08:36:09.000Z</time>
      </trkpt>
      <trkpt lat="48.26777" lon="3.32135">
        <ele>210</ele>
        <time>2013-09-29T08:36:10.000Z</time>
      </trkpt>
      <trkpt lat="48.26777" lon="3.32141">
        <ele>210</ele>
        <time>2013-09-29T08:36:11.000Z</time>
      </trkpt>
      <trkpt lat="48.26778" lon="3.32145">
        <ele>210</ele>
        <time>2013-09-29T08:36:12.000Z</time>
      </trkpt>
      <trkpt lat="48.26778" lon="3.32152">
        <ele>209</ele>
        <time>2013-09-29T08:36:13.000Z</time>
      </trkpt>
      <trkpt lat="48.26779" lon="3.32158">
        <ele>209</ele>
        <time>2013-09-29T08:36:14.000Z</time>
      </trkpt>
      <trkpt lat="48.26779" lon="3.32163">
        <ele>209</ele>
        <time>2013-09-29T08:36:15.000Z</time>
      </trkpt>
      <trkpt lat="48.2678" lon="3.32169">
        <ele>208</ele>
        <time>2013-09-29T08:36:16.000Z</time>
      </trkpt>
      <trkpt lat="48.2678" lon="3.32173">
        <ele>208</ele>
        <time>2013-09-29T08:36:17.000Z</time>
      </trkpt>
      <trkpt lat="48.26781" lon="3.32178">
        <ele>208</ele>
        <time>2013-09-29T08:36:18.000Z</time>
      </trkpt>
      <trkpt lat="48.26782" lon="3.32184">
        <ele>208</ele>
        <time>2013-09-29T08:36:19.000Z</time>
      </trkpt>
      <trkpt lat="48.26783" lon="3.32188">
        <ele>208</ele>
        <time>2013-09-29T08:36:20.000Z</time>
      </trkpt>
      <trkpt lat="48.26784" lon="3.32193">
        <ele>208</ele>
        <time>2013-09-29T08:36:21.000Z</time>
      </trkpt>
      <trkpt lat="48.26785" lon="3.32199">
        <ele>208</ele>
        <time>2013-09-29T08:36:22.000Z</time>
      </trkpt>
      <trkpt lat="48.26787" lon="3.32203">
        <ele>208</ele>
        <time>2013-09-29T08:36:23.000Z</time>
      </trkpt>
      <trkpt lat="48.26789" lon="3.32208">
        <ele>208</ele>
        <time>2013-09-29T08:36:24.000Z</time>
      </trkpt>
      <trkpt lat="48.2679" lon="3.32212">
        <ele>208</ele>
        <time>2013-09-29T08:36:25.000Z</time>
      </trkpt>
      <trkpt lat="48.26791" lon="3.32218">
        <ele>208</ele>
        <time>2013-09-29T08:36:26.000Z</time>
      </trkpt>
      <trkpt lat="48.26791" lon="3.32225">
        <ele>207</ele>
        <time>2013-09-29T08:36:27.000Z</time>
      </trkpt>
      <trkpt lat="48.26792" lon="3.32229">
        <ele>207</ele>
        <time>2013-09-29T08:36:28.000Z</time>
      </trkpt>
      <trkpt lat="48.26794" lon="3.32238">
        <ele>207</ele>
        <time>2013-09-29T08:36:29.000Z</time>
      </trkpt>
      <trkpt lat="48.26796" lon="3.32244">
        <ele>207</ele>
        <time>2013-09-29T08:36:30.000Z</time>
      </trkpt>
      <trkpt lat="48.26797" lon="3.32248">
        <ele>207</ele>
        <time>2013-09-29T08:36:31.000Z</time>
      </trkpt>
      <trkpt lat="48.26798" lon="3.32253">
        <ele>206</ele>
        <time>2013-09-29T08:36:32.000Z</time>
      </trkpt>
      <trkpt lat="48.268" lon="3.32257">
        <ele>206</ele>
        <time>2013-09-29T08:36:33.000Z</time>
      </trkpt>
      <trkpt lat="48.26802" lon="3.32261">
        <ele>206</ele>
        <time>2013-09-29T08:36:34.000Z</time>
      </trkpt>
      <trkpt lat="48.26804" lon="3.32266">
        <ele>206</ele>
        <time>2013-09-29T08:36:35.000Z</time>
      </trkpt>
      <trkpt lat="48.26806" lon="3.32268">
        <ele>206</ele>
        <time>2013-09-29T08:36:36.000Z</time>
      </trkpt>
      <trkpt lat="48.26807" lon="3.32272">
        <ele>206</ele>
        <time>2013-09-29T08:36:38.000Z</time>
      </trkpt>
      <trkpt lat="48.26808" lon="3.32274">
        <ele>206</ele>
        <time>2013-09-29T08:36:39.000Z</time>
      </trkpt>
      <trkpt lat="48.26807" lon="3.32281">
        <ele>206</ele>
        <time>2013-09-29T08:36:44.000Z</time>
      </trkpt>
      <trkpt lat="48.26806" lon="3.32281">
        <ele>206</ele>
        <time>2013-09-29T08:36:45.000Z</time>
      </trkpt>
      <trkpt lat="48.26802" lon="3.32283">
        <ele>205</ele>
        <time>2013-09-29T08:36:48.000Z</time>
      </trkpt>
      <trkpt lat="48.26801" lon="3.32283">
        <ele>205</ele>
        <time>2013-09-29T08:36:49.000Z</time>
      </trkpt>
      <trkpt lat="48.26798" lon="3.32285">
        <ele>205</ele>
        <time>2013-09-29T08:36:52.000Z</time>
      </trkpt>
      <trkpt lat="48.26796" lon="3.32285">
        <ele>205</ele>
        <time>2013-09-29T08:36:53.000Z</time>
      </trkpt>
      <trkpt lat="48.26792" lon="3.32287">
        <ele>205</ele>
        <time>2013-09-29T08:36:56.000Z</time>
      </trkpt>
      <trkpt lat="48.2679" lon="3.32287">
        <ele>205</ele>
        <time>2013-09-29T08:36:57.000Z</time>
      </trkpt>
      <trkpt lat="48.26785" lon="3.32287">
        <ele>205</ele>
        <time>2013-09-29T08:36:59.000Z</time>
      </trkpt>
      <trkpt lat="48.26783" lon="3.32287">
        <ele>205</ele>
        <time>2013-09-29T08:37:00.000Z</time>
      </trkpt>
      <trkpt lat="48.2678" lon="3.32287">
        <ele>205</ele>
        <time>2013-09-29T08:37:02.000Z</time>
      </trkpt>
      <trkpt lat="48.26778" lon="3.32289">
        <ele>205</ele>
        <time>2013-09-29T08:37:03.000Z</time>
      </trkpt>
      <trkpt lat="48.26774" lon="3.32289">
        <ele>205</ele>
        <time>2013-09-29T08:37:05.000Z</time>
      </trkpt>
      <trkpt lat="48.26772" lon="3.32289">
        <ele>205</ele>
        <time>2013-09-29T08:37:06.000Z</time>
      </trkpt>
      <trkpt lat="48.26768" lon="3.32291">
        <ele>204</ele>
        <time>2013-09-29T08:37:08.000Z</time>
      </trkpt>
      <trkpt lat="48.26767" lon="3.32291">
        <ele>204</ele>
        <time>2013-09-29T08:37:09.000Z</time>
      </trkpt>
      <trkpt lat="48.26763" lon="3.32294">
        <ele>204</ele>
        <time>2013-09-29T08:37:12.000Z</time>
      </trkpt>
      <trkpt lat="48.26762" lon="3.32294">
        <ele>204</ele>
        <time>2013-09-29T08:37:13.000Z</time>
      </trkpt>
      <trkpt lat="48.26765" lon="3.32294">
        <ele>204</ele>
        <time>2013-09-29T08:37:24.000Z</time>
      </trkpt>
      <trkpt lat="48.26766" lon="3.32296">
        <ele>204</ele>
        <time>2013-09-29T08:37:25.000Z</time>
      </trkpt>
      <trkpt lat="48.2677" lon="3.32296">
        <ele>204</ele>
        <time>2013-09-29T08:37:30.000Z</time>
      </trkpt>
      <trkpt lat="48.26771" lon="3.32298">
        <ele>204</ele>
        <time>2013-09-29T08:37:31.000Z</time>
      </trkpt>
      <trkpt lat="48.26774" lon="3.32302">
        <ele>204</ele>
        <time>2013-09-29T08:37:34.000Z</time>
      </trkpt>
      <trkpt lat="48.26774" lon="3.32306">
        <ele>204</ele>
        <time>2013-09-29T08:37:35.000Z</time>
      </trkpt>
      <trkpt lat="48.26774" lon="3.32311">
        <ele>204</ele>
        <time>2013-09-29T08:37:37.000Z</time>
      </trkpt>
      <trkpt lat="48.26774" lon="3.32315">
        <ele>204</ele>
        <time>2013-09-29T08:37:38.000Z</time>
      </trkpt>
      <trkpt lat="48.26774" lon="3.32319">
        <ele>204</ele>
        <time>2013-09-29T08:37:39.000Z</time>
      </trkpt>
      <trkpt lat="48.26774" lon="3.32324">
        <ele>204</ele>
        <time>2013-09-29T08:37:40.000Z</time>
      </trkpt>
      <trkpt lat="48.26772" lon="3.32328">
        <ele>203</ele>
        <time>2013-09-29T08:37:41.000Z</time>
      </trkpt>
      <trkpt lat="48.26772" lon="3.32332">
        <ele>203</ele>
        <time>2013-09-29T08:37:42.000Z</time>
      </trkpt>
      <trkpt lat="48.26771" lon="3.32336">
        <ele>202</ele>
        <time>2013-09-29T08:37:43.000Z</time>
      </trkpt>
      <trkpt lat="48.2677" lon="3.32341">
        <ele>202</ele>
        <time>2013-09-29T08:37:44.000Z</time>
      </trkpt>
      <trkpt lat="48.26769" lon="3.32345">
        <ele>202</ele>
        <time>2013-09-29T08:37:45.000Z</time>
      </trkpt>
      <trkpt lat="48.26769" lon="3.32349">
        <ele>202</ele>
        <time>2013-09-29T08:37:46.000Z</time>
      </trkpt>
      <trkpt lat="48.26768" lon="3.32356">
        <ele>202</ele>
        <time>2013-09-29T08:37:47.000Z</time>
      </trkpt>
      <trkpt lat="48.26767" lon="3.3236">
        <ele>202</ele>
        <time>2013-09-29T08:37:48.000Z</time>
      </trkpt>
      <trkpt lat="48.26766" lon="3.32366">
        <ele>202</ele>
        <time>2013-09-29T08:37:49.000Z</time>
      </trkpt>
      <trkpt lat="48.26765" lon="3.32371">
        <ele>202</ele>
        <time>2013-09-29T08:37:50.000Z</time>
      </trkpt>
      <trkpt lat="48.26765" lon="3.32375">
        <ele>202</ele>
        <time>2013-09-29T08:37:51.000Z</time>
      </trkpt>
      <trkpt lat="48.26764" lon="3.32381">
        <ele>202</ele>
        <time>2013-09-29T08:37:52.000Z</time>
      </trkpt>
      <trkpt lat="48.26763" lon="3.32388">
        <ele>201</ele>
        <time>2013-09-29T08:37:53.000Z</time>
      </trkpt>
      <trkpt lat="48.26762" lon="3.32392">
        <ele>201</ele>
        <time>2013-09-29T08:37:54.000Z</time>
      </trkpt>
      <trkpt lat="48.26761" lon="3.32399">
        <ele>201</ele>
        <time>2013-09-29T08:37:55.000Z</time>
      </trkpt>
      <trkpt lat="48.2676" lon="3.32405">
        <ele>201</ele>
        <time>2013-09-29T08:37:56.000Z</time>
      </trkpt>
      <trkpt lat="48.26759" lon="3.32412">
        <ele>200</ele>
        <time>2013-09-29T08:37:57.000Z</time>
      </trkpt>
      <trkpt lat="48.26757" lon="3.32416">
        <ele>200</ele>
        <time>2013-09-29T08:37:58.000Z</time>
      </trkpt>
      <trkpt lat="48.26756" lon="3.32422">
        <ele>200</ele>
        <time>2013-09-29T08:37:59.000Z</time>
      </trkpt>
      <trkpt lat="48.26755" lon="3.32429">
        <ele>200</ele>
        <time>2013-09-29T08:38:00.000Z</time>
      </trkpt>
      <trkpt lat="48.26754" lon="3.32435">
        <ele>200</ele>
        <time>2013-09-29T08:38:01.000Z</time>
      </trkpt>
      <trkpt lat="48.26753" lon="3.32439">
        <ele>200</ele>
        <time>2013-09-29T08:38:02.000Z</time>
      </trkpt>
      <trkpt lat="48.26752" lon="3.32446">
        <ele>200</ele>
        <time>2013-09-29T08:38:03.000Z</time>
      </trkpt>
      <trkpt lat="48.26752" lon="3.3245">
        <ele>200</ele>
        <time>2013-09-29T08:38:04.000Z</time>
      </trkpt>
      <trkpt lat="48.26752" lon="3.32457">
        <ele>200</ele>
        <time>2013-09-29T08:38:05.000Z</time>
      </trkpt>
      <trkpt lat="48.26752" lon="3.32461">
        <ele>200</ele>
        <time>2013-09-29T08:38:06.000Z</time>
      </trkpt>
      <trkpt lat="48.26753" lon="3.32467">
        <ele>200</ele>
        <time>2013-09-29T08:38:07.000Z</time>
      </trkpt>
      <trkpt lat="48.26753" lon="3.32472">
        <ele>200</ele>
        <time>2013-09-29T08:38:08.000Z</time>
      </trkpt>
      <trkpt lat="48.26754" lon="3.32478">
        <ele>200</ele>
        <time>2013-09-29T08:38:09.000Z</time>
      </trkpt>
      <trkpt lat="48.26756" lon="3.32484">
        <ele>200</ele>
        <time>2013-09-29T08:38:10.000Z</time>
      </trkpt>
      <trkpt lat="48.26757" lon="3.32491">
        <ele>200</ele>
        <time>2013-09-29T08:38:11.000Z</time>
      </trkpt>
      <trkpt lat="48.26759" lon="3.32495">
        <ele>200</ele>
        <time>2013-09-29T08:38:12.000Z</time>
      </trkpt>
      <trkpt lat="48.26759" lon="3.32502">
        <ele>199</ele>
        <time>2013-09-29T08:38:13.000Z</time>
      </trkpt>
      <trkpt lat="48.2676" lon="3.32508">
        <ele>200</ele>
        <time>2013-09-29T08:38:15.000Z</time>
      </trkpt>
      <trkpt lat="48.2676" lon="3.3251">
        <ele>200</ele>
        <time>2013-09-29T08:38:16.000Z</time>
      </trkpt>
      <trkpt lat="48.26761" lon="3.32515">
        <ele>200</ele>
        <time>2013-09-29T08:38:17.000Z</time>
      </trkpt>
      <trkpt lat="48.26761" lon="3.32519">
        <ele>200</ele>
        <time>2013-09-29T08:38:18.000Z</time>
      </trkpt>
      <trkpt lat="48.26764" lon="3.32523">
        <ele>200</ele>
        <time>2013-09-29T08:38:20.000Z</time>
      </trkpt>
      <trkpt lat="48.26765" lon="3.32525">
        <ele>200</ele>
        <time>2013-09-29T08:38:21.000Z</time>
      </trkpt>
      <trkpt lat="48.26766" lon="3.32527">
        <ele>200</ele>
        <time>2013-09-29T08:38:22.000Z</time>
      </trkpt>
      <trkpt lat="48.26768" lon="3.32532">
        <ele>200</ele>
        <time>2013-09-29T08:38:23.000Z</time>
      </trkpt>
      <trkpt lat="48.2677" lon="3.32534">
        <ele>200</ele>
        <time>2013-09-29T08:38:24.000Z</time>
      </trkpt>
      <trkpt lat="48.26772" lon="3.32536">
        <ele>200</ele>
        <time>2013-09-29T08:38:25.000Z</time>
      </trkpt>
      <trkpt lat="48.26776" lon="3.32538">
        <ele>200</ele>
        <time>2013-09-29T08:38:27.000Z</time>
      </trkpt>
      <trkpt lat="48.26777" lon="3.3254">
        <ele>200</ele>
        <time>2013-09-29T08:38:28.000Z</time>
      </trkpt>
      <trkpt lat="48.26779" lon="3.32542">
        <ele>200</ele>
        <time>2013-09-29T08:38:30.000Z</time>
      </trkpt>
      <trkpt lat="48.26781" lon="3.32545">
        <ele>200</ele>
        <time>2013-09-29T08:38:31.000Z</time>
      </trkpt>
      <trkpt lat="48.26784" lon="3.32547">
        <ele>200</ele>
        <time>2013-09-29T08:38:34.000Z</time>
      </trkpt>
      <trkpt lat="48.26785" lon="3.32547">
        <ele>200</ele>
        <time>2013-09-29T08:38:35.000Z</time>
      </trkpt>
      <trkpt lat="48.26782" lon="3.32549">
        <ele>200</ele>
        <time>2013-09-29T08:38:52.000Z</time>
      </trkpt>
      <trkpt lat="48.26781" lon="3.32551">
        <ele>200</ele>
        <time>2013-09-29T08:38:53.000Z</time>
      </trkpt>
      <trkpt lat="48.26777" lon="3.32553">
        <ele>200</ele>
        <time>2013-09-29T08:38:57.000Z</time>
      </trkpt>
      <trkpt lat="48.26776" lon="3.32555">
        <ele>200</ele>
        <time>2013-09-29T08:38:58.000Z</time>
      </trkpt>
      <trkpt lat="48.26771" lon="3.32557">
        <ele>200</ele>
        <time>2013-09-29T08:39:02.000Z</time>
      </trkpt>
      <trkpt lat="48.2677" lon="3.32557">
        <ele>200</ele>
        <time>2013-09-29T08:39:03.000Z</time>
      </trkpt>
      <trkpt lat="48.26767" lon="3.32557">
        <ele>200</ele>
        <time>2013-09-29T08:39:06.000Z</time>
      </trkpt>
      <trkpt lat="48.26766" lon="3.3256">
        <ele>200</ele>
        <time>2013-09-29T08:39:07.000Z</time>
      </trkpt>
      <trkpt lat="48.26763" lon="3.32562">
        <ele>200</ele>
        <time>2013-09-29T08:39:11.000Z</time>
      </trkpt>
      <trkpt lat="48.26762" lon="3.32562">
        <ele>200</ele>
        <time>2013-09-29T08:39:12.000Z</time>
      </trkpt>
      <trkpt lat="48.26759" lon="3.32566">
        <ele>200</ele>
        <time>2013-09-29T08:39:18.000Z</time>
      </trkpt>
      <trkpt lat="48.26757" lon="3.32566">
        <ele>200</ele>
        <time>2013-09-29T08:39:19.000Z</time>
      </trkpt>
      <trkpt lat="48.26754" lon="3.32568">
        <ele>200</ele>
        <time>2013-09-29T08:39:24.000Z</time>
      </trkpt>
      <trkpt lat="48.26753" lon="3.3257">
        <ele>200</ele>
        <time>2013-09-29T08:39:25.000Z</time>
      </trkpt>
      <trkpt lat="48.2675" lon="3.32572">
        <ele>198</ele>
        <time>2013-09-29T08:39:30.000Z</time>
      </trkpt>
      <trkpt lat="48.26749" lon="3.32575">
        <ele>198</ele>
        <time>2013-09-29T08:39:31.000Z</time>
      </trkpt>
      <trkpt lat="48.26746" lon="3.32579">
        <ele>199</ele>
        <time>2013-09-29T08:39:35.000Z</time>
      </trkpt>
      <trkpt lat="48.26745" lon="3.32581">
        <ele>199</ele>
        <time>2013-09-29T08:39:36.000Z</time>
      </trkpt>
      <trkpt lat="48.26742" lon="3.32585">
        <ele>199</ele>
        <time>2013-09-29T08:39:38.000Z</time>
      </trkpt>
      <trkpt lat="48.26741" lon="3.32587">
        <ele>199</ele>
        <time>2013-09-29T08:39:39.000Z</time>
      </trkpt>
      <trkpt lat="48.26739" lon="3.32592">
        <ele>199</ele>
        <time>2013-09-29T08:39:41.000Z</time>
      </trkpt>
      <trkpt lat="48.26739" lon="3.32594">
        <ele>199</ele>
        <time>2013-09-29T08:39:42.000Z</time>
      </trkpt>
      <trkpt lat="48.26737" lon="3.32598">
        <ele>198</ele>
        <time>2013-09-29T08:39:44.000Z</time>
      </trkpt>
      <trkpt lat="48.26736" lon="3.326">
        <ele>198</ele>
        <time>2013-09-29T08:39:45.000Z</time>
      </trkpt>
      <trkpt lat="48.26735" lon="3.32607">
        <ele>198</ele>
        <time>2013-09-29T08:39:47.000Z</time>
      </trkpt>
      <trkpt lat="48.26734" lon="3.32609">
        <ele>198</ele>
        <time>2013-09-29T08:39:48.000Z</time>
      </trkpt>
      <trkpt lat="48.26733" lon="3.32615">
        <ele>198</ele>
        <time>2013-09-29T08:39:50.000Z</time>
      </trkpt>
      <trkpt lat="48.26732" lon="3.3262">
        <ele>198</ele>
        <time>2013-09-29T08:39:51.000Z</time>
      </trkpt>
      <trkpt lat="48.26731" lon="3.32626">
        <ele>198</ele>
        <time>2013-09-29T08:39:53.000Z</time>
      </trkpt>
      <trkpt lat="48.2673" lon="3.32628">
        <ele>198</ele>
        <time>2013-09-29T08:39:54.000Z</time>
      </trkpt>
      <trkpt lat="48.26728" lon="3.32635">
        <ele>198</ele>
        <time>2013-09-29T08:39:56.000Z</time>
      </trkpt>
      <trkpt lat="48.26728" lon="3.32639">
        <ele>198</ele>
        <time>2013-09-29T08:39:57.000Z</time>
      </trkpt>
      <trkpt lat="48.26727" lon="3.32643">
        <ele>199</ele>
        <time>2013-09-29T08:39:58.000Z</time>
      </trkpt>
      <trkpt lat="48.26727" lon="3.32648">
        <ele>199</ele>
        <time>2013-09-29T08:39:59.000Z</time>
      </trkpt>
      <trkpt lat="48.26726" lon="3.32654">
        <ele>199</ele>
        <time>2013-09-29T08:40:00.000Z</time>
      </trkpt>
      <trkpt lat="48.26726" lon="3.3266">
        <ele>199</ele>
        <time>2013-09-29T08:40:01.000Z</time>
      </trkpt>
      <trkpt lat="48.26725" lon="3.32667">
        <ele>200</ele>
        <time>2013-09-29T08:40:02.000Z</time>
      </trkpt>
      <trkpt lat="48.26725" lon="3.32673">
        <ele>200</ele>
        <time>2013-09-29T08:40:03.000Z</time>
      </trkpt>
      <trkpt lat="48.26725" lon="3.32682">
        <ele>200</ele>
        <time>2013-09-29T08:40:04.000Z</time>
      </trkpt>
      <trkpt lat="48.26725" lon="3.32688">
        <ele>199</ele>
        <time>2013-09-29T08:40:05.000Z</time>
      </trkpt>
      <trkpt lat="48.26725" lon="3.32697">
        <ele>199</ele>
        <time>2013-09-29T08:40:06.000Z</time>
      </trkpt>
      <trkpt lat="48.26725" lon="3.32701">
        <ele>199</ele>
        <time>2013-09-29T08:40:07.000Z</time>
      </trkpt>
      <trkpt lat="48.26724" lon="3.32708">
        <ele>199</ele>
        <time>2013-09-29T08:40:08.000Z</time>
      </trkpt>
      <trkpt lat="48.26724" lon="3.32714">
        <ele>199</ele>
        <time>2013-09-29T08:40:09.000Z</time>
      </trkpt>
      <trkpt lat="48.26724" lon="3.32721">
        <ele>199</ele>
        <time>2013-09-29T08:40:10.000Z</time>
      </trkpt>
      <trkpt lat="48.26725" lon="3.32725">
        <ele>199</ele>
        <time>2013-09-29T08:40:11.000Z</time>
      </trkpt>
      <trkpt lat="48.26725" lon="3.32729">
        <ele>199</ele>
        <time>2013-09-29T08:40:12.000Z</time>
      </trkpt>
      <trkpt lat="48.26726" lon="3.32733">
        <ele>199</ele>
        <time>2013-09-29T08:40:13.000Z</time>
      </trkpt>
      <trkpt lat="48.26727" lon="3.32738">
        <ele>199</ele>
        <time>2013-09-29T08:40:14.000Z</time>
      </trkpt>
      <trkpt lat="48.26728" lon="3.32742">
        <ele>200</ele>
        <time>2013-09-29T08:40:15.000Z</time>
      </trkpt>
      <trkpt lat="48.2673" lon="3.32746">
        <ele>200</ele>
        <time>2013-09-29T08:40:16.000Z</time>
      </trkpt>
      <trkpt lat="48.26731" lon="3.32751">
        <ele>199</ele>
        <time>2013-09-29T08:40:17.000Z</time>
      </trkpt>
      <trkpt lat="48.26733" lon="3.32755">
        <ele>199</ele>
        <time>2013-09-29T08:40:18.000Z</time>
      </trkpt>
      <trkpt lat="48.26735" lon="3.32759">
        <ele>200</ele>
        <time>2013-09-29T08:40:19.000Z</time>
      </trkpt>
      <trkpt lat="48.26737" lon="3.32761">
        <ele>200</ele>
        <time>2013-09-29T08:40:20.000Z</time>
      </trkpt>
      <trkpt lat="48.26738" lon="3.32766">
        <ele>199</ele>
        <time>2013-09-29T08:40:21.000Z</time>
      </trkpt>
      <trkpt lat="48.26741" lon="3.3277">
        <ele>199</ele>
        <time>2013-09-29T08:40:22.000Z</time>
      </trkpt>
      <trkpt lat="48.26743" lon="3.32774">
        <ele>199</ele>
        <time>2013-09-29T08:40:23.000Z</time>
      </trkpt>
      <trkpt lat="48.26746" lon="3.32778">
        <ele>199</ele>
        <time>2013-09-29T08:40:24.000Z</time>
      </trkpt>
      <trkpt lat="48.26748" lon="3.32781">
        <ele>199</ele>
        <time>2013-09-29T08:40:25.000Z</time>
      </trkpt>
      <trkpt lat="48.2675" lon="3.32785">
        <ele>199</ele>
        <time>2013-09-29T08:40:26.000Z</time>
      </trkpt>
      <trkpt lat="48.26752" lon="3.32789">
        <ele>202</ele>
        <time>2013-09-29T08:40:27.000Z</time>
      </trkpt>
      <trkpt lat="48.26754" lon="3.32793">
        <ele>202</ele>
        <time>2013-09-29T08:40:28.000Z</time>
      </trkpt>
      <trkpt lat="48.26756" lon="3.32796">
        <ele>202</ele>
        <time>2013-09-29T08:40:29.000Z</time>
      </trkpt>
      <trkpt lat="48.26757" lon="3.328">
        <ele>202</ele>
        <time>2013-09-29T08:40:30.000Z</time>
      </trkpt>
      <trkpt lat="48.2676" lon="3.32802">
        <ele>202</ele>
        <time>2013-09-29T08:40:31.000Z</time>
      </trkpt>
      <trkpt lat="48.26761" lon="3.32806">
        <ele>202</ele>
        <time>2013-09-29T08:40:32.000Z</time>
      </trkpt>
      <trkpt lat="48.26764" lon="3.32811">
        <ele>202</ele>
        <time>2013-09-29T08:40:34.000Z</time>
      </trkpt>
      <trkpt lat="48.26766" lon="3.32813">
        <ele>202</ele>
        <time>2013-09-29T08:40:35.000Z</time>
      </trkpt>
      <trkpt lat="48.26768" lon="3.32815">
        <ele>202</ele>
        <time>2013-09-29T08:40:37.000Z</time>
      </trkpt>
      <trkpt lat="48.2677" lon="3.32815">
        <ele>202</ele>
        <time>2013-09-29T08:40:38.000Z</time>
      </trkpt>
      <trkpt lat="48.26774" lon="3.32817">
        <ele>202</ele>
        <time>2013-09-29T08:40:41.000Z</time>
      </trkpt>
      <trkpt lat="48.26775" lon="3.32819">
        <ele>202</ele>
        <time>2013-09-29T08:40:42.000Z</time>
      </trkpt>
      <trkpt lat="48.26777" lon="3.32824">
        <ele>202</ele>
        <time>2013-09-29T08:40:44.000Z</time>
      </trkpt>
      <trkpt lat="48.26777" lon="3.32826">
        <ele>202</ele>
        <time>2013-09-29T08:40:45.000Z</time>
      </trkpt>
      <trkpt lat="48.26778" lon="3.32832">
        <ele>202</ele>
        <time>2013-09-29T08:40:47.000Z</time>
      </trkpt>
      <trkpt lat="48.26778" lon="3.32834">
        <ele>202</ele>
        <time>2013-09-29T08:40:48.000Z</time>
      </trkpt>
      <trkpt lat="48.26778" lon="3.32841">
        <ele>202</ele>
        <time>2013-09-29T08:40:51.000Z</time>
      </trkpt>
      <trkpt lat="48.26777" lon="3.32843">
        <ele>202</ele>
        <time>2013-09-29T08:40:52.000Z</time>
      </trkpt>
      <trkpt lat="48.26775" lon="3.32847">
        <ele>202</ele>
        <time>2013-09-29T08:40:55.000Z</time>
      </trkpt>
      <trkpt lat="48.26774" lon="3.32849">
        <ele>202</ele>
        <time>2013-09-29T08:40:56.000Z</time>
      </trkpt>
      <trkpt lat="48.2677" lon="3.32854">
        <ele>202</ele>
        <time>2013-09-29T08:40:59.000Z</time>
      </trkpt>
      <trkpt lat="48.26769" lon="3.32856">
        <ele>202</ele>
        <time>2013-09-29T08:41:00.000Z</time>
      </trkpt>
      <trkpt lat="48.26766" lon="3.3286">
        <ele>202</ele>
        <time>2013-09-29T08:41:02.000Z</time>
      </trkpt>
      <trkpt lat="48.26765" lon="3.32862">
        <ele>202</ele>
        <time>2013-09-29T08:41:03.000Z</time>
      </trkpt>
      <trkpt lat="48.26762" lon="3.32866">
        <ele>202</ele>
        <time>2013-09-29T08:41:05.000Z</time>
      </trkpt>
      <trkpt lat="48.2676" lon="3.32869">
        <ele>202</ele>
        <time>2013-09-29T08:41:06.000Z</time>
      </trkpt>
      <trkpt lat="48.26757" lon="3.32871">
        <ele>201</ele>
        <time>2013-09-29T08:41:07.000Z</time>
      </trkpt>
      <trkpt lat="48.26756" lon="3.32875">
        <ele>201</ele>
        <time>2013-09-29T08:41:08.000Z</time>
      </trkpt>
      <trkpt lat="48.26754" lon="3.32877">
        <ele>201</ele>
        <time>2013-09-29T08:41:09.000Z</time>
      </trkpt>
      <trkpt lat="48.26751" lon="3.32881">
        <ele>201</ele>
        <time>2013-09-29T08:41:10.000Z</time>
      </trkpt>
      <trkpt lat="48.26749" lon="3.32886">
        <ele>197</ele>
        <time>2013-09-29T08:41:11.000Z</time>
      </trkpt>
      <trkpt lat="48.26747" lon="3.3289">
        <ele>197</ele>
        <time>2013-09-29T08:41:12.000Z</time>
      </trkpt>
      <trkpt lat="48.26743" lon="3.32894">
        <ele>197</ele>
        <time>2013-09-29T08:41:13.000Z</time>
      </trkpt>
      <trkpt lat="48.26741" lon="3.32899">
        <ele>197</ele>
        <time>2013-09-29T08:41:14.000Z</time>
      </trkpt>
      <trkpt lat="48.26738" lon="3.32901">
        <ele>197</ele>
        <time>2013-09-29T08:41:15.000Z</time>
      </trkpt>
      <trkpt lat="48.26735" lon="3.32905">
        <ele>197</ele>
        <time>2013-09-29T08:41:16.000Z</time>
      </trkpt>
      <trkpt lat="48.26733" lon="3.32909">
        <ele>197</ele>
        <time>2013-09-29T08:41:17.000Z</time>
      </trkpt>
      <trkpt lat="48.2673" lon="3.32916">
        <ele>197</ele>
        <time>2013-09-29T08:41:18.000Z</time>
      </trkpt>
      <trkpt lat="48.26726" lon="3.3292">
        <ele>196</ele>
        <time>2013-09-29T08:41:19.000Z</time>
      </trkpt>
      <trkpt lat="48.26723" lon="3.32924">
        <ele>196</ele>
        <time>2013-09-29T08:41:20.000Z</time>
      </trkpt>
      <trkpt lat="48.2672" lon="3.32929">
        <ele>195</ele>
        <time>2013-09-29T08:41:21.000Z</time>
      </trkpt>
      <trkpt lat="48.26718" lon="3.32933">
        <ele>195</ele>
        <time>2013-09-29T08:41:22.000Z</time>
      </trkpt>
      <trkpt lat="48.26715" lon="3.32937">
        <ele>195</ele>
        <time>2013-09-29T08:41:23.000Z</time>
      </trkpt>
      <trkpt lat="48.26711" lon="3.32942">
        <ele>194</ele>
        <time>2013-09-29T08:41:24.000Z</time>
      </trkpt>
      <trkpt lat="48.26709" lon="3.32944">
        <ele>194</ele>
        <time>2013-09-29T08:41:25.000Z</time>
      </trkpt>
      <trkpt lat="48.26705" lon="3.32948">
        <ele>194</ele>
        <time>2013-09-29T08:41:26.000Z</time>
      </trkpt>
      <trkpt lat="48.26699" lon="3.3295">
        <ele>194</ele>
        <time>2013-09-29T08:41:27.000Z</time>
      </trkpt>
      <trkpt lat="48.26695" lon="3.32954">
        <ele>194</ele>
        <time>2013-09-29T08:41:28.000Z</time>
      </trkpt>
      <trkpt lat="48.26689" lon="3.32957">
        <ele>193</ele>
        <time>2013-09-29T08:41:29.000Z</time>
      </trkpt>
      <trkpt lat="48.26681" lon="3.32957">
        <ele>193</ele>
        <time>2013-09-29T08:41:30.000Z</time>
      </trkpt>
      <trkpt lat="48.26675" lon="3.32957">
        <ele>193</ele>
        <time>2013-09-29T08:41:31.000Z</time>
      </trkpt>
      <trkpt lat="48.26667" lon="3.32957">
        <ele>192</ele>
        <time>2013-09-29T08:41:32.000Z</time>
      </trkpt>
      <trkpt lat="48.26653" lon="3.32954">
        <ele>183</ele>
        <time>2013-09-29T08:41:33.000Z</time>
      </trkpt>
      <trkpt lat="48.26643" lon="3.32952">
        <ele>182</ele>
        <time>2013-09-29T08:41:34.000Z</time>
      </trkpt>
      <trkpt lat="48.26627" lon="3.32948">
        <ele>180</ele>
        <time>2013-09-29T08:41:35.000Z</time>
      </trkpt>
      <trkpt lat="48.26614" lon="3.32946">
        <ele>179</ele>
        <time>2013-09-29T08:41:36.000Z</time>
      </trkpt>
      <trkpt lat="48.26603" lon="3.32944">
        <ele>177</ele>
        <time>2013-09-29T08:41:37.000Z</time>
      </trkpt>
      <trkpt lat="48.26593" lon="3.32942">
        <ele>176</ele>
        <time>2013-09-29T08:41:38.000Z</time>
      </trkpt>
      <trkpt lat="48.26586" lon="3.32937">
        <ele>175</ele>
        <time>2013-09-29T08:41:39.000Z</time>
      </trkpt>
      <trkpt lat="48.26579" lon="3.32935">
        <ele>166</ele>
        <time>2013-09-29T08:41:40.000Z</time>
      </trkpt>
      <trkpt lat="48.26574" lon="3.32933">
        <ele>165</ele>
        <time>2013-09-29T08:41:41.000Z</time>
      </trkpt>
      <trkpt lat="48.2657" lon="3.32931">
        <ele>165</ele>
        <time>2013-09-29T08:41:42.000Z</time>
      </trkpt>
      <trkpt lat="48.26565" lon="3.32929">
        <ele>165</ele>
        <time>2013-09-29T08:41:43.000Z</time>
      </trkpt>
      <trkpt lat="48.26562" lon="3.32927">
        <ele>164</ele>
        <time>2013-09-29T08:41:44.000Z</time>
      </trkpt>
      <trkpt lat="48.26559" lon="3.32922">
        <ele>164</ele>
        <time>2013-09-29T08:41:45.000Z</time>
      </trkpt>
      <trkpt lat="48.26556" lon="3.32922">
        <ele>163</ele>
        <time>2013-09-29T08:41:46.000Z</time>
      </trkpt>
      <trkpt lat="48.26551" lon="3.32922">
        <ele>162</ele>
        <time>2013-09-29T08:41:47.000Z</time>
      </trkpt>
      <trkpt lat="48.26548" lon="3.32924">
        <ele>162</ele>
        <time>2013-09-29T08:41:48.000Z</time>
      </trkpt>
      <trkpt lat="48.26543" lon="3.32929">
        <ele>161</ele>
        <time>2013-09-29T08:41:49.000Z</time>
      </trkpt>
      <trkpt lat="48.26537" lon="3.32931">
        <ele>160</ele>
        <time>2013-09-29T08:41:50.000Z</time>
      </trkpt>
      <trkpt lat="48.26532" lon="3.32935">
        <ele>159</ele>
        <time>2013-09-29T08:41:51.000Z</time>
      </trkpt>
      <trkpt lat="48.26527" lon="3.32939">
        <ele>159</ele>
        <time>2013-09-29T08:41:52.000Z</time>
      </trkpt>
      <trkpt lat="48.2652" lon="3.32946">
        <ele>158</ele>
        <time>2013-09-29T08:41:53.000Z</time>
      </trkpt>
      <trkpt lat="48.26513" lon="3.32952">
        <ele>158</ele>
        <time>2013-09-29T08:41:54.000Z</time>
      </trkpt>
      <trkpt lat="48.26505" lon="3.32959">
        <ele>158</ele>
        <time>2013-09-29T08:41:55.000Z</time>
      </trkpt>
      <trkpt lat="48.26497" lon="3.32965">
        <ele>147</ele>
        <time>2013-09-29T08:41:56.000Z</time>
      </trkpt>
      <trkpt lat="48.26488" lon="3.32974">
        <ele>147</ele>
        <time>2013-09-29T08:41:57.000Z</time>
      </trkpt>
      <trkpt lat="48.26481" lon="3.3298">
        <ele>147</ele>
        <time>2013-09-29T08:41:58.000Z</time>
      </trkpt>
      <trkpt lat="48.26472" lon="3.32987">
        <ele>146</ele>
        <time>2013-09-29T08:41:59.000Z</time>
      </trkpt>
      <trkpt lat="48.26465" lon="3.32995">
        <ele>145</ele>
        <time>2013-09-29T08:42:00.000Z</time>
      </trkpt>
      <trkpt lat="48.26457" lon="3.33002">
        <ele>145</ele>
        <time>2013-09-29T08:42:01.000Z</time>
      </trkpt>
      <trkpt lat="48.2645" lon="3.3301">
        <ele>144</ele>
        <time>2013-09-29T08:42:02.000Z</time>
      </trkpt>
      <trkpt lat="48.26442" lon="3.33017">
        <ele>143</ele>
        <time>2013-09-29T08:42:03.000Z</time>
      </trkpt>
      <trkpt lat="48.26432" lon="3.33025">
        <ele>143</ele>
        <time>2013-09-29T08:42:04.000Z</time>
      </trkpt>
      <trkpt lat="48.26424" lon="3.33034">
        <ele>143</ele>
        <time>2013-09-29T08:42:05.000Z</time>
      </trkpt>
      <trkpt lat="48.26413" lon="3.33042">
        <ele>135</ele>
        <time>2013-09-29T08:42:06.000Z</time>
      </trkpt>
      <trkpt lat="48.26403" lon="3.33053">
        <ele>135</ele>
        <time>2013-09-29T08:42:07.000Z</time>
      </trkpt>
      <trkpt lat="48.26394" lon="3.33062">
        <ele>135</ele>
        <time>2013-09-29T08:42:08.000Z</time>
      </trkpt>
      <trkpt lat="48.26385" lon="3.3307">
        <ele>135</ele>
        <time>2013-09-29T08:42:09.000Z</time>
      </trkpt>
      <trkpt lat="48.26375" lon="3.33079">
        <ele>134</ele>
        <time>2013-09-29T08:42:10.000Z</time>
      </trkpt>
      <trkpt lat="48.26366" lon="3.33087">
        <ele>137</ele>
        <time>2013-09-29T08:42:11.000Z</time>
      </trkpt>
      <trkpt lat="48.26357" lon="3.33096">
        <ele>137</ele>
        <time>2013-09-29T08:42:12.000Z</time>
      </trkpt>
      <trkpt lat="48.26349" lon="3.331">
        <ele>136</ele>
        <time>2013-09-29T08:42:13.000Z</time>
      </trkpt>
      <trkpt lat="48.2634" lon="3.33105">
        <ele>136</ele>
        <time>2013-09-29T08:42:14.000Z</time>
      </trkpt>
      <trkpt lat="48.26334" lon="3.33107">
        <ele>136</ele>
        <time>2013-09-29T08:42:15.000Z</time>
      </trkpt>
      <trkpt lat="48.26328" lon="3.33109">
        <ele>139</ele>
        <time>2013-09-29T08:42:16.000Z</time>
      </trkpt>
      <trkpt lat="48.26324" lon="3.33111">
        <ele>140</ele>
        <time>2013-09-29T08:42:17.000Z</time>
      </trkpt>
      <trkpt lat="48.2632" lon="3.33113">
        <ele>140</ele>
        <time>2013-09-29T08:42:18.000Z</time>
      </trkpt>
      <trkpt lat="48.26316" lon="3.33115">
        <ele>141</ele>
        <time>2013-09-29T08:42:19.000Z</time>
      </trkpt>
      <trkpt lat="48.26313" lon="3.33115">
        <ele>141</ele>
        <time>2013-09-29T08:42:20.000Z</time>
      </trkpt>
      <trkpt lat="48.2631" lon="3.33117">
        <ele>142</ele>
        <time>2013-09-29T08:42:21.000Z</time>
      </trkpt>
      <trkpt lat="48.26308" lon="3.33117">
        <ele>142</ele>
        <time>2013-09-29T08:42:22.000Z</time>
      </trkpt>
      <trkpt lat="48.26304" lon="3.3312">
        <ele>142</ele>
        <time>2013-09-29T08:42:23.000Z</time>
      </trkpt>
      <trkpt lat="48.263" lon="3.3312">
        <ele>142</ele>
        <time>2013-09-29T08:42:24.000Z</time>
      </trkpt>
      <trkpt lat="48.26297" lon="3.33122">
        <ele>143</ele>
        <time>2013-09-29T08:42:25.000Z</time>
      </trkpt>
      <trkpt lat="48.26293" lon="3.33124">
        <ele>143</ele>
        <time>2013-09-29T08:42:26.000Z</time>
      </trkpt>
      <trkpt lat="48.2629" lon="3.33124">
        <ele>143</ele>
        <time>2013-09-29T08:42:27.000Z</time>
      </trkpt>
      <trkpt lat="48.26286" lon="3.33126">
        <ele>144</ele>
        <time>2013-09-29T08:42:28.000Z</time>
      </trkpt>
      <trkpt lat="48.26283" lon="3.33128">
        <ele>144</ele>
        <time>2013-09-29T08:42:29.000Z</time>
      </trkpt>
      <trkpt lat="48.2628" lon="3.3313">
        <ele>144</ele>
        <time>2013-09-29T08:42:30.000Z</time>
      </trkpt>
      <trkpt lat="48.26277" lon="3.33133">
        <ele>145</ele>
        <time>2013-09-29T08:42:31.000Z</time>
      </trkpt>
      <trkpt lat="48.26275" lon="3.33135">
        <ele>145</ele>
        <time>2013-09-29T08:42:32.000Z</time>
      </trkpt>
      <trkpt lat="48.26271" lon="3.33137">
        <ele>145</ele>
        <time>2013-09-29T08:42:33.000Z</time>
      </trkpt>
      <trkpt lat="48.26268" lon="3.33139">
        <ele>145</ele>
        <time>2013-09-29T08:42:34.000Z</time>
      </trkpt>
      <trkpt lat="48.26266" lon="3.33139">
        <ele>146</ele>
        <time>2013-09-29T08:42:35.000Z</time>
      </trkpt>
      <trkpt lat="48.26263" lon="3.33143">
        <ele>146</ele>
        <time>2013-09-29T08:42:36.000Z</time>
      </trkpt>
      <trkpt lat="48.2626" lon="3.33145">
        <ele>147</ele>
        <time>2013-09-29T08:42:37.000Z</time>
      </trkpt>
      <trkpt lat="48.26256" lon="3.33148">
        <ele>147</ele>
        <time>2013-09-29T08:42:38.000Z</time>
      </trkpt>
      <trkpt lat="48.26254" lon="3.3315">
        <ele>147</ele>
        <time>2013-09-29T08:42:39.000Z</time>
      </trkpt>
      <trkpt lat="48.26251" lon="3.33152">
        <ele>148</ele>
        <time>2013-09-29T08:42:40.000Z</time>
      </trkpt>
      <trkpt lat="48.26249" lon="3.33154">
        <ele>152</ele>
        <time>2013-09-29T08:42:41.000Z</time>
      </trkpt>
      <trkpt lat="48.26246" lon="3.33156">
        <ele>152</ele>
        <time>2013-09-29T08:42:42.000Z</time>
      </trkpt>
      <trkpt lat="48.26242" lon="3.33158">
        <ele>152</ele>
        <time>2013-09-29T08:42:43.000Z</time>
      </trkpt>
      <trkpt lat="48.2624" lon="3.33163">
        <ele>152</ele>
        <time>2013-09-29T08:42:44.000Z</time>
      </trkpt>
      <trkpt lat="48.26238" lon="3.33165">
        <ele>152</ele>
        <time>2013-09-29T08:42:45.000Z</time>
      </trkpt>
      <trkpt lat="48.26236" lon="3.33167">
        <ele>155</ele>
        <time>2013-09-29T08:42:46.000Z</time>
      </trkpt>
      <trkpt lat="48.26234" lon="3.33171">
        <ele>155</ele>
        <time>2013-09-29T08:42:47.000Z</time>
      </trkpt>
      <trkpt lat="48.26233" lon="3.33173">
        <ele>156</ele>
        <time>2013-09-29T08:42:48.000Z</time>
      </trkpt>
      <trkpt lat="48.26231" lon="3.33178">
        <ele>156</ele>
        <time>2013-09-29T08:42:49.000Z</time>
      </trkpt>
      <trkpt lat="48.2623" lon="3.33182">
        <ele>157</ele>
        <time>2013-09-29T08:42:50.000Z</time>
      </trkpt>
      <trkpt lat="48.26228" lon="3.33188">
        <ele>157</ele>
        <time>2013-09-29T08:42:52.000Z</time>
      </trkpt>
      <trkpt lat="48.26228" lon="3.33195">
        <ele>158</ele>
        <time>2013-09-29T08:42:53.000Z</time>
      </trkpt>
      <trkpt lat="48.26228" lon="3.33199">
        <ele>158</ele>
        <time>2013-09-29T08:42:54.000Z</time>
      </trkpt>
      <trkpt lat="48.26228" lon="3.33205">
        <ele>158</ele>
        <time>2013-09-29T08:42:55.000Z</time>
      </trkpt>
      <trkpt lat="48.26228" lon="3.3321">
        <ele>158</ele>
        <time>2013-09-29T08:42:56.000Z</time>
      </trkpt>
      <trkpt lat="48.26228" lon="3.33216">
        <ele>159</ele>
        <time>2013-09-29T08:42:57.000Z</time>
      </trkpt>
      <trkpt lat="48.2623" lon="3.3322">
        <ele>159</ele>
        <time>2013-09-29T08:42:58.000Z</time>
      </trkpt>
      <trkpt lat="48.2623" lon="3.33225">
        <ele>159</ele>
        <time>2013-09-29T08:42:59.000Z</time>
      </trkpt>
      <trkpt lat="48.2623" lon="3.33225">
        <ele>159</ele>
        <time>2013-09-29T08:43:02.000Z</time>
      </trkpt>
      <trkpt lat="48.26231" lon="3.33238">
        <ele>158</ele>
        <time>2013-09-29T08:43:03.000Z</time>
      </trkpt>
      <trkpt lat="48.26231" lon="3.33238">
        <ele>158</ele>
        <time>2013-09-29T08:43:08.000Z</time>
      </trkpt>
      <trkpt lat="48.26233" lon="3.33253">
        <ele>160</ele>
        <time>2013-09-29T08:43:09.000Z</time>
      </trkpt>
      <trkpt lat="48.26233" lon="3.33253">
        <ele>160</ele>
        <time>2013-09-29T08:43:15.000Z</time>
      </trkpt>
      <trkpt lat="48.26236" lon="3.33268">
        <ele>161</ele>
        <time>2013-09-29T08:43:16.000Z</time>
      </trkpt>
      <trkpt lat="48.26236" lon="3.33268">
        <ele>161</ele>
        <time>2013-09-29T08:43:20.000Z</time>
      </trkpt>
      <trkpt lat="48.26242" lon="3.33278">
        <ele>161</ele>
        <time>2013-09-29T08:43:21.000Z</time>
      </trkpt>
      <trkpt lat="48.26242" lon="3.33278">
        <ele>161</ele>
        <time>2013-09-29T08:43:24.000Z</time>
      </trkpt>
      <trkpt lat="48.26249" lon="3.33291">
        <ele>162</ele>
        <time>2013-09-29T08:43:25.000Z</time>
      </trkpt>
      <trkpt lat="48.26249" lon="3.33291">
        <ele>162</ele>
        <time>2013-09-29T08:43:28.000Z</time>
      </trkpt>
      <trkpt lat="48.26255" lon="3.33302">
        <ele>155</ele>
        <time>2013-09-29T08:43:29.000Z</time>
      </trkpt>
      <trkpt lat="48.26255" lon="3.33302">
        <ele>155</ele>
        <time>2013-09-29T08:43:32.000Z</time>
      </trkpt>
      <trkpt lat="48.26263" lon="3.33313">
        <ele>155</ele>
        <time>2013-09-29T08:43:33.000Z</time>
      </trkpt>
      <trkpt lat="48.26263" lon="3.33313">
        <ele>155</ele>
        <time>2013-09-29T08:43:37.000Z</time>
      </trkpt>
      <trkpt lat="48.2627" lon="3.33323">
        <ele>155</ele>
        <time>2013-09-29T08:43:38.000Z</time>
      </trkpt>
      <trkpt lat="48.2627" lon="3.33323">
        <ele>155</ele>
        <time>2013-09-29T08:45:22.000Z</time>
      </trkpt>
      <trkpt lat="48.26267" lon="3.33336">
        <ele>158</ele>
        <time>2013-09-29T08:45:23.000Z</time>
      </trkpt>
      <trkpt lat="48.26267" lon="3.33336">
        <ele>158</ele>
        <time>2013-09-29T08:45:28.000Z</time>
      </trkpt>
      <trkpt lat="48.26262" lon="3.33349">
        <ele>158</ele>
        <time>2013-09-29T08:45:29.000Z</time>
      </trkpt>
      <trkpt lat="48.26259" lon="3.33354">
        <ele>158</ele>
        <time>2013-09-29T08:45:31.000Z</time>
      </trkpt>
      <trkpt lat="48.26257" lon="3.33356">
        <ele>158</ele>
        <time>2013-09-29T08:45:32.000Z</time>
      </trkpt>
      <trkpt lat="48.26255" lon="3.3336">
        <ele>158</ele>
        <time>2013-09-29T08:45:34.000Z</time>
      </trkpt>
      <trkpt lat="48.26254" lon="3.33362">
        <ele>158</ele>
        <time>2013-09-29T08:45:35.000Z</time>
      </trkpt>
      <trkpt lat="48.26252" lon="3.33366">
        <ele>158</ele>
        <time>2013-09-29T08:45:37.000Z</time>
      </trkpt>
      <trkpt lat="48.26251" lon="3.33369">
        <ele>158</ele>
        <time>2013-09-29T08:45:38.000Z</time>
      </trkpt>
      <trkpt lat="48.26249" lon="3.33371">
        <ele>164</ele>
        <time>2013-09-29T08:45:40.000Z</time>
      </trkpt>
      <trkpt lat="48.26247" lon="3.33373">
        <ele>164</ele>
        <time>2013-09-29T08:45:41.000Z</time>
      </trkpt>
      <trkpt lat="48.26245" lon="3.33377">
        <ele>164</ele>
        <time>2013-09-29T08:45:43.000Z</time>
      </trkpt>
      <trkpt lat="48.26242" lon="3.33379">
        <ele>164</ele>
        <time>2013-09-29T08:45:44.000Z</time>
      </trkpt>
      <trkpt lat="48.2624" lon="3.33384">
        <ele>164</ele>
        <time>2013-09-29T08:45:46.000Z</time>
      </trkpt>
      <trkpt lat="48.26238" lon="3.33384">
        <ele>164</ele>
        <time>2013-09-29T08:45:47.000Z</time>
      </trkpt>
      <trkpt lat="48.26236" lon="3.33388">
        <ele>164</ele>
        <time>2013-09-29T08:45:49.000Z</time>
      </trkpt>
      <trkpt lat="48.26234" lon="3.3339">
        <ele>164</ele>
        <time>2013-09-29T08:45:50.000Z</time>
      </trkpt>
      <trkpt lat="48.26231" lon="3.33392">
        <ele>165</ele>
        <time>2013-09-29T08:45:52.000Z</time>
      </trkpt>
      <trkpt lat="48.2623" lon="3.33394">
        <ele>165</ele>
        <time>2013-09-29T08:45:53.000Z</time>
      </trkpt>
      <trkpt lat="48.26226" lon="3.33396">
        <ele>165</ele>
        <time>2013-09-29T08:45:55.000Z</time>
      </trkpt>
      <trkpt lat="48.26224" lon="3.33399">
        <ele>165</ele>
        <time>2013-09-29T08:45:56.000Z</time>
      </trkpt>
      <trkpt lat="48.26221" lon="3.33401">
        <ele>165</ele>
        <time>2013-09-29T08:45:58.000Z</time>
      </trkpt>
      <trkpt lat="48.26219" lon="3.33403">
        <ele>165</ele>
        <time>2013-09-29T08:45:59.000Z</time>
      </trkpt>
      <trkpt lat="48.26216" lon="3.33407">
        <ele>165</ele>
        <time>2013-09-29T08:46:01.000Z</time>
      </trkpt>
      <trkpt lat="48.26215" lon="3.33407">
        <ele>165</ele>
        <time>2013-09-29T08:46:02.000Z</time>
      </trkpt>
      <trkpt lat="48.26211" lon="3.33411">
        <ele>166</ele>
        <time>2013-09-29T08:46:04.000Z</time>
      </trkpt>
      <trkpt lat="48.26209" lon="3.33411">
        <ele>166</ele>
        <time>2013-09-29T08:46:05.000Z</time>
      </trkpt>
      <trkpt lat="48.26206" lon="3.33414">
        <ele>166</ele>
        <time>2013-09-29T08:46:07.000Z</time>
      </trkpt>
      <trkpt lat="48.26205" lon="3.33416">
        <ele>166</ele>
        <time>2013-09-29T08:46:08.000Z</time>
      </trkpt>
      <trkpt lat="48.26201" lon="3.33418">
        <ele>168</ele>
        <time>2013-09-29T08:46:11.000Z</time>
      </trkpt>
      <trkpt lat="48.26198" lon="3.3342">
        <ele>168</ele>
        <time>2013-09-29T08:46:12.000Z</time>
      </trkpt>
      <trkpt lat="48.26194" lon="3.33422">
        <ele>168</ele>
        <time>2013-09-29T08:46:15.000Z</time>
      </trkpt>
      <trkpt lat="48.26193" lon="3.33422">
        <ele>168</ele>
        <time>2013-09-29T08:46:16.000Z</time>
      </trkpt>
      <trkpt lat="48.26189" lon="3.33424">
        <ele>169</ele>
        <time>2013-09-29T08:46:19.000Z</time>
      </trkpt>
      <trkpt lat="48.26188" lon="3.33426">
        <ele>169</ele>
        <time>2013-09-29T08:46:20.000Z</time>
      </trkpt>
      <trkpt lat="48.26185" lon="3.33426">
        <ele>169</ele>
        <time>2013-09-29T08:46:22.000Z</time>
      </trkpt>
      <trkpt lat="48.26183" lon="3.33429">
        <ele>169</ele>
        <time>2013-09-29T08:46:23.000Z</time>
      </trkpt>
      <trkpt lat="48.26179" lon="3.33431">
        <ele>169</ele>
        <time>2013-09-29T08:46:26.000Z</time>
      </trkpt>
      <trkpt lat="48.26178" lon="3.33431">
        <ele>169</ele>
        <time>2013-09-29T08:46:27.000Z</time>
      </trkpt>
      <trkpt lat="48.26174" lon="3.33433">
        <ele>169</ele>
        <time>2013-09-29T08:46:31.000Z</time>
      </trkpt>
      <trkpt lat="48.26173" lon="3.33435">
        <ele>169</ele>
        <time>2013-09-29T08:46:32.000Z</time>
      </trkpt>
      <trkpt lat="48.26169" lon="3.33435">
        <ele>169</ele>
        <time>2013-09-29T08:46:35.000Z</time>
      </trkpt>
      <trkpt lat="48.26168" lon="3.33437">
        <ele>169</ele>
        <time>2013-09-29T08:46:36.000Z</time>
      </trkpt>
      <trkpt lat="48.26165" lon="3.33437">
        <ele>173</ele>
        <time>2013-09-29T08:46:40.000Z</time>
      </trkpt>
      <trkpt lat="48.26164" lon="3.33439">
        <ele>173</ele>
        <time>2013-09-29T08:46:41.000Z</time>
      </trkpt>
      <trkpt lat="48.26161" lon="3.33439">
        <ele>173</ele>
        <time>2013-09-29T08:46:45.000Z</time>
      </trkpt>
      <trkpt lat="48.2616" lon="3.33441">
        <ele>173</ele>
        <time>2013-09-29T08:46:46.000Z</time>
      </trkpt>
      <trkpt lat="48.26157" lon="3.33441">
        <ele>173</ele>
        <time>2013-09-29T08:46:51.000Z</time>
      </trkpt>
      <trkpt lat="48.26156" lon="3.33444">
        <ele>173</ele>
        <time>2013-09-29T08:46:52.000Z</time>
      </trkpt>
      <trkpt lat="48.26151" lon="3.33446">
        <ele>174</ele>
        <time>2013-09-29T08:46:57.000Z</time>
      </trkpt>
      <trkpt lat="48.2615" lon="3.33446">
        <ele>174</ele>
        <time>2013-09-29T08:46:58.000Z</time>
      </trkpt>
      <trkpt lat="48.26147" lon="3.33446">
        <ele>174</ele>
        <time>2013-09-29T08:47:01.000Z</time>
      </trkpt>
      <trkpt lat="48.26145" lon="3.33446">
        <ele>174</ele>
        <time>2013-09-29T08:47:02.000Z</time>
      </trkpt>
      <trkpt lat="48.26142" lon="3.33448">
        <ele>174</ele>
        <time>2013-09-29T08:47:04.000Z</time>
      </trkpt>
      <trkpt lat="48.26139" lon="3.33448">
        <ele>174</ele>
        <time>2013-09-29T08:47:05.000Z</time>
      </trkpt>
      <trkpt lat="48.26136" lon="3.33448">
        <ele>174</ele>
        <time>2013-09-29T08:47:07.000Z</time>
      </trkpt>
      <trkpt lat="48.26133" lon="3.3345">
        <ele>175</ele>
        <time>2013-09-29T08:47:08.000Z</time>
      </trkpt>
      <trkpt lat="48.26129" lon="3.3345">
        <ele>175</ele>
        <time>2013-09-29T08:47:10.000Z</time>
      </trkpt>
      <trkpt lat="48.26126" lon="3.33452">
        <ele>175</ele>
        <time>2013-09-29T08:47:11.000Z</time>
      </trkpt>
      <trkpt lat="48.26123" lon="3.33452">
        <ele>175</ele>
        <time>2013-09-29T08:47:12.000Z</time>
      </trkpt>
      <trkpt lat="48.26121" lon="3.33454">
        <ele>175</ele>
        <time>2013-09-29T08:47:13.000Z</time>
      </trkpt>
      <trkpt lat="48.26118" lon="3.33454">
        <ele>175</ele>
        <time>2013-09-29T08:47:14.000Z</time>
      </trkpt>
      <trkpt lat="48.26116" lon="3.33457">
        <ele>175</ele>
        <time>2013-09-29T08:47:15.000Z</time>
      </trkpt>
      <trkpt lat="48.26114" lon="3.33457">
        <ele>175</ele>
        <time>2013-09-29T08:47:16.000Z</time>
      </trkpt>
      <trkpt lat="48.2611" lon="3.33459">
        <ele>176</ele>
        <time>2013-09-29T08:47:17.000Z</time>
      </trkpt>
      <trkpt lat="48.26108" lon="3.33459">
        <ele>176</ele>
        <time>2013-09-29T08:47:18.000Z</time>
      </trkpt>
      <trkpt lat="48.26105" lon="3.33461">
        <ele>176</ele>
        <time>2013-09-29T08:47:19.000Z</time>
      </trkpt>
      <trkpt lat="48.26103" lon="3.33461">
        <ele>176</ele>
        <time>2013-09-29T08:47:20.000Z</time>
      </trkpt>
      <trkpt lat="48.26101" lon="3.33463">
        <ele>176</ele>
        <time>2013-09-29T08:47:21.000Z</time>
      </trkpt>
      <trkpt lat="48.26099" lon="3.33463">
        <ele>176</ele>
        <time>2013-09-29T08:47:22.000Z</time>
      </trkpt>
      <trkpt lat="48.26097" lon="3.33465">
        <ele>176</ele>
        <time>2013-09-29T08:47:23.000Z</time>
      </trkpt>
      <trkpt lat="48.26094" lon="3.33467">
        <ele>176</ele>
        <time>2013-09-29T08:47:24.000Z</time>
      </trkpt>
      <trkpt lat="48.26092" lon="3.33467">
        <ele>176</ele>
        <time>2013-09-29T08:47:25.000Z</time>
      </trkpt>
      <trkpt lat="48.26089" lon="3.33472">
        <ele>176</ele>
        <time>2013-09-29T08:47:27.000Z</time>
      </trkpt>
      <trkpt lat="48.26087" lon="3.33472">
        <ele>176</ele>
        <time>2013-09-29T08:47:28.000Z</time>
      </trkpt>
      <trkpt lat="48.26085" lon="3.33476">
        <ele>177</ele>
        <time>2013-09-29T08:47:31.000Z</time>
      </trkpt>
      <trkpt lat="48.26084" lon="3.33478">
        <ele>177</ele>
        <time>2013-09-29T08:47:32.000Z</time>
      </trkpt>
      <trkpt lat="48.26082" lon="3.33482">
        <ele>176</ele>
        <time>2013-09-29T08:47:34.000Z</time>
      </trkpt>
      <trkpt lat="48.2608" lon="3.33487">
        <ele>177</ele>
        <time>2013-09-29T08:47:35.000Z</time>
      </trkpt>
      <trkpt lat="48.26079" lon="3.33491">
        <ele>177</ele>
        <time>2013-09-29T08:47:37.000Z</time>
      </trkpt>
      <trkpt lat="48.26078" lon="3.33493">
        <ele>177</ele>
        <time>2013-09-29T08:47:38.000Z</time>
      </trkpt>
      <trkpt lat="48.26077" lon="3.33499">
        <ele>178</ele>
        <time>2013-09-29T08:47:41.000Z</time>
      </trkpt>
      <trkpt lat="48.26076" lon="3.33502">
        <ele>177</ele>
        <time>2013-09-29T08:47:42.000Z</time>
      </trkpt>
      <trkpt lat="48.26076" lon="3.33508">
        <ele>177</ele>
        <time>2013-09-29T08:47:45.000Z</time>
      </trkpt>
      <trkpt lat="48.26076" lon="3.3351">
        <ele>177</ele>
        <time>2013-09-29T08:47:46.000Z</time>
      </trkpt>
      <trkpt lat="48.26076" lon="3.33517">
        <ele>176</ele>
        <time>2013-09-29T08:47:50.000Z</time>
      </trkpt>
      <trkpt lat="48.26077" lon="3.33519">
        <ele>176</ele>
        <time>2013-09-29T08:47:51.000Z</time>
      </trkpt>
      <trkpt lat="48.26078" lon="3.33525">
        <ele>175</ele>
        <time>2013-09-29T08:47:54.000Z</time>
      </trkpt>
      <trkpt lat="48.26079" lon="3.33527">
        <ele>175</ele>
        <time>2013-09-29T08:47:55.000Z</time>
      </trkpt>
      <trkpt lat="48.2608" lon="3.33532">
        <ele>175</ele>
        <time>2013-09-29T08:47:58.000Z</time>
      </trkpt>
      <trkpt lat="48.26082" lon="3.33534">
        <ele>175</ele>
        <time>2013-09-29T08:47:59.000Z</time>
      </trkpt>
      <trkpt lat="48.26083" lon="3.3354">
        <ele>175</ele>
        <time>2013-09-29T08:48:02.000Z</time>
      </trkpt>
      <trkpt lat="48.26084" lon="3.33544">
        <ele>178</ele>
        <time>2013-09-29T08:48:03.000Z</time>
      </trkpt>
      <trkpt lat="48.26085" lon="3.33549">
        <ele>178</ele>
        <time>2013-09-29T08:48:05.000Z</time>
      </trkpt>
      <trkpt lat="48.26086" lon="3.33551">
        <ele>178</ele>
        <time>2013-09-29T08:48:06.000Z</time>
      </trkpt>
      <trkpt lat="48.26087" lon="3.33555">
        <ele>178</ele>
        <time>2013-09-29T08:48:08.000Z</time>
      </trkpt>
      <trkpt lat="48.26088" lon="3.33557">
        <ele>178</ele>
        <time>2013-09-29T08:48:09.000Z</time>
      </trkpt>
      <trkpt lat="48.26089" lon="3.33562">
        <ele>179</ele>
        <time>2013-09-29T08:48:12.000Z</time>
      </trkpt>
      <trkpt lat="48.2609" lon="3.33564">
        <ele>179</ele>
        <time>2013-09-29T08:48:13.000Z</time>
      </trkpt>
      <trkpt lat="48.26091" lon="3.33568">
        <ele>179</ele>
        <time>2013-09-29T08:48:15.000Z</time>
      </trkpt>
      <trkpt lat="48.26092" lon="3.3357">
        <ele>179</ele>
        <time>2013-09-29T08:48:16.000Z</time>
      </trkpt>
      <trkpt lat="48.26095" lon="3.33575">
        <ele>179</ele>
        <time>2013-09-29T08:48:22.000Z</time>
      </trkpt>
      <trkpt lat="48.26097" lon="3.33577">
        <ele>179</ele>
        <time>2013-09-29T08:48:23.000Z</time>
      </trkpt>
      <trkpt lat="48.26099" lon="3.33581">
        <ele>179</ele>
        <time>2013-09-29T08:48:29.000Z</time>
      </trkpt>
      <trkpt lat="48.261" lon="3.33583">
        <ele>179</ele>
        <time>2013-09-29T08:48:30.000Z</time>
      </trkpt>
      <trkpt lat="48.26102" lon="3.33587">
        <ele>179</ele>
        <time>2013-09-29T08:48:36.000Z</time>
      </trkpt>
      <trkpt lat="48.26103" lon="3.3359">
        <ele>179</ele>
        <time>2013-09-29T08:48:37.000Z</time>
      </trkpt>
      <trkpt lat="48.26105" lon="3.33594">
        <ele>179</ele>
        <time>2013-09-29T08:48:43.000Z</time>
      </trkpt>
      <trkpt lat="48.26105" lon="3.33596">
        <ele>179</ele>
        <time>2013-09-29T08:48:44.000Z</time>
      </trkpt>
      <trkpt lat="48.26104" lon="3.33602">
        <ele>179</ele>
        <time>2013-09-29T08:48:53.000Z</time>
      </trkpt>
      <trkpt lat="48.26103" lon="3.33602">
        <ele>179</ele>
        <time>2013-09-29T08:48:54.000Z</time>
      </trkpt>
      <trkpt lat="48.26101" lon="3.33607">
        <ele>179</ele>
        <time>2013-09-29T08:49:01.000Z</time>
      </trkpt>
      <trkpt lat="48.26101" lon="3.33609">
        <ele>179</ele>
        <time>2013-09-29T08:49:02.000Z</time>
      </trkpt>
      <trkpt lat="48.26102" lon="3.33615">
        <ele>178</ele>
        <time>2013-09-29T08:49:20.000Z</time>
      </trkpt>
      <trkpt lat="48.26103" lon="3.33615">
        <ele>178</ele>
        <time>2013-09-29T08:49:21.000Z</time>
      </trkpt>
      <trkpt lat="48.26104" lon="3.33622">
        <ele>178</ele>
        <time>2013-09-29T08:49:30.000Z</time>
      </trkpt>
      <trkpt lat="48.26104" lon="3.33624">
        <ele>178</ele>
        <time>2013-09-29T08:49:31.000Z</time>
      </trkpt>
      <trkpt lat="48.26105" lon="3.33628">
        <ele>178</ele>
        <time>2013-09-29T08:49:37.000Z</time>
      </trkpt>
      <trkpt lat="48.26105" lon="3.3363">
        <ele>178</ele>
        <time>2013-09-29T08:49:38.000Z</time>
      </trkpt>
      <trkpt lat="48.26106" lon="3.33637">
        <ele>178</ele>
        <time>2013-09-29T08:49:47.000Z</time>
      </trkpt>
      <trkpt lat="48.26106" lon="3.33639">
        <ele>178</ele>
        <time>2013-09-29T08:49:48.000Z</time>
      </trkpt>
      <trkpt lat="48.26107" lon="3.33645">
        <ele>178</ele>
        <time>2013-09-29T08:49:54.000Z</time>
      </trkpt>
      <trkpt lat="48.26107" lon="3.33647">
        <ele>178</ele>
        <time>2013-09-29T08:49:55.000Z</time>
      </trkpt>
      <trkpt lat="48.26107" lon="3.33654">
        <ele>177</ele>
        <time>2013-09-29T08:50:00.000Z</time>
      </trkpt>
      <trkpt lat="48.26106" lon="3.33658">
        <ele>177</ele>
        <time>2013-09-29T08:50:01.000Z</time>
      </trkpt>
      <trkpt lat="48.26106" lon="3.33665">
        <ele>177</ele>
        <time>2013-09-29T08:50:05.000Z</time>
      </trkpt>
      <trkpt lat="48.26105" lon="3.33667">
        <ele>174</ele>
        <time>2013-09-29T08:50:06.000Z</time>
      </trkpt>
      <trkpt lat="48.26109" lon="3.33667">
        <ele>175</ele>
        <time>2013-09-29T08:50:26.000Z</time>
      </trkpt>
      <trkpt lat="48.2611" lon="3.33667">
        <ele>175</ele>
        <time>2013-09-29T08:50:27.000Z</time>
      </trkpt>
      <trkpt lat="48.26114" lon="3.33663">
        <ele>178</ele>
        <time>2013-09-29T08:50:35.000Z</time>
      </trkpt>
      <trkpt lat="48.26115" lon="3.33663">
        <ele>178</ele>
        <time>2013-09-29T08:50:36.000Z</time>
      </trkpt>
      <trkpt lat="48.26118" lon="3.33658">
        <ele>178</ele>
        <time>2013-09-29T08:50:43.000Z</time>
      </trkpt>
      <trkpt lat="48.26118" lon="3.33656">
        <ele>178</ele>
        <time>2013-09-29T08:50:44.000Z</time>
      </trkpt>
      <trkpt lat="48.26121" lon="3.33652">
        <ele>178</ele>
        <time>2013-09-29T08:50:50.000Z</time>
      </trkpt>
      <trkpt lat="48.26122" lon="3.33652">
        <ele>178</ele>
        <time>2013-09-29T08:50:51.000Z</time>
      </trkpt>
      <trkpt lat="48.26124" lon="3.33647">
        <ele>179</ele>
        <time>2013-09-29T08:50:56.000Z</time>
      </trkpt>
      <trkpt lat="48.26126" lon="3.33645">
        <ele>179</ele>
        <time>2013-09-29T08:50:57.000Z</time>
      </trkpt>
      <trkpt lat="48.26129" lon="3.33641">
        <ele>179</ele>
        <time>2013-09-29T08:51:01.000Z</time>
      </trkpt>
      <trkpt lat="48.2613" lon="3.33641">
        <ele>179</ele>
        <time>2013-09-29T08:51:02.000Z</time>
      </trkpt>
      <trkpt lat="48.26133" lon="3.33637">
        <ele>179</ele>
        <time>2013-09-29T08:51:06.000Z</time>
      </trkpt>
      <trkpt lat="48.26134" lon="3.33635">
        <ele>179</ele>
        <time>2013-09-29T08:51:07.000Z</time>
      </trkpt>
      <trkpt lat="48.26137" lon="3.3363">
        <ele>179</ele>
        <time>2013-09-29T08:51:11.000Z</time>
      </trkpt>
      <trkpt lat="48.26138" lon="3.3363">
        <ele>179</ele>
        <time>2013-09-29T08:51:12.000Z</time>
      </trkpt>
      <trkpt lat="48.26142" lon="3.33626">
        <ele>179</ele>
        <time>2013-09-29T08:51:16.000Z</time>
      </trkpt>
      <trkpt lat="48.26143" lon="3.33626">
        <ele>179</ele>
        <time>2013-09-29T08:51:17.000Z</time>
      </trkpt>
      <trkpt lat="48.26146" lon="3.33624">
        <ele>179</ele>
        <time>2013-09-29T08:51:20.000Z</time>
      </trkpt>
      <trkpt lat="48.26147" lon="3.33624">
        <ele>179</ele>
        <time>2013-09-29T08:51:21.000Z</time>
      </trkpt>
      <trkpt lat="48.2615" lon="3.33622">
        <ele>179</ele>
        <time>2013-09-29T08:51:25.000Z</time>
      </trkpt>
      <trkpt lat="48.26151" lon="3.3362">
        <ele>179</ele>
        <time>2013-09-29T08:51:26.000Z</time>
      </trkpt>
      <trkpt lat="48.26154" lon="3.33615">
        <ele>179</ele>
        <time>2013-09-29T08:51:31.000Z</time>
      </trkpt>
      <trkpt lat="48.26156" lon="3.33615">
        <ele>179</ele>
        <time>2013-09-29T08:51:32.000Z</time>
      </trkpt>
      <trkpt lat="48.26159" lon="3.33611">
        <ele>179</ele>
        <time>2013-09-29T08:51:38.000Z</time>
      </trkpt>
      <trkpt lat="48.2616" lon="3.33609">
        <ele>179</ele>
        <time>2013-09-29T08:51:39.000Z</time>
      </trkpt>
      <trkpt lat="48.26163" lon="3.33605">
        <ele>180</ele>
        <time>2013-09-29T08:51:45.000Z</time>
      </trkpt>
      <trkpt lat="48.26164" lon="3.33605">
        <ele>180</ele>
        <time>2013-09-29T08:51:46.000Z</time>
      </trkpt>
      <trkpt lat="48.26166" lon="3.336">
        <ele>180</ele>
        <time>2013-09-29T08:51:51.000Z</time>
      </trkpt>
      <trkpt lat="48.26167" lon="3.33598">
        <ele>180</ele>
        <time>2013-09-29T08:51:52.000Z</time>
      </trkpt>
      <trkpt lat="48.26171" lon="3.33594">
        <ele>180</ele>
        <time>2013-09-29T08:51:59.000Z</time>
      </trkpt>
      <trkpt lat="48.26172" lon="3.33596">
        <ele>179</ele>
        <time>2013-09-29T08:52:00.000Z</time>
      </trkpt>
      <trkpt lat="48.26175" lon="3.33596">
        <ele>179</ele>
        <time>2013-09-29T08:52:07.000Z</time>
      </trkpt>
      <trkpt lat="48.26176" lon="3.33598">
        <ele>179</ele>
        <time>2013-09-29T08:52:08.000Z</time>
      </trkpt>
      <trkpt lat="48.26179" lon="3.336">
        <ele>179</ele>
        <time>2013-09-29T08:52:15.000Z</time>
      </trkpt>
      <trkpt lat="48.2618" lon="3.336">
        <ele>179</ele>
        <time>2013-09-29T08:52:16.000Z</time>
      </trkpt>
      <trkpt lat="48.26183" lon="3.33602">
        <ele>179</ele>
        <time>2013-09-29T08:52:23.000Z</time>
      </trkpt>
      <trkpt lat="48.26185" lon="3.33602">
        <ele>179</ele>
        <time>2013-09-29T08:52:24.000Z</time>
      </trkpt>
      <trkpt lat="48.26189" lon="3.33602">
        <ele>179</ele>
        <time>2013-09-29T08:52:32.000Z</time>
      </trkpt>
      <trkpt lat="48.2619" lon="3.33602">
        <ele>179</ele>
        <time>2013-09-29T08:52:33.000Z</time>
      </trkpt>
      <trkpt lat="48.26193" lon="3.33598">
        <ele>179</ele>
        <time>2013-09-29T08:52:38.000Z</time>
      </trkpt>
      <trkpt lat="48.26193" lon="3.33596">
        <ele>179</ele>
        <time>2013-09-29T08:52:39.000Z</time>
      </trkpt>
      <trkpt lat="48.26196" lon="3.33592">
        <ele>179</ele>
        <time>2013-09-29T08:52:43.000Z</time>
      </trkpt>
      <trkpt lat="48.26196" lon="3.3359">
        <ele>179</ele>
        <time>2013-09-29T08:52:44.000Z</time>
      </trkpt>
      <trkpt lat="48.262" lon="3.33587">
        <ele>179</ele>
        <time>2013-09-29T08:52:50.000Z</time>
      </trkpt>
      <trkpt lat="48.26201" lon="3.33587">
        <ele>178</ele>
        <time>2013-09-29T08:52:51.000Z</time>
      </trkpt>
      <trkpt lat="48.26204" lon="3.33592">
        <ele>178</ele>
        <time>2013-09-29T08:53:04.000Z</time>
      </trkpt>
      <trkpt lat="48.26204" lon="3.33594">
        <ele>178</ele>
        <time>2013-09-29T08:53:05.000Z</time>
      </trkpt>
      <trkpt lat="48.26205" lon="3.336">
        <ele>178</ele>
        <time>2013-09-29T08:53:24.000Z</time>
      </trkpt>
      <trkpt lat="48.26205" lon="3.33602">
        <ele>178</ele>
        <time>2013-09-29T08:53:25.000Z</time>
      </trkpt>
      <trkpt lat="48.26208" lon="3.33605">
        <ele>178</ele>
        <time>2013-09-29T08:53:38.000Z</time>
      </trkpt>
      <trkpt lat="48.26209" lon="3.33605">
        <ele>178</ele>
        <time>2013-09-29T08:53:39.000Z</time>
      </trkpt>
      <trkpt lat="48.26212" lon="3.33602">
        <ele>178</ele>
        <time>2013-09-29T08:53:47.000Z</time>
      </trkpt>
      <trkpt lat="48.26213" lon="3.33602">
        <ele>178</ele>
        <time>2013-09-29T08:53:48.000Z</time>
      </trkpt>
      <trkpt lat="48.26217" lon="3.33598">
        <ele>178</ele>
        <time>2013-09-29T08:53:56.000Z</time>
      </trkpt>
      <trkpt lat="48.26218" lon="3.33598">
        <ele>178</ele>
        <time>2013-09-29T08:53:57.000Z</time>
      </trkpt>
      <trkpt lat="48.26221" lon="3.33596">
        <ele>178</ele>
        <time>2013-09-29T08:54:00.000Z</time>
      </trkpt>
      <trkpt lat="48.26222" lon="3.33596">
        <ele>177</ele>
        <time>2013-09-29T08:54:01.000Z</time>
      </trkpt>
      <trkpt lat="48.26225" lon="3.33594">
        <ele>177</ele>
        <time>2013-09-29T08:54:03.000Z</time>
      </trkpt>
      <trkpt lat="48.26226" lon="3.33594">
        <ele>177</ele>
        <time>2013-09-29T08:54:04.000Z</time>
      </trkpt>
      <trkpt lat="48.2623" lon="3.33592">
        <ele>177</ele>
        <time>2013-09-29T08:54:07.000Z</time>
      </trkpt>
      <trkpt lat="48.26231" lon="3.33592">
        <ele>177</ele>
        <time>2013-09-29T08:54:08.000Z</time>
      </trkpt>
      <trkpt lat="48.26234" lon="3.3359">
        <ele>176</ele>
        <time>2013-09-29T08:54:11.000Z</time>
      </trkpt>
      <trkpt lat="48.26235" lon="3.3359">
        <ele>176</ele>
        <time>2013-09-29T08:54:12.000Z</time>
      </trkpt>
      <trkpt lat="48.26239" lon="3.3359">
        <ele>176</ele>
        <time>2013-09-29T08:54:16.000Z</time>
      </trkpt>
      <trkpt lat="48.2624" lon="3.33587">
        <ele>176</ele>
        <time>2013-09-29T08:54:17.000Z</time>
      </trkpt>
      <trkpt lat="48.26245" lon="3.33587">
        <ele>175</ele>
        <time>2013-09-29T08:54:21.000Z</time>
      </trkpt>
      <trkpt lat="48.26246" lon="3.33587">
        <ele>175</ele>
        <time>2013-09-29T08:54:22.000Z</time>
      </trkpt>
      <trkpt lat="48.26249" lon="3.33583">
        <ele>174</ele>
        <time>2013-09-29T08:54:30.000Z</time>
      </trkpt>
      <trkpt lat="48.2625" lon="3.33583">
        <ele>174</ele>
        <time>2013-09-29T08:54:31.000Z</time>
      </trkpt>
      <trkpt lat="48.26253" lon="3.33579">
        <ele>172</ele>
        <time>2013-09-29T08:54:35.000Z</time>
      </trkpt>
      <trkpt lat="48.26253" lon="3.33577">
        <ele>172</ele>
        <time>2013-09-29T08:54:36.000Z</time>
      </trkpt>
      <trkpt lat="48.26256" lon="3.33572">
        <ele>170</ele>
        <time>2013-09-29T08:54:40.000Z</time>
      </trkpt>
      <trkpt lat="48.26257" lon="3.33572">
        <ele>170</ele>
        <time>2013-09-29T08:54:41.000Z</time>
      </trkpt>
      <trkpt lat="48.26261" lon="3.33568">
        <ele>169</ele>
        <time>2013-09-29T08:54:46.000Z</time>
      </trkpt>
      <trkpt lat="48.26262" lon="3.33568">
        <ele>169</ele>
        <time>2013-09-29T08:54:47.000Z</time>
      </trkpt>
      <trkpt lat="48.26265" lon="3.33564">
        <ele>168</ele>
        <time>2013-09-29T08:54:51.000Z</time>
      </trkpt>
      <trkpt lat="48.26266" lon="3.33562">
        <ele>168</ele>
        <time>2013-09-29T08:54:52.000Z</time>
      </trkpt>
      <trkpt lat="48.26269" lon="3.3356">
        <ele>167</ele>
        <time>2013-09-29T08:54:55.000Z</time>
      </trkpt>
      <trkpt lat="48.2627" lon="3.33557">
        <ele>167</ele>
        <time>2013-09-29T08:54:56.000Z</time>
      </trkpt>
      <trkpt lat="48.26274" lon="3.33555">
        <ele>167</ele>
        <time>2013-09-29T08:54:59.000Z</time>
      </trkpt>
      <trkpt lat="48.26275" lon="3.33553">
        <ele>166</ele>
        <time>2013-09-29T08:55:00.000Z</time>
      </trkpt>
      <trkpt lat="48.26278" lon="3.33551">
        <ele>166</ele>
        <time>2013-09-29T08:55:03.000Z</time>
      </trkpt>
      <trkpt lat="48.26279" lon="3.33549">
        <ele>166</ele>
        <time>2013-09-29T08:55:04.000Z</time>
      </trkpt>
      <trkpt lat="48.26281" lon="3.33547">
        <ele>166</ele>
        <time>2013-09-29T08:55:06.000Z</time>
      </trkpt>
      <trkpt lat="48.26283" lon="3.33547">
        <ele>165</ele>
        <time>2013-09-29T08:55:07.000Z</time>
      </trkpt>
      <trkpt lat="48.26285" lon="3.33544">
        <ele>165</ele>
        <time>2013-09-29T08:55:09.000Z</time>
      </trkpt>
      <trkpt lat="48.26288" lon="3.33544">
        <ele>165</ele>
        <time>2013-09-29T08:55:10.000Z</time>
      </trkpt>
      <trkpt lat="48.2629" lon="3.33542">
        <ele>165</ele>
        <time>2013-09-29T08:55:12.000Z</time>
      </trkpt>
      <trkpt lat="48.26292" lon="3.33542">
        <ele>165</ele>
        <time>2013-09-29T08:55:13.000Z</time>
      </trkpt>
      <trkpt lat="48.26294" lon="3.3354">
        <ele>165</ele>
        <time>2013-09-29T08:55:15.000Z</time>
      </trkpt>
      <trkpt lat="48.26296" lon="3.3354">
        <ele>164</ele>
        <time>2013-09-29T08:55:16.000Z</time>
      </trkpt>
      <trkpt lat="48.26298" lon="3.33538">
        <ele>164</ele>
        <time>2013-09-29T08:55:18.000Z</time>
      </trkpt>
      <trkpt lat="48.263" lon="3.33538">
        <ele>164</ele>
        <time>2013-09-29T08:55:19.000Z</time>
      </trkpt>
      <trkpt lat="48.26304" lon="3.33536">
        <ele>164</ele>
        <time>2013-09-29T08:55:22.000Z</time>
      </trkpt>
      <trkpt lat="48.26306" lon="3.33534">
        <ele>164</ele>
        <time>2013-09-29T08:55:23.000Z</time>
      </trkpt>
      <trkpt lat="48.26308" lon="3.33532">
        <ele>163</ele>
        <time>2013-09-29T08:55:25.000Z</time>
      </trkpt>
      <trkpt lat="48.2631" lon="3.33532">
        <ele>163</ele>
        <time>2013-09-29T08:55:26.000Z</time>
      </trkpt>
      <trkpt lat="48.26312" lon="3.33529">
        <ele>163</ele>
        <time>2013-09-29T08:55:28.000Z</time>
      </trkpt>
      <trkpt lat="48.26314" lon="3.33527">
        <ele>163</ele>
        <time>2013-09-29T08:55:29.000Z</time>
      </trkpt>
      <trkpt lat="48.26318" lon="3.33525">
        <ele>162</ele>
        <time>2013-09-29T08:55:31.000Z</time>
      </trkpt>
      <trkpt lat="48.26319" lon="3.33523">
        <ele>162</ele>
        <time>2013-09-29T08:55:32.000Z</time>
      </trkpt>
      <trkpt lat="48.26322" lon="3.33521">
        <ele>162</ele>
        <time>2013-09-29T08:55:34.000Z</time>
      </trkpt>
      <trkpt lat="48.26324" lon="3.33521">
        <ele>161</ele>
        <time>2013-09-29T08:55:35.000Z</time>
      </trkpt>
      <trkpt lat="48.26327" lon="3.33517">
        <ele>161</ele>
        <time>2013-09-29T08:55:37.000Z</time>
      </trkpt>
      <trkpt lat="48.26328" lon="3.33517">
        <ele>161</ele>
        <time>2013-09-29T08:55:38.000Z</time>
      </trkpt>
      <trkpt lat="48.26331" lon="3.33514">
        <ele>160</ele>
        <time>2013-09-29T08:55:40.000Z</time>
      </trkpt>
      <trkpt lat="48.26333" lon="3.33512">
        <ele>160</ele>
        <time>2013-09-29T08:55:41.000Z</time>
      </trkpt>
      <trkpt lat="48.26336" lon="3.3351">
        <ele>157</ele>
        <time>2013-09-29T08:55:43.000Z</time>
      </trkpt>
      <trkpt lat="48.26338" lon="3.33508">
        <ele>157</ele>
        <time>2013-09-29T08:55:44.000Z</time>
      </trkpt>
      <trkpt lat="48.26341" lon="3.33506">
        <ele>157</ele>
        <time>2013-09-29T08:55:46.000Z</time>
      </trkpt>
      <trkpt lat="48.26342" lon="3.33506">
        <ele>156</ele>
        <time>2013-09-29T08:55:47.000Z</time>
      </trkpt>
      <trkpt lat="48.26345" lon="3.33504">
        <ele>156</ele>
        <time>2013-09-29T08:55:49.000Z</time>
      </trkpt>
      <trkpt lat="48.26348" lon="3.33504">
        <ele>156</ele>
        <time>2013-09-29T08:55:50.000Z</time>
      </trkpt>
      <trkpt lat="48.26351" lon="3.33502">
        <ele>156</ele>
        <time>2013-09-29T08:55:52.000Z</time>
      </trkpt>
      <trkpt lat="48.26352" lon="3.33502">
        <ele>156</ele>
        <time>2013-09-29T08:55:53.000Z</time>
      </trkpt>
      <trkpt lat="48.26355" lon="3.33499">
        <ele>154</ele>
        <time>2013-09-29T08:55:55.000Z</time>
      </trkpt>
      <trkpt lat="48.26357" lon="3.33499">
        <ele>154</ele>
        <time>2013-09-29T08:55:56.000Z</time>
      </trkpt>
      <trkpt lat="48.2636" lon="3.33497">
        <ele>153</ele>
        <time>2013-09-29T08:55:58.000Z</time>
      </trkpt>
      <trkpt lat="48.26363" lon="3.33495">
        <ele>153</ele>
        <time>2013-09-29T08:55:59.000Z</time>
      </trkpt>
      <trkpt lat="48.26366" lon="3.33495">
        <ele>153</ele>
        <time>2013-09-29T08:56:01.000Z</time>
      </trkpt>
      <trkpt lat="48.26367" lon="3.33493">
        <ele>153</ele>
        <time>2013-09-29T08:56:02.000Z</time>
      </trkpt>
      <trkpt lat="48.2637" lon="3.33491">
        <ele>153</ele>
        <time>2013-09-29T08:56:04.000Z</time>
      </trkpt>
      <trkpt lat="48.26371" lon="3.33491">
        <ele>153</ele>
        <time>2013-09-29T08:56:05.000Z</time>
      </trkpt>
      <trkpt lat="48.26374" lon="3.33489">
        <ele>152</ele>
        <time>2013-09-29T08:56:07.000Z</time>
      </trkpt>
      <trkpt lat="48.26377" lon="3.33487">
        <ele>152</ele>
        <time>2013-09-29T08:56:08.000Z</time>
      </trkpt>
      <trkpt lat="48.26379" lon="3.33484">
        <ele>152</ele>
        <time>2013-09-29T08:56:10.000Z</time>
      </trkpt>
      <trkpt lat="48.26381" lon="3.33484">
        <ele>152</ele>
        <time>2013-09-29T08:56:11.000Z</time>
      </trkpt>
      <trkpt lat="48.26383" lon="3.33482">
        <ele>152</ele>
        <time>2013-09-29T08:56:13.000Z</time>
      </trkpt>
      <trkpt lat="48.26385" lon="3.33482">
        <ele>152</ele>
        <time>2013-09-29T08:56:14.000Z</time>
      </trkpt>
      <trkpt lat="48.26388" lon="3.3348">
        <ele>152</ele>
        <time>2013-09-29T08:56:17.000Z</time>
      </trkpt>
      <trkpt lat="48.26391" lon="3.3348">
        <ele>152</ele>
        <time>2013-09-29T08:56:18.000Z</time>
      </trkpt>
      <trkpt lat="48.26395" lon="3.3348">
        <ele>151</ele>
        <time>2013-09-29T08:56:21.000Z</time>
      </trkpt>
      <trkpt lat="48.26396" lon="3.3348">
        <ele>151</ele>
        <time>2013-09-29T08:56:22.000Z</time>
      </trkpt>
      <trkpt lat="48.264" lon="3.3348">
        <ele>151</ele>
        <time>2013-09-29T08:56:25.000Z</time>
      </trkpt>
      <trkpt lat="48.26401" lon="3.3348">
        <ele>151</ele>
        <time>2013-09-29T08:56:26.000Z</time>
      </trkpt>
      <trkpt lat="48.26404" lon="3.33482">
        <ele>151</ele>
        <time>2013-09-29T08:56:28.000Z</time>
      </trkpt>
      <trkpt lat="48.26406" lon="3.33484">
        <ele>151</ele>
        <time>2013-09-29T08:56:29.000Z</time>
      </trkpt>
      <trkpt lat="48.26409" lon="3.33487">
        <ele>151</ele>
        <time>2013-09-29T08:56:32.000Z</time>
      </trkpt>
      <trkpt lat="48.26411" lon="3.33489">
        <ele>151</ele>
        <time>2013-09-29T08:56:33.000Z</time>
      </trkpt>
      <trkpt lat="48.26413" lon="3.33493">
        <ele>150</ele>
        <time>2013-09-29T08:56:35.000Z</time>
      </trkpt>
      <trkpt lat="48.26414" lon="3.33495">
        <ele>150</ele>
        <time>2013-09-29T08:56:36.000Z</time>
      </trkpt>
      <trkpt lat="48.26415" lon="3.33499">
        <ele>150</ele>
        <time>2013-09-29T08:56:37.000Z</time>
      </trkpt>
      <trkpt lat="48.26416" lon="3.33502">
        <ele>150</ele>
        <time>2013-09-29T08:56:38.000Z</time>
      </trkpt>
      <trkpt lat="48.26417" lon="3.33504">
        <ele>151</ele>
        <time>2013-09-29T08:56:39.000Z</time>
      </trkpt>
      <trkpt lat="48.26419" lon="3.33508">
        <ele>151</ele>
        <time>2013-09-29T08:56:40.000Z</time>
      </trkpt>
      <trkpt lat="48.26422" lon="3.33512">
        <ele>152</ele>
        <time>2013-09-29T08:56:42.000Z</time>
      </trkpt>
      <trkpt lat="48.26423" lon="3.33517">
        <ele>152</ele>
        <time>2013-09-29T08:56:43.000Z</time>
      </trkpt>
      <trkpt lat="48.26424" lon="3.33519">
        <ele>152</ele>
        <time>2013-09-29T08:56:44.000Z</time>
      </trkpt>
      <trkpt lat="48.26425" lon="3.33523">
        <ele>153</ele>
        <time>2013-09-29T08:56:45.000Z</time>
      </trkpt>
      <trkpt lat="48.26426" lon="3.33529">
        <ele>153</ele>
        <time>2013-09-29T08:56:47.000Z</time>
      </trkpt>
      <trkpt lat="48.26427" lon="3.33534">
        <ele>153</ele>
        <time>2013-09-29T08:56:48.000Z</time>
      </trkpt>
      <trkpt lat="48.26428" lon="3.3354">
        <ele>154</ele>
        <time>2013-09-29T08:56:50.000Z</time>
      </trkpt>
      <trkpt lat="48.26429" lon="3.33544">
        <ele>154</ele>
        <time>2013-09-29T08:56:51.000Z</time>
      </trkpt>
      <trkpt lat="48.2643" lon="3.33547">
        <ele>154</ele>
        <time>2013-09-29T08:56:52.000Z</time>
      </trkpt>
      <trkpt lat="48.2643" lon="3.33551">
        <ele>154</ele>
        <time>2013-09-29T08:56:53.000Z</time>
      </trkpt>
      <trkpt lat="48.26431" lon="3.33557">
        <ele>154</ele>
        <time>2013-09-29T08:56:55.000Z</time>
      </trkpt>
      <trkpt lat="48.26432" lon="3.33562">
        <ele>154</ele>
        <time>2013-09-29T08:56:56.000Z</time>
      </trkpt>
      <trkpt lat="48.26433" lon="3.33568">
        <ele>154</ele>
        <time>2013-09-29T08:56:58.000Z</time>
      </trkpt>
      <trkpt lat="48.26433" lon="3.33572">
        <ele>154</ele>
        <time>2013-09-29T08:56:59.000Z</time>
      </trkpt>
      <trkpt lat="48.26434" lon="3.33579">
        <ele>154</ele>
        <time>2013-09-29T08:57:01.000Z</time>
      </trkpt>
      <trkpt lat="48.26436" lon="3.33583">
        <ele>154</ele>
        <time>2013-09-29T08:57:02.000Z</time>
      </trkpt>
      <trkpt lat="48.26437" lon="3.3359">
        <ele>157</ele>
        <time>2013-09-29T08:57:04.000Z</time>
      </trkpt>
      <trkpt lat="48.26438" lon="3.33594">
        <ele>157</ele>
        <time>2013-09-29T08:57:05.000Z</time>
      </trkpt>
      <trkpt lat="48.26439" lon="3.33598">
        <ele>157</ele>
        <time>2013-09-29T08:57:06.000Z</time>
      </trkpt>
      <trkpt lat="48.26439" lon="3.33602">
        <ele>157</ele>
        <time>2013-09-29T08:57:07.000Z</time>
      </trkpt>
      <trkpt lat="48.2644" lon="3.33607">
        <ele>158</ele>
        <time>2013-09-29T08:57:08.000Z</time>
      </trkpt>
      <trkpt lat="48.2644" lon="3.33611">
        <ele>158</ele>
        <time>2013-09-29T08:57:09.000Z</time>
      </trkpt>
      <trkpt lat="48.2644" lon="3.33615">
        <ele>158</ele>
        <time>2013-09-29T08:57:10.000Z</time>
      </trkpt>
      <trkpt lat="48.26441" lon="3.3362">
        <ele>158</ele>
        <time>2013-09-29T08:57:11.000Z</time>
      </trkpt>
      <trkpt lat="48.26441" lon="3.33626">
        <ele>158</ele>
        <time>2013-09-29T08:57:12.000Z</time>
      </trkpt>
      <trkpt lat="48.26441" lon="3.3363">
        <ele>159</ele>
        <time>2013-09-29T08:57:13.000Z</time>
      </trkpt>
      <trkpt lat="48.26441" lon="3.33635">
        <ele>159</ele>
        <time>2013-09-29T08:57:14.000Z</time>
      </trkpt>
      <trkpt lat="48.26441" lon="3.33639">
        <ele>159</ele>
        <time>2013-09-29T08:57:15.000Z</time>
      </trkpt>
      <trkpt lat="48.26442" lon="3.33643">
        <ele>159</ele>
        <time>2013-09-29T08:57:16.000Z</time>
      </trkpt>
      <trkpt lat="48.26442" lon="3.33647">
        <ele>159</ele>
        <time>2013-09-29T08:57:17.000Z</time>
      </trkpt>
      <trkpt lat="48.26442" lon="3.33654">
        <ele>159</ele>
        <time>2013-09-29T08:57:18.000Z</time>
      </trkpt>
      <trkpt lat="48.26442" lon="3.33658">
        <ele>159</ele>
        <time>2013-09-29T08:57:19.000Z</time>
      </trkpt>
      <trkpt lat="48.26442" lon="3.33663">
        <ele>159</ele>
        <time>2013-09-29T08:57:20.000Z</time>
      </trkpt>
      <trkpt lat="48.26442" lon="3.33667">
        <ele>161</ele>
        <time>2013-09-29T08:57:21.000Z</time>
      </trkpt>
      <trkpt lat="48.26442" lon="3.33671">
        <ele>161</ele>
        <time>2013-09-29T08:57:22.000Z</time>
      </trkpt>
      <trkpt lat="48.26441" lon="3.33675">
        <ele>162</ele>
        <time>2013-09-29T08:57:23.000Z</time>
      </trkpt>
      <trkpt lat="48.26441" lon="3.33682">
        <ele>162</ele>
        <time>2013-09-29T08:57:25.000Z</time>
      </trkpt>
      <trkpt lat="48.26441" lon="3.33686">
        <ele>162</ele>
        <time>2013-09-29T08:57:26.000Z</time>
      </trkpt>
      <trkpt lat="48.26442" lon="3.33693">
        <ele>163</ele>
        <time>2013-09-29T08:57:28.000Z</time>
      </trkpt>
      <trkpt lat="48.26442" lon="3.33697">
        <ele>163</ele>
        <time>2013-09-29T08:57:29.000Z</time>
      </trkpt>
      <trkpt lat="48.26442" lon="3.33703">
        <ele>163</ele>
        <time>2013-09-29T08:57:31.000Z</time>
      </trkpt>
      <trkpt lat="48.26442" lon="3.33708">
        <ele>164</ele>
        <time>2013-09-29T08:57:32.000Z</time>
      </trkpt>
      <trkpt lat="48.26442" lon="3.33714">
        <ele>164</ele>
        <time>2013-09-29T08:57:34.000Z</time>
      </trkpt>
      <trkpt lat="48.26443" lon="3.33716">
        <ele>164</ele>
        <time>2013-09-29T08:57:35.000Z</time>
      </trkpt>
      <trkpt lat="48.26443" lon="3.33723">
        <ele>164</ele>
        <time>2013-09-29T08:57:37.000Z</time>
      </trkpt>
      <trkpt lat="48.26443" lon="3.33727">
        <ele>164</ele>
        <time>2013-09-29T08:57:38.000Z</time>
      </trkpt>
      <trkpt lat="48.26443" lon="3.33729">
        <ele>164</ele>
        <time>2013-09-29T08:57:39.000Z</time>
      </trkpt>
      <trkpt lat="48.26444" lon="3.33733">
        <ele>164</ele>
        <time>2013-09-29T08:57:40.000Z</time>
      </trkpt>
      <trkpt lat="48.26444" lon="3.33738">
        <ele>164</ele>
        <time>2013-09-29T08:57:42.000Z</time>
      </trkpt>
      <trkpt lat="48.26445" lon="3.33742">
        <ele>164</ele>
        <time>2013-09-29T08:57:43.000Z</time>
      </trkpt>
      <trkpt lat="48.26446" lon="3.33748">
        <ele>165</ele>
        <time>2013-09-29T08:57:46.000Z</time>
      </trkpt>
      <trkpt lat="48.26446" lon="3.33753">
        <ele>169</ele>
        <time>2013-09-29T08:57:47.000Z</time>
      </trkpt>
      <trkpt lat="48.26447" lon="3.33757">
        <ele>169</ele>
        <time>2013-09-29T08:57:49.000Z</time>
      </trkpt>
      <trkpt lat="48.26447" lon="3.33761">
        <ele>169</ele>
        <time>2013-09-29T08:57:50.000Z</time>
      </trkpt>
      <trkpt lat="48.26447" lon="3.33768">
        <ele>169</ele>
        <time>2013-09-29T08:57:53.000Z</time>
      </trkpt>
      <trkpt lat="48.26447" lon="3.3377">
        <ele>170</ele>
        <time>2013-09-29T08:57:54.000Z</time>
      </trkpt>
      <trkpt lat="48.26448" lon="3.33774">
        <ele>170</ele>
        <time>2013-09-29T08:57:55.000Z</time>
      </trkpt>
      <trkpt lat="48.26448" lon="3.33776">
        <ele>170</ele>
        <time>2013-09-29T08:57:56.000Z</time>
      </trkpt>
      <trkpt lat="48.26448" lon="3.33783">
        <ele>170</ele>
        <time>2013-09-29T08:57:59.000Z</time>
      </trkpt>
      <trkpt lat="48.26448" lon="3.33787">
        <ele>171</ele>
        <time>2013-09-29T08:58:00.000Z</time>
      </trkpt>
      <trkpt lat="48.26448" lon="3.33793">
        <ele>171</ele>
        <time>2013-09-29T08:58:03.000Z</time>
      </trkpt>
      <trkpt lat="48.26448" lon="3.33798">
        <ele>171</ele>
        <time>2013-09-29T08:58:04.000Z</time>
      </trkpt>
      <trkpt lat="48.26447" lon="3.33804">
        <ele>171</ele>
        <time>2013-09-29T08:58:07.000Z</time>
      </trkpt>
      <trkpt lat="48.26447" lon="3.33808">
        <ele>172</ele>
        <time>2013-09-29T08:58:08.000Z</time>
      </trkpt>
      <trkpt lat="48.26447" lon="3.33815">
        <ele>172</ele>
        <time>2013-09-29T08:58:11.000Z</time>
      </trkpt>
      <trkpt lat="48.26447" lon="3.33817">
        <ele>172</ele>
        <time>2013-09-29T08:58:12.000Z</time>
      </trkpt>
      <trkpt lat="48.26448" lon="3.33821">
        <ele>172</ele>
        <time>2013-09-29T08:58:14.000Z</time>
      </trkpt>
      <trkpt lat="48.26448" lon="3.33826">
        <ele>172</ele>
        <time>2013-09-29T08:58:15.000Z</time>
      </trkpt>
      <trkpt lat="48.26448" lon="3.3383">
        <ele>172</ele>
        <time>2013-09-29T08:58:17.000Z</time>
      </trkpt>
      <trkpt lat="48.2645" lon="3.33832">
        <ele>172</ele>
        <time>2013-09-29T08:58:18.000Z</time>
      </trkpt>
      <trkpt lat="48.2645" lon="3.33838">
        <ele>176</ele>
        <time>2013-09-29T08:58:21.000Z</time>
      </trkpt>
      <trkpt lat="48.26451" lon="3.33843">
        <ele>176</ele>
        <time>2013-09-29T08:58:22.000Z</time>
      </trkpt>
      <trkpt lat="48.26452" lon="3.33849">
        <ele>177</ele>
        <time>2013-09-29T08:58:25.000Z</time>
      </trkpt>
      <trkpt lat="48.26452" lon="3.33851">
        <ele>177</ele>
        <time>2013-09-29T08:58:26.000Z</time>
      </trkpt>
      <trkpt lat="48.26453" lon="3.33858">
        <ele>177</ele>
        <time>2013-09-29T08:58:29.000Z</time>
      </trkpt>
      <trkpt lat="48.26454" lon="3.3386">
        <ele>177</ele>
        <time>2013-09-29T08:58:30.000Z</time>
      </trkpt>
      <trkpt lat="48.26455" lon="3.33866">
        <ele>177</ele>
        <time>2013-09-29T08:58:33.000Z</time>
      </trkpt>
      <trkpt lat="48.26455" lon="3.33871">
        <ele>177</ele>
        <time>2013-09-29T08:58:34.000Z</time>
      </trkpt>
      <trkpt lat="48.26456" lon="3.33877">
        <ele>178</ele>
        <time>2013-09-29T08:58:37.000Z</time>
      </trkpt>
      <trkpt lat="48.26457" lon="3.33879">
        <ele>178</ele>
        <time>2013-09-29T08:58:38.000Z</time>
      </trkpt>
      <trkpt lat="48.26458" lon="3.33886">
        <ele>178</ele>
        <time>2013-09-29T08:58:41.000Z</time>
      </trkpt>
      <trkpt lat="48.26459" lon="3.33888">
        <ele>178</ele>
        <time>2013-09-29T08:58:42.000Z</time>
      </trkpt>
      <trkpt lat="48.2646" lon="3.33894">
        <ele>178</ele>
        <time>2013-09-29T08:58:45.000Z</time>
      </trkpt>
      <trkpt lat="48.26461" lon="3.33896">
        <ele>178</ele>
        <time>2013-09-29T08:58:46.000Z</time>
      </trkpt>
      <trkpt lat="48.26462" lon="3.33901">
        <ele>179</ele>
        <time>2013-09-29T08:58:48.000Z</time>
      </trkpt>
      <trkpt lat="48.26462" lon="3.33903">
        <ele>179</ele>
        <time>2013-09-29T08:58:49.000Z</time>
      </trkpt>
      <trkpt lat="48.26463" lon="3.33907">
        <ele>179</ele>
        <time>2013-09-29T08:58:51.000Z</time>
      </trkpt>
      <trkpt lat="48.26465" lon="3.33909">
        <ele>179</ele>
        <time>2013-09-29T08:58:52.000Z</time>
      </trkpt>
      <trkpt lat="48.26467" lon="3.33914">
        <ele>179</ele>
        <time>2013-09-29T08:58:55.000Z</time>
      </trkpt>
      <trkpt lat="48.26468" lon="3.33916">
        <ele>179</ele>
        <time>2013-09-29T08:58:56.000Z</time>
      </trkpt>
      <trkpt lat="48.26469" lon="3.33922">
        <ele>181</ele>
        <time>2013-09-29T08:58:59.000Z</time>
      </trkpt>
      <trkpt lat="48.2647" lon="3.33924">
        <ele>181</ele>
        <time>2013-09-29T08:59:00.000Z</time>
      </trkpt>
      <trkpt lat="48.26472" lon="3.33929">
        <ele>181</ele>
        <time>2013-09-29T08:59:03.000Z</time>
      </trkpt>
      <trkpt lat="48.26472" lon="3.33931">
        <ele>181</ele>
        <time>2013-09-29T08:59:04.000Z</time>
      </trkpt>
      <trkpt lat="48.26473" lon="3.33935">
        <ele>181</ele>
        <time>2013-09-29T08:59:06.000Z</time>
      </trkpt>
      <trkpt lat="48.26474" lon="3.33937">
        <ele>182</ele>
        <time>2013-09-29T08:59:07.000Z</time>
      </trkpt>
      <trkpt lat="48.26476" lon="3.33941">
        <ele>182</ele>
        <time>2013-09-29T08:59:10.000Z</time>
      </trkpt>
      <trkpt lat="48.26476" lon="3.33944">
        <ele>182</ele>
        <time>2013-09-29T08:59:11.000Z</time>
      </trkpt>
      <trkpt lat="48.26478" lon="3.33948">
        <ele>182</ele>
        <time>2013-09-29T08:59:15.000Z</time>
      </trkpt>
      <trkpt lat="48.2648" lon="3.3395">
        <ele>182</ele>
        <time>2013-09-29T08:59:16.000Z</time>
      </trkpt>
      <trkpt lat="48.26481" lon="3.33956">
        <ele>182</ele>
        <time>2013-09-29T08:59:20.000Z</time>
      </trkpt>
      <trkpt lat="48.26481" lon="3.33959">
        <ele>182</ele>
        <time>2013-09-29T08:59:21.000Z</time>
      </trkpt>
      <trkpt lat="48.26481" lon="3.33965">
        <ele>182</ele>
        <time>2013-09-29T08:59:26.000Z</time>
      </trkpt>
      <trkpt lat="48.26481" lon="3.33967">
        <ele>182</ele>
        <time>2013-09-29T08:59:27.000Z</time>
      </trkpt>
      <trkpt lat="48.26481" lon="3.33974">
        <ele>182</ele>
        <time>2013-09-29T08:59:31.000Z</time>
      </trkpt>
      <trkpt lat="48.2648" lon="3.33976">
        <ele>182</ele>
        <time>2013-09-29T08:59:32.000Z</time>
      </trkpt>
      <trkpt lat="48.2648" lon="3.33982">
        <ele>182</ele>
        <time>2013-09-29T08:59:35.000Z</time>
      </trkpt>
      <trkpt lat="48.26478" lon="3.33984">
        <ele>182</ele>
        <time>2013-09-29T08:59:36.000Z</time>
      </trkpt>
      <trkpt lat="48.26477" lon="3.33991">
        <ele>182</ele>
        <time>2013-09-29T08:59:40.000Z</time>
      </trkpt>
      <trkpt lat="48.26477" lon="3.33993">
        <ele>182</ele>
        <time>2013-09-29T08:59:41.000Z</time>
      </trkpt>
      <trkpt lat="48.26476" lon="3.33999">
        <ele>182</ele>
        <time>2013-09-29T08:59:44.000Z</time>
      </trkpt>
      <trkpt lat="48.26476" lon="3.34002">
        <ele>183</ele>
        <time>2013-09-29T08:59:45.000Z</time>
      </trkpt>
      <trkpt lat="48.26475" lon="3.34008">
        <ele>183</ele>
        <time>2013-09-29T08:59:48.000Z</time>
      </trkpt>
      <trkpt lat="48.26475" lon="3.3401">
        <ele>183</ele>
        <time>2013-09-29T08:59:49.000Z</time>
      </trkpt>
      <trkpt lat="48.26474" lon="3.34017">
        <ele>183</ele>
        <time>2013-09-29T08:59:53.000Z</time>
      </trkpt>
      <trkpt lat="48.26474" lon="3.34019">
        <ele>183</ele>
        <time>2013-09-29T08:59:54.000Z</time>
      </trkpt>
      <trkpt lat="48.26475" lon="3.34025">
        <ele>183</ele>
        <time>2013-09-29T08:59:57.000Z</time>
      </trkpt>
      <trkpt lat="48.26475" lon="3.34027">
        <ele>183</ele>
        <time>2013-09-29T08:59:58.000Z</time>
      </trkpt>
      <trkpt lat="48.26477" lon="3.34032">
        <ele>183</ele>
        <time>2013-09-29T09:00:01.000Z</time>
      </trkpt>
      <trkpt lat="48.26478" lon="3.34034">
        <ele>183</ele>
        <time>2013-09-29T09:00:02.000Z</time>
      </trkpt>
      <trkpt lat="48.26481" lon="3.34038">
        <ele>183</ele>
        <time>2013-09-29T09:00:04.000Z</time>
      </trkpt>
      <trkpt lat="48.26482" lon="3.3404">
        <ele>183</ele>
        <time>2013-09-29T09:00:05.000Z</time>
      </trkpt>
      <trkpt lat="48.26484" lon="3.34044">
        <ele>183</ele>
        <time>2013-09-29T09:00:07.000Z</time>
      </trkpt>
      <trkpt lat="48.26485" lon="3.34047">
        <ele>183</ele>
        <time>2013-09-29T09:00:08.000Z</time>
      </trkpt>
      <trkpt lat="48.26487" lon="3.34051">
        <ele>183</ele>
        <time>2013-09-29T09:00:10.000Z</time>
      </trkpt>
      <trkpt lat="48.26488" lon="3.34053">
        <ele>183</ele>
        <time>2013-09-29T09:00:11.000Z</time>
      </trkpt>
      <trkpt lat="48.26491" lon="3.34057">
        <ele>183</ele>
        <time>2013-09-29T09:00:14.000Z</time>
      </trkpt>
      <trkpt lat="48.26492" lon="3.34059">
        <ele>183</ele>
        <time>2013-09-29T09:00:15.000Z</time>
      </trkpt>
      <trkpt lat="48.26496" lon="3.34064">
        <ele>183</ele>
        <time>2013-09-29T09:00:18.000Z</time>
      </trkpt>
      <trkpt lat="48.26497" lon="3.34066">
        <ele>183</ele>
        <time>2013-09-29T09:00:19.000Z</time>
      </trkpt>
      <trkpt lat="48.265" lon="3.34068">
        <ele>183</ele>
        <time>2013-09-29T09:00:21.000Z</time>
      </trkpt>
      <trkpt lat="48.26501" lon="3.34068">
        <ele>185</ele>
        <time>2013-09-29T09:00:22.000Z</time>
      </trkpt>
      <trkpt lat="48.26504" lon="3.3407">
        <ele>185</ele>
        <time>2013-09-29T09:00:24.000Z</time>
      </trkpt>
      <trkpt lat="48.26506" lon="3.3407">
        <ele>185</ele>
        <time>2013-09-29T09:00:25.000Z</time>
      </trkpt>
      <trkpt lat="48.2651" lon="3.3407">
        <ele>185</ele>
        <time>2013-09-29T09:00:27.000Z</time>
      </trkpt>
      <trkpt lat="48.26512" lon="3.34072">
        <ele>185</ele>
        <time>2013-09-29T09:00:28.000Z</time>
      </trkpt>
      <trkpt lat="48.26516" lon="3.34072">
        <ele>185</ele>
        <time>2013-09-29T09:00:30.000Z</time>
      </trkpt>
      <trkpt lat="48.26517" lon="3.34072">
        <ele>186</ele>
        <time>2013-09-29T09:00:31.000Z</time>
      </trkpt>
      <trkpt lat="48.26521" lon="3.34072">
        <ele>186</ele>
        <time>2013-09-29T09:00:33.000Z</time>
      </trkpt>
      <trkpt lat="48.26524" lon="3.34072">
        <ele>186</ele>
        <time>2013-09-29T09:00:34.000Z</time>
      </trkpt>
      <trkpt lat="48.26527" lon="3.3407">
        <ele>186</ele>
        <time>2013-09-29T09:00:36.000Z</time>
      </trkpt>
      <trkpt lat="48.26529" lon="3.3407">
        <ele>186</ele>
        <time>2013-09-29T09:00:37.000Z</time>
      </trkpt>
      <trkpt lat="48.26531" lon="3.34068">
        <ele>187</ele>
        <time>2013-09-29T09:00:38.000Z</time>
      </trkpt>
      <trkpt lat="48.26533" lon="3.34068">
        <ele>187</ele>
        <time>2013-09-29T09:00:39.000Z</time>
      </trkpt>
      <trkpt lat="48.26536" lon="3.34066">
        <ele>187</ele>
        <time>2013-09-29T09:00:41.000Z</time>
      </trkpt>
      <trkpt lat="48.26539" lon="3.34064">
        <ele>187</ele>
        <time>2013-09-29T09:00:42.000Z</time>
      </trkpt>
      <trkpt lat="48.26542" lon="3.34062">
        <ele>187</ele>
        <time>2013-09-29T09:00:44.000Z</time>
      </trkpt>
      <trkpt lat="48.26544" lon="3.34059">
        <ele>187</ele>
        <time>2013-09-29T09:00:45.000Z</time>
      </trkpt>
      <trkpt lat="48.26547" lon="3.34057">
        <ele>188</ele>
        <time>2013-09-29T09:00:47.000Z</time>
      </trkpt>
      <trkpt lat="48.26549" lon="3.34055">
        <ele>188</ele>
        <time>2013-09-29T09:00:48.000Z</time>
      </trkpt>
      <trkpt lat="48.26553" lon="3.34053">
        <ele>188</ele>
        <time>2013-09-29T09:00:50.000Z</time>
      </trkpt>
      <trkpt lat="48.26555" lon="3.34051">
        <ele>188</ele>
        <time>2013-09-29T09:00:51.000Z</time>
      </trkpt>
      <trkpt lat="48.26558" lon="3.34047">
        <ele>188</ele>
        <time>2013-09-29T09:00:53.000Z</time>
      </trkpt>
      <trkpt lat="48.2656" lon="3.34047">
        <ele>188</ele>
        <time>2013-09-29T09:00:54.000Z</time>
      </trkpt>
      <trkpt lat="48.26563" lon="3.34042">
        <ele>188</ele>
        <time>2013-09-29T09:00:56.000Z</time>
      </trkpt>
      <trkpt lat="48.26564" lon="3.34042">
        <ele>188</ele>
        <time>2013-09-29T09:00:57.000Z</time>
      </trkpt>
      <trkpt lat="48.26568" lon="3.34038">
        <ele>189</ele>
        <time>2013-09-29T09:00:59.000Z</time>
      </trkpt>
      <trkpt lat="48.2657" lon="3.34038">
        <ele>189</ele>
        <time>2013-09-29T09:01:00.000Z</time>
      </trkpt>
      <trkpt lat="48.26573" lon="3.34034">
        <ele>189</ele>
        <time>2013-09-29T09:01:02.000Z</time>
      </trkpt>
      <trkpt lat="48.26574" lon="3.34034">
        <ele>189</ele>
        <time>2013-09-29T09:01:03.000Z</time>
      </trkpt>
      <trkpt lat="48.26577" lon="3.34029">
        <ele>189</ele>
        <time>2013-09-29T09:01:05.000Z</time>
      </trkpt>
      <trkpt lat="48.26579" lon="3.34029">
        <ele>189</ele>
        <time>2013-09-29T09:01:06.000Z</time>
      </trkpt>
      <trkpt lat="48.26583" lon="3.34027">
        <ele>190</ele>
        <time>2013-09-29T09:01:08.000Z</time>
      </trkpt>
      <trkpt lat="48.26584" lon="3.34025">
        <ele>193</ele>
        <time>2013-09-29T09:01:09.000Z</time>
      </trkpt>
      <trkpt lat="48.26587" lon="3.34023">
        <ele>193</ele>
        <time>2013-09-29T09:01:11.000Z</time>
      </trkpt>
      <trkpt lat="48.26589" lon="3.34021">
        <ele>193</ele>
        <time>2013-09-29T09:01:12.000Z</time>
      </trkpt>
      <trkpt lat="48.26592" lon="3.34019">
        <ele>193</ele>
        <time>2013-09-29T09:01:14.000Z</time>
      </trkpt>
      <trkpt lat="48.26593" lon="3.34019">
        <ele>193</ele>
        <time>2013-09-29T09:01:15.000Z</time>
      </trkpt>
      <trkpt lat="48.26596" lon="3.34014">
        <ele>193</ele>
        <time>2013-09-29T09:01:17.000Z</time>
      </trkpt>
      <trkpt lat="48.26598" lon="3.34014">
        <ele>193</ele>
        <time>2013-09-29T09:01:18.000Z</time>
      </trkpt>
      <trkpt lat="48.266" lon="3.3401">
        <ele>193</ele>
        <time>2013-09-29T09:01:20.000Z</time>
      </trkpt>
      <trkpt lat="48.26602" lon="3.3401">
        <ele>193</ele>
        <time>2013-09-29T09:01:21.000Z</time>
      </trkpt>
      <trkpt lat="48.26604" lon="3.34006">
        <ele>193</ele>
        <time>2013-09-29T09:01:23.000Z</time>
      </trkpt>
      <trkpt lat="48.26605" lon="3.34004">
        <ele>193</ele>
        <time>2013-09-29T09:01:24.000Z</time>
      </trkpt>
      <trkpt lat="48.26608" lon="3.34002">
        <ele>194</ele>
        <time>2013-09-29T09:01:26.000Z</time>
      </trkpt>
      <trkpt lat="48.26609" lon="3.33999">
        <ele>195</ele>
        <time>2013-09-29T09:01:27.000Z</time>
      </trkpt>
      <trkpt lat="48.26613" lon="3.33997">
        <ele>195</ele>
        <time>2013-09-29T09:01:29.000Z</time>
      </trkpt>
      <trkpt lat="48.26614" lon="3.33997">
        <ele>195</ele>
        <time>2013-09-29T09:01:30.000Z</time>
      </trkpt>
      <trkpt lat="48.26617" lon="3.33995">
        <ele>195</ele>
        <time>2013-09-29T09:01:32.000Z</time>
      </trkpt>
      <trkpt lat="48.26618" lon="3.33995">
        <ele>195</ele>
        <time>2013-09-29T09:01:33.000Z</time>
      </trkpt>
      <trkpt lat="48.26621" lon="3.33993">
        <ele>196</ele>
        <time>2013-09-29T09:01:35.000Z</time>
      </trkpt>
      <trkpt lat="48.26622" lon="3.33991">
        <ele>196</ele>
        <time>2013-09-29T09:01:36.000Z</time>
      </trkpt>
      <trkpt lat="48.26625" lon="3.33989">
        <ele>196</ele>
        <time>2013-09-29T09:01:38.000Z</time>
      </trkpt>
      <trkpt lat="48.26627" lon="3.33989">
        <ele>196</ele>
        <time>2013-09-29T09:01:39.000Z</time>
      </trkpt>
      <trkpt lat="48.2663" lon="3.33987">
        <ele>196</ele>
        <time>2013-09-29T09:01:41.000Z</time>
      </trkpt>
      <trkpt lat="48.26632" lon="3.33987">
        <ele>196</ele>
        <time>2013-09-29T09:01:42.000Z</time>
      </trkpt>
      <trkpt lat="48.26635" lon="3.33984">
        <ele>196</ele>
        <time>2013-09-29T09:01:44.000Z</time>
      </trkpt>
      <trkpt lat="48.26636" lon="3.33982">
        <ele>196</ele>
        <time>2013-09-29T09:01:45.000Z</time>
      </trkpt>
      <trkpt lat="48.26639" lon="3.33982">
        <ele>196</ele>
        <time>2013-09-29T09:01:47.000Z</time>
      </trkpt>
      <trkpt lat="48.26642" lon="3.3398">
        <ele>196</ele>
        <time>2013-09-29T09:01:48.000Z</time>
      </trkpt>
      <trkpt lat="48.26645" lon="3.33978">
        <ele>196</ele>
        <time>2013-09-29T09:01:50.000Z</time>
      </trkpt>
      <trkpt lat="48.26646" lon="3.33978">
        <ele>196</ele>
        <time>2013-09-29T09:01:51.000Z</time>
      </trkpt>
      <trkpt lat="48.26649" lon="3.33974">
        <ele>197</ele>
        <time>2013-09-29T09:01:53.000Z</time>
      </trkpt>
      <trkpt lat="48.26651" lon="3.33974">
        <ele>197</ele>
        <time>2013-09-29T09:01:54.000Z</time>
      </trkpt>
      <trkpt lat="48.26654" lon="3.33972">
        <ele>197</ele>
        <time>2013-09-29T09:01:56.000Z</time>
      </trkpt>
      <trkpt lat="48.26657" lon="3.33969">
        <ele>197</ele>
        <time>2013-09-29T09:01:57.000Z</time>
      </trkpt>
      <trkpt lat="48.2666" lon="3.33967">
        <ele>197</ele>
        <time>2013-09-29T09:01:59.000Z</time>
      </trkpt>
      <trkpt lat="48.26661" lon="3.33965">
        <ele>197</ele>
        <time>2013-09-29T09:02:00.000Z</time>
      </trkpt>
      <trkpt lat="48.26663" lon="3.33965">
        <ele>197</ele>
        <time>2013-09-29T09:02:01.000Z</time>
      </trkpt>
      <trkpt lat="48.26665" lon="3.33963">
        <ele>197</ele>
        <time>2013-09-29T09:02:02.000Z</time>
      </trkpt>
      <trkpt lat="48.26668" lon="3.33961">
        <ele>199</ele>
        <time>2013-09-29T09:02:04.000Z</time>
      </trkpt>
      <trkpt lat="48.26669" lon="3.33959">
        <ele>199</ele>
        <time>2013-09-29T09:02:05.000Z</time>
      </trkpt>
      <trkpt lat="48.26672" lon="3.33959">
        <ele>199</ele>
        <time>2013-09-29T09:02:06.000Z</time>
      </trkpt>
      <trkpt lat="48.26674" lon="3.33956">
        <ele>199</ele>
        <time>2013-09-29T09:02:07.000Z</time>
      </trkpt>
      <trkpt lat="48.26677" lon="3.33954">
        <ele>199</ele>
        <time>2013-09-29T09:02:09.000Z</time>
      </trkpt>
      <trkpt lat="48.26679" lon="3.33952">
        <ele>199</ele>
        <time>2013-09-29T09:02:10.000Z</time>
      </trkpt>
      <trkpt lat="48.26682" lon="3.3395">
        <ele>199</ele>
        <time>2013-09-29T09:02:12.000Z</time>
      </trkpt>
      <trkpt lat="48.26683" lon="3.3395">
        <ele>199</ele>
        <time>2013-09-29T09:02:13.000Z</time>
      </trkpt>
      <trkpt lat="48.26686" lon="3.33948">
        <ele>199</ele>
        <time>2013-09-29T09:02:14.000Z</time>
      </trkpt>
      <trkpt lat="48.26688" lon="3.33948">
        <ele>199</ele>
        <time>2013-09-29T09:02:15.000Z</time>
      </trkpt>
      <trkpt lat="48.2669" lon="3.33946">
        <ele>199</ele>
        <time>2013-09-29T09:02:16.000Z</time>
      </trkpt>
      <trkpt lat="48.26692" lon="3.33946">
        <ele>199</ele>
        <time>2013-09-29T09:02:17.000Z</time>
      </trkpt>
      <trkpt lat="48.26694" lon="3.33944">
        <ele>199</ele>
        <time>2013-09-29T09:02:18.000Z</time>
      </trkpt>
      <trkpt lat="48.26697" lon="3.33944">
        <ele>199</ele>
        <time>2013-09-29T09:02:19.000Z</time>
      </trkpt>
      <trkpt lat="48.26701" lon="3.33941">
        <ele>199</ele>
        <time>2013-09-29T09:02:20.000Z</time>
      </trkpt>
      <trkpt lat="48.26704" lon="3.33941">
        <ele>199</ele>
        <time>2013-09-29T09:02:21.000Z</time>
      </trkpt>
      <trkpt lat="48.26707" lon="3.33939">
        <ele>199</ele>
        <time>2013-09-29T09:02:22.000Z</time>
      </trkpt>
      <trkpt lat="48.26711" lon="3.33939">
        <ele>199</ele>
        <time>2013-09-29T09:02:23.000Z</time>
      </trkpt>
      <trkpt lat="48.26715" lon="3.33937">
        <ele>199</ele>
        <time>2013-09-29T09:02:24.000Z</time>
      </trkpt>
      <trkpt lat="48.26718" lon="3.33937">
        <ele>199</ele>
        <time>2013-09-29T09:02:25.000Z</time>
      </trkpt>
      <trkpt lat="48.26721" lon="3.33935">
        <ele>199</ele>
        <time>2013-09-29T09:02:26.000Z</time>
      </trkpt>
      <trkpt lat="48.26724" lon="3.33933">
        <ele>199</ele>
        <time>2013-09-29T09:02:27.000Z</time>
      </trkpt>
      <trkpt lat="48.26727" lon="3.33933">
        <ele>199</ele>
        <time>2013-09-29T09:02:28.000Z</time>
      </trkpt>
      <trkpt lat="48.26731" lon="3.33931">
        <ele>199</ele>
        <time>2013-09-29T09:02:29.000Z</time>
      </trkpt>
      <trkpt lat="48.26734" lon="3.33929">
        <ele>199</ele>
        <time>2013-09-29T09:02:30.000Z</time>
      </trkpt>
      <trkpt lat="48.26736" lon="3.33926">
        <ele>199</ele>
        <time>2013-09-29T09:02:31.000Z</time>
      </trkpt>
      <trkpt lat="48.26739" lon="3.33926">
        <ele>199</ele>
        <time>2013-09-29T09:02:32.000Z</time>
      </trkpt>
      <trkpt lat="48.26741" lon="3.33924">
        <ele>200</ele>
        <time>2013-09-29T09:02:33.000Z</time>
      </trkpt>
      <trkpt lat="48.26745" lon="3.33922">
        <ele>200</ele>
        <time>2013-09-29T09:02:34.000Z</time>
      </trkpt>
      <trkpt lat="48.26747" lon="3.33922">
        <ele>200</ele>
        <time>2013-09-29T09:02:35.000Z</time>
      </trkpt>
      <trkpt lat="48.2675" lon="3.3392">
        <ele>200</ele>
        <time>2013-09-29T09:02:36.000Z</time>
      </trkpt>
      <trkpt lat="48.26753" lon="3.33918">
        <ele>200</ele>
        <time>2013-09-29T09:02:37.000Z</time>
      </trkpt>
      <trkpt lat="48.26755" lon="3.33918">
        <ele>199</ele>
        <time>2013-09-29T09:02:38.000Z</time>
      </trkpt>
      <trkpt lat="48.26757" lon="3.33916">
        <ele>199</ele>
        <time>2013-09-29T09:02:39.000Z</time>
      </trkpt>
      <trkpt lat="48.26761" lon="3.33914">
        <ele>199</ele>
        <time>2013-09-29T09:02:40.000Z</time>
      </trkpt>
      <trkpt lat="48.26763" lon="3.33911">
        <ele>199</ele>
        <time>2013-09-29T09:02:41.000Z</time>
      </trkpt>
      <trkpt lat="48.26766" lon="3.33911">
        <ele>199</ele>
        <time>2013-09-29T09:02:42.000Z</time>
      </trkpt>
      <trkpt lat="48.26768" lon="3.33909">
        <ele>199</ele>
        <time>2013-09-29T09:02:43.000Z</time>
      </trkpt>
      <trkpt lat="48.26771" lon="3.33907">
        <ele>199</ele>
        <time>2013-09-29T09:02:44.000Z</time>
      </trkpt>
      <trkpt lat="48.26775" lon="3.33905">
        <ele>198</ele>
        <time>2013-09-29T09:02:45.000Z</time>
      </trkpt>
      <trkpt lat="48.26778" lon="3.33903">
        <ele>198</ele>
        <time>2013-09-29T09:02:46.000Z</time>
      </trkpt>
      <trkpt lat="48.2678" lon="3.33901">
        <ele>198</ele>
        <time>2013-09-29T09:02:47.000Z</time>
      </trkpt>
      <trkpt lat="48.26783" lon="3.33899">
        <ele>198</ele>
        <time>2013-09-29T09:02:48.000Z</time>
      </trkpt>
      <trkpt lat="48.26786" lon="3.33899">
        <ele>198</ele>
        <time>2013-09-29T09:02:49.000Z</time>
      </trkpt>
      <trkpt lat="48.2679" lon="3.33896">
        <ele>198</ele>
        <time>2013-09-29T09:02:50.000Z</time>
      </trkpt>
      <trkpt lat="48.26793" lon="3.33894">
        <ele>198</ele>
        <time>2013-09-29T09:02:51.000Z</time>
      </trkpt>
      <trkpt lat="48.26795" lon="3.33892">
        <ele>198</ele>
        <time>2013-09-29T09:02:52.000Z</time>
      </trkpt>
      <trkpt lat="48.26798" lon="3.3389">
        <ele>198</ele>
        <time>2013-09-29T09:02:53.000Z</time>
      </trkpt>
      <trkpt lat="48.26801" lon="3.33888">
        <ele>197</ele>
        <time>2013-09-29T09:02:54.000Z</time>
      </trkpt>
      <trkpt lat="48.26805" lon="3.33886">
        <ele>197</ele>
        <time>2013-09-29T09:02:55.000Z</time>
      </trkpt>
      <trkpt lat="48.26807" lon="3.33884">
        <ele>197</ele>
        <time>2013-09-29T09:02:56.000Z</time>
      </trkpt>
      <trkpt lat="48.2681" lon="3.33881">
        <ele>197</ele>
        <time>2013-09-29T09:02:57.000Z</time>
      </trkpt>
      <trkpt lat="48.26813" lon="3.33879">
        <ele>197</ele>
        <time>2013-09-29T09:02:58.000Z</time>
      </trkpt>
      <trkpt lat="48.26815" lon="3.33877">
        <ele>197</ele>
        <time>2013-09-29T09:02:59.000Z</time>
      </trkpt>
      <trkpt lat="48.26819" lon="3.33875">
        <ele>197</ele>
        <time>2013-09-29T09:03:00.000Z</time>
      </trkpt>
      <trkpt lat="48.26822" lon="3.33873">
        <ele>197</ele>
        <time>2013-09-29T09:03:01.000Z</time>
      </trkpt>
      <trkpt lat="48.26825" lon="3.33871">
        <ele>197</ele>
        <time>2013-09-29T09:03:02.000Z</time>
      </trkpt>
      <trkpt lat="48.26828" lon="3.33871">
        <ele>197</ele>
        <time>2013-09-29T09:03:03.000Z</time>
      </trkpt>
      <trkpt lat="48.26831" lon="3.33871">
        <ele>197</ele>
        <time>2013-09-29T09:03:04.000Z</time>
      </trkpt>
      <trkpt lat="48.26835" lon="3.33869">
        <ele>194</ele>
        <time>2013-09-29T09:03:05.000Z</time>
      </trkpt>
      <trkpt lat="48.26838" lon="3.33869">
        <ele>194</ele>
        <time>2013-09-29T09:03:06.000Z</time>
      </trkpt>
      <trkpt lat="48.26842" lon="3.33866">
        <ele>194</ele>
        <time>2013-09-29T09:03:07.000Z</time>
      </trkpt>
      <trkpt lat="48.26844" lon="3.33864">
        <ele>194</ele>
        <time>2013-09-29T09:03:08.000Z</time>
      </trkpt>
      <trkpt lat="48.26848" lon="3.33864">
        <ele>194</ele>
        <time>2013-09-29T09:03:09.000Z</time>
      </trkpt>
      <trkpt lat="48.26851" lon="3.33862">
        <ele>194</ele>
        <time>2013-09-29T09:03:10.000Z</time>
      </trkpt>
      <trkpt lat="48.26854" lon="3.3386">
        <ele>194</ele>
        <time>2013-09-29T09:03:11.000Z</time>
      </trkpt>
      <trkpt lat="48.26857" lon="3.33856">
        <ele>194</ele>
        <time>2013-09-29T09:03:12.000Z</time>
      </trkpt>
      <trkpt lat="48.26859" lon="3.33853">
        <ele>194</ele>
        <time>2013-09-29T09:03:13.000Z</time>
      </trkpt>
      <trkpt lat="48.26863" lon="3.33851">
        <ele>194</ele>
        <time>2013-09-29T09:03:14.000Z</time>
      </trkpt>
      <trkpt lat="48.26866" lon="3.33847">
        <ele>193</ele>
        <time>2013-09-29T09:03:15.000Z</time>
      </trkpt>
      <trkpt lat="48.26868" lon="3.33845">
        <ele>193</ele>
        <time>2013-09-29T09:03:16.000Z</time>
      </trkpt>
      <trkpt lat="48.26871" lon="3.33843">
        <ele>193</ele>
        <time>2013-09-29T09:03:17.000Z</time>
      </trkpt>
      <trkpt lat="48.26874" lon="3.33838">
        <ele>193</ele>
        <time>2013-09-29T09:03:18.000Z</time>
      </trkpt>
      <trkpt lat="48.26877" lon="3.33836">
        <ele>193</ele>
        <time>2013-09-29T09:03:19.000Z</time>
      </trkpt>
      <trkpt lat="48.2688" lon="3.33832">
        <ele>195</ele>
        <time>2013-09-29T09:03:20.000Z</time>
      </trkpt>
      <trkpt lat="48.26883" lon="3.33828">
        <ele>195</ele>
        <time>2013-09-29T09:03:21.000Z</time>
      </trkpt>
      <trkpt lat="48.26886" lon="3.33826">
        <ele>194</ele>
        <time>2013-09-29T09:03:22.000Z</time>
      </trkpt>
      <trkpt lat="48.26889" lon="3.33821">
        <ele>194</ele>
        <time>2013-09-29T09:03:23.000Z</time>
      </trkpt>
      <trkpt lat="48.26892" lon="3.33817">
        <ele>194</ele>
        <time>2013-09-29T09:03:24.000Z</time>
      </trkpt>
      <trkpt lat="48.26895" lon="3.33813">
        <ele>194</ele>
        <time>2013-09-29T09:03:25.000Z</time>
      </trkpt>
      <trkpt lat="48.26898" lon="3.33808">
        <ele>194</ele>
        <time>2013-09-29T09:03:26.000Z</time>
      </trkpt>
      <trkpt lat="48.26901" lon="3.33804">
        <ele>194</ele>
        <time>2013-09-29T09:03:27.000Z</time>
      </trkpt>
      <trkpt lat="48.26904" lon="3.338">
        <ele>194</ele>
        <time>2013-09-29T09:03:28.000Z</time>
      </trkpt>
      <trkpt lat="48.26908" lon="3.33798">
        <ele>194</ele>
        <time>2013-09-29T09:03:29.000Z</time>
      </trkpt>
      <trkpt lat="48.26911" lon="3.33793">
        <ele>195</ele>
        <time>2013-09-29T09:03:30.000Z</time>
      </trkpt>
      <trkpt lat="48.26914" lon="3.33789">
        <ele>195</ele>
        <time>2013-09-29T09:03:31.000Z</time>
      </trkpt>
      <trkpt lat="48.26916" lon="3.33785">
        <ele>195</ele>
        <time>2013-09-29T09:03:32.000Z</time>
      </trkpt>
      <trkpt lat="48.26919" lon="3.33778">
        <ele>192</ele>
        <time>2013-09-29T09:03:33.000Z</time>
      </trkpt>
      <trkpt lat="48.26923" lon="3.33774">
        <ele>192</ele>
        <time>2013-09-29T09:03:34.000Z</time>
      </trkpt>
      <trkpt lat="48.26926" lon="3.3377">
        <ele>192</ele>
        <time>2013-09-29T09:03:35.000Z</time>
      </trkpt>
      <trkpt lat="48.26929" lon="3.33766">
        <ele>192</ele>
        <time>2013-09-29T09:03:36.000Z</time>
      </trkpt>
      <trkpt lat="48.26932" lon="3.33761">
        <ele>192</ele>
        <time>2013-09-29T09:03:37.000Z</time>
      </trkpt>
      <trkpt lat="48.26934" lon="3.33757">
        <ele>192</ele>
        <time>2013-09-29T09:03:38.000Z</time>
      </trkpt>
      <trkpt lat="48.26938" lon="3.3375">
        <ele>192</ele>
        <time>2013-09-29T09:03:39.000Z</time>
      </trkpt>
      <trkpt lat="48.2694" lon="3.33746">
        <ele>193</ele>
        <time>2013-09-29T09:03:40.000Z</time>
      </trkpt>
      <trkpt lat="48.26942" lon="3.3374">
        <ele>193</ele>
        <time>2013-09-29T09:03:41.000Z</time>
      </trkpt>
      <trkpt lat="48.26945" lon="3.33733">
        <ele>193</ele>
        <time>2013-09-29T09:03:42.000Z</time>
      </trkpt>
      <trkpt lat="48.26947" lon="3.33727">
        <ele>192</ele>
        <time>2013-09-29T09:03:43.000Z</time>
      </trkpt>
      <trkpt lat="48.26949" lon="3.33723">
        <ele>192</ele>
        <time>2013-09-29T09:03:44.000Z</time>
      </trkpt>
      <trkpt lat="48.26952" lon="3.33716">
        <ele>192</ele>
        <time>2013-09-29T09:03:45.000Z</time>
      </trkpt>
      <trkpt lat="48.26954" lon="3.3371">
        <ele>192</ele>
        <time>2013-09-29T09:03:46.000Z</time>
      </trkpt>
      <trkpt lat="48.26955" lon="3.33703">
        <ele>192</ele>
        <time>2013-09-29T09:03:47.000Z</time>
      </trkpt>
      <trkpt lat="48.26955" lon="3.33697">
        <ele>192</ele>
        <time>2013-09-29T09:03:48.000Z</time>
      </trkpt>
      <trkpt lat="48.26956" lon="3.33688">
        <ele>192</ele>
        <time>2013-09-29T09:03:49.000Z</time>
      </trkpt>
      <trkpt lat="48.26956" lon="3.33682">
        <ele>192</ele>
        <time>2013-09-29T09:03:50.000Z</time>
      </trkpt>
      <trkpt lat="48.26957" lon="3.33673">
        <ele>192</ele>
        <time>2013-09-29T09:03:51.000Z</time>
      </trkpt>
      <trkpt lat="48.26957" lon="3.33667">
        <ele>192</ele>
        <time>2013-09-29T09:03:52.000Z</time>
      </trkpt>
      <trkpt lat="48.26957" lon="3.3366">
        <ele>193</ele>
        <time>2013-09-29T09:03:53.000Z</time>
      </trkpt>
      <trkpt lat="48.26958" lon="3.33652">
        <ele>193</ele>
        <time>2013-09-29T09:03:54.000Z</time>
      </trkpt>
      <trkpt lat="48.26959" lon="3.33645">
        <ele>193</ele>
        <time>2013-09-29T09:03:55.000Z</time>
      </trkpt>
      <trkpt lat="48.2696" lon="3.33641">
        <ele>193</ele>
        <time>2013-09-29T09:03:56.000Z</time>
      </trkpt>
      <trkpt lat="48.26962" lon="3.33635">
        <ele>193</ele>
        <time>2013-09-29T09:03:57.000Z</time>
      </trkpt>
      <trkpt lat="48.26963" lon="3.33628">
        <ele>193</ele>
        <time>2013-09-29T09:03:58.000Z</time>
      </trkpt>
      <trkpt lat="48.26964" lon="3.33622">
        <ele>193</ele>
        <time>2013-09-29T09:03:59.000Z</time>
      </trkpt>
      <trkpt lat="48.26967" lon="3.33615">
        <ele>193</ele>
        <time>2013-09-29T09:04:00.000Z</time>
      </trkpt>
      <trkpt lat="48.26968" lon="3.33611">
        <ele>193</ele>
        <time>2013-09-29T09:04:01.000Z</time>
      </trkpt>
      <trkpt lat="48.26969" lon="3.33605">
        <ele>192</ele>
        <time>2013-09-29T09:04:02.000Z</time>
      </trkpt>
      <trkpt lat="48.26971" lon="3.336">
        <ele>192</ele>
        <time>2013-09-29T09:04:03.000Z</time>
      </trkpt>
      <trkpt lat="48.26972" lon="3.33594">
        <ele>192</ele>
        <time>2013-09-29T09:04:04.000Z</time>
      </trkpt>
      <trkpt lat="48.26974" lon="3.3359">
        <ele>192</ele>
        <time>2013-09-29T09:04:05.000Z</time>
      </trkpt>
      <trkpt lat="48.26975" lon="3.33585">
        <ele>192</ele>
        <time>2013-09-29T09:04:06.000Z</time>
      </trkpt>
      <trkpt lat="48.26976" lon="3.33579">
        <ele>192</ele>
        <time>2013-09-29T09:04:07.000Z</time>
      </trkpt>
      <trkpt lat="48.26977" lon="3.33575">
        <ele>192</ele>
        <time>2013-09-29T09:04:08.000Z</time>
      </trkpt>
      <trkpt lat="48.26978" lon="3.3357">
        <ele>192</ele>
        <time>2013-09-29T09:04:09.000Z</time>
      </trkpt>
      <trkpt lat="48.26978" lon="3.33566">
        <ele>192</ele>
        <time>2013-09-29T09:04:10.000Z</time>
      </trkpt>
      <trkpt lat="48.26978" lon="3.33562">
        <ele>193</ele>
        <time>2013-09-29T09:04:11.000Z</time>
      </trkpt>
      <trkpt lat="48.26976" lon="3.33557">
        <ele>193</ele>
        <time>2013-09-29T09:04:12.000Z</time>
      </trkpt>
      <trkpt lat="48.26975" lon="3.33551">
        <ele>193</ele>
        <time>2013-09-29T09:04:13.000Z</time>
      </trkpt>
      <trkpt lat="48.26974" lon="3.33547">
        <ele>193</ele>
        <time>2013-09-29T09:04:14.000Z</time>
      </trkpt>
      <trkpt lat="48.26973" lon="3.3354">
        <ele>193</ele>
        <time>2013-09-29T09:04:15.000Z</time>
      </trkpt>
      <trkpt lat="48.26972" lon="3.33534">
        <ele>193</ele>
        <time>2013-09-29T09:04:16.000Z</time>
      </trkpt>
      <trkpt lat="48.26971" lon="3.33529">
        <ele>193</ele>
        <time>2013-09-29T09:04:17.000Z</time>
      </trkpt>
      <trkpt lat="48.2697" lon="3.33523">
        <ele>193</ele>
        <time>2013-09-29T09:04:18.000Z</time>
      </trkpt>
      <trkpt lat="48.26969" lon="3.33517">
        <ele>193</ele>
        <time>2013-09-29T09:04:19.000Z</time>
      </trkpt>
      <trkpt lat="48.26968" lon="3.33512">
        <ele>193</ele>
        <time>2013-09-29T09:04:20.000Z</time>
      </trkpt>
      <trkpt lat="48.26966" lon="3.33506">
        <ele>193</ele>
        <time>2013-09-29T09:04:21.000Z</time>
      </trkpt>
      <trkpt lat="48.26964" lon="3.33502">
        <ele>193</ele>
        <time>2013-09-29T09:04:22.000Z</time>
      </trkpt>
      <trkpt lat="48.26963" lon="3.33495">
        <ele>193</ele>
        <time>2013-09-29T09:04:23.000Z</time>
      </trkpt>
      <trkpt lat="48.26962" lon="3.33491">
        <ele>194</ele>
        <time>2013-09-29T09:04:24.000Z</time>
      </trkpt>
      <trkpt lat="48.26961" lon="3.33487">
        <ele>194</ele>
        <time>2013-09-29T09:04:25.000Z</time>
      </trkpt>
      <trkpt lat="48.2696" lon="3.33482">
        <ele>194</ele>
        <time>2013-09-29T09:04:26.000Z</time>
      </trkpt>
      <trkpt lat="48.26958" lon="3.33476">
        <ele>194</ele>
        <time>2013-09-29T09:04:27.000Z</time>
      </trkpt>
      <trkpt lat="48.26956" lon="3.33472">
        <ele>194</ele>
        <time>2013-09-29T09:04:28.000Z</time>
      </trkpt>
      <trkpt lat="48.26955" lon="3.33467">
        <ele>194</ele>
        <time>2013-09-29T09:04:29.000Z</time>
      </trkpt>
      <trkpt lat="48.26953" lon="3.33463">
        <ele>194</ele>
        <time>2013-09-29T09:04:30.000Z</time>
      </trkpt>
      <trkpt lat="48.26952" lon="3.33459">
        <ele>194</ele>
        <time>2013-09-29T09:04:31.000Z</time>
      </trkpt>
      <trkpt lat="48.26951" lon="3.33452">
        <ele>194</ele>
        <time>2013-09-29T09:04:32.000Z</time>
      </trkpt>
      <trkpt lat="48.26948" lon="3.33448">
        <ele>194</ele>
        <time>2013-09-29T09:04:33.000Z</time>
      </trkpt>
      <trkpt lat="48.26947" lon="3.33444">
        <ele>194</ele>
        <time>2013-09-29T09:04:34.000Z</time>
      </trkpt>
      <trkpt lat="48.26945" lon="3.33437">
        <ele>194</ele>
        <time>2013-09-29T09:04:35.000Z</time>
      </trkpt>
      <trkpt lat="48.26944" lon="3.33433">
        <ele>194</ele>
        <time>2013-09-29T09:04:36.000Z</time>
      </trkpt>
      <trkpt lat="48.26942" lon="3.33426">
        <ele>194</ele>
        <time>2013-09-29T09:04:37.000Z</time>
      </trkpt>
      <trkpt lat="48.26941" lon="3.33422">
        <ele>194</ele>
        <time>2013-09-29T09:04:38.000Z</time>
      </trkpt>
      <trkpt lat="48.26939" lon="3.33416">
        <ele>194</ele>
        <time>2013-09-29T09:04:39.000Z</time>
      </trkpt>
      <trkpt lat="48.26938" lon="3.33409">
        <ele>194</ele>
        <time>2013-09-29T09:04:40.000Z</time>
      </trkpt>
      <trkpt lat="48.26936" lon="3.33405">
        <ele>194</ele>
        <time>2013-09-29T09:04:41.000Z</time>
      </trkpt>
      <trkpt lat="48.26934" lon="3.33399">
        <ele>194</ele>
        <time>2013-09-29T09:04:42.000Z</time>
      </trkpt>
      <trkpt lat="48.26934" lon="3.33392">
        <ele>194</ele>
        <time>2013-09-29T09:04:43.000Z</time>
      </trkpt>
      <trkpt lat="48.26933" lon="3.33386">
        <ele>194</ele>
        <time>2013-09-29T09:04:44.000Z</time>
      </trkpt>
      <trkpt lat="48.26932" lon="3.33381">
        <ele>195</ele>
        <time>2013-09-29T09:04:45.000Z</time>
      </trkpt>
      <trkpt lat="48.26932" lon="3.33375">
        <ele>195</ele>
        <time>2013-09-29T09:04:46.000Z</time>
      </trkpt>
      <trkpt lat="48.26931" lon="3.33369">
        <ele>195</ele>
        <time>2013-09-29T09:04:47.000Z</time>
      </trkpt>
      <trkpt lat="48.2693" lon="3.33362">
        <ele>195</ele>
        <time>2013-09-29T09:04:48.000Z</time>
      </trkpt>
      <trkpt lat="48.2693" lon="3.33358">
        <ele>195</ele>
        <time>2013-09-29T09:04:49.000Z</time>
      </trkpt>
      <trkpt lat="48.26929" lon="3.33351">
        <ele>195</ele>
        <time>2013-09-29T09:04:50.000Z</time>
      </trkpt>
      <trkpt lat="48.26929" lon="3.33345">
        <ele>194</ele>
        <time>2013-09-29T09:04:51.000Z</time>
      </trkpt>
      <trkpt lat="48.26929" lon="3.33338">
        <ele>194</ele>
        <time>2013-09-29T09:04:52.000Z</time>
      </trkpt>
      <trkpt lat="48.26928" lon="3.33332">
        <ele>195</ele>
        <time>2013-09-29T09:04:53.000Z</time>
      </trkpt>
      <trkpt lat="48.26928" lon="3.33326">
        <ele>196</ele>
        <time>2013-09-29T09:04:54.000Z</time>
      </trkpt>
      <trkpt lat="48.26928" lon="3.33319">
        <ele>196</ele>
        <time>2013-09-29T09:04:55.000Z</time>
      </trkpt>
      <trkpt lat="48.26927" lon="3.33313">
        <ele>196</ele>
        <time>2013-09-29T09:04:56.000Z</time>
      </trkpt>
      <trkpt lat="48.26927" lon="3.33306">
        <ele>197</ele>
        <time>2013-09-29T09:04:57.000Z</time>
      </trkpt>
      <trkpt lat="48.26927" lon="3.333">
        <ele>197</ele>
        <time>2013-09-29T09:04:58.000Z</time>
      </trkpt>
      <trkpt lat="48.26927" lon="3.33293">
        <ele>197</ele>
        <time>2013-09-29T09:04:59.000Z</time>
      </trkpt>
      <trkpt lat="48.26927" lon="3.33287">
        <ele>198</ele>
        <time>2013-09-29T09:05:00.000Z</time>
      </trkpt>
      <trkpt lat="48.26927" lon="3.33281">
        <ele>198</ele>
        <time>2013-09-29T09:05:01.000Z</time>
      </trkpt>
      <trkpt lat="48.26927" lon="3.33274">
        <ele>198</ele>
        <time>2013-09-29T09:05:02.000Z</time>
      </trkpt>
      <trkpt lat="48.26927" lon="3.3327">
        <ele>198</ele>
        <time>2013-09-29T09:05:03.000Z</time>
      </trkpt>
      <trkpt lat="48.26927" lon="3.33263">
        <ele>198</ele>
        <time>2013-09-29T09:05:04.000Z</time>
      </trkpt>
      <trkpt lat="48.26928" lon="3.33257">
        <ele>198</ele>
        <time>2013-09-29T09:05:05.000Z</time>
      </trkpt>
      <trkpt lat="48.26928" lon="3.33251">
        <ele>199</ele>
        <time>2013-09-29T09:05:06.000Z</time>
      </trkpt>
      <trkpt lat="48.26929" lon="3.33246">
        <ele>200</ele>
        <time>2013-09-29T09:05:07.000Z</time>
      </trkpt>
      <trkpt lat="48.26929" lon="3.3324">
        <ele>201</ele>
        <time>2013-09-29T09:05:08.000Z</time>
      </trkpt>
      <trkpt lat="48.26928" lon="3.33233">
        <ele>201</ele>
        <time>2013-09-29T09:05:09.000Z</time>
      </trkpt>
      <trkpt lat="48.26928" lon="3.33229">
        <ele>201</ele>
        <time>2013-09-29T09:05:10.000Z</time>
      </trkpt>
      <trkpt lat="48.26928" lon="3.33223">
        <ele>201</ele>
        <time>2013-09-29T09:05:11.000Z</time>
      </trkpt>
      <trkpt lat="48.26928" lon="3.33218">
        <ele>202</ele>
        <time>2013-09-29T09:05:12.000Z</time>
      </trkpt>
      <trkpt lat="48.26928" lon="3.33214">
        <ele>202</ele>
        <time>2013-09-29T09:05:13.000Z</time>
      </trkpt>
      <trkpt lat="48.26928" lon="3.3321">
        <ele>202</ele>
        <time>2013-09-29T09:05:14.000Z</time>
      </trkpt>
      <trkpt lat="48.26928" lon="3.33203">
        <ele>202</ele>
        <time>2013-09-29T09:05:15.000Z</time>
      </trkpt>
      <trkpt lat="48.26927" lon="3.33199">
        <ele>202</ele>
        <time>2013-09-29T09:05:16.000Z</time>
      </trkpt>
      <trkpt lat="48.26927" lon="3.33195">
        <ele>203</ele>
        <time>2013-09-29T09:05:17.000Z</time>
      </trkpt>
      <trkpt lat="48.26927" lon="3.3319">
        <ele>203</ele>
        <time>2013-09-29T09:05:18.000Z</time>
      </trkpt>
      <trkpt lat="48.26926" lon="3.33186">
        <ele>203</ele>
        <time>2013-09-29T09:05:19.000Z</time>
      </trkpt>
      <trkpt lat="48.26926" lon="3.33182">
        <ele>203</ele>
        <time>2013-09-29T09:05:20.000Z</time>
      </trkpt>
      <trkpt lat="48.26926" lon="3.33178">
        <ele>203</ele>
        <time>2013-09-29T09:05:21.000Z</time>
      </trkpt>
      <trkpt lat="48.26926" lon="3.33173">
        <ele>203</ele>
        <time>2013-09-29T09:05:22.000Z</time>
      </trkpt>
      <trkpt lat="48.26925" lon="3.33169">
        <ele>204</ele>
        <time>2013-09-29T09:05:23.000Z</time>
      </trkpt>
      <trkpt lat="48.26925" lon="3.33165">
        <ele>204</ele>
        <time>2013-09-29T09:05:24.000Z</time>
      </trkpt>
      <trkpt lat="48.26925" lon="3.3316">
        <ele>204</ele>
        <time>2013-09-29T09:05:25.000Z</time>
      </trkpt>
      <trkpt lat="48.26925" lon="3.33156">
        <ele>205</ele>
        <time>2013-09-29T09:05:26.000Z</time>
      </trkpt>
      <trkpt lat="48.26924" lon="3.33152">
        <ele>205</ele>
        <time>2013-09-29T09:05:27.000Z</time>
      </trkpt>
      <trkpt lat="48.26924" lon="3.33148">
        <ele>205</ele>
        <time>2013-09-29T09:05:28.000Z</time>
      </trkpt>
      <trkpt lat="48.26924" lon="3.33143">
        <ele>205</ele>
        <time>2013-09-29T09:05:29.000Z</time>
      </trkpt>
      <trkpt lat="48.26923" lon="3.33139">
        <ele>205</ele>
        <time>2013-09-29T09:05:30.000Z</time>
      </trkpt>
      <trkpt lat="48.26923" lon="3.33135">
        <ele>205</ele>
        <time>2013-09-29T09:05:31.000Z</time>
      </trkpt>
      <trkpt lat="48.26923" lon="3.33128">
        <ele>205</ele>
        <time>2013-09-29T09:05:32.000Z</time>
      </trkpt>
      <trkpt lat="48.26923" lon="3.33124">
        <ele>205</ele>
        <time>2013-09-29T09:05:33.000Z</time>
      </trkpt>
      <trkpt lat="48.26923" lon="3.3312">
        <ele>205</ele>
        <time>2013-09-29T09:05:34.000Z</time>
      </trkpt>
      <trkpt lat="48.26923" lon="3.33113">
        <ele>205</ele>
        <time>2013-09-29T09:05:35.000Z</time>
      </trkpt>
      <trkpt lat="48.26922" lon="3.33109">
        <ele>205</ele>
        <time>2013-09-29T09:05:36.000Z</time>
      </trkpt>
      <trkpt lat="48.26922" lon="3.33105">
        <ele>205</ele>
        <time>2013-09-29T09:05:37.000Z</time>
      </trkpt>
      <trkpt lat="48.26922" lon="3.33098">
        <ele>206</ele>
        <time>2013-09-29T09:05:38.000Z</time>
      </trkpt>
      <trkpt lat="48.26922" lon="3.33094">
        <ele>206</ele>
        <time>2013-09-29T09:05:39.000Z</time>
      </trkpt>
      <trkpt lat="48.26922" lon="3.33087">
        <ele>206</ele>
        <time>2013-09-29T09:05:40.000Z</time>
      </trkpt>
      <trkpt lat="48.26922" lon="3.33083">
        <ele>206</ele>
        <time>2013-09-29T09:05:41.000Z</time>
      </trkpt>
      <trkpt lat="48.26922" lon="3.33077">
        <ele>206</ele>
        <time>2013-09-29T09:05:42.000Z</time>
      </trkpt>
      <trkpt lat="48.26922" lon="3.33072">
        <ele>206</ele>
        <time>2013-09-29T09:05:43.000Z</time>
      </trkpt>
      <trkpt lat="48.26922" lon="3.33066">
        <ele>206</ele>
        <time>2013-09-29T09:05:44.000Z</time>
      </trkpt>
      <trkpt lat="48.26922" lon="3.33062">
        <ele>206</ele>
        <time>2013-09-29T09:05:45.000Z</time>
      </trkpt>
      <trkpt lat="48.26922" lon="3.33055">
        <ele>206</ele>
        <time>2013-09-29T09:05:46.000Z</time>
      </trkpt>
      <trkpt lat="48.26922" lon="3.33051">
        <ele>206</ele>
        <time>2013-09-29T09:05:47.000Z</time>
      </trkpt>
      <trkpt lat="48.26922" lon="3.33045">
        <ele>206</ele>
        <time>2013-09-29T09:05:48.000Z</time>
      </trkpt>
      <trkpt lat="48.26921" lon="3.3304">
        <ele>206</ele>
        <time>2013-09-29T09:05:49.000Z</time>
      </trkpt>
      <trkpt lat="48.26921" lon="3.33034">
        <ele>206</ele>
        <time>2013-09-29T09:05:50.000Z</time>
      </trkpt>
      <trkpt lat="48.26921" lon="3.3303">
        <ele>206</ele>
        <time>2013-09-29T09:05:51.000Z</time>
      </trkpt>
      <trkpt lat="48.26921" lon="3.33023">
        <ele>205</ele>
        <time>2013-09-29T09:05:52.000Z</time>
      </trkpt>
      <trkpt lat="48.26921" lon="3.33017">
        <ele>205</ele>
        <time>2013-09-29T09:05:53.000Z</time>
      </trkpt>
      <trkpt lat="48.26922" lon="3.33012">
        <ele>205</ele>
        <time>2013-09-29T09:05:54.000Z</time>
      </trkpt>
      <trkpt lat="48.26922" lon="3.33006">
        <ele>205</ele>
        <time>2013-09-29T09:05:55.000Z</time>
      </trkpt>
      <trkpt lat="48.26922" lon="3.32999">
        <ele>205</ele>
        <time>2013-09-29T09:05:56.000Z</time>
      </trkpt>
      <trkpt lat="48.26921" lon="3.32995">
        <ele>205</ele>
        <time>2013-09-29T09:05:57.000Z</time>
      </trkpt>
      <trkpt lat="48.26921" lon="3.32989">
        <ele>205</ele>
        <time>2013-09-29T09:05:58.000Z</time>
      </trkpt>
      <trkpt lat="48.26921" lon="3.32982">
        <ele>205</ele>
        <time>2013-09-29T09:05:59.000Z</time>
      </trkpt>
      <trkpt lat="48.26921" lon="3.32976">
        <ele>205</ele>
        <time>2013-09-29T09:06:00.000Z</time>
      </trkpt>
      <trkpt lat="48.26919" lon="3.32969">
        <ele>205</ele>
        <time>2013-09-29T09:06:01.000Z</time>
      </trkpt>
      <trkpt lat="48.26918" lon="3.32965">
        <ele>205</ele>
        <time>2013-09-29T09:06:02.000Z</time>
      </trkpt>
      <trkpt lat="48.26917" lon="3.32959">
        <ele>205</ele>
        <time>2013-09-29T09:06:03.000Z</time>
      </trkpt>
      <trkpt lat="48.26916" lon="3.32952">
        <ele>205</ele>
        <time>2013-09-29T09:06:04.000Z</time>
      </trkpt>
      <trkpt lat="48.26916" lon="3.32946">
        <ele>205</ele>
        <time>2013-09-29T09:06:05.000Z</time>
      </trkpt>
      <trkpt lat="48.26914" lon="3.32942">
        <ele>205</ele>
        <time>2013-09-29T09:06:06.000Z</time>
      </trkpt>
      <trkpt lat="48.26913" lon="3.32935">
        <ele>204</ele>
        <time>2013-09-29T09:06:07.000Z</time>
      </trkpt>
      <trkpt lat="48.26912" lon="3.32929">
        <ele>204</ele>
        <time>2013-09-29T09:06:08.000Z</time>
      </trkpt>
      <trkpt lat="48.26911" lon="3.32922">
        <ele>204</ele>
        <time>2013-09-29T09:06:09.000Z</time>
      </trkpt>
      <trkpt lat="48.2691" lon="3.32918">
        <ele>204</ele>
        <time>2013-09-29T09:06:10.000Z</time>
      </trkpt>
      <trkpt lat="48.26909" lon="3.32911">
        <ele>204</ele>
        <time>2013-09-29T09:06:11.000Z</time>
      </trkpt>
      <trkpt lat="48.26908" lon="3.32905">
        <ele>204</ele>
        <time>2013-09-29T09:06:12.000Z</time>
      </trkpt>
      <trkpt lat="48.26907" lon="3.32899">
        <ele>205</ele>
        <time>2013-09-29T09:06:13.000Z</time>
      </trkpt>
      <trkpt lat="48.26905" lon="3.32892">
        <ele>205</ele>
        <time>2013-09-29T09:06:14.000Z</time>
      </trkpt>
      <trkpt lat="48.26905" lon="3.32886">
        <ele>205</ele>
        <time>2013-09-29T09:06:15.000Z</time>
      </trkpt>
      <trkpt lat="48.26904" lon="3.32879">
        <ele>205</ele>
        <time>2013-09-29T09:06:16.000Z</time>
      </trkpt>
      <trkpt lat="48.26903" lon="3.32873">
        <ele>205</ele>
        <time>2013-09-29T09:06:17.000Z</time>
      </trkpt>
      <trkpt lat="48.26902" lon="3.32866">
        <ele>205</ele>
        <time>2013-09-29T09:06:18.000Z</time>
      </trkpt>
      <trkpt lat="48.26901" lon="3.3286">
        <ele>205</ele>
        <time>2013-09-29T09:06:19.000Z</time>
      </trkpt>
      <trkpt lat="48.26899" lon="3.32851">
        <ele>205</ele>
        <time>2013-09-29T09:06:20.000Z</time>
      </trkpt>
      <trkpt lat="48.26897" lon="3.32845">
        <ele>205</ele>
        <time>2013-09-29T09:06:21.000Z</time>
      </trkpt>
      <trkpt lat="48.26895" lon="3.32839">
        <ele>205</ele>
        <time>2013-09-29T09:06:22.000Z</time>
      </trkpt>
      <trkpt lat="48.26893" lon="3.32832">
        <ele>205</ele>
        <time>2013-09-29T09:06:23.000Z</time>
      </trkpt>
      <trkpt lat="48.2689" lon="3.32824">
        <ele>205</ele>
        <time>2013-09-29T09:06:24.000Z</time>
      </trkpt>
      <trkpt lat="48.26888" lon="3.32817">
        <ele>205</ele>
        <time>2013-09-29T09:06:25.000Z</time>
      </trkpt>
      <trkpt lat="48.26886" lon="3.32811">
        <ele>205</ele>
        <time>2013-09-29T09:06:26.000Z</time>
      </trkpt>
      <trkpt lat="48.26884" lon="3.32804">
        <ele>205</ele>
        <time>2013-09-29T09:06:27.000Z</time>
      </trkpt>
      <trkpt lat="48.26882" lon="3.32798">
        <ele>205</ele>
        <time>2013-09-29T09:06:28.000Z</time>
      </trkpt>
      <trkpt lat="48.26879" lon="3.32791">
        <ele>205</ele>
        <time>2013-09-29T09:06:29.000Z</time>
      </trkpt>
      <trkpt lat="48.26877" lon="3.32785">
        <ele>205</ele>
        <time>2013-09-29T09:06:30.000Z</time>
      </trkpt>
      <trkpt lat="48.26873" lon="3.32778">
        <ele>205</ele>
        <time>2013-09-29T09:06:31.000Z</time>
      </trkpt>
      <trkpt lat="48.26871" lon="3.32772">
        <ele>205</ele>
        <time>2013-09-29T09:06:32.000Z</time>
      </trkpt>
      <trkpt lat="48.26868" lon="3.32766">
        <ele>205</ele>
        <time>2013-09-29T09:06:33.000Z</time>
      </trkpt>
      <trkpt lat="48.26866" lon="3.32761">
        <ele>205</ele>
        <time>2013-09-29T09:06:34.000Z</time>
      </trkpt>
      <trkpt lat="48.26863" lon="3.32755">
        <ele>205</ele>
        <time>2013-09-29T09:06:35.000Z</time>
      </trkpt>
      <trkpt lat="48.26859" lon="3.32748">
        <ele>205</ele>
        <time>2013-09-29T09:06:36.000Z</time>
      </trkpt>
      <trkpt lat="48.26857" lon="3.32744">
        <ele>205</ele>
        <time>2013-09-29T09:06:37.000Z</time>
      </trkpt>
      <trkpt lat="48.26855" lon="3.32738">
        <ele>205</ele>
        <time>2013-09-29T09:06:38.000Z</time>
      </trkpt>
      <trkpt lat="48.26852" lon="3.32731">
        <ele>205</ele>
        <time>2013-09-29T09:06:39.000Z</time>
      </trkpt>
      <trkpt lat="48.2685" lon="3.32727">
        <ele>205</ele>
        <time>2013-09-29T09:06:40.000Z</time>
      </trkpt>
      <trkpt lat="48.26846" lon="3.32721">
        <ele>205</ele>
        <time>2013-09-29T09:06:41.000Z</time>
      </trkpt>
      <trkpt lat="48.26844" lon="3.32716">
        <ele>204</ele>
        <time>2013-09-29T09:06:42.000Z</time>
      </trkpt>
      <trkpt lat="48.26842" lon="3.3271">
        <ele>204</ele>
        <time>2013-09-29T09:06:43.000Z</time>
      </trkpt>
      <trkpt lat="48.2684" lon="3.32703">
        <ele>204</ele>
        <time>2013-09-29T09:06:44.000Z</time>
      </trkpt>
      <trkpt lat="48.26838" lon="3.32699">
        <ele>204</ele>
        <time>2013-09-29T09:06:45.000Z</time>
      </trkpt>
      <trkpt lat="48.26836" lon="3.32693">
        <ele>204</ele>
        <time>2013-09-29T09:06:46.000Z</time>
      </trkpt>
      <trkpt lat="48.26834" lon="3.32686">
        <ele>204</ele>
        <time>2013-09-29T09:06:47.000Z</time>
      </trkpt>
      <trkpt lat="48.26833" lon="3.3268">
        <ele>203</ele>
        <time>2013-09-29T09:06:48.000Z</time>
      </trkpt>
      <trkpt lat="48.26831" lon="3.32673">
        <ele>203</ele>
        <time>2013-09-29T09:06:49.000Z</time>
      </trkpt>
      <trkpt lat="48.26831" lon="3.32667">
        <ele>203</ele>
        <time>2013-09-29T09:06:50.000Z</time>
      </trkpt>
      <trkpt lat="48.2683" lon="3.3266">
        <ele>203</ele>
        <time>2013-09-29T09:06:51.000Z</time>
      </trkpt>
      <trkpt lat="48.2683" lon="3.32652">
        <ele>202</ele>
        <time>2013-09-29T09:06:52.000Z</time>
      </trkpt>
      <trkpt lat="48.2683" lon="3.32645">
        <ele>202</ele>
        <time>2013-09-29T09:06:53.000Z</time>
      </trkpt>
      <trkpt lat="48.26829" lon="3.32639">
        <ele>202</ele>
        <time>2013-09-29T09:06:54.000Z</time>
      </trkpt>
      <trkpt lat="48.26828" lon="3.32633">
        <ele>202</ele>
        <time>2013-09-29T09:06:55.000Z</time>
      </trkpt>
      <trkpt lat="48.26828" lon="3.32626">
        <ele>202</ele>
        <time>2013-09-29T09:06:56.000Z</time>
      </trkpt>
      <trkpt lat="48.26827" lon="3.3262">
        <ele>202</ele>
        <time>2013-09-29T09:06:57.000Z</time>
      </trkpt>
      <trkpt lat="48.26827" lon="3.32613">
        <ele>202</ele>
        <time>2013-09-29T09:06:58.000Z</time>
      </trkpt>
      <trkpt lat="48.26826" lon="3.32607">
        <ele>202</ele>
        <time>2013-09-29T09:06:59.000Z</time>
      </trkpt>
      <trkpt lat="48.26825" lon="3.32598">
        <ele>201</ele>
        <time>2013-09-29T09:07:00.000Z</time>
      </trkpt>
      <trkpt lat="48.26825" lon="3.32592">
        <ele>201</ele>
        <time>2013-09-29T09:07:01.000Z</time>
      </trkpt>
      <trkpt lat="48.26824" lon="3.32585">
        <ele>201</ele>
        <time>2013-09-29T09:07:02.000Z</time>
      </trkpt>
      <trkpt lat="48.26824" lon="3.32579">
        <ele>201</ele>
        <time>2013-09-29T09:07:03.000Z</time>
      </trkpt>
      <trkpt lat="48.26824" lon="3.32572">
        <ele>201</ele>
        <time>2013-09-29T09:07:04.000Z</time>
      </trkpt>
      <trkpt lat="48.26825" lon="3.32566">
        <ele>201</ele>
        <time>2013-09-29T09:07:05.000Z</time>
      </trkpt>
      <trkpt lat="48.26826" lon="3.3256">
        <ele>201</ele>
        <time>2013-09-29T09:07:06.000Z</time>
      </trkpt>
      <trkpt lat="48.26827" lon="3.32553">
        <ele>201</ele>
        <time>2013-09-29T09:07:07.000Z</time>
      </trkpt>
      <trkpt lat="48.26828" lon="3.32547">
        <ele>201</ele>
        <time>2013-09-29T09:07:08.000Z</time>
      </trkpt>
      <trkpt lat="48.26829" lon="3.3254">
        <ele>201</ele>
        <time>2013-09-29T09:07:09.000Z</time>
      </trkpt>
      <trkpt lat="48.26829" lon="3.32534">
        <ele>201</ele>
        <time>2013-09-29T09:07:10.000Z</time>
      </trkpt>
      <trkpt lat="48.26829" lon="3.32525">
        <ele>201</ele>
        <time>2013-09-29T09:07:11.000Z</time>
      </trkpt>
      <trkpt lat="48.26829" lon="3.32517">
        <ele>201</ele>
        <time>2013-09-29T09:07:12.000Z</time>
      </trkpt>
      <trkpt lat="48.26829" lon="3.3251">
        <ele>201</ele>
        <time>2013-09-29T09:07:13.000Z</time>
      </trkpt>
      <trkpt lat="48.26829" lon="3.32502">
        <ele>201</ele>
        <time>2013-09-29T09:07:14.000Z</time>
      </trkpt>
      <trkpt lat="48.26829" lon="3.32495">
        <ele>201</ele>
        <time>2013-09-29T09:07:15.000Z</time>
      </trkpt>
      <trkpt lat="48.26829" lon="3.32487">
        <ele>201</ele>
        <time>2013-09-29T09:07:16.000Z</time>
      </trkpt>
      <trkpt lat="48.26829" lon="3.3248">
        <ele>201</ele>
        <time>2013-09-29T09:07:17.000Z</time>
      </trkpt>
      <trkpt lat="48.26829" lon="3.32472">
        <ele>201</ele>
        <time>2013-09-29T09:07:18.000Z</time>
      </trkpt>
      <trkpt lat="48.26829" lon="3.32465">
        <ele>201</ele>
        <time>2013-09-29T09:07:19.000Z</time>
      </trkpt>
      <trkpt lat="48.2683" lon="3.32459">
        <ele>201</ele>
        <time>2013-09-29T09:07:20.000Z</time>
      </trkpt>
      <trkpt lat="48.2683" lon="3.32452">
        <ele>202</ele>
        <time>2013-09-29T09:07:21.000Z</time>
      </trkpt>
      <trkpt lat="48.2683" lon="3.32446">
        <ele>202</ele>
        <time>2013-09-29T09:07:22.000Z</time>
      </trkpt>
      <trkpt lat="48.2683" lon="3.32442">
        <ele>202</ele>
        <time>2013-09-29T09:07:23.000Z</time>
      </trkpt>
      <trkpt lat="48.2683" lon="3.32435">
        <ele>202</ele>
        <time>2013-09-29T09:07:24.000Z</time>
      </trkpt>
      <trkpt lat="48.2683" lon="3.32429">
        <ele>203</ele>
        <time>2013-09-29T09:07:25.000Z</time>
      </trkpt>
      <trkpt lat="48.2683" lon="3.32424">
        <ele>203</ele>
        <time>2013-09-29T09:07:26.000Z</time>
      </trkpt>
      <trkpt lat="48.26831" lon="3.32418">
        <ele>204</ele>
        <time>2013-09-29T09:07:27.000Z</time>
      </trkpt>
      <trkpt lat="48.26833" lon="3.32412">
        <ele>204</ele>
        <time>2013-09-29T09:07:28.000Z</time>
      </trkpt>
      <trkpt lat="48.26833" lon="3.32405">
        <ele>204</ele>
        <time>2013-09-29T09:07:29.000Z</time>
      </trkpt>
      <trkpt lat="48.26834" lon="3.32401">
        <ele>205</ele>
        <time>2013-09-29T09:07:30.000Z</time>
      </trkpt>
      <trkpt lat="48.26835" lon="3.32394">
        <ele>206</ele>
        <time>2013-09-29T09:07:31.000Z</time>
      </trkpt>
      <trkpt lat="48.26835" lon="3.32388">
        <ele>206</ele>
        <time>2013-09-29T09:07:32.000Z</time>
      </trkpt>
      <trkpt lat="48.26836" lon="3.32384">
        <ele>206</ele>
        <time>2013-09-29T09:07:33.000Z</time>
      </trkpt>
      <trkpt lat="48.26837" lon="3.32377">
        <ele>206</ele>
        <time>2013-09-29T09:07:34.000Z</time>
      </trkpt>
      <trkpt lat="48.26837" lon="3.32371">
        <ele>206</ele>
        <time>2013-09-29T09:07:35.000Z</time>
      </trkpt>
      <trkpt lat="48.26838" lon="3.32366">
        <ele>206</ele>
        <time>2013-09-29T09:07:36.000Z</time>
      </trkpt>
      <trkpt lat="48.26838" lon="3.32362">
        <ele>206</ele>
        <time>2013-09-29T09:07:37.000Z</time>
      </trkpt>
      <trkpt lat="48.26839" lon="3.32356">
        <ele>206</ele>
        <time>2013-09-29T09:07:38.000Z</time>
      </trkpt>
      <trkpt lat="48.2684" lon="3.32351">
        <ele>206</ele>
        <time>2013-09-29T09:07:39.000Z</time>
      </trkpt>
      <trkpt lat="48.26841" lon="3.32345">
        <ele>206</ele>
        <time>2013-09-29T09:07:40.000Z</time>
      </trkpt>
      <trkpt lat="48.26841" lon="3.32341">
        <ele>206</ele>
        <time>2013-09-29T09:07:41.000Z</time>
      </trkpt>
      <trkpt lat="48.26842" lon="3.32334">
        <ele>206</ele>
        <time>2013-09-29T09:07:42.000Z</time>
      </trkpt>
      <trkpt lat="48.26843" lon="3.32328">
        <ele>207</ele>
        <time>2013-09-29T09:07:43.000Z</time>
      </trkpt>
      <trkpt lat="48.26843" lon="3.32324">
        <ele>207</ele>
        <time>2013-09-29T09:07:44.000Z</time>
      </trkpt>
      <trkpt lat="48.26844" lon="3.32317">
        <ele>207</ele>
        <time>2013-09-29T09:07:45.000Z</time>
      </trkpt>
      <trkpt lat="48.26844" lon="3.32313">
        <ele>208</ele>
        <time>2013-09-29T09:07:46.000Z</time>
      </trkpt>
      <trkpt lat="48.26844" lon="3.32309">
        <ele>208</ele>
        <time>2013-09-29T09:07:47.000Z</time>
      </trkpt>
      <trkpt lat="48.26844" lon="3.32304">
        <ele>208</ele>
        <time>2013-09-29T09:07:48.000Z</time>
      </trkpt>
      <trkpt lat="48.26844" lon="3.32298">
        <ele>208</ele>
        <time>2013-09-29T09:07:49.000Z</time>
      </trkpt>
      <trkpt lat="48.26844" lon="3.32294">
        <ele>208</ele>
        <time>2013-09-29T09:07:50.000Z</time>
      </trkpt>
      <trkpt lat="48.26844" lon="3.32289">
        <ele>208</ele>
        <time>2013-09-29T09:07:51.000Z</time>
      </trkpt>
      <trkpt lat="48.26844" lon="3.32285">
        <ele>208</ele>
        <time>2013-09-29T09:07:52.000Z</time>
      </trkpt>
      <trkpt lat="48.26843" lon="3.32278">
        <ele>208</ele>
        <time>2013-09-29T09:07:53.000Z</time>
      </trkpt>
      <trkpt lat="48.26843" lon="3.32274">
        <ele>208</ele>
        <time>2013-09-29T09:07:54.000Z</time>
      </trkpt>
      <trkpt lat="48.26842" lon="3.32268">
        <ele>208</ele>
        <time>2013-09-29T09:07:55.000Z</time>
      </trkpt>
      <trkpt lat="48.26842" lon="3.32261">
        <ele>208</ele>
        <time>2013-09-29T09:07:56.000Z</time>
      </trkpt>
      <trkpt lat="48.26842" lon="3.32255">
        <ele>208</ele>
        <time>2013-09-29T09:07:57.000Z</time>
      </trkpt>
      <trkpt lat="48.26841" lon="3.32248">
        <ele>208</ele>
        <time>2013-09-29T09:07:58.000Z</time>
      </trkpt>
      <trkpt lat="48.26841" lon="3.32242">
        <ele>209</ele>
        <time>2013-09-29T09:07:59.000Z</time>
      </trkpt>
      <trkpt lat="48.2684" lon="3.32238">
        <ele>209</ele>
        <time>2013-09-29T09:08:00.000Z</time>
      </trkpt>
      <trkpt lat="48.26839" lon="3.32231">
        <ele>209</ele>
        <time>2013-09-29T09:08:01.000Z</time>
      </trkpt>
      <trkpt lat="48.26838" lon="3.32225">
        <ele>209</ele>
        <time>2013-09-29T09:08:02.000Z</time>
      </trkpt>
      <trkpt lat="48.26837" lon="3.32218">
        <ele>209</ele>
        <time>2013-09-29T09:08:03.000Z</time>
      </trkpt>
      <trkpt lat="48.26837" lon="3.32214">
        <ele>209</ele>
        <time>2013-09-29T09:08:04.000Z</time>
      </trkpt>
      <trkpt lat="48.26836" lon="3.32208">
        <ele>209</ele>
        <time>2013-09-29T09:08:05.000Z</time>
      </trkpt>
      <trkpt lat="48.26835" lon="3.32203">
        <ele>209</ele>
        <time>2013-09-29T09:08:06.000Z</time>
      </trkpt>
      <trkpt lat="48.26834" lon="3.32197">
        <ele>209</ele>
        <time>2013-09-29T09:08:07.000Z</time>
      </trkpt>
      <trkpt lat="48.26833" lon="3.32193">
        <ele>209</ele>
        <time>2013-09-29T09:08:08.000Z</time>
      </trkpt>
      <trkpt lat="48.26831" lon="3.32186">
        <ele>209</ele>
        <time>2013-09-29T09:08:09.000Z</time>
      </trkpt>
      <trkpt lat="48.26829" lon="3.32182">
        <ele>209</ele>
        <time>2013-09-29T09:08:10.000Z</time>
      </trkpt>
      <trkpt lat="48.26828" lon="3.32175">
        <ele>209</ele>
        <time>2013-09-29T09:08:11.000Z</time>
      </trkpt>
      <trkpt lat="48.26827" lon="3.32171">
        <ele>209</ele>
        <time>2013-09-29T09:08:12.000Z</time>
      </trkpt>
      <trkpt lat="48.26826" lon="3.32167">
        <ele>209</ele>
        <time>2013-09-29T09:08:13.000Z</time>
      </trkpt>
      <trkpt lat="48.26825" lon="3.3216">
        <ele>210</ele>
        <time>2013-09-29T09:08:14.000Z</time>
      </trkpt>
      <trkpt lat="48.26824" lon="3.32154">
        <ele>210</ele>
        <time>2013-09-29T09:08:15.000Z</time>
      </trkpt>
      <trkpt lat="48.26823" lon="3.3215">
        <ele>210</ele>
        <time>2013-09-29T09:08:16.000Z</time>
      </trkpt>
      <trkpt lat="48.26821" lon="3.32143">
        <ele>210</ele>
        <time>2013-09-29T09:08:17.000Z</time>
      </trkpt>
      <trkpt lat="48.2682" lon="3.32137">
        <ele>210</ele>
        <time>2013-09-29T09:08:18.000Z</time>
      </trkpt>
      <trkpt lat="48.26819" lon="3.3213">
        <ele>210</ele>
        <time>2013-09-29T09:08:19.000Z</time>
      </trkpt>
      <trkpt lat="48.26818" lon="3.32126">
        <ele>210</ele>
        <time>2013-09-29T09:08:20.000Z</time>
      </trkpt>
      <trkpt lat="48.26816" lon="3.3212">
        <ele>211</ele>
        <time>2013-09-29T09:08:21.000Z</time>
      </trkpt>
      <trkpt lat="48.26815" lon="3.32115">
        <ele>211</ele>
        <time>2013-09-29T09:08:22.000Z</time>
      </trkpt>
      <trkpt lat="48.26814" lon="3.32111">
        <ele>211</ele>
        <time>2013-09-29T09:08:23.000Z</time>
      </trkpt>
      <trkpt lat="48.26812" lon="3.32105">
        <ele>211</ele>
        <time>2013-09-29T09:08:24.000Z</time>
      </trkpt>
      <trkpt lat="48.26811" lon="3.321">
        <ele>211</ele>
        <time>2013-09-29T09:08:25.000Z</time>
      </trkpt>
      <trkpt lat="48.2681" lon="3.32096">
        <ele>211</ele>
        <time>2013-09-29T09:08:26.000Z</time>
      </trkpt>
      <trkpt lat="48.26809" lon="3.3209">
        <ele>211</ele>
        <time>2013-09-29T09:08:27.000Z</time>
      </trkpt>
      <trkpt lat="48.26808" lon="3.32085">
        <ele>211</ele>
        <time>2013-09-29T09:08:28.000Z</time>
      </trkpt>
      <trkpt lat="48.26806" lon="3.32081">
        <ele>212</ele>
        <time>2013-09-29T09:08:29.000Z</time>
      </trkpt>
      <trkpt lat="48.26805" lon="3.32077">
        <ele>212</ele>
        <time>2013-09-29T09:08:30.000Z</time>
      </trkpt>
      <trkpt lat="48.26802" lon="3.32075">
        <ele>212</ele>
        <time>2013-09-29T09:08:31.000Z</time>
      </trkpt>
      <trkpt lat="48.268" lon="3.3207">
        <ele>211</ele>
        <time>2013-09-29T09:08:32.000Z</time>
      </trkpt>
      <trkpt lat="48.26798" lon="3.32066">
        <ele>211</ele>
        <time>2013-09-29T09:08:33.000Z</time>
      </trkpt>
      <trkpt lat="48.26796" lon="3.32062">
        <ele>211</ele>
        <time>2013-09-29T09:08:34.000Z</time>
      </trkpt>
      <trkpt lat="48.26794" lon="3.32055">
        <ele>211</ele>
        <time>2013-09-29T09:08:35.000Z</time>
      </trkpt>
      <trkpt lat="48.26791" lon="3.32049">
        <ele>211</ele>
        <time>2013-09-29T09:08:36.000Z</time>
      </trkpt>
      <trkpt lat="48.26787" lon="3.3204">
        <ele>211</ele>
        <time>2013-09-29T09:08:37.000Z</time>
      </trkpt>
      <trkpt lat="48.26784" lon="3.32032">
        <ele>211</ele>
        <time>2013-09-29T09:08:38.000Z</time>
      </trkpt>
      <trkpt lat="48.26781" lon="3.32023">
        <ele>211</ele>
        <time>2013-09-29T09:08:39.000Z</time>
      </trkpt>
      <trkpt lat="48.26777" lon="3.32017">
        <ele>211</ele>
        <time>2013-09-29T09:08:40.000Z</time>
      </trkpt>
      <trkpt lat="48.26772" lon="3.32008">
        <ele>211</ele>
        <time>2013-09-29T09:08:41.000Z</time>
      </trkpt>
      <trkpt lat="48.26768" lon="3.32">
        <ele>211</ele>
        <time>2013-09-29T09:08:42.000Z</time>
      </trkpt>
      <trkpt lat="48.26764" lon="3.31991">
        <ele>211</ele>
        <time>2013-09-29T09:08:43.000Z</time>
      </trkpt>
      <trkpt lat="48.2676" lon="3.31982">
        <ele>211</ele>
        <time>2013-09-29T09:08:44.000Z</time>
      </trkpt>
      <trkpt lat="48.26755" lon="3.31974">
        <ele>211</ele>
        <time>2013-09-29T09:08:45.000Z</time>
      </trkpt>
      <trkpt lat="48.26752" lon="3.31969">
        <ele>211</ele>
        <time>2013-09-29T09:08:46.000Z</time>
      </trkpt>
      <trkpt lat="48.26749" lon="3.31963">
        <ele>209</ele>
        <time>2013-09-29T09:08:47.000Z</time>
      </trkpt>
      <trkpt lat="48.26746" lon="3.31959">
        <ele>209</ele>
        <time>2013-09-29T09:08:48.000Z</time>
      </trkpt>
      <trkpt lat="48.26743" lon="3.31954">
        <ele>209</ele>
        <time>2013-09-29T09:08:49.000Z</time>
      </trkpt>
      <trkpt lat="48.26741" lon="3.3195">
        <ele>209</ele>
        <time>2013-09-29T09:08:50.000Z</time>
      </trkpt>
      <trkpt lat="48.26739" lon="3.31944">
        <ele>209</ele>
        <time>2013-09-29T09:08:51.000Z</time>
      </trkpt>
      <trkpt lat="48.26736" lon="3.31939">
        <ele>209</ele>
        <time>2013-09-29T09:08:52.000Z</time>
      </trkpt>
      <trkpt lat="48.26733" lon="3.31933">
        <ele>209</ele>
        <time>2013-09-29T09:08:53.000Z</time>
      </trkpt>
      <trkpt lat="48.2673" lon="3.31929">
        <ele>209</ele>
        <time>2013-09-29T09:08:54.000Z</time>
      </trkpt>
      <trkpt lat="48.26726" lon="3.31924">
        <ele>209</ele>
        <time>2013-09-29T09:08:55.000Z</time>
      </trkpt>
      <trkpt lat="48.26724" lon="3.3192">
        <ele>209</ele>
        <time>2013-09-29T09:08:56.000Z</time>
      </trkpt>
      <trkpt lat="48.26722" lon="3.31916">
        <ele>208</ele>
        <time>2013-09-29T09:08:57.000Z</time>
      </trkpt>
      <trkpt lat="48.2672" lon="3.31912">
        <ele>207</ele>
        <time>2013-09-29T09:08:58.000Z</time>
      </trkpt>
      <trkpt lat="48.26718" lon="3.31905">
        <ele>207</ele>
        <time>2013-09-29T09:08:59.000Z</time>
      </trkpt>
      <trkpt lat="48.26716" lon="3.31901">
        <ele>207</ele>
        <time>2013-09-29T09:09:00.000Z</time>
      </trkpt>
      <trkpt lat="48.26713" lon="3.31897">
        <ele>207</ele>
        <time>2013-09-29T09:09:01.000Z</time>
      </trkpt>
      <trkpt lat="48.26711" lon="3.31892">
        <ele>207</ele>
        <time>2013-09-29T09:09:02.000Z</time>
      </trkpt>
      <trkpt lat="48.2671" lon="3.31888">
        <ele>207</ele>
        <time>2013-09-29T09:09:03.000Z</time>
      </trkpt>
      <trkpt lat="48.26708" lon="3.31884">
        <ele>206</ele>
        <time>2013-09-29T09:09:04.000Z</time>
      </trkpt>
      <trkpt lat="48.26706" lon="3.31879">
        <ele>206</ele>
        <time>2013-09-29T09:09:05.000Z</time>
      </trkpt>
      <trkpt lat="48.26704" lon="3.31875">
        <ele>206</ele>
        <time>2013-09-29T09:09:06.000Z</time>
      </trkpt>
      <trkpt lat="48.26702" lon="3.31871">
        <ele>206</ele>
        <time>2013-09-29T09:09:07.000Z</time>
      </trkpt>
      <trkpt lat="48.26701" lon="3.31867">
        <ele>206</ele>
        <time>2013-09-29T09:09:08.000Z</time>
      </trkpt>
      <trkpt lat="48.26698" lon="3.31862">
        <ele>206</ele>
        <time>2013-09-29T09:09:09.000Z</time>
      </trkpt>
      <trkpt lat="48.26696" lon="3.31858">
        <ele>205</ele>
        <time>2013-09-29T09:09:10.000Z</time>
      </trkpt>
      <trkpt lat="48.26694" lon="3.31854">
        <ele>205</ele>
        <time>2013-09-29T09:09:11.000Z</time>
      </trkpt>
      <trkpt lat="48.26693" lon="3.31851">
        <ele>205</ele>
        <time>2013-09-29T09:09:12.000Z</time>
      </trkpt>
      <trkpt lat="48.26691" lon="3.31847">
        <ele>205</ele>
        <time>2013-09-29T09:09:13.000Z</time>
      </trkpt>
      <trkpt lat="48.26689" lon="3.31843">
        <ele>204</ele>
        <time>2013-09-29T09:09:14.000Z</time>
      </trkpt>
      <trkpt lat="48.26688" lon="3.31839">
        <ele>204</ele>
        <time>2013-09-29T09:09:15.000Z</time>
      </trkpt>
      <trkpt lat="48.26686" lon="3.31836">
        <ele>204</ele>
        <time>2013-09-29T09:09:16.000Z</time>
      </trkpt>
      <trkpt lat="48.26683" lon="3.31832">
        <ele>201</ele>
        <time>2013-09-29T09:09:17.000Z</time>
      </trkpt>
      <trkpt lat="48.26681" lon="3.3183">
        <ele>201</ele>
        <time>2013-09-29T09:09:18.000Z</time>
      </trkpt>
      <trkpt lat="48.2668" lon="3.31826">
        <ele>201</ele>
        <time>2013-09-29T09:09:19.000Z</time>
      </trkpt>
      <trkpt lat="48.26678" lon="3.31824">
        <ele>201</ele>
        <time>2013-09-29T09:09:20.000Z</time>
      </trkpt>
      <trkpt lat="48.26676" lon="3.31821">
        <ele>201</ele>
        <time>2013-09-29T09:09:21.000Z</time>
      </trkpt>
      <trkpt lat="48.26674" lon="3.31817">
        <ele>201</ele>
        <time>2013-09-29T09:09:22.000Z</time>
      </trkpt>
      <trkpt lat="48.26673" lon="3.31815">
        <ele>201</ele>
        <time>2013-09-29T09:09:23.000Z</time>
      </trkpt>
      <trkpt lat="48.26671" lon="3.31813">
        <ele>201</ele>
        <time>2013-09-29T09:09:24.000Z</time>
      </trkpt>
      <trkpt lat="48.26668" lon="3.31811">
        <ele>201</ele>
        <time>2013-09-29T09:09:25.000Z</time>
      </trkpt>
      <trkpt lat="48.26666" lon="3.31809">
        <ele>198</ele>
        <time>2013-09-29T09:09:26.000Z</time>
      </trkpt>
      <trkpt lat="48.26664" lon="3.31806">
        <ele>198</ele>
        <time>2013-09-29T09:09:27.000Z</time>
      </trkpt>
      <trkpt lat="48.26662" lon="3.31804">
        <ele>198</ele>
        <time>2013-09-29T09:09:28.000Z</time>
      </trkpt>
      <trkpt lat="48.2666" lon="3.31802">
        <ele>198</ele>
        <time>2013-09-29T09:09:29.000Z</time>
      </trkpt>
      <trkpt lat="48.26658" lon="3.318">
        <ele>198</ele>
        <time>2013-09-29T09:09:30.000Z</time>
      </trkpt>
      <trkpt lat="48.26654" lon="3.31798">
        <ele>198</ele>
        <time>2013-09-29T09:09:31.000Z</time>
      </trkpt>
      <trkpt lat="48.2665" lon="3.31796">
        <ele>197</ele>
        <time>2013-09-29T09:09:33.000Z</time>
      </trkpt>
      <trkpt lat="48.26647" lon="3.31796">
        <ele>197</ele>
        <time>2013-09-29T09:09:34.000Z</time>
      </trkpt>
      <trkpt lat="48.26645" lon="3.31794">
        <ele>197</ele>
        <time>2013-09-29T09:09:35.000Z</time>
      </trkpt>
      <trkpt lat="48.26642" lon="3.31794">
        <ele>197</ele>
        <time>2013-09-29T09:09:36.000Z</time>
      </trkpt>
      <trkpt lat="48.26639" lon="3.31791">
        <ele>197</ele>
        <time>2013-09-29T09:09:37.000Z</time>
      </trkpt>
      <trkpt lat="48.26636" lon="3.31791">
        <ele>197</ele>
        <time>2013-09-29T09:09:38.000Z</time>
      </trkpt>
      <trkpt lat="48.26634" lon="3.31791">
        <ele>197</ele>
        <time>2013-09-29T09:09:39.000Z</time>
      </trkpt>
      <trkpt lat="48.26631" lon="3.31789">
        <ele>197</ele>
        <time>2013-09-29T09:09:40.000Z</time>
      </trkpt>
      <trkpt lat="48.26628" lon="3.31789">
        <ele>197</ele>
        <time>2013-09-29T09:09:41.000Z</time>
      </trkpt>
      <trkpt lat="48.26625" lon="3.31789">
        <ele>197</ele>
        <time>2013-09-29T09:09:42.000Z</time>
      </trkpt>
      <trkpt lat="48.26622" lon="3.31789">
        <ele>197</ele>
        <time>2013-09-29T09:09:43.000Z</time>
      </trkpt>
      <trkpt lat="48.26619" lon="3.31789">
        <ele>197</ele>
        <time>2013-09-29T09:09:44.000Z</time>
      </trkpt>
      <trkpt lat="48.26615" lon="3.31789">
        <ele>197</ele>
        <time>2013-09-29T09:09:46.000Z</time>
      </trkpt>
      <trkpt lat="48.26614" lon="3.31789">
        <ele>197</ele>
        <time>2013-09-29T09:09:47.000Z</time>
      </trkpt>
      <trkpt lat="48.2661" lon="3.31787">
        <ele>197</ele>
        <time>2013-09-29T09:09:49.000Z</time>
      </trkpt>
      <trkpt lat="48.26608" lon="3.31787">
        <ele>197</ele>
        <time>2013-09-29T09:09:50.000Z</time>
      </trkpt>
      <trkpt lat="48.26604" lon="3.31787">
        <ele>197</ele>
        <time>2013-09-29T09:09:52.000Z</time>
      </trkpt>
      <trkpt lat="48.26602" lon="3.31787">
        <ele>197</ele>
        <time>2013-09-29T09:09:53.000Z</time>
      </trkpt>
      <trkpt lat="48.26598" lon="3.31785">
        <ele>196</ele>
        <time>2013-09-29T09:09:55.000Z</time>
      </trkpt>
      <trkpt lat="48.26594" lon="3.31785">
        <ele>196</ele>
        <time>2013-09-29T09:09:56.000Z</time>
      </trkpt>
      <trkpt lat="48.26591" lon="3.31783">
        <ele>196</ele>
        <time>2013-09-29T09:09:57.000Z</time>
      </trkpt>
      <trkpt lat="48.26588" lon="3.31783">
        <ele>196</ele>
        <time>2013-09-29T09:09:58.000Z</time>
      </trkpt>
      <trkpt lat="48.26585" lon="3.31781">
        <ele>196</ele>
        <time>2013-09-29T09:09:59.000Z</time>
      </trkpt>
      <trkpt lat="48.2658" lon="3.31781">
        <ele>195</ele>
        <time>2013-09-29T09:10:00.000Z</time>
      </trkpt>
      <trkpt lat="48.26576" lon="3.31779">
        <ele>195</ele>
        <time>2013-09-29T09:10:01.000Z</time>
      </trkpt>
      <trkpt lat="48.26572" lon="3.31776">
        <ele>195</ele>
        <time>2013-09-29T09:10:02.000Z</time>
      </trkpt>
      <trkpt lat="48.26568" lon="3.31772">
        <ele>195</ele>
        <time>2013-09-29T09:10:03.000Z</time>
      </trkpt>
      <trkpt lat="48.26564" lon="3.3177">
        <ele>195</ele>
        <time>2013-09-29T09:10:04.000Z</time>
      </trkpt>
      <trkpt lat="48.2656" lon="3.31768">
        <ele>195</ele>
        <time>2013-09-29T09:10:05.000Z</time>
      </trkpt>
      <trkpt lat="48.26556" lon="3.31768">
        <ele>195</ele>
        <time>2013-09-29T09:10:06.000Z</time>
      </trkpt>
      <trkpt lat="48.26553" lon="3.31766">
        <ele>195</ele>
        <time>2013-09-29T09:10:07.000Z</time>
      </trkpt>
      <trkpt lat="48.26548" lon="3.31764">
        <ele>195</ele>
        <time>2013-09-29T09:10:08.000Z</time>
      </trkpt>
      <trkpt lat="48.26545" lon="3.31761">
        <ele>195</ele>
        <time>2013-09-29T09:10:09.000Z</time>
      </trkpt>
      <trkpt lat="48.26541" lon="3.31759">
        <ele>196</ele>
        <time>2013-09-29T09:10:10.000Z</time>
      </trkpt>
      <trkpt lat="48.26536" lon="3.31759">
        <ele>196</ele>
        <time>2013-09-29T09:10:11.000Z</time>
      </trkpt>
      <trkpt lat="48.26532" lon="3.31759">
        <ele>196</ele>
        <time>2013-09-29T09:10:12.000Z</time>
      </trkpt>
      <trkpt lat="48.26528" lon="3.31759">
        <ele>196</ele>
        <time>2013-09-29T09:10:13.000Z</time>
      </trkpt>
      <trkpt lat="48.26524" lon="3.31761">
        <ele>196</ele>
        <time>2013-09-29T09:10:14.000Z</time>
      </trkpt>
      <trkpt lat="48.26519" lon="3.31761">
        <ele>196</ele>
        <time>2013-09-29T09:10:15.000Z</time>
      </trkpt>
      <trkpt lat="48.26516" lon="3.31764">
        <ele>196</ele>
        <time>2013-09-29T09:10:16.000Z</time>
      </trkpt>
      <trkpt lat="48.26512" lon="3.31766">
        <ele>196</ele>
        <time>2013-09-29T09:10:17.000Z</time>
      </trkpt>
      <trkpt lat="48.26507" lon="3.31766">
        <ele>196</ele>
        <time>2013-09-29T09:10:18.000Z</time>
      </trkpt>
      <trkpt lat="48.26507" lon="3.31766">
        <ele>196</ele>
        <time>2013-09-29T09:10:20.000Z</time>
      </trkpt>
      <trkpt lat="48.26497" lon="3.31772">
        <ele>194</ele>
        <time>2013-09-29T09:10:21.000Z</time>
      </trkpt>
      <trkpt lat="48.26497" lon="3.31772">
        <ele>194</ele>
        <time>2013-09-29T09:10:23.000Z</time>
      </trkpt>
      <trkpt lat="48.26487" lon="3.31779">
        <ele>194</ele>
        <time>2013-09-29T09:10:24.000Z</time>
      </trkpt>
      <trkpt lat="48.26487" lon="3.31779">
        <ele>194</ele>
        <time>2013-09-29T09:10:26.000Z</time>
      </trkpt>
      <trkpt lat="48.26477" lon="3.31785">
        <ele>193</ele>
        <time>2013-09-29T09:10:27.000Z</time>
      </trkpt>
      <trkpt lat="48.26477" lon="3.31785">
        <ele>193</ele>
        <time>2013-09-29T09:10:30.000Z</time>
      </trkpt>
      <trkpt lat="48.26466" lon="3.31791">
        <ele>193</ele>
        <time>2013-09-29T09:10:31.000Z</time>
      </trkpt>
      <trkpt lat="48.26466" lon="3.31791">
        <ele>193</ele>
        <time>2013-09-29T09:10:33.000Z</time>
      </trkpt>
      <trkpt lat="48.26458" lon="3.31798">
        <ele>192</ele>
        <time>2013-09-29T09:10:34.000Z</time>
      </trkpt>
      <trkpt lat="48.26458" lon="3.31798">
        <ele>192</ele>
        <time>2013-09-29T09:10:37.000Z</time>
      </trkpt>
      <trkpt lat="48.26451" lon="3.31809">
        <ele>192</ele>
        <time>2013-09-29T09:10:38.000Z</time>
      </trkpt>
      <trkpt lat="48.26451" lon="3.31809">
        <ele>192</ele>
        <time>2013-09-29T09:10:41.000Z</time>
      </trkpt>
      <trkpt lat="48.26444" lon="3.31819">
        <ele>192</ele>
        <time>2013-09-29T09:10:42.000Z</time>
      </trkpt>
      <trkpt lat="48.26444" lon="3.31819">
        <ele>192</ele>
        <time>2013-09-29T09:10:45.000Z</time>
      </trkpt>
      <trkpt lat="48.26434" lon="3.31828">
        <ele>191</ele>
        <time>2013-09-29T09:10:46.000Z</time>
      </trkpt>
      <trkpt lat="48.26434" lon="3.31828">
        <ele>191</ele>
        <time>2013-09-29T09:10:49.000Z</time>
      </trkpt>
      <trkpt lat="48.26424" lon="3.31834">
        <ele>190</ele>
        <time>2013-09-29T09:10:50.000Z</time>
      </trkpt>
      <trkpt lat="48.26419" lon="3.31832">
        <ele>189</ele>
        <time>2013-09-29T09:10:51.000Z</time>
      </trkpt>
      <trkpt lat="48.26413" lon="3.3183">
        <ele>188</ele>
        <time>2013-09-29T09:10:52.000Z</time>
      </trkpt>
      <trkpt lat="48.26408" lon="3.31828">
        <ele>187</ele>
        <time>2013-09-29T09:10:53.000Z</time>
      </trkpt>
      <trkpt lat="48.26401" lon="3.31826">
        <ele>186</ele>
        <time>2013-09-29T09:10:54.000Z</time>
      </trkpt>
      <trkpt lat="48.26394" lon="3.31826">
        <ele>185</ele>
        <time>2013-09-29T09:10:55.000Z</time>
      </trkpt>
      <trkpt lat="48.26387" lon="3.31826">
        <ele>184</ele>
        <time>2013-09-29T09:10:56.000Z</time>
      </trkpt>
      <trkpt lat="48.2638" lon="3.31824">
        <ele>183</ele>
        <time>2013-09-29T09:10:57.000Z</time>
      </trkpt>
      <trkpt lat="48.26373" lon="3.31824">
        <ele>182</ele>
        <time>2013-09-29T09:10:58.000Z</time>
      </trkpt>
      <trkpt lat="48.26366" lon="3.31824">
        <ele>182</ele>
        <time>2013-09-29T09:10:59.000Z</time>
      </trkpt>
      <trkpt lat="48.26358" lon="3.31824">
        <ele>181</ele>
        <time>2013-09-29T09:11:00.000Z</time>
      </trkpt>
      <trkpt lat="48.26352" lon="3.31826">
        <ele>180</ele>
        <time>2013-09-29T09:11:01.000Z</time>
      </trkpt>
      <trkpt lat="48.26344" lon="3.31824">
        <ele>179</ele>
        <time>2013-09-29T09:11:02.000Z</time>
      </trkpt>
      <trkpt lat="48.26339" lon="3.31824">
        <ele>179</ele>
        <time>2013-09-29T09:11:03.000Z</time>
      </trkpt>
      <trkpt lat="48.26333" lon="3.31824">
        <ele>175</ele>
        <time>2013-09-29T09:11:04.000Z</time>
      </trkpt>
      <trkpt lat="48.26327" lon="3.31824">
        <ele>175</ele>
        <time>2013-09-29T09:11:05.000Z</time>
      </trkpt>
      <trkpt lat="48.26323" lon="3.31821">
        <ele>174</ele>
        <time>2013-09-29T09:11:06.000Z</time>
      </trkpt>
      <trkpt lat="48.2632" lon="3.31819">
        <ele>174</ele>
        <time>2013-09-29T09:11:07.000Z</time>
      </trkpt>
      <trkpt lat="48.26315" lon="3.31819">
        <ele>174</ele>
        <time>2013-09-29T09:11:08.000Z</time>
      </trkpt>
      <trkpt lat="48.26312" lon="3.31819">
        <ele>173</ele>
        <time>2013-09-29T09:11:09.000Z</time>
      </trkpt>
      <trkpt lat="48.26308" lon="3.31817">
        <ele>173</ele>
        <time>2013-09-29T09:11:10.000Z</time>
      </trkpt>
      <trkpt lat="48.26305" lon="3.31817">
        <ele>173</ele>
        <time>2013-09-29T09:11:11.000Z</time>
      </trkpt>
      <trkpt lat="48.263" lon="3.31817">
        <ele>172</ele>
        <time>2013-09-29T09:11:12.000Z</time>
      </trkpt>
      <trkpt lat="48.26295" lon="3.31817">
        <ele>172</ele>
        <time>2013-09-29T09:11:13.000Z</time>
      </trkpt>
      <trkpt lat="48.26291" lon="3.31817">
        <ele>172</ele>
        <time>2013-09-29T09:11:14.000Z</time>
      </trkpt>
      <trkpt lat="48.26286" lon="3.31817">
        <ele>171</ele>
        <time>2013-09-29T09:11:15.000Z</time>
      </trkpt>
      <trkpt lat="48.26281" lon="3.31813">
        <ele>171</ele>
        <time>2013-09-29T09:11:16.000Z</time>
      </trkpt>
      <trkpt lat="48.26277" lon="3.31811">
        <ele>171</ele>
        <time>2013-09-29T09:11:17.000Z</time>
      </trkpt>
      <trkpt lat="48.26271" lon="3.31809">
        <ele>170</ele>
        <time>2013-09-29T09:11:18.000Z</time>
      </trkpt>
      <trkpt lat="48.26266" lon="3.31806">
        <ele>170</ele>
        <time>2013-09-29T09:11:19.000Z</time>
      </trkpt>
      <trkpt lat="48.26262" lon="3.31804">
        <ele>170</ele>
        <time>2013-09-29T09:11:20.000Z</time>
      </trkpt>
      <trkpt lat="48.26256" lon="3.31802">
        <ele>170</ele>
        <time>2013-09-29T09:11:21.000Z</time>
      </trkpt>
      <trkpt lat="48.26252" lon="3.31798">
        <ele>170</ele>
        <time>2013-09-29T09:11:22.000Z</time>
      </trkpt>
      <trkpt lat="48.26248" lon="3.31796">
        <ele>165</ele>
        <time>2013-09-29T09:11:23.000Z</time>
      </trkpt>
      <trkpt lat="48.26244" lon="3.31791">
        <ele>165</ele>
        <time>2013-09-29T09:11:24.000Z</time>
      </trkpt>
      <trkpt lat="48.26239" lon="3.31787">
        <ele>164</ele>
        <time>2013-09-29T09:11:25.000Z</time>
      </trkpt>
      <trkpt lat="48.26235" lon="3.31783">
        <ele>164</ele>
        <time>2013-09-29T09:11:26.000Z</time>
      </trkpt>
      <trkpt lat="48.26231" lon="3.31779">
        <ele>164</ele>
        <time>2013-09-29T09:11:27.000Z</time>
      </trkpt>
      <trkpt lat="48.26225" lon="3.31772">
        <ele>164</ele>
        <time>2013-09-29T09:11:28.000Z</time>
      </trkpt>
      <trkpt lat="48.26221" lon="3.31768">
        <ele>164</ele>
        <time>2013-09-29T09:11:29.000Z</time>
      </trkpt>
      <trkpt lat="48.26216" lon="3.31761">
        <ele>163</ele>
        <time>2013-09-29T09:11:30.000Z</time>
      </trkpt>
      <trkpt lat="48.26212" lon="3.31757">
        <ele>163</ele>
        <time>2013-09-29T09:11:31.000Z</time>
      </trkpt>
      <trkpt lat="48.26209" lon="3.31753">
        <ele>163</ele>
        <time>2013-09-29T09:11:32.000Z</time>
      </trkpt>
      <trkpt lat="48.26206" lon="3.31746">
        <ele>161</ele>
        <time>2013-09-29T09:11:33.000Z</time>
      </trkpt>
      <trkpt lat="48.26204" lon="3.31742">
        <ele>161</ele>
        <time>2013-09-29T09:11:34.000Z</time>
      </trkpt>
      <trkpt lat="48.26203" lon="3.31738">
        <ele>161</ele>
        <time>2013-09-29T09:11:35.000Z</time>
      </trkpt>
      <trkpt lat="48.26202" lon="3.31731">
        <ele>161</ele>
        <time>2013-09-29T09:11:36.000Z</time>
      </trkpt>
      <trkpt lat="48.26203" lon="3.31727">
        <ele>161</ele>
        <time>2013-09-29T09:11:37.000Z</time>
      </trkpt>
      <trkpt lat="48.26203" lon="3.31721">
        <ele>160</ele>
        <time>2013-09-29T09:11:38.000Z</time>
      </trkpt>
      <trkpt lat="48.26204" lon="3.31716">
        <ele>160</ele>
        <time>2013-09-29T09:11:39.000Z</time>
      </trkpt>
      <trkpt lat="48.26204" lon="3.3171">
        <ele>160</ele>
        <time>2013-09-29T09:11:40.000Z</time>
      </trkpt>
      <trkpt lat="48.26206" lon="3.31703">
        <ele>160</ele>
        <time>2013-09-29T09:11:41.000Z</time>
      </trkpt>
      <trkpt lat="48.26208" lon="3.31695">
        <ele>160</ele>
        <time>2013-09-29T09:11:42.000Z</time>
      </trkpt>
      <trkpt lat="48.2621" lon="3.31686">
        <ele>160</ele>
        <time>2013-09-29T09:11:43.000Z</time>
      </trkpt>
      <trkpt lat="48.26216" lon="3.3168">
        <ele>160</ele>
        <time>2013-09-29T09:11:44.000Z</time>
      </trkpt>
      <trkpt lat="48.2622" lon="3.31673">
        <ele>160</ele>
        <time>2013-09-29T09:11:45.000Z</time>
      </trkpt>
      <trkpt lat="48.26225" lon="3.31667">
        <ele>160</ele>
        <time>2013-09-29T09:11:46.000Z</time>
      </trkpt>
      <trkpt lat="48.26231" lon="3.31663">
        <ele>157</ele>
        <time>2013-09-29T09:11:47.000Z</time>
      </trkpt>
      <trkpt lat="48.26236" lon="3.31656">
        <ele>157</ele>
        <time>2013-09-29T09:11:48.000Z</time>
      </trkpt>
      <trkpt lat="48.26241" lon="3.31652">
        <ele>157</ele>
        <time>2013-09-29T09:11:49.000Z</time>
      </trkpt>
      <trkpt lat="48.26247" lon="3.31645">
        <ele>156</ele>
        <time>2013-09-29T09:11:50.000Z</time>
      </trkpt>
      <trkpt lat="48.26251" lon="3.31639">
        <ele>160</ele>
        <time>2013-09-29T09:11:51.000Z</time>
      </trkpt>
      <trkpt lat="48.26256" lon="3.31633">
        <ele>160</ele>
        <time>2013-09-29T09:11:52.000Z</time>
      </trkpt>
      <trkpt lat="48.26261" lon="3.31626">
        <ele>159</ele>
        <time>2013-09-29T09:11:53.000Z</time>
      </trkpt>
      <trkpt lat="48.26265" lon="3.31618">
        <ele>159</ele>
        <time>2013-09-29T09:11:54.000Z</time>
      </trkpt>
      <trkpt lat="48.26268" lon="3.31611">
        <ele>159</ele>
        <time>2013-09-29T09:11:55.000Z</time>
      </trkpt>
      <trkpt lat="48.26272" lon="3.31605">
        <ele>159</ele>
        <time>2013-09-29T09:11:56.000Z</time>
      </trkpt>
      <trkpt lat="48.26275" lon="3.316">
        <ele>158</ele>
        <time>2013-09-29T09:11:57.000Z</time>
      </trkpt>
      <trkpt lat="48.26276" lon="3.31596">
        <ele>158</ele>
        <time>2013-09-29T09:11:58.000Z</time>
      </trkpt>
      <trkpt lat="48.26277" lon="3.31592">
        <ele>158</ele>
        <time>2013-09-29T09:11:59.000Z</time>
      </trkpt>
      <trkpt lat="48.26278" lon="3.31588">
        <ele>158</ele>
        <time>2013-09-29T09:12:00.000Z</time>
      </trkpt>
      <trkpt lat="48.26278" lon="3.31581">
        <ele>154</ele>
        <time>2013-09-29T09:12:02.000Z</time>
      </trkpt>
      <trkpt lat="48.26277" lon="3.31579">
        <ele>154</ele>
        <time>2013-09-29T09:12:03.000Z</time>
      </trkpt>
      <trkpt lat="48.26277" lon="3.31579">
        <ele>154</ele>
        <time>2013-09-29T09:12:08.000Z</time>
      </trkpt>
      <trkpt lat="48.26276" lon="3.3157">
        <ele>154</ele>
        <time>2013-09-29T09:12:09.000Z</time>
      </trkpt>
      <trkpt lat="48.26276" lon="3.3157">
        <ele>154</ele>
        <time>2013-09-29T09:13:10.000Z</time>
      </trkpt>
      <trkpt lat="48.26271" lon="3.31566">
        <ele>154</ele>
        <time>2013-09-29T09:13:11.000Z</time>
      </trkpt>
      <trkpt lat="48.26266" lon="3.31566">
        <ele>154</ele>
        <time>2013-09-29T09:13:12.000Z</time>
      </trkpt>
      <trkpt lat="48.26261" lon="3.31566">
        <ele>153</ele>
        <time>2013-09-29T09:13:13.000Z</time>
      </trkpt>
      <trkpt lat="48.26253" lon="3.31564">
        <ele>153</ele>
        <time>2013-09-29T09:13:14.000Z</time>
      </trkpt>
      <trkpt lat="48.26246" lon="3.31564">
        <ele>150</ele>
        <time>2013-09-29T09:13:15.000Z</time>
      </trkpt>
      <trkpt lat="48.26239" lon="3.31562">
        <ele>149</ele>
        <time>2013-09-29T09:13:16.000Z</time>
      </trkpt>
      <trkpt lat="48.26232" lon="3.3156">
        <ele>149</ele>
        <time>2013-09-29T09:13:17.000Z</time>
      </trkpt>
      <trkpt lat="48.26225" lon="3.31558">
        <ele>148</ele>
        <time>2013-09-29T09:13:18.000Z</time>
      </trkpt>
      <trkpt lat="48.2622" lon="3.31553">
        <ele>148</ele>
        <time>2013-09-29T09:13:19.000Z</time>
      </trkpt>
      <trkpt lat="48.26213" lon="3.31551">
        <ele>147</ele>
        <time>2013-09-29T09:13:20.000Z</time>
      </trkpt>
      <trkpt lat="48.26206" lon="3.31547">
        <ele>147</ele>
        <time>2013-09-29T09:13:21.000Z</time>
      </trkpt>
      <trkpt lat="48.262" lon="3.31545">
        <ele>146</ele>
        <time>2013-09-29T09:13:22.000Z</time>
      </trkpt>
      <trkpt lat="48.26193" lon="3.3154">
        <ele>146</ele>
        <time>2013-09-29T09:13:23.000Z</time>
      </trkpt>
      <trkpt lat="48.26187" lon="3.31538">
        <ele>146</ele>
        <time>2013-09-29T09:13:24.000Z</time>
      </trkpt>
      <trkpt lat="48.2618" lon="3.31534">
        <ele>146</ele>
        <time>2013-09-29T09:13:25.000Z</time>
      </trkpt>
      <trkpt lat="48.26173" lon="3.31532">
        <ele>145</ele>
        <time>2013-09-29T09:13:26.000Z</time>
      </trkpt>
      <trkpt lat="48.26165" lon="3.3153">
        <ele>144</ele>
        <time>2013-09-29T09:13:27.000Z</time>
      </trkpt>
      <trkpt lat="48.26158" lon="3.31527">
        <ele>144</ele>
        <time>2013-09-29T09:13:28.000Z</time>
      </trkpt>
      <trkpt lat="48.26151" lon="3.31523">
        <ele>144</ele>
        <time>2013-09-29T09:13:29.000Z</time>
      </trkpt>
      <trkpt lat="48.26145" lon="3.31521">
        <ele>144</ele>
        <time>2013-09-29T09:13:30.000Z</time>
      </trkpt>
      <trkpt lat="48.26137" lon="3.31519">
        <ele>144</ele>
        <time>2013-09-29T09:13:31.000Z</time>
      </trkpt>
      <trkpt lat="48.26131" lon="3.31515">
        <ele>144</ele>
        <time>2013-09-29T09:13:32.000Z</time>
      </trkpt>
      <trkpt lat="48.26124" lon="3.31512">
        <ele>144</ele>
        <time>2013-09-29T09:13:33.000Z</time>
      </trkpt>
      <trkpt lat="48.26118" lon="3.31508">
        <ele>144</ele>
        <time>2013-09-29T09:13:34.000Z</time>
      </trkpt>
      <trkpt lat="48.26112" lon="3.31504">
        <ele>144</ele>
        <time>2013-09-29T09:13:35.000Z</time>
      </trkpt>
      <trkpt lat="48.26106" lon="3.31502">
        <ele>144</ele>
        <time>2013-09-29T09:13:36.000Z</time>
      </trkpt>
      <trkpt lat="48.261" lon="3.315">
        <ele>142</ele>
        <time>2013-09-29T09:13:37.000Z</time>
      </trkpt>
      <trkpt lat="48.26093" lon="3.31497">
        <ele>143</ele>
        <time>2013-09-29T09:13:38.000Z</time>
      </trkpt>
      <trkpt lat="48.26087" lon="3.31493">
        <ele>143</ele>
        <time>2013-09-29T09:13:39.000Z</time>
      </trkpt>
      <trkpt lat="48.26082" lon="3.31491">
        <ele>143</ele>
        <time>2013-09-29T09:13:40.000Z</time>
      </trkpt>
      <trkpt lat="48.26076" lon="3.31487">
        <ele>143</ele>
        <time>2013-09-29T09:13:41.000Z</time>
      </trkpt>
      <trkpt lat="48.26071" lon="3.31482">
        <ele>143</ele>
        <time>2013-09-29T09:13:42.000Z</time>
      </trkpt>
      <trkpt lat="48.26065" lon="3.31482">
        <ele>143</ele>
        <time>2013-09-29T09:13:43.000Z</time>
      </trkpt>
      <trkpt lat="48.2606" lon="3.3148">
        <ele>142</ele>
        <time>2013-09-29T09:13:44.000Z</time>
      </trkpt>
      <trkpt lat="48.26055" lon="3.3148">
        <ele>142</ele>
        <time>2013-09-29T09:13:45.000Z</time>
      </trkpt>
      <trkpt lat="48.26049" lon="3.3148">
        <ele>142</ele>
        <time>2013-09-29T09:13:46.000Z</time>
      </trkpt>
      <trkpt lat="48.26045" lon="3.31482">
        <ele>143</ele>
        <time>2013-09-29T09:13:47.000Z</time>
      </trkpt>
      <trkpt lat="48.2604" lon="3.31482">
        <ele>143</ele>
        <time>2013-09-29T09:13:48.000Z</time>
      </trkpt>
      <trkpt lat="48.26034" lon="3.31485">
        <ele>143</ele>
        <time>2013-09-29T09:13:49.000Z</time>
      </trkpt>
      <trkpt lat="48.2603" lon="3.31485">
        <ele>143</ele>
        <time>2013-09-29T09:13:50.000Z</time>
      </trkpt>
      <trkpt lat="48.26026" lon="3.31487">
        <ele>143</ele>
        <time>2013-09-29T09:13:51.000Z</time>
      </trkpt>
      <trkpt lat="48.26023" lon="3.31489">
        <ele>143</ele>
        <time>2013-09-29T09:13:52.000Z</time>
      </trkpt>
      <trkpt lat="48.26019" lon="3.31491">
        <ele>144</ele>
        <time>2013-09-29T09:13:53.000Z</time>
      </trkpt>
      <trkpt lat="48.26016" lon="3.31493">
        <ele>144</ele>
        <time>2013-09-29T09:13:54.000Z</time>
      </trkpt>
      <trkpt lat="48.26014" lon="3.31495">
        <ele>144</ele>
        <time>2013-09-29T09:13:55.000Z</time>
      </trkpt>
      <trkpt lat="48.26011" lon="3.31497">
        <ele>145</ele>
        <time>2013-09-29T09:13:56.000Z</time>
      </trkpt>
      <trkpt lat="48.26007" lon="3.315">
        <ele>145</ele>
        <time>2013-09-29T09:13:57.000Z</time>
      </trkpt>
      <trkpt lat="48.26005" lon="3.31502">
        <ele>146</ele>
        <time>2013-09-29T09:13:58.000Z</time>
      </trkpt>
      <trkpt lat="48.26002" lon="3.31506">
        <ele>146</ele>
        <time>2013-09-29T09:13:59.000Z</time>
      </trkpt>
      <trkpt lat="48.25999" lon="3.3151">
        <ele>147</ele>
        <time>2013-09-29T09:14:01.000Z</time>
      </trkpt>
      <trkpt lat="48.25997" lon="3.3151">
        <ele>147</ele>
        <time>2013-09-29T09:14:02.000Z</time>
      </trkpt>
      <trkpt lat="48.25992" lon="3.3151">
        <ele>148</ele>
        <time>2013-09-29T09:14:04.000Z</time>
      </trkpt>
      <trkpt lat="48.2599" lon="3.31508">
        <ele>147</ele>
        <time>2013-09-29T09:14:05.000Z</time>
      </trkpt>
      <trkpt lat="48.25988" lon="3.31504">
        <ele>147</ele>
        <time>2013-09-29T09:14:06.000Z</time>
      </trkpt>
      <trkpt lat="48.25985" lon="3.315">
        <ele>145</ele>
        <time>2013-09-29T09:14:07.000Z</time>
      </trkpt>
      <trkpt lat="48.25981" lon="3.31495">
        <ele>145</ele>
        <time>2013-09-29T09:14:08.000Z</time>
      </trkpt>
      <trkpt lat="48.25977" lon="3.31489">
        <ele>145</ele>
        <time>2013-09-29T09:14:09.000Z</time>
      </trkpt>
      <trkpt lat="48.25973" lon="3.31482">
        <ele>144</ele>
        <time>2013-09-29T09:14:10.000Z</time>
      </trkpt>
      <trkpt lat="48.25969" lon="3.31474">
        <ele>144</ele>
        <time>2013-09-29T09:14:11.000Z</time>
      </trkpt>
      <trkpt lat="48.25966" lon="3.31467">
        <ele>144</ele>
        <time>2013-09-29T09:14:12.000Z</time>
      </trkpt>
      <trkpt lat="48.25961" lon="3.31463">
        <ele>143</ele>
        <time>2013-09-29T09:14:13.000Z</time>
      </trkpt>
      <trkpt lat="48.25957" lon="3.31457">
        <ele>143</ele>
        <time>2013-09-29T09:14:14.000Z</time>
      </trkpt>
      <trkpt lat="48.25953" lon="3.3145">
        <ele>143</ele>
        <time>2013-09-29T09:14:15.000Z</time>
      </trkpt>
      <trkpt lat="48.25948" lon="3.31446">
        <ele>143</ele>
        <time>2013-09-29T09:14:16.000Z</time>
      </trkpt>
      <trkpt lat="48.25943" lon="3.31437">
        <ele>142</ele>
        <time>2013-09-29T09:14:17.000Z</time>
      </trkpt>
      <trkpt lat="48.2594" lon="3.31429">
        <ele>142</ele>
        <time>2013-09-29T09:14:18.000Z</time>
      </trkpt>
      <trkpt lat="48.25936" lon="3.31418">
        <ele>141</ele>
        <time>2013-09-29T09:14:19.000Z</time>
      </trkpt>
      <trkpt lat="48.25931" lon="3.31409">
        <ele>138</ele>
        <time>2013-09-29T09:14:20.000Z</time>
      </trkpt>
      <trkpt lat="48.25926" lon="3.31401">
        <ele>138</ele>
        <time>2013-09-29T09:14:21.000Z</time>
      </trkpt>
      <trkpt lat="48.25921" lon="3.31394">
        <ele>137</ele>
        <time>2013-09-29T09:14:22.000Z</time>
      </trkpt>
      <trkpt lat="48.25916" lon="3.31386">
        <ele>135</ele>
        <time>2013-09-29T09:14:23.000Z</time>
      </trkpt>
      <trkpt lat="48.25911" lon="3.31379">
        <ele>135</ele>
        <time>2013-09-29T09:14:24.000Z</time>
      </trkpt>
      <trkpt lat="48.25906" lon="3.31373">
        <ele>134</ele>
        <time>2013-09-29T09:14:25.000Z</time>
      </trkpt>
      <trkpt lat="48.259" lon="3.31367">
        <ele>134</ele>
        <time>2013-09-29T09:14:26.000Z</time>
      </trkpt>
      <trkpt lat="48.25895" lon="3.3136">
        <ele>134</ele>
        <time>2013-09-29T09:14:27.000Z</time>
      </trkpt>
      <trkpt lat="48.25889" lon="3.31354">
        <ele>133</ele>
        <time>2013-09-29T09:14:28.000Z</time>
      </trkpt>
      <trkpt lat="48.25884" lon="3.31347">
        <ele>133</ele>
        <time>2013-09-29T09:14:29.000Z</time>
      </trkpt>
      <trkpt lat="48.25879" lon="3.31343">
        <ele>133</ele>
        <time>2013-09-29T09:14:30.000Z</time>
      </trkpt>
      <trkpt lat="48.25873" lon="3.31336">
        <ele>132</ele>
        <time>2013-09-29T09:14:31.000Z</time>
      </trkpt>
      <trkpt lat="48.25868" lon="3.31332">
        <ele>128</ele>
        <time>2013-09-29T09:14:32.000Z</time>
      </trkpt>
      <trkpt lat="48.25862" lon="3.31326">
        <ele>128</ele>
        <time>2013-09-29T09:14:33.000Z</time>
      </trkpt>
      <trkpt lat="48.25856" lon="3.31321">
        <ele>128</ele>
        <time>2013-09-29T09:14:34.000Z</time>
      </trkpt>
      <trkpt lat="48.25851" lon="3.31317">
        <ele>128</ele>
        <time>2013-09-29T09:14:35.000Z</time>
      </trkpt>
      <trkpt lat="48.25845" lon="3.31313">
        <ele>127</ele>
        <time>2013-09-29T09:14:36.000Z</time>
      </trkpt>
      <trkpt lat="48.2584" lon="3.31309">
        <ele>127</ele>
        <time>2013-09-29T09:14:37.000Z</time>
      </trkpt>
      <trkpt lat="48.25835" lon="3.31304">
        <ele>127</ele>
        <time>2013-09-29T09:14:38.000Z</time>
      </trkpt>
      <trkpt lat="48.25829" lon="3.31302">
        <ele>125</ele>
        <time>2013-09-29T09:14:39.000Z</time>
      </trkpt>
      <trkpt lat="48.25823" lon="3.313">
        <ele>124</ele>
        <time>2013-09-29T09:14:40.000Z</time>
      </trkpt>
      <trkpt lat="48.25814" lon="3.31302">
        <ele>124</ele>
        <time>2013-09-29T09:14:41.000Z</time>
      </trkpt>
      <trkpt lat="48.25806" lon="3.31302">
        <ele>124</ele>
        <time>2013-09-29T09:14:42.000Z</time>
      </trkpt>
      <trkpt lat="48.25795" lon="3.31304">
        <ele>124</ele>
        <time>2013-09-29T09:14:43.000Z</time>
      </trkpt>
      <trkpt lat="48.25786" lon="3.31304">
        <ele>124</ele>
        <time>2013-09-29T09:14:44.000Z</time>
      </trkpt>
      <trkpt lat="48.25778" lon="3.31302">
        <ele>123</ele>
        <time>2013-09-29T09:14:45.000Z</time>
      </trkpt>
      <trkpt lat="48.25768" lon="3.31298">
        <ele>123</ele>
        <time>2013-09-29T09:14:46.000Z</time>
      </trkpt>
      <trkpt lat="48.25759" lon="3.31289">
        <ele>123</ele>
        <time>2013-09-29T09:14:47.000Z</time>
      </trkpt>
      <trkpt lat="48.2575" lon="3.31281">
        <ele>121</ele>
        <time>2013-09-29T09:14:48.000Z</time>
      </trkpt>
      <trkpt lat="48.25742" lon="3.3127">
        <ele>120</ele>
        <time>2013-09-29T09:14:49.000Z</time>
      </trkpt>
      <trkpt lat="48.25735" lon="3.31259">
        <ele>120</ele>
        <time>2013-09-29T09:14:50.000Z</time>
      </trkpt>
      <trkpt lat="48.25729" lon="3.31246">
        <ele>118</ele>
        <time>2013-09-29T09:14:51.000Z</time>
      </trkpt>
      <trkpt lat="48.25722" lon="3.31236">
        <ele>118</ele>
        <time>2013-09-29T09:14:52.000Z</time>
      </trkpt>
      <trkpt lat="48.25717" lon="3.31223">
        <ele>117</ele>
        <time>2013-09-29T09:14:53.000Z</time>
      </trkpt>
      <trkpt lat="48.25712" lon="3.3121">
        <ele>117</ele>
        <time>2013-09-29T09:14:54.000Z</time>
      </trkpt>
      <trkpt lat="48.25707" lon="3.31197">
        <ele>117</ele>
        <time>2013-09-29T09:14:55.000Z</time>
      </trkpt>
      <trkpt lat="48.25703" lon="3.31184">
        <ele>117</ele>
        <time>2013-09-29T09:14:56.000Z</time>
      </trkpt>
      <trkpt lat="48.25697" lon="3.31171">
        <ele>116</ele>
        <time>2013-09-29T09:14:57.000Z</time>
      </trkpt>
      <trkpt lat="48.25694" lon="3.31161">
        <ele>114</ele>
        <time>2013-09-29T09:14:58.000Z</time>
      </trkpt>
      <trkpt lat="48.2569" lon="3.31148">
        <ele>114</ele>
        <time>2013-09-29T09:14:59.000Z</time>
      </trkpt>
      <trkpt lat="48.25686" lon="3.31135">
        <ele>114</ele>
        <time>2013-09-29T09:15:00.000Z</time>
      </trkpt>
      <trkpt lat="48.25681" lon="3.31124">
        <ele>114</ele>
        <time>2013-09-29T09:15:01.000Z</time>
      </trkpt>
      <trkpt lat="48.25678" lon="3.31113">
        <ele>114</ele>
        <time>2013-09-29T09:15:02.000Z</time>
      </trkpt>
      <trkpt lat="48.25674" lon="3.31103">
        <ele>113</ele>
        <time>2013-09-29T09:15:03.000Z</time>
      </trkpt>
      <trkpt lat="48.25671" lon="3.31094">
        <ele>113</ele>
        <time>2013-09-29T09:15:04.000Z</time>
      </trkpt>
      <trkpt lat="48.25667" lon="3.31083">
        <ele>112</ele>
        <time>2013-09-29T09:15:05.000Z</time>
      </trkpt>
      <trkpt lat="48.25664" lon="3.31073">
        <ele>112</ele>
        <time>2013-09-29T09:15:06.000Z</time>
      </trkpt>
      <trkpt lat="48.25661" lon="3.31064">
        <ele>112</ele>
        <time>2013-09-29T09:15:07.000Z</time>
      </trkpt>
      <trkpt lat="48.25658" lon="3.31055">
        <ele>112</ele>
        <time>2013-09-29T09:15:08.000Z</time>
      </trkpt>
      <trkpt lat="48.25655" lon="3.31045">
        <ele>112</ele>
        <time>2013-09-29T09:15:09.000Z</time>
      </trkpt>
      <trkpt lat="48.25652" lon="3.31036">
        <ele>112</ele>
        <time>2013-09-29T09:15:10.000Z</time>
      </trkpt>
      <trkpt lat="48.25649" lon="3.31028">
        <ele>112</ele>
        <time>2013-09-29T09:15:11.000Z</time>
      </trkpt>
      <trkpt lat="48.25646" lon="3.31019">
        <ele>112</ele>
        <time>2013-09-29T09:15:12.000Z</time>
      </trkpt>
      <trkpt lat="48.25644" lon="3.31008">
        <ele>112</ele>
        <time>2013-09-29T09:15:13.000Z</time>
      </trkpt>
      <trkpt lat="48.25641" lon="3.31">
        <ele>111</ele>
        <time>2013-09-29T09:15:14.000Z</time>
      </trkpt>
      <trkpt lat="48.25638" lon="3.30991">
        <ele>111</ele>
        <time>2013-09-29T09:15:15.000Z</time>
      </trkpt>
      <trkpt lat="48.25635" lon="3.30985">
        <ele>111</ele>
        <time>2013-09-29T09:15:16.000Z</time>
      </trkpt>
      <trkpt lat="48.25633" lon="3.30976">
        <ele>111</ele>
        <time>2013-09-29T09:15:17.000Z</time>
      </trkpt>
      <trkpt lat="48.2563" lon="3.30967">
        <ele>111</ele>
        <time>2013-09-29T09:15:18.000Z</time>
      </trkpt>
      <trkpt lat="48.25627" lon="3.30957">
        <ele>111</ele>
        <time>2013-09-29T09:15:19.000Z</time>
      </trkpt>
      <trkpt lat="48.25624" lon="3.30948">
        <ele>111</ele>
        <time>2013-09-29T09:15:20.000Z</time>
      </trkpt>
      <trkpt lat="48.25621" lon="3.3094">
        <ele>111</ele>
        <time>2013-09-29T09:15:21.000Z</time>
      </trkpt>
      <trkpt lat="48.25619" lon="3.30931">
        <ele>111</ele>
        <time>2013-09-29T09:15:22.000Z</time>
      </trkpt>
      <trkpt lat="48.25616" lon="3.30922">
        <ele>111</ele>
        <time>2013-09-29T09:15:23.000Z</time>
      </trkpt>
      <trkpt lat="48.25614" lon="3.30916">
        <ele>109</ele>
        <time>2013-09-29T09:15:24.000Z</time>
      </trkpt>
      <trkpt lat="48.25611" lon="3.30907">
        <ele>109</ele>
        <time>2013-09-29T09:15:25.000Z</time>
      </trkpt>
      <trkpt lat="48.25608" lon="3.30899">
        <ele>109</ele>
        <time>2013-09-29T09:15:26.000Z</time>
      </trkpt>
      <trkpt lat="48.25605" lon="3.3089">
        <ele>109</ele>
        <time>2013-09-29T09:15:27.000Z</time>
      </trkpt>
      <trkpt lat="48.25603" lon="3.30882">
        <ele>109</ele>
        <time>2013-09-29T09:15:28.000Z</time>
      </trkpt>
      <trkpt lat="48.256" lon="3.30873">
        <ele>109</ele>
        <time>2013-09-29T09:15:29.000Z</time>
      </trkpt>
      <trkpt lat="48.25598" lon="3.30864">
        <ele>109</ele>
        <time>2013-09-29T09:15:30.000Z</time>
      </trkpt>
      <trkpt lat="48.25594" lon="3.30856">
        <ele>108</ele>
        <time>2013-09-29T09:15:31.000Z</time>
      </trkpt>
      <trkpt lat="48.25592" lon="3.30847">
        <ele>108</ele>
        <time>2013-09-29T09:15:32.000Z</time>
      </trkpt>
      <trkpt lat="48.25589" lon="3.30839">
        <ele>108</ele>
        <time>2013-09-29T09:15:33.000Z</time>
      </trkpt>
      <trkpt lat="48.25587" lon="3.3083">
        <ele>108</ele>
        <time>2013-09-29T09:15:34.000Z</time>
      </trkpt>
      <trkpt lat="48.25584" lon="3.30822">
        <ele>107</ele>
        <time>2013-09-29T09:15:35.000Z</time>
      </trkpt>
      <trkpt lat="48.25582" lon="3.30813">
        <ele>107</ele>
        <time>2013-09-29T09:15:36.000Z</time>
      </trkpt>
      <trkpt lat="48.25578" lon="3.30804">
        <ele>106</ele>
        <time>2013-09-29T09:15:37.000Z</time>
      </trkpt>
      <trkpt lat="48.25575" lon="3.30796">
        <ele>106</ele>
        <time>2013-09-29T09:15:38.000Z</time>
      </trkpt>
      <trkpt lat="48.25572" lon="3.30785">
        <ele>106</ele>
        <time>2013-09-29T09:15:39.000Z</time>
      </trkpt>
      <trkpt lat="48.2557" lon="3.30776">
        <ele>105</ele>
        <time>2013-09-29T09:15:40.000Z</time>
      </trkpt>
      <trkpt lat="48.25567" lon="3.30768">
        <ele>105</ele>
        <time>2013-09-29T09:15:41.000Z</time>
      </trkpt>
      <trkpt lat="48.25563" lon="3.30759">
        <ele>105</ele>
        <time>2013-09-29T09:15:42.000Z</time>
      </trkpt>
      <trkpt lat="48.2556" lon="3.30751">
        <ele>105</ele>
        <time>2013-09-29T09:15:43.000Z</time>
      </trkpt>
      <trkpt lat="48.25558" lon="3.30742">
        <ele>103</ele>
        <time>2013-09-29T09:15:44.000Z</time>
      </trkpt>
      <trkpt lat="48.25555" lon="3.30736">
        <ele>103</ele>
        <time>2013-09-29T09:15:45.000Z</time>
      </trkpt>
      <trkpt lat="48.2555" lon="3.30729">
        <ele>103</ele>
        <time>2013-09-29T09:15:46.000Z</time>
      </trkpt>
      <trkpt lat="48.25546" lon="3.30725">
        <ele>103</ele>
        <time>2013-09-29T09:15:47.000Z</time>
      </trkpt>
      <trkpt lat="48.25542" lon="3.30723">
        <ele>103</ele>
        <time>2013-09-29T09:15:48.000Z</time>
      </trkpt>
      <trkpt lat="48.25536" lon="3.30721">
        <ele>103</ele>
        <time>2013-09-29T09:15:49.000Z</time>
      </trkpt>
      <trkpt lat="48.25531" lon="3.30719">
        <ele>103</ele>
        <time>2013-09-29T09:15:50.000Z</time>
      </trkpt>
      <trkpt lat="48.25525" lon="3.30716">
        <ele>103</ele>
        <time>2013-09-29T09:15:51.000Z</time>
      </trkpt>
      <trkpt lat="48.25519" lon="3.30716">
        <ele>103</ele>
        <time>2013-09-29T09:15:52.000Z</time>
      </trkpt>
      <trkpt lat="48.25514" lon="3.30714">
        <ele>103</ele>
        <time>2013-09-29T09:15:53.000Z</time>
      </trkpt>
      <trkpt lat="48.25509" lon="3.30712">
        <ele>103</ele>
        <time>2013-09-29T09:15:54.000Z</time>
      </trkpt>
      <trkpt lat="48.25503" lon="3.3071">
        <ele>103</ele>
        <time>2013-09-29T09:15:55.000Z</time>
      </trkpt>
      <trkpt lat="48.25497" lon="3.30708">
        <ele>102</ele>
        <time>2013-09-29T09:15:56.000Z</time>
      </trkpt>
      <trkpt lat="48.25491" lon="3.30706">
        <ele>102</ele>
        <time>2013-09-29T09:15:57.000Z</time>
      </trkpt>
      <trkpt lat="48.25485" lon="3.30703">
        <ele>102</ele>
        <time>2013-09-29T09:15:58.000Z</time>
      </trkpt>
      <trkpt lat="48.25479" lon="3.30699">
        <ele>102</ele>
        <time>2013-09-29T09:15:59.000Z</time>
      </trkpt>
      <trkpt lat="48.25472" lon="3.30697">
        <ele>102</ele>
        <time>2013-09-29T09:16:00.000Z</time>
      </trkpt>
      <trkpt lat="48.25467" lon="3.30695">
        <ele>102</ele>
        <time>2013-09-29T09:16:01.000Z</time>
      </trkpt>
      <trkpt lat="48.2546" lon="3.30691">
        <ele>102</ele>
        <time>2013-09-29T09:16:02.000Z</time>
      </trkpt>
      <trkpt lat="48.25454" lon="3.30688">
        <ele>102</ele>
        <time>2013-09-29T09:16:03.000Z</time>
      </trkpt>
      <trkpt lat="48.25447" lon="3.30688">
        <ele>102</ele>
        <time>2013-09-29T09:16:04.000Z</time>
      </trkpt>
      <trkpt lat="48.25441" lon="3.30691">
        <ele>102</ele>
        <time>2013-09-29T09:16:05.000Z</time>
      </trkpt>
      <trkpt lat="48.25435" lon="3.30691">
        <ele>102</ele>
        <time>2013-09-29T09:16:06.000Z</time>
      </trkpt>
      <trkpt lat="48.25428" lon="3.30693">
        <ele>102</ele>
        <time>2013-09-29T09:16:07.000Z</time>
      </trkpt>
      <trkpt lat="48.25422" lon="3.30695">
        <ele>102</ele>
        <time>2013-09-29T09:16:08.000Z</time>
      </trkpt>
      <trkpt lat="48.25416" lon="3.30699">
        <ele>102</ele>
        <time>2013-09-29T09:16:09.000Z</time>
      </trkpt>
      <trkpt lat="48.2541" lon="3.30701">
        <ele>102</ele>
        <time>2013-09-29T09:16:10.000Z</time>
      </trkpt>
      <trkpt lat="48.25403" lon="3.30703">
        <ele>102</ele>
        <time>2013-09-29T09:16:11.000Z</time>
      </trkpt>
      <trkpt lat="48.25397" lon="3.30708">
        <ele>102</ele>
        <time>2013-09-29T09:16:12.000Z</time>
      </trkpt>
      <trkpt lat="48.25392" lon="3.3071">
        <ele>102</ele>
        <time>2013-09-29T09:16:13.000Z</time>
      </trkpt>
      <trkpt lat="48.25385" lon="3.30714">
        <ele>102</ele>
        <time>2013-09-29T09:16:14.000Z</time>
      </trkpt>
      <trkpt lat="48.25379" lon="3.30716">
        <ele>102</ele>
        <time>2013-09-29T09:16:15.000Z</time>
      </trkpt>
      <trkpt lat="48.25373" lon="3.30721">
        <ele>102</ele>
        <time>2013-09-29T09:16:16.000Z</time>
      </trkpt>
      <trkpt lat="48.25367" lon="3.30723">
        <ele>102</ele>
        <time>2013-09-29T09:16:17.000Z</time>
      </trkpt>
      <trkpt lat="48.25361" lon="3.30727">
        <ele>102</ele>
        <time>2013-09-29T09:16:18.000Z</time>
      </trkpt>
      <trkpt lat="48.25355" lon="3.30731">
        <ele>102</ele>
        <time>2013-09-29T09:16:19.000Z</time>
      </trkpt>
      <trkpt lat="48.25349" lon="3.30734">
        <ele>102</ele>
        <time>2013-09-29T09:16:20.000Z</time>
      </trkpt>
      <trkpt lat="48.25342" lon="3.30738">
        <ele>102</ele>
        <time>2013-09-29T09:16:21.000Z</time>
      </trkpt>
      <trkpt lat="48.25337" lon="3.30742">
        <ele>103</ele>
        <time>2013-09-29T09:16:22.000Z</time>
      </trkpt>
      <trkpt lat="48.2533" lon="3.30744">
        <ele>102</ele>
        <time>2013-09-29T09:16:23.000Z</time>
      </trkpt>
      <trkpt lat="48.25324" lon="3.30749">
        <ele>102</ele>
        <time>2013-09-29T09:16:24.000Z</time>
      </trkpt>
      <trkpt lat="48.25318" lon="3.30753">
        <ele>103</ele>
        <time>2013-09-29T09:16:25.000Z</time>
      </trkpt>
      <trkpt lat="48.25312" lon="3.30755">
        <ele>103</ele>
        <time>2013-09-29T09:16:26.000Z</time>
      </trkpt>
      <trkpt lat="48.25306" lon="3.30759">
        <ele>103</ele>
        <time>2013-09-29T09:16:27.000Z</time>
      </trkpt>
      <trkpt lat="48.25299" lon="3.30761">
        <ele>103</ele>
        <time>2013-09-29T09:16:28.000Z</time>
      </trkpt>
      <trkpt lat="48.25294" lon="3.30766">
        <ele>103</ele>
        <time>2013-09-29T09:16:29.000Z</time>
      </trkpt>
      <trkpt lat="48.25288" lon="3.30768">
        <ele>103</ele>
        <time>2013-09-29T09:16:30.000Z</time>
      </trkpt>
      <trkpt lat="48.25281" lon="3.3077">
        <ele>103</ele>
        <time>2013-09-29T09:16:31.000Z</time>
      </trkpt>
      <trkpt lat="48.25275" lon="3.30774">
        <ele>103</ele>
        <time>2013-09-29T09:16:32.000Z</time>
      </trkpt>
      <trkpt lat="48.25269" lon="3.30776">
        <ele>103</ele>
        <time>2013-09-29T09:16:33.000Z</time>
      </trkpt>
      <trkpt lat="48.25263" lon="3.30781">
        <ele>103</ele>
        <time>2013-09-29T09:16:34.000Z</time>
      </trkpt>
      <trkpt lat="48.25256" lon="3.30783">
        <ele>103</ele>
        <time>2013-09-29T09:16:35.000Z</time>
      </trkpt>
      <trkpt lat="48.25249" lon="3.30787">
        <ele>103</ele>
        <time>2013-09-29T09:16:36.000Z</time>
      </trkpt>
      <trkpt lat="48.25243" lon="3.30791">
        <ele>103</ele>
        <time>2013-09-29T09:16:37.000Z</time>
      </trkpt>
      <trkpt lat="48.25235" lon="3.30794">
        <ele>103</ele>
        <time>2013-09-29T09:16:38.000Z</time>
      </trkpt>
      <trkpt lat="48.25229" lon="3.30796">
        <ele>103</ele>
        <time>2013-09-29T09:16:39.000Z</time>
      </trkpt>
      <trkpt lat="48.25222" lon="3.30798">
        <ele>103</ele>
        <time>2013-09-29T09:16:40.000Z</time>
      </trkpt>
      <trkpt lat="48.25217" lon="3.308">
        <ele>103</ele>
        <time>2013-09-29T09:16:41.000Z</time>
      </trkpt>
      <trkpt lat="48.25211" lon="3.30804">
        <ele>103</ele>
        <time>2013-09-29T09:16:42.000Z</time>
      </trkpt>
      <trkpt lat="48.25206" lon="3.30806">
        <ele>103</ele>
        <time>2013-09-29T09:16:43.000Z</time>
      </trkpt>
      <trkpt lat="48.25202" lon="3.30811">
        <ele>103</ele>
        <time>2013-09-29T09:16:44.000Z</time>
      </trkpt>
      <trkpt lat="48.25199" lon="3.30815">
        <ele>103</ele>
        <time>2013-09-29T09:16:45.000Z</time>
      </trkpt>
      <trkpt lat="48.25195" lon="3.30819">
        <ele>103</ele>
        <time>2013-09-29T09:16:46.000Z</time>
      </trkpt>
      <trkpt lat="48.25192" lon="3.30824">
        <ele>103</ele>
        <time>2013-09-29T09:16:47.000Z</time>
      </trkpt>
      <trkpt lat="48.25189" lon="3.30826">
        <ele>103</ele>
        <time>2013-09-29T09:16:48.000Z</time>
      </trkpt>
      <trkpt lat="48.25186" lon="3.30828">
        <ele>103</ele>
        <time>2013-09-29T09:16:49.000Z</time>
      </trkpt>
      <trkpt lat="48.25181" lon="3.30828">
        <ele>103</ele>
        <time>2013-09-29T09:16:50.000Z</time>
      </trkpt>
      <trkpt lat="48.25178" lon="3.30828">
        <ele>103</ele>
        <time>2013-09-29T09:16:51.000Z</time>
      </trkpt>
      <trkpt lat="48.25175" lon="3.30828">
        <ele>103</ele>
        <time>2013-09-29T09:16:52.000Z</time>
      </trkpt>
      <trkpt lat="48.25171" lon="3.30828">
        <ele>103</ele>
        <time>2013-09-29T09:16:53.000Z</time>
      </trkpt>
      <trkpt lat="48.25167" lon="3.30828">
        <ele>103</ele>
        <time>2013-09-29T09:16:54.000Z</time>
      </trkpt>
      <trkpt lat="48.25164" lon="3.30828">
        <ele>103</ele>
        <time>2013-09-29T09:16:55.000Z</time>
      </trkpt>
      <trkpt lat="48.2516" lon="3.30828">
        <ele>102</ele>
        <time>2013-09-29T09:16:56.000Z</time>
      </trkpt>
      <trkpt lat="48.25157" lon="3.30828">
        <ele>102</ele>
        <time>2013-09-29T09:16:57.000Z</time>
      </trkpt>
      <trkpt lat="48.25153" lon="3.30828">
        <ele>102</ele>
        <time>2013-09-29T09:16:58.000Z</time>
      </trkpt>
      <trkpt lat="48.25148" lon="3.30826">
        <ele>102</ele>
        <time>2013-09-29T09:16:59.000Z</time>
      </trkpt>
      <trkpt lat="48.25144" lon="3.30826">
        <ele>102</ele>
        <time>2013-09-29T09:17:00.000Z</time>
      </trkpt>
      <trkpt lat="48.25138" lon="3.30826">
        <ele>101</ele>
        <time>2013-09-29T09:17:01.000Z</time>
      </trkpt>
      <trkpt lat="48.25133" lon="3.30824">
        <ele>101</ele>
        <time>2013-09-29T09:17:02.000Z</time>
      </trkpt>
      <trkpt lat="48.25127" lon="3.30824">
        <ele>101</ele>
        <time>2013-09-29T09:17:03.000Z</time>
      </trkpt>
      <trkpt lat="48.25121" lon="3.30824">
        <ele>101</ele>
        <time>2013-09-29T09:17:04.000Z</time>
      </trkpt>
      <trkpt lat="48.25116" lon="3.30824">
        <ele>101</ele>
        <time>2013-09-29T09:17:05.000Z</time>
      </trkpt>
      <trkpt lat="48.25109" lon="3.30824">
        <ele>101</ele>
        <time>2013-09-29T09:17:06.000Z</time>
      </trkpt>
      <trkpt lat="48.25103" lon="3.30826">
        <ele>101</ele>
        <time>2013-09-29T09:17:07.000Z</time>
      </trkpt>
      <trkpt lat="48.25098" lon="3.30826">
        <ele>101</ele>
        <time>2013-09-29T09:17:08.000Z</time>
      </trkpt>
      <trkpt lat="48.25092" lon="3.30828">
        <ele>101</ele>
        <time>2013-09-29T09:17:09.000Z</time>
      </trkpt>
      <trkpt lat="48.25086" lon="3.30828">
        <ele>101</ele>
        <time>2013-09-29T09:17:10.000Z</time>
      </trkpt>
      <trkpt lat="48.25081" lon="3.3083">
        <ele>101</ele>
        <time>2013-09-29T09:17:11.000Z</time>
      </trkpt>
      <trkpt lat="48.25074" lon="3.30832">
        <ele>100</ele>
        <time>2013-09-29T09:17:12.000Z</time>
      </trkpt>
      <trkpt lat="48.25069" lon="3.30834">
        <ele>100</ele>
        <time>2013-09-29T09:17:13.000Z</time>
      </trkpt>
      <trkpt lat="48.25062" lon="3.30834">
        <ele>100</ele>
        <time>2013-09-29T09:17:14.000Z</time>
      </trkpt>
      <trkpt lat="48.25057" lon="3.30837">
        <ele>100</ele>
        <time>2013-09-29T09:17:15.000Z</time>
      </trkpt>
      <trkpt lat="48.2505" lon="3.30839">
        <ele>100</ele>
        <time>2013-09-29T09:17:16.000Z</time>
      </trkpt>
      <trkpt lat="48.25044" lon="3.30839">
        <ele>100</ele>
        <time>2013-09-29T09:17:17.000Z</time>
      </trkpt>
      <trkpt lat="48.25038" lon="3.30841">
        <ele>99</ele>
        <time>2013-09-29T09:17:18.000Z</time>
      </trkpt>
      <trkpt lat="48.25031" lon="3.30843">
        <ele>99</ele>
        <time>2013-09-29T09:17:19.000Z</time>
      </trkpt>
      <trkpt lat="48.25025" lon="3.30843">
        <ele>99</ele>
        <time>2013-09-29T09:17:20.000Z</time>
      </trkpt>
      <trkpt lat="48.25018" lon="3.30845">
        <ele>99</ele>
        <time>2013-09-29T09:17:21.000Z</time>
      </trkpt>
      <trkpt lat="48.25012" lon="3.30847">
        <ele>99</ele>
        <time>2013-09-29T09:17:22.000Z</time>
      </trkpt>
      <trkpt lat="48.25005" lon="3.30849">
        <ele>99</ele>
        <time>2013-09-29T09:17:23.000Z</time>
      </trkpt>
      <trkpt lat="48.24999" lon="3.30852">
        <ele>98</ele>
        <time>2013-09-29T09:17:24.000Z</time>
      </trkpt>
      <trkpt lat="48.24993" lon="3.30852">
        <ele>98</ele>
        <time>2013-09-29T09:17:25.000Z</time>
      </trkpt>
      <trkpt lat="48.24986" lon="3.30854">
        <ele>98</ele>
        <time>2013-09-29T09:17:26.000Z</time>
      </trkpt>
      <trkpt lat="48.24981" lon="3.30856">
        <ele>98</ele>
        <time>2013-09-29T09:17:27.000Z</time>
      </trkpt>
      <trkpt lat="48.24974" lon="3.30858">
        <ele>98</ele>
        <time>2013-09-29T09:17:28.000Z</time>
      </trkpt>
      <trkpt lat="48.24969" lon="3.3086">
        <ele>98</ele>
        <time>2013-09-29T09:17:29.000Z</time>
      </trkpt>
      <trkpt lat="48.24962" lon="3.3086">
        <ele>98</ele>
        <time>2013-09-29T09:17:30.000Z</time>
      </trkpt>
      <trkpt lat="48.24957" lon="3.30862">
        <ele>98</ele>
        <time>2013-09-29T09:17:31.000Z</time>
      </trkpt>
      <trkpt lat="48.24952" lon="3.30864">
        <ele>98</ele>
        <time>2013-09-29T09:17:32.000Z</time>
      </trkpt>
      <trkpt lat="48.24946" lon="3.30867">
        <ele>98</ele>
        <time>2013-09-29T09:17:33.000Z</time>
      </trkpt>
      <trkpt lat="48.2494" lon="3.30867">
        <ele>98</ele>
        <time>2013-09-29T09:17:34.000Z</time>
      </trkpt>
      <trkpt lat="48.24935" lon="3.30869">
        <ele>98</ele>
        <time>2013-09-29T09:17:35.000Z</time>
      </trkpt>
      <trkpt lat="48.24929" lon="3.30871">
        <ele>98</ele>
        <time>2013-09-29T09:17:36.000Z</time>
      </trkpt>
      <trkpt lat="48.24924" lon="3.30873">
        <ele>98</ele>
        <time>2013-09-29T09:17:37.000Z</time>
      </trkpt>
      <trkpt lat="48.24917" lon="3.30873">
        <ele>98</ele>
        <time>2013-09-29T09:17:38.000Z</time>
      </trkpt>
      <trkpt lat="48.24912" lon="3.30875">
        <ele>98</ele>
        <time>2013-09-29T09:17:39.000Z</time>
      </trkpt>
      <trkpt lat="48.24907" lon="3.30877">
        <ele>98</ele>
        <time>2013-09-29T09:17:40.000Z</time>
      </trkpt>
      <trkpt lat="48.24901" lon="3.30877">
        <ele>98</ele>
        <time>2013-09-29T09:17:41.000Z</time>
      </trkpt>
      <trkpt lat="48.24896" lon="3.30879">
        <ele>98</ele>
        <time>2013-09-29T09:17:42.000Z</time>
      </trkpt>
      <trkpt lat="48.2489" lon="3.30882">
        <ele>98</ele>
        <time>2013-09-29T09:17:43.000Z</time>
      </trkpt>
      <trkpt lat="48.24884" lon="3.30884">
        <ele>98</ele>
        <time>2013-09-29T09:17:44.000Z</time>
      </trkpt>
      <trkpt lat="48.24879" lon="3.30884">
        <ele>98</ele>
        <time>2013-09-29T09:17:45.000Z</time>
      </trkpt>
      <trkpt lat="48.24873" lon="3.30886">
        <ele>98</ele>
        <time>2013-09-29T09:17:46.000Z</time>
      </trkpt>
      <trkpt lat="48.24868" lon="3.30888">
        <ele>98</ele>
        <time>2013-09-29T09:17:47.000Z</time>
      </trkpt>
      <trkpt lat="48.24863" lon="3.3089">
        <ele>98</ele>
        <time>2013-09-29T09:17:48.000Z</time>
      </trkpt>
      <trkpt lat="48.24858" lon="3.3089">
        <ele>98</ele>
        <time>2013-09-29T09:17:49.000Z</time>
      </trkpt>
      <trkpt lat="48.24853" lon="3.30892">
        <ele>98</ele>
        <time>2013-09-29T09:17:50.000Z</time>
      </trkpt>
      <trkpt lat="48.24848" lon="3.30894">
        <ele>98</ele>
        <time>2013-09-29T09:17:51.000Z</time>
      </trkpt>
      <trkpt lat="48.24842" lon="3.30897">
        <ele>98</ele>
        <time>2013-09-29T09:17:52.000Z</time>
      </trkpt>
      <trkpt lat="48.24837" lon="3.30899">
        <ele>98</ele>
        <time>2013-09-29T09:17:53.000Z</time>
      </trkpt>
      <trkpt lat="48.24832" lon="3.30899">
        <ele>97</ele>
        <time>2013-09-29T09:17:54.000Z</time>
      </trkpt>
      <trkpt lat="48.24826" lon="3.30901">
        <ele>97</ele>
        <time>2013-09-29T09:17:55.000Z</time>
      </trkpt>
      <trkpt lat="48.24821" lon="3.30903">
        <ele>97</ele>
        <time>2013-09-29T09:17:56.000Z</time>
      </trkpt>
      <trkpt lat="48.24816" lon="3.30903">
        <ele>97</ele>
        <time>2013-09-29T09:17:57.000Z</time>
      </trkpt>
      <trkpt lat="48.2481" lon="3.30905">
        <ele>97</ele>
        <time>2013-09-29T09:17:58.000Z</time>
      </trkpt>
      <trkpt lat="48.24805" lon="3.30907">
        <ele>97</ele>
        <time>2013-09-29T09:17:59.000Z</time>
      </trkpt>
      <trkpt lat="48.24799" lon="3.30909">
        <ele>97</ele>
        <time>2013-09-29T09:18:00.000Z</time>
      </trkpt>
      <trkpt lat="48.24794" lon="3.30909">
        <ele>97</ele>
        <time>2013-09-29T09:18:01.000Z</time>
      </trkpt>
      <trkpt lat="48.24789" lon="3.30912">
        <ele>97</ele>
        <time>2013-09-29T09:18:02.000Z</time>
      </trkpt>
      <trkpt lat="48.24782" lon="3.30914">
        <ele>97</ele>
        <time>2013-09-29T09:18:03.000Z</time>
      </trkpt>
      <trkpt lat="48.24777" lon="3.30914">
        <ele>96</ele>
        <time>2013-09-29T09:18:04.000Z</time>
      </trkpt>
      <trkpt lat="48.24772" lon="3.30916">
        <ele>96</ele>
        <time>2013-09-29T09:18:05.000Z</time>
      </trkpt>
      <trkpt lat="48.24765" lon="3.30918">
        <ele>97</ele>
        <time>2013-09-29T09:18:06.000Z</time>
      </trkpt>
      <trkpt lat="48.2476" lon="3.3092">
        <ele>96</ele>
        <time>2013-09-29T09:18:07.000Z</time>
      </trkpt>
      <trkpt lat="48.24754" lon="3.30922">
        <ele>96</ele>
        <time>2013-09-29T09:18:08.000Z</time>
      </trkpt>
      <trkpt lat="48.24748" lon="3.30922">
        <ele>96</ele>
        <time>2013-09-29T09:18:09.000Z</time>
      </trkpt>
      <trkpt lat="48.24743" lon="3.30925">
        <ele>96</ele>
        <time>2013-09-29T09:18:10.000Z</time>
      </trkpt>
      <trkpt lat="48.24736" lon="3.30927">
        <ele>95</ele>
        <time>2013-09-29T09:18:11.000Z</time>
      </trkpt>
      <trkpt lat="48.24731" lon="3.30929">
        <ele>95</ele>
        <time>2013-09-29T09:18:12.000Z</time>
      </trkpt>
      <trkpt lat="48.24725" lon="3.30929">
        <ele>95</ele>
        <time>2013-09-29T09:18:13.000Z</time>
      </trkpt>
      <trkpt lat="48.2472" lon="3.30931">
        <ele>95</ele>
        <time>2013-09-29T09:18:14.000Z</time>
      </trkpt>
      <trkpt lat="48.24715" lon="3.30933">
        <ele>95</ele>
        <time>2013-09-29T09:18:15.000Z</time>
      </trkpt>
      <trkpt lat="48.24709" lon="3.30933">
        <ele>95</ele>
        <time>2013-09-29T09:18:16.000Z</time>
      </trkpt>
      <trkpt lat="48.24704" lon="3.30935">
        <ele>95</ele>
        <time>2013-09-29T09:18:17.000Z</time>
      </trkpt>
      <trkpt lat="48.24699" lon="3.30937">
        <ele>95</ele>
        <time>2013-09-29T09:18:18.000Z</time>
      </trkpt>
      <trkpt lat="48.24693" lon="3.30937">
        <ele>95</ele>
        <time>2013-09-29T09:18:19.000Z</time>
      </trkpt>
      <trkpt lat="48.24688" lon="3.3094">
        <ele>94</ele>
        <time>2013-09-29T09:18:20.000Z</time>
      </trkpt>
      <trkpt lat="48.24684" lon="3.30942">
        <ele>94</ele>
        <time>2013-09-29T09:18:21.000Z</time>
      </trkpt>
      <trkpt lat="48.24678" lon="3.30944">
        <ele>94</ele>
        <time>2013-09-29T09:18:22.000Z</time>
      </trkpt>
      <trkpt lat="48.24673" lon="3.30944">
        <ele>94</ele>
        <time>2013-09-29T09:18:23.000Z</time>
      </trkpt>
      <trkpt lat="48.24667" lon="3.30946">
        <ele>94</ele>
        <time>2013-09-29T09:18:24.000Z</time>
      </trkpt>
      <trkpt lat="48.24663" lon="3.30948">
        <ele>93</ele>
        <time>2013-09-29T09:18:25.000Z</time>
      </trkpt>
      <trkpt lat="48.24658" lon="3.30948">
        <ele>93</ele>
        <time>2013-09-29T09:18:26.000Z</time>
      </trkpt>
      <trkpt lat="48.24652" lon="3.3095">
        <ele>93</ele>
        <time>2013-09-29T09:18:27.000Z</time>
      </trkpt>
      <trkpt lat="48.24648" lon="3.30952">
        <ele>93</ele>
        <time>2013-09-29T09:18:28.000Z</time>
      </trkpt>
      <trkpt lat="48.24643" lon="3.30955">
        <ele>92</ele>
        <time>2013-09-29T09:18:29.000Z</time>
      </trkpt>
      <trkpt lat="48.24638" lon="3.30955">
        <ele>92</ele>
        <time>2013-09-29T09:18:30.000Z</time>
      </trkpt>
      <trkpt lat="48.24633" lon="3.30957">
        <ele>92</ele>
        <time>2013-09-29T09:18:31.000Z</time>
      </trkpt>
      <trkpt lat="48.24628" lon="3.30959">
        <ele>92</ele>
        <time>2013-09-29T09:18:32.000Z</time>
      </trkpt>
      <trkpt lat="48.24623" lon="3.30961">
        <ele>92</ele>
        <time>2013-09-29T09:18:33.000Z</time>
      </trkpt>
      <trkpt lat="48.24618" lon="3.30963">
        <ele>92</ele>
        <time>2013-09-29T09:18:34.000Z</time>
      </trkpt>
      <trkpt lat="48.24613" lon="3.30963">
        <ele>92</ele>
        <time>2013-09-29T09:18:35.000Z</time>
      </trkpt>
      <trkpt lat="48.24607" lon="3.30967">
        <ele>92</ele>
        <time>2013-09-29T09:18:36.000Z</time>
      </trkpt>
      <trkpt lat="48.24602" lon="3.3097">
        <ele>92</ele>
        <time>2013-09-29T09:18:37.000Z</time>
      </trkpt>
      <trkpt lat="48.24598" lon="3.30972">
        <ele>92</ele>
        <time>2013-09-29T09:18:38.000Z</time>
      </trkpt>
      <trkpt lat="48.24592" lon="3.30974">
        <ele>92</ele>
        <time>2013-09-29T09:18:39.000Z</time>
      </trkpt>
      <trkpt lat="48.24587" lon="3.30976">
        <ele>92</ele>
        <time>2013-09-29T09:18:40.000Z</time>
      </trkpt>
      <trkpt lat="48.24582" lon="3.30978">
        <ele>91</ele>
        <time>2013-09-29T09:18:41.000Z</time>
      </trkpt>
      <trkpt lat="48.24576" lon="3.3098">
        <ele>91</ele>
        <time>2013-09-29T09:18:42.000Z</time>
      </trkpt>
      <trkpt lat="48.24571" lon="3.30982">
        <ele>91</ele>
        <time>2013-09-29T09:18:43.000Z</time>
      </trkpt>
      <trkpt lat="48.24566" lon="3.30985">
        <ele>91</ele>
        <time>2013-09-29T09:18:44.000Z</time>
      </trkpt>
      <trkpt lat="48.2456" lon="3.30987">
        <ele>91</ele>
        <time>2013-09-29T09:18:45.000Z</time>
      </trkpt>
      <trkpt lat="48.24555" lon="3.30989">
        <ele>91</ele>
        <time>2013-09-29T09:18:46.000Z</time>
      </trkpt>
      <trkpt lat="48.24549" lon="3.30991">
        <ele>91</ele>
        <time>2013-09-29T09:18:47.000Z</time>
      </trkpt>
      <trkpt lat="48.24544" lon="3.30993">
        <ele>91</ele>
        <time>2013-09-29T09:18:48.000Z</time>
      </trkpt>
      <trkpt lat="48.24539" lon="3.30995">
        <ele>91</ele>
        <time>2013-09-29T09:18:49.000Z</time>
      </trkpt>
      <trkpt lat="48.24533" lon="3.30995">
        <ele>91</ele>
        <time>2013-09-29T09:18:50.000Z</time>
      </trkpt>
      <trkpt lat="48.24528" lon="3.30997">
        <ele>91</ele>
        <time>2013-09-29T09:18:51.000Z</time>
      </trkpt>
      <trkpt lat="48.24523" lon="3.30997">
        <ele>91</ele>
        <time>2013-09-29T09:18:52.000Z</time>
      </trkpt>
      <trkpt lat="48.24517" lon="3.31">
        <ele>92</ele>
        <time>2013-09-29T09:18:53.000Z</time>
      </trkpt>
      <trkpt lat="48.24512" lon="3.31002">
        <ele>92</ele>
        <time>2013-09-29T09:18:54.000Z</time>
      </trkpt>
      <trkpt lat="48.24507" lon="3.31002">
        <ele>92</ele>
        <time>2013-09-29T09:18:55.000Z</time>
      </trkpt>
      <trkpt lat="48.24501" lon="3.31004">
        <ele>92</ele>
        <time>2013-09-29T09:18:56.000Z</time>
      </trkpt>
      <trkpt lat="48.24496" lon="3.31004">
        <ele>92</ele>
        <time>2013-09-29T09:18:57.000Z</time>
      </trkpt>
      <trkpt lat="48.2449" lon="3.31006">
        <ele>92</ele>
        <time>2013-09-29T09:18:58.000Z</time>
      </trkpt>
      <trkpt lat="48.24485" lon="3.31008">
        <ele>92</ele>
        <time>2013-09-29T09:18:59.000Z</time>
      </trkpt>
      <trkpt lat="48.2448" lon="3.31008">
        <ele>91</ele>
        <time>2013-09-29T09:19:00.000Z</time>
      </trkpt>
      <trkpt lat="48.24474" lon="3.3101">
        <ele>91</ele>
        <time>2013-09-29T09:19:01.000Z</time>
      </trkpt>
      <trkpt lat="48.24469" lon="3.3101">
        <ele>91</ele>
        <time>2013-09-29T09:19:02.000Z</time>
      </trkpt>
      <trkpt lat="48.24464" lon="3.31012">
        <ele>91</ele>
        <time>2013-09-29T09:19:03.000Z</time>
      </trkpt>
      <trkpt lat="48.24459" lon="3.31012">
        <ele>91</ele>
        <time>2013-09-29T09:19:04.000Z</time>
      </trkpt>
      <trkpt lat="48.24454" lon="3.31012">
        <ele>91</ele>
        <time>2013-09-29T09:19:05.000Z</time>
      </trkpt>
      <trkpt lat="48.24449" lon="3.31015">
        <ele>91</ele>
        <time>2013-09-29T09:19:06.000Z</time>
      </trkpt>
      <trkpt lat="48.24443" lon="3.31015">
        <ele>91</ele>
        <time>2013-09-29T09:19:07.000Z</time>
      </trkpt>
      <trkpt lat="48.24438" lon="3.31015">
        <ele>91</ele>
        <time>2013-09-29T09:19:08.000Z</time>
      </trkpt>
      <trkpt lat="48.24434" lon="3.31017">
        <ele>91</ele>
        <time>2013-09-29T09:19:09.000Z</time>
      </trkpt>
      <trkpt lat="48.24428" lon="3.31017">
        <ele>90</ele>
        <time>2013-09-29T09:19:10.000Z</time>
      </trkpt>
      <trkpt lat="48.24423" lon="3.31019">
        <ele>90</ele>
        <time>2013-09-29T09:19:11.000Z</time>
      </trkpt>
      <trkpt lat="48.24417" lon="3.31019">
        <ele>90</ele>
        <time>2013-09-29T09:19:12.000Z</time>
      </trkpt>
      <trkpt lat="48.24413" lon="3.31021">
        <ele>87</ele>
        <time>2013-09-29T09:19:13.000Z</time>
      </trkpt>
      <trkpt lat="48.24408" lon="3.31019">
        <ele>87</ele>
        <time>2013-09-29T09:19:14.000Z</time>
      </trkpt>
      <trkpt lat="48.24402" lon="3.31019">
        <ele>87</ele>
        <time>2013-09-29T09:19:15.000Z</time>
      </trkpt>
      <trkpt lat="48.24397" lon="3.31012">
        <ele>87</ele>
        <time>2013-09-29T09:19:16.000Z</time>
      </trkpt>
      <trkpt lat="48.24393" lon="3.31006">
        <ele>86</ele>
        <time>2013-09-29T09:19:17.000Z</time>
      </trkpt>
      <trkpt lat="48.2439" lon="3.31">
        <ele>86</ele>
        <time>2013-09-29T09:19:18.000Z</time>
      </trkpt>
      <trkpt lat="48.24385" lon="3.30991">
        <ele>86</ele>
        <time>2013-09-29T09:19:19.000Z</time>
      </trkpt>
      <trkpt lat="48.24382" lon="3.30985">
        <ele>85</ele>
        <time>2013-09-29T09:19:20.000Z</time>
      </trkpt>
      <trkpt lat="48.24378" lon="3.30978">
        <ele>85</ele>
        <time>2013-09-29T09:19:21.000Z</time>
      </trkpt>
      <trkpt lat="48.24371" lon="3.30974">
        <ele>85</ele>
        <time>2013-09-29T09:19:22.000Z</time>
      </trkpt>
      <trkpt lat="48.24366" lon="3.30967">
        <ele>84</ele>
        <time>2013-09-29T09:19:23.000Z</time>
      </trkpt>
      <trkpt lat="48.24361" lon="3.30961">
        <ele>84</ele>
        <time>2013-09-29T09:19:24.000Z</time>
      </trkpt>
      <trkpt lat="48.24355" lon="3.30955">
        <ele>84</ele>
        <time>2013-09-29T09:19:25.000Z</time>
      </trkpt>
      <trkpt lat="48.2435" lon="3.3095">
        <ele>84</ele>
        <time>2013-09-29T09:19:26.000Z</time>
      </trkpt>
      <trkpt lat="48.24345" lon="3.30944">
        <ele>83</ele>
        <time>2013-09-29T09:19:27.000Z</time>
      </trkpt>
      <trkpt lat="48.2434" lon="3.3094">
        <ele>83</ele>
        <time>2013-09-29T09:19:28.000Z</time>
      </trkpt>
      <trkpt lat="48.24335" lon="3.30933">
        <ele>83</ele>
        <time>2013-09-29T09:19:29.000Z</time>
      </trkpt>
      <trkpt lat="48.24329" lon="3.30931">
        <ele>80</ele>
        <time>2013-09-29T09:19:30.000Z</time>
      </trkpt>
      <trkpt lat="48.24322" lon="3.30931">
        <ele>80</ele>
        <time>2013-09-29T09:19:31.000Z</time>
      </trkpt>
      <trkpt lat="48.24313" lon="3.30933">
        <ele>80</ele>
        <time>2013-09-29T09:19:32.000Z</time>
      </trkpt>
      <trkpt lat="48.24304" lon="3.30935">
        <ele>80</ele>
        <time>2013-09-29T09:19:33.000Z</time>
      </trkpt>
      <trkpt lat="48.24292" lon="3.3094">
        <ele>80</ele>
        <time>2013-09-29T09:19:34.000Z</time>
      </trkpt>
      <trkpt lat="48.24281" lon="3.30944">
        <ele>80</ele>
        <time>2013-09-29T09:19:35.000Z</time>
      </trkpt>
      <trkpt lat="48.2427" lon="3.30946">
        <ele>80</ele>
        <time>2013-09-29T09:19:36.000Z</time>
      </trkpt>
      <trkpt lat="48.2426" lon="3.30946">
        <ele>80</ele>
        <time>2013-09-29T09:19:37.000Z</time>
      </trkpt>
      <trkpt lat="48.24253" lon="3.30946">
        <ele>80</ele>
        <time>2013-09-29T09:19:38.000Z</time>
      </trkpt>
      <trkpt lat="48.24246" lon="3.30942">
        <ele>79</ele>
        <time>2013-09-29T09:19:39.000Z</time>
      </trkpt>
      <trkpt lat="48.24242" lon="3.30933">
        <ele>79</ele>
        <time>2013-09-29T09:19:40.000Z</time>
      </trkpt>
      <trkpt lat="48.24236" lon="3.30927">
        <ele>79</ele>
        <time>2013-09-29T09:19:41.000Z</time>
      </trkpt>
      <trkpt lat="48.24232" lon="3.3092">
        <ele>79</ele>
        <time>2013-09-29T09:19:42.000Z</time>
      </trkpt>
      <trkpt lat="48.24228" lon="3.30912">
        <ele>80</ele>
        <time>2013-09-29T09:19:43.000Z</time>
      </trkpt>
      <trkpt lat="48.24224" lon="3.30905">
        <ele>80</ele>
        <time>2013-09-29T09:19:44.000Z</time>
      </trkpt>
      <trkpt lat="48.2422" lon="3.30899">
        <ele>80</ele>
        <time>2013-09-29T09:19:45.000Z</time>
      </trkpt>
      <trkpt lat="48.24217" lon="3.30892">
        <ele>80</ele>
        <time>2013-09-29T09:19:46.000Z</time>
      </trkpt>
      <trkpt lat="48.24214" lon="3.30884">
        <ele>80</ele>
        <time>2013-09-29T09:19:47.000Z</time>
      </trkpt>
      <trkpt lat="48.2421" lon="3.30877">
        <ele>80</ele>
        <time>2013-09-29T09:19:48.000Z</time>
      </trkpt>
      <trkpt lat="48.24207" lon="3.30871">
        <ele>80</ele>
        <time>2013-09-29T09:19:49.000Z</time>
      </trkpt>
      <trkpt lat="48.24204" lon="3.30864">
        <ele>80</ele>
        <time>2013-09-29T09:19:50.000Z</time>
      </trkpt>
      <trkpt lat="48.242" lon="3.30856">
        <ele>80</ele>
        <time>2013-09-29T09:19:51.000Z</time>
      </trkpt>
      <trkpt lat="48.24196" lon="3.30849">
        <ele>80</ele>
        <time>2013-09-29T09:19:52.000Z</time>
      </trkpt>
      <trkpt lat="48.24192" lon="3.30843">
        <ele>80</ele>
        <time>2013-09-29T09:19:53.000Z</time>
      </trkpt>
      <trkpt lat="48.24189" lon="3.30834">
        <ele>80</ele>
        <time>2013-09-29T09:19:54.000Z</time>
      </trkpt>
      <trkpt lat="48.24185" lon="3.30828">
        <ele>80</ele>
        <time>2013-09-29T09:19:55.000Z</time>
      </trkpt>
      <trkpt lat="48.24179" lon="3.30824">
        <ele>80</ele>
        <time>2013-09-29T09:19:56.000Z</time>
      </trkpt>
      <trkpt lat="48.24175" lon="3.30817">
        <ele>80</ele>
        <time>2013-09-29T09:19:57.000Z</time>
      </trkpt>
      <trkpt lat="48.24171" lon="3.30811">
        <ele>80</ele>
        <time>2013-09-29T09:19:58.000Z</time>
      </trkpt>
      <trkpt lat="48.24166" lon="3.30804">
        <ele>80</ele>
        <time>2013-09-29T09:19:59.000Z</time>
      </trkpt>
      <trkpt lat="48.24162" lon="3.308">
        <ele>80</ele>
        <time>2013-09-29T09:20:00.000Z</time>
      </trkpt>
      <trkpt lat="48.24158" lon="3.30794">
        <ele>80</ele>
        <time>2013-09-29T09:20:01.000Z</time>
      </trkpt>
      <trkpt lat="48.24154" lon="3.30787">
        <ele>80</ele>
        <time>2013-09-29T09:20:02.000Z</time>
      </trkpt>
      <trkpt lat="48.24149" lon="3.30781">
        <ele>80</ele>
        <time>2013-09-29T09:20:03.000Z</time>
      </trkpt>
      <trkpt lat="48.24145" lon="3.30774">
        <ele>80</ele>
        <time>2013-09-29T09:20:04.000Z</time>
      </trkpt>
      <trkpt lat="48.24141" lon="3.30768">
        <ele>80</ele>
        <time>2013-09-29T09:20:05.000Z</time>
      </trkpt>
      <trkpt lat="48.24136" lon="3.30761">
        <ele>81</ele>
        <time>2013-09-29T09:20:06.000Z</time>
      </trkpt>
      <trkpt lat="48.24133" lon="3.30755">
        <ele>81</ele>
        <time>2013-09-29T09:20:07.000Z</time>
      </trkpt>
      <trkpt lat="48.24132" lon="3.30746">
        <ele>81</ele>
        <time>2013-09-29T09:20:08.000Z</time>
      </trkpt>
      <trkpt lat="48.24131" lon="3.3074">
        <ele>81</ele>
        <time>2013-09-29T09:20:09.000Z</time>
      </trkpt>
      <trkpt lat="48.2413" lon="3.30734">
        <ele>81</ele>
        <time>2013-09-29T09:20:10.000Z</time>
      </trkpt>
      <trkpt lat="48.24129" lon="3.30727">
        <ele>81</ele>
        <time>2013-09-29T09:20:11.000Z</time>
      </trkpt>
      <trkpt lat="48.24128" lon="3.30719">
        <ele>81</ele>
        <time>2013-09-29T09:20:12.000Z</time>
      </trkpt>
      <trkpt lat="48.24128" lon="3.30712">
        <ele>81</ele>
        <time>2013-09-29T09:20:13.000Z</time>
      </trkpt>
      <trkpt lat="48.24129" lon="3.30706">
        <ele>81</ele>
        <time>2013-09-29T09:20:14.000Z</time>
      </trkpt>
      <trkpt lat="48.2413" lon="3.30701">
        <ele>81</ele>
        <time>2013-09-29T09:20:15.000Z</time>
      </trkpt>
      <trkpt lat="48.24131" lon="3.30695">
        <ele>81</ele>
        <time>2013-09-29T09:20:16.000Z</time>
      </trkpt>
      <trkpt lat="48.24131" lon="3.30688">
        <ele>81</ele>
        <time>2013-09-29T09:20:17.000Z</time>
      </trkpt>
      <trkpt lat="48.24132" lon="3.30682">
        <ele>81</ele>
        <time>2013-09-29T09:20:18.000Z</time>
      </trkpt>
      <trkpt lat="48.24132" lon="3.30678">
        <ele>81</ele>
        <time>2013-09-29T09:20:19.000Z</time>
      </trkpt>
      <trkpt lat="48.24133" lon="3.30671">
        <ele>81</ele>
        <time>2013-09-29T09:20:20.000Z</time>
      </trkpt>
      <trkpt lat="48.24134" lon="3.30665">
        <ele>80</ele>
        <time>2013-09-29T09:20:21.000Z</time>
      </trkpt>
      <trkpt lat="48.24135" lon="3.30658">
        <ele>80</ele>
        <time>2013-09-29T09:20:22.000Z</time>
      </trkpt>
      <trkpt lat="48.24135" lon="3.30652">
        <ele>80</ele>
        <time>2013-09-29T09:20:23.000Z</time>
      </trkpt>
      <trkpt lat="48.24137" lon="3.30646">
        <ele>80</ele>
        <time>2013-09-29T09:20:24.000Z</time>
      </trkpt>
      <trkpt lat="48.24137" lon="3.30637">
        <ele>80</ele>
        <time>2013-09-29T09:20:25.000Z</time>
      </trkpt>
      <trkpt lat="48.24139" lon="3.30628">
        <ele>80</ele>
        <time>2013-09-29T09:20:26.000Z</time>
      </trkpt>
      <trkpt lat="48.2414" lon="3.30622">
        <ele>80</ele>
        <time>2013-09-29T09:20:27.000Z</time>
      </trkpt>
      <trkpt lat="48.24141" lon="3.30613">
        <ele>80</ele>
        <time>2013-09-29T09:20:28.000Z</time>
      </trkpt>
      <trkpt lat="48.24142" lon="3.30607">
        <ele>80</ele>
        <time>2013-09-29T09:20:29.000Z</time>
      </trkpt>
      <trkpt lat="48.24143" lon="3.30598">
        <ele>80</ele>
        <time>2013-09-29T09:20:30.000Z</time>
      </trkpt>
      <trkpt lat="48.24144" lon="3.30592">
        <ele>80</ele>
        <time>2013-09-29T09:20:31.000Z</time>
      </trkpt>
      <trkpt lat="48.24145" lon="3.30583">
        <ele>80</ele>
        <time>2013-09-29T09:20:32.000Z</time>
      </trkpt>
      <trkpt lat="48.24146" lon="3.30577">
        <ele>80</ele>
        <time>2013-09-29T09:20:33.000Z</time>
      </trkpt>
      <trkpt lat="48.24147" lon="3.30568">
        <ele>80</ele>
        <time>2013-09-29T09:20:34.000Z</time>
      </trkpt>
      <trkpt lat="48.24148" lon="3.30562">
        <ele>80</ele>
        <time>2013-09-29T09:20:35.000Z</time>
      </trkpt>
      <trkpt lat="48.24149" lon="3.30553">
        <ele>80</ele>
        <time>2013-09-29T09:20:36.000Z</time>
      </trkpt>
      <trkpt lat="48.2415" lon="3.30547">
        <ele>80</ele>
        <time>2013-09-29T09:20:37.000Z</time>
      </trkpt>
      <trkpt lat="48.24152" lon="3.30538">
        <ele>80</ele>
        <time>2013-09-29T09:20:38.000Z</time>
      </trkpt>
      <trkpt lat="48.24154" lon="3.3053">
        <ele>80</ele>
        <time>2013-09-29T09:20:39.000Z</time>
      </trkpt>
      <trkpt lat="48.24155" lon="3.30523">
        <ele>80</ele>
        <time>2013-09-29T09:20:40.000Z</time>
      </trkpt>
      <trkpt lat="48.24156" lon="3.30515">
        <ele>80</ele>
        <time>2013-09-29T09:20:41.000Z</time>
      </trkpt>
      <trkpt lat="48.24157" lon="3.30508">
        <ele>80</ele>
        <time>2013-09-29T09:20:42.000Z</time>
      </trkpt>
      <trkpt lat="48.24159" lon="3.305">
        <ele>80</ele>
        <time>2013-09-29T09:20:43.000Z</time>
      </trkpt>
      <trkpt lat="48.24159" lon="3.30493">
        <ele>80</ele>
        <time>2013-09-29T09:20:44.000Z</time>
      </trkpt>
      <trkpt lat="48.2416" lon="3.30485">
        <ele>80</ele>
        <time>2013-09-29T09:20:45.000Z</time>
      </trkpt>
      <trkpt lat="48.24161" lon="3.30478">
        <ele>79</ele>
        <time>2013-09-29T09:20:46.000Z</time>
      </trkpt>
      <trkpt lat="48.24161" lon="3.30472">
        <ele>79</ele>
        <time>2013-09-29T09:20:47.000Z</time>
      </trkpt>
      <trkpt lat="48.24161" lon="3.30465">
        <ele>79</ele>
        <time>2013-09-29T09:20:48.000Z</time>
      </trkpt>
      <trkpt lat="48.24161" lon="3.30459">
        <ele>79</ele>
        <time>2013-09-29T09:20:49.000Z</time>
      </trkpt>
      <trkpt lat="48.24161" lon="3.30452">
        <ele>79</ele>
        <time>2013-09-29T09:20:50.000Z</time>
      </trkpt>
      <trkpt lat="48.24161" lon="3.30446">
        <ele>79</ele>
        <time>2013-09-29T09:20:51.000Z</time>
      </trkpt>
      <trkpt lat="48.24161" lon="3.3044">
        <ele>79</ele>
        <time>2013-09-29T09:20:52.000Z</time>
      </trkpt>
      <trkpt lat="48.24161" lon="3.30433">
        <ele>79</ele>
        <time>2013-09-29T09:20:53.000Z</time>
      </trkpt>
      <trkpt lat="48.24161" lon="3.30427">
        <ele>79</ele>
        <time>2013-09-29T09:20:54.000Z</time>
      </trkpt>
      <trkpt lat="48.24161" lon="3.3042">
        <ele>78</ele>
        <time>2013-09-29T09:20:55.000Z</time>
      </trkpt>
      <trkpt lat="48.2416" lon="3.30414">
        <ele>78</ele>
        <time>2013-09-29T09:20:56.000Z</time>
      </trkpt>
      <trkpt lat="48.2416" lon="3.30407">
        <ele>78</ele>
        <time>2013-09-29T09:20:57.000Z</time>
      </trkpt>
      <trkpt lat="48.2416" lon="3.30401">
        <ele>79</ele>
        <time>2013-09-29T09:20:58.000Z</time>
      </trkpt>
      <trkpt lat="48.24159" lon="3.30395">
        <ele>79</ele>
        <time>2013-09-29T09:20:59.000Z</time>
      </trkpt>
      <trkpt lat="48.24159" lon="3.30388">
        <ele>79</ele>
        <time>2013-09-29T09:21:00.000Z</time>
      </trkpt>
      <trkpt lat="48.24159" lon="3.30382">
        <ele>79</ele>
        <time>2013-09-29T09:21:01.000Z</time>
      </trkpt>
      <trkpt lat="48.24159" lon="3.30375">
        <ele>79</ele>
        <time>2013-09-29T09:21:02.000Z</time>
      </trkpt>
      <trkpt lat="48.24159" lon="3.30369">
        <ele>79</ele>
        <time>2013-09-29T09:21:03.000Z</time>
      </trkpt>
      <trkpt lat="48.24159" lon="3.30362">
        <ele>79</ele>
        <time>2013-09-29T09:21:04.000Z</time>
      </trkpt>
      <trkpt lat="48.2416" lon="3.30356">
        <ele>79</ele>
        <time>2013-09-29T09:21:05.000Z</time>
      </trkpt>
      <trkpt lat="48.2416" lon="3.30349">
        <ele>79</ele>
        <time>2013-09-29T09:21:06.000Z</time>
      </trkpt>
      <trkpt lat="48.2416" lon="3.30341">
        <ele>78</ele>
        <time>2013-09-29T09:21:07.000Z</time>
      </trkpt>
      <trkpt lat="48.2416" lon="3.30334">
        <ele>78</ele>
        <time>2013-09-29T09:21:08.000Z</time>
      </trkpt>
      <trkpt lat="48.2416" lon="3.30326">
        <ele>79</ele>
        <time>2013-09-29T09:21:09.000Z</time>
      </trkpt>
      <trkpt lat="48.2416" lon="3.30319">
        <ele>79</ele>
        <time>2013-09-29T09:21:10.000Z</time>
      </trkpt>
      <trkpt lat="48.2416" lon="3.30311">
        <ele>79</ele>
        <time>2013-09-29T09:21:11.000Z</time>
      </trkpt>
      <trkpt lat="48.2416" lon="3.30302">
        <ele>79</ele>
        <time>2013-09-29T09:21:12.000Z</time>
      </trkpt>
      <trkpt lat="48.2416" lon="3.30296">
        <ele>79</ele>
        <time>2013-09-29T09:21:13.000Z</time>
      </trkpt>
      <trkpt lat="48.2416" lon="3.30287">
        <ele>79</ele>
        <time>2013-09-29T09:21:14.000Z</time>
      </trkpt>
      <trkpt lat="48.2416" lon="3.30279">
        <ele>79</ele>
        <time>2013-09-29T09:21:15.000Z</time>
      </trkpt>
      <trkpt lat="48.2416" lon="3.30272">
        <ele>79</ele>
        <time>2013-09-29T09:21:16.000Z</time>
      </trkpt>
      <trkpt lat="48.2416" lon="3.30264">
        <ele>79</ele>
        <time>2013-09-29T09:21:17.000Z</time>
      </trkpt>
      <trkpt lat="48.2416" lon="3.30255">
        <ele>79</ele>
        <time>2013-09-29T09:21:18.000Z</time>
      </trkpt>
      <trkpt lat="48.2416" lon="3.30246">
        <ele>78</ele>
        <time>2013-09-29T09:21:19.000Z</time>
      </trkpt>
      <trkpt lat="48.2416" lon="3.3024">
        <ele>78</ele>
        <time>2013-09-29T09:21:20.000Z</time>
      </trkpt>
      <trkpt lat="48.2416" lon="3.30231">
        <ele>79</ele>
        <time>2013-09-29T09:21:21.000Z</time>
      </trkpt>
      <trkpt lat="48.2416" lon="3.30223">
        <ele>79</ele>
        <time>2013-09-29T09:21:22.000Z</time>
      </trkpt>
      <trkpt lat="48.2416" lon="3.30216">
        <ele>79</ele>
        <time>2013-09-29T09:21:23.000Z</time>
      </trkpt>
      <trkpt lat="48.2416" lon="3.30208">
        <ele>78</ele>
        <time>2013-09-29T09:21:24.000Z</time>
      </trkpt>
      <trkpt lat="48.2416" lon="3.30201">
        <ele>78</ele>
        <time>2013-09-29T09:21:25.000Z</time>
      </trkpt>
      <trkpt lat="48.2416" lon="3.30195">
        <ele>78</ele>
        <time>2013-09-29T09:21:26.000Z</time>
      </trkpt>
      <trkpt lat="48.24159" lon="3.30189">
        <ele>78</ele>
        <time>2013-09-29T09:21:27.000Z</time>
      </trkpt>
      <trkpt lat="48.24159" lon="3.30182">
        <ele>78</ele>
        <time>2013-09-29T09:21:28.000Z</time>
      </trkpt>
      <trkpt lat="48.24159" lon="3.30178">
        <ele>77</ele>
        <time>2013-09-29T09:21:29.000Z</time>
      </trkpt>
      <trkpt lat="48.2416" lon="3.30171">
        <ele>77</ele>
        <time>2013-09-29T09:21:30.000Z</time>
      </trkpt>
      <trkpt lat="48.24161" lon="3.30167">
        <ele>77</ele>
        <time>2013-09-29T09:21:31.000Z</time>
      </trkpt>
      <trkpt lat="48.24162" lon="3.30161">
        <ele>77</ele>
        <time>2013-09-29T09:21:32.000Z</time>
      </trkpt>
      <trkpt lat="48.24164" lon="3.30156">
        <ele>77</ele>
        <time>2013-09-29T09:21:33.000Z</time>
      </trkpt>
      <trkpt lat="48.24165" lon="3.3015">
        <ele>77</ele>
        <time>2013-09-29T09:21:34.000Z</time>
      </trkpt>
      <trkpt lat="48.24165" lon="3.30146">
        <ele>77</ele>
        <time>2013-09-29T09:21:35.000Z</time>
      </trkpt>
      <trkpt lat="48.24166" lon="3.30141">
        <ele>77</ele>
        <time>2013-09-29T09:21:36.000Z</time>
      </trkpt>
      <trkpt lat="48.24166" lon="3.30135">
        <ele>77</ele>
        <time>2013-09-29T09:21:37.000Z</time>
      </trkpt>
      <trkpt lat="48.24166" lon="3.30131">
        <ele>78</ele>
        <time>2013-09-29T09:21:38.000Z</time>
      </trkpt>
      <trkpt lat="48.24166" lon="3.30124">
        <ele>78</ele>
        <time>2013-09-29T09:21:39.000Z</time>
      </trkpt>
      <trkpt lat="48.24165" lon="3.3012">
        <ele>78</ele>
        <time>2013-09-29T09:21:40.000Z</time>
      </trkpt>
      <trkpt lat="48.24164" lon="3.30113">
        <ele>77</ele>
        <time>2013-09-29T09:21:41.000Z</time>
      </trkpt>
      <trkpt lat="48.24164" lon="3.30109">
        <ele>77</ele>
        <time>2013-09-29T09:21:42.000Z</time>
      </trkpt>
      <trkpt lat="48.24164" lon="3.30103">
        <ele>77</ele>
        <time>2013-09-29T09:21:43.000Z</time>
      </trkpt>
      <trkpt lat="48.24163" lon="3.30098">
        <ele>77</ele>
        <time>2013-09-29T09:21:44.000Z</time>
      </trkpt>
      <trkpt lat="48.24163" lon="3.30094">
        <ele>77</ele>
        <time>2013-09-29T09:21:45.000Z</time>
      </trkpt>
      <trkpt lat="48.24163" lon="3.30088">
        <ele>77</ele>
        <time>2013-09-29T09:21:46.000Z</time>
      </trkpt>
      <trkpt lat="48.24162" lon="3.30083">
        <ele>76</ele>
        <time>2013-09-29T09:21:47.000Z</time>
      </trkpt>
      <trkpt lat="48.24162" lon="3.30079">
        <ele>76</ele>
        <time>2013-09-29T09:21:48.000Z</time>
      </trkpt>
      <trkpt lat="48.24162" lon="3.30073">
        <ele>77</ele>
        <time>2013-09-29T09:21:49.000Z</time>
      </trkpt>
      <trkpt lat="48.24161" lon="3.30068">
        <ele>77</ele>
        <time>2013-09-29T09:21:50.000Z</time>
      </trkpt>
      <trkpt lat="48.24161" lon="3.30062">
        <ele>77</ele>
        <time>2013-09-29T09:21:51.000Z</time>
      </trkpt>
      <trkpt lat="48.24161" lon="3.30058">
        <ele>77</ele>
        <time>2013-09-29T09:21:52.000Z</time>
      </trkpt>
      <trkpt lat="48.2416" lon="3.30053">
        <ele>77</ele>
        <time>2013-09-29T09:21:53.000Z</time>
      </trkpt>
      <trkpt lat="48.2416" lon="3.30047">
        <ele>77</ele>
        <time>2013-09-29T09:21:54.000Z</time>
      </trkpt>
      <trkpt lat="48.24159" lon="3.30043">
        <ele>77</ele>
        <time>2013-09-29T09:21:55.000Z</time>
      </trkpt>
      <trkpt lat="48.24159" lon="3.30038">
        <ele>77</ele>
        <time>2013-09-29T09:21:56.000Z</time>
      </trkpt>
      <trkpt lat="48.24159" lon="3.30038">
        <ele>77</ele>
        <time>2013-09-29T09:22:03.000Z</time>
      </trkpt>
      <trkpt lat="48.24158" lon="3.30023">
        <ele>77</ele>
        <time>2013-09-29T09:22:04.000Z</time>
      </trkpt>
      <trkpt lat="48.24154" lon="3.30023">
        <ele>77</ele>
        <time>2013-09-29T09:22:19.000Z</time>
      </trkpt>
      <trkpt lat="48.24151" lon="3.30032">
        <ele>77</ele>
        <time>2013-09-29T09:22:20.000Z</time>
      </trkpt>
      <trkpt lat="48.24151" lon="3.30032">
        <ele>77</ele>
        <time>2013-09-29T09:22:22.000Z</time>
      </trkpt>
      <trkpt lat="48.2415" lon="3.3004">
        <ele>77</ele>
        <time>2013-09-29T09:22:23.000Z</time>
      </trkpt>
      <trkpt lat="48.2415" lon="3.3004">
        <ele>77</ele>
        <time>2013-09-29T09:22:26.000Z</time>
      </trkpt>
      <trkpt lat="48.24151" lon="3.30055">
        <ele>77</ele>
        <time>2013-09-29T09:22:27.000Z</time>
      </trkpt>
      <trkpt lat="48.24151" lon="3.3006">
        <ele>77</ele>
        <time>2013-09-29T09:22:28.000Z</time>
      </trkpt>
      <trkpt lat="48.24151" lon="3.30064">
        <ele>77</ele>
        <time>2013-09-29T09:22:29.000Z</time>
      </trkpt>
      <trkpt lat="48.24151" lon="3.30068">
        <ele>77</ele>
        <time>2013-09-29T09:22:30.000Z</time>
      </trkpt>
      <trkpt lat="48.24152" lon="3.30073">
        <ele>77</ele>
        <time>2013-09-29T09:22:31.000Z</time>
      </trkpt>
      <trkpt lat="48.24152" lon="3.30079">
        <ele>77</ele>
        <time>2013-09-29T09:22:32.000Z</time>
      </trkpt>
      <trkpt lat="48.24152" lon="3.30083">
        <ele>77</ele>
        <time>2013-09-29T09:22:33.000Z</time>
      </trkpt>
      <trkpt lat="48.24152" lon="3.30088">
        <ele>77</ele>
        <time>2013-09-29T09:22:34.000Z</time>
      </trkpt>
      <trkpt lat="48.24152" lon="3.30092">
        <ele>77</ele>
        <time>2013-09-29T09:22:35.000Z</time>
      </trkpt>
      <trkpt lat="48.24152" lon="3.30096">
        <ele>77</ele>
        <time>2013-09-29T09:22:36.000Z</time>
      </trkpt>
      <trkpt lat="48.24152" lon="3.30101">
        <ele>77</ele>
        <time>2013-09-29T09:22:37.000Z</time>
      </trkpt>
      <trkpt lat="48.24152" lon="3.30105">
        <ele>78</ele>
        <time>2013-09-29T09:22:38.000Z</time>
      </trkpt>
      <trkpt lat="48.24152" lon="3.30109">
        <ele>78</ele>
        <time>2013-09-29T09:22:39.000Z</time>
      </trkpt>
      <trkpt lat="48.24152" lon="3.30113">
        <ele>78</ele>
        <time>2013-09-29T09:22:40.000Z</time>
      </trkpt>
      <trkpt lat="48.24152" lon="3.30118">
        <ele>78</ele>
        <time>2013-09-29T09:22:41.000Z</time>
      </trkpt>
      <trkpt lat="48.24151" lon="3.30124">
        <ele>78</ele>
        <time>2013-09-29T09:22:46.000Z</time>
      </trkpt>
      <trkpt lat="48.24146" lon="3.30124">
        <ele>78</ele>
        <time>2013-09-29T09:22:47.000Z</time>
      </trkpt>
      <trkpt lat="48.24146" lon="3.30124">
        <ele>78</ele>
        <time>2013-09-29T09:22:52.000Z</time>
      </trkpt>
      <trkpt lat="48.2414" lon="3.30126">
        <ele>78</ele>
        <time>2013-09-29T09:22:53.000Z</time>
      </trkpt>
      <trkpt lat="48.24135" lon="3.30128">
        <ele>78</ele>
        <time>2013-09-29T09:23:03.000Z</time>
      </trkpt>
      <trkpt lat="48.24131" lon="3.30128">
        <ele>78</ele>
        <time>2013-09-29T09:23:04.000Z</time>
      </trkpt>
      <trkpt lat="48.24131" lon="3.30128">
        <ele>78</ele>
        <time>2013-09-29T09:23:21.000Z</time>
      </trkpt>
      <trkpt lat="48.24126" lon="3.30128">
        <ele>78</ele>
        <time>2013-09-29T09:23:22.000Z</time>
      </trkpt>
      <trkpt lat="48.24126" lon="3.30128">
        <ele>78</ele>
        <time>2013-09-29T09:23:24.000Z</time>
      </trkpt>
      <trkpt lat="48.24119" lon="3.30126">
        <ele>79</ele>
        <time>2013-09-29T09:23:25.000Z</time>
      </trkpt>
      <trkpt lat="48.24119" lon="3.30126">
        <ele>79</ele>
        <time>2013-09-29T09:23:27.000Z</time>
      </trkpt>
      <trkpt lat="48.24113" lon="3.30124">
        <ele>79</ele>
        <time>2013-09-29T09:23:28.000Z</time>
      </trkpt>
      <trkpt lat="48.24113" lon="3.30124">
        <ele>79</ele>
        <time>2013-09-29T09:23:31.000Z</time>
      </trkpt>
      <trkpt lat="48.24105" lon="3.3012">
        <ele>79</ele>
        <time>2013-09-29T09:23:32.000Z</time>
      </trkpt>
      <trkpt lat="48.24105" lon="3.3012">
        <ele>79</ele>
        <time>2013-09-29T09:23:34.000Z</time>
      </trkpt>
      <trkpt lat="48.241" lon="3.30118">
        <ele>79</ele>
        <time>2013-09-29T09:23:35.000Z</time>
      </trkpt>
      <trkpt lat="48.241" lon="3.30118">
        <ele>79</ele>
        <time>2013-09-29T09:23:37.000Z</time>
      </trkpt>
      <trkpt lat="48.24095" lon="3.30116">
        <ele>79</ele>
        <time>2013-09-29T09:23:38.000Z</time>
      </trkpt>
      <trkpt lat="48.24095" lon="3.30116">
        <ele>79</ele>
        <time>2013-09-29T09:23:40.000Z</time>
      </trkpt>
      <trkpt lat="48.24089" lon="3.30113">
        <ele>79</ele>
        <time>2013-09-29T09:23:41.000Z</time>
      </trkpt>
      <trkpt lat="48.24089" lon="3.30113">
        <ele>79</ele>
        <time>2013-09-29T09:23:44.000Z</time>
      </trkpt>
      <trkpt lat="48.24083" lon="3.30109">
        <ele>82</ele>
        <time>2013-09-29T09:23:45.000Z</time>
      </trkpt>
      <trkpt lat="48.24083" lon="3.30109">
        <ele>82</ele>
        <time>2013-09-29T09:23:47.000Z</time>
      </trkpt>
      <trkpt lat="48.24077" lon="3.30105">
        <ele>82</ele>
        <time>2013-09-29T09:23:48.000Z</time>
      </trkpt>
      <trkpt lat="48.24077" lon="3.30105">
        <ele>82</ele>
        <time>2013-09-29T09:23:50.000Z</time>
      </trkpt>
      <trkpt lat="48.24071" lon="3.30103">
        <ele>82</ele>
        <time>2013-09-29T09:23:51.000Z</time>
      </trkpt>
      <trkpt lat="48.24067" lon="3.30101">
        <ele>82</ele>
        <time>2013-09-29T09:23:58.000Z</time>
      </trkpt>
      <trkpt lat="48.24057" lon="3.30096">
        <ele>82</ele>
        <time>2013-09-29T09:23:59.000Z</time>
      </trkpt>
      <trkpt lat="48.24057" lon="3.30096">
        <ele>82</ele>
        <time>2013-09-29T09:24:01.000Z</time>
      </trkpt>
      <trkpt lat="48.24052" lon="3.30092">
        <ele>82</ele>
        <time>2013-09-29T09:24:02.000Z</time>
      </trkpt>
      <trkpt lat="48.24052" lon="3.30092">
        <ele>82</ele>
        <time>2013-09-29T09:24:04.000Z</time>
      </trkpt>
      <trkpt lat="48.24045" lon="3.3009">
        <ele>82</ele>
        <time>2013-09-29T09:24:05.000Z</time>
      </trkpt>
      <trkpt lat="48.24045" lon="3.3009">
        <ele>82</ele>
        <time>2013-09-29T09:24:07.000Z</time>
      </trkpt>
      <trkpt lat="48.24039" lon="3.30086">
        <ele>82</ele>
        <time>2013-09-29T09:24:08.000Z</time>
      </trkpt>
      <trkpt lat="48.24034" lon="3.30083">
        <ele>83</ele>
        <time>2013-09-29T09:24:11.000Z</time>
      </trkpt>
      <trkpt lat="48.2403" lon="3.30081">
        <ele>83</ele>
        <time>2013-09-29T09:24:12.000Z</time>
      </trkpt>
      <trkpt lat="48.2403" lon="3.30081">
        <ele>83</ele>
        <time>2013-09-29T09:24:14.000Z</time>
      </trkpt>
      <trkpt lat="48.24024" lon="3.30077">
        <ele>83</ele>
        <time>2013-09-29T09:24:15.000Z</time>
      </trkpt>
      <trkpt lat="48.24022" lon="3.30077">
        <ele>83</ele>
        <time>2013-09-29T09:24:17.000Z</time>
      </trkpt>
      <trkpt lat="48.24017" lon="3.30075">
        <ele>83</ele>
        <time>2013-09-29T09:24:18.000Z</time>
      </trkpt>
      <trkpt lat="48.24015" lon="3.30073">
        <ele>83</ele>
        <time>2013-09-29T09:24:19.000Z</time>
      </trkpt>
      <trkpt lat="48.24013" lon="3.3007">
        <ele>83</ele>
        <time>2013-09-29T09:24:20.000Z</time>
      </trkpt>
      <trkpt lat="48.24011" lon="3.3007">
        <ele>83</ele>
        <time>2013-09-29T09:24:21.000Z</time>
      </trkpt>
      <trkpt lat="48.24008" lon="3.30068">
        <ele>83</ele>
        <time>2013-09-29T09:24:22.000Z</time>
      </trkpt>
      <trkpt lat="48.24005" lon="3.30066">
        <ele>83</ele>
        <time>2013-09-29T09:24:23.000Z</time>
      </trkpt>
      <trkpt lat="48.24003" lon="3.30064">
        <ele>83</ele>
        <time>2013-09-29T09:24:24.000Z</time>
      </trkpt>
      <trkpt lat="48.23999" lon="3.30062">
        <ele>84</ele>
        <time>2013-09-29T09:24:26.000Z</time>
      </trkpt>
      <trkpt lat="48.23996" lon="3.3006">
        <ele>84</ele>
        <time>2013-09-29T09:24:27.000Z</time>
      </trkpt>
      <trkpt lat="48.23992" lon="3.30058">
        <ele>84</ele>
        <time>2013-09-29T09:24:29.000Z</time>
      </trkpt>
      <trkpt lat="48.23989" lon="3.30055">
        <ele>84</ele>
        <time>2013-09-29T09:24:30.000Z</time>
      </trkpt>
      <trkpt lat="48.23986" lon="3.30053">
        <ele>84</ele>
        <time>2013-09-29T09:24:31.000Z</time>
      </trkpt>
      <trkpt lat="48.23984" lon="3.30051">
        <ele>84</ele>
        <time>2013-09-29T09:24:32.000Z</time>
      </trkpt>
      <trkpt lat="48.2398" lon="3.30049">
        <ele>84</ele>
        <time>2013-09-29T09:24:34.000Z</time>
      </trkpt>
      <trkpt lat="48.23978" lon="3.30049">
        <ele>84</ele>
        <time>2013-09-29T09:24:35.000Z</time>
      </trkpt>
      <trkpt lat="48.23974" lon="3.30047">
        <ele>84</ele>
        <time>2013-09-29T09:24:36.000Z</time>
      </trkpt>
      <trkpt lat="48.23972" lon="3.30045">
        <ele>84</ele>
        <time>2013-09-29T09:24:37.000Z</time>
      </trkpt>
      <trkpt lat="48.23968" lon="3.30043">
        <ele>84</ele>
        <time>2013-09-29T09:24:39.000Z</time>
      </trkpt>
      <trkpt lat="48.23965" lon="3.3004">
        <ele>84</ele>
        <time>2013-09-29T09:24:40.000Z</time>
      </trkpt>
      <trkpt lat="48.23963" lon="3.3004">
        <ele>84</ele>
        <time>2013-09-29T09:24:41.000Z</time>
      </trkpt>
      <trkpt lat="48.2396" lon="3.30038">
        <ele>84</ele>
        <time>2013-09-29T09:24:42.000Z</time>
      </trkpt>
      <trkpt lat="48.23957" lon="3.30036">
        <ele>83</ele>
        <time>2013-09-29T09:24:43.000Z</time>
      </trkpt>
      <trkpt lat="48.23955" lon="3.30036">
        <ele>83</ele>
        <time>2013-09-29T09:24:44.000Z</time>
      </trkpt>
      <trkpt lat="48.23953" lon="3.30034">
        <ele>83</ele>
        <time>2013-09-29T09:24:45.000Z</time>
      </trkpt>
      <trkpt lat="48.2395" lon="3.30032">
        <ele>83</ele>
        <time>2013-09-29T09:24:46.000Z</time>
      </trkpt>
      <trkpt lat="48.23945" lon="3.3003">
        <ele>83</ele>
        <time>2013-09-29T09:24:48.000Z</time>
      </trkpt>
      <trkpt lat="48.23943" lon="3.30028">
        <ele>83</ele>
        <time>2013-09-29T09:24:49.000Z</time>
      </trkpt>
      <trkpt lat="48.2394" lon="3.30025">
        <ele>83</ele>
        <time>2013-09-29T09:24:50.000Z</time>
      </trkpt>
      <trkpt lat="48.23938" lon="3.30023">
        <ele>83</ele>
        <time>2013-09-29T09:24:51.000Z</time>
      </trkpt>
      <trkpt lat="48.23936" lon="3.30023">
        <ele>83</ele>
        <time>2013-09-29T09:24:52.000Z</time>
      </trkpt>
      <trkpt lat="48.23933" lon="3.30021">
        <ele>83</ele>
        <time>2013-09-29T09:24:53.000Z</time>
      </trkpt>
      <trkpt lat="48.2393" lon="3.30019">
        <ele>83</ele>
        <time>2013-09-29T09:24:54.000Z</time>
      </trkpt>
      <trkpt lat="48.23928" lon="3.30017">
        <ele>83</ele>
        <time>2013-09-29T09:24:55.000Z</time>
      </trkpt>
      <trkpt lat="48.23925" lon="3.30017">
        <ele>83</ele>
        <time>2013-09-29T09:24:56.000Z</time>
      </trkpt>
      <trkpt lat="48.23923" lon="3.30015">
        <ele>83</ele>
        <time>2013-09-29T09:24:57.000Z</time>
      </trkpt>
      <trkpt lat="48.23921" lon="3.30013">
        <ele>83</ele>
        <time>2013-09-29T09:24:58.000Z</time>
      </trkpt>
      <trkpt lat="48.23918" lon="3.30013">
        <ele>83</ele>
        <time>2013-09-29T09:24:59.000Z</time>
      </trkpt>
      <trkpt lat="48.23915" lon="3.3001">
        <ele>83</ele>
        <time>2013-09-29T09:25:00.000Z</time>
      </trkpt>
      <trkpt lat="48.23913" lon="3.30008">
        <ele>83</ele>
        <time>2013-09-29T09:25:01.000Z</time>
      </trkpt>
      <trkpt lat="48.2391" lon="3.30008">
        <ele>83</ele>
        <time>2013-09-29T09:25:02.000Z</time>
      </trkpt>
      <trkpt lat="48.23908" lon="3.30006">
        <ele>83</ele>
        <time>2013-09-29T09:25:03.000Z</time>
      </trkpt>
      <trkpt lat="48.23905" lon="3.30006">
        <ele>83</ele>
        <time>2013-09-29T09:25:04.000Z</time>
      </trkpt>
      <trkpt lat="48.23902" lon="3.30004">
        <ele>83</ele>
        <time>2013-09-29T09:25:05.000Z</time>
      </trkpt>
      <trkpt lat="48.23899" lon="3.30004">
        <ele>83</ele>
        <time>2013-09-29T09:25:06.000Z</time>
      </trkpt>
      <trkpt lat="48.23897" lon="3.30004">
        <ele>83</ele>
        <time>2013-09-29T09:25:07.000Z</time>
      </trkpt>
      <trkpt lat="48.23893" lon="3.30004">
        <ele>83</ele>
        <time>2013-09-29T09:25:09.000Z</time>
      </trkpt>
      <trkpt lat="48.2389" lon="3.30004">
        <ele>83</ele>
        <time>2013-09-29T09:25:10.000Z</time>
      </trkpt>
      <trkpt lat="48.23885" lon="3.30004">
        <ele>83</ele>
        <time>2013-09-29T09:25:12.000Z</time>
      </trkpt>
      <trkpt lat="48.23883" lon="3.30004">
        <ele>83</ele>
        <time>2013-09-29T09:25:13.000Z</time>
      </trkpt>
      <trkpt lat="48.23879" lon="3.30004">
        <ele>83</ele>
        <time>2013-09-29T09:25:15.000Z</time>
      </trkpt>
      <trkpt lat="48.23877" lon="3.30004">
        <ele>83</ele>
        <time>2013-09-29T09:25:16.000Z</time>
      </trkpt>
      <trkpt lat="48.23874" lon="3.30006">
        <ele>83</ele>
        <time>2013-09-29T09:25:27.000Z</time>
      </trkpt>
      <trkpt lat="48.23872" lon="3.30008">
        <ele>83</ele>
        <time>2013-09-29T09:25:28.000Z</time>
      </trkpt>
      <trkpt lat="48.23868" lon="3.3001">
        <ele>83</ele>
        <time>2013-09-29T09:25:32.000Z</time>
      </trkpt>
      <trkpt lat="48.23868" lon="3.30013">
        <ele>83</ele>
        <time>2013-09-29T09:25:33.000Z</time>
      </trkpt>
      <trkpt lat="48.23865" lon="3.30015">
        <ele>83</ele>
        <time>2013-09-29T09:25:36.000Z</time>
      </trkpt>
      <trkpt lat="48.23864" lon="3.30017">
        <ele>83</ele>
        <time>2013-09-29T09:25:37.000Z</time>
      </trkpt>
      <trkpt lat="48.2386" lon="3.30019">
        <ele>83</ele>
        <time>2013-09-29T09:25:41.000Z</time>
      </trkpt>
      <trkpt lat="48.23858" lon="3.30021">
        <ele>83</ele>
        <time>2013-09-29T09:25:42.000Z</time>
      </trkpt>
      <trkpt lat="48.23854" lon="3.30021">
        <ele>83</ele>
        <time>2013-09-29T09:25:47.000Z</time>
      </trkpt>
      <trkpt lat="48.23853" lon="3.30023">
        <ele>83</ele>
        <time>2013-09-29T09:25:48.000Z</time>
      </trkpt>
      <trkpt lat="48.2385" lon="3.30028">
        <ele>83</ele>
        <time>2013-09-29T09:25:53.000Z</time>
      </trkpt>
      <trkpt lat="48.23849" lon="3.30028">
        <ele>83</ele>
        <time>2013-09-29T09:25:54.000Z</time>
      </trkpt>
      <trkpt lat="48.23846" lon="3.30032">
        <ele>83</ele>
        <time>2013-09-29T09:26:01.000Z</time>
      </trkpt>
      <trkpt lat="48.23845" lon="3.30032">
        <ele>83</ele>
        <time>2013-09-29T09:26:02.000Z</time>
      </trkpt>
      <trkpt lat="48.2384" lon="3.30034">
        <ele>83</ele>
        <time>2013-09-29T09:26:05.000Z</time>
      </trkpt>
      <trkpt lat="48.23839" lon="3.30036">
        <ele>83</ele>
        <time>2013-09-29T09:26:06.000Z</time>
      </trkpt>
      <trkpt lat="48.23836" lon="3.30038">
        <ele>83</ele>
        <time>2013-09-29T09:26:11.000Z</time>
      </trkpt>
      <trkpt lat="48.23835" lon="3.3004">
        <ele>83</ele>
        <time>2013-09-29T09:26:12.000Z</time>
      </trkpt>
      <trkpt lat="48.23832" lon="3.30043">
        <ele>83</ele>
        <time>2013-09-29T09:26:17.000Z</time>
      </trkpt>
      <trkpt lat="48.2383" lon="3.30043">
        <ele>83</ele>
        <time>2013-09-29T09:26:18.000Z</time>
      </trkpt>
      <trkpt lat="48.23826" lon="3.30045">
        <ele>83</ele>
        <time>2013-09-29T09:26:20.000Z</time>
      </trkpt>
      <trkpt lat="48.23825" lon="3.30047">
        <ele>83</ele>
        <time>2013-09-29T09:26:21.000Z</time>
      </trkpt>
      <trkpt lat="48.23823" lon="3.30049">
        <ele>83</ele>
        <time>2013-09-29T09:26:22.000Z</time>
      </trkpt>
      <trkpt lat="48.23821" lon="3.30049">
        <ele>83</ele>
        <time>2013-09-29T09:26:23.000Z</time>
      </trkpt>
      <trkpt lat="48.23818" lon="3.30053">
        <ele>83</ele>
        <time>2013-09-29T09:26:25.000Z</time>
      </trkpt>
      <trkpt lat="48.23816" lon="3.30053">
        <ele>83</ele>
        <time>2013-09-29T09:26:26.000Z</time>
      </trkpt>
      <trkpt lat="48.23812" lon="3.30055">
        <ele>83</ele>
        <time>2013-09-29T09:26:28.000Z</time>
      </trkpt>
      <trkpt lat="48.2381" lon="3.30058">
        <ele>83</ele>
        <time>2013-09-29T09:26:29.000Z</time>
      </trkpt>
      <trkpt lat="48.23807" lon="3.3006">
        <ele>83</ele>
        <time>2013-09-29T09:26:33.000Z</time>
      </trkpt>
      <trkpt lat="48.23806" lon="3.3006">
        <ele>83</ele>
        <time>2013-09-29T09:26:34.000Z</time>
      </trkpt>
      <trkpt lat="48.23803" lon="3.30062">
        <ele>83</ele>
        <time>2013-09-29T09:26:38.000Z</time>
      </trkpt>
      <trkpt lat="48.23802" lon="3.30062">
        <ele>83</ele>
        <time>2013-09-29T09:26:39.000Z</time>
      </trkpt>
      <trkpt lat="48.23797" lon="3.30064">
        <ele>83</ele>
        <time>2013-09-29T09:26:45.000Z</time>
      </trkpt>
      <trkpt lat="48.23796" lon="3.30066">
        <ele>83</ele>
        <time>2013-09-29T09:26:46.000Z</time>
      </trkpt>
      <trkpt lat="48.23792" lon="3.30068">
        <ele>83</ele>
        <time>2013-09-29T09:26:59.000Z</time>
      </trkpt>
      <trkpt lat="48.23792" lon="3.3007">
        <ele>83</ele>
        <time>2013-09-29T09:27:00.000Z</time>
      </trkpt>
      <trkpt lat="48.23789" lon="3.30075">
        <ele>83</ele>
        <time>2013-09-29T09:27:51.000Z</time>
      </trkpt>
      <trkpt lat="48.23788" lon="3.30075">
        <ele>83</ele>
        <time>2013-09-29T09:27:52.000Z</time>
      </trkpt>
      <trkpt lat="48.23784" lon="3.30079">
        <ele>83</ele>
        <time>2013-09-29T09:28:50.000Z</time>
      </trkpt>
      <trkpt lat="48.23783" lon="3.30081">
        <ele>83</ele>
        <time>2013-09-29T09:28:51.000Z</time>
      </trkpt>
      <trkpt lat="48.23779" lon="3.30083">
        <ele>83</ele>
        <time>2013-09-29T09:28:53.000Z</time>
      </trkpt>
      <trkpt lat="48.23777" lon="3.30086">
        <ele>83</ele>
        <time>2013-09-29T09:28:54.000Z</time>
      </trkpt>
      <trkpt lat="48.23773" lon="3.30088">
        <ele>83</ele>
        <time>2013-09-29T09:28:56.000Z</time>
      </trkpt>
      <trkpt lat="48.23772" lon="3.3009">
        <ele>83</ele>
        <time>2013-09-29T09:28:57.000Z</time>
      </trkpt>
      <trkpt lat="48.23768" lon="3.30092">
        <ele>83</ele>
        <time>2013-09-29T09:28:59.000Z</time>
      </trkpt>
      <trkpt lat="48.23766" lon="3.30092">
        <ele>83</ele>
        <time>2013-09-29T09:29:00.000Z</time>
      </trkpt>
      <trkpt lat="48.23763" lon="3.30094">
        <ele>83</ele>
        <time>2013-09-29T09:29:09.000Z</time>
      </trkpt>
      <trkpt lat="48.23762" lon="3.30094">
        <ele>83</ele>
        <time>2013-09-29T09:29:10.000Z</time>
      </trkpt>
      <trkpt lat="48.23759" lon="3.30098">
        <ele>83</ele>
        <time>2013-09-29T09:29:20.000Z</time>
      </trkpt>
      <trkpt lat="48.23758" lon="3.30098">
        <ele>83</ele>
        <time>2013-09-29T09:29:21.000Z</time>
      </trkpt>
      <trkpt lat="48.23754" lon="3.30101">
        <ele>83</ele>
        <time>2013-09-29T09:29:24.000Z</time>
      </trkpt>
      <trkpt lat="48.23753" lon="3.30101">
        <ele>83</ele>
        <time>2013-09-29T09:29:25.000Z</time>
      </trkpt>
      <trkpt lat="48.2375" lon="3.30105">
        <ele>83</ele>
        <time>2013-09-29T09:29:51.000Z</time>
      </trkpt>
      <trkpt lat="48.23749" lon="3.30107">
        <ele>83</ele>
        <time>2013-09-29T09:29:52.000Z</time>
      </trkpt>
      <trkpt lat="48.23745" lon="3.30109">
        <ele>84</ele>
        <time>2013-09-29T09:29:55.000Z</time>
      </trkpt>
      <trkpt lat="48.23743" lon="3.30111">
        <ele>84</ele>
        <time>2013-09-29T09:29:56.000Z</time>
      </trkpt>
      <trkpt lat="48.2374" lon="3.30113">
        <ele>84</ele>
        <time>2013-09-29T09:29:57.000Z</time>
      </trkpt>
      <trkpt lat="48.23738" lon="3.30116">
        <ele>84</ele>
        <time>2013-09-29T09:29:58.000Z</time>
      </trkpt>
      <trkpt lat="48.23735" lon="3.30118">
        <ele>84</ele>
        <time>2013-09-29T09:29:59.000Z</time>
      </trkpt>
      <trkpt lat="48.23733" lon="3.3012">
        <ele>84</ele>
        <time>2013-09-29T09:30:00.000Z</time>
      </trkpt>
      <trkpt lat="48.23729" lon="3.30122">
        <ele>84</ele>
        <time>2013-09-29T09:30:02.000Z</time>
      </trkpt>
      <trkpt lat="48.23727" lon="3.30124">
        <ele>84</ele>
        <time>2013-09-29T09:30:03.000Z</time>
      </trkpt>
      <trkpt lat="48.23723" lon="3.30126">
        <ele>84</ele>
        <time>2013-09-29T09:30:04.000Z</time>
      </trkpt>
      <trkpt lat="48.23721" lon="3.30128">
        <ele>84</ele>
        <time>2013-09-29T09:30:05.000Z</time>
      </trkpt>
      <trkpt lat="48.23717" lon="3.30131">
        <ele>84</ele>
        <time>2013-09-29T09:30:11.000Z</time>
      </trkpt>
      <trkpt lat="48.23716" lon="3.30131">
        <ele>84</ele>
        <time>2013-09-29T09:30:12.000Z</time>
      </trkpt>
      <trkpt lat="48.23713" lon="3.30133">
        <ele>84</ele>
        <time>2013-09-29T09:30:18.000Z</time>
      </trkpt>
      <trkpt lat="48.23712" lon="3.30133">
        <ele>84</ele>
        <time>2013-09-29T09:30:19.000Z</time>
      </trkpt>
      <trkpt lat="48.23709" lon="3.30135">
        <ele>84</ele>
        <time>2013-09-29T09:30:20.000Z</time>
      </trkpt>
      <trkpt lat="48.23707" lon="3.30135">
        <ele>84</ele>
        <time>2013-09-29T09:30:21.000Z</time>
      </trkpt>
      <trkpt lat="48.23704" lon="3.30139">
        <ele>84</ele>
        <time>2013-09-29T09:30:23.000Z</time>
      </trkpt>
      <trkpt lat="48.23702" lon="3.30141">
        <ele>84</ele>
        <time>2013-09-29T09:30:24.000Z</time>
      </trkpt>
      <trkpt lat="48.23699" lon="3.30143">
        <ele>84</ele>
        <time>2013-09-29T09:30:28.000Z</time>
      </trkpt>
      <trkpt lat="48.23698" lon="3.30146">
        <ele>84</ele>
        <time>2013-09-29T09:30:29.000Z</time>
      </trkpt>
      <trkpt lat="48.23693" lon="3.30148">
        <ele>84</ele>
        <time>2013-09-29T09:30:36.000Z</time>
      </trkpt>
      <trkpt lat="48.23692" lon="3.3015">
        <ele>84</ele>
        <time>2013-09-29T09:30:37.000Z</time>
      </trkpt>
      <trkpt lat="48.23689" lon="3.30152">
        <ele>84</ele>
        <time>2013-09-29T09:30:40.000Z</time>
      </trkpt>
      <trkpt lat="48.23688" lon="3.30154">
        <ele>84</ele>
        <time>2013-09-29T09:30:41.000Z</time>
      </trkpt>
      <trkpt lat="48.23685" lon="3.30156">
        <ele>84</ele>
        <time>2013-09-29T09:30:46.000Z</time>
      </trkpt>
      <trkpt lat="48.23684" lon="3.30156">
        <ele>84</ele>
        <time>2013-09-29T09:30:47.000Z</time>
      </trkpt>
      <trkpt lat="48.23681" lon="3.30158">
        <ele>84</ele>
        <time>2013-09-29T09:30:52.000Z</time>
      </trkpt>
      <trkpt lat="48.23679" lon="3.30158">
        <ele>84</ele>
        <time>2013-09-29T09:30:53.000Z</time>
      </trkpt>
      <trkpt lat="48.23676" lon="3.30161">
        <ele>84</ele>
        <time>2013-09-29T09:30:55.000Z</time>
      </trkpt>
      <trkpt lat="48.23674" lon="3.30163">
        <ele>84</ele>
        <time>2013-09-29T09:30:56.000Z</time>
      </trkpt>
      <trkpt lat="48.2367" lon="3.30165">
        <ele>84</ele>
        <time>2013-09-29T09:30:58.000Z</time>
      </trkpt>
      <trkpt lat="48.23668" lon="3.30167">
        <ele>84</ele>
        <time>2013-09-29T09:30:59.000Z</time>
      </trkpt>
      <trkpt lat="48.23664" lon="3.30171">
        <ele>84</ele>
        <time>2013-09-29T09:31:01.000Z</time>
      </trkpt>
      <trkpt lat="48.23662" lon="3.30173">
        <ele>84</ele>
        <time>2013-09-29T09:31:02.000Z</time>
      </trkpt>
      <trkpt lat="48.23658" lon="3.30176">
        <ele>84</ele>
        <time>2013-09-29T09:31:04.000Z</time>
      </trkpt>
      <trkpt lat="48.23656" lon="3.30178">
        <ele>84</ele>
        <time>2013-09-29T09:31:05.000Z</time>
      </trkpt>
      <trkpt lat="48.23654" lon="3.3018">
        <ele>84</ele>
        <time>2013-09-29T09:31:06.000Z</time>
      </trkpt>
      <trkpt lat="48.23651" lon="3.30182">
        <ele>84</ele>
        <time>2013-09-29T09:31:07.000Z</time>
      </trkpt>
      <trkpt lat="48.23649" lon="3.30184">
        <ele>84</ele>
        <time>2013-09-29T09:31:08.000Z</time>
      </trkpt>
      <trkpt lat="48.23647" lon="3.30184">
        <ele>84</ele>
        <time>2013-09-29T09:31:09.000Z</time>
      </trkpt>
      <trkpt lat="48.23645" lon="3.30186">
        <ele>84</ele>
        <time>2013-09-29T09:31:10.000Z</time>
      </trkpt>
      <trkpt lat="48.23643" lon="3.30189">
        <ele>84</ele>
        <time>2013-09-29T09:31:11.000Z</time>
      </trkpt>
      <trkpt lat="48.23641" lon="3.30191">
        <ele>84</ele>
        <time>2013-09-29T09:31:12.000Z</time>
      </trkpt>
      <trkpt lat="48.23639" lon="3.30193">
        <ele>84</ele>
        <time>2013-09-29T09:31:13.000Z</time>
      </trkpt>
      <trkpt lat="48.23636" lon="3.30195">
        <ele>84</ele>
        <time>2013-09-29T09:31:14.000Z</time>
      </trkpt>
      <trkpt lat="48.23634" lon="3.30197">
        <ele>84</ele>
        <time>2013-09-29T09:31:15.000Z</time>
      </trkpt>
      <trkpt lat="48.2363" lon="3.30199">
        <ele>84</ele>
        <time>2013-09-29T09:31:17.000Z</time>
      </trkpt>
      <trkpt lat="48.23628" lon="3.30201">
        <ele>84</ele>
        <time>2013-09-29T09:31:18.000Z</time>
      </trkpt>
      <trkpt lat="48.23625" lon="3.30206">
        <ele>84</ele>
        <time>2013-09-29T09:31:20.000Z</time>
      </trkpt>
      <trkpt lat="48.23622" lon="3.30206">
        <ele>84</ele>
        <time>2013-09-29T09:31:21.000Z</time>
      </trkpt>
      <trkpt lat="48.2362" lon="3.30208">
        <ele>84</ele>
        <time>2013-09-29T09:31:22.000Z</time>
      </trkpt>
      <trkpt lat="48.23618" lon="3.3021">
        <ele>84</ele>
        <time>2013-09-29T09:31:23.000Z</time>
      </trkpt>
      <trkpt lat="48.23614" lon="3.30212">
        <ele>84</ele>
        <time>2013-09-29T09:31:25.000Z</time>
      </trkpt>
      <trkpt lat="48.23613" lon="3.30214">
        <ele>84</ele>
        <time>2013-09-29T09:31:26.000Z</time>
      </trkpt>
      <trkpt lat="48.23611" lon="3.30216">
        <ele>84</ele>
        <time>2013-09-29T09:31:27.000Z</time>
      </trkpt>
      <trkpt lat="48.23609" lon="3.30216">
        <ele>84</ele>
        <time>2013-09-29T09:31:28.000Z</time>
      </trkpt>
      <trkpt lat="48.23606" lon="3.30219">
        <ele>84</ele>
        <time>2013-09-29T09:31:29.000Z</time>
      </trkpt>
      <trkpt lat="48.23604" lon="3.30221">
        <ele>84</ele>
        <time>2013-09-29T09:31:30.000Z</time>
      </trkpt>
      <trkpt lat="48.23602" lon="3.30223">
        <ele>84</ele>
        <time>2013-09-29T09:31:31.000Z</time>
      </trkpt>
      <trkpt lat="48.236" lon="3.30223">
        <ele>84</ele>
        <time>2013-09-29T09:31:32.000Z</time>
      </trkpt>
      <trkpt lat="48.23597" lon="3.30227">
        <ele>84</ele>
        <time>2013-09-29T09:31:35.000Z</time>
      </trkpt>
      <trkpt lat="48.23595" lon="3.30229">
        <ele>84</ele>
        <time>2013-09-29T09:31:36.000Z</time>
      </trkpt>
      <trkpt lat="48.2359" lon="3.30231">
        <ele>84</ele>
        <time>2013-09-29T09:31:39.000Z</time>
      </trkpt>
      <trkpt lat="48.23589" lon="3.30234">
        <ele>84</ele>
        <time>2013-09-29T09:31:40.000Z</time>
      </trkpt>
      <trkpt lat="48.23586" lon="3.30238">
        <ele>84</ele>
        <time>2013-09-29T09:31:44.000Z</time>
      </trkpt>
      <trkpt lat="48.23585" lon="3.3024">
        <ele>84</ele>
        <time>2013-09-29T09:31:45.000Z</time>
      </trkpt>
      <trkpt lat="48.23582" lon="3.30242">
        <ele>84</ele>
        <time>2013-09-29T09:31:47.000Z</time>
      </trkpt>
      <trkpt lat="48.2358" lon="3.30244">
        <ele>84</ele>
        <time>2013-09-29T09:31:48.000Z</time>
      </trkpt>
      <trkpt lat="48.23576" lon="3.30249">
        <ele>84</ele>
        <time>2013-09-29T09:31:50.000Z</time>
      </trkpt>
      <trkpt lat="48.23574" lon="3.30249">
        <ele>84</ele>
        <time>2013-09-29T09:31:51.000Z</time>
      </trkpt>
      <trkpt lat="48.23572" lon="3.30251">
        <ele>84</ele>
        <time>2013-09-29T09:31:52.000Z</time>
      </trkpt>
      <trkpt lat="48.23569" lon="3.30253">
        <ele>84</ele>
        <time>2013-09-29T09:31:53.000Z</time>
      </trkpt>
      <trkpt lat="48.23567" lon="3.30255">
        <ele>83</ele>
        <time>2013-09-29T09:31:54.000Z</time>
      </trkpt>
      <trkpt lat="48.23565" lon="3.30257">
        <ele>83</ele>
        <time>2013-09-29T09:31:55.000Z</time>
      </trkpt>
      <trkpt lat="48.23562" lon="3.30259">
        <ele>83</ele>
        <time>2013-09-29T09:31:56.000Z</time>
      </trkpt>
      <trkpt lat="48.2356" lon="3.30261">
        <ele>83</ele>
        <time>2013-09-29T09:31:57.000Z</time>
      </trkpt>
      <trkpt lat="48.23558" lon="3.30264">
        <ele>83</ele>
        <time>2013-09-29T09:31:58.000Z</time>
      </trkpt>
      <trkpt lat="48.23556" lon="3.30266">
        <ele>83</ele>
        <time>2013-09-29T09:31:59.000Z</time>
      </trkpt>
      <trkpt lat="48.23553" lon="3.30268">
        <ele>83</ele>
        <time>2013-09-29T09:32:00.000Z</time>
      </trkpt>
      <trkpt lat="48.23551" lon="3.3027">
        <ele>83</ele>
        <time>2013-09-29T09:32:01.000Z</time>
      </trkpt>
      <trkpt lat="48.23548" lon="3.30272">
        <ele>83</ele>
        <time>2013-09-29T09:32:02.000Z</time>
      </trkpt>
      <trkpt lat="48.23546" lon="3.30274">
        <ele>83</ele>
        <time>2013-09-29T09:32:03.000Z</time>
      </trkpt>
      <trkpt lat="48.23544" lon="3.30276">
        <ele>83</ele>
        <time>2013-09-29T09:32:04.000Z</time>
      </trkpt>
      <trkpt lat="48.23541" lon="3.30279">
        <ele>83</ele>
        <time>2013-09-29T09:32:05.000Z</time>
      </trkpt>
      <trkpt lat="48.23539" lon="3.30281">
        <ele>83</ele>
        <time>2013-09-29T09:32:06.000Z</time>
      </trkpt>
      <trkpt lat="48.23537" lon="3.30283">
        <ele>83</ele>
        <time>2013-09-29T09:32:07.000Z</time>
      </trkpt>
      <trkpt lat="48.23533" lon="3.30285">
        <ele>83</ele>
        <time>2013-09-29T09:32:08.000Z</time>
      </trkpt>
      <trkpt lat="48.23531" lon="3.30287">
        <ele>83</ele>
        <time>2013-09-29T09:32:09.000Z</time>
      </trkpt>
      <trkpt lat="48.23529" lon="3.30292">
        <ele>83</ele>
        <time>2013-09-29T09:32:10.000Z</time>
      </trkpt>
      <trkpt lat="48.23527" lon="3.30292">
        <ele>83</ele>
        <time>2013-09-29T09:32:11.000Z</time>
      </trkpt>
      <trkpt lat="48.23525" lon="3.30294">
        <ele>83</ele>
        <time>2013-09-29T09:32:12.000Z</time>
      </trkpt>
      <trkpt lat="48.23523" lon="3.30296">
        <ele>83</ele>
        <time>2013-09-29T09:32:13.000Z</time>
      </trkpt>
      <trkpt lat="48.23522" lon="3.30298">
        <ele>83</ele>
        <time>2013-09-29T09:32:14.000Z</time>
      </trkpt>
      <trkpt lat="48.23519" lon="3.30302">
        <ele>83</ele>
        <time>2013-09-29T09:32:15.000Z</time>
      </trkpt>
      <trkpt lat="48.23517" lon="3.30304">
        <ele>83</ele>
        <time>2013-09-29T09:32:16.000Z</time>
      </trkpt>
      <trkpt lat="48.23515" lon="3.30307">
        <ele>83</ele>
        <time>2013-09-29T09:32:17.000Z</time>
      </trkpt>
      <trkpt lat="48.23512" lon="3.30309">
        <ele>83</ele>
        <time>2013-09-29T09:32:18.000Z</time>
      </trkpt>
      <trkpt lat="48.2351" lon="3.30311">
        <ele>83</ele>
        <time>2013-09-29T09:32:19.000Z</time>
      </trkpt>
      <trkpt lat="48.23508" lon="3.30313">
        <ele>83</ele>
        <time>2013-09-29T09:32:20.000Z</time>
      </trkpt>
      <trkpt lat="48.23506" lon="3.30317">
        <ele>82</ele>
        <time>2013-09-29T09:32:21.000Z</time>
      </trkpt>
      <trkpt lat="48.23502" lon="3.30319">
        <ele>82</ele>
        <time>2013-09-29T09:32:22.000Z</time>
      </trkpt>
      <trkpt lat="48.235" lon="3.30322">
        <ele>82</ele>
        <time>2013-09-29T09:32:23.000Z</time>
      </trkpt>
      <trkpt lat="48.23497" lon="3.30324">
        <ele>82</ele>
        <time>2013-09-29T09:32:24.000Z</time>
      </trkpt>
      <trkpt lat="48.23495" lon="3.30328">
        <ele>82</ele>
        <time>2013-09-29T09:32:25.000Z</time>
      </trkpt>
      <trkpt lat="48.23493" lon="3.3033">
        <ele>82</ele>
        <time>2013-09-29T09:32:26.000Z</time>
      </trkpt>
      <trkpt lat="48.23491" lon="3.30332">
        <ele>82</ele>
        <time>2013-09-29T09:32:27.000Z</time>
      </trkpt>
      <trkpt lat="48.23487" lon="3.30334">
        <ele>82</ele>
        <time>2013-09-29T09:32:28.000Z</time>
      </trkpt>
      <trkpt lat="48.23485" lon="3.30337">
        <ele>82</ele>
        <time>2013-09-29T09:32:29.000Z</time>
      </trkpt>
      <trkpt lat="48.23483" lon="3.30339">
        <ele>82</ele>
        <time>2013-09-29T09:32:30.000Z</time>
      </trkpt>
      <trkpt lat="48.23481" lon="3.30341">
        <ele>82</ele>
        <time>2013-09-29T09:32:31.000Z</time>
      </trkpt>
      <trkpt lat="48.23479" lon="3.30343">
        <ele>82</ele>
        <time>2013-09-29T09:32:32.000Z</time>
      </trkpt>
      <trkpt lat="48.23477" lon="3.30347">
        <ele>82</ele>
        <time>2013-09-29T09:32:33.000Z</time>
      </trkpt>
      <trkpt lat="48.23474" lon="3.30349">
        <ele>82</ele>
        <time>2013-09-29T09:32:34.000Z</time>
      </trkpt>
      <trkpt lat="48.23471" lon="3.30352">
        <ele>82</ele>
        <time>2013-09-29T09:32:35.000Z</time>
      </trkpt>
      <trkpt lat="48.23469" lon="3.30354">
        <ele>82</ele>
        <time>2013-09-29T09:32:36.000Z</time>
      </trkpt>
      <trkpt lat="48.23466" lon="3.30356">
        <ele>82</ele>
        <time>2013-09-29T09:32:37.000Z</time>
      </trkpt>
      <trkpt lat="48.23464" lon="3.3036">
        <ele>82</ele>
        <time>2013-09-29T09:32:38.000Z</time>
      </trkpt>
      <trkpt lat="48.23462" lon="3.30362">
        <ele>82</ele>
        <time>2013-09-29T09:32:39.000Z</time>
      </trkpt>
      <trkpt lat="48.23458" lon="3.30364">
        <ele>82</ele>
        <time>2013-09-29T09:32:40.000Z</time>
      </trkpt>
      <trkpt lat="48.23456" lon="3.30369">
        <ele>82</ele>
        <time>2013-09-29T09:32:41.000Z</time>
      </trkpt>
      <trkpt lat="48.23454" lon="3.30371">
        <ele>82</ele>
        <time>2013-09-29T09:32:42.000Z</time>
      </trkpt>
      <trkpt lat="48.23451" lon="3.30373">
        <ele>82</ele>
        <time>2013-09-29T09:32:43.000Z</time>
      </trkpt>
      <trkpt lat="48.23449" lon="3.30375">
        <ele>82</ele>
        <time>2013-09-29T09:32:44.000Z</time>
      </trkpt>
      <trkpt lat="48.23447" lon="3.30379">
        <ele>82</ele>
        <time>2013-09-29T09:32:45.000Z</time>
      </trkpt>
      <trkpt lat="48.23443" lon="3.30382">
        <ele>82</ele>
        <time>2013-09-29T09:32:46.000Z</time>
      </trkpt>
      <trkpt lat="48.23441" lon="3.30384">
        <ele>82</ele>
        <time>2013-09-29T09:32:47.000Z</time>
      </trkpt>
      <trkpt lat="48.23439" lon="3.30388">
        <ele>82</ele>
        <time>2013-09-29T09:32:48.000Z</time>
      </trkpt>
      <trkpt lat="48.23437" lon="3.3039">
        <ele>82</ele>
        <time>2013-09-29T09:32:49.000Z</time>
      </trkpt>
      <trkpt lat="48.23435" lon="3.30392">
        <ele>82</ele>
        <time>2013-09-29T09:32:50.000Z</time>
      </trkpt>
      <trkpt lat="48.23433" lon="3.30395">
        <ele>82</ele>
        <time>2013-09-29T09:32:51.000Z</time>
      </trkpt>
      <trkpt lat="48.23429" lon="3.30399">
        <ele>82</ele>
        <time>2013-09-29T09:32:58.000Z</time>
      </trkpt>
      <trkpt lat="48.23428" lon="3.30399">
        <ele>82</ele>
        <time>2013-09-29T09:32:59.000Z</time>
      </trkpt>
      <trkpt lat="48.23425" lon="3.30403">
        <ele>82</ele>
        <time>2013-09-29T09:33:12.000Z</time>
      </trkpt>
      <trkpt lat="48.23424" lon="3.30405">
        <ele>83</ele>
        <time>2013-09-29T09:33:13.000Z</time>
      </trkpt>
      <trkpt lat="48.23421" lon="3.3041">
        <ele>83</ele>
        <time>2013-09-29T09:33:15.000Z</time>
      </trkpt>
      <trkpt lat="48.23419" lon="3.30414">
        <ele>83</ele>
        <time>2013-09-29T09:33:16.000Z</time>
      </trkpt>
      <trkpt lat="48.23416" lon="3.30416">
        <ele>83</ele>
        <time>2013-09-29T09:33:17.000Z</time>
      </trkpt>
      <trkpt lat="48.23413" lon="3.3042">
        <ele>83</ele>
        <time>2013-09-29T09:33:18.000Z</time>
      </trkpt>
      <trkpt lat="48.23411" lon="3.30425">
        <ele>83</ele>
        <time>2013-09-29T09:33:19.000Z</time>
      </trkpt>
      <trkpt lat="48.23408" lon="3.30429">
        <ele>83</ele>
        <time>2013-09-29T09:33:20.000Z</time>
      </trkpt>
      <trkpt lat="48.23404" lon="3.30431">
        <ele>83</ele>
        <time>2013-09-29T09:33:21.000Z</time>
      </trkpt>
      <trkpt lat="48.23399" lon="3.30435">
        <ele>83</ele>
        <time>2013-09-29T09:33:22.000Z</time>
      </trkpt>
      <trkpt lat="48.23395" lon="3.30437">
        <ele>83</ele>
        <time>2013-09-29T09:33:23.000Z</time>
      </trkpt>
      <trkpt lat="48.23392" lon="3.3044">
        <ele>83</ele>
        <time>2013-09-29T09:33:24.000Z</time>
      </trkpt>
      <trkpt lat="48.23388" lon="3.30444">
        <ele>83</ele>
        <time>2013-09-29T09:33:25.000Z</time>
      </trkpt>
      <trkpt lat="48.23383" lon="3.30446">
        <ele>83</ele>
        <time>2013-09-29T09:33:26.000Z</time>
      </trkpt>
      <trkpt lat="48.2338" lon="3.30448">
        <ele>83</ele>
        <time>2013-09-29T09:33:27.000Z</time>
      </trkpt>
      <trkpt lat="48.23377" lon="3.30452">
        <ele>83</ele>
        <time>2013-09-29T09:33:28.000Z</time>
      </trkpt>
      <trkpt lat="48.23372" lon="3.30457">
        <ele>83</ele>
        <time>2013-09-29T09:33:29.000Z</time>
      </trkpt>
      <trkpt lat="48.23369" lon="3.30459">
        <ele>83</ele>
        <time>2013-09-29T09:33:30.000Z</time>
      </trkpt>
      <trkpt lat="48.23366" lon="3.30463">
        <ele>83</ele>
        <time>2013-09-29T09:33:31.000Z</time>
      </trkpt>
      <trkpt lat="48.23362" lon="3.30465">
        <ele>83</ele>
        <time>2013-09-29T09:33:32.000Z</time>
      </trkpt>
      <trkpt lat="48.23359" lon="3.3047">
        <ele>83</ele>
        <time>2013-09-29T09:33:33.000Z</time>
      </trkpt>
      <trkpt lat="48.23355" lon="3.30474">
        <ele>83</ele>
        <time>2013-09-29T09:33:34.000Z</time>
      </trkpt>
      <trkpt lat="48.23351" lon="3.30476">
        <ele>83</ele>
        <time>2013-09-29T09:33:35.000Z</time>
      </trkpt>
      <trkpt lat="48.23348" lon="3.3048">
        <ele>83</ele>
        <time>2013-09-29T09:33:36.000Z</time>
      </trkpt>
      <trkpt lat="48.23344" lon="3.30482">
        <ele>83</ele>
        <time>2013-09-29T09:33:37.000Z</time>
      </trkpt>
      <trkpt lat="48.23339" lon="3.30487">
        <ele>84</ele>
        <time>2013-09-29T09:33:38.000Z</time>
      </trkpt>
      <trkpt lat="48.23336" lon="3.30491">
        <ele>84</ele>
        <time>2013-09-29T09:33:39.000Z</time>
      </trkpt>
      <trkpt lat="48.23332" lon="3.30493">
        <ele>84</ele>
        <time>2013-09-29T09:33:40.000Z</time>
      </trkpt>
      <trkpt lat="48.23328" lon="3.30498">
        <ele>84</ele>
        <time>2013-09-29T09:33:41.000Z</time>
      </trkpt>
      <trkpt lat="48.23325" lon="3.305">
        <ele>84</ele>
        <time>2013-09-29T09:33:42.000Z</time>
      </trkpt>
      <trkpt lat="48.23322" lon="3.30502">
        <ele>84</ele>
        <time>2013-09-29T09:33:43.000Z</time>
      </trkpt>
      <trkpt lat="48.23319" lon="3.30506">
        <ele>85</ele>
        <time>2013-09-29T09:33:44.000Z</time>
      </trkpt>
      <trkpt lat="48.23316" lon="3.30508">
        <ele>85</ele>
        <time>2013-09-29T09:33:45.000Z</time>
      </trkpt>
      <trkpt lat="48.23312" lon="3.3051">
        <ele>85</ele>
        <time>2013-09-29T09:33:46.000Z</time>
      </trkpt>
      <trkpt lat="48.2331" lon="3.30515">
        <ele>85</ele>
        <time>2013-09-29T09:33:47.000Z</time>
      </trkpt>
      <trkpt lat="48.23307" lon="3.30517">
        <ele>85</ele>
        <time>2013-09-29T09:33:48.000Z</time>
      </trkpt>
      <trkpt lat="48.23304" lon="3.30519">
        <ele>85</ele>
        <time>2013-09-29T09:33:49.000Z</time>
      </trkpt>
      <trkpt lat="48.23301" lon="3.30523">
        <ele>85</ele>
        <time>2013-09-29T09:33:50.000Z</time>
      </trkpt>
      <trkpt lat="48.23297" lon="3.30525">
        <ele>85</ele>
        <time>2013-09-29T09:33:51.000Z</time>
      </trkpt>
      <trkpt lat="48.23295" lon="3.3053">
        <ele>85</ele>
        <time>2013-09-29T09:33:52.000Z</time>
      </trkpt>
      <trkpt lat="48.23292" lon="3.30532">
        <ele>85</ele>
        <time>2013-09-29T09:33:53.000Z</time>
      </trkpt>
      <trkpt lat="48.23289" lon="3.30534">
        <ele>85</ele>
        <time>2013-09-29T09:33:54.000Z</time>
      </trkpt>
      <trkpt lat="48.23287" lon="3.30536">
        <ele>85</ele>
        <time>2013-09-29T09:33:55.000Z</time>
      </trkpt>
      <trkpt lat="48.23285" lon="3.3054">
        <ele>85</ele>
        <time>2013-09-29T09:33:56.000Z</time>
      </trkpt>
      <trkpt lat="48.23281" lon="3.30543">
        <ele>85</ele>
        <time>2013-09-29T09:33:57.000Z</time>
      </trkpt>
      <trkpt lat="48.23278" lon="3.30545">
        <ele>85</ele>
        <time>2013-09-29T09:33:58.000Z</time>
      </trkpt>
      <trkpt lat="48.23276" lon="3.30547">
        <ele>86</ele>
        <time>2013-09-29T09:33:59.000Z</time>
      </trkpt>
      <trkpt lat="48.23273" lon="3.30551">
        <ele>86</ele>
        <time>2013-09-29T09:34:00.000Z</time>
      </trkpt>
      <trkpt lat="48.23269" lon="3.30553">
        <ele>86</ele>
        <time>2013-09-29T09:34:01.000Z</time>
      </trkpt>
      <trkpt lat="48.23266" lon="3.30558">
        <ele>86</ele>
        <time>2013-09-29T09:34:02.000Z</time>
      </trkpt>
      <trkpt lat="48.23263" lon="3.3056">
        <ele>86</ele>
        <time>2013-09-29T09:34:03.000Z</time>
      </trkpt>
      <trkpt lat="48.2326" lon="3.30564">
        <ele>86</ele>
        <time>2013-09-29T09:34:04.000Z</time>
      </trkpt>
      <trkpt lat="48.23257" lon="3.30568">
        <ele>86</ele>
        <time>2013-09-29T09:34:05.000Z</time>
      </trkpt>
      <trkpt lat="48.23253" lon="3.3057">
        <ele>86</ele>
        <time>2013-09-29T09:34:06.000Z</time>
      </trkpt>
      <trkpt lat="48.2325" lon="3.30575">
        <ele>86</ele>
        <time>2013-09-29T09:34:07.000Z</time>
      </trkpt>
      <trkpt lat="48.23247" lon="3.30579">
        <ele>87</ele>
        <time>2013-09-29T09:34:08.000Z</time>
      </trkpt>
      <trkpt lat="48.23244" lon="3.30581">
        <ele>87</ele>
        <time>2013-09-29T09:34:09.000Z</time>
      </trkpt>
      <trkpt lat="48.23241" lon="3.30585">
        <ele>87</ele>
        <time>2013-09-29T09:34:10.000Z</time>
      </trkpt>
      <trkpt lat="48.23237" lon="3.30588">
        <ele>87</ele>
        <time>2013-09-29T09:34:11.000Z</time>
      </trkpt>
      <trkpt lat="48.23234" lon="3.3059">
        <ele>87</ele>
        <time>2013-09-29T09:34:12.000Z</time>
      </trkpt>
      <trkpt lat="48.23231" lon="3.30594">
        <ele>87</ele>
        <time>2013-09-29T09:34:13.000Z</time>
      </trkpt>
      <trkpt lat="48.23229" lon="3.30596">
        <ele>87</ele>
        <time>2013-09-29T09:34:14.000Z</time>
      </trkpt>
      <trkpt lat="48.23225" lon="3.30598">
        <ele>86</ele>
        <time>2013-09-29T09:34:15.000Z</time>
      </trkpt>
      <trkpt lat="48.23223" lon="3.30601">
        <ele>86</ele>
        <time>2013-09-29T09:34:16.000Z</time>
      </trkpt>
      <trkpt lat="48.2322" lon="3.30605">
        <ele>86</ele>
        <time>2013-09-29T09:34:17.000Z</time>
      </trkpt>
      <trkpt lat="48.23217" lon="3.30607">
        <ele>86</ele>
        <time>2013-09-29T09:34:18.000Z</time>
      </trkpt>
      <trkpt lat="48.23215" lon="3.30609">
        <ele>86</ele>
        <time>2013-09-29T09:34:19.000Z</time>
      </trkpt>
      <trkpt lat="48.23212" lon="3.30611">
        <ele>86</ele>
        <time>2013-09-29T09:34:20.000Z</time>
      </trkpt>
      <trkpt lat="48.23209" lon="3.30616">
        <ele>86</ele>
        <time>2013-09-29T09:34:21.000Z</time>
      </trkpt>
      <trkpt lat="48.23206" lon="3.30618">
        <ele>86</ele>
        <time>2013-09-29T09:34:22.000Z</time>
      </trkpt>
      <trkpt lat="48.23204" lon="3.3062">
        <ele>86</ele>
        <time>2013-09-29T09:34:23.000Z</time>
      </trkpt>
      <trkpt lat="48.23201" lon="3.30622">
        <ele>86</ele>
        <time>2013-09-29T09:34:24.000Z</time>
      </trkpt>
      <trkpt lat="48.23199" lon="3.30624">
        <ele>86</ele>
        <time>2013-09-29T09:34:25.000Z</time>
      </trkpt>
      <trkpt lat="48.23197" lon="3.30628">
        <ele>86</ele>
        <time>2013-09-29T09:34:26.000Z</time>
      </trkpt>
      <trkpt lat="48.23193" lon="3.30631">
        <ele>86</ele>
        <time>2013-09-29T09:34:27.000Z</time>
      </trkpt>
      <trkpt lat="48.23191" lon="3.30633">
        <ele>86</ele>
        <time>2013-09-29T09:34:28.000Z</time>
      </trkpt>
      <trkpt lat="48.23188" lon="3.30637">
        <ele>86</ele>
        <time>2013-09-29T09:34:29.000Z</time>
      </trkpt>
      <trkpt lat="48.23186" lon="3.30639">
        <ele>86</ele>
        <time>2013-09-29T09:34:30.000Z</time>
      </trkpt>
      <trkpt lat="48.23183" lon="3.30641">
        <ele>86</ele>
        <time>2013-09-29T09:34:31.000Z</time>
      </trkpt>
      <trkpt lat="48.2318" lon="3.30646">
        <ele>86</ele>
        <time>2013-09-29T09:34:32.000Z</time>
      </trkpt>
      <trkpt lat="48.23177" lon="3.30648">
        <ele>86</ele>
        <time>2013-09-29T09:34:33.000Z</time>
      </trkpt>
      <trkpt lat="48.23174" lon="3.30652">
        <ele>86</ele>
        <time>2013-09-29T09:34:34.000Z</time>
      </trkpt>
      <trkpt lat="48.23171" lon="3.30654">
        <ele>86</ele>
        <time>2013-09-29T09:34:35.000Z</time>
      </trkpt>
      <trkpt lat="48.23168" lon="3.30658">
        <ele>86</ele>
        <time>2013-09-29T09:34:36.000Z</time>
      </trkpt>
      <trkpt lat="48.23165" lon="3.30661">
        <ele>86</ele>
        <time>2013-09-29T09:34:37.000Z</time>
      </trkpt>
      <trkpt lat="48.23162" lon="3.30665">
        <ele>86</ele>
        <time>2013-09-29T09:34:38.000Z</time>
      </trkpt>
      <trkpt lat="48.23159" lon="3.30669">
        <ele>86</ele>
        <time>2013-09-29T09:34:39.000Z</time>
      </trkpt>
      <trkpt lat="48.23156" lon="3.30673">
        <ele>86</ele>
        <time>2013-09-29T09:34:40.000Z</time>
      </trkpt>
      <trkpt lat="48.23153" lon="3.30678">
        <ele>86</ele>
        <time>2013-09-29T09:34:41.000Z</time>
      </trkpt>
      <trkpt lat="48.23148" lon="3.30682">
        <ele>86</ele>
        <time>2013-09-29T09:34:42.000Z</time>
      </trkpt>
      <trkpt lat="48.23145" lon="3.30684">
        <ele>86</ele>
        <time>2013-09-29T09:34:43.000Z</time>
      </trkpt>
      <trkpt lat="48.23142" lon="3.30688">
        <ele>86</ele>
        <time>2013-09-29T09:34:44.000Z</time>
      </trkpt>
      <trkpt lat="48.23139" lon="3.30693">
        <ele>86</ele>
        <time>2013-09-29T09:34:45.000Z</time>
      </trkpt>
      <trkpt lat="48.23134" lon="3.30695">
        <ele>86</ele>
        <time>2013-09-29T09:34:46.000Z</time>
      </trkpt>
      <trkpt lat="48.23131" lon="3.30699">
        <ele>86</ele>
        <time>2013-09-29T09:34:47.000Z</time>
      </trkpt>
      <trkpt lat="48.23128" lon="3.30703">
        <ele>86</ele>
        <time>2013-09-29T09:34:48.000Z</time>
      </trkpt>
      <trkpt lat="48.23124" lon="3.30706">
        <ele>87</ele>
        <time>2013-09-29T09:34:49.000Z</time>
      </trkpt>
      <trkpt lat="48.2312" lon="3.3071">
        <ele>87</ele>
        <time>2013-09-29T09:34:50.000Z</time>
      </trkpt>
      <trkpt lat="48.23117" lon="3.30714">
        <ele>87</ele>
        <time>2013-09-29T09:34:51.000Z</time>
      </trkpt>
      <trkpt lat="48.23114" lon="3.30719">
        <ele>87</ele>
        <time>2013-09-29T09:34:52.000Z</time>
      </trkpt>
      <trkpt lat="48.2311" lon="3.30721">
        <ele>87</ele>
        <time>2013-09-29T09:34:53.000Z</time>
      </trkpt>
      <trkpt lat="48.23106" lon="3.30725">
        <ele>87</ele>
        <time>2013-09-29T09:34:54.000Z</time>
      </trkpt>
      <trkpt lat="48.23103" lon="3.30729">
        <ele>87</ele>
        <time>2013-09-29T09:34:55.000Z</time>
      </trkpt>
      <trkpt lat="48.23099" lon="3.30731">
        <ele>87</ele>
        <time>2013-09-29T09:34:56.000Z</time>
      </trkpt>
      <trkpt lat="48.23096" lon="3.30736">
        <ele>87</ele>
        <time>2013-09-29T09:34:57.000Z</time>
      </trkpt>
      <trkpt lat="48.23091" lon="3.3074">
        <ele>87</ele>
        <time>2013-09-29T09:34:58.000Z</time>
      </trkpt>
      <trkpt lat="48.23088" lon="3.30744">
        <ele>87</ele>
        <time>2013-09-29T09:34:59.000Z</time>
      </trkpt>
      <trkpt lat="48.23085" lon="3.30746">
        <ele>87</ele>
        <time>2013-09-29T09:35:00.000Z</time>
      </trkpt>
      <trkpt lat="48.23082" lon="3.30751">
        <ele>87</ele>
        <time>2013-09-29T09:35:01.000Z</time>
      </trkpt>
      <trkpt lat="48.23077" lon="3.30755">
        <ele>87</ele>
        <time>2013-09-29T09:35:02.000Z</time>
      </trkpt>
      <trkpt lat="48.23074" lon="3.30759">
        <ele>87</ele>
        <time>2013-09-29T09:35:03.000Z</time>
      </trkpt>
      <trkpt lat="48.23071" lon="3.30761">
        <ele>87</ele>
        <time>2013-09-29T09:35:04.000Z</time>
      </trkpt>
      <trkpt lat="48.23069" lon="3.30766">
        <ele>88</ele>
        <time>2013-09-29T09:35:05.000Z</time>
      </trkpt>
      <trkpt lat="48.23066" lon="3.3077">
        <ele>88</ele>
        <time>2013-09-29T09:35:06.000Z</time>
      </trkpt>
      <trkpt lat="48.23062" lon="3.30772">
        <ele>88</ele>
        <time>2013-09-29T09:35:07.000Z</time>
      </trkpt>
      <trkpt lat="48.23059" lon="3.30776">
        <ele>88</ele>
        <time>2013-09-29T09:35:08.000Z</time>
      </trkpt>
      <trkpt lat="48.23057" lon="3.30779">
        <ele>88</ele>
        <time>2013-09-29T09:35:09.000Z</time>
      </trkpt>
      <trkpt lat="48.23054" lon="3.30781">
        <ele>88</ele>
        <time>2013-09-29T09:35:10.000Z</time>
      </trkpt>
      <trkpt lat="48.23051" lon="3.30785">
        <ele>88</ele>
        <time>2013-09-29T09:35:11.000Z</time>
      </trkpt>
      <trkpt lat="48.23048" lon="3.30789">
        <ele>88</ele>
        <time>2013-09-29T09:35:12.000Z</time>
      </trkpt>
      <trkpt lat="48.23045" lon="3.30791">
        <ele>88</ele>
        <time>2013-09-29T09:35:13.000Z</time>
      </trkpt>
      <trkpt lat="48.23042" lon="3.30796">
        <ele>88</ele>
        <time>2013-09-29T09:35:14.000Z</time>
      </trkpt>
      <trkpt lat="48.23039" lon="3.308">
        <ele>88</ele>
        <time>2013-09-29T09:35:15.000Z</time>
      </trkpt>
      <trkpt lat="48.23036" lon="3.30804">
        <ele>88</ele>
        <time>2013-09-29T09:35:16.000Z</time>
      </trkpt>
      <trkpt lat="48.23031" lon="3.30806">
        <ele>88</ele>
        <time>2013-09-29T09:35:17.000Z</time>
      </trkpt>
      <trkpt lat="48.23028" lon="3.30811">
        <ele>88</ele>
        <time>2013-09-29T09:35:18.000Z</time>
      </trkpt>
      <trkpt lat="48.23025" lon="3.30815">
        <ele>88</ele>
        <time>2013-09-29T09:35:19.000Z</time>
      </trkpt>
      <trkpt lat="48.23022" lon="3.30819">
        <ele>88</ele>
        <time>2013-09-29T09:35:20.000Z</time>
      </trkpt>
      <trkpt lat="48.23018" lon="3.30824">
        <ele>88</ele>
        <time>2013-09-29T09:35:21.000Z</time>
      </trkpt>
      <trkpt lat="48.23015" lon="3.30828">
        <ele>89</ele>
        <time>2013-09-29T09:35:22.000Z</time>
      </trkpt>
      <trkpt lat="48.23012" lon="3.30832">
        <ele>89</ele>
        <time>2013-09-29T09:35:23.000Z</time>
      </trkpt>
      <trkpt lat="48.23009" lon="3.30837">
        <ele>89</ele>
        <time>2013-09-29T09:35:24.000Z</time>
      </trkpt>
      <trkpt lat="48.23006" lon="3.30841">
        <ele>89</ele>
        <time>2013-09-29T09:35:25.000Z</time>
      </trkpt>
      <trkpt lat="48.23002" lon="3.30843">
        <ele>89</ele>
        <time>2013-09-29T09:35:26.000Z</time>
      </trkpt>
      <trkpt lat="48.22999" lon="3.30847">
        <ele>89</ele>
        <time>2013-09-29T09:35:27.000Z</time>
      </trkpt>
      <trkpt lat="48.22995" lon="3.30852">
        <ele>89</ele>
        <time>2013-09-29T09:35:28.000Z</time>
      </trkpt>
      <trkpt lat="48.22992" lon="3.30856">
        <ele>89</ele>
        <time>2013-09-29T09:35:29.000Z</time>
      </trkpt>
      <trkpt lat="48.22988" lon="3.3086">
        <ele>89</ele>
        <time>2013-09-29T09:35:30.000Z</time>
      </trkpt>
      <trkpt lat="48.22985" lon="3.30864">
        <ele>89</ele>
        <time>2013-09-29T09:35:31.000Z</time>
      </trkpt>
      <trkpt lat="48.22982" lon="3.30871">
        <ele>89</ele>
        <time>2013-09-29T09:35:32.000Z</time>
      </trkpt>
      <trkpt lat="48.22979" lon="3.30875">
        <ele>89</ele>
        <time>2013-09-29T09:35:33.000Z</time>
      </trkpt>
      <trkpt lat="48.22976" lon="3.30877">
        <ele>89</ele>
        <time>2013-09-29T09:35:34.000Z</time>
      </trkpt>
      <trkpt lat="48.22972" lon="3.30882">
        <ele>89</ele>
        <time>2013-09-29T09:35:35.000Z</time>
      </trkpt>
      <trkpt lat="48.22969" lon="3.30886">
        <ele>89</ele>
        <time>2013-09-29T09:35:36.000Z</time>
      </trkpt>
      <trkpt lat="48.22966" lon="3.3089">
        <ele>89</ele>
        <time>2013-09-29T09:35:37.000Z</time>
      </trkpt>
      <trkpt lat="48.22963" lon="3.30892">
        <ele>89</ele>
        <time>2013-09-29T09:35:38.000Z</time>
      </trkpt>
      <trkpt lat="48.2296" lon="3.30897">
        <ele>89</ele>
        <time>2013-09-29T09:35:39.000Z</time>
      </trkpt>
      <trkpt lat="48.22957" lon="3.30901">
        <ele>89</ele>
        <time>2013-09-29T09:35:40.000Z</time>
      </trkpt>
      <trkpt lat="48.22954" lon="3.30905">
        <ele>89</ele>
        <time>2013-09-29T09:35:41.000Z</time>
      </trkpt>
      <trkpt lat="48.22951" lon="3.30909">
        <ele>89</ele>
        <time>2013-09-29T09:35:42.000Z</time>
      </trkpt>
      <trkpt lat="48.22948" lon="3.30914">
        <ele>89</ele>
        <time>2013-09-29T09:35:43.000Z</time>
      </trkpt>
      <trkpt lat="48.22945" lon="3.30916">
        <ele>89</ele>
        <time>2013-09-29T09:35:44.000Z</time>
      </trkpt>
      <trkpt lat="48.22942" lon="3.3092">
        <ele>90</ele>
        <time>2013-09-29T09:35:45.000Z</time>
      </trkpt>
      <trkpt lat="48.2294" lon="3.30922">
        <ele>90</ele>
        <time>2013-09-29T09:35:46.000Z</time>
      </trkpt>
      <trkpt lat="48.22937" lon="3.30927">
        <ele>90</ele>
        <time>2013-09-29T09:35:47.000Z</time>
      </trkpt>
      <trkpt lat="48.22934" lon="3.30929">
        <ele>90</ele>
        <time>2013-09-29T09:35:48.000Z</time>
      </trkpt>
      <trkpt lat="48.22932" lon="3.30933">
        <ele>90</ele>
        <time>2013-09-29T09:35:49.000Z</time>
      </trkpt>
      <trkpt lat="48.22928" lon="3.30937">
        <ele>90</ele>
        <time>2013-09-29T09:35:50.000Z</time>
      </trkpt>
      <trkpt lat="48.22925" lon="3.30942">
        <ele>90</ele>
        <time>2013-09-29T09:35:51.000Z</time>
      </trkpt>
      <trkpt lat="48.22922" lon="3.30946">
        <ele>90</ele>
        <time>2013-09-29T09:35:52.000Z</time>
      </trkpt>
      <trkpt lat="48.22919" lon="3.30948">
        <ele>90</ele>
        <time>2013-09-29T09:35:53.000Z</time>
      </trkpt>
      <trkpt lat="48.22917" lon="3.30952">
        <ele>90</ele>
        <time>2013-09-29T09:35:54.000Z</time>
      </trkpt>
      <trkpt lat="48.22913" lon="3.30957">
        <ele>90</ele>
        <time>2013-09-29T09:35:55.000Z</time>
      </trkpt>
      <trkpt lat="48.2291" lon="3.30961">
        <ele>90</ele>
        <time>2013-09-29T09:35:56.000Z</time>
      </trkpt>
      <trkpt lat="48.22907" lon="3.30963">
        <ele>90</ele>
        <time>2013-09-29T09:35:57.000Z</time>
      </trkpt>
      <trkpt lat="48.22905" lon="3.30967">
        <ele>90</ele>
        <time>2013-09-29T09:35:58.000Z</time>
      </trkpt>
      <trkpt lat="48.22901" lon="3.30972">
        <ele>90</ele>
        <time>2013-09-29T09:35:59.000Z</time>
      </trkpt>
      <trkpt lat="48.22898" lon="3.30976">
        <ele>90</ele>
        <time>2013-09-29T09:36:00.000Z</time>
      </trkpt>
      <trkpt lat="48.22895" lon="3.3098">
        <ele>90</ele>
        <time>2013-09-29T09:36:01.000Z</time>
      </trkpt>
      <trkpt lat="48.22892" lon="3.30985">
        <ele>90</ele>
        <time>2013-09-29T09:36:02.000Z</time>
      </trkpt>
      <trkpt lat="48.22888" lon="3.30987">
        <ele>90</ele>
        <time>2013-09-29T09:36:03.000Z</time>
      </trkpt>
      <trkpt lat="48.22884" lon="3.30991">
        <ele>90</ele>
        <time>2013-09-29T09:36:04.000Z</time>
      </trkpt>
      <trkpt lat="48.2288" lon="3.30995">
        <ele>90</ele>
        <time>2013-09-29T09:36:05.000Z</time>
      </trkpt>
      <trkpt lat="48.22876" lon="3.31">
        <ele>90</ele>
        <time>2013-09-29T09:36:06.000Z</time>
      </trkpt>
      <trkpt lat="48.22873" lon="3.31004">
        <ele>91</ele>
        <time>2013-09-29T09:36:07.000Z</time>
      </trkpt>
      <trkpt lat="48.22868" lon="3.31006">
        <ele>91</ele>
        <time>2013-09-29T09:36:08.000Z</time>
      </trkpt>
      <trkpt lat="48.22864" lon="3.3101">
        <ele>91</ele>
        <time>2013-09-29T09:36:09.000Z</time>
      </trkpt>
      <trkpt lat="48.2286" lon="3.31015">
        <ele>91</ele>
        <time>2013-09-29T09:36:10.000Z</time>
      </trkpt>
      <trkpt lat="48.22855" lon="3.31019">
        <ele>91</ele>
        <time>2013-09-29T09:36:11.000Z</time>
      </trkpt>
      <trkpt lat="48.22851" lon="3.31023">
        <ele>91</ele>
        <time>2013-09-29T09:36:12.000Z</time>
      </trkpt>
      <trkpt lat="48.22847" lon="3.31028">
        <ele>91</ele>
        <time>2013-09-29T09:36:13.000Z</time>
      </trkpt>
      <trkpt lat="48.22844" lon="3.31032">
        <ele>91</ele>
        <time>2013-09-29T09:36:14.000Z</time>
      </trkpt>
      <trkpt lat="48.22839" lon="3.31036">
        <ele>91</ele>
        <time>2013-09-29T09:36:15.000Z</time>
      </trkpt>
      <trkpt lat="48.22836" lon="3.3104">
        <ele>91</ele>
        <time>2013-09-29T09:36:16.000Z</time>
      </trkpt>
      <trkpt lat="48.22832" lon="3.31047">
        <ele>92</ele>
        <time>2013-09-29T09:36:17.000Z</time>
      </trkpt>
      <trkpt lat="48.22827" lon="3.31051">
        <ele>92</ele>
        <time>2013-09-29T09:36:18.000Z</time>
      </trkpt>
      <trkpt lat="48.22824" lon="3.31053">
        <ele>92</ele>
        <time>2013-09-29T09:36:19.000Z</time>
      </trkpt>
      <trkpt lat="48.22821" lon="3.31058">
        <ele>92</ele>
        <time>2013-09-29T09:36:20.000Z</time>
      </trkpt>
      <trkpt lat="48.22818" lon="3.3106">
        <ele>92</ele>
        <time>2013-09-29T09:36:21.000Z</time>
      </trkpt>
      <trkpt lat="48.22816" lon="3.31062">
        <ele>92</ele>
        <time>2013-09-29T09:36:22.000Z</time>
      </trkpt>
      <trkpt lat="48.22816" lon="3.31062">
        <ele>92</ele>
        <time>2013-09-29T09:36:24.000Z</time>
      </trkpt>
      <trkpt lat="48.22811" lon="3.31066">
        <ele>92</ele>
        <time>2013-09-29T09:36:25.000Z</time>
      </trkpt>
      <trkpt lat="48.22809" lon="3.31066">
        <ele>92</ele>
        <time>2013-09-29T09:36:29.000Z</time>
      </trkpt>
      <trkpt lat="48.22807" lon="3.31062">
        <ele>92</ele>
        <time>2013-09-29T09:36:30.000Z</time>
      </trkpt>
      <trkpt lat="48.22807" lon="3.31055">
        <ele>92</ele>
        <time>2013-09-29T09:36:33.000Z</time>
      </trkpt>
      <trkpt lat="48.22806" lon="3.31049">
        <ele>92</ele>
        <time>2013-09-29T09:36:34.000Z</time>
      </trkpt>
      <trkpt lat="48.22805" lon="3.31043">
        <ele>92</ele>
        <time>2013-09-29T09:36:36.000Z</time>
      </trkpt>
      <trkpt lat="48.22804" lon="3.31038">
        <ele>92</ele>
        <time>2013-09-29T09:36:37.000Z</time>
      </trkpt>
      <trkpt lat="48.22803" lon="3.31032">
        <ele>92</ele>
        <time>2013-09-29T09:36:39.000Z</time>
      </trkpt>
      <trkpt lat="48.22803" lon="3.3103">
        <ele>92</ele>
        <time>2013-09-29T09:36:40.000Z</time>
      </trkpt>
      <trkpt lat="48.22802" lon="3.31025">
        <ele>92</ele>
        <time>2013-09-29T09:36:43.000Z</time>
      </trkpt>
      <trkpt lat="48.22801" lon="3.31017">
        <ele>92</ele>
        <time>2013-09-29T09:36:44.000Z</time>
      </trkpt>
      <trkpt lat="48.22801" lon="3.31017">
        <ele>92</ele>
        <time>2013-09-29T09:36:46.000Z</time>
      </trkpt>
      <trkpt lat="48.22798" lon="3.31008">
        <ele>92</ele>
        <time>2013-09-29T09:36:47.000Z</time>
      </trkpt>
      <trkpt lat="48.22798" lon="3.31008">
        <ele>92</ele>
        <time>2013-09-29T09:36:49.000Z</time>
      </trkpt>
      <trkpt lat="48.22796" lon="3.31">
        <ele>91</ele>
        <time>2013-09-29T09:36:50.000Z</time>
      </trkpt>
      <trkpt lat="48.22796" lon="3.31">
        <ele>91</ele>
        <time>2013-09-29T09:36:52.000Z</time>
      </trkpt>
      <trkpt lat="48.22794" lon="3.30993">
        <ele>91</ele>
        <time>2013-09-29T09:36:53.000Z</time>
      </trkpt>
      <trkpt lat="48.22793" lon="3.30987">
        <ele>91</ele>
        <time>2013-09-29T09:36:55.000Z</time>
      </trkpt>
      <trkpt lat="48.22793" lon="3.3098">
        <ele>91</ele>
        <time>2013-09-29T09:36:56.000Z</time>
      </trkpt>
      <trkpt lat="48.22793" lon="3.30976">
        <ele>91</ele>
        <time>2013-09-29T09:36:57.000Z</time>
      </trkpt>
      <trkpt lat="48.22792" lon="3.3097">
        <ele>91</ele>
        <time>2013-09-29T09:36:58.000Z</time>
      </trkpt>
      <trkpt lat="48.22791" lon="3.30963">
        <ele>91</ele>
        <time>2013-09-29T09:36:59.000Z</time>
      </trkpt>
      <trkpt lat="48.22791" lon="3.30957">
        <ele>91</ele>
        <time>2013-09-29T09:37:00.000Z</time>
      </trkpt>
      <trkpt lat="48.2279" lon="3.30948">
        <ele>91</ele>
        <time>2013-09-29T09:37:01.000Z</time>
      </trkpt>
      <trkpt lat="48.22789" lon="3.30942">
        <ele>91</ele>
        <time>2013-09-29T09:37:02.000Z</time>
      </trkpt>
      <trkpt lat="48.22788" lon="3.30933">
        <ele>91</ele>
        <time>2013-09-29T09:37:03.000Z</time>
      </trkpt>
      <trkpt lat="48.22787" lon="3.30927">
        <ele>91</ele>
        <time>2013-09-29T09:37:04.000Z</time>
      </trkpt>
      <trkpt lat="48.22785" lon="3.30918">
        <ele>91</ele>
        <time>2013-09-29T09:37:05.000Z</time>
      </trkpt>
      <trkpt lat="48.22783" lon="3.30909">
        <ele>90</ele>
        <time>2013-09-29T09:37:06.000Z</time>
      </trkpt>
      <trkpt lat="48.22782" lon="3.30901">
        <ele>90</ele>
        <time>2013-09-29T09:37:07.000Z</time>
      </trkpt>
      <trkpt lat="48.2278" lon="3.30892">
        <ele>90</ele>
        <time>2013-09-29T09:37:08.000Z</time>
      </trkpt>
      <trkpt lat="48.22779" lon="3.30884">
        <ele>90</ele>
        <time>2013-09-29T09:37:09.000Z</time>
      </trkpt>
      <trkpt lat="48.22777" lon="3.30875">
        <ele>89</ele>
        <time>2013-09-29T09:37:10.000Z</time>
      </trkpt>
      <trkpt lat="48.22776" lon="3.30869">
        <ele>89</ele>
        <time>2013-09-29T09:37:11.000Z</time>
      </trkpt>
      <trkpt lat="48.22774" lon="3.3086">
        <ele>89</ele>
        <time>2013-09-29T09:37:12.000Z</time>
      </trkpt>
      <trkpt lat="48.22773" lon="3.30852">
        <ele>89</ele>
        <time>2013-09-29T09:37:13.000Z</time>
      </trkpt>
      <trkpt lat="48.22771" lon="3.30843">
        <ele>89</ele>
        <time>2013-09-29T09:37:14.000Z</time>
      </trkpt>
      <trkpt lat="48.2277" lon="3.30834">
        <ele>89</ele>
        <time>2013-09-29T09:37:15.000Z</time>
      </trkpt>
      <trkpt lat="48.22768" lon="3.30826">
        <ele>88</ele>
        <time>2013-09-29T09:37:16.000Z</time>
      </trkpt>
      <trkpt lat="48.22766" lon="3.30817">
        <ele>88</ele>
        <time>2013-09-29T09:37:17.000Z</time>
      </trkpt>
      <trkpt lat="48.22765" lon="3.30809">
        <ele>88</ele>
        <time>2013-09-29T09:37:18.000Z</time>
      </trkpt>
      <trkpt lat="48.22764" lon="3.30802">
        <ele>88</ele>
        <time>2013-09-29T09:37:19.000Z</time>
      </trkpt>
      <trkpt lat="48.22762" lon="3.30794">
        <ele>88</ele>
        <time>2013-09-29T09:37:20.000Z</time>
      </trkpt>
      <trkpt lat="48.22761" lon="3.30783">
        <ele>88</ele>
        <time>2013-09-29T09:37:21.000Z</time>
      </trkpt>
      <trkpt lat="48.22759" lon="3.30774">
        <ele>88</ele>
        <time>2013-09-29T09:37:22.000Z</time>
      </trkpt>
      <trkpt lat="48.22757" lon="3.30766">
        <ele>87</ele>
        <time>2013-09-29T09:37:23.000Z</time>
      </trkpt>
      <trkpt lat="48.22756" lon="3.30757">
        <ele>87</ele>
        <time>2013-09-29T09:37:24.000Z</time>
      </trkpt>
      <trkpt lat="48.22753" lon="3.30746">
        <ele>87</ele>
        <time>2013-09-29T09:37:25.000Z</time>
      </trkpt>
      <trkpt lat="48.22752" lon="3.30738">
        <ele>87</ele>
        <time>2013-09-29T09:37:26.000Z</time>
      </trkpt>
      <trkpt lat="48.2275" lon="3.30729">
        <ele>87</ele>
        <time>2013-09-29T09:37:27.000Z</time>
      </trkpt>
      <trkpt lat="48.22749" lon="3.30721">
        <ele>86</ele>
        <time>2013-09-29T09:37:28.000Z</time>
      </trkpt>
      <trkpt lat="48.22747" lon="3.3071">
        <ele>86</ele>
        <time>2013-09-29T09:37:29.000Z</time>
      </trkpt>
      <trkpt lat="48.22746" lon="3.30701">
        <ele>86</ele>
        <time>2013-09-29T09:37:30.000Z</time>
      </trkpt>
      <trkpt lat="48.22745" lon="3.30695">
        <ele>86</ele>
        <time>2013-09-29T09:37:31.000Z</time>
      </trkpt>
      <trkpt lat="48.22743" lon="3.30686">
        <ele>86</ele>
        <time>2013-09-29T09:37:32.000Z</time>
      </trkpt>
      <trkpt lat="48.22742" lon="3.30678">
        <ele>86</ele>
        <time>2013-09-29T09:37:33.000Z</time>
      </trkpt>
      <trkpt lat="48.22742" lon="3.30669">
        <ele>85</ele>
        <time>2013-09-29T09:37:34.000Z</time>
      </trkpt>
      <trkpt lat="48.22741" lon="3.30661">
        <ele>85</ele>
        <time>2013-09-29T09:37:35.000Z</time>
      </trkpt>
      <trkpt lat="48.22739" lon="3.3065">
        <ele>85</ele>
        <time>2013-09-29T09:37:36.000Z</time>
      </trkpt>
      <trkpt lat="48.22738" lon="3.30641">
        <ele>85</ele>
        <time>2013-09-29T09:37:37.000Z</time>
      </trkpt>
      <trkpt lat="48.22737" lon="3.30633">
        <ele>85</ele>
        <time>2013-09-29T09:37:38.000Z</time>
      </trkpt>
      <trkpt lat="48.22736" lon="3.30624">
        <ele>85</ele>
        <time>2013-09-29T09:37:39.000Z</time>
      </trkpt>
      <trkpt lat="48.22735" lon="3.30616">
        <ele>85</ele>
        <time>2013-09-29T09:37:40.000Z</time>
      </trkpt>
      <trkpt lat="48.22734" lon="3.30607">
        <ele>85</ele>
        <time>2013-09-29T09:37:41.000Z</time>
      </trkpt>
      <trkpt lat="48.22733" lon="3.30598">
        <ele>85</ele>
        <time>2013-09-29T09:37:42.000Z</time>
      </trkpt>
      <trkpt lat="48.22732" lon="3.3059">
        <ele>85</ele>
        <time>2013-09-29T09:37:43.000Z</time>
      </trkpt>
      <trkpt lat="48.22731" lon="3.30583">
        <ele>84</ele>
        <time>2013-09-29T09:37:44.000Z</time>
      </trkpt>
      <trkpt lat="48.2273" lon="3.30575">
        <ele>84</ele>
        <time>2013-09-29T09:37:45.000Z</time>
      </trkpt>
      <trkpt lat="48.22729" lon="3.30566">
        <ele>84</ele>
        <time>2013-09-29T09:37:46.000Z</time>
      </trkpt>
      <trkpt lat="48.22728" lon="3.30558">
        <ele>84</ele>
        <time>2013-09-29T09:37:47.000Z</time>
      </trkpt>
      <trkpt lat="48.22727" lon="3.30549">
        <ele>84</ele>
        <time>2013-09-29T09:37:48.000Z</time>
      </trkpt>
      <trkpt lat="48.22726" lon="3.3054">
        <ele>84</ele>
        <time>2013-09-29T09:37:49.000Z</time>
      </trkpt>
      <trkpt lat="48.22724" lon="3.30532">
        <ele>84</ele>
        <time>2013-09-29T09:37:50.000Z</time>
      </trkpt>
      <trkpt lat="48.22723" lon="3.30523">
        <ele>84</ele>
        <time>2013-09-29T09:37:51.000Z</time>
      </trkpt>
      <trkpt lat="48.22722" lon="3.30515">
        <ele>84</ele>
        <time>2013-09-29T09:37:52.000Z</time>
      </trkpt>
      <trkpt lat="48.22721" lon="3.30506">
        <ele>84</ele>
        <time>2013-09-29T09:37:53.000Z</time>
      </trkpt>
      <trkpt lat="48.2272" lon="3.30498">
        <ele>83</ele>
        <time>2013-09-29T09:37:54.000Z</time>
      </trkpt>
      <trkpt lat="48.22719" lon="3.30489">
        <ele>83</ele>
        <time>2013-09-29T09:37:55.000Z</time>
      </trkpt>
      <trkpt lat="48.22718" lon="3.3048">
        <ele>83</ele>
        <time>2013-09-29T09:37:56.000Z</time>
      </trkpt>
      <trkpt lat="48.22717" lon="3.30472">
        <ele>83</ele>
        <time>2013-09-29T09:37:57.000Z</time>
      </trkpt>
      <trkpt lat="48.22716" lon="3.30463">
        <ele>83</ele>
        <time>2013-09-29T09:37:58.000Z</time>
      </trkpt>
      <trkpt lat="48.22715" lon="3.30455">
        <ele>83</ele>
        <time>2013-09-29T09:37:59.000Z</time>
      </trkpt>
      <trkpt lat="48.22713" lon="3.30448">
        <ele>83</ele>
        <time>2013-09-29T09:38:00.000Z</time>
      </trkpt>
      <trkpt lat="48.22712" lon="3.3044">
        <ele>83</ele>
        <time>2013-09-29T09:38:01.000Z</time>
      </trkpt>
      <trkpt lat="48.22709" lon="3.30433">
        <ele>83</ele>
        <time>2013-09-29T09:38:02.000Z</time>
      </trkpt>
      <trkpt lat="48.22706" lon="3.30427">
        <ele>83</ele>
        <time>2013-09-29T09:38:03.000Z</time>
      </trkpt>
      <trkpt lat="48.22704" lon="3.3042">
        <ele>83</ele>
        <time>2013-09-29T09:38:04.000Z</time>
      </trkpt>
      <trkpt lat="48.22701" lon="3.30414">
        <ele>82</ele>
        <time>2013-09-29T09:38:05.000Z</time>
      </trkpt>
      <trkpt lat="48.22697" lon="3.30407">
        <ele>82</ele>
        <time>2013-09-29T09:38:06.000Z</time>
      </trkpt>
      <trkpt lat="48.22692" lon="3.30401">
        <ele>82</ele>
        <time>2013-09-29T09:38:07.000Z</time>
      </trkpt>
      <trkpt lat="48.22688" lon="3.30397">
        <ele>82</ele>
        <time>2013-09-29T09:38:08.000Z</time>
      </trkpt>
      <trkpt lat="48.22685" lon="3.3039">
        <ele>82</ele>
        <time>2013-09-29T09:38:09.000Z</time>
      </trkpt>
      <trkpt lat="48.2268" lon="3.30384">
        <ele>82</ele>
        <time>2013-09-29T09:38:10.000Z</time>
      </trkpt>
      <trkpt lat="48.22676" lon="3.30379">
        <ele>82</ele>
        <time>2013-09-29T09:38:11.000Z</time>
      </trkpt>
      <trkpt lat="48.22672" lon="3.30373">
        <ele>82</ele>
        <time>2013-09-29T09:38:12.000Z</time>
      </trkpt>
      <trkpt lat="48.22668" lon="3.30369">
        <ele>82</ele>
        <time>2013-09-29T09:38:13.000Z</time>
      </trkpt>
      <trkpt lat="48.22664" lon="3.30362">
        <ele>82</ele>
        <time>2013-09-29T09:38:14.000Z</time>
      </trkpt>
      <trkpt lat="48.2266" lon="3.30358">
        <ele>82</ele>
        <time>2013-09-29T09:38:15.000Z</time>
      </trkpt>
      <trkpt lat="48.22656" lon="3.30354">
        <ele>82</ele>
        <time>2013-09-29T09:38:16.000Z</time>
      </trkpt>
      <trkpt lat="48.22652" lon="3.30349">
        <ele>82</ele>
        <time>2013-09-29T09:38:17.000Z</time>
      </trkpt>
      <trkpt lat="48.22647" lon="3.30345">
        <ele>82</ele>
        <time>2013-09-29T09:38:18.000Z</time>
      </trkpt>
      <trkpt lat="48.22643" lon="3.30339">
        <ele>82</ele>
        <time>2013-09-29T09:38:19.000Z</time>
      </trkpt>
      <trkpt lat="48.22639" lon="3.30334">
        <ele>82</ele>
        <time>2013-09-29T09:38:20.000Z</time>
      </trkpt>
      <trkpt lat="48.22634" lon="3.3033">
        <ele>81</ele>
        <time>2013-09-29T09:38:21.000Z</time>
      </trkpt>
      <trkpt lat="48.22631" lon="3.30326">
        <ele>81</ele>
        <time>2013-09-29T09:38:22.000Z</time>
      </trkpt>
      <trkpt lat="48.22627" lon="3.30324">
        <ele>81</ele>
        <time>2013-09-29T09:38:23.000Z</time>
      </trkpt>
      <trkpt lat="48.22623" lon="3.30319">
        <ele>81</ele>
        <time>2013-09-29T09:38:24.000Z</time>
      </trkpt>
      <trkpt lat="48.22618" lon="3.30315">
        <ele>81</ele>
        <time>2013-09-29T09:38:25.000Z</time>
      </trkpt>
      <trkpt lat="48.22613" lon="3.30311">
        <ele>81</ele>
        <time>2013-09-29T09:38:26.000Z</time>
      </trkpt>
      <trkpt lat="48.22609" lon="3.30307">
        <ele>81</ele>
        <time>2013-09-29T09:38:27.000Z</time>
      </trkpt>
      <trkpt lat="48.22604" lon="3.30304">
        <ele>81</ele>
        <time>2013-09-29T09:38:28.000Z</time>
      </trkpt>
      <trkpt lat="48.226" lon="3.303">
        <ele>81</ele>
        <time>2013-09-29T09:38:29.000Z</time>
      </trkpt>
      <trkpt lat="48.22597" lon="3.30296">
        <ele>81</ele>
        <time>2013-09-29T09:38:30.000Z</time>
      </trkpt>
      <trkpt lat="48.22592" lon="3.30292">
        <ele>81</ele>
        <time>2013-09-29T09:38:31.000Z</time>
      </trkpt>
      <trkpt lat="48.22588" lon="3.30287">
        <ele>81</ele>
        <time>2013-09-29T09:38:32.000Z</time>
      </trkpt>
      <trkpt lat="48.22585" lon="3.30283">
        <ele>81</ele>
        <time>2013-09-29T09:38:33.000Z</time>
      </trkpt>
      <trkpt lat="48.22581" lon="3.30281">
        <ele>81</ele>
        <time>2013-09-29T09:38:34.000Z</time>
      </trkpt>
      <trkpt lat="48.22577" lon="3.30276">
        <ele>81</ele>
        <time>2013-09-29T09:38:35.000Z</time>
      </trkpt>
      <trkpt lat="48.22573" lon="3.30272">
        <ele>81</ele>
        <time>2013-09-29T09:38:36.000Z</time>
      </trkpt>
      <trkpt lat="48.22569" lon="3.30268">
        <ele>81</ele>
        <time>2013-09-29T09:38:37.000Z</time>
      </trkpt>
      <trkpt lat="48.22566" lon="3.30261">
        <ele>81</ele>
        <time>2013-09-29T09:38:38.000Z</time>
      </trkpt>
      <trkpt lat="48.22561" lon="3.30257">
        <ele>81</ele>
        <time>2013-09-29T09:38:39.000Z</time>
      </trkpt>
      <trkpt lat="48.22558" lon="3.30253">
        <ele>81</ele>
        <time>2013-09-29T09:38:40.000Z</time>
      </trkpt>
      <trkpt lat="48.22555" lon="3.30246">
        <ele>80</ele>
        <time>2013-09-29T09:38:41.000Z</time>
      </trkpt>
      <trkpt lat="48.22551" lon="3.30242">
        <ele>80</ele>
        <time>2013-09-29T09:38:42.000Z</time>
      </trkpt>
      <trkpt lat="48.22547" lon="3.30236">
        <ele>80</ele>
        <time>2013-09-29T09:38:43.000Z</time>
      </trkpt>
      <trkpt lat="48.22544" lon="3.30231">
        <ele>80</ele>
        <time>2013-09-29T09:38:44.000Z</time>
      </trkpt>
      <trkpt lat="48.22541" lon="3.30225">
        <ele>79</ele>
        <time>2013-09-29T09:38:45.000Z</time>
      </trkpt>
      <trkpt lat="48.22538" lon="3.30219">
        <ele>79</ele>
        <time>2013-09-29T09:38:46.000Z</time>
      </trkpt>
      <trkpt lat="48.22535" lon="3.30212">
        <ele>79</ele>
        <time>2013-09-29T09:38:47.000Z</time>
      </trkpt>
      <trkpt lat="48.22531" lon="3.30206">
        <ele>79</ele>
        <time>2013-09-29T09:38:48.000Z</time>
      </trkpt>
      <trkpt lat="48.22528" lon="3.30199">
        <ele>79</ele>
        <time>2013-09-29T09:38:49.000Z</time>
      </trkpt>
      <trkpt lat="48.22526" lon="3.30193">
        <ele>79</ele>
        <time>2013-09-29T09:38:50.000Z</time>
      </trkpt>
      <trkpt lat="48.22524" lon="3.30186">
        <ele>79</ele>
        <time>2013-09-29T09:38:51.000Z</time>
      </trkpt>
      <trkpt lat="48.22522" lon="3.30178">
        <ele>79</ele>
        <time>2013-09-29T09:38:52.000Z</time>
      </trkpt>
      <trkpt lat="48.22521" lon="3.30171">
        <ele>79</ele>
        <time>2013-09-29T09:38:53.000Z</time>
      </trkpt>
      <trkpt lat="48.22518" lon="3.30165">
        <ele>78</ele>
        <time>2013-09-29T09:38:54.000Z</time>
      </trkpt>
      <trkpt lat="48.22516" lon="3.30156">
        <ele>77</ele>
        <time>2013-09-29T09:38:55.000Z</time>
      </trkpt>
      <trkpt lat="48.22515" lon="3.3015">
        <ele>77</ele>
        <time>2013-09-29T09:38:56.000Z</time>
      </trkpt>
      <trkpt lat="48.22513" lon="3.30141">
        <ele>77</ele>
        <time>2013-09-29T09:38:57.000Z</time>
      </trkpt>
      <trkpt lat="48.22511" lon="3.30135">
        <ele>77</ele>
        <time>2013-09-29T09:38:58.000Z</time>
      </trkpt>
      <trkpt lat="48.22509" lon="3.30128">
        <ele>77</ele>
        <time>2013-09-29T09:38:59.000Z</time>
      </trkpt>
      <trkpt lat="48.22507" lon="3.30122">
        <ele>77</ele>
        <time>2013-09-29T09:39:00.000Z</time>
      </trkpt>
      <trkpt lat="48.22503" lon="3.30113">
        <ele>77</ele>
        <time>2013-09-29T09:39:01.000Z</time>
      </trkpt>
      <trkpt lat="48.225" lon="3.30109">
        <ele>77</ele>
        <time>2013-09-29T09:39:02.000Z</time>
      </trkpt>
      <trkpt lat="48.22497" lon="3.30103">
        <ele>77</ele>
        <time>2013-09-29T09:39:03.000Z</time>
      </trkpt>
      <trkpt lat="48.22494" lon="3.30098">
        <ele>76</ele>
        <time>2013-09-29T09:39:04.000Z</time>
      </trkpt>
      <trkpt lat="48.22491" lon="3.30092">
        <ele>76</ele>
        <time>2013-09-29T09:39:05.000Z</time>
      </trkpt>
      <trkpt lat="48.22486" lon="3.3009">
        <ele>76</ele>
        <time>2013-09-29T09:39:06.000Z</time>
      </trkpt>
      <trkpt lat="48.22482" lon="3.30086">
        <ele>76</ele>
        <time>2013-09-29T09:39:07.000Z</time>
      </trkpt>
      <trkpt lat="48.22477" lon="3.30083">
        <ele>76</ele>
        <time>2013-09-29T09:39:08.000Z</time>
      </trkpt>
      <trkpt lat="48.22471" lon="3.30079">
        <ele>76</ele>
        <time>2013-09-29T09:39:09.000Z</time>
      </trkpt>
      <trkpt lat="48.22466" lon="3.30077">
        <ele>76</ele>
        <time>2013-09-29T09:39:10.000Z</time>
      </trkpt>
      <trkpt lat="48.22459" lon="3.30075">
        <ele>76</ele>
        <time>2013-09-29T09:39:11.000Z</time>
      </trkpt>
      <trkpt lat="48.22454" lon="3.30073">
        <ele>75</ele>
        <time>2013-09-29T09:39:12.000Z</time>
      </trkpt>
      <trkpt lat="48.22449" lon="3.30073">
        <ele>76</ele>
        <time>2013-09-29T09:39:13.000Z</time>
      </trkpt>
      <trkpt lat="48.22443" lon="3.30073">
        <ele>76</ele>
        <time>2013-09-29T09:39:14.000Z</time>
      </trkpt>
      <trkpt lat="48.22437" lon="3.3007">
        <ele>76</ele>
        <time>2013-09-29T09:39:15.000Z</time>
      </trkpt>
      <trkpt lat="48.22432" lon="3.3007">
        <ele>76</ele>
        <time>2013-09-29T09:39:16.000Z</time>
      </trkpt>
      <trkpt lat="48.22426" lon="3.3007">
        <ele>76</ele>
        <time>2013-09-29T09:39:17.000Z</time>
      </trkpt>
      <trkpt lat="48.22422" lon="3.3007">
        <ele>76</ele>
        <time>2013-09-29T09:39:18.000Z</time>
      </trkpt>
      <trkpt lat="48.22417" lon="3.3007">
        <ele>76</ele>
        <time>2013-09-29T09:39:19.000Z</time>
      </trkpt>
      <trkpt lat="48.22411" lon="3.3007">
        <ele>75</ele>
        <time>2013-09-29T09:39:20.000Z</time>
      </trkpt>
      <trkpt lat="48.22405" lon="3.30073">
        <ele>75</ele>
        <time>2013-09-29T09:39:21.000Z</time>
      </trkpt>
      <trkpt lat="48.22399" lon="3.30073">
        <ele>75</ele>
        <time>2013-09-29T09:39:22.000Z</time>
      </trkpt>
      <trkpt lat="48.22393" lon="3.30075">
        <ele>75</ele>
        <time>2013-09-29T09:39:23.000Z</time>
      </trkpt>
      <trkpt lat="48.22388" lon="3.30077">
        <ele>75</ele>
        <time>2013-09-29T09:39:24.000Z</time>
      </trkpt>
      <trkpt lat="48.22382" lon="3.30079">
        <ele>75</ele>
        <time>2013-09-29T09:39:25.000Z</time>
      </trkpt>
      <trkpt lat="48.22377" lon="3.30079">
        <ele>75</ele>
        <time>2013-09-29T09:39:26.000Z</time>
      </trkpt>
      <trkpt lat="48.22371" lon="3.30081">
        <ele>75</ele>
        <time>2013-09-29T09:39:27.000Z</time>
      </trkpt>
      <trkpt lat="48.22366" lon="3.30083">
        <ele>75</ele>
        <time>2013-09-29T09:39:28.000Z</time>
      </trkpt>
      <trkpt lat="48.22361" lon="3.30086">
        <ele>76</ele>
        <time>2013-09-29T09:39:29.000Z</time>
      </trkpt>
      <trkpt lat="48.22355" lon="3.30088">
        <ele>76</ele>
        <time>2013-09-29T09:39:30.000Z</time>
      </trkpt>
      <trkpt lat="48.2235" lon="3.30088">
        <ele>76</ele>
        <time>2013-09-29T09:39:31.000Z</time>
      </trkpt>
      <trkpt lat="48.22345" lon="3.3009">
        <ele>76</ele>
        <time>2013-09-29T09:39:32.000Z</time>
      </trkpt>
      <trkpt lat="48.22339" lon="3.30092">
        <ele>76</ele>
        <time>2013-09-29T09:39:33.000Z</time>
      </trkpt>
      <trkpt lat="48.22334" lon="3.30094">
        <ele>76</ele>
        <time>2013-09-29T09:39:34.000Z</time>
      </trkpt>
      <trkpt lat="48.22329" lon="3.30094">
        <ele>76</ele>
        <time>2013-09-29T09:39:35.000Z</time>
      </trkpt>
      <trkpt lat="48.22324" lon="3.30092">
        <ele>76</ele>
        <time>2013-09-29T09:39:36.000Z</time>
      </trkpt>
      <trkpt lat="48.22319" lon="3.3009">
        <ele>76</ele>
        <time>2013-09-29T09:39:37.000Z</time>
      </trkpt>
      <trkpt lat="48.22315" lon="3.30086">
        <ele>76</ele>
        <time>2013-09-29T09:39:38.000Z</time>
      </trkpt>
      <trkpt lat="48.2231" lon="3.30081">
        <ele>75</ele>
        <time>2013-09-29T09:39:39.000Z</time>
      </trkpt>
      <trkpt lat="48.22306" lon="3.30077">
        <ele>75</ele>
        <time>2013-09-29T09:39:40.000Z</time>
      </trkpt>
      <trkpt lat="48.22302" lon="3.30073">
        <ele>75</ele>
        <time>2013-09-29T09:39:41.000Z</time>
      </trkpt>
      <trkpt lat="48.22297" lon="3.30068">
        <ele>75</ele>
        <time>2013-09-29T09:39:42.000Z</time>
      </trkpt>
      <trkpt lat="48.22293" lon="3.30064">
        <ele>75</ele>
        <time>2013-09-29T09:39:43.000Z</time>
      </trkpt>
      <trkpt lat="48.22289" lon="3.30058">
        <ele>74</ele>
        <time>2013-09-29T09:39:44.000Z</time>
      </trkpt>
      <trkpt lat="48.22284" lon="3.30053">
        <ele>74</ele>
        <time>2013-09-29T09:39:45.000Z</time>
      </trkpt>
      <trkpt lat="48.22279" lon="3.30047">
        <ele>74</ele>
        <time>2013-09-29T09:39:46.000Z</time>
      </trkpt>
      <trkpt lat="48.22275" lon="3.30043">
        <ele>74</ele>
        <time>2013-09-29T09:39:47.000Z</time>
      </trkpt>
      <trkpt lat="48.22271" lon="3.30036">
        <ele>74</ele>
        <time>2013-09-29T09:39:48.000Z</time>
      </trkpt>
      <trkpt lat="48.22266" lon="3.3003">
        <ele>74</ele>
        <time>2013-09-29T09:39:49.000Z</time>
      </trkpt>
      <trkpt lat="48.22262" lon="3.30025">
        <ele>74</ele>
        <time>2013-09-29T09:39:50.000Z</time>
      </trkpt>
      <trkpt lat="48.22258" lon="3.30019">
        <ele>74</ele>
        <time>2013-09-29T09:39:51.000Z</time>
      </trkpt>
      <trkpt lat="48.22253" lon="3.30013">
        <ele>74</ele>
        <time>2013-09-29T09:39:52.000Z</time>
      </trkpt>
      <trkpt lat="48.22249" lon="3.30006">
        <ele>73</ele>
        <time>2013-09-29T09:39:53.000Z</time>
      </trkpt>
      <trkpt lat="48.22245" lon="3.30002">
        <ele>73</ele>
        <time>2013-09-29T09:39:54.000Z</time>
      </trkpt>
      <trkpt lat="48.22241" lon="3.29995">
        <ele>73</ele>
        <time>2013-09-29T09:39:55.000Z</time>
      </trkpt>
      <trkpt lat="48.22235" lon="3.29989">
        <ele>73</ele>
        <time>2013-09-29T09:39:56.000Z</time>
      </trkpt>
      <trkpt lat="48.22231" lon="3.29985">
        <ele>73</ele>
        <time>2013-09-29T09:39:57.000Z</time>
      </trkpt>
      <trkpt lat="48.22227" lon="3.29978">
        <ele>73</ele>
        <time>2013-09-29T09:39:58.000Z</time>
      </trkpt>
      <trkpt lat="48.22222" lon="3.29972">
        <ele>73</ele>
        <time>2013-09-29T09:39:59.000Z</time>
      </trkpt>
      <trkpt lat="48.22218" lon="3.29965">
        <ele>73</ele>
        <time>2013-09-29T09:40:00.000Z</time>
      </trkpt>
      <trkpt lat="48.22214" lon="3.29961">
        <ele>73</ele>
        <time>2013-09-29T09:40:01.000Z</time>
      </trkpt>
      <trkpt lat="48.22209" lon="3.29955">
        <ele>73</ele>
        <time>2013-09-29T09:40:02.000Z</time>
      </trkpt>
      <trkpt lat="48.22205" lon="3.2995">
        <ele>73</ele>
        <time>2013-09-29T09:40:03.000Z</time>
      </trkpt>
      <trkpt lat="48.22201" lon="3.29944">
        <ele>73</ele>
        <time>2013-09-29T09:40:04.000Z</time>
      </trkpt>
      <trkpt lat="48.22197" lon="3.2994">
        <ele>73</ele>
        <time>2013-09-29T09:40:05.000Z</time>
      </trkpt>
      <trkpt lat="48.22191" lon="3.29933">
        <ele>73</ele>
        <time>2013-09-29T09:40:06.000Z</time>
      </trkpt>
      <trkpt lat="48.22187" lon="3.29929">
        <ele>73</ele>
        <time>2013-09-29T09:40:07.000Z</time>
      </trkpt>
      <trkpt lat="48.22183" lon="3.29922">
        <ele>73</ele>
        <time>2013-09-29T09:40:08.000Z</time>
      </trkpt>
      <trkpt lat="48.22178" lon="3.29918">
        <ele>73</ele>
        <time>2013-09-29T09:40:09.000Z</time>
      </trkpt>
      <trkpt lat="48.22174" lon="3.29912">
        <ele>73</ele>
        <time>2013-09-29T09:40:10.000Z</time>
      </trkpt>
      <trkpt lat="48.22171" lon="3.29907">
        <ele>73</ele>
        <time>2013-09-29T09:40:11.000Z</time>
      </trkpt>
      <trkpt lat="48.22167" lon="3.29903">
        <ele>73</ele>
        <time>2013-09-29T09:40:12.000Z</time>
      </trkpt>
      <trkpt lat="48.22162" lon="3.29897">
        <ele>74</ele>
        <time>2013-09-29T09:40:13.000Z</time>
      </trkpt>
      <trkpt lat="48.22159" lon="3.2989">
        <ele>74</ele>
        <time>2013-09-29T09:40:14.000Z</time>
      </trkpt>
      <trkpt lat="48.22156" lon="3.29886">
        <ele>74</ele>
        <time>2013-09-29T09:40:15.000Z</time>
      </trkpt>
      <trkpt lat="48.22153" lon="3.2988">
        <ele>74</ele>
        <time>2013-09-29T09:40:16.000Z</time>
      </trkpt>
      <trkpt lat="48.22149" lon="3.29875">
        <ele>74</ele>
        <time>2013-09-29T09:40:17.000Z</time>
      </trkpt>
      <trkpt lat="48.22146" lon="3.29869">
        <ele>74</ele>
        <time>2013-09-29T09:40:18.000Z</time>
      </trkpt>
      <trkpt lat="48.22143" lon="3.29865">
        <ele>74</ele>
        <time>2013-09-29T09:40:19.000Z</time>
      </trkpt>
      <trkpt lat="48.2214" lon="3.29858">
        <ele>74</ele>
        <time>2013-09-29T09:40:20.000Z</time>
      </trkpt>
      <trkpt lat="48.22137" lon="3.29854">
        <ele>74</ele>
        <time>2013-09-29T09:40:21.000Z</time>
      </trkpt>
      <trkpt lat="48.22133" lon="3.29847">
        <ele>74</ele>
        <time>2013-09-29T09:40:22.000Z</time>
      </trkpt>
      <trkpt lat="48.2213" lon="3.29843">
        <ele>74</ele>
        <time>2013-09-29T09:40:23.000Z</time>
      </trkpt>
      <trkpt lat="48.22127" lon="3.29839">
        <ele>74</ele>
        <time>2013-09-29T09:40:24.000Z</time>
      </trkpt>
      <trkpt lat="48.22125" lon="3.29834">
        <ele>74</ele>
        <time>2013-09-29T09:40:25.000Z</time>
      </trkpt>
      <trkpt lat="48.22123" lon="3.2983">
        <ele>74</ele>
        <time>2013-09-29T09:40:26.000Z</time>
      </trkpt>
      <trkpt lat="48.2212" lon="3.29826">
        <ele>74</ele>
        <time>2013-09-29T09:40:27.000Z</time>
      </trkpt>
      <trkpt lat="48.22118" lon="3.29824">
        <ele>74</ele>
        <time>2013-09-29T09:40:28.000Z</time>
      </trkpt>
      <trkpt lat="48.22116" lon="3.29819">
        <ele>74</ele>
        <time>2013-09-29T09:40:29.000Z</time>
      </trkpt>
      <trkpt lat="48.22114" lon="3.29817">
        <ele>74</ele>
        <time>2013-09-29T09:40:30.000Z</time>
      </trkpt>
      <trkpt lat="48.22112" lon="3.29813">
        <ele>74</ele>
        <time>2013-09-29T09:40:31.000Z</time>
      </trkpt>
      <trkpt lat="48.2211" lon="3.29811">
        <ele>74</ele>
        <time>2013-09-29T09:40:32.000Z</time>
      </trkpt>
      <trkpt lat="48.22108" lon="3.29807">
        <ele>74</ele>
        <time>2013-09-29T09:40:33.000Z</time>
      </trkpt>
      <trkpt lat="48.22105" lon="3.29804">
        <ele>74</ele>
        <time>2013-09-29T09:40:34.000Z</time>
      </trkpt>
      <trkpt lat="48.22103" lon="3.298">
        <ele>74</ele>
        <time>2013-09-29T09:40:35.000Z</time>
      </trkpt>
      <trkpt lat="48.22101" lon="3.29798">
        <ele>74</ele>
        <time>2013-09-29T09:40:36.000Z</time>
      </trkpt>
      <trkpt lat="48.22099" lon="3.29794">
        <ele>74</ele>
        <time>2013-09-29T09:40:37.000Z</time>
      </trkpt>
      <trkpt lat="48.22097" lon="3.29792">
        <ele>74</ele>
        <time>2013-09-29T09:40:38.000Z</time>
      </trkpt>
      <trkpt lat="48.22095" lon="3.29787">
        <ele>74</ele>
        <time>2013-09-29T09:40:39.000Z</time>
      </trkpt>
      <trkpt lat="48.22093" lon="3.29785">
        <ele>74</ele>
        <time>2013-09-29T09:40:40.000Z</time>
      </trkpt>
      <trkpt lat="48.2209" lon="3.29781">
        <ele>74</ele>
        <time>2013-09-29T09:40:41.000Z</time>
      </trkpt>
      <trkpt lat="48.22088" lon="3.29779">
        <ele>74</ele>
        <time>2013-09-29T09:40:42.000Z</time>
      </trkpt>
      <trkpt lat="48.22087" lon="3.29777">
        <ele>74</ele>
        <time>2013-09-29T09:40:43.000Z</time>
      </trkpt>
      <trkpt lat="48.22084" lon="3.29772">
        <ele>74</ele>
        <time>2013-09-29T09:40:44.000Z</time>
      </trkpt>
      <trkpt lat="48.22082" lon="3.2977">
        <ele>74</ele>
        <time>2013-09-29T09:40:45.000Z</time>
      </trkpt>
      <trkpt lat="48.2208" lon="3.29766">
        <ele>74</ele>
        <time>2013-09-29T09:40:46.000Z</time>
      </trkpt>
      <trkpt lat="48.22078" lon="3.29764">
        <ele>74</ele>
        <time>2013-09-29T09:40:47.000Z</time>
      </trkpt>
      <trkpt lat="48.22075" lon="3.29759">
        <ele>75</ele>
        <time>2013-09-29T09:40:48.000Z</time>
      </trkpt>
      <trkpt lat="48.22073" lon="3.29755">
        <ele>75</ele>
        <time>2013-09-29T09:40:49.000Z</time>
      </trkpt>
      <trkpt lat="48.22071" lon="3.29753">
        <ele>74</ele>
        <time>2013-09-29T09:40:50.000Z</time>
      </trkpt>
      <trkpt lat="48.22069" lon="3.29749">
        <ele>74</ele>
        <time>2013-09-29T09:40:51.000Z</time>
      </trkpt>
      <trkpt lat="48.22067" lon="3.29746">
        <ele>74</ele>
        <time>2013-09-29T09:40:52.000Z</time>
      </trkpt>
      <trkpt lat="48.22065" lon="3.29742">
        <ele>74</ele>
        <time>2013-09-29T09:40:53.000Z</time>
      </trkpt>
      <trkpt lat="48.22062" lon="3.29738">
        <ele>74</ele>
        <time>2013-09-29T09:40:54.000Z</time>
      </trkpt>
      <trkpt lat="48.22059" lon="3.29734">
        <ele>74</ele>
        <time>2013-09-29T09:40:55.000Z</time>
      </trkpt>
      <trkpt lat="48.22057" lon="3.29729">
        <ele>74</ele>
        <time>2013-09-29T09:40:56.000Z</time>
      </trkpt>
      <trkpt lat="48.22055" lon="3.29725">
        <ele>74</ele>
        <time>2013-09-29T09:40:57.000Z</time>
      </trkpt>
      <trkpt lat="48.22052" lon="3.29721">
        <ele>73</ele>
        <time>2013-09-29T09:40:58.000Z</time>
      </trkpt>
      <trkpt lat="48.22049" lon="3.29716">
        <ele>73</ele>
        <time>2013-09-29T09:40:59.000Z</time>
      </trkpt>
      <trkpt lat="48.22045" lon="3.29712">
        <ele>73</ele>
        <time>2013-09-29T09:41:00.000Z</time>
      </trkpt>
      <trkpt lat="48.22043" lon="3.29706">
        <ele>73</ele>
        <time>2013-09-29T09:41:01.000Z</time>
      </trkpt>
      <trkpt lat="48.2204" lon="3.29701">
        <ele>73</ele>
        <time>2013-09-29T09:41:02.000Z</time>
      </trkpt>
      <trkpt lat="48.22036" lon="3.29695">
        <ele>73</ele>
        <time>2013-09-29T09:41:03.000Z</time>
      </trkpt>
      <trkpt lat="48.22031" lon="3.29689">
        <ele>73</ele>
        <time>2013-09-29T09:41:04.000Z</time>
      </trkpt>
      <trkpt lat="48.22027" lon="3.2968">
        <ele>73</ele>
        <time>2013-09-29T09:41:05.000Z</time>
      </trkpt>
      <trkpt lat="48.22023" lon="3.29674">
        <ele>73</ele>
        <time>2013-09-29T09:41:06.000Z</time>
      </trkpt>
      <trkpt lat="48.22019" lon="3.29665">
        <ele>73</ele>
        <time>2013-09-29T09:41:07.000Z</time>
      </trkpt>
      <trkpt lat="48.22013" lon="3.29656">
        <ele>73</ele>
        <time>2013-09-29T09:41:08.000Z</time>
      </trkpt>
      <trkpt lat="48.22009" lon="3.29648">
        <ele>73</ele>
        <time>2013-09-29T09:41:09.000Z</time>
      </trkpt>
      <trkpt lat="48.22003" lon="3.29637">
        <ele>73</ele>
        <time>2013-09-29T09:41:10.000Z</time>
      </trkpt>
      <trkpt lat="48.21999" lon="3.29628">
        <ele>72</ele>
        <time>2013-09-29T09:41:11.000Z</time>
      </trkpt>
      <trkpt lat="48.21995" lon="3.2962">
        <ele>72</ele>
        <time>2013-09-29T09:41:12.000Z</time>
      </trkpt>
      <trkpt lat="48.21992" lon="3.29611">
        <ele>72</ele>
        <time>2013-09-29T09:41:13.000Z</time>
      </trkpt>
      <trkpt lat="48.21988" lon="3.29603">
        <ele>72</ele>
        <time>2013-09-29T09:41:14.000Z</time>
      </trkpt>
      <trkpt lat="48.21985" lon="3.29596">
        <ele>72</ele>
        <time>2013-09-29T09:41:15.000Z</time>
      </trkpt>
      <trkpt lat="48.21983" lon="3.29588">
        <ele>72</ele>
        <time>2013-09-29T09:41:16.000Z</time>
      </trkpt>
      <trkpt lat="48.2198" lon="3.29581">
        <ele>71</ele>
        <time>2013-09-29T09:41:17.000Z</time>
      </trkpt>
      <trkpt lat="48.21978" lon="3.29573">
        <ele>71</ele>
        <time>2013-09-29T09:41:18.000Z</time>
      </trkpt>
      <trkpt lat="48.21976" lon="3.29564">
        <ele>71</ele>
        <time>2013-09-29T09:41:19.000Z</time>
      </trkpt>
      <trkpt lat="48.21973" lon="3.29558">
        <ele>71</ele>
        <time>2013-09-29T09:41:20.000Z</time>
      </trkpt>
      <trkpt lat="48.21971" lon="3.29549">
        <ele>71</ele>
        <time>2013-09-29T09:41:21.000Z</time>
      </trkpt>
      <trkpt lat="48.21969" lon="3.2954">
        <ele>71</ele>
        <time>2013-09-29T09:41:22.000Z</time>
      </trkpt>
      <trkpt lat="48.21967" lon="3.29534">
        <ele>71</ele>
        <time>2013-09-29T09:41:23.000Z</time>
      </trkpt>
      <trkpt lat="48.21965" lon="3.29525">
        <ele>71</ele>
        <time>2013-09-29T09:41:24.000Z</time>
      </trkpt>
      <trkpt lat="48.21962" lon="3.29517">
        <ele>71</ele>
        <time>2013-09-29T09:41:25.000Z</time>
      </trkpt>
      <trkpt lat="48.21959" lon="3.2951">
        <ele>71</ele>
        <time>2013-09-29T09:41:26.000Z</time>
      </trkpt>
      <trkpt lat="48.21958" lon="3.29502">
        <ele>71</ele>
        <time>2013-09-29T09:41:27.000Z</time>
      </trkpt>
      <trkpt lat="48.21956" lon="3.29493">
        <ele>71</ele>
        <time>2013-09-29T09:41:28.000Z</time>
      </trkpt>
      <trkpt lat="48.21955" lon="3.29487">
        <ele>71</ele>
        <time>2013-09-29T09:41:29.000Z</time>
      </trkpt>
      <trkpt lat="48.21953" lon="3.29478">
        <ele>71</ele>
        <time>2013-09-29T09:41:30.000Z</time>
      </trkpt>
      <trkpt lat="48.21951" lon="3.29472">
        <ele>71</ele>
        <time>2013-09-29T09:41:31.000Z</time>
      </trkpt>
      <trkpt lat="48.2195" lon="3.29463">
        <ele>71</ele>
        <time>2013-09-29T09:41:32.000Z</time>
      </trkpt>
      <trkpt lat="48.21948" lon="3.29455">
        <ele>71</ele>
        <time>2013-09-29T09:41:33.000Z</time>
      </trkpt>
      <trkpt lat="48.21946" lon="3.29448">
        <ele>71</ele>
        <time>2013-09-29T09:41:34.000Z</time>
      </trkpt>
      <trkpt lat="48.21944" lon="3.2944">
        <ele>71</ele>
        <time>2013-09-29T09:41:35.000Z</time>
      </trkpt>
      <trkpt lat="48.21942" lon="3.29431">
        <ele>71</ele>
        <time>2013-09-29T09:41:36.000Z</time>
      </trkpt>
      <trkpt lat="48.2194" lon="3.29425">
        <ele>71</ele>
        <time>2013-09-29T09:41:37.000Z</time>
      </trkpt>
      <trkpt lat="48.21938" lon="3.29416">
        <ele>71</ele>
        <time>2013-09-29T09:41:38.000Z</time>
      </trkpt>
      <trkpt lat="48.21936" lon="3.29407">
        <ele>71</ele>
        <time>2013-09-29T09:41:39.000Z</time>
      </trkpt>
      <trkpt lat="48.21935" lon="3.29401">
        <ele>71</ele>
        <time>2013-09-29T09:41:40.000Z</time>
      </trkpt>
      <trkpt lat="48.21933" lon="3.29392">
        <ele>71</ele>
        <time>2013-09-29T09:41:41.000Z</time>
      </trkpt>
      <trkpt lat="48.21931" lon="3.29384">
        <ele>71</ele>
        <time>2013-09-29T09:41:42.000Z</time>
      </trkpt>
      <trkpt lat="48.21928" lon="3.29377">
        <ele>71</ele>
        <time>2013-09-29T09:41:43.000Z</time>
      </trkpt>
      <trkpt lat="48.21927" lon="3.29369">
        <ele>71</ele>
        <time>2013-09-29T09:41:44.000Z</time>
      </trkpt>
      <trkpt lat="48.21925" lon="3.2936">
        <ele>72</ele>
        <time>2013-09-29T09:41:45.000Z</time>
      </trkpt>
      <trkpt lat="48.21924" lon="3.29354">
        <ele>72</ele>
        <time>2013-09-29T09:41:46.000Z</time>
      </trkpt>
      <trkpt lat="48.21923" lon="3.29345">
        <ele>72</ele>
        <time>2013-09-29T09:41:47.000Z</time>
      </trkpt>
      <trkpt lat="48.21922" lon="3.29337">
        <ele>72</ele>
        <time>2013-09-29T09:41:48.000Z</time>
      </trkpt>
      <trkpt lat="48.21921" lon="3.29328">
        <ele>72</ele>
        <time>2013-09-29T09:41:49.000Z</time>
      </trkpt>
      <trkpt lat="48.2192" lon="3.29322">
        <ele>72</ele>
        <time>2013-09-29T09:41:50.000Z</time>
      </trkpt>
      <trkpt lat="48.2192" lon="3.29313">
        <ele>72</ele>
        <time>2013-09-29T09:41:51.000Z</time>
      </trkpt>
      <trkpt lat="48.21919" lon="3.29304">
        <ele>72</ele>
        <time>2013-09-29T09:41:52.000Z</time>
      </trkpt>
      <trkpt lat="48.21918" lon="3.29296">
        <ele>72</ele>
        <time>2013-09-29T09:41:53.000Z</time>
      </trkpt>
      <trkpt lat="48.21917" lon="3.29287">
        <ele>72</ele>
        <time>2013-09-29T09:41:54.000Z</time>
      </trkpt>
      <trkpt lat="48.21917" lon="3.29279">
        <ele>72</ele>
        <time>2013-09-29T09:41:55.000Z</time>
      </trkpt>
      <trkpt lat="48.21917" lon="3.29272">
        <ele>72</ele>
        <time>2013-09-29T09:41:56.000Z</time>
      </trkpt>
      <trkpt lat="48.21916" lon="3.29264">
        <ele>72</ele>
        <time>2013-09-29T09:41:57.000Z</time>
      </trkpt>
      <trkpt lat="48.21916" lon="3.29255">
        <ele>72</ele>
        <time>2013-09-29T09:41:58.000Z</time>
      </trkpt>
      <trkpt lat="48.21914" lon="3.29247">
        <ele>72</ele>
        <time>2013-09-29T09:41:59.000Z</time>
      </trkpt>
      <trkpt lat="48.21914" lon="3.29238">
        <ele>72</ele>
        <time>2013-09-29T09:42:00.000Z</time>
      </trkpt>
      <trkpt lat="48.21913" lon="3.29232">
        <ele>72</ele>
        <time>2013-09-29T09:42:01.000Z</time>
      </trkpt>
      <trkpt lat="48.21913" lon="3.29223">
        <ele>71</ele>
        <time>2013-09-29T09:42:02.000Z</time>
      </trkpt>
      <trkpt lat="48.21912" lon="3.29216">
        <ele>71</ele>
        <time>2013-09-29T09:42:03.000Z</time>
      </trkpt>
      <trkpt lat="48.21909" lon="3.29212">
        <ele>71</ele>
        <time>2013-09-29T09:42:04.000Z</time>
      </trkpt>
      <trkpt lat="48.21905" lon="3.2921">
        <ele>71</ele>
        <time>2013-09-29T09:42:05.000Z</time>
      </trkpt>
      <trkpt lat="48.219" lon="3.2921">
        <ele>71</ele>
        <time>2013-09-29T09:42:06.000Z</time>
      </trkpt>
      <trkpt lat="48.21896" lon="3.2921">
        <ele>71</ele>
        <time>2013-09-29T09:42:07.000Z</time>
      </trkpt>
      <trkpt lat="48.21891" lon="3.2921">
        <ele>71</ele>
        <time>2013-09-29T09:42:08.000Z</time>
      </trkpt>
      <trkpt lat="48.21887" lon="3.29212">
        <ele>71</ele>
        <time>2013-09-29T09:42:09.000Z</time>
      </trkpt>
      <trkpt lat="48.21881" lon="3.29212">
        <ele>71</ele>
        <time>2013-09-29T09:42:10.000Z</time>
      </trkpt>
      <trkpt lat="48.21876" lon="3.29212">
        <ele>71</ele>
        <time>2013-09-29T09:42:11.000Z</time>
      </trkpt>
      <trkpt lat="48.2187" lon="3.29212">
        <ele>71</ele>
        <time>2013-09-29T09:42:12.000Z</time>
      </trkpt>
      <trkpt lat="48.21865" lon="3.29212">
        <ele>71</ele>
        <time>2013-09-29T09:42:13.000Z</time>
      </trkpt>
      <trkpt lat="48.21859" lon="3.29212">
        <ele>71</ele>
        <time>2013-09-29T09:42:14.000Z</time>
      </trkpt>
      <trkpt lat="48.21853" lon="3.29212">
        <ele>71</ele>
        <time>2013-09-29T09:42:15.000Z</time>
      </trkpt>
      <trkpt lat="48.21848" lon="3.29212">
        <ele>71</ele>
        <time>2013-09-29T09:42:16.000Z</time>
      </trkpt>
      <trkpt lat="48.21843" lon="3.29212">
        <ele>71</ele>
        <time>2013-09-29T09:42:17.000Z</time>
      </trkpt>
      <trkpt lat="48.21837" lon="3.29212">
        <ele>71</ele>
        <time>2013-09-29T09:42:18.000Z</time>
      </trkpt>
      <trkpt lat="48.21832" lon="3.29214">
        <ele>71</ele>
        <time>2013-09-29T09:42:19.000Z</time>
      </trkpt>
      <trkpt lat="48.21826" lon="3.29214">
        <ele>71</ele>
        <time>2013-09-29T09:42:20.000Z</time>
      </trkpt>
      <trkpt lat="48.21822" lon="3.29214">
        <ele>71</ele>
        <time>2013-09-29T09:42:21.000Z</time>
      </trkpt>
      <trkpt lat="48.21817" lon="3.29214">
        <ele>71</ele>
        <time>2013-09-29T09:42:22.000Z</time>
      </trkpt>
      <trkpt lat="48.21814" lon="3.2921">
        <ele>71</ele>
        <time>2013-09-29T09:42:23.000Z</time>
      </trkpt>
      <trkpt lat="48.21811" lon="3.29201">
        <ele>71</ele>
        <time>2013-09-29T09:42:24.000Z</time>
      </trkpt>
      <trkpt lat="48.21809" lon="3.29195">
        <ele>71</ele>
        <time>2013-09-29T09:42:25.000Z</time>
      </trkpt>
      <trkpt lat="48.21808" lon="3.29186">
        <ele>71</ele>
        <time>2013-09-29T09:42:26.000Z</time>
      </trkpt>
      <trkpt lat="48.21807" lon="3.29178">
        <ele>71</ele>
        <time>2013-09-29T09:42:27.000Z</time>
      </trkpt>
      <trkpt lat="48.21807" lon="3.29169">
        <ele>71</ele>
        <time>2013-09-29T09:42:28.000Z</time>
      </trkpt>
      <trkpt lat="48.21806" lon="3.29161">
        <ele>71</ele>
        <time>2013-09-29T09:42:29.000Z</time>
      </trkpt>
      <trkpt lat="48.21806" lon="3.2915">
        <ele>71</ele>
        <time>2013-09-29T09:42:30.000Z</time>
      </trkpt>
      <trkpt lat="48.21805" lon="3.29141">
        <ele>71</ele>
        <time>2013-09-29T09:42:31.000Z</time>
      </trkpt>
      <trkpt lat="48.21805" lon="3.29133">
        <ele>71</ele>
        <time>2013-09-29T09:42:32.000Z</time>
      </trkpt>
      <trkpt lat="48.21804" lon="3.29124">
        <ele>71</ele>
        <time>2013-09-29T09:42:33.000Z</time>
      </trkpt>
      <trkpt lat="48.21804" lon="3.29116">
        <ele>71</ele>
        <time>2013-09-29T09:42:34.000Z</time>
      </trkpt>
      <trkpt lat="48.21804" lon="3.29107">
        <ele>71</ele>
        <time>2013-09-29T09:42:35.000Z</time>
      </trkpt>
      <trkpt lat="48.21803" lon="3.29098">
        <ele>71</ele>
        <time>2013-09-29T09:42:36.000Z</time>
      </trkpt>
      <trkpt lat="48.21803" lon="3.29088">
        <ele>71</ele>
        <time>2013-09-29T09:42:37.000Z</time>
      </trkpt>
      <trkpt lat="48.21802" lon="3.29079">
        <ele>70</ele>
        <time>2013-09-29T09:42:38.000Z</time>
      </trkpt>
      <trkpt lat="48.21802" lon="3.29068">
        <ele>70</ele>
        <time>2013-09-29T09:42:39.000Z</time>
      </trkpt>
      <trkpt lat="48.21801" lon="3.2906">
        <ele>70</ele>
        <time>2013-09-29T09:42:40.000Z</time>
      </trkpt>
      <trkpt lat="48.218" lon="3.29049">
        <ele>70</ele>
        <time>2013-09-29T09:42:41.000Z</time>
      </trkpt>
      <trkpt lat="48.218" lon="3.29041">
        <ele>70</ele>
        <time>2013-09-29T09:42:42.000Z</time>
      </trkpt>
      <trkpt lat="48.21799" lon="3.29032">
        <ele>70</ele>
        <time>2013-09-29T09:42:43.000Z</time>
      </trkpt>
      <trkpt lat="48.21797" lon="3.29021">
        <ele>69</ele>
        <time>2013-09-29T09:42:44.000Z</time>
      </trkpt>
      <trkpt lat="48.21796" lon="3.29013">
        <ele>69</ele>
        <time>2013-09-29T09:42:45.000Z</time>
      </trkpt>
      <trkpt lat="48.21795" lon="3.29002">
        <ele>69</ele>
        <time>2013-09-29T09:42:46.000Z</time>
      </trkpt>
      <trkpt lat="48.21794" lon="3.28993">
        <ele>69</ele>
        <time>2013-09-29T09:42:47.000Z</time>
      </trkpt>
      <trkpt lat="48.21794" lon="3.28985">
        <ele>69</ele>
        <time>2013-09-29T09:42:48.000Z</time>
      </trkpt>
      <trkpt lat="48.21794" lon="3.28974">
        <ele>69</ele>
        <time>2013-09-29T09:42:49.000Z</time>
      </trkpt>
      <trkpt lat="48.21794" lon="3.28965">
        <ele>69</ele>
        <time>2013-09-29T09:42:50.000Z</time>
      </trkpt>
      <trkpt lat="48.21794" lon="3.28955">
        <ele>69</ele>
        <time>2013-09-29T09:42:51.000Z</time>
      </trkpt>
      <trkpt lat="48.21794" lon="3.28946">
        <ele>69</ele>
        <time>2013-09-29T09:42:52.000Z</time>
      </trkpt>
      <trkpt lat="48.21794" lon="3.28935">
        <ele>69</ele>
        <time>2013-09-29T09:42:53.000Z</time>
      </trkpt>
      <trkpt lat="48.21793" lon="3.28925">
        <ele>69</ele>
        <time>2013-09-29T09:42:54.000Z</time>
      </trkpt>
      <trkpt lat="48.21793" lon="3.28916">
        <ele>69</ele>
        <time>2013-09-29T09:42:55.000Z</time>
      </trkpt>
      <trkpt lat="48.21793" lon="3.28905">
        <ele>69</ele>
        <time>2013-09-29T09:42:56.000Z</time>
      </trkpt>
      <trkpt lat="48.21792" lon="3.28897">
        <ele>69</ele>
        <time>2013-09-29T09:42:57.000Z</time>
      </trkpt>
      <trkpt lat="48.21792" lon="3.28886">
        <ele>69</ele>
        <time>2013-09-29T09:42:58.000Z</time>
      </trkpt>
      <trkpt lat="48.21791" lon="3.28877">
        <ele>69</ele>
        <time>2013-09-29T09:42:59.000Z</time>
      </trkpt>
      <trkpt lat="48.21791" lon="3.28869">
        <ele>69</ele>
        <time>2013-09-29T09:43:00.000Z</time>
      </trkpt>
      <trkpt lat="48.2179" lon="3.2886">
        <ele>69</ele>
        <time>2013-09-29T09:43:01.000Z</time>
      </trkpt>
      <trkpt lat="48.21789" lon="3.28854">
        <ele>69</ele>
        <time>2013-09-29T09:43:02.000Z</time>
      </trkpt>
      <trkpt lat="48.21789" lon="3.28845">
        <ele>69</ele>
        <time>2013-09-29T09:43:03.000Z</time>
      </trkpt>
      <trkpt lat="48.21788" lon="3.28837">
        <ele>70</ele>
        <time>2013-09-29T09:43:04.000Z</time>
      </trkpt>
      <trkpt lat="48.21787" lon="3.28828">
        <ele>70</ele>
        <time>2013-09-29T09:43:05.000Z</time>
      </trkpt>
      <trkpt lat="48.21786" lon="3.2882">
        <ele>70</ele>
        <time>2013-09-29T09:43:06.000Z</time>
      </trkpt>
      <trkpt lat="48.21785" lon="3.28811">
        <ele>70</ele>
        <time>2013-09-29T09:43:07.000Z</time>
      </trkpt>
      <trkpt lat="48.21784" lon="3.28802">
        <ele>70</ele>
        <time>2013-09-29T09:43:08.000Z</time>
      </trkpt>
      <trkpt lat="48.21782" lon="3.28794">
        <ele>70</ele>
        <time>2013-09-29T09:43:09.000Z</time>
      </trkpt>
      <trkpt lat="48.21781" lon="3.28787">
        <ele>69</ele>
        <time>2013-09-29T09:43:10.000Z</time>
      </trkpt>
      <trkpt lat="48.2178" lon="3.28779">
        <ele>69</ele>
        <time>2013-09-29T09:43:11.000Z</time>
      </trkpt>
      <trkpt lat="48.2178" lon="3.28772">
        <ele>69</ele>
        <time>2013-09-29T09:43:12.000Z</time>
      </trkpt>
      <trkpt lat="48.21779" lon="3.28766">
        <ele>69</ele>
        <time>2013-09-29T09:43:13.000Z</time>
      </trkpt>
      <trkpt lat="48.21779" lon="3.28759">
        <ele>69</ele>
        <time>2013-09-29T09:43:14.000Z</time>
      </trkpt>
      <trkpt lat="48.21778" lon="3.28753">
        <ele>69</ele>
        <time>2013-09-29T09:43:15.000Z</time>
      </trkpt>
      <trkpt lat="48.21778" lon="3.28747">
        <ele>69</ele>
        <time>2013-09-29T09:43:16.000Z</time>
      </trkpt>
      <trkpt lat="48.21778" lon="3.28742">
        <ele>69</ele>
        <time>2013-09-29T09:43:17.000Z</time>
      </trkpt>
      <trkpt lat="48.21777" lon="3.28736">
        <ele>69</ele>
        <time>2013-09-29T09:44:23.000Z</time>
      </trkpt>
      <trkpt lat="48.21777" lon="3.28732">
        <ele>69</ele>
        <time>2013-09-29T09:44:24.000Z</time>
      </trkpt>
      <trkpt lat="48.21776" lon="3.28727">
        <ele>69</ele>
        <time>2013-09-29T09:44:25.000Z</time>
      </trkpt>
      <trkpt lat="48.21776" lon="3.28723">
        <ele>69</ele>
        <time>2013-09-29T09:44:26.000Z</time>
      </trkpt>
      <trkpt lat="48.21776" lon="3.28719">
        <ele>69</ele>
        <time>2013-09-29T09:44:27.000Z</time>
      </trkpt>
      <trkpt lat="48.21774" lon="3.28712">
        <ele>69</ele>
        <time>2013-09-29T09:44:28.000Z</time>
      </trkpt>
      <trkpt lat="48.21771" lon="3.2871">
        <ele>69</ele>
        <time>2013-09-29T09:44:29.000Z</time>
      </trkpt>
      <trkpt lat="48.21766" lon="3.28708">
        <ele>69</ele>
        <time>2013-09-29T09:44:30.000Z</time>
      </trkpt>
      <trkpt lat="48.21762" lon="3.28706">
        <ele>69</ele>
        <time>2013-09-29T09:44:31.000Z</time>
      </trkpt>
      <trkpt lat="48.21757" lon="3.28706">
        <ele>69</ele>
        <time>2013-09-29T09:44:32.000Z</time>
      </trkpt>
      <trkpt lat="48.21751" lon="3.28706">
        <ele>69</ele>
        <time>2013-09-29T09:44:33.000Z</time>
      </trkpt>
      <trkpt lat="48.21746" lon="3.28706">
        <ele>69</ele>
        <time>2013-09-29T09:44:34.000Z</time>
      </trkpt>
      <trkpt lat="48.21742" lon="3.28704">
        <ele>69</ele>
        <time>2013-09-29T09:44:35.000Z</time>
      </trkpt>
      <trkpt lat="48.21736" lon="3.28704">
        <ele>68</ele>
        <time>2013-09-29T09:44:36.000Z</time>
      </trkpt>
      <trkpt lat="48.2173" lon="3.28704">
        <ele>68</ele>
        <time>2013-09-29T09:44:37.000Z</time>
      </trkpt>
      <trkpt lat="48.21725" lon="3.28701">
        <ele>68</ele>
        <time>2013-09-29T09:44:38.000Z</time>
      </trkpt>
      <trkpt lat="48.21719" lon="3.28701">
        <ele>68</ele>
        <time>2013-09-29T09:44:39.000Z</time>
      </trkpt>
      <trkpt lat="48.21713" lon="3.28699">
        <ele>68</ele>
        <time>2013-09-29T09:44:40.000Z</time>
      </trkpt>
      <trkpt lat="48.21707" lon="3.28699">
        <ele>68</ele>
        <time>2013-09-29T09:44:41.000Z</time>
      </trkpt>
      <trkpt lat="48.21701" lon="3.28697">
        <ele>68</ele>
        <time>2013-09-29T09:44:42.000Z</time>
      </trkpt>
      <trkpt lat="48.21694" lon="3.28697">
        <ele>68</ele>
        <time>2013-09-29T09:44:43.000Z</time>
      </trkpt>
      <trkpt lat="48.21689" lon="3.28697">
        <ele>68</ele>
        <time>2013-09-29T09:44:44.000Z</time>
      </trkpt>
      <trkpt lat="48.21683" lon="3.28695">
        <ele>68</ele>
        <time>2013-09-29T09:44:45.000Z</time>
      </trkpt>
      <trkpt lat="48.21676" lon="3.28695">
        <ele>68</ele>
        <time>2013-09-29T09:44:46.000Z</time>
      </trkpt>
      <trkpt lat="48.21671" lon="3.28693">
        <ele>68</ele>
        <time>2013-09-29T09:44:47.000Z</time>
      </trkpt>
      <trkpt lat="48.21664" lon="3.28693">
        <ele>68</ele>
        <time>2013-09-29T09:44:48.000Z</time>
      </trkpt>
      <trkpt lat="48.21658" lon="3.28693">
        <ele>68</ele>
        <time>2013-09-29T09:44:49.000Z</time>
      </trkpt>
      <trkpt lat="48.21653" lon="3.28691">
        <ele>68</ele>
        <time>2013-09-29T09:44:50.000Z</time>
      </trkpt>
      <trkpt lat="48.21646" lon="3.28691">
        <ele>68</ele>
        <time>2013-09-29T09:44:51.000Z</time>
      </trkpt>
      <trkpt lat="48.2164" lon="3.28689">
        <ele>68</ele>
        <time>2013-09-29T09:44:52.000Z</time>
      </trkpt>
      <trkpt lat="48.21633" lon="3.28686">
        <ele>68</ele>
        <time>2013-09-29T09:44:53.000Z</time>
      </trkpt>
      <trkpt lat="48.21627" lon="3.28686">
        <ele>68</ele>
        <time>2013-09-29T09:44:54.000Z</time>
      </trkpt>
      <trkpt lat="48.2162" lon="3.28684">
        <ele>68</ele>
        <time>2013-09-29T09:44:55.000Z</time>
      </trkpt>
      <trkpt lat="48.21614" lon="3.28684">
        <ele>68</ele>
        <time>2013-09-29T09:44:56.000Z</time>
      </trkpt>
      <trkpt lat="48.21608" lon="3.28682">
        <ele>68</ele>
        <time>2013-09-29T09:44:57.000Z</time>
      </trkpt>
      <trkpt lat="48.216" lon="3.28682">
        <ele>68</ele>
        <time>2013-09-29T09:44:58.000Z</time>
      </trkpt>
      <trkpt lat="48.21594" lon="3.2868">
        <ele>68</ele>
        <time>2013-09-29T09:44:59.000Z</time>
      </trkpt>
      <trkpt lat="48.21587" lon="3.2868">
        <ele>68</ele>
        <time>2013-09-29T09:45:00.000Z</time>
      </trkpt>
      <trkpt lat="48.21581" lon="3.28678">
        <ele>68</ele>
        <time>2013-09-29T09:45:01.000Z</time>
      </trkpt>
      <trkpt lat="48.21574" lon="3.28678">
        <ele>68</ele>
        <time>2013-09-29T09:45:02.000Z</time>
      </trkpt>
      <trkpt lat="48.21567" lon="3.28676">
        <ele>68</ele>
        <time>2013-09-29T09:45:03.000Z</time>
      </trkpt>
      <trkpt lat="48.2156" lon="3.28676">
        <ele>68</ele>
        <time>2013-09-29T09:45:04.000Z</time>
      </trkpt>
      <trkpt lat="48.21554" lon="3.28674">
        <ele>68</ele>
        <time>2013-09-29T09:45:05.000Z</time>
      </trkpt>
      <trkpt lat="48.21548" lon="3.28671">
        <ele>68</ele>
        <time>2013-09-29T09:45:06.000Z</time>
      </trkpt>
      <trkpt lat="48.21541" lon="3.28671">
        <ele>69</ele>
        <time>2013-09-29T09:45:07.000Z</time>
      </trkpt>
      <trkpt lat="48.21536" lon="3.28669">
        <ele>69</ele>
        <time>2013-09-29T09:45:08.000Z</time>
      </trkpt>
      <trkpt lat="48.21529" lon="3.28667">
        <ele>69</ele>
        <time>2013-09-29T09:45:09.000Z</time>
      </trkpt>
      <trkpt lat="48.21523" lon="3.28667">
        <ele>69</ele>
        <time>2013-09-29T09:45:10.000Z</time>
      </trkpt>
      <trkpt lat="48.21517" lon="3.28665">
        <ele>68</ele>
        <time>2013-09-29T09:45:11.000Z</time>
      </trkpt>
      <trkpt lat="48.21511" lon="3.28665">
        <ele>68</ele>
        <time>2013-09-29T09:45:12.000Z</time>
      </trkpt>
      <trkpt lat="48.21506" lon="3.28663">
        <ele>69</ele>
        <time>2013-09-29T09:45:13.000Z</time>
      </trkpt>
      <trkpt lat="48.21499" lon="3.28663">
        <ele>69</ele>
        <time>2013-09-29T09:45:14.000Z</time>
      </trkpt>
      <trkpt lat="48.21494" lon="3.28661">
        <ele>69</ele>
        <time>2013-09-29T09:45:15.000Z</time>
      </trkpt>
      <trkpt lat="48.21487" lon="3.28661">
        <ele>68</ele>
        <time>2013-09-29T09:45:16.000Z</time>
      </trkpt>
      <trkpt lat="48.21482" lon="3.28659">
        <ele>68</ele>
        <time>2013-09-29T09:45:17.000Z</time>
      </trkpt>
      <trkpt lat="48.21476" lon="3.28659">
        <ele>68</ele>
        <time>2013-09-29T09:45:18.000Z</time>
      </trkpt>
      <trkpt lat="48.2147" lon="3.28656">
        <ele>68</ele>
        <time>2013-09-29T09:45:19.000Z</time>
      </trkpt>
      <trkpt lat="48.21465" lon="3.28656">
        <ele>68</ele>
        <time>2013-09-29T09:45:20.000Z</time>
      </trkpt>
      <trkpt lat="48.2146" lon="3.28654">
        <ele>68</ele>
        <time>2013-09-29T09:45:21.000Z</time>
      </trkpt>
      <trkpt lat="48.21453" lon="3.28654">
        <ele>68</ele>
        <time>2013-09-29T09:45:22.000Z</time>
      </trkpt>
      <trkpt lat="48.21448" lon="3.28652">
        <ele>68</ele>
        <time>2013-09-29T09:45:23.000Z</time>
      </trkpt>
      <trkpt lat="48.21442" lon="3.28652">
        <ele>68</ele>
        <time>2013-09-29T09:45:24.000Z</time>
      </trkpt>
      <trkpt lat="48.21436" lon="3.28652">
        <ele>68</ele>
        <time>2013-09-29T09:45:25.000Z</time>
      </trkpt>
      <trkpt lat="48.21431" lon="3.2865">
        <ele>68</ele>
        <time>2013-09-29T09:45:26.000Z</time>
      </trkpt>
      <trkpt lat="48.21425" lon="3.2865">
        <ele>68</ele>
        <time>2013-09-29T09:45:27.000Z</time>
      </trkpt>
      <trkpt lat="48.21419" lon="3.28648">
        <ele>68</ele>
        <time>2013-09-29T09:45:28.000Z</time>
      </trkpt>
      <trkpt lat="48.21413" lon="3.28648">
        <ele>68</ele>
        <time>2013-09-29T09:45:29.000Z</time>
      </trkpt>
      <trkpt lat="48.21407" lon="3.28648">
        <ele>68</ele>
        <time>2013-09-29T09:45:30.000Z</time>
      </trkpt>
      <trkpt lat="48.21402" lon="3.28646">
        <ele>68</ele>
        <time>2013-09-29T09:45:31.000Z</time>
      </trkpt>
      <trkpt lat="48.21396" lon="3.28646">
        <ele>68</ele>
        <time>2013-09-29T09:45:32.000Z</time>
      </trkpt>
      <trkpt lat="48.21391" lon="3.28646">
        <ele>68</ele>
        <time>2013-09-29T09:45:33.000Z</time>
      </trkpt>
      <trkpt lat="48.21386" lon="3.28644">
        <ele>68</ele>
        <time>2013-09-29T09:45:34.000Z</time>
      </trkpt>
      <trkpt lat="48.2138" lon="3.28644">
        <ele>68</ele>
        <time>2013-09-29T09:45:35.000Z</time>
      </trkpt>
      <trkpt lat="48.21375" lon="3.28641">
        <ele>68</ele>
        <time>2013-09-29T09:45:36.000Z</time>
      </trkpt>
      <trkpt lat="48.21369" lon="3.28641">
        <ele>68</ele>
        <time>2013-09-29T09:45:37.000Z</time>
      </trkpt>
      <trkpt lat="48.21364" lon="3.28639">
        <ele>68</ele>
        <time>2013-09-29T09:45:38.000Z</time>
      </trkpt>
      <trkpt lat="48.21359" lon="3.28639">
        <ele>68</ele>
        <time>2013-09-29T09:45:39.000Z</time>
      </trkpt>
      <trkpt lat="48.21353" lon="3.28637">
        <ele>68</ele>
        <time>2013-09-29T09:45:40.000Z</time>
      </trkpt>
      <trkpt lat="48.21348" lon="3.28637">
        <ele>68</ele>
        <time>2013-09-29T09:45:41.000Z</time>
      </trkpt>
      <trkpt lat="48.21343" lon="3.28635">
        <ele>68</ele>
        <time>2013-09-29T09:45:42.000Z</time>
      </trkpt>
      <trkpt lat="48.21337" lon="3.28635">
        <ele>68</ele>
        <time>2013-09-29T09:45:43.000Z</time>
      </trkpt>
      <trkpt lat="48.21332" lon="3.28633">
        <ele>68</ele>
        <time>2013-09-29T09:45:44.000Z</time>
      </trkpt>
      <trkpt lat="48.21326" lon="3.28633">
        <ele>68</ele>
        <time>2013-09-29T09:45:45.000Z</time>
      </trkpt>
      <trkpt lat="48.21321" lon="3.28631">
        <ele>68</ele>
        <time>2013-09-29T09:45:46.000Z</time>
      </trkpt>
      <trkpt lat="48.21316" lon="3.28631">
        <ele>68</ele>
        <time>2013-09-29T09:45:47.000Z</time>
      </trkpt>
      <trkpt lat="48.2131" lon="3.28629">
        <ele>68</ele>
        <time>2013-09-29T09:45:48.000Z</time>
      </trkpt>
      <trkpt lat="48.21305" lon="3.28629">
        <ele>68</ele>
        <time>2013-09-29T09:45:49.000Z</time>
      </trkpt>
      <trkpt lat="48.213" lon="3.28629">
        <ele>68</ele>
        <time>2013-09-29T09:45:50.000Z</time>
      </trkpt>
      <trkpt lat="48.21294" lon="3.28629">
        <ele>68</ele>
        <time>2013-09-29T09:45:51.000Z</time>
      </trkpt>
      <trkpt lat="48.21289" lon="3.28626">
        <ele>67</ele>
        <time>2013-09-29T09:45:52.000Z</time>
      </trkpt>
      <trkpt lat="48.21284" lon="3.28626">
        <ele>67</ele>
        <time>2013-09-29T09:45:53.000Z</time>
      </trkpt>
      <trkpt lat="48.21278" lon="3.28624">
        <ele>67</ele>
        <time>2013-09-29T09:45:54.000Z</time>
      </trkpt>
      <trkpt lat="48.21273" lon="3.28624">
        <ele>67</ele>
        <time>2013-09-29T09:45:55.000Z</time>
      </trkpt>
      <trkpt lat="48.21266" lon="3.28622">
        <ele>67</ele>
        <time>2013-09-29T09:45:56.000Z</time>
      </trkpt>
      <trkpt lat="48.21261" lon="3.2862">
        <ele>67</ele>
        <time>2013-09-29T09:45:57.000Z</time>
      </trkpt>
      <trkpt lat="48.21256" lon="3.2862">
        <ele>67</ele>
        <time>2013-09-29T09:45:58.000Z</time>
      </trkpt>
      <trkpt lat="48.2125" lon="3.28618">
        <ele>67</ele>
        <time>2013-09-29T09:45:59.000Z</time>
      </trkpt>
      <trkpt lat="48.21244" lon="3.28618">
        <ele>67</ele>
        <time>2013-09-29T09:46:00.000Z</time>
      </trkpt>
      <trkpt lat="48.21239" lon="3.28616">
        <ele>67</ele>
        <time>2013-09-29T09:46:01.000Z</time>
      </trkpt>
      <trkpt lat="48.21232" lon="3.28616">
        <ele>67</ele>
        <time>2013-09-29T09:46:02.000Z</time>
      </trkpt>
      <trkpt lat="48.21227" lon="3.28614">
        <ele>67</ele>
        <time>2013-09-29T09:46:03.000Z</time>
      </trkpt>
      <trkpt lat="48.2122" lon="3.28611">
        <ele>67</ele>
        <time>2013-09-29T09:46:04.000Z</time>
      </trkpt>
      <trkpt lat="48.21215" lon="3.28611">
        <ele>67</ele>
        <time>2013-09-29T09:46:05.000Z</time>
      </trkpt>
      <trkpt lat="48.21208" lon="3.28609">
        <ele>67</ele>
        <time>2013-09-29T09:46:06.000Z</time>
      </trkpt>
      <trkpt lat="48.21203" lon="3.28609">
        <ele>67</ele>
        <time>2013-09-29T09:46:07.000Z</time>
      </trkpt>
      <trkpt lat="48.21197" lon="3.28607">
        <ele>67</ele>
        <time>2013-09-29T09:46:08.000Z</time>
      </trkpt>
      <trkpt lat="48.21191" lon="3.28607">
        <ele>67</ele>
        <time>2013-09-29T09:46:09.000Z</time>
      </trkpt>
      <trkpt lat="48.21185" lon="3.28605">
        <ele>67</ele>
        <time>2013-09-29T09:46:10.000Z</time>
      </trkpt>
      <trkpt lat="48.2118" lon="3.28605">
        <ele>67</ele>
        <time>2013-09-29T09:46:11.000Z</time>
      </trkpt>
      <trkpt lat="48.21173" lon="3.28603">
        <ele>67</ele>
        <time>2013-09-29T09:46:12.000Z</time>
      </trkpt>
      <trkpt lat="48.21168" lon="3.28603">
        <ele>67</ele>
        <time>2013-09-29T09:46:13.000Z</time>
      </trkpt>
      <trkpt lat="48.21161" lon="3.28601">
        <ele>68</ele>
        <time>2013-09-29T09:46:14.000Z</time>
      </trkpt>
      <trkpt lat="48.21156" lon="3.28601">
        <ele>68</ele>
        <time>2013-09-29T09:46:15.000Z</time>
      </trkpt>
      <trkpt lat="48.21149" lon="3.28598">
        <ele>68</ele>
        <time>2013-09-29T09:46:16.000Z</time>
      </trkpt>
      <trkpt lat="48.21143" lon="3.28598">
        <ele>69</ele>
        <time>2013-09-29T09:46:17.000Z</time>
      </trkpt>
      <trkpt lat="48.21138" lon="3.28596">
        <ele>69</ele>
        <time>2013-09-29T09:46:18.000Z</time>
      </trkpt>
      <trkpt lat="48.21131" lon="3.28596">
        <ele>69</ele>
        <time>2013-09-29T09:46:19.000Z</time>
      </trkpt>
      <trkpt lat="48.21125" lon="3.28594">
        <ele>69</ele>
        <time>2013-09-29T09:46:20.000Z</time>
      </trkpt>
      <trkpt lat="48.21119" lon="3.28594">
        <ele>69</ele>
        <time>2013-09-29T09:46:21.000Z</time>
      </trkpt>
      <trkpt lat="48.21113" lon="3.28592">
        <ele>69</ele>
        <time>2013-09-29T09:46:22.000Z</time>
      </trkpt>
      <trkpt lat="48.21107" lon="3.28592">
        <ele>69</ele>
        <time>2013-09-29T09:46:23.000Z</time>
      </trkpt>
      <trkpt lat="48.21101" lon="3.2859">
        <ele>69</ele>
        <time>2013-09-29T09:46:24.000Z</time>
      </trkpt>
      <trkpt lat="48.21095" lon="3.2859">
        <ele>69</ele>
        <time>2013-09-29T09:46:25.000Z</time>
      </trkpt>
      <trkpt lat="48.21089" lon="3.2859">
        <ele>69</ele>
        <time>2013-09-29T09:46:26.000Z</time>
      </trkpt>
      <trkpt lat="48.21083" lon="3.28588">
        <ele>69</ele>
        <time>2013-09-29T09:46:27.000Z</time>
      </trkpt>
      <trkpt lat="48.21078" lon="3.28588">
        <ele>69</ele>
        <time>2013-09-29T09:46:28.000Z</time>
      </trkpt>
      <trkpt lat="48.21071" lon="3.28586">
        <ele>69</ele>
        <time>2013-09-29T09:46:29.000Z</time>
      </trkpt>
      <trkpt lat="48.21065" lon="3.28586">
        <ele>69</ele>
        <time>2013-09-29T09:46:30.000Z</time>
      </trkpt>
      <trkpt lat="48.21059" lon="3.28586">
        <ele>69</ele>
        <time>2013-09-29T09:46:31.000Z</time>
      </trkpt>
      <trkpt lat="48.21054" lon="3.28583">
        <ele>69</ele>
        <time>2013-09-29T09:46:32.000Z</time>
      </trkpt>
      <trkpt lat="48.21049" lon="3.28583">
        <ele>69</ele>
        <time>2013-09-29T09:46:33.000Z</time>
      </trkpt>
      <trkpt lat="48.21043" lon="3.28581">
        <ele>68</ele>
        <time>2013-09-29T09:46:34.000Z</time>
      </trkpt>
      <trkpt lat="48.21038" lon="3.28581">
        <ele>68</ele>
        <time>2013-09-29T09:46:35.000Z</time>
      </trkpt>
      <trkpt lat="48.21033" lon="3.28579">
        <ele>68</ele>
        <time>2013-09-29T09:46:36.000Z</time>
      </trkpt>
      <trkpt lat="48.21026" lon="3.28577">
        <ele>68</ele>
        <time>2013-09-29T09:46:37.000Z</time>
      </trkpt>
      <trkpt lat="48.21021" lon="3.28577">
        <ele>68</ele>
        <time>2013-09-29T09:46:38.000Z</time>
      </trkpt>
      <trkpt lat="48.21015" lon="3.28575">
        <ele>68</ele>
        <time>2013-09-29T09:46:39.000Z</time>
      </trkpt>
      <trkpt lat="48.21009" lon="3.28575">
        <ele>68</ele>
        <time>2013-09-29T09:46:40.000Z</time>
      </trkpt>
      <trkpt lat="48.21002" lon="3.28573">
        <ele>68</ele>
        <time>2013-09-29T09:46:41.000Z</time>
      </trkpt>
      <trkpt lat="48.20996" lon="3.28573">
        <ele>68</ele>
        <time>2013-09-29T09:46:42.000Z</time>
      </trkpt>
      <trkpt lat="48.20989" lon="3.28573">
        <ele>68</ele>
        <time>2013-09-29T09:46:43.000Z</time>
      </trkpt>
      <trkpt lat="48.20982" lon="3.28571">
        <ele>67</ele>
        <time>2013-09-29T09:46:44.000Z</time>
      </trkpt>
      <trkpt lat="48.20975" lon="3.28571">
        <ele>67</ele>
        <time>2013-09-29T09:46:45.000Z</time>
      </trkpt>
      <trkpt lat="48.20968" lon="3.28571">
        <ele>67</ele>
        <time>2013-09-29T09:46:46.000Z</time>
      </trkpt>
      <trkpt lat="48.20962" lon="3.28568">
        <ele>67</ele>
        <time>2013-09-29T09:46:47.000Z</time>
      </trkpt>
      <trkpt lat="48.20956" lon="3.28568">
        <ele>67</ele>
        <time>2013-09-29T09:46:48.000Z</time>
      </trkpt>
      <trkpt lat="48.2095" lon="3.28566">
        <ele>67</ele>
        <time>2013-09-29T09:46:49.000Z</time>
      </trkpt>
      <trkpt lat="48.20943" lon="3.28566">
        <ele>67</ele>
        <time>2013-09-29T09:46:50.000Z</time>
      </trkpt>
      <trkpt lat="48.20938" lon="3.28566">
        <ele>67</ele>
        <time>2013-09-29T09:46:51.000Z</time>
      </trkpt>
      <trkpt lat="48.20933" lon="3.28566">
        <ele>67</ele>
        <time>2013-09-29T09:46:52.000Z</time>
      </trkpt>
      <trkpt lat="48.20927" lon="3.28566">
        <ele>67</ele>
        <time>2013-09-29T09:46:53.000Z</time>
      </trkpt>
      <trkpt lat="48.20922" lon="3.28566">
        <ele>67</ele>
        <time>2013-09-29T09:46:54.000Z</time>
      </trkpt>
      <trkpt lat="48.20917" lon="3.28566">
        <ele>67</ele>
        <time>2013-09-29T09:46:55.000Z</time>
      </trkpt>
      <trkpt lat="48.20911" lon="3.28566">
        <ele>67</ele>
        <time>2013-09-29T09:46:56.000Z</time>
      </trkpt>
      <trkpt lat="48.20907" lon="3.28568">
        <ele>67</ele>
        <time>2013-09-29T09:46:57.000Z</time>
      </trkpt>
      <trkpt lat="48.20903" lon="3.28568">
        <ele>67</ele>
        <time>2013-09-29T09:46:58.000Z</time>
      </trkpt>
      <trkpt lat="48.20898" lon="3.28568">
        <ele>67</ele>
        <time>2013-09-29T09:46:59.000Z</time>
      </trkpt>
      <trkpt lat="48.20895" lon="3.28568">
        <ele>67</ele>
        <time>2013-09-29T09:47:00.000Z</time>
      </trkpt>
      <trkpt lat="48.20893" lon="3.28564">
        <ele>67</ele>
        <time>2013-09-29T09:47:01.000Z</time>
      </trkpt>
      <trkpt lat="48.2089" lon="3.28562">
        <ele>67</ele>
        <time>2013-09-29T09:47:02.000Z</time>
      </trkpt>
      <trkpt lat="48.20889" lon="3.28558">
        <ele>67</ele>
        <time>2013-09-29T09:47:03.000Z</time>
      </trkpt>
      <trkpt lat="48.20888" lon="3.28553">
        <ele>67</ele>
        <time>2013-09-29T09:47:04.000Z</time>
      </trkpt>
      <trkpt lat="48.2089" lon="3.28547">
        <ele>67</ele>
        <time>2013-09-29T09:47:05.000Z</time>
      </trkpt>
      <trkpt lat="48.20891" lon="3.28541">
        <ele>67</ele>
        <time>2013-09-29T09:47:06.000Z</time>
      </trkpt>
      <trkpt lat="48.20891" lon="3.28534">
        <ele>67</ele>
        <time>2013-09-29T09:47:07.000Z</time>
      </trkpt>
      <trkpt lat="48.20892" lon="3.28528">
        <ele>67</ele>
        <time>2013-09-29T09:47:08.000Z</time>
      </trkpt>
      <trkpt lat="48.20893" lon="3.28521">
        <ele>67</ele>
        <time>2013-09-29T09:47:09.000Z</time>
      </trkpt>
      <trkpt lat="48.20894" lon="3.28515">
        <ele>66</ele>
        <time>2013-09-29T09:47:10.000Z</time>
      </trkpt>
      <trkpt lat="48.20895" lon="3.28508">
        <ele>66</ele>
        <time>2013-09-29T09:47:11.000Z</time>
      </trkpt>
      <trkpt lat="48.20896" lon="3.28502">
        <ele>66</ele>
        <time>2013-09-29T09:47:12.000Z</time>
      </trkpt>
      <trkpt lat="48.20899" lon="3.28496">
        <ele>66</ele>
        <time>2013-09-29T09:47:13.000Z</time>
      </trkpt>
      <trkpt lat="48.20902" lon="3.28489">
        <ele>66</ele>
        <time>2013-09-29T09:47:14.000Z</time>
      </trkpt>
      <trkpt lat="48.20904" lon="3.2848">
        <ele>66</ele>
        <time>2013-09-29T09:47:15.000Z</time>
      </trkpt>
      <trkpt lat="48.20905" lon="3.28474">
        <ele>66</ele>
        <time>2013-09-29T09:47:16.000Z</time>
      </trkpt>
      <trkpt lat="48.20906" lon="3.28468">
        <ele>66</ele>
        <time>2013-09-29T09:47:17.000Z</time>
      </trkpt>
      <trkpt lat="48.20907" lon="3.28459">
        <ele>66</ele>
        <time>2013-09-29T09:47:18.000Z</time>
      </trkpt>
      <trkpt lat="48.20908" lon="3.2845">
        <ele>66</ele>
        <time>2013-09-29T09:47:19.000Z</time>
      </trkpt>
      <trkpt lat="48.20909" lon="3.28442">
        <ele>67</ele>
        <time>2013-09-29T09:47:20.000Z</time>
      </trkpt>
      <trkpt lat="48.2091" lon="3.28433">
        <ele>67</ele>
        <time>2013-09-29T09:47:21.000Z</time>
      </trkpt>
      <trkpt lat="48.20911" lon="3.28425">
        <ele>67</ele>
        <time>2013-09-29T09:47:22.000Z</time>
      </trkpt>
      <trkpt lat="48.20911" lon="3.28414">
        <ele>67</ele>
        <time>2013-09-29T09:47:23.000Z</time>
      </trkpt>
      <trkpt lat="48.20912" lon="3.28405">
        <ele>67</ele>
        <time>2013-09-29T09:47:24.000Z</time>
      </trkpt>
      <trkpt lat="48.20913" lon="3.28397">
        <ele>67</ele>
        <time>2013-09-29T09:47:25.000Z</time>
      </trkpt>
      <trkpt lat="48.20913" lon="3.28386">
        <ele>67</ele>
        <time>2013-09-29T09:47:26.000Z</time>
      </trkpt>
      <trkpt lat="48.20915" lon="3.28377">
        <ele>67</ele>
        <time>2013-09-29T09:47:27.000Z</time>
      </trkpt>
      <trkpt lat="48.20915" lon="3.28367">
        <ele>67</ele>
        <time>2013-09-29T09:47:28.000Z</time>
      </trkpt>
      <trkpt lat="48.20916" lon="3.28358">
        <ele>67</ele>
        <time>2013-09-29T09:47:29.000Z</time>
      </trkpt>
      <trkpt lat="48.20916" lon="3.2835">
        <ele>67</ele>
        <time>2013-09-29T09:47:30.000Z</time>
      </trkpt>
      <trkpt lat="48.20917" lon="3.28339">
        <ele>66</ele>
        <time>2013-09-29T09:47:31.000Z</time>
      </trkpt>
      <trkpt lat="48.20918" lon="3.2833">
        <ele>66</ele>
        <time>2013-09-29T09:47:32.000Z</time>
      </trkpt>
      <trkpt lat="48.20918" lon="3.28322">
        <ele>66</ele>
        <time>2013-09-29T09:47:33.000Z</time>
      </trkpt>
      <trkpt lat="48.20919" lon="3.28313">
        <ele>66</ele>
        <time>2013-09-29T09:47:34.000Z</time>
      </trkpt>
      <trkpt lat="48.20919" lon="3.28305">
        <ele>65</ele>
        <time>2013-09-29T09:47:35.000Z</time>
      </trkpt>
      <trkpt lat="48.2092" lon="3.28294">
        <ele>65</ele>
        <time>2013-09-29T09:47:36.000Z</time>
      </trkpt>
      <trkpt lat="48.2092" lon="3.28285">
        <ele>65</ele>
        <time>2013-09-29T09:47:37.000Z</time>
      </trkpt>
      <trkpt lat="48.2092" lon="3.28279">
        <ele>65</ele>
        <time>2013-09-29T09:47:38.000Z</time>
      </trkpt>
      <trkpt lat="48.2092" lon="3.2827">
        <ele>65</ele>
        <time>2013-09-29T09:47:39.000Z</time>
      </trkpt>
      <trkpt lat="48.2092" lon="3.28262">
        <ele>66</ele>
        <time>2013-09-29T09:47:40.000Z</time>
      </trkpt>
      <trkpt lat="48.2092" lon="3.28253">
        <ele>66</ele>
        <time>2013-09-29T09:47:41.000Z</time>
      </trkpt>
      <trkpt lat="48.20919" lon="3.28244">
        <ele>66</ele>
        <time>2013-09-29T09:47:42.000Z</time>
      </trkpt>
      <trkpt lat="48.20919" lon="3.28236">
        <ele>66</ele>
        <time>2013-09-29T09:47:43.000Z</time>
      </trkpt>
      <trkpt lat="48.20918" lon="3.28227">
        <ele>66</ele>
        <time>2013-09-29T09:47:44.000Z</time>
      </trkpt>
      <trkpt lat="48.20918" lon="3.28219">
        <ele>66</ele>
        <time>2013-09-29T09:47:45.000Z</time>
      </trkpt>
      <trkpt lat="48.20917" lon="3.2821">
        <ele>68</ele>
        <time>2013-09-29T09:47:46.000Z</time>
      </trkpt>
      <trkpt lat="48.20916" lon="3.28202">
        <ele>68</ele>
        <time>2013-09-29T09:47:47.000Z</time>
      </trkpt>
      <trkpt lat="48.20913" lon="3.28193">
        <ele>68</ele>
        <time>2013-09-29T09:47:48.000Z</time>
      </trkpt>
      <trkpt lat="48.20912" lon="3.28184">
        <ele>68</ele>
        <time>2013-09-29T09:47:49.000Z</time>
      </trkpt>
      <trkpt lat="48.2091" lon="3.28176">
        <ele>67</ele>
        <time>2013-09-29T09:47:50.000Z</time>
      </trkpt>
      <trkpt lat="48.20909" lon="3.28167">
        <ele>67</ele>
        <time>2013-09-29T09:47:51.000Z</time>
      </trkpt>
      <trkpt lat="48.20907" lon="3.28159">
        <ele>67</ele>
        <time>2013-09-29T09:47:52.000Z</time>
      </trkpt>
      <trkpt lat="48.20906" lon="3.2815">
        <ele>67</ele>
        <time>2013-09-29T09:47:53.000Z</time>
      </trkpt>
      <trkpt lat="48.20904" lon="3.28144">
        <ele>67</ele>
        <time>2013-09-29T09:47:54.000Z</time>
      </trkpt>
      <trkpt lat="48.20903" lon="3.28135">
        <ele>67</ele>
        <time>2013-09-29T09:47:55.000Z</time>
      </trkpt>
      <trkpt lat="48.20902" lon="3.28126">
        <ele>67</ele>
        <time>2013-09-29T09:47:56.000Z</time>
      </trkpt>
      <trkpt lat="48.20901" lon="3.28118">
        <ele>67</ele>
        <time>2013-09-29T09:47:57.000Z</time>
      </trkpt>
      <trkpt lat="48.20899" lon="3.28111">
        <ele>67</ele>
        <time>2013-09-29T09:47:58.000Z</time>
      </trkpt>
      <trkpt lat="48.20897" lon="3.28103">
        <ele>67</ele>
        <time>2013-09-29T09:47:59.000Z</time>
      </trkpt>
      <trkpt lat="48.20896" lon="3.28094">
        <ele>67</ele>
        <time>2013-09-29T09:48:00.000Z</time>
      </trkpt>
      <trkpt lat="48.20895" lon="3.28088">
        <ele>67</ele>
        <time>2013-09-29T09:48:01.000Z</time>
      </trkpt>
      <trkpt lat="48.20894" lon="3.28079">
        <ele>66</ele>
        <time>2013-09-29T09:48:02.000Z</time>
      </trkpt>
      <trkpt lat="48.20893" lon="3.28073">
        <ele>66</ele>
        <time>2013-09-29T09:48:03.000Z</time>
      </trkpt>
      <trkpt lat="48.20892" lon="3.28064">
        <ele>66</ele>
        <time>2013-09-29T09:48:04.000Z</time>
      </trkpt>
      <trkpt lat="48.2089" lon="3.28058">
        <ele>66</ele>
        <time>2013-09-29T09:48:05.000Z</time>
      </trkpt>
      <trkpt lat="48.20889" lon="3.28049">
        <ele>66</ele>
        <time>2013-09-29T09:48:06.000Z</time>
      </trkpt>
      <trkpt lat="48.20888" lon="3.28043">
        <ele>66</ele>
        <time>2013-09-29T09:48:07.000Z</time>
      </trkpt>
      <trkpt lat="48.20887" lon="3.28036">
        <ele>66</ele>
        <time>2013-09-29T09:48:08.000Z</time>
      </trkpt>
      <trkpt lat="48.20886" lon="3.28028">
        <ele>66</ele>
        <time>2013-09-29T09:48:09.000Z</time>
      </trkpt>
      <trkpt lat="48.20883" lon="3.28021">
        <ele>66</ele>
        <time>2013-09-29T09:48:10.000Z</time>
      </trkpt>
      <trkpt lat="48.20882" lon="3.28013">
        <ele>66</ele>
        <time>2013-09-29T09:48:11.000Z</time>
      </trkpt>
      <trkpt lat="48.20881" lon="3.28004">
        <ele>66</ele>
        <time>2013-09-29T09:48:12.000Z</time>
      </trkpt>
      <trkpt lat="48.2088" lon="3.27998">
        <ele>65</ele>
        <time>2013-09-29T09:48:13.000Z</time>
      </trkpt>
      <trkpt lat="48.2088" lon="3.27989">
        <ele>65</ele>
        <time>2013-09-29T09:48:14.000Z</time>
      </trkpt>
      <trkpt lat="48.20879" lon="3.27983">
        <ele>65</ele>
        <time>2013-09-29T09:48:15.000Z</time>
      </trkpt>
      <trkpt lat="48.20878" lon="3.27974">
        <ele>65</ele>
        <time>2013-09-29T09:48:16.000Z</time>
      </trkpt>
      <trkpt lat="48.20877" lon="3.27965">
        <ele>65</ele>
        <time>2013-09-29T09:48:17.000Z</time>
      </trkpt>
      <trkpt lat="48.20876" lon="3.27959">
        <ele>65</ele>
        <time>2013-09-29T09:48:18.000Z</time>
      </trkpt>
      <trkpt lat="48.20875" lon="3.2795">
        <ele>65</ele>
        <time>2013-09-29T09:48:19.000Z</time>
      </trkpt>
      <trkpt lat="48.20874" lon="3.27942">
        <ele>65</ele>
        <time>2013-09-29T09:48:20.000Z</time>
      </trkpt>
      <trkpt lat="48.20873" lon="3.27933">
        <ele>65</ele>
        <time>2013-09-29T09:48:21.000Z</time>
      </trkpt>
      <trkpt lat="48.20872" lon="3.27927">
        <ele>65</ele>
        <time>2013-09-29T09:48:22.000Z</time>
      </trkpt>
      <trkpt lat="48.20871" lon="3.27918">
        <ele>65</ele>
        <time>2013-09-29T09:48:23.000Z</time>
      </trkpt>
      <trkpt lat="48.20869" lon="3.2791">
        <ele>65</ele>
        <time>2013-09-29T09:48:24.000Z</time>
      </trkpt>
      <trkpt lat="48.20868" lon="3.27901">
        <ele>65</ele>
        <time>2013-09-29T09:48:25.000Z</time>
      </trkpt>
      <trkpt lat="48.20867" lon="3.27893">
        <ele>65</ele>
        <time>2013-09-29T09:48:26.000Z</time>
      </trkpt>
      <trkpt lat="48.20866" lon="3.27886">
        <ele>65</ele>
        <time>2013-09-29T09:48:27.000Z</time>
      </trkpt>
      <trkpt lat="48.20865" lon="3.27878">
        <ele>65</ele>
        <time>2013-09-29T09:48:28.000Z</time>
      </trkpt>
      <trkpt lat="48.20864" lon="3.27869">
        <ele>66</ele>
        <time>2013-09-29T09:48:29.000Z</time>
      </trkpt>
      <trkpt lat="48.20863" lon="3.2786">
        <ele>66</ele>
        <time>2013-09-29T09:48:30.000Z</time>
      </trkpt>
      <trkpt lat="48.20862" lon="3.27852">
        <ele>66</ele>
        <time>2013-09-29T09:48:31.000Z</time>
      </trkpt>
      <trkpt lat="48.2086" lon="3.27845">
        <ele>66</ele>
        <time>2013-09-29T09:48:32.000Z</time>
      </trkpt>
      <trkpt lat="48.20857" lon="3.27837">
        <ele>66</ele>
        <time>2013-09-29T09:48:33.000Z</time>
      </trkpt>
      <trkpt lat="48.20854" lon="3.2783">
        <ele>66</ele>
        <time>2013-09-29T09:48:34.000Z</time>
      </trkpt>
      <trkpt lat="48.20852" lon="3.27822">
        <ele>66</ele>
        <time>2013-09-29T09:48:35.000Z</time>
      </trkpt>
      <trkpt lat="48.2085" lon="3.27815">
        <ele>66</ele>
        <time>2013-09-29T09:48:36.000Z</time>
      </trkpt>
      <trkpt lat="48.20848" lon="3.27807">
        <ele>66</ele>
        <time>2013-09-29T09:48:37.000Z</time>
      </trkpt>
      <trkpt lat="48.20847" lon="3.27798">
        <ele>66</ele>
        <time>2013-09-29T09:48:38.000Z</time>
      </trkpt>
      <trkpt lat="48.20846" lon="3.27792">
        <ele>66</ele>
        <time>2013-09-29T09:48:39.000Z</time>
      </trkpt>
      <trkpt lat="48.20845" lon="3.27783">
        <ele>66</ele>
        <time>2013-09-29T09:48:40.000Z</time>
      </trkpt>
      <trkpt lat="48.20844" lon="3.27777">
        <ele>66</ele>
        <time>2013-09-29T09:48:41.000Z</time>
      </trkpt>
      <trkpt lat="48.20843" lon="3.27768">
        <ele>66</ele>
        <time>2013-09-29T09:48:42.000Z</time>
      </trkpt>
      <trkpt lat="48.20842" lon="3.27762">
        <ele>66</ele>
        <time>2013-09-29T09:48:43.000Z</time>
      </trkpt>
      <trkpt lat="48.2084" lon="3.27755">
        <ele>66</ele>
        <time>2013-09-29T09:48:44.000Z</time>
      </trkpt>
      <trkpt lat="48.20839" lon="3.27747">
        <ele>66</ele>
        <time>2013-09-29T09:48:45.000Z</time>
      </trkpt>
      <trkpt lat="48.20838" lon="3.2774">
        <ele>66</ele>
        <time>2013-09-29T09:48:46.000Z</time>
      </trkpt>
      <trkpt lat="48.20837" lon="3.27734">
        <ele>66</ele>
        <time>2013-09-29T09:48:47.000Z</time>
      </trkpt>
      <trkpt lat="48.20837" lon="3.27727">
        <ele>66</ele>
        <time>2013-09-29T09:48:48.000Z</time>
      </trkpt>
      <trkpt lat="48.20835" lon="3.27721">
        <ele>66</ele>
        <time>2013-09-29T09:48:49.000Z</time>
      </trkpt>
      <trkpt lat="48.20833" lon="3.27714">
        <ele>65</ele>
        <time>2013-09-29T09:48:50.000Z</time>
      </trkpt>
      <trkpt lat="48.2083" lon="3.2771">
        <ele>65</ele>
        <time>2013-09-29T09:48:51.000Z</time>
      </trkpt>
      <trkpt lat="48.20825" lon="3.27706">
        <ele>64</ele>
        <time>2013-09-29T09:48:52.000Z</time>
      </trkpt>
      <trkpt lat="48.20821" lon="3.27704">
        <ele>64</ele>
        <time>2013-09-29T09:48:53.000Z</time>
      </trkpt>
      <trkpt lat="48.20816" lon="3.27706">
        <ele>64</ele>
        <time>2013-09-29T09:48:54.000Z</time>
      </trkpt>
      <trkpt lat="48.20812" lon="3.27706">
        <ele>64</ele>
        <time>2013-09-29T09:48:55.000Z</time>
      </trkpt>
      <trkpt lat="48.20806" lon="3.27708">
        <ele>64</ele>
        <time>2013-09-29T09:48:56.000Z</time>
      </trkpt>
      <trkpt lat="48.20801" lon="3.27708">
        <ele>64</ele>
        <time>2013-09-29T09:48:57.000Z</time>
      </trkpt>
      <trkpt lat="48.20795" lon="3.27708">
        <ele>64</ele>
        <time>2013-09-29T09:48:58.000Z</time>
      </trkpt>
      <trkpt lat="48.2079" lon="3.2771">
        <ele>64</ele>
        <time>2013-09-29T09:48:59.000Z</time>
      </trkpt>
      <trkpt lat="48.20785" lon="3.27712">
        <ele>64</ele>
        <time>2013-09-29T09:49:00.000Z</time>
      </trkpt>
      <trkpt lat="48.20779" lon="3.27714">
        <ele>64</ele>
        <time>2013-09-29T09:49:01.000Z</time>
      </trkpt>
      <trkpt lat="48.20774" lon="3.27717">
        <ele>64</ele>
        <time>2013-09-29T09:49:02.000Z</time>
      </trkpt>
      <trkpt lat="48.20769" lon="3.27719">
        <ele>64</ele>
        <time>2013-09-29T09:49:03.000Z</time>
      </trkpt>
      <trkpt lat="48.20762" lon="3.27721">
        <ele>63</ele>
        <time>2013-09-29T09:49:04.000Z</time>
      </trkpt>
      <trkpt lat="48.20757" lon="3.27723">
        <ele>63</ele>
        <time>2013-09-29T09:49:05.000Z</time>
      </trkpt>
      <trkpt lat="48.20753" lon="3.27725">
        <ele>63</ele>
        <time>2013-09-29T09:49:06.000Z</time>
      </trkpt>
      <trkpt lat="48.20747" lon="3.27727">
        <ele>63</ele>
        <time>2013-09-29T09:49:07.000Z</time>
      </trkpt>
      <trkpt lat="48.20742" lon="3.27729">
        <ele>63</ele>
        <time>2013-09-29T09:49:08.000Z</time>
      </trkpt>
      <trkpt lat="48.20737" lon="3.27732">
        <ele>63</ele>
        <time>2013-09-29T09:49:09.000Z</time>
      </trkpt>
      <trkpt lat="48.20733" lon="3.27734">
        <ele>63</ele>
        <time>2013-09-29T09:49:10.000Z</time>
      </trkpt>
      <trkpt lat="48.20729" lon="3.27736">
        <ele>64</ele>
        <time>2013-09-29T09:49:11.000Z</time>
      </trkpt>
      <trkpt lat="48.20726" lon="3.27738">
        <ele>64</ele>
        <time>2013-09-29T09:49:12.000Z</time>
      </trkpt>
      <trkpt lat="48.20722" lon="3.27738">
        <ele>64</ele>
        <time>2013-09-29T09:49:13.000Z</time>
      </trkpt>
      <trkpt lat="48.20718" lon="3.2774">
        <ele>64</ele>
        <time>2013-09-29T09:49:14.000Z</time>
      </trkpt>
      <trkpt lat="48.20716" lon="3.2774">
        <ele>64</ele>
        <time>2013-09-29T09:49:15.000Z</time>
      </trkpt>
      <trkpt lat="48.20713" lon="3.27742">
        <ele>64</ele>
        <time>2013-09-29T09:49:16.000Z</time>
      </trkpt>
      <trkpt lat="48.2071" lon="3.27742">
        <ele>64</ele>
        <time>2013-09-29T09:49:17.000Z</time>
      </trkpt>
      <trkpt lat="48.20706" lon="3.27744">
        <ele>64</ele>
        <time>2013-09-29T09:49:18.000Z</time>
      </trkpt>
      <trkpt lat="48.20703" lon="3.27744">
        <ele>64</ele>
        <time>2013-09-29T09:49:19.000Z</time>
      </trkpt>
      <trkpt lat="48.20699" lon="3.27744">
        <ele>64</ele>
        <time>2013-09-29T09:49:20.000Z</time>
      </trkpt>
      <trkpt lat="48.20696" lon="3.27747">
        <ele>65</ele>
        <time>2013-09-29T09:49:21.000Z</time>
      </trkpt>
      <trkpt lat="48.20691" lon="3.27747">
        <ele>65</ele>
        <time>2013-09-29T09:49:22.000Z</time>
      </trkpt>
      <trkpt lat="48.20687" lon="3.27749">
        <ele>65</ele>
        <time>2013-09-29T09:49:23.000Z</time>
      </trkpt>
      <trkpt lat="48.20682" lon="3.27749">
        <ele>65</ele>
        <time>2013-09-29T09:49:24.000Z</time>
      </trkpt>
      <trkpt lat="48.20677" lon="3.27751">
        <ele>65</ele>
        <time>2013-09-29T09:49:25.000Z</time>
      </trkpt>
      <trkpt lat="48.20673" lon="3.27753">
        <ele>65</ele>
        <time>2013-09-29T09:49:26.000Z</time>
      </trkpt>
      <trkpt lat="48.20669" lon="3.27753">
        <ele>66</ele>
        <time>2013-09-29T09:49:27.000Z</time>
      </trkpt>
      <trkpt lat="48.20666" lon="3.27755">
        <ele>66</ele>
        <time>2013-09-29T09:49:28.000Z</time>
      </trkpt>
      <trkpt lat="48.20661" lon="3.27755">
        <ele>66</ele>
        <time>2013-09-29T09:49:29.000Z</time>
      </trkpt>
      <trkpt lat="48.20657" lon="3.27757">
        <ele>66</ele>
        <time>2013-09-29T09:49:30.000Z</time>
      </trkpt>
      <trkpt lat="48.20653" lon="3.27757">
        <ele>66</ele>
        <time>2013-09-29T09:49:31.000Z</time>
      </trkpt>
      <trkpt lat="48.2065" lon="3.2776">
        <ele>66</ele>
        <time>2013-09-29T09:49:32.000Z</time>
      </trkpt>
      <trkpt lat="48.20645" lon="3.2776">
        <ele>66</ele>
        <time>2013-09-29T09:49:33.000Z</time>
      </trkpt>
      <trkpt lat="48.20641" lon="3.27762">
        <ele>66</ele>
        <time>2013-09-29T09:49:34.000Z</time>
      </trkpt>
      <trkpt lat="48.20637" lon="3.27762">
        <ele>65</ele>
        <time>2013-09-29T09:49:35.000Z</time>
      </trkpt>
      <trkpt lat="48.20632" lon="3.27764">
        <ele>65</ele>
        <time>2013-09-29T09:49:36.000Z</time>
      </trkpt>
      <trkpt lat="48.20628" lon="3.27764">
        <ele>65</ele>
        <time>2013-09-29T09:49:37.000Z</time>
      </trkpt>
      <trkpt lat="48.20623" lon="3.27766">
        <ele>65</ele>
        <time>2013-09-29T09:49:38.000Z</time>
      </trkpt>
      <trkpt lat="48.20619" lon="3.27768">
        <ele>65</ele>
        <time>2013-09-29T09:49:39.000Z</time>
      </trkpt>
      <trkpt lat="48.20615" lon="3.27768">
        <ele>65</ele>
        <time>2013-09-29T09:49:40.000Z</time>
      </trkpt>
      <trkpt lat="48.20611" lon="3.2777">
        <ele>65</ele>
        <time>2013-09-29T09:49:41.000Z</time>
      </trkpt>
      <trkpt lat="48.20607" lon="3.2777">
        <ele>65</ele>
        <time>2013-09-29T09:49:42.000Z</time>
      </trkpt>
      <trkpt lat="48.20603" lon="3.27772">
        <ele>65</ele>
        <time>2013-09-29T09:49:43.000Z</time>
      </trkpt>
      <trkpt lat="48.20599" lon="3.27772">
        <ele>66</ele>
        <time>2013-09-29T09:49:44.000Z</time>
      </trkpt>
      <trkpt lat="48.20595" lon="3.27775">
        <ele>66</ele>
        <time>2013-09-29T09:49:45.000Z</time>
      </trkpt>
      <trkpt lat="48.2059" lon="3.27775">
        <ele>66</ele>
        <time>2013-09-29T09:49:46.000Z</time>
      </trkpt>
      <trkpt lat="48.20587" lon="3.27777">
        <ele>66</ele>
        <time>2013-09-29T09:49:47.000Z</time>
      </trkpt>
      <trkpt lat="48.20583" lon="3.27777">
        <ele>65</ele>
        <time>2013-09-29T09:49:48.000Z</time>
      </trkpt>
      <trkpt lat="48.2058" lon="3.27779">
        <ele>65</ele>
        <time>2013-09-29T09:49:49.000Z</time>
      </trkpt>
      <trkpt lat="48.20575" lon="3.27779">
        <ele>65</ele>
        <time>2013-09-29T09:49:50.000Z</time>
      </trkpt>
      <trkpt lat="48.20572" lon="3.27779">
        <ele>65</ele>
        <time>2013-09-29T09:49:51.000Z</time>
      </trkpt>
      <trkpt lat="48.20568" lon="3.27781">
        <ele>65</ele>
        <time>2013-09-29T09:49:52.000Z</time>
      </trkpt>
      <trkpt lat="48.20564" lon="3.27781">
        <ele>65</ele>
        <time>2013-09-29T09:49:53.000Z</time>
      </trkpt>
      <trkpt lat="48.2056" lon="3.27779">
        <ele>65</ele>
        <time>2013-09-29T09:49:54.000Z</time>
      </trkpt>
      <trkpt lat="48.20557" lon="3.27777">
        <ele>65</ele>
        <time>2013-09-29T09:49:55.000Z</time>
      </trkpt>
      <trkpt lat="48.20553" lon="3.27775">
        <ele>65</ele>
        <time>2013-09-29T09:49:56.000Z</time>
      </trkpt>
      <trkpt lat="48.2055" lon="3.2777">
        <ele>65</ele>
        <time>2013-09-29T09:49:57.000Z</time>
      </trkpt>
      <trkpt lat="48.20545" lon="3.27768">
        <ele>65</ele>
        <time>2013-09-29T09:49:58.000Z</time>
      </trkpt>
      <trkpt lat="48.20541" lon="3.27766">
        <ele>65</ele>
        <time>2013-09-29T09:49:59.000Z</time>
      </trkpt>
      <trkpt lat="48.20538" lon="3.27764">
        <ele>65</ele>
        <time>2013-09-29T09:50:00.000Z</time>
      </trkpt>
      <trkpt lat="48.20535" lon="3.27762">
        <ele>65</ele>
        <time>2013-09-29T09:50:16.000Z</time>
      </trkpt>
      <trkpt lat="48.2053" lon="3.27755">
        <ele>65</ele>
        <time>2013-09-29T09:50:17.000Z</time>
      </trkpt>
      <trkpt lat="48.2053" lon="3.27755">
        <ele>65</ele>
        <time>2013-09-29T09:50:48.000Z</time>
      </trkpt>
      <trkpt lat="48.20525" lon="3.27755">
        <ele>65</ele>
        <time>2013-09-29T09:50:49.000Z</time>
      </trkpt>
      <trkpt lat="48.20522" lon="3.27757">
        <ele>65</ele>
        <time>2013-09-29T09:50:50.000Z</time>
      </trkpt>
      <trkpt lat="48.20518" lon="3.2776">
        <ele>64</ele>
        <time>2013-09-29T09:50:51.000Z</time>
      </trkpt>
      <trkpt lat="48.20514" lon="3.27764">
        <ele>64</ele>
        <time>2013-09-29T09:50:52.000Z</time>
      </trkpt>
      <trkpt lat="48.2051" lon="3.2777">
        <ele>64</ele>
        <time>2013-09-29T09:50:53.000Z</time>
      </trkpt>
      <trkpt lat="48.20506" lon="3.27775">
        <ele>64</ele>
        <time>2013-09-29T09:50:54.000Z</time>
      </trkpt>
      <trkpt lat="48.20504" lon="3.27783">
        <ele>64</ele>
        <time>2013-09-29T09:50:55.000Z</time>
      </trkpt>
      <trkpt lat="48.205" lon="3.2779">
        <ele>64</ele>
        <time>2013-09-29T09:50:56.000Z</time>
      </trkpt>
      <trkpt lat="48.20496" lon="3.27794">
        <ele>64</ele>
        <time>2013-09-29T09:50:57.000Z</time>
      </trkpt>
      <trkpt lat="48.20492" lon="3.278">
        <ele>64</ele>
        <time>2013-09-29T09:50:58.000Z</time>
      </trkpt>
      <trkpt lat="48.20486" lon="3.27805">
        <ele>64</ele>
        <time>2013-09-29T09:50:59.000Z</time>
      </trkpt>
      <trkpt lat="48.20482" lon="3.27811">
        <ele>64</ele>
        <time>2013-09-29T09:51:00.000Z</time>
      </trkpt>
      <trkpt lat="48.20477" lon="3.27815">
        <ele>65</ele>
        <time>2013-09-29T09:51:01.000Z</time>
      </trkpt>
      <trkpt lat="48.20472" lon="3.2782">
        <ele>65</ele>
        <time>2013-09-29T09:51:02.000Z</time>
      </trkpt>
      <trkpt lat="48.20467" lon="3.27824">
        <ele>65</ele>
        <time>2013-09-29T09:51:03.000Z</time>
      </trkpt>
      <trkpt lat="48.20463" lon="3.2783">
        <ele>65</ele>
        <time>2013-09-29T09:51:04.000Z</time>
      </trkpt>
      <trkpt lat="48.20459" lon="3.27835">
        <ele>65</ele>
        <time>2013-09-29T09:51:05.000Z</time>
      </trkpt>
      <trkpt lat="48.20453" lon="3.27841">
        <ele>65</ele>
        <time>2013-09-29T09:51:06.000Z</time>
      </trkpt>
      <trkpt lat="48.20449" lon="3.27845">
        <ele>65</ele>
        <time>2013-09-29T09:51:07.000Z</time>
      </trkpt>
      <trkpt lat="48.20445" lon="3.27852">
        <ele>65</ele>
        <time>2013-09-29T09:51:08.000Z</time>
      </trkpt>
      <trkpt lat="48.20439" lon="3.27856">
        <ele>65</ele>
        <time>2013-09-29T09:51:09.000Z</time>
      </trkpt>
      <trkpt lat="48.20434" lon="3.2786">
        <ele>65</ele>
        <time>2013-09-29T09:51:10.000Z</time>
      </trkpt>
      <trkpt lat="48.2043" lon="3.27865">
        <ele>65</ele>
        <time>2013-09-29T09:51:11.000Z</time>
      </trkpt>
      <trkpt lat="48.20424" lon="3.27869">
        <ele>65</ele>
        <time>2013-09-29T09:51:12.000Z</time>
      </trkpt>
      <trkpt lat="48.20419" lon="3.27875">
        <ele>66</ele>
        <time>2013-09-29T09:51:13.000Z</time>
      </trkpt>
      <trkpt lat="48.20413" lon="3.2788">
        <ele>67</ele>
        <time>2013-09-29T09:51:14.000Z</time>
      </trkpt>
      <trkpt lat="48.20409" lon="3.27886">
        <ele>67</ele>
        <time>2013-09-29T09:51:15.000Z</time>
      </trkpt>
      <trkpt lat="48.20404" lon="3.2789">
        <ele>67</ele>
        <time>2013-09-29T09:51:16.000Z</time>
      </trkpt>
      <trkpt lat="48.20398" lon="3.27897">
        <ele>67</ele>
        <time>2013-09-29T09:51:17.000Z</time>
      </trkpt>
      <trkpt lat="48.20393" lon="3.27903">
        <ele>67</ele>
        <time>2013-09-29T09:51:18.000Z</time>
      </trkpt>
      <trkpt lat="48.20389" lon="3.27908">
        <ele>67</ele>
        <time>2013-09-29T09:51:19.000Z</time>
      </trkpt>
      <trkpt lat="48.20383" lon="3.27914">
        <ele>67</ele>
        <time>2013-09-29T09:51:20.000Z</time>
      </trkpt>
      <trkpt lat="48.20378" lon="3.2792">
        <ele>67</ele>
        <time>2013-09-29T09:51:21.000Z</time>
      </trkpt>
      <trkpt lat="48.20374" lon="3.27925">
        <ele>67</ele>
        <time>2013-09-29T09:51:22.000Z</time>
      </trkpt>
      <trkpt lat="48.20368" lon="3.27931">
        <ele>67</ele>
        <time>2013-09-29T09:51:23.000Z</time>
      </trkpt>
      <trkpt lat="48.20363" lon="3.27938">
        <ele>67</ele>
        <time>2013-09-29T09:51:24.000Z</time>
      </trkpt>
      <trkpt lat="48.20359" lon="3.27942">
        <ele>67</ele>
        <time>2013-09-29T09:51:25.000Z</time>
      </trkpt>
      <trkpt lat="48.20353" lon="3.27948">
        <ele>67</ele>
        <time>2013-09-29T09:51:26.000Z</time>
      </trkpt>
      <trkpt lat="48.20348" lon="3.27955">
        <ele>67</ele>
        <time>2013-09-29T09:51:27.000Z</time>
      </trkpt>
      <trkpt lat="48.20343" lon="3.27959">
        <ele>67</ele>
        <time>2013-09-29T09:51:28.000Z</time>
      </trkpt>
      <trkpt lat="48.20337" lon="3.27965">
        <ele>67</ele>
        <time>2013-09-29T09:51:29.000Z</time>
      </trkpt>
      <trkpt lat="48.20333" lon="3.2797">
        <ele>67</ele>
        <time>2013-09-29T09:51:30.000Z</time>
      </trkpt>
      <trkpt lat="48.20328" lon="3.27976">
        <ele>66</ele>
        <time>2013-09-29T09:51:31.000Z</time>
      </trkpt>
      <trkpt lat="48.20322" lon="3.27981">
        <ele>66</ele>
        <time>2013-09-29T09:51:32.000Z</time>
      </trkpt>
      <trkpt lat="48.20317" lon="3.27987">
        <ele>66</ele>
        <time>2013-09-29T09:51:33.000Z</time>
      </trkpt>
      <trkpt lat="48.20312" lon="3.27991">
        <ele>66</ele>
        <time>2013-09-29T09:51:34.000Z</time>
      </trkpt>
      <trkpt lat="48.20307" lon="3.27998">
        <ele>67</ele>
        <time>2013-09-29T09:51:35.000Z</time>
      </trkpt>
      <trkpt lat="48.20303" lon="3.28002">
        <ele>66</ele>
        <time>2013-09-29T09:51:36.000Z</time>
      </trkpt>
      <trkpt lat="48.20299" lon="3.28006">
        <ele>66</ele>
        <time>2013-09-29T09:51:37.000Z</time>
      </trkpt>
      <trkpt lat="48.20293" lon="3.28011">
        <ele>66</ele>
        <time>2013-09-29T09:51:38.000Z</time>
      </trkpt>
      <trkpt lat="48.2029" lon="3.28015">
        <ele>67</ele>
        <time>2013-09-29T09:51:39.000Z</time>
      </trkpt>
      <trkpt lat="48.20287" lon="3.28019">
        <ele>67</ele>
        <time>2013-09-29T09:51:40.000Z</time>
      </trkpt>
      <trkpt lat="48.20283" lon="3.28023">
        <ele>67</ele>
        <time>2013-09-29T09:51:41.000Z</time>
      </trkpt>
      <trkpt lat="48.2028" lon="3.28026">
        <ele>67</ele>
        <time>2013-09-29T09:51:42.000Z</time>
      </trkpt>
      <trkpt lat="48.20277" lon="3.2803">
        <ele>67</ele>
        <time>2013-09-29T09:51:43.000Z</time>
      </trkpt>
      <trkpt lat="48.20275" lon="3.28032">
        <ele>67</ele>
        <time>2013-09-29T09:51:44.000Z</time>
      </trkpt>
      <trkpt lat="48.20274" lon="3.28036">
        <ele>67</ele>
        <time>2013-09-29T09:51:45.000Z</time>
      </trkpt>
      <trkpt lat="48.20273" lon="3.28041">
        <ele>67</ele>
        <time>2013-09-29T09:51:46.000Z</time>
      </trkpt>
      <trkpt lat="48.20272" lon="3.28045">
        <ele>67</ele>
        <time>2013-09-29T09:51:47.000Z</time>
      </trkpt>
      <trkpt lat="48.2027" lon="3.28049">
        <ele>67</ele>
        <time>2013-09-29T09:51:48.000Z</time>
      </trkpt>
      <trkpt lat="48.20269" lon="3.28053">
        <ele>67</ele>
        <time>2013-09-29T09:51:49.000Z</time>
      </trkpt>
      <trkpt lat="48.20268" lon="3.2806">
        <ele>67</ele>
        <time>2013-09-29T09:52:11.000Z</time>
      </trkpt>
    </trkseg>
  </trk>
</gpx>